<?xml version="1.0" encoding="UTF-8" standalone="no" ?>
<gpx xmlns="http://www.topografix.com/GPX/1/1" xmlns:xsi="http://www.w3.org/2001/XMLSchema-instance" xsi:schemaLocation="http://www.topografix.com/GPX/1/1 http://www.topografix.com/GPX/1/1/gpx.xsd" version="1.1" creator="VisuGPX - https://www.visugpx.com">
  <metadata>
    <name>2018-06-29 Bike ride-Amberieux en Dombes O via Toussieux 41k</name>
    <desc><![CDATA[2018-06-29 Bike ride-Amberieux en Dombes O via Toussieux 41k]]></desc>
  </metadata>
  <wpt lat="45.92459" lon="4.73718">
    <ele>174</ele>
    <name><![CDATA[2018-06-29 10:11 (Start)]]></name>
  </wpt>
  <wpt lat="45.92458" lon="4.73708">
    <ele>174</ele>
    <name><![CDATA[2018-06-29 10:11 (End)]]></name>
  </wpt>
  <trk>
    <name><![CDATA[2018-06-29 10:11]]></name>
    <trkseg>
      <trkpt lat="45.92459" lon="4.73718">
        <ele>174</ele>
        <time>2018-06-29T08:11:08.995Z</time>
      </trkpt>
      <trkpt lat="45.92458" lon="4.73717">
        <ele>174</ele>
        <time>2018-06-29T08:11:11.866Z</time>
      </trkpt>
      <trkpt lat="45.92456" lon="4.73712">
        <ele>174</ele>
        <time>2018-06-29T08:11:24Z</time>
      </trkpt>
      <trkpt lat="45.92456" lon="4.73713">
        <ele>174</ele>
        <time>2018-06-29T08:11:25Z</time>
      </trkpt>
      <trkpt lat="45.92462" lon="4.73704">
        <ele>174</ele>
        <time>2018-06-29T08:11:31Z</time>
      </trkpt>
      <trkpt lat="45.92463" lon="4.73702">
        <ele>174</ele>
        <time>2018-06-29T08:11:32Z</time>
      </trkpt>
      <trkpt lat="45.92464" lon="4.73691">
        <ele>174</ele>
        <time>2018-06-29T08:11:36Z</time>
      </trkpt>
      <trkpt lat="45.92465" lon="4.73687">
        <ele>174</ele>
        <time>2018-06-29T08:11:37Z</time>
      </trkpt>
      <trkpt lat="45.92467" lon="4.7368">
        <ele>174</ele>
        <time>2018-06-29T08:11:39Z</time>
      </trkpt>
      <trkpt lat="45.9247" lon="4.73667">
        <ele>174</ele>
        <time>2018-06-29T08:11:40Z</time>
      </trkpt>
      <trkpt lat="45.92472" lon="4.73657">
        <ele>174</ele>
        <time>2018-06-29T08:11:43Z</time>
      </trkpt>
      <trkpt lat="45.92476" lon="4.73647">
        <ele>174</ele>
        <time>2018-06-29T08:11:44Z</time>
      </trkpt>
      <trkpt lat="45.92483" lon="4.73641">
        <ele>174</ele>
        <time>2018-06-29T08:11:46Z</time>
      </trkpt>
      <trkpt lat="45.92487" lon="4.73639">
        <ele>174</ele>
        <time>2018-06-29T08:11:47Z</time>
      </trkpt>
      <trkpt lat="45.92496" lon="4.7364">
        <ele>174</ele>
        <time>2018-06-29T08:11:49Z</time>
      </trkpt>
      <trkpt lat="45.925" lon="4.73641">
        <ele>174</ele>
        <time>2018-06-29T08:11:50Z</time>
      </trkpt>
      <trkpt lat="45.92509" lon="4.73641">
        <ele>174</ele>
        <time>2018-06-29T08:11:52Z</time>
      </trkpt>
      <trkpt lat="45.92513" lon="4.73641">
        <ele>174</ele>
        <time>2018-06-29T08:11:53Z</time>
      </trkpt>
      <trkpt lat="45.92522" lon="4.73641">
        <ele>173</ele>
        <time>2018-06-29T08:11:55Z</time>
      </trkpt>
      <trkpt lat="45.92527" lon="4.73642">
        <ele>173</ele>
        <time>2018-06-29T08:11:56Z</time>
      </trkpt>
      <trkpt lat="45.92532" lon="4.73641">
        <ele>173</ele>
        <time>2018-06-29T08:11:57Z</time>
      </trkpt>
      <trkpt lat="45.92537" lon="4.7364">
        <ele>173</ele>
        <time>2018-06-29T08:11:58Z</time>
      </trkpt>
      <trkpt lat="45.92543" lon="4.73638">
        <ele>173</ele>
        <time>2018-06-29T08:11:59Z</time>
      </trkpt>
      <trkpt lat="45.92548" lon="4.73638">
        <ele>173</ele>
        <time>2018-06-29T08:12:00Z</time>
      </trkpt>
      <trkpt lat="45.92552" lon="4.73638">
        <ele>173</ele>
        <time>2018-06-29T08:12:01Z</time>
      </trkpt>
      <trkpt lat="45.92557" lon="4.73637">
        <ele>173</ele>
        <time>2018-06-29T08:12:02Z</time>
      </trkpt>
      <trkpt lat="45.92566" lon="4.73633">
        <ele>173</ele>
        <time>2018-06-29T08:12:04Z</time>
      </trkpt>
      <trkpt lat="45.9257" lon="4.73632">
        <ele>173</ele>
        <time>2018-06-29T08:12:05Z</time>
      </trkpt>
      <trkpt lat="45.92576" lon="4.7363">
        <ele>173</ele>
        <time>2018-06-29T08:12:07Z</time>
      </trkpt>
      <trkpt lat="45.9258" lon="4.73632">
        <ele>173</ele>
        <time>2018-06-29T08:12:08Z</time>
      </trkpt>
      <trkpt lat="45.92586" lon="4.73631">
        <ele>172</ele>
        <time>2018-06-29T08:12:10Z</time>
      </trkpt>
      <trkpt lat="45.92591" lon="4.73628">
        <ele>172</ele>
        <time>2018-06-29T08:12:11Z</time>
      </trkpt>
      <trkpt lat="45.92596" lon="4.73628">
        <ele>172</ele>
        <time>2018-06-29T08:12:12Z</time>
      </trkpt>
      <trkpt lat="45.92601" lon="4.73627">
        <ele>173</ele>
        <time>2018-06-29T08:12:13Z</time>
      </trkpt>
      <trkpt lat="45.92606" lon="4.73627">
        <ele>173</ele>
        <time>2018-06-29T08:12:14Z</time>
      </trkpt>
      <trkpt lat="45.92611" lon="4.73628">
        <ele>173</ele>
        <time>2018-06-29T08:12:15Z</time>
      </trkpt>
      <trkpt lat="45.92617" lon="4.73633">
        <ele>173</ele>
        <time>2018-06-29T08:12:16Z</time>
      </trkpt>
      <trkpt lat="45.92622" lon="4.73635">
        <ele>173</ele>
        <time>2018-06-29T08:12:17Z</time>
      </trkpt>
      <trkpt lat="45.92623" lon="4.73643">
        <ele>173</ele>
        <time>2018-06-29T08:12:18Z</time>
      </trkpt>
      <trkpt lat="45.92626" lon="4.73648">
        <ele>173</ele>
        <time>2018-06-29T08:12:19Z</time>
      </trkpt>
      <trkpt lat="45.92629" lon="4.73653">
        <ele>173</ele>
        <time>2018-06-29T08:12:20Z</time>
      </trkpt>
      <trkpt lat="45.92632" lon="4.73659">
        <ele>173</ele>
        <time>2018-06-29T08:12:21Z</time>
      </trkpt>
      <trkpt lat="45.92634" lon="4.73666">
        <ele>173</ele>
        <time>2018-06-29T08:12:22Z</time>
      </trkpt>
      <trkpt lat="45.92637" lon="4.73673">
        <ele>173</ele>
        <time>2018-06-29T08:12:23Z</time>
      </trkpt>
      <trkpt lat="45.9264" lon="4.73678">
        <ele>173</ele>
        <time>2018-06-29T08:12:24Z</time>
      </trkpt>
      <trkpt lat="45.92643" lon="4.73684">
        <ele>173</ele>
        <time>2018-06-29T08:12:25Z</time>
      </trkpt>
      <trkpt lat="45.92648" lon="4.73688">
        <ele>173</ele>
        <time>2018-06-29T08:12:26Z</time>
      </trkpt>
      <trkpt lat="45.92653" lon="4.73692">
        <ele>173</ele>
        <time>2018-06-29T08:12:27Z</time>
      </trkpt>
      <trkpt lat="45.92658" lon="4.73696">
        <ele>173</ele>
        <time>2018-06-29T08:12:28Z</time>
      </trkpt>
      <trkpt lat="45.92662" lon="4.73697">
        <ele>173</ele>
        <time>2018-06-29T08:12:29Z</time>
      </trkpt>
      <trkpt lat="45.92667" lon="4.73701">
        <ele>174</ele>
        <time>2018-06-29T08:12:30Z</time>
      </trkpt>
      <trkpt lat="45.92673" lon="4.73703">
        <ele>174</ele>
        <time>2018-06-29T08:12:31Z</time>
      </trkpt>
      <trkpt lat="45.92679" lon="4.73704">
        <ele>173</ele>
        <time>2018-06-29T08:12:32Z</time>
      </trkpt>
      <trkpt lat="45.92685" lon="4.73707">
        <ele>173</ele>
        <time>2018-06-29T08:12:33Z</time>
      </trkpt>
      <trkpt lat="45.9269" lon="4.73708">
        <ele>173</ele>
        <time>2018-06-29T08:12:34Z</time>
      </trkpt>
      <trkpt lat="45.92695" lon="4.73709">
        <ele>173</ele>
        <time>2018-06-29T08:12:35Z</time>
      </trkpt>
      <trkpt lat="45.92701" lon="4.7371">
        <ele>173</ele>
        <time>2018-06-29T08:12:36Z</time>
      </trkpt>
      <trkpt lat="45.92706" lon="4.73711">
        <ele>173</ele>
        <time>2018-06-29T08:12:37Z</time>
      </trkpt>
      <trkpt lat="45.92713" lon="4.73715">
        <ele>173</ele>
        <time>2018-06-29T08:12:39Z</time>
      </trkpt>
      <trkpt lat="45.92718" lon="4.73716">
        <ele>173</ele>
        <time>2018-06-29T08:12:40Z</time>
      </trkpt>
      <trkpt lat="45.92722" lon="4.73719">
        <ele>173</ele>
        <time>2018-06-29T08:12:41Z</time>
      </trkpt>
      <trkpt lat="45.92728" lon="4.7372">
        <ele>173</ele>
        <time>2018-06-29T08:12:42Z</time>
      </trkpt>
      <trkpt lat="45.92733" lon="4.73722">
        <ele>173</ele>
        <time>2018-06-29T08:12:43Z</time>
      </trkpt>
      <trkpt lat="45.92739" lon="4.73723">
        <ele>173</ele>
        <time>2018-06-29T08:12:44Z</time>
      </trkpt>
      <trkpt lat="45.92744" lon="4.73725">
        <ele>173</ele>
        <time>2018-06-29T08:12:45Z</time>
      </trkpt>
      <trkpt lat="45.92749" lon="4.73725">
        <ele>173</ele>
        <time>2018-06-29T08:12:46Z</time>
      </trkpt>
      <trkpt lat="45.92754" lon="4.73726">
        <ele>172</ele>
        <time>2018-06-29T08:12:47Z</time>
      </trkpt>
      <trkpt lat="45.92762" lon="4.73725">
        <ele>172</ele>
        <time>2018-06-29T08:12:48Z</time>
      </trkpt>
      <trkpt lat="45.92764" lon="4.7373">
        <ele>172</ele>
        <time>2018-06-29T08:12:49Z</time>
      </trkpt>
      <trkpt lat="45.9277" lon="4.7373">
        <ele>172</ele>
        <time>2018-06-29T08:12:50Z</time>
      </trkpt>
      <trkpt lat="45.92778" lon="4.73736">
        <ele>172</ele>
        <time>2018-06-29T08:12:53Z</time>
      </trkpt>
      <trkpt lat="45.92781" lon="4.73746">
        <ele>172</ele>
        <time>2018-06-29T08:12:54Z</time>
      </trkpt>
      <trkpt lat="45.92788" lon="4.73753">
        <ele>173</ele>
        <time>2018-06-29T08:12:56Z</time>
      </trkpt>
      <trkpt lat="45.9279" lon="4.73756">
        <ele>173</ele>
        <time>2018-06-29T08:12:57Z</time>
      </trkpt>
      <trkpt lat="45.92795" lon="4.7376">
        <ele>173</ele>
        <time>2018-06-29T08:12:58Z</time>
      </trkpt>
      <trkpt lat="45.92799" lon="4.73764">
        <ele>173</ele>
        <time>2018-06-29T08:12:59Z</time>
      </trkpt>
      <trkpt lat="45.92804" lon="4.73768">
        <ele>173</ele>
        <time>2018-06-29T08:13:00Z</time>
      </trkpt>
      <trkpt lat="45.92809" lon="4.73772">
        <ele>173</ele>
        <time>2018-06-29T08:13:01Z</time>
      </trkpt>
      <trkpt lat="45.92813" lon="4.73774">
        <ele>173</ele>
        <time>2018-06-29T08:13:02Z</time>
      </trkpt>
      <trkpt lat="45.92819" lon="4.73778">
        <ele>173</ele>
        <time>2018-06-29T08:13:03Z</time>
      </trkpt>
      <trkpt lat="45.92824" lon="4.73781">
        <ele>173</ele>
        <time>2018-06-29T08:13:04Z</time>
      </trkpt>
      <trkpt lat="45.92829" lon="4.73785">
        <ele>173</ele>
        <time>2018-06-29T08:13:05Z</time>
      </trkpt>
      <trkpt lat="45.92834" lon="4.73788">
        <ele>173</ele>
        <time>2018-06-29T08:13:06Z</time>
      </trkpt>
      <trkpt lat="45.92839" lon="4.73789">
        <ele>173</ele>
        <time>2018-06-29T08:13:07Z</time>
      </trkpt>
      <trkpt lat="45.92843" lon="4.73793">
        <ele>173</ele>
        <time>2018-06-29T08:13:08Z</time>
      </trkpt>
      <trkpt lat="45.92847" lon="4.73799">
        <ele>173</ele>
        <time>2018-06-29T08:13:09Z</time>
      </trkpt>
      <trkpt lat="45.9285" lon="4.73804">
        <ele>173</ele>
        <time>2018-06-29T08:13:10Z</time>
      </trkpt>
      <trkpt lat="45.92853" lon="4.7381">
        <ele>173</ele>
        <time>2018-06-29T08:13:11Z</time>
      </trkpt>
      <trkpt lat="45.92856" lon="4.73817">
        <ele>173</ele>
        <time>2018-06-29T08:13:12Z</time>
      </trkpt>
      <trkpt lat="45.92859" lon="4.73825">
        <ele>173</ele>
        <time>2018-06-29T08:13:13Z</time>
      </trkpt>
      <trkpt lat="45.92861" lon="4.73832">
        <ele>173</ele>
        <time>2018-06-29T08:13:14Z</time>
      </trkpt>
      <trkpt lat="45.92863" lon="4.73839">
        <ele>173</ele>
        <time>2018-06-29T08:13:15Z</time>
      </trkpt>
      <trkpt lat="45.92865" lon="4.73847">
        <ele>173</ele>
        <time>2018-06-29T08:13:16Z</time>
      </trkpt>
      <trkpt lat="45.92868" lon="4.73854">
        <ele>173</ele>
        <time>2018-06-29T08:13:17Z</time>
      </trkpt>
      <trkpt lat="45.92886" lon="4.73906">
        <ele>173</ele>
        <time>2018-06-29T08:13:23Z</time>
      </trkpt>
      <trkpt lat="45.92882" lon="4.73909">
        <ele>173</ele>
        <time>2018-06-29T08:13:24Z</time>
      </trkpt>
      <trkpt lat="45.92882" lon="4.73919">
        <ele>172</ele>
        <time>2018-06-29T08:13:25Z</time>
      </trkpt>
      <trkpt lat="45.92883" lon="4.73926">
        <ele>172</ele>
        <time>2018-06-29T08:13:26Z</time>
      </trkpt>
      <trkpt lat="45.92883" lon="4.73933">
        <ele>172</ele>
        <time>2018-06-29T08:13:27Z</time>
      </trkpt>
      <trkpt lat="45.92884" lon="4.7394">
        <ele>172</ele>
        <time>2018-06-29T08:13:28Z</time>
      </trkpt>
      <trkpt lat="45.92883" lon="4.73948">
        <ele>172</ele>
        <time>2018-06-29T08:13:29Z</time>
      </trkpt>
      <trkpt lat="45.92884" lon="4.73955">
        <ele>172</ele>
        <time>2018-06-29T08:13:30Z</time>
      </trkpt>
      <trkpt lat="45.92883" lon="4.73962">
        <ele>172</ele>
        <time>2018-06-29T08:13:31Z</time>
      </trkpt>
      <trkpt lat="45.92883" lon="4.7397">
        <ele>172</ele>
        <time>2018-06-29T08:13:32Z</time>
      </trkpt>
      <trkpt lat="45.92884" lon="4.73976">
        <ele>172</ele>
        <time>2018-06-29T08:13:33Z</time>
      </trkpt>
      <trkpt lat="45.92882" lon="4.73989">
        <ele>172</ele>
        <time>2018-06-29T08:13:35Z</time>
      </trkpt>
      <trkpt lat="45.92881" lon="4.73995">
        <ele>172</ele>
        <time>2018-06-29T08:13:36Z</time>
      </trkpt>
      <trkpt lat="45.92879" lon="4.74002">
        <ele>172</ele>
        <time>2018-06-29T08:13:37Z</time>
      </trkpt>
      <trkpt lat="45.92878" lon="4.74008">
        <ele>172</ele>
        <time>2018-06-29T08:13:38Z</time>
      </trkpt>
      <trkpt lat="45.92876" lon="4.74016">
        <ele>172</ele>
        <time>2018-06-29T08:13:39Z</time>
      </trkpt>
      <trkpt lat="45.92874" lon="4.74022">
        <ele>172</ele>
        <time>2018-06-29T08:13:40Z</time>
      </trkpt>
      <trkpt lat="45.92874" lon="4.7403">
        <ele>172</ele>
        <time>2018-06-29T08:13:41Z</time>
      </trkpt>
      <trkpt lat="45.92872" lon="4.74036">
        <ele>172</ele>
        <time>2018-06-29T08:13:42Z</time>
      </trkpt>
      <trkpt lat="45.92869" lon="4.74043">
        <ele>172</ele>
        <time>2018-06-29T08:13:43Z</time>
      </trkpt>
      <trkpt lat="45.92864" lon="4.74046">
        <ele>172</ele>
        <time>2018-06-29T08:13:44Z</time>
      </trkpt>
      <trkpt lat="45.92861" lon="4.74052">
        <ele>172</ele>
        <time>2018-06-29T08:13:45Z</time>
      </trkpt>
      <trkpt lat="45.92856" lon="4.74057">
        <ele>172</ele>
        <time>2018-06-29T08:13:46Z</time>
      </trkpt>
      <trkpt lat="45.92852" lon="4.74062">
        <ele>172</ele>
        <time>2018-06-29T08:13:47Z</time>
      </trkpt>
      <trkpt lat="45.92847" lon="4.74066">
        <ele>172</ele>
        <time>2018-06-29T08:13:48Z</time>
      </trkpt>
      <trkpt lat="45.92842" lon="4.74071">
        <ele>172</ele>
        <time>2018-06-29T08:13:49Z</time>
      </trkpt>
      <trkpt lat="45.92838" lon="4.74076">
        <ele>171</ele>
        <time>2018-06-29T08:13:50Z</time>
      </trkpt>
      <trkpt lat="45.92834" lon="4.74081">
        <ele>171</ele>
        <time>2018-06-29T08:13:51Z</time>
      </trkpt>
      <trkpt lat="45.9283" lon="4.74086">
        <ele>171</ele>
        <time>2018-06-29T08:13:52Z</time>
      </trkpt>
      <trkpt lat="45.92825" lon="4.74089">
        <ele>171</ele>
        <time>2018-06-29T08:13:53Z</time>
      </trkpt>
      <trkpt lat="45.9282" lon="4.74095">
        <ele>171</ele>
        <time>2018-06-29T08:13:54Z</time>
      </trkpt>
      <trkpt lat="45.92816" lon="4.741">
        <ele>171</ele>
        <time>2018-06-29T08:13:55Z</time>
      </trkpt>
      <trkpt lat="45.92811" lon="4.74106">
        <ele>172</ele>
        <time>2018-06-29T08:13:56Z</time>
      </trkpt>
      <trkpt lat="45.92807" lon="4.74112">
        <ele>172</ele>
        <time>2018-06-29T08:13:57Z</time>
      </trkpt>
      <trkpt lat="45.92803" lon="4.74117">
        <ele>172</ele>
        <time>2018-06-29T08:13:58Z</time>
      </trkpt>
      <trkpt lat="45.92797" lon="4.74123">
        <ele>172</ele>
        <time>2018-06-29T08:13:59Z</time>
      </trkpt>
      <trkpt lat="45.92792" lon="4.7413">
        <ele>172</ele>
        <time>2018-06-29T08:14:00Z</time>
      </trkpt>
      <trkpt lat="45.92787" lon="4.74138">
        <ele>172</ele>
        <time>2018-06-29T08:14:01Z</time>
      </trkpt>
      <trkpt lat="45.92782" lon="4.74142">
        <ele>172</ele>
        <time>2018-06-29T08:14:02Z</time>
      </trkpt>
      <trkpt lat="45.92776" lon="4.74148">
        <ele>172</ele>
        <time>2018-06-29T08:14:03Z</time>
      </trkpt>
      <trkpt lat="45.92771" lon="4.74152">
        <ele>172</ele>
        <time>2018-06-29T08:14:04Z</time>
      </trkpt>
      <trkpt lat="45.92765" lon="4.74158">
        <ele>172</ele>
        <time>2018-06-29T08:14:05Z</time>
      </trkpt>
      <trkpt lat="45.92761" lon="4.74163">
        <ele>172</ele>
        <time>2018-06-29T08:14:06Z</time>
      </trkpt>
      <trkpt lat="45.92756" lon="4.74169">
        <ele>172</ele>
        <time>2018-06-29T08:14:07Z</time>
      </trkpt>
      <trkpt lat="45.92752" lon="4.74173">
        <ele>172</ele>
        <time>2018-06-29T08:14:08Z</time>
      </trkpt>
      <trkpt lat="45.92747" lon="4.74178">
        <ele>172</ele>
        <time>2018-06-29T08:14:09Z</time>
      </trkpt>
      <trkpt lat="45.92743" lon="4.74183">
        <ele>172</ele>
        <time>2018-06-29T08:14:10Z</time>
      </trkpt>
      <trkpt lat="45.92739" lon="4.7419">
        <ele>171</ele>
        <time>2018-06-29T08:14:11Z</time>
      </trkpt>
      <trkpt lat="45.92735" lon="4.74193">
        <ele>171</ele>
        <time>2018-06-29T08:14:12Z</time>
      </trkpt>
      <trkpt lat="45.92731" lon="4.742">
        <ele>171</ele>
        <time>2018-06-29T08:14:13Z</time>
      </trkpt>
      <trkpt lat="45.92727" lon="4.74204">
        <ele>171</ele>
        <time>2018-06-29T08:14:14Z</time>
      </trkpt>
      <trkpt lat="45.92722" lon="4.7421">
        <ele>171</ele>
        <time>2018-06-29T08:14:15Z</time>
      </trkpt>
      <trkpt lat="45.92718" lon="4.74214">
        <ele>171</ele>
        <time>2018-06-29T08:14:16Z</time>
      </trkpt>
      <trkpt lat="45.92715" lon="4.74223">
        <ele>171</ele>
        <time>2018-06-29T08:14:17Z</time>
      </trkpt>
      <trkpt lat="45.9271" lon="4.7423">
        <ele>171</ele>
        <time>2018-06-29T08:14:18Z</time>
      </trkpt>
      <trkpt lat="45.92706" lon="4.74236">
        <ele>171</ele>
        <time>2018-06-29T08:14:19Z</time>
      </trkpt>
      <trkpt lat="45.92702" lon="4.74241">
        <ele>171</ele>
        <time>2018-06-29T08:14:20Z</time>
      </trkpt>
      <trkpt lat="45.92698" lon="4.74247">
        <ele>171</ele>
        <time>2018-06-29T08:14:21Z</time>
      </trkpt>
      <trkpt lat="45.92694" lon="4.74252">
        <ele>171</ele>
        <time>2018-06-29T08:14:22Z</time>
      </trkpt>
      <trkpt lat="45.9269" lon="4.74258">
        <ele>171</ele>
        <time>2018-06-29T08:14:23Z</time>
      </trkpt>
      <trkpt lat="45.92687" lon="4.74265">
        <ele>171</ele>
        <time>2018-06-29T08:14:24Z</time>
      </trkpt>
      <trkpt lat="45.92683" lon="4.74272">
        <ele>171</ele>
        <time>2018-06-29T08:14:25Z</time>
      </trkpt>
      <trkpt lat="45.92679" lon="4.7428">
        <ele>171</ele>
        <time>2018-06-29T08:14:26Z</time>
      </trkpt>
      <trkpt lat="45.92675" lon="4.74286">
        <ele>171</ele>
        <time>2018-06-29T08:14:27Z</time>
      </trkpt>
      <trkpt lat="45.92672" lon="4.74293">
        <ele>171</ele>
        <time>2018-06-29T08:14:28Z</time>
      </trkpt>
      <trkpt lat="45.92668" lon="4.74301">
        <ele>171</ele>
        <time>2018-06-29T08:14:29Z</time>
      </trkpt>
      <trkpt lat="45.92664" lon="4.74308">
        <ele>171</ele>
        <time>2018-06-29T08:14:30Z</time>
      </trkpt>
      <trkpt lat="45.9266" lon="4.74315">
        <ele>171</ele>
        <time>2018-06-29T08:14:31Z</time>
      </trkpt>
      <trkpt lat="45.92656" lon="4.74321">
        <ele>171</ele>
        <time>2018-06-29T08:14:32Z</time>
      </trkpt>
      <trkpt lat="45.92653" lon="4.74327">
        <ele>171</ele>
        <time>2018-06-29T08:14:33Z</time>
      </trkpt>
      <trkpt lat="45.92648" lon="4.74333">
        <ele>171</ele>
        <time>2018-06-29T08:14:34Z</time>
      </trkpt>
      <trkpt lat="45.92644" lon="4.7434">
        <ele>171</ele>
        <time>2018-06-29T08:14:35Z</time>
      </trkpt>
      <trkpt lat="45.92639" lon="4.74344">
        <ele>171</ele>
        <time>2018-06-29T08:14:36Z</time>
      </trkpt>
      <trkpt lat="45.92637" lon="4.74352">
        <ele>171</ele>
        <time>2018-06-29T08:14:37Z</time>
      </trkpt>
      <trkpt lat="45.92634" lon="4.74358">
        <ele>171</ele>
        <time>2018-06-29T08:14:38Z</time>
      </trkpt>
      <trkpt lat="45.9263" lon="4.74364">
        <ele>171</ele>
        <time>2018-06-29T08:14:39Z</time>
      </trkpt>
      <trkpt lat="45.92627" lon="4.74371">
        <ele>171</ele>
        <time>2018-06-29T08:14:40Z</time>
      </trkpt>
      <trkpt lat="45.92624" lon="4.74376">
        <ele>170</ele>
        <time>2018-06-29T08:14:41Z</time>
      </trkpt>
      <trkpt lat="45.92621" lon="4.74383">
        <ele>170</ele>
        <time>2018-06-29T08:14:42Z</time>
      </trkpt>
      <trkpt lat="45.92617" lon="4.74392">
        <ele>170</ele>
        <time>2018-06-29T08:14:43Z</time>
      </trkpt>
      <trkpt lat="45.92613" lon="4.74399">
        <ele>170</ele>
        <time>2018-06-29T08:14:44Z</time>
      </trkpt>
      <trkpt lat="45.92609" lon="4.74407">
        <ele>170</ele>
        <time>2018-06-29T08:14:45Z</time>
      </trkpt>
      <trkpt lat="45.92606" lon="4.74415">
        <ele>170</ele>
        <time>2018-06-29T08:14:46Z</time>
      </trkpt>
      <trkpt lat="45.92601" lon="4.7442">
        <ele>170</ele>
        <time>2018-06-29T08:14:47Z</time>
      </trkpt>
      <trkpt lat="45.92597" lon="4.74428">
        <ele>170</ele>
        <time>2018-06-29T08:14:48Z</time>
      </trkpt>
      <trkpt lat="45.92595" lon="4.74434">
        <ele>170</ele>
        <time>2018-06-29T08:14:49Z</time>
      </trkpt>
      <trkpt lat="45.92591" lon="4.74442">
        <ele>170</ele>
        <time>2018-06-29T08:14:50Z</time>
      </trkpt>
      <trkpt lat="45.92588" lon="4.74451">
        <ele>170</ele>
        <time>2018-06-29T08:14:51Z</time>
      </trkpt>
      <trkpt lat="45.92584" lon="4.74456">
        <ele>170</ele>
        <time>2018-06-29T08:14:52Z</time>
      </trkpt>
      <trkpt lat="45.92579" lon="4.74461">
        <ele>170</ele>
        <time>2018-06-29T08:14:53Z</time>
      </trkpt>
      <trkpt lat="45.92576" lon="4.74466">
        <ele>170</ele>
        <time>2018-06-29T08:14:54Z</time>
      </trkpt>
      <trkpt lat="45.92572" lon="4.74473">
        <ele>170</ele>
        <time>2018-06-29T08:14:55Z</time>
      </trkpt>
      <trkpt lat="45.92569" lon="4.74481">
        <ele>170</ele>
        <time>2018-06-29T08:14:56Z</time>
      </trkpt>
      <trkpt lat="45.92565" lon="4.74486">
        <ele>170</ele>
        <time>2018-06-29T08:14:57Z</time>
      </trkpt>
      <trkpt lat="45.92561" lon="4.74494">
        <ele>170</ele>
        <time>2018-06-29T08:14:58Z</time>
      </trkpt>
      <trkpt lat="45.92558" lon="4.745">
        <ele>170</ele>
        <time>2018-06-29T08:14:59Z</time>
      </trkpt>
      <trkpt lat="45.92553" lon="4.74511">
        <ele>170</ele>
        <time>2018-06-29T08:15:00Z</time>
      </trkpt>
      <trkpt lat="45.9255" lon="4.7452">
        <ele>170</ele>
        <time>2018-06-29T08:15:01Z</time>
      </trkpt>
      <trkpt lat="45.92546" lon="4.74525">
        <ele>170</ele>
        <time>2018-06-29T08:15:02Z</time>
      </trkpt>
      <trkpt lat="45.92543" lon="4.74532">
        <ele>170</ele>
        <time>2018-06-29T08:15:03Z</time>
      </trkpt>
      <trkpt lat="45.92539" lon="4.7454">
        <ele>171</ele>
        <time>2018-06-29T08:15:04Z</time>
      </trkpt>
      <trkpt lat="45.92534" lon="4.74546">
        <ele>171</ele>
        <time>2018-06-29T08:15:05Z</time>
      </trkpt>
      <trkpt lat="45.92528" lon="4.74554">
        <ele>171</ele>
        <time>2018-06-29T08:15:06Z</time>
      </trkpt>
      <trkpt lat="45.92524" lon="4.7456">
        <ele>171</ele>
        <time>2018-06-29T08:15:07Z</time>
      </trkpt>
      <trkpt lat="45.9252" lon="4.74567">
        <ele>171</ele>
        <time>2018-06-29T08:15:08Z</time>
      </trkpt>
      <trkpt lat="45.92515" lon="4.74573">
        <ele>171</ele>
        <time>2018-06-29T08:15:09Z</time>
      </trkpt>
      <trkpt lat="45.9251" lon="4.7458">
        <ele>171</ele>
        <time>2018-06-29T08:15:10Z</time>
      </trkpt>
      <trkpt lat="45.92505" lon="4.74585">
        <ele>171</ele>
        <time>2018-06-29T08:15:11Z</time>
      </trkpt>
      <trkpt lat="45.92499" lon="4.7459">
        <ele>171</ele>
        <time>2018-06-29T08:15:12Z</time>
      </trkpt>
      <trkpt lat="45.92494" lon="4.74596">
        <ele>171</ele>
        <time>2018-06-29T08:15:13Z</time>
      </trkpt>
      <trkpt lat="45.92488" lon="4.74603">
        <ele>171</ele>
        <time>2018-06-29T08:15:14Z</time>
      </trkpt>
      <trkpt lat="45.92483" lon="4.74609">
        <ele>171</ele>
        <time>2018-06-29T08:15:15Z</time>
      </trkpt>
      <trkpt lat="45.92478" lon="4.74617">
        <ele>171</ele>
        <time>2018-06-29T08:15:16Z</time>
      </trkpt>
      <trkpt lat="45.92473" lon="4.74623">
        <ele>171</ele>
        <time>2018-06-29T08:15:17Z</time>
      </trkpt>
      <trkpt lat="45.92469" lon="4.7463">
        <ele>171</ele>
        <time>2018-06-29T08:15:18Z</time>
      </trkpt>
      <trkpt lat="45.92463" lon="4.74637">
        <ele>171</ele>
        <time>2018-06-29T08:15:19Z</time>
      </trkpt>
      <trkpt lat="45.9246" lon="4.74645">
        <ele>171</ele>
        <time>2018-06-29T08:15:20Z</time>
      </trkpt>
      <trkpt lat="45.92456" lon="4.74652">
        <ele>171</ele>
        <time>2018-06-29T08:15:21Z</time>
      </trkpt>
      <trkpt lat="45.92451" lon="4.74659">
        <ele>171</ele>
        <time>2018-06-29T08:15:22Z</time>
      </trkpt>
      <trkpt lat="45.92446" lon="4.74669">
        <ele>171</ele>
        <time>2018-06-29T08:15:23Z</time>
      </trkpt>
      <trkpt lat="45.92443" lon="4.74676">
        <ele>171</ele>
        <time>2018-06-29T08:15:24Z</time>
      </trkpt>
      <trkpt lat="45.92439" lon="4.74686">
        <ele>171</ele>
        <time>2018-06-29T08:15:25Z</time>
      </trkpt>
      <trkpt lat="45.92437" lon="4.74692">
        <ele>171</ele>
        <time>2018-06-29T08:15:26Z</time>
      </trkpt>
      <trkpt lat="45.92432" lon="4.74696">
        <ele>171</ele>
        <time>2018-06-29T08:15:27Z</time>
      </trkpt>
      <trkpt lat="45.92428" lon="4.74702">
        <ele>171</ele>
        <time>2018-06-29T08:15:28Z</time>
      </trkpt>
      <trkpt lat="45.92425" lon="4.74712">
        <ele>171</ele>
        <time>2018-06-29T08:15:29Z</time>
      </trkpt>
      <trkpt lat="45.92422" lon="4.74723">
        <ele>171</ele>
        <time>2018-06-29T08:15:30Z</time>
      </trkpt>
      <trkpt lat="45.92419" lon="4.74732">
        <ele>171</ele>
        <time>2018-06-29T08:15:31Z</time>
      </trkpt>
      <trkpt lat="45.92416" lon="4.74741">
        <ele>172</ele>
        <time>2018-06-29T08:15:32Z</time>
      </trkpt>
      <trkpt lat="45.92413" lon="4.74751">
        <ele>172</ele>
        <time>2018-06-29T08:15:33Z</time>
      </trkpt>
      <trkpt lat="45.92411" lon="4.74761">
        <ele>172</ele>
        <time>2018-06-29T08:15:34Z</time>
      </trkpt>
      <trkpt lat="45.9241" lon="4.7477">
        <ele>172</ele>
        <time>2018-06-29T08:15:35Z</time>
      </trkpt>
      <trkpt lat="45.92407" lon="4.7478">
        <ele>171</ele>
        <time>2018-06-29T08:15:36Z</time>
      </trkpt>
      <trkpt lat="45.92405" lon="4.74789">
        <ele>171</ele>
        <time>2018-06-29T08:15:37Z</time>
      </trkpt>
      <trkpt lat="45.92403" lon="4.74798">
        <ele>171</ele>
        <time>2018-06-29T08:15:38Z</time>
      </trkpt>
      <trkpt lat="45.92402" lon="4.74807">
        <ele>171</ele>
        <time>2018-06-29T08:15:39Z</time>
      </trkpt>
      <trkpt lat="45.92401" lon="4.74817">
        <ele>171</ele>
        <time>2018-06-29T08:15:40Z</time>
      </trkpt>
      <trkpt lat="45.92399" lon="4.74827">
        <ele>171</ele>
        <time>2018-06-29T08:15:41Z</time>
      </trkpt>
      <trkpt lat="45.92396" lon="4.74838">
        <ele>171</ele>
        <time>2018-06-29T08:15:42Z</time>
      </trkpt>
      <trkpt lat="45.92393" lon="4.74847">
        <ele>171</ele>
        <time>2018-06-29T08:15:43Z</time>
      </trkpt>
      <trkpt lat="45.9239" lon="4.74856">
        <ele>171</ele>
        <time>2018-06-29T08:15:44Z</time>
      </trkpt>
      <trkpt lat="45.92387" lon="4.74866">
        <ele>171</ele>
        <time>2018-06-29T08:15:45Z</time>
      </trkpt>
      <trkpt lat="45.92384" lon="4.74876">
        <ele>171</ele>
        <time>2018-06-29T08:15:46Z</time>
      </trkpt>
      <trkpt lat="45.92381" lon="4.74886">
        <ele>171</ele>
        <time>2018-06-29T08:15:47Z</time>
      </trkpt>
      <trkpt lat="45.92377" lon="4.74895">
        <ele>171</ele>
        <time>2018-06-29T08:15:48Z</time>
      </trkpt>
      <trkpt lat="45.92374" lon="4.74904">
        <ele>171</ele>
        <time>2018-06-29T08:15:49Z</time>
      </trkpt>
      <trkpt lat="45.92372" lon="4.74911">
        <ele>171</ele>
        <time>2018-06-29T08:15:50Z</time>
      </trkpt>
      <trkpt lat="45.92368" lon="4.74921">
        <ele>170</ele>
        <time>2018-06-29T08:15:51Z</time>
      </trkpt>
      <trkpt lat="45.92366" lon="4.7493">
        <ele>170</ele>
        <time>2018-06-29T08:15:52Z</time>
      </trkpt>
      <trkpt lat="45.92362" lon="4.7494">
        <ele>170</ele>
        <time>2018-06-29T08:15:53Z</time>
      </trkpt>
      <trkpt lat="45.92359" lon="4.74948">
        <ele>170</ele>
        <time>2018-06-29T08:15:54Z</time>
      </trkpt>
      <trkpt lat="45.92355" lon="4.74957">
        <ele>170</ele>
        <time>2018-06-29T08:15:55Z</time>
      </trkpt>
      <trkpt lat="45.92353" lon="4.74965">
        <ele>170</ele>
        <time>2018-06-29T08:15:56Z</time>
      </trkpt>
      <trkpt lat="45.92349" lon="4.74975">
        <ele>170</ele>
        <time>2018-06-29T08:15:57Z</time>
      </trkpt>
      <trkpt lat="45.92345" lon="4.74983">
        <ele>170</ele>
        <time>2018-06-29T08:15:58Z</time>
      </trkpt>
      <trkpt lat="45.92341" lon="4.74991">
        <ele>170</ele>
        <time>2018-06-29T08:15:59Z</time>
      </trkpt>
      <trkpt lat="45.92339" lon="4.74998">
        <ele>170</ele>
        <time>2018-06-29T08:16:00Z</time>
      </trkpt>
      <trkpt lat="45.92336" lon="4.75008">
        <ele>170</ele>
        <time>2018-06-29T08:16:01Z</time>
      </trkpt>
      <trkpt lat="45.92332" lon="4.75016">
        <ele>171</ele>
        <time>2018-06-29T08:16:02Z</time>
      </trkpt>
      <trkpt lat="45.92328" lon="4.75023">
        <ele>171</ele>
        <time>2018-06-29T08:16:03Z</time>
      </trkpt>
      <trkpt lat="45.92324" lon="4.75031">
        <ele>171</ele>
        <time>2018-06-29T08:16:04Z</time>
      </trkpt>
      <trkpt lat="45.92319" lon="4.75039">
        <ele>171</ele>
        <time>2018-06-29T08:16:05Z</time>
      </trkpt>
      <trkpt lat="45.92315" lon="4.75048">
        <ele>172</ele>
        <time>2018-06-29T08:16:06Z</time>
      </trkpt>
      <trkpt lat="45.92312" lon="4.75056">
        <ele>172</ele>
        <time>2018-06-29T08:16:07Z</time>
      </trkpt>
      <trkpt lat="45.92307" lon="4.75061">
        <ele>172</ele>
        <time>2018-06-29T08:16:08Z</time>
      </trkpt>
      <trkpt lat="45.92303" lon="4.75068">
        <ele>172</ele>
        <time>2018-06-29T08:16:09Z</time>
      </trkpt>
      <trkpt lat="45.92299" lon="4.75073">
        <ele>172</ele>
        <time>2018-06-29T08:16:10Z</time>
      </trkpt>
      <trkpt lat="45.92295" lon="4.75078">
        <ele>172</ele>
        <time>2018-06-29T08:16:11Z</time>
      </trkpt>
      <trkpt lat="45.9229" lon="4.75083">
        <ele>172</ele>
        <time>2018-06-29T08:16:12Z</time>
      </trkpt>
      <trkpt lat="45.92285" lon="4.75087">
        <ele>173</ele>
        <time>2018-06-29T08:16:13Z</time>
      </trkpt>
      <trkpt lat="45.9228" lon="4.75091">
        <ele>173</ele>
        <time>2018-06-29T08:16:14Z</time>
      </trkpt>
      <trkpt lat="45.92275" lon="4.75096">
        <ele>173</ele>
        <time>2018-06-29T08:16:15Z</time>
      </trkpt>
      <trkpt lat="45.9227" lon="4.75101">
        <ele>173</ele>
        <time>2018-06-29T08:16:16Z</time>
      </trkpt>
      <trkpt lat="45.92265" lon="4.75106">
        <ele>174</ele>
        <time>2018-06-29T08:16:17Z</time>
      </trkpt>
      <trkpt lat="45.9226" lon="4.75111">
        <ele>174</ele>
        <time>2018-06-29T08:16:18Z</time>
      </trkpt>
      <trkpt lat="45.92255" lon="4.75117">
        <ele>174</ele>
        <time>2018-06-29T08:16:19Z</time>
      </trkpt>
      <trkpt lat="45.92251" lon="4.75121">
        <ele>174</ele>
        <time>2018-06-29T08:16:20Z</time>
      </trkpt>
      <trkpt lat="45.92246" lon="4.75126">
        <ele>174</ele>
        <time>2018-06-29T08:16:21Z</time>
      </trkpt>
      <trkpt lat="45.92243" lon="4.7513">
        <ele>174</ele>
        <time>2018-06-29T08:16:22Z</time>
      </trkpt>
      <trkpt lat="45.92239" lon="4.75134">
        <ele>174</ele>
        <time>2018-06-29T08:16:23Z</time>
      </trkpt>
      <trkpt lat="45.92235" lon="4.7514">
        <ele>174</ele>
        <time>2018-06-29T08:16:24Z</time>
      </trkpt>
      <trkpt lat="45.92231" lon="4.75146">
        <ele>174</ele>
        <time>2018-06-29T08:16:25Z</time>
      </trkpt>
      <trkpt lat="45.92228" lon="4.75153">
        <ele>174</ele>
        <time>2018-06-29T08:16:26Z</time>
      </trkpt>
      <trkpt lat="45.92225" lon="4.7516">
        <ele>174</ele>
        <time>2018-06-29T08:16:27Z</time>
      </trkpt>
      <trkpt lat="45.92222" lon="4.75168">
        <ele>175</ele>
        <time>2018-06-29T08:16:28Z</time>
      </trkpt>
      <trkpt lat="45.92219" lon="4.75175">
        <ele>175</ele>
        <time>2018-06-29T08:16:29Z</time>
      </trkpt>
      <trkpt lat="45.92217" lon="4.75183">
        <ele>175</ele>
        <time>2018-06-29T08:16:30Z</time>
      </trkpt>
      <trkpt lat="45.92216" lon="4.75191">
        <ele>175</ele>
        <time>2018-06-29T08:16:31Z</time>
      </trkpt>
      <trkpt lat="45.92214" lon="4.75198">
        <ele>175</ele>
        <time>2018-06-29T08:16:32Z</time>
      </trkpt>
      <trkpt lat="45.92213" lon="4.75206">
        <ele>175</ele>
        <time>2018-06-29T08:16:33Z</time>
      </trkpt>
      <trkpt lat="45.92212" lon="4.75213">
        <ele>175</ele>
        <time>2018-06-29T08:16:34Z</time>
      </trkpt>
      <trkpt lat="45.92211" lon="4.75221">
        <ele>175</ele>
        <time>2018-06-29T08:16:35Z</time>
      </trkpt>
      <trkpt lat="45.92211" lon="4.75227">
        <ele>175</ele>
        <time>2018-06-29T08:16:36Z</time>
      </trkpt>
      <trkpt lat="45.9221" lon="4.75236">
        <ele>175</ele>
        <time>2018-06-29T08:16:37Z</time>
      </trkpt>
      <trkpt lat="45.92211" lon="4.75242">
        <ele>175</ele>
        <time>2018-06-29T08:16:38Z</time>
      </trkpt>
      <trkpt lat="45.92211" lon="4.75251">
        <ele>175</ele>
        <time>2018-06-29T08:16:39Z</time>
      </trkpt>
      <trkpt lat="45.92212" lon="4.75257">
        <ele>175</ele>
        <time>2018-06-29T08:16:40Z</time>
      </trkpt>
      <trkpt lat="45.92212" lon="4.7527">
        <ele>176</ele>
        <time>2018-06-29T08:16:42Z</time>
      </trkpt>
      <trkpt lat="45.92211" lon="4.75277">
        <ele>176</ele>
        <time>2018-06-29T08:16:43Z</time>
      </trkpt>
      <trkpt lat="45.92211" lon="4.75287">
        <ele>176</ele>
        <time>2018-06-29T08:16:44Z</time>
      </trkpt>
      <trkpt lat="45.9221" lon="4.75296">
        <ele>176</ele>
        <time>2018-06-29T08:16:45Z</time>
      </trkpt>
      <trkpt lat="45.92209" lon="4.75304">
        <ele>176</ele>
        <time>2018-06-29T08:16:46Z</time>
      </trkpt>
      <trkpt lat="45.9221" lon="4.75311">
        <ele>176</ele>
        <time>2018-06-29T08:16:47Z</time>
      </trkpt>
      <trkpt lat="45.9221" lon="4.75319">
        <ele>176</ele>
        <time>2018-06-29T08:16:48Z</time>
      </trkpt>
      <trkpt lat="45.92209" lon="4.75326">
        <ele>176</ele>
        <time>2018-06-29T08:16:49Z</time>
      </trkpt>
      <trkpt lat="45.92208" lon="4.75333">
        <ele>176</ele>
        <time>2018-06-29T08:16:50Z</time>
      </trkpt>
      <trkpt lat="45.92206" lon="4.75339">
        <ele>177</ele>
        <time>2018-06-29T08:16:51Z</time>
      </trkpt>
      <trkpt lat="45.92204" lon="4.75346">
        <ele>177</ele>
        <time>2018-06-29T08:16:52Z</time>
      </trkpt>
      <trkpt lat="45.92201" lon="4.75353">
        <ele>177</ele>
        <time>2018-06-29T08:16:53Z</time>
      </trkpt>
      <trkpt lat="45.92199" lon="4.7536">
        <ele>177</ele>
        <time>2018-06-29T08:16:54Z</time>
      </trkpt>
      <trkpt lat="45.92198" lon="4.75367">
        <ele>177</ele>
        <time>2018-06-29T08:16:55Z</time>
      </trkpt>
      <trkpt lat="45.92196" lon="4.75373">
        <ele>177</ele>
        <time>2018-06-29T08:16:56Z</time>
      </trkpt>
      <trkpt lat="45.92194" lon="4.7538">
        <ele>177</ele>
        <time>2018-06-29T08:16:57Z</time>
      </trkpt>
      <trkpt lat="45.92191" lon="4.75387">
        <ele>177</ele>
        <time>2018-06-29T08:16:58Z</time>
      </trkpt>
      <trkpt lat="45.92188" lon="4.75394">
        <ele>177</ele>
        <time>2018-06-29T08:16:59Z</time>
      </trkpt>
      <trkpt lat="45.92184" lon="4.75402">
        <ele>177</ele>
        <time>2018-06-29T08:17:00Z</time>
      </trkpt>
      <trkpt lat="45.92181" lon="4.75408">
        <ele>177</ele>
        <time>2018-06-29T08:17:01Z</time>
      </trkpt>
      <trkpt lat="45.92178" lon="4.75414">
        <ele>177</ele>
        <time>2018-06-29T08:17:02Z</time>
      </trkpt>
      <trkpt lat="45.92175" lon="4.75421">
        <ele>177</ele>
        <time>2018-06-29T08:17:03Z</time>
      </trkpt>
      <trkpt lat="45.92173" lon="4.75427">
        <ele>177</ele>
        <time>2018-06-29T08:17:04Z</time>
      </trkpt>
      <trkpt lat="45.9217" lon="4.75435">
        <ele>177</ele>
        <time>2018-06-29T08:17:05Z</time>
      </trkpt>
      <trkpt lat="45.92166" lon="4.75445">
        <ele>177</ele>
        <time>2018-06-29T08:17:06Z</time>
      </trkpt>
      <trkpt lat="45.92162" lon="4.75453">
        <ele>176</ele>
        <time>2018-06-29T08:17:07Z</time>
      </trkpt>
      <trkpt lat="45.92159" lon="4.75459">
        <ele>176</ele>
        <time>2018-06-29T08:17:08Z</time>
      </trkpt>
      <trkpt lat="45.92156" lon="4.75467">
        <ele>176</ele>
        <time>2018-06-29T08:17:09Z</time>
      </trkpt>
      <trkpt lat="45.92153" lon="4.75474">
        <ele>176</ele>
        <time>2018-06-29T08:17:10Z</time>
      </trkpt>
      <trkpt lat="45.92149" lon="4.75483">
        <ele>176</ele>
        <time>2018-06-29T08:17:11Z</time>
      </trkpt>
      <trkpt lat="45.92146" lon="4.75491">
        <ele>176</ele>
        <time>2018-06-29T08:17:12Z</time>
      </trkpt>
      <trkpt lat="45.92143" lon="4.75499">
        <ele>175</ele>
        <time>2018-06-29T08:17:13Z</time>
      </trkpt>
      <trkpt lat="45.92139" lon="4.75508">
        <ele>174</ele>
        <time>2018-06-29T08:17:14Z</time>
      </trkpt>
      <trkpt lat="45.92135" lon="4.75515">
        <ele>174</ele>
        <time>2018-06-29T08:17:15Z</time>
      </trkpt>
      <trkpt lat="45.92131" lon="4.75522">
        <ele>174</ele>
        <time>2018-06-29T08:17:16Z</time>
      </trkpt>
      <trkpt lat="45.92127" lon="4.7553">
        <ele>174</ele>
        <time>2018-06-29T08:17:17Z</time>
      </trkpt>
      <trkpt lat="45.92124" lon="4.75536">
        <ele>174</ele>
        <time>2018-06-29T08:17:18Z</time>
      </trkpt>
      <trkpt lat="45.9212" lon="4.75542">
        <ele>174</ele>
        <time>2018-06-29T08:17:19Z</time>
      </trkpt>
      <trkpt lat="45.92116" lon="4.75553">
        <ele>174</ele>
        <time>2018-06-29T08:17:25Z</time>
      </trkpt>
      <trkpt lat="45.92115" lon="4.75553">
        <ele>174</ele>
        <time>2018-06-29T08:17:26Z</time>
      </trkpt>
      <trkpt lat="45.92108" lon="4.75559">
        <ele>174</ele>
        <time>2018-06-29T08:17:31Z</time>
      </trkpt>
      <trkpt lat="45.92106" lon="4.75561">
        <ele>174</ele>
        <time>2018-06-29T08:17:32Z</time>
      </trkpt>
      <trkpt lat="45.92104" lon="4.75566">
        <ele>174</ele>
        <time>2018-06-29T08:17:35Z</time>
      </trkpt>
      <trkpt lat="45.92103" lon="4.75567">
        <ele>174</ele>
        <time>2018-06-29T08:17:36Z</time>
      </trkpt>
      <trkpt lat="45.92103" lon="4.75567">
        <ele>174</ele>
        <time>2018-06-29T08:17:37Z</time>
      </trkpt>
      <trkpt lat="45.92103" lon="4.75568">
        <ele>174</ele>
        <time>2018-06-29T08:17:38Z</time>
      </trkpt>
      <trkpt lat="45.92104" lon="4.7558">
        <ele>174</ele>
        <time>2018-06-29T08:17:43Z</time>
      </trkpt>
      <trkpt lat="45.9211" lon="4.7559">
        <ele>174</ele>
        <time>2018-06-29T08:17:44Z</time>
      </trkpt>
      <trkpt lat="45.92114" lon="4.75593">
        <ele>174</ele>
        <time>2018-06-29T08:17:45Z</time>
      </trkpt>
      <trkpt lat="45.92119" lon="4.75596">
        <ele>174</ele>
        <time>2018-06-29T08:17:46Z</time>
      </trkpt>
      <trkpt lat="45.92123" lon="4.75599">
        <ele>174</ele>
        <time>2018-06-29T08:17:47Z</time>
      </trkpt>
      <trkpt lat="45.92128" lon="4.75604">
        <ele>174</ele>
        <time>2018-06-29T08:17:48Z</time>
      </trkpt>
      <trkpt lat="45.92132" lon="4.75608">
        <ele>174</ele>
        <time>2018-06-29T08:17:49Z</time>
      </trkpt>
      <trkpt lat="45.92136" lon="4.75612">
        <ele>174</ele>
        <time>2018-06-29T08:17:50Z</time>
      </trkpt>
      <trkpt lat="45.92141" lon="4.75616">
        <ele>174</ele>
        <time>2018-06-29T08:17:51Z</time>
      </trkpt>
      <trkpt lat="45.92146" lon="4.75619">
        <ele>174</ele>
        <time>2018-06-29T08:17:52Z</time>
      </trkpt>
      <trkpt lat="45.92151" lon="4.75624">
        <ele>174</ele>
        <time>2018-06-29T08:17:53Z</time>
      </trkpt>
      <trkpt lat="45.92155" lon="4.75628">
        <ele>174</ele>
        <time>2018-06-29T08:17:54Z</time>
      </trkpt>
      <trkpt lat="45.9216" lon="4.75632">
        <ele>174</ele>
        <time>2018-06-29T08:17:55Z</time>
      </trkpt>
      <trkpt lat="45.92165" lon="4.75635">
        <ele>174</ele>
        <time>2018-06-29T08:17:56Z</time>
      </trkpt>
      <trkpt lat="45.9217" lon="4.7564">
        <ele>174</ele>
        <time>2018-06-29T08:17:57Z</time>
      </trkpt>
      <trkpt lat="45.92175" lon="4.75644">
        <ele>174</ele>
        <time>2018-06-29T08:17:58Z</time>
      </trkpt>
      <trkpt lat="45.9218" lon="4.75648">
        <ele>174</ele>
        <time>2018-06-29T08:17:59Z</time>
      </trkpt>
      <trkpt lat="45.92185" lon="4.75655">
        <ele>174</ele>
        <time>2018-06-29T08:18:00Z</time>
      </trkpt>
      <trkpt lat="45.9219" lon="4.7566">
        <ele>174</ele>
        <time>2018-06-29T08:18:01Z</time>
      </trkpt>
      <trkpt lat="45.92195" lon="4.75663">
        <ele>174</ele>
        <time>2018-06-29T08:18:02Z</time>
      </trkpt>
      <trkpt lat="45.92199" lon="4.75665">
        <ele>174</ele>
        <time>2018-06-29T08:18:03Z</time>
      </trkpt>
      <trkpt lat="45.92204" lon="4.75669">
        <ele>174</ele>
        <time>2018-06-29T08:18:04Z</time>
      </trkpt>
      <trkpt lat="45.92209" lon="4.75673">
        <ele>174</ele>
        <time>2018-06-29T08:18:05Z</time>
      </trkpt>
      <trkpt lat="45.92216" lon="4.75678">
        <ele>174</ele>
        <time>2018-06-29T08:18:06Z</time>
      </trkpt>
      <trkpt lat="45.9222" lon="4.75683">
        <ele>174</ele>
        <time>2018-06-29T08:18:07Z</time>
      </trkpt>
      <trkpt lat="45.92226" lon="4.75686">
        <ele>174</ele>
        <time>2018-06-29T08:18:08Z</time>
      </trkpt>
      <trkpt lat="45.92231" lon="4.75692">
        <ele>174</ele>
        <time>2018-06-29T08:18:09Z</time>
      </trkpt>
      <trkpt lat="45.92236" lon="4.75698">
        <ele>174</ele>
        <time>2018-06-29T08:18:10Z</time>
      </trkpt>
      <trkpt lat="45.9224" lon="4.75712">
        <ele>174</ele>
        <time>2018-06-29T08:18:11Z</time>
      </trkpt>
      <trkpt lat="45.92244" lon="4.75722">
        <ele>174</ele>
        <time>2018-06-29T08:18:12Z</time>
      </trkpt>
      <trkpt lat="45.92247" lon="4.7573">
        <ele>174</ele>
        <time>2018-06-29T08:18:13Z</time>
      </trkpt>
      <trkpt lat="45.92249" lon="4.75737">
        <ele>174</ele>
        <time>2018-06-29T08:18:14Z</time>
      </trkpt>
      <trkpt lat="45.9225" lon="4.75746">
        <ele>174</ele>
        <time>2018-06-29T08:18:15Z</time>
      </trkpt>
      <trkpt lat="45.92252" lon="4.75754">
        <ele>174</ele>
        <time>2018-06-29T08:18:16Z</time>
      </trkpt>
      <trkpt lat="45.92253" lon="4.75763">
        <ele>174</ele>
        <time>2018-06-29T08:18:17Z</time>
      </trkpt>
      <trkpt lat="45.92255" lon="4.75772">
        <ele>174</ele>
        <time>2018-06-29T08:18:18Z</time>
      </trkpt>
      <trkpt lat="45.92256" lon="4.7578">
        <ele>174</ele>
        <time>2018-06-29T08:18:19Z</time>
      </trkpt>
      <trkpt lat="45.92257" lon="4.75789">
        <ele>174</ele>
        <time>2018-06-29T08:18:20Z</time>
      </trkpt>
      <trkpt lat="45.92259" lon="4.75798">
        <ele>174</ele>
        <time>2018-06-29T08:18:21Z</time>
      </trkpt>
      <trkpt lat="45.92261" lon="4.75806">
        <ele>174</ele>
        <time>2018-06-29T08:18:22Z</time>
      </trkpt>
      <trkpt lat="45.92264" lon="4.75816">
        <ele>174</ele>
        <time>2018-06-29T08:18:23Z</time>
      </trkpt>
      <trkpt lat="45.92267" lon="4.75824">
        <ele>174</ele>
        <time>2018-06-29T08:18:24Z</time>
      </trkpt>
      <trkpt lat="45.92271" lon="4.75827">
        <ele>174</ele>
        <time>2018-06-29T08:18:25Z</time>
      </trkpt>
      <trkpt lat="45.92276" lon="4.75829">
        <ele>174</ele>
        <time>2018-06-29T08:18:26Z</time>
      </trkpt>
      <trkpt lat="45.92282" lon="4.75833">
        <ele>174</ele>
        <time>2018-06-29T08:18:27Z</time>
      </trkpt>
      <trkpt lat="45.92289" lon="4.75837">
        <ele>173</ele>
        <time>2018-06-29T08:18:28Z</time>
      </trkpt>
      <trkpt lat="45.92295" lon="4.75841">
        <ele>173</ele>
        <time>2018-06-29T08:18:29Z</time>
      </trkpt>
      <trkpt lat="45.92301" lon="4.75845">
        <ele>173</ele>
        <time>2018-06-29T08:18:30Z</time>
      </trkpt>
      <trkpt lat="45.92307" lon="4.7585">
        <ele>173</ele>
        <time>2018-06-29T08:18:31Z</time>
      </trkpt>
      <trkpt lat="45.92314" lon="4.75854">
        <ele>173</ele>
        <time>2018-06-29T08:18:32Z</time>
      </trkpt>
      <trkpt lat="45.9232" lon="4.7586">
        <ele>173</ele>
        <time>2018-06-29T08:18:33Z</time>
      </trkpt>
      <trkpt lat="45.92327" lon="4.75865">
        <ele>173</ele>
        <time>2018-06-29T08:18:34Z</time>
      </trkpt>
      <trkpt lat="45.92334" lon="4.75869">
        <ele>173</ele>
        <time>2018-06-29T08:18:35Z</time>
      </trkpt>
      <trkpt lat="45.92341" lon="4.75873">
        <ele>173</ele>
        <time>2018-06-29T08:18:36Z</time>
      </trkpt>
      <trkpt lat="45.92348" lon="4.75878">
        <ele>173</ele>
        <time>2018-06-29T08:18:37Z</time>
      </trkpt>
      <trkpt lat="45.92355" lon="4.75874">
        <ele>173</ele>
        <time>2018-06-29T08:18:38Z</time>
      </trkpt>
      <trkpt lat="45.92361" lon="4.75879">
        <ele>173</ele>
        <time>2018-06-29T08:18:39Z</time>
      </trkpt>
      <trkpt lat="45.92368" lon="4.75883">
        <ele>173</ele>
        <time>2018-06-29T08:18:40Z</time>
      </trkpt>
      <trkpt lat="45.92375" lon="4.75882">
        <ele>173</ele>
        <time>2018-06-29T08:18:41Z</time>
      </trkpt>
      <trkpt lat="45.92381" lon="4.75885">
        <ele>173</ele>
        <time>2018-06-29T08:18:42Z</time>
      </trkpt>
      <trkpt lat="45.92386" lon="4.75889">
        <ele>173</ele>
        <time>2018-06-29T08:18:43Z</time>
      </trkpt>
      <trkpt lat="45.92392" lon="4.75896">
        <ele>173</ele>
        <time>2018-06-29T08:18:44Z</time>
      </trkpt>
      <trkpt lat="45.92397" lon="4.75901">
        <ele>173</ele>
        <time>2018-06-29T08:18:45Z</time>
      </trkpt>
      <trkpt lat="45.92401" lon="4.75907">
        <ele>173</ele>
        <time>2018-06-29T08:18:46Z</time>
      </trkpt>
      <trkpt lat="45.92406" lon="4.75912">
        <ele>172</ele>
        <time>2018-06-29T08:18:47Z</time>
      </trkpt>
      <trkpt lat="45.92411" lon="4.75915">
        <ele>172</ele>
        <time>2018-06-29T08:18:48Z</time>
      </trkpt>
      <trkpt lat="45.92417" lon="4.75918">
        <ele>172</ele>
        <time>2018-06-29T08:18:49Z</time>
      </trkpt>
      <trkpt lat="45.92421" lon="4.75923">
        <ele>172</ele>
        <time>2018-06-29T08:18:50Z</time>
      </trkpt>
      <trkpt lat="45.92426" lon="4.75927">
        <ele>172</ele>
        <time>2018-06-29T08:18:51Z</time>
      </trkpt>
      <trkpt lat="45.92431" lon="4.75931">
        <ele>172</ele>
        <time>2018-06-29T08:18:52Z</time>
      </trkpt>
      <trkpt lat="45.92437" lon="4.75934">
        <ele>172</ele>
        <time>2018-06-29T08:18:53Z</time>
      </trkpt>
      <trkpt lat="45.92442" lon="4.75938">
        <ele>172</ele>
        <time>2018-06-29T08:18:54Z</time>
      </trkpt>
      <trkpt lat="45.92446" lon="4.75942">
        <ele>172</ele>
        <time>2018-06-29T08:18:55Z</time>
      </trkpt>
      <trkpt lat="45.92451" lon="4.75947">
        <ele>172</ele>
        <time>2018-06-29T08:18:56Z</time>
      </trkpt>
      <trkpt lat="45.92456" lon="4.75952">
        <ele>172</ele>
        <time>2018-06-29T08:18:57Z</time>
      </trkpt>
      <trkpt lat="45.9246" lon="4.75956">
        <ele>172</ele>
        <time>2018-06-29T08:18:58Z</time>
      </trkpt>
      <trkpt lat="45.92465" lon="4.7596">
        <ele>172</ele>
        <time>2018-06-29T08:18:59Z</time>
      </trkpt>
      <trkpt lat="45.92469" lon="4.75963">
        <ele>172</ele>
        <time>2018-06-29T08:19:00Z</time>
      </trkpt>
      <trkpt lat="45.92474" lon="4.75967">
        <ele>172</ele>
        <time>2018-06-29T08:19:01Z</time>
      </trkpt>
      <trkpt lat="45.92478" lon="4.75971">
        <ele>172</ele>
        <time>2018-06-29T08:19:02Z</time>
      </trkpt>
      <trkpt lat="45.92483" lon="4.75974">
        <ele>172</ele>
        <time>2018-06-29T08:19:03Z</time>
      </trkpt>
      <trkpt lat="45.92487" lon="4.75978">
        <ele>172</ele>
        <time>2018-06-29T08:19:04Z</time>
      </trkpt>
      <trkpt lat="45.9249" lon="4.75981">
        <ele>172</ele>
        <time>2018-06-29T08:19:05Z</time>
      </trkpt>
      <trkpt lat="45.92495" lon="4.75985">
        <ele>172</ele>
        <time>2018-06-29T08:19:06Z</time>
      </trkpt>
      <trkpt lat="45.92499" lon="4.75988">
        <ele>172</ele>
        <time>2018-06-29T08:19:07Z</time>
      </trkpt>
      <trkpt lat="45.92503" lon="4.75991">
        <ele>172</ele>
        <time>2018-06-29T08:19:08Z</time>
      </trkpt>
      <trkpt lat="45.92507" lon="4.75994">
        <ele>172</ele>
        <time>2018-06-29T08:19:09Z</time>
      </trkpt>
      <trkpt lat="45.92515" lon="4.76">
        <ele>172</ele>
        <time>2018-06-29T08:19:11Z</time>
      </trkpt>
      <trkpt lat="45.92519" lon="4.76002">
        <ele>172</ele>
        <time>2018-06-29T08:19:12Z</time>
      </trkpt>
      <trkpt lat="45.92526" lon="4.76008">
        <ele>172</ele>
        <time>2018-06-29T08:19:14Z</time>
      </trkpt>
      <trkpt lat="45.92531" lon="4.76011">
        <ele>172</ele>
        <time>2018-06-29T08:19:15Z</time>
      </trkpt>
      <trkpt lat="45.92538" lon="4.76018">
        <ele>172</ele>
        <time>2018-06-29T08:19:17Z</time>
      </trkpt>
      <trkpt lat="45.92542" lon="4.76019">
        <ele>172</ele>
        <time>2018-06-29T08:19:18Z</time>
      </trkpt>
      <trkpt lat="45.92546" lon="4.76023">
        <ele>172</ele>
        <time>2018-06-29T08:19:19Z</time>
      </trkpt>
      <trkpt lat="45.9255" lon="4.76026">
        <ele>172</ele>
        <time>2018-06-29T08:19:20Z</time>
      </trkpt>
      <trkpt lat="45.92556" lon="4.76029">
        <ele>172</ele>
        <time>2018-06-29T08:19:21Z</time>
      </trkpt>
      <trkpt lat="45.9256" lon="4.76032">
        <ele>172</ele>
        <time>2018-06-29T08:19:22Z</time>
      </trkpt>
      <trkpt lat="45.92565" lon="4.76036">
        <ele>172</ele>
        <time>2018-06-29T08:19:23Z</time>
      </trkpt>
      <trkpt lat="45.9257" lon="4.7604">
        <ele>172</ele>
        <time>2018-06-29T08:19:24Z</time>
      </trkpt>
      <trkpt lat="45.92575" lon="4.7604">
        <ele>172</ele>
        <time>2018-06-29T08:19:25Z</time>
      </trkpt>
      <trkpt lat="45.9258" lon="4.76042">
        <ele>171</ele>
        <time>2018-06-29T08:19:26Z</time>
      </trkpt>
      <trkpt lat="45.92585" lon="4.76044">
        <ele>171</ele>
        <time>2018-06-29T08:19:27Z</time>
      </trkpt>
      <trkpt lat="45.92589" lon="4.76048">
        <ele>171</ele>
        <time>2018-06-29T08:19:28Z</time>
      </trkpt>
      <trkpt lat="45.92594" lon="4.76053">
        <ele>171</ele>
        <time>2018-06-29T08:19:29Z</time>
      </trkpt>
      <trkpt lat="45.926" lon="4.76057">
        <ele>171</ele>
        <time>2018-06-29T08:19:30Z</time>
      </trkpt>
      <trkpt lat="45.92605" lon="4.76059">
        <ele>171</ele>
        <time>2018-06-29T08:19:31Z</time>
      </trkpt>
      <trkpt lat="45.9261" lon="4.76062">
        <ele>171</ele>
        <time>2018-06-29T08:19:32Z</time>
      </trkpt>
      <trkpt lat="45.92615" lon="4.76066">
        <ele>171</ele>
        <time>2018-06-29T08:19:33Z</time>
      </trkpt>
      <trkpt lat="45.92621" lon="4.7607">
        <ele>171</ele>
        <time>2018-06-29T08:19:34Z</time>
      </trkpt>
      <trkpt lat="45.92625" lon="4.76074">
        <ele>170</ele>
        <time>2018-06-29T08:19:35Z</time>
      </trkpt>
      <trkpt lat="45.92629" lon="4.76079">
        <ele>170</ele>
        <time>2018-06-29T08:19:36Z</time>
      </trkpt>
      <trkpt lat="45.92635" lon="4.76082">
        <ele>170</ele>
        <time>2018-06-29T08:19:37Z</time>
      </trkpt>
      <trkpt lat="45.92641" lon="4.76087">
        <ele>170</ele>
        <time>2018-06-29T08:19:38Z</time>
      </trkpt>
      <trkpt lat="45.92648" lon="4.7609">
        <ele>170</ele>
        <time>2018-06-29T08:19:39Z</time>
      </trkpt>
      <trkpt lat="45.92654" lon="4.76095">
        <ele>170</ele>
        <time>2018-06-29T08:19:40Z</time>
      </trkpt>
      <trkpt lat="45.9266" lon="4.76098">
        <ele>170</ele>
        <time>2018-06-29T08:19:41Z</time>
      </trkpt>
      <trkpt lat="45.92666" lon="4.76103">
        <ele>170</ele>
        <time>2018-06-29T08:19:42Z</time>
      </trkpt>
      <trkpt lat="45.92673" lon="4.76108">
        <ele>169</ele>
        <time>2018-06-29T08:19:43Z</time>
      </trkpt>
      <trkpt lat="45.9268" lon="4.76112">
        <ele>169</ele>
        <time>2018-06-29T08:19:44Z</time>
      </trkpt>
      <trkpt lat="45.92686" lon="4.76117">
        <ele>169</ele>
        <time>2018-06-29T08:19:45Z</time>
      </trkpt>
      <trkpt lat="45.92693" lon="4.76121">
        <ele>169</ele>
        <time>2018-06-29T08:19:46Z</time>
      </trkpt>
      <trkpt lat="45.927" lon="4.76124">
        <ele>169</ele>
        <time>2018-06-29T08:19:47Z</time>
      </trkpt>
      <trkpt lat="45.92706" lon="4.76129">
        <ele>169</ele>
        <time>2018-06-29T08:19:48Z</time>
      </trkpt>
      <trkpt lat="45.92713" lon="4.76134">
        <ele>168</ele>
        <time>2018-06-29T08:19:49Z</time>
      </trkpt>
      <trkpt lat="45.9272" lon="4.76139">
        <ele>168</ele>
        <time>2018-06-29T08:19:50Z</time>
      </trkpt>
      <trkpt lat="45.92726" lon="4.76145">
        <ele>168</ele>
        <time>2018-06-29T08:19:51Z</time>
      </trkpt>
      <trkpt lat="45.92732" lon="4.7615">
        <ele>168</ele>
        <time>2018-06-29T08:19:52Z</time>
      </trkpt>
      <trkpt lat="45.92739" lon="4.76155">
        <ele>168</ele>
        <time>2018-06-29T08:19:53Z</time>
      </trkpt>
      <trkpt lat="45.92745" lon="4.7616">
        <ele>167</ele>
        <time>2018-06-29T08:19:54Z</time>
      </trkpt>
      <trkpt lat="45.92751" lon="4.76164">
        <ele>167</ele>
        <time>2018-06-29T08:19:55Z</time>
      </trkpt>
      <trkpt lat="45.92756" lon="4.7617">
        <ele>167</ele>
        <time>2018-06-29T08:19:56Z</time>
      </trkpt>
      <trkpt lat="45.92762" lon="4.76174">
        <ele>167</ele>
        <time>2018-06-29T08:19:57Z</time>
      </trkpt>
      <trkpt lat="45.92767" lon="4.76179">
        <ele>167</ele>
        <time>2018-06-29T08:19:58Z</time>
      </trkpt>
      <trkpt lat="45.92772" lon="4.76184">
        <ele>167</ele>
        <time>2018-06-29T08:19:59Z</time>
      </trkpt>
      <trkpt lat="45.92778" lon="4.7619">
        <ele>168</ele>
        <time>2018-06-29T08:20:00Z</time>
      </trkpt>
      <trkpt lat="45.92784" lon="4.76197">
        <ele>168</ele>
        <time>2018-06-29T08:20:01Z</time>
      </trkpt>
      <trkpt lat="45.92789" lon="4.76203">
        <ele>168</ele>
        <time>2018-06-29T08:20:02Z</time>
      </trkpt>
      <trkpt lat="45.92794" lon="4.76209">
        <ele>168</ele>
        <time>2018-06-29T08:20:03Z</time>
      </trkpt>
      <trkpt lat="45.928" lon="4.76213">
        <ele>168</ele>
        <time>2018-06-29T08:20:04Z</time>
      </trkpt>
      <trkpt lat="45.92805" lon="4.76217">
        <ele>168</ele>
        <time>2018-06-29T08:20:05Z</time>
      </trkpt>
      <trkpt lat="45.9281" lon="4.76222">
        <ele>168</ele>
        <time>2018-06-29T08:20:06Z</time>
      </trkpt>
      <trkpt lat="45.92815" lon="4.76227">
        <ele>168</ele>
        <time>2018-06-29T08:20:07Z</time>
      </trkpt>
      <trkpt lat="45.92819" lon="4.7623">
        <ele>168</ele>
        <time>2018-06-29T08:20:08Z</time>
      </trkpt>
      <trkpt lat="45.92824" lon="4.76236">
        <ele>168</ele>
        <time>2018-06-29T08:20:09Z</time>
      </trkpt>
      <trkpt lat="45.92829" lon="4.7624">
        <ele>169</ele>
        <time>2018-06-29T08:20:10Z</time>
      </trkpt>
      <trkpt lat="45.92834" lon="4.76243">
        <ele>169</ele>
        <time>2018-06-29T08:20:11Z</time>
      </trkpt>
      <trkpt lat="45.92838" lon="4.76247">
        <ele>169</ele>
        <time>2018-06-29T08:20:12Z</time>
      </trkpt>
      <trkpt lat="45.92842" lon="4.76251">
        <ele>169</ele>
        <time>2018-06-29T08:20:13Z</time>
      </trkpt>
      <trkpt lat="45.92849" lon="4.76256">
        <ele>169</ele>
        <time>2018-06-29T08:20:14Z</time>
      </trkpt>
      <trkpt lat="45.92853" lon="4.7626">
        <ele>169</ele>
        <time>2018-06-29T08:20:15Z</time>
      </trkpt>
      <trkpt lat="45.9286" lon="4.76265">
        <ele>169</ele>
        <time>2018-06-29T08:20:16Z</time>
      </trkpt>
      <trkpt lat="45.92865" lon="4.76272">
        <ele>169</ele>
        <time>2018-06-29T08:20:17Z</time>
      </trkpt>
      <trkpt lat="45.9287" lon="4.76278">
        <ele>169</ele>
        <time>2018-06-29T08:20:18Z</time>
      </trkpt>
      <trkpt lat="45.92873" lon="4.76283">
        <ele>169</ele>
        <time>2018-06-29T08:20:19Z</time>
      </trkpt>
      <trkpt lat="45.92877" lon="4.76287">
        <ele>169</ele>
        <time>2018-06-29T08:20:20Z</time>
      </trkpt>
      <trkpt lat="45.92883" lon="4.76293">
        <ele>169</ele>
        <time>2018-06-29T08:20:21Z</time>
      </trkpt>
      <trkpt lat="45.92887" lon="4.76299">
        <ele>169</ele>
        <time>2018-06-29T08:20:22Z</time>
      </trkpt>
      <trkpt lat="45.92892" lon="4.76304">
        <ele>169</ele>
        <time>2018-06-29T08:20:23Z</time>
      </trkpt>
      <trkpt lat="45.92897" lon="4.76309">
        <ele>169</ele>
        <time>2018-06-29T08:20:24Z</time>
      </trkpt>
      <trkpt lat="45.92902" lon="4.76313">
        <ele>169</ele>
        <time>2018-06-29T08:20:25Z</time>
      </trkpt>
      <trkpt lat="45.92908" lon="4.76315">
        <ele>169</ele>
        <time>2018-06-29T08:20:26Z</time>
      </trkpt>
      <trkpt lat="45.9291" lon="4.7632">
        <ele>169</ele>
        <time>2018-06-29T08:20:27Z</time>
      </trkpt>
      <trkpt lat="45.92915" lon="4.76325">
        <ele>169</ele>
        <time>2018-06-29T08:20:28Z</time>
      </trkpt>
      <trkpt lat="45.9292" lon="4.76329">
        <ele>169</ele>
        <time>2018-06-29T08:20:29Z</time>
      </trkpt>
      <trkpt lat="45.92925" lon="4.76333">
        <ele>169</ele>
        <time>2018-06-29T08:20:30Z</time>
      </trkpt>
      <trkpt lat="45.9293" lon="4.76337">
        <ele>169</ele>
        <time>2018-06-29T08:20:31Z</time>
      </trkpt>
      <trkpt lat="45.92934" lon="4.76344">
        <ele>169</ele>
        <time>2018-06-29T08:20:32Z</time>
      </trkpt>
      <trkpt lat="45.9294" lon="4.76349">
        <ele>169</ele>
        <time>2018-06-29T08:20:33Z</time>
      </trkpt>
      <trkpt lat="45.92944" lon="4.76353">
        <ele>169</ele>
        <time>2018-06-29T08:20:34Z</time>
      </trkpt>
      <trkpt lat="45.92949" lon="4.76358">
        <ele>169</ele>
        <time>2018-06-29T08:20:35Z</time>
      </trkpt>
      <trkpt lat="45.92953" lon="4.76362">
        <ele>169</ele>
        <time>2018-06-29T08:20:36Z</time>
      </trkpt>
      <trkpt lat="45.92958" lon="4.76366">
        <ele>169</ele>
        <time>2018-06-29T08:20:37Z</time>
      </trkpt>
      <trkpt lat="45.92963" lon="4.7637">
        <ele>169</ele>
        <time>2018-06-29T08:20:38Z</time>
      </trkpt>
      <trkpt lat="45.92968" lon="4.76374">
        <ele>169</ele>
        <time>2018-06-29T08:20:39Z</time>
      </trkpt>
      <trkpt lat="45.92973" lon="4.7638">
        <ele>169</ele>
        <time>2018-06-29T08:20:40Z</time>
      </trkpt>
      <trkpt lat="45.92978" lon="4.76384">
        <ele>169</ele>
        <time>2018-06-29T08:20:41Z</time>
      </trkpt>
      <trkpt lat="45.92982" lon="4.76389">
        <ele>169</ele>
        <time>2018-06-29T08:20:42Z</time>
      </trkpt>
      <trkpt lat="45.92987" lon="4.76393">
        <ele>169</ele>
        <time>2018-06-29T08:20:43Z</time>
      </trkpt>
      <trkpt lat="45.92992" lon="4.76398">
        <ele>169</ele>
        <time>2018-06-29T08:20:44Z</time>
      </trkpt>
      <trkpt lat="45.92996" lon="4.76403">
        <ele>169</ele>
        <time>2018-06-29T08:20:45Z</time>
      </trkpt>
      <trkpt lat="45.93" lon="4.76407">
        <ele>169</ele>
        <time>2018-06-29T08:20:46Z</time>
      </trkpt>
      <trkpt lat="45.93005" lon="4.76412">
        <ele>169</ele>
        <time>2018-06-29T08:20:47Z</time>
      </trkpt>
      <trkpt lat="45.9301" lon="4.76416">
        <ele>169</ele>
        <time>2018-06-29T08:20:48Z</time>
      </trkpt>
      <trkpt lat="45.93015" lon="4.7642">
        <ele>169</ele>
        <time>2018-06-29T08:20:49Z</time>
      </trkpt>
      <trkpt lat="45.9302" lon="4.76424">
        <ele>169</ele>
        <time>2018-06-29T08:20:50Z</time>
      </trkpt>
      <trkpt lat="45.93026" lon="4.76427">
        <ele>169</ele>
        <time>2018-06-29T08:20:51Z</time>
      </trkpt>
      <trkpt lat="45.9303" lon="4.76432">
        <ele>169</ele>
        <time>2018-06-29T08:20:52Z</time>
      </trkpt>
      <trkpt lat="45.93035" lon="4.76436">
        <ele>169</ele>
        <time>2018-06-29T08:20:53Z</time>
      </trkpt>
      <trkpt lat="45.9304" lon="4.76442">
        <ele>169</ele>
        <time>2018-06-29T08:20:54Z</time>
      </trkpt>
      <trkpt lat="45.93045" lon="4.76447">
        <ele>169</ele>
        <time>2018-06-29T08:20:55Z</time>
      </trkpt>
      <trkpt lat="45.9305" lon="4.76452">
        <ele>169</ele>
        <time>2018-06-29T08:20:56Z</time>
      </trkpt>
      <trkpt lat="45.93054" lon="4.76457">
        <ele>169</ele>
        <time>2018-06-29T08:20:57Z</time>
      </trkpt>
      <trkpt lat="45.93058" lon="4.76461">
        <ele>169</ele>
        <time>2018-06-29T08:20:58Z</time>
      </trkpt>
      <trkpt lat="45.93062" lon="4.76466">
        <ele>169</ele>
        <time>2018-06-29T08:20:59Z</time>
      </trkpt>
      <trkpt lat="45.93065" lon="4.76471">
        <ele>169</ele>
        <time>2018-06-29T08:21:00Z</time>
      </trkpt>
      <trkpt lat="45.93069" lon="4.76475">
        <ele>169</ele>
        <time>2018-06-29T08:21:01Z</time>
      </trkpt>
      <trkpt lat="45.93072" lon="4.7648">
        <ele>169</ele>
        <time>2018-06-29T08:21:02Z</time>
      </trkpt>
      <trkpt lat="45.93078" lon="4.76484">
        <ele>169</ele>
        <time>2018-06-29T08:21:03Z</time>
      </trkpt>
      <trkpt lat="45.93083" lon="4.76489">
        <ele>170</ele>
        <time>2018-06-29T08:21:04Z</time>
      </trkpt>
      <trkpt lat="45.93088" lon="4.76494">
        <ele>170</ele>
        <time>2018-06-29T08:21:05Z</time>
      </trkpt>
      <trkpt lat="45.93094" lon="4.76498">
        <ele>170</ele>
        <time>2018-06-29T08:21:06Z</time>
      </trkpt>
      <trkpt lat="45.93097" lon="4.76503">
        <ele>170</ele>
        <time>2018-06-29T08:21:07Z</time>
      </trkpt>
      <trkpt lat="45.93101" lon="4.76509">
        <ele>170</ele>
        <time>2018-06-29T08:21:08Z</time>
      </trkpt>
      <trkpt lat="45.93106" lon="4.76511">
        <ele>170</ele>
        <time>2018-06-29T08:21:09Z</time>
      </trkpt>
      <trkpt lat="45.93111" lon="4.76517">
        <ele>170</ele>
        <time>2018-06-29T08:21:10Z</time>
      </trkpt>
      <trkpt lat="45.93115" lon="4.76521">
        <ele>170</ele>
        <time>2018-06-29T08:21:11Z</time>
      </trkpt>
      <trkpt lat="45.9312" lon="4.76524">
        <ele>170</ele>
        <time>2018-06-29T08:21:12Z</time>
      </trkpt>
      <trkpt lat="45.93123" lon="4.76528">
        <ele>170</ele>
        <time>2018-06-29T08:21:13Z</time>
      </trkpt>
      <trkpt lat="45.93129" lon="4.76533">
        <ele>170</ele>
        <time>2018-06-29T08:21:14Z</time>
      </trkpt>
      <trkpt lat="45.93134" lon="4.76537">
        <ele>170</ele>
        <time>2018-06-29T08:21:15Z</time>
      </trkpt>
      <trkpt lat="45.93137" lon="4.76541">
        <ele>170</ele>
        <time>2018-06-29T08:21:16Z</time>
      </trkpt>
      <trkpt lat="45.93143" lon="4.76547">
        <ele>170</ele>
        <time>2018-06-29T08:21:18Z</time>
      </trkpt>
      <trkpt lat="45.93149" lon="4.76552">
        <ele>170</ele>
        <time>2018-06-29T08:21:19Z</time>
      </trkpt>
      <trkpt lat="45.93153" lon="4.76557">
        <ele>170</ele>
        <time>2018-06-29T08:21:20Z</time>
      </trkpt>
      <trkpt lat="45.93156" lon="4.76561">
        <ele>170</ele>
        <time>2018-06-29T08:21:21Z</time>
      </trkpt>
      <trkpt lat="45.93161" lon="4.76567">
        <ele>170</ele>
        <time>2018-06-29T08:21:22Z</time>
      </trkpt>
      <trkpt lat="45.93166" lon="4.76572">
        <ele>171</ele>
        <time>2018-06-29T08:21:23Z</time>
      </trkpt>
      <trkpt lat="45.93173" lon="4.7658">
        <ele>170</ele>
        <time>2018-06-29T08:21:25Z</time>
      </trkpt>
      <trkpt lat="45.93179" lon="4.76585">
        <ele>171</ele>
        <time>2018-06-29T08:21:26Z</time>
      </trkpt>
      <trkpt lat="45.93183" lon="4.7659">
        <ele>171</ele>
        <time>2018-06-29T08:21:27Z</time>
      </trkpt>
      <trkpt lat="45.93187" lon="4.76592">
        <ele>171</ele>
        <time>2018-06-29T08:21:28Z</time>
      </trkpt>
      <trkpt lat="45.93192" lon="4.76595">
        <ele>170</ele>
        <time>2018-06-29T08:21:29Z</time>
      </trkpt>
      <trkpt lat="45.93196" lon="4.766">
        <ele>170</ele>
        <time>2018-06-29T08:21:30Z</time>
      </trkpt>
      <trkpt lat="45.932" lon="4.76605">
        <ele>170</ele>
        <time>2018-06-29T08:21:31Z</time>
      </trkpt>
      <trkpt lat="45.93206" lon="4.76608">
        <ele>170</ele>
        <time>2018-06-29T08:21:32Z</time>
      </trkpt>
      <trkpt lat="45.93211" lon="4.76613">
        <ele>170</ele>
        <time>2018-06-29T08:21:33Z</time>
      </trkpt>
      <trkpt lat="45.93214" lon="4.76618">
        <ele>170</ele>
        <time>2018-06-29T08:21:34Z</time>
      </trkpt>
      <trkpt lat="45.93219" lon="4.76623">
        <ele>170</ele>
        <time>2018-06-29T08:21:35Z</time>
      </trkpt>
      <trkpt lat="45.93223" lon="4.76628">
        <ele>170</ele>
        <time>2018-06-29T08:21:36Z</time>
      </trkpt>
      <trkpt lat="45.93227" lon="4.76632">
        <ele>170</ele>
        <time>2018-06-29T08:21:37Z</time>
      </trkpt>
      <trkpt lat="45.9323" lon="4.76637">
        <ele>171</ele>
        <time>2018-06-29T08:21:38Z</time>
      </trkpt>
      <trkpt lat="45.93234" lon="4.76643">
        <ele>171</ele>
        <time>2018-06-29T08:21:39Z</time>
      </trkpt>
      <trkpt lat="45.93239" lon="4.76648">
        <ele>171</ele>
        <time>2018-06-29T08:21:40Z</time>
      </trkpt>
      <trkpt lat="45.93245" lon="4.76653">
        <ele>171</ele>
        <time>2018-06-29T08:21:41Z</time>
      </trkpt>
      <trkpt lat="45.9325" lon="4.76656">
        <ele>171</ele>
        <time>2018-06-29T08:21:42Z</time>
      </trkpt>
      <trkpt lat="45.93254" lon="4.76661">
        <ele>171</ele>
        <time>2018-06-29T08:21:43Z</time>
      </trkpt>
      <trkpt lat="45.9326" lon="4.76666">
        <ele>171</ele>
        <time>2018-06-29T08:21:44Z</time>
      </trkpt>
      <trkpt lat="45.93265" lon="4.7667">
        <ele>172</ele>
        <time>2018-06-29T08:21:45Z</time>
      </trkpt>
      <trkpt lat="45.93269" lon="4.76674">
        <ele>172</ele>
        <time>2018-06-29T08:21:46Z</time>
      </trkpt>
      <trkpt lat="45.93273" lon="4.76678">
        <ele>172</ele>
        <time>2018-06-29T08:21:47Z</time>
      </trkpt>
      <trkpt lat="45.93277" lon="4.76684">
        <ele>172</ele>
        <time>2018-06-29T08:21:48Z</time>
      </trkpt>
      <trkpt lat="45.93281" lon="4.76687">
        <ele>172</ele>
        <time>2018-06-29T08:21:49Z</time>
      </trkpt>
      <trkpt lat="45.93286" lon="4.7669">
        <ele>172</ele>
        <time>2018-06-29T08:21:50Z</time>
      </trkpt>
      <trkpt lat="45.93291" lon="4.76694">
        <ele>172</ele>
        <time>2018-06-29T08:21:51Z</time>
      </trkpt>
      <trkpt lat="45.93295" lon="4.76699">
        <ele>172</ele>
        <time>2018-06-29T08:21:52Z</time>
      </trkpt>
      <trkpt lat="45.933" lon="4.76704">
        <ele>172</ele>
        <time>2018-06-29T08:21:53Z</time>
      </trkpt>
      <trkpt lat="45.93304" lon="4.76708">
        <ele>172</ele>
        <time>2018-06-29T08:21:54Z</time>
      </trkpt>
      <trkpt lat="45.93308" lon="4.76712">
        <ele>172</ele>
        <time>2018-06-29T08:21:55Z</time>
      </trkpt>
      <trkpt lat="45.93312" lon="4.76717">
        <ele>172</ele>
        <time>2018-06-29T08:21:56Z</time>
      </trkpt>
      <trkpt lat="45.93317" lon="4.76721">
        <ele>172</ele>
        <time>2018-06-29T08:21:57Z</time>
      </trkpt>
      <trkpt lat="45.93321" lon="4.76725">
        <ele>172</ele>
        <time>2018-06-29T08:21:58Z</time>
      </trkpt>
      <trkpt lat="45.93326" lon="4.76731">
        <ele>172</ele>
        <time>2018-06-29T08:21:59Z</time>
      </trkpt>
      <trkpt lat="45.93331" lon="4.76735">
        <ele>172</ele>
        <time>2018-06-29T08:22:00Z</time>
      </trkpt>
      <trkpt lat="45.93336" lon="4.7674">
        <ele>173</ele>
        <time>2018-06-29T08:22:01Z</time>
      </trkpt>
      <trkpt lat="45.93341" lon="4.76746">
        <ele>173</ele>
        <time>2018-06-29T08:22:02Z</time>
      </trkpt>
      <trkpt lat="45.93346" lon="4.7675">
        <ele>172</ele>
        <time>2018-06-29T08:22:03Z</time>
      </trkpt>
      <trkpt lat="45.93351" lon="4.76755">
        <ele>172</ele>
        <time>2018-06-29T08:22:04Z</time>
      </trkpt>
      <trkpt lat="45.93356" lon="4.76759">
        <ele>172</ele>
        <time>2018-06-29T08:22:05Z</time>
      </trkpt>
      <trkpt lat="45.93361" lon="4.76764">
        <ele>172</ele>
        <time>2018-06-29T08:22:06Z</time>
      </trkpt>
      <trkpt lat="45.93366" lon="4.76769">
        <ele>172</ele>
        <time>2018-06-29T08:22:07Z</time>
      </trkpt>
      <trkpt lat="45.93371" lon="4.76775">
        <ele>172</ele>
        <time>2018-06-29T08:22:08Z</time>
      </trkpt>
      <trkpt lat="45.93376" lon="4.7678">
        <ele>172</ele>
        <time>2018-06-29T08:22:09Z</time>
      </trkpt>
      <trkpt lat="45.93381" lon="4.76785">
        <ele>172</ele>
        <time>2018-06-29T08:22:10Z</time>
      </trkpt>
      <trkpt lat="45.93386" lon="4.76789">
        <ele>172</ele>
        <time>2018-06-29T08:22:11Z</time>
      </trkpt>
      <trkpt lat="45.9339" lon="4.76794">
        <ele>172</ele>
        <time>2018-06-29T08:22:12Z</time>
      </trkpt>
      <trkpt lat="45.93395" lon="4.76799">
        <ele>172</ele>
        <time>2018-06-29T08:22:13Z</time>
      </trkpt>
      <trkpt lat="45.93399" lon="4.76805">
        <ele>172</ele>
        <time>2018-06-29T08:22:14Z</time>
      </trkpt>
      <trkpt lat="45.93402" lon="4.76811">
        <ele>172</ele>
        <time>2018-06-29T08:22:15Z</time>
      </trkpt>
      <trkpt lat="45.93406" lon="4.76818">
        <ele>172</ele>
        <time>2018-06-29T08:22:16Z</time>
      </trkpt>
      <trkpt lat="45.9341" lon="4.76824">
        <ele>172</ele>
        <time>2018-06-29T08:22:17Z</time>
      </trkpt>
      <trkpt lat="45.93413" lon="4.76832">
        <ele>172</ele>
        <time>2018-06-29T08:22:18Z</time>
      </trkpt>
      <trkpt lat="45.93418" lon="4.76839">
        <ele>172</ele>
        <time>2018-06-29T08:22:19Z</time>
      </trkpt>
      <trkpt lat="45.93422" lon="4.76846">
        <ele>171</ele>
        <time>2018-06-29T08:22:20Z</time>
      </trkpt>
      <trkpt lat="45.93426" lon="4.76853">
        <ele>171</ele>
        <time>2018-06-29T08:22:21Z</time>
      </trkpt>
      <trkpt lat="45.9343" lon="4.7686">
        <ele>171</ele>
        <time>2018-06-29T08:22:22Z</time>
      </trkpt>
      <trkpt lat="45.93433" lon="4.76868">
        <ele>171</ele>
        <time>2018-06-29T08:22:23Z</time>
      </trkpt>
      <trkpt lat="45.93436" lon="4.76877">
        <ele>171</ele>
        <time>2018-06-29T08:22:24Z</time>
      </trkpt>
      <trkpt lat="45.9344" lon="4.76886">
        <ele>170</ele>
        <time>2018-06-29T08:22:25Z</time>
      </trkpt>
      <trkpt lat="45.93443" lon="4.76895">
        <ele>170</ele>
        <time>2018-06-29T08:22:26Z</time>
      </trkpt>
      <trkpt lat="45.93445" lon="4.76906">
        <ele>170</ele>
        <time>2018-06-29T08:22:27Z</time>
      </trkpt>
      <trkpt lat="45.93447" lon="4.76916">
        <ele>170</ele>
        <time>2018-06-29T08:22:28Z</time>
      </trkpt>
      <trkpt lat="45.93449" lon="4.76925">
        <ele>170</ele>
        <time>2018-06-29T08:22:29Z</time>
      </trkpt>
      <trkpt lat="45.93451" lon="4.76934">
        <ele>170</ele>
        <time>2018-06-29T08:22:30Z</time>
      </trkpt>
      <trkpt lat="45.93453" lon="4.76942">
        <ele>170</ele>
        <time>2018-06-29T08:22:31Z</time>
      </trkpt>
      <trkpt lat="45.93454" lon="4.76952">
        <ele>170</ele>
        <time>2018-06-29T08:22:32Z</time>
      </trkpt>
      <trkpt lat="45.93456" lon="4.76961">
        <ele>170</ele>
        <time>2018-06-29T08:22:33Z</time>
      </trkpt>
      <trkpt lat="45.93458" lon="4.7697">
        <ele>170</ele>
        <time>2018-06-29T08:22:34Z</time>
      </trkpt>
      <trkpt lat="45.93458" lon="4.76979">
        <ele>170</ele>
        <time>2018-06-29T08:22:35Z</time>
      </trkpt>
      <trkpt lat="45.93459" lon="4.76988">
        <ele>170</ele>
        <time>2018-06-29T08:22:36Z</time>
      </trkpt>
      <trkpt lat="45.93459" lon="4.76992">
        <ele>170</ele>
        <time>2018-06-29T08:22:37Z</time>
      </trkpt>
      <trkpt lat="45.93461" lon="4.77004">
        <ele>170</ele>
        <time>2018-06-29T08:22:38Z</time>
      </trkpt>
      <trkpt lat="45.93462" lon="4.77012">
        <ele>170</ele>
        <time>2018-06-29T08:22:39Z</time>
      </trkpt>
      <trkpt lat="45.93465" lon="4.77022">
        <ele>170</ele>
        <time>2018-06-29T08:22:40Z</time>
      </trkpt>
      <trkpt lat="45.93467" lon="4.77031">
        <ele>170</ele>
        <time>2018-06-29T08:22:41Z</time>
      </trkpt>
      <trkpt lat="45.93469" lon="4.77039">
        <ele>170</ele>
        <time>2018-06-29T08:22:42Z</time>
      </trkpt>
      <trkpt lat="45.9347" lon="4.77047">
        <ele>170</ele>
        <time>2018-06-29T08:22:43Z</time>
      </trkpt>
      <trkpt lat="45.93472" lon="4.77057">
        <ele>170</ele>
        <time>2018-06-29T08:22:44Z</time>
      </trkpt>
      <trkpt lat="45.93472" lon="4.77065">
        <ele>170</ele>
        <time>2018-06-29T08:22:45Z</time>
      </trkpt>
      <trkpt lat="45.93473" lon="4.77075">
        <ele>170</ele>
        <time>2018-06-29T08:22:46Z</time>
      </trkpt>
      <trkpt lat="45.93474" lon="4.77084">
        <ele>169</ele>
        <time>2018-06-29T08:22:47Z</time>
      </trkpt>
      <trkpt lat="45.93476" lon="4.77093">
        <ele>169</ele>
        <time>2018-06-29T08:22:48Z</time>
      </trkpt>
      <trkpt lat="45.93478" lon="4.77102">
        <ele>169</ele>
        <time>2018-06-29T08:22:49Z</time>
      </trkpt>
      <trkpt lat="45.93482" lon="4.77111">
        <ele>169</ele>
        <time>2018-06-29T08:22:50Z</time>
      </trkpt>
      <trkpt lat="45.93483" lon="4.77119">
        <ele>169</ele>
        <time>2018-06-29T08:22:51Z</time>
      </trkpt>
      <trkpt lat="45.93484" lon="4.77127">
        <ele>169</ele>
        <time>2018-06-29T08:22:52Z</time>
      </trkpt>
      <trkpt lat="45.93485" lon="4.77134">
        <ele>169</ele>
        <time>2018-06-29T08:22:53Z</time>
      </trkpt>
      <trkpt lat="45.93485" lon="4.77142">
        <ele>169</ele>
        <time>2018-06-29T08:22:54Z</time>
      </trkpt>
      <trkpt lat="45.93487" lon="4.77148">
        <ele>169</ele>
        <time>2018-06-29T08:22:55Z</time>
      </trkpt>
      <trkpt lat="45.93489" lon="4.77156">
        <ele>169</ele>
        <time>2018-06-29T08:22:56Z</time>
      </trkpt>
      <trkpt lat="45.93491" lon="4.77163">
        <ele>169</ele>
        <time>2018-06-29T08:22:57Z</time>
      </trkpt>
      <trkpt lat="45.93492" lon="4.7717">
        <ele>169</ele>
        <time>2018-06-29T08:22:58Z</time>
      </trkpt>
      <trkpt lat="45.93494" lon="4.77178">
        <ele>169</ele>
        <time>2018-06-29T08:22:59Z</time>
      </trkpt>
      <trkpt lat="45.93496" lon="4.77187">
        <ele>169</ele>
        <time>2018-06-29T08:23:00Z</time>
      </trkpt>
      <trkpt lat="45.93496" lon="4.77194">
        <ele>169</ele>
        <time>2018-06-29T08:23:01Z</time>
      </trkpt>
      <trkpt lat="45.93498" lon="4.77201">
        <ele>169</ele>
        <time>2018-06-29T08:23:02Z</time>
      </trkpt>
      <trkpt lat="45.935" lon="4.77209">
        <ele>169</ele>
        <time>2018-06-29T08:23:03Z</time>
      </trkpt>
      <trkpt lat="45.93501" lon="4.77218">
        <ele>169</ele>
        <time>2018-06-29T08:23:04Z</time>
      </trkpt>
      <trkpt lat="45.93502" lon="4.77227">
        <ele>169</ele>
        <time>2018-06-29T08:23:05Z</time>
      </trkpt>
      <trkpt lat="45.93505" lon="4.77236">
        <ele>169</ele>
        <time>2018-06-29T08:23:06Z</time>
      </trkpt>
      <trkpt lat="45.93507" lon="4.77245">
        <ele>170</ele>
        <time>2018-06-29T08:23:07Z</time>
      </trkpt>
      <trkpt lat="45.93509" lon="4.77253">
        <ele>170</ele>
        <time>2018-06-29T08:23:08Z</time>
      </trkpt>
      <trkpt lat="45.9351" lon="4.7726">
        <ele>170</ele>
        <time>2018-06-29T08:23:09Z</time>
      </trkpt>
      <trkpt lat="45.93511" lon="4.77268">
        <ele>170</ele>
        <time>2018-06-29T08:23:10Z</time>
      </trkpt>
      <trkpt lat="45.93513" lon="4.77275">
        <ele>170</ele>
        <time>2018-06-29T08:23:11Z</time>
      </trkpt>
      <trkpt lat="45.93515" lon="4.77283">
        <ele>170</ele>
        <time>2018-06-29T08:23:12Z</time>
      </trkpt>
      <trkpt lat="45.93518" lon="4.7729">
        <ele>170</ele>
        <time>2018-06-29T08:23:13Z</time>
      </trkpt>
      <trkpt lat="45.9352" lon="4.77297">
        <ele>170</ele>
        <time>2018-06-29T08:23:14Z</time>
      </trkpt>
      <trkpt lat="45.93521" lon="4.77304">
        <ele>170</ele>
        <time>2018-06-29T08:23:15Z</time>
      </trkpt>
      <trkpt lat="45.93522" lon="4.77311">
        <ele>170</ele>
        <time>2018-06-29T08:23:16Z</time>
      </trkpt>
      <trkpt lat="45.93523" lon="4.77318">
        <ele>170</ele>
        <time>2018-06-29T08:23:17Z</time>
      </trkpt>
      <trkpt lat="45.93524" lon="4.77325">
        <ele>170</ele>
        <time>2018-06-29T08:23:18Z</time>
      </trkpt>
      <trkpt lat="45.93526" lon="4.77332">
        <ele>170</ele>
        <time>2018-06-29T08:23:19Z</time>
      </trkpt>
      <trkpt lat="45.93528" lon="4.7734">
        <ele>170</ele>
        <time>2018-06-29T08:23:20Z</time>
      </trkpt>
      <trkpt lat="45.9353" lon="4.77348">
        <ele>170</ele>
        <time>2018-06-29T08:23:21Z</time>
      </trkpt>
      <trkpt lat="45.93533" lon="4.77356">
        <ele>170</ele>
        <time>2018-06-29T08:23:22Z</time>
      </trkpt>
      <trkpt lat="45.93534" lon="4.77365">
        <ele>170</ele>
        <time>2018-06-29T08:23:23Z</time>
      </trkpt>
      <trkpt lat="45.93535" lon="4.77372">
        <ele>170</ele>
        <time>2018-06-29T08:23:24Z</time>
      </trkpt>
      <trkpt lat="45.93537" lon="4.77381">
        <ele>170</ele>
        <time>2018-06-29T08:23:25Z</time>
      </trkpt>
      <trkpt lat="45.93538" lon="4.77388">
        <ele>170</ele>
        <time>2018-06-29T08:23:26Z</time>
      </trkpt>
      <trkpt lat="45.93539" lon="4.77396">
        <ele>170</ele>
        <time>2018-06-29T08:23:27Z</time>
      </trkpt>
      <trkpt lat="45.93541" lon="4.77403">
        <ele>170</ele>
        <time>2018-06-29T08:23:28Z</time>
      </trkpt>
      <trkpt lat="45.93543" lon="4.7741">
        <ele>170</ele>
        <time>2018-06-29T08:23:29Z</time>
      </trkpt>
      <trkpt lat="45.93545" lon="4.77417">
        <ele>170</ele>
        <time>2018-06-29T08:23:30Z</time>
      </trkpt>
      <trkpt lat="45.93546" lon="4.77424">
        <ele>170</ele>
        <time>2018-06-29T08:23:31Z</time>
      </trkpt>
      <trkpt lat="45.93549" lon="4.77432">
        <ele>169</ele>
        <time>2018-06-29T08:23:32Z</time>
      </trkpt>
      <trkpt lat="45.9355" lon="4.7744">
        <ele>169</ele>
        <time>2018-06-29T08:23:33Z</time>
      </trkpt>
      <trkpt lat="45.93552" lon="4.77448">
        <ele>169</ele>
        <time>2018-06-29T08:23:34Z</time>
      </trkpt>
      <trkpt lat="45.93554" lon="4.77456">
        <ele>169</ele>
        <time>2018-06-29T08:23:35Z</time>
      </trkpt>
      <trkpt lat="45.93556" lon="4.77464">
        <ele>169</ele>
        <time>2018-06-29T08:23:36Z</time>
      </trkpt>
      <trkpt lat="45.93557" lon="4.7747">
        <ele>169</ele>
        <time>2018-06-29T08:23:37Z</time>
      </trkpt>
      <trkpt lat="45.93559" lon="4.77479">
        <ele>169</ele>
        <time>2018-06-29T08:23:38Z</time>
      </trkpt>
      <trkpt lat="45.93561" lon="4.77488">
        <ele>169</ele>
        <time>2018-06-29T08:23:39Z</time>
      </trkpt>
      <trkpt lat="45.93562" lon="4.77496">
        <ele>169</ele>
        <time>2018-06-29T08:23:40Z</time>
      </trkpt>
      <trkpt lat="45.93564" lon="4.77504">
        <ele>169</ele>
        <time>2018-06-29T08:23:41Z</time>
      </trkpt>
      <trkpt lat="45.93565" lon="4.77511">
        <ele>169</ele>
        <time>2018-06-29T08:23:42Z</time>
      </trkpt>
      <trkpt lat="45.93567" lon="4.77519">
        <ele>169</ele>
        <time>2018-06-29T08:23:43Z</time>
      </trkpt>
      <trkpt lat="45.93568" lon="4.77526">
        <ele>169</ele>
        <time>2018-06-29T08:23:44Z</time>
      </trkpt>
      <trkpt lat="45.93569" lon="4.77533">
        <ele>169</ele>
        <time>2018-06-29T08:23:45Z</time>
      </trkpt>
      <trkpt lat="45.93571" lon="4.77539">
        <ele>169</ele>
        <time>2018-06-29T08:23:46Z</time>
      </trkpt>
      <trkpt lat="45.93573" lon="4.77547">
        <ele>169</ele>
        <time>2018-06-29T08:23:47Z</time>
      </trkpt>
      <trkpt lat="45.93575" lon="4.77554">
        <ele>169</ele>
        <time>2018-06-29T08:23:48Z</time>
      </trkpt>
      <trkpt lat="45.93577" lon="4.77562">
        <ele>169</ele>
        <time>2018-06-29T08:23:49Z</time>
      </trkpt>
      <trkpt lat="45.93579" lon="4.77568">
        <ele>170</ele>
        <time>2018-06-29T08:23:50Z</time>
      </trkpt>
      <trkpt lat="45.9358" lon="4.77575">
        <ele>170</ele>
        <time>2018-06-29T08:23:51Z</time>
      </trkpt>
      <trkpt lat="45.93582" lon="4.77582">
        <ele>170</ele>
        <time>2018-06-29T08:23:52Z</time>
      </trkpt>
      <trkpt lat="45.93584" lon="4.77589">
        <ele>170</ele>
        <time>2018-06-29T08:23:53Z</time>
      </trkpt>
      <trkpt lat="45.93587" lon="4.77596">
        <ele>170</ele>
        <time>2018-06-29T08:23:54Z</time>
      </trkpt>
      <trkpt lat="45.93589" lon="4.77603">
        <ele>170</ele>
        <time>2018-06-29T08:23:55Z</time>
      </trkpt>
      <trkpt lat="45.93591" lon="4.7761">
        <ele>170</ele>
        <time>2018-06-29T08:23:56Z</time>
      </trkpt>
      <trkpt lat="45.93595" lon="4.77617">
        <ele>170</ele>
        <time>2018-06-29T08:23:57Z</time>
      </trkpt>
      <trkpt lat="45.93597" lon="4.77624">
        <ele>170</ele>
        <time>2018-06-29T08:23:58Z</time>
      </trkpt>
      <trkpt lat="45.936" lon="4.7763">
        <ele>169</ele>
        <time>2018-06-29T08:23:59Z</time>
      </trkpt>
      <trkpt lat="45.93603" lon="4.77636">
        <ele>169</ele>
        <time>2018-06-29T08:24:00Z</time>
      </trkpt>
      <trkpt lat="45.93606" lon="4.77643">
        <ele>169</ele>
        <time>2018-06-29T08:24:01Z</time>
      </trkpt>
      <trkpt lat="45.93609" lon="4.77651">
        <ele>169</ele>
        <time>2018-06-29T08:24:02Z</time>
      </trkpt>
      <trkpt lat="45.93612" lon="4.77659">
        <ele>169</ele>
        <time>2018-06-29T08:24:03Z</time>
      </trkpt>
      <trkpt lat="45.93615" lon="4.77664">
        <ele>169</ele>
        <time>2018-06-29T08:24:04Z</time>
      </trkpt>
      <trkpt lat="45.93619" lon="4.7767">
        <ele>169</ele>
        <time>2018-06-29T08:24:05Z</time>
      </trkpt>
      <trkpt lat="45.93622" lon="4.77677">
        <ele>169</ele>
        <time>2018-06-29T08:24:06Z</time>
      </trkpt>
      <trkpt lat="45.93625" lon="4.77683">
        <ele>169</ele>
        <time>2018-06-29T08:24:07Z</time>
      </trkpt>
      <trkpt lat="45.93628" lon="4.77689">
        <ele>169</ele>
        <time>2018-06-29T08:24:08Z</time>
      </trkpt>
      <trkpt lat="45.93631" lon="4.77696">
        <ele>169</ele>
        <time>2018-06-29T08:24:09Z</time>
      </trkpt>
      <trkpt lat="45.93634" lon="4.77704">
        <ele>170</ele>
        <time>2018-06-29T08:24:10Z</time>
      </trkpt>
      <trkpt lat="45.93637" lon="4.77709">
        <ele>170</ele>
        <time>2018-06-29T08:24:11Z</time>
      </trkpt>
      <trkpt lat="45.9364" lon="4.77714">
        <ele>170</ele>
        <time>2018-06-29T08:24:12Z</time>
      </trkpt>
      <trkpt lat="45.93643" lon="4.77719">
        <ele>170</ele>
        <time>2018-06-29T08:24:13Z</time>
      </trkpt>
      <trkpt lat="45.93646" lon="4.77725">
        <ele>170</ele>
        <time>2018-06-29T08:24:14Z</time>
      </trkpt>
      <trkpt lat="45.9365" lon="4.77732">
        <ele>170</ele>
        <time>2018-06-29T08:24:16Z</time>
      </trkpt>
      <trkpt lat="45.93652" lon="4.77735">
        <ele>170</ele>
        <time>2018-06-29T08:24:17Z</time>
      </trkpt>
      <trkpt lat="45.93656" lon="4.77743">
        <ele>170</ele>
        <time>2018-06-29T08:24:20Z</time>
      </trkpt>
      <trkpt lat="45.93658" lon="4.77746">
        <ele>170</ele>
        <time>2018-06-29T08:24:21Z</time>
      </trkpt>
      <trkpt lat="45.93663" lon="4.77752">
        <ele>171</ele>
        <time>2018-06-29T08:24:24Z</time>
      </trkpt>
      <trkpt lat="45.93665" lon="4.77754">
        <ele>171</ele>
        <time>2018-06-29T08:24:25Z</time>
      </trkpt>
      <trkpt lat="45.93671" lon="4.7776">
        <ele>170</ele>
        <time>2018-06-29T08:24:28Z</time>
      </trkpt>
      <trkpt lat="45.93673" lon="4.77762">
        <ele>170</ele>
        <time>2018-06-29T08:24:29Z</time>
      </trkpt>
      <trkpt lat="45.93678" lon="4.7777">
        <ele>170</ele>
        <time>2018-06-29T08:24:32Z</time>
      </trkpt>
      <trkpt lat="45.9368" lon="4.77773">
        <ele>170</ele>
        <time>2018-06-29T08:24:33Z</time>
      </trkpt>
      <trkpt lat="45.93684" lon="4.7778">
        <ele>170</ele>
        <time>2018-06-29T08:24:35Z</time>
      </trkpt>
      <trkpt lat="45.93686" lon="4.77783">
        <ele>170</ele>
        <time>2018-06-29T08:24:36Z</time>
      </trkpt>
      <trkpt lat="45.93691" lon="4.7779">
        <ele>170</ele>
        <time>2018-06-29T08:24:38Z</time>
      </trkpt>
      <trkpt lat="45.93693" lon="4.77793">
        <ele>169</ele>
        <time>2018-06-29T08:24:39Z</time>
      </trkpt>
      <trkpt lat="45.93698" lon="4.778">
        <ele>169</ele>
        <time>2018-06-29T08:24:41Z</time>
      </trkpt>
      <trkpt lat="45.937" lon="4.77803">
        <ele>169</ele>
        <time>2018-06-29T08:24:42Z</time>
      </trkpt>
      <trkpt lat="45.93705" lon="4.7781">
        <ele>169</ele>
        <time>2018-06-29T08:24:44Z</time>
      </trkpt>
      <trkpt lat="45.93707" lon="4.77813">
        <ele>169</ele>
        <time>2018-06-29T08:24:45Z</time>
      </trkpt>
      <trkpt lat="45.93712" lon="4.7782">
        <ele>169</ele>
        <time>2018-06-29T08:24:47Z</time>
      </trkpt>
      <trkpt lat="45.93715" lon="4.77823">
        <ele>169</ele>
        <time>2018-06-29T08:24:48Z</time>
      </trkpt>
      <trkpt lat="45.93721" lon="4.77833">
        <ele>168</ele>
        <time>2018-06-29T08:24:49Z</time>
      </trkpt>
      <trkpt lat="45.93727" lon="4.7784">
        <ele>167</ele>
        <time>2018-06-29T08:24:51Z</time>
      </trkpt>
      <trkpt lat="45.93729" lon="4.77844">
        <ele>167</ele>
        <time>2018-06-29T08:24:52Z</time>
      </trkpt>
      <trkpt lat="45.93735" lon="4.77852">
        <ele>167</ele>
        <time>2018-06-29T08:24:54Z</time>
      </trkpt>
      <trkpt lat="45.93738" lon="4.77856">
        <ele>167</ele>
        <time>2018-06-29T08:24:55Z</time>
      </trkpt>
      <trkpt lat="45.93744" lon="4.77864">
        <ele>167</ele>
        <time>2018-06-29T08:24:57Z</time>
      </trkpt>
      <trkpt lat="45.93747" lon="4.77868">
        <ele>167</ele>
        <time>2018-06-29T08:24:58Z</time>
      </trkpt>
      <trkpt lat="45.93754" lon="4.77877">
        <ele>166</ele>
        <time>2018-06-29T08:25:00Z</time>
      </trkpt>
      <trkpt lat="45.93757" lon="4.77881">
        <ele>166</ele>
        <time>2018-06-29T08:25:01Z</time>
      </trkpt>
      <trkpt lat="45.93763" lon="4.77888">
        <ele>166</ele>
        <time>2018-06-29T08:25:03Z</time>
      </trkpt>
      <trkpt lat="45.93766" lon="4.77892">
        <ele>166</ele>
        <time>2018-06-29T08:25:04Z</time>
      </trkpt>
      <trkpt lat="45.93771" lon="4.77897">
        <ele>166</ele>
        <time>2018-06-29T08:25:05Z</time>
      </trkpt>
      <trkpt lat="45.93774" lon="4.77902">
        <ele>166</ele>
        <time>2018-06-29T08:25:06Z</time>
      </trkpt>
      <trkpt lat="45.93777" lon="4.77907">
        <ele>166</ele>
        <time>2018-06-29T08:25:07Z</time>
      </trkpt>
      <trkpt lat="45.9378" lon="4.77912">
        <ele>166</ele>
        <time>2018-06-29T08:25:08Z</time>
      </trkpt>
      <trkpt lat="45.93787" lon="4.7792">
        <ele>168</ele>
        <time>2018-06-29T08:25:10Z</time>
      </trkpt>
      <trkpt lat="45.9379" lon="4.77925">
        <ele>168</ele>
        <time>2018-06-29T08:25:11Z</time>
      </trkpt>
      <trkpt lat="45.93794" lon="4.77929">
        <ele>168</ele>
        <time>2018-06-29T08:25:12Z</time>
      </trkpt>
      <trkpt lat="45.93797" lon="4.77934">
        <ele>168</ele>
        <time>2018-06-29T08:25:13Z</time>
      </trkpt>
      <trkpt lat="45.93801" lon="4.77939">
        <ele>169</ele>
        <time>2018-06-29T08:25:14Z</time>
      </trkpt>
      <trkpt lat="45.93805" lon="4.77943">
        <ele>169</ele>
        <time>2018-06-29T08:25:15Z</time>
      </trkpt>
      <trkpt lat="45.93809" lon="4.77949">
        <ele>169</ele>
        <time>2018-06-29T08:25:16Z</time>
      </trkpt>
      <trkpt lat="45.93813" lon="4.77953">
        <ele>170</ele>
        <time>2018-06-29T08:25:17Z</time>
      </trkpt>
      <trkpt lat="45.93817" lon="4.77959">
        <ele>170</ele>
        <time>2018-06-29T08:25:18Z</time>
      </trkpt>
      <trkpt lat="45.93821" lon="4.77964">
        <ele>171</ele>
        <time>2018-06-29T08:25:19Z</time>
      </trkpt>
      <trkpt lat="45.93825" lon="4.7797">
        <ele>172</ele>
        <time>2018-06-29T08:25:20Z</time>
      </trkpt>
      <trkpt lat="45.93828" lon="4.77974">
        <ele>172</ele>
        <time>2018-06-29T08:25:21Z</time>
      </trkpt>
      <trkpt lat="45.93832" lon="4.7798">
        <ele>173</ele>
        <time>2018-06-29T08:25:22Z</time>
      </trkpt>
      <trkpt lat="45.93834" lon="4.77984">
        <ele>178</ele>
        <time>2018-06-29T08:25:23Z</time>
      </trkpt>
      <trkpt lat="45.93837" lon="4.7799">
        <ele>179</ele>
        <time>2018-06-29T08:25:24Z</time>
      </trkpt>
      <trkpt lat="45.9384" lon="4.77996">
        <ele>179</ele>
        <time>2018-06-29T08:25:25Z</time>
      </trkpt>
      <trkpt lat="45.9384" lon="4.78003">
        <ele>180</ele>
        <time>2018-06-29T08:25:26Z</time>
      </trkpt>
      <trkpt lat="45.93841" lon="4.7801">
        <ele>181</ele>
        <time>2018-06-29T08:25:27Z</time>
      </trkpt>
      <trkpt lat="45.93841" lon="4.78017">
        <ele>181</ele>
        <time>2018-06-29T08:25:28Z</time>
      </trkpt>
      <trkpt lat="45.93843" lon="4.78024">
        <ele>182</ele>
        <time>2018-06-29T08:25:29Z</time>
      </trkpt>
      <trkpt lat="45.93846" lon="4.78029">
        <ele>182</ele>
        <time>2018-06-29T08:25:30Z</time>
      </trkpt>
      <trkpt lat="45.9385" lon="4.78032">
        <ele>182</ele>
        <time>2018-06-29T08:25:31Z</time>
      </trkpt>
      <trkpt lat="45.93857" lon="4.78034">
        <ele>183</ele>
        <time>2018-06-29T08:25:34Z</time>
      </trkpt>
      <trkpt lat="45.93864" lon="4.78033">
        <ele>183</ele>
        <time>2018-06-29T08:25:35Z</time>
      </trkpt>
      <trkpt lat="45.93872" lon="4.78032">
        <ele>183</ele>
        <time>2018-06-29T08:25:38Z</time>
      </trkpt>
      <trkpt lat="45.93875" lon="4.7803">
        <ele>184</ele>
        <time>2018-06-29T08:25:39Z</time>
      </trkpt>
      <trkpt lat="45.93881" lon="4.78025">
        <ele>184</ele>
        <time>2018-06-29T08:25:40Z</time>
      </trkpt>
      <trkpt lat="45.93883" lon="4.78023">
        <ele>184</ele>
        <time>2018-06-29T08:25:41Z</time>
      </trkpt>
      <trkpt lat="45.93888" lon="4.78016">
        <ele>184</ele>
        <time>2018-06-29T08:25:44Z</time>
      </trkpt>
      <trkpt lat="45.9389" lon="4.78014">
        <ele>184</ele>
        <time>2018-06-29T08:25:45Z</time>
      </trkpt>
      <trkpt lat="45.93894" lon="4.78008">
        <ele>184</ele>
        <time>2018-06-29T08:25:47Z</time>
      </trkpt>
      <trkpt lat="45.93897" lon="4.78005">
        <ele>185</ele>
        <time>2018-06-29T08:25:48Z</time>
      </trkpt>
      <trkpt lat="45.93901" lon="4.77999">
        <ele>183</ele>
        <time>2018-06-29T08:25:50Z</time>
      </trkpt>
      <trkpt lat="45.93904" lon="4.77996">
        <ele>183</ele>
        <time>2018-06-29T08:25:51Z</time>
      </trkpt>
      <trkpt lat="45.9391" lon="4.77989">
        <ele>183</ele>
        <time>2018-06-29T08:25:54Z</time>
      </trkpt>
      <trkpt lat="45.93912" lon="4.77988">
        <ele>183</ele>
        <time>2018-06-29T08:25:55Z</time>
      </trkpt>
      <trkpt lat="45.93918" lon="4.77983">
        <ele>188</ele>
        <time>2018-06-29T08:25:58Z</time>
      </trkpt>
      <trkpt lat="45.9392" lon="4.77981">
        <ele>188</ele>
        <time>2018-06-29T08:25:59Z</time>
      </trkpt>
      <trkpt lat="45.93926" lon="4.77976">
        <ele>188</ele>
        <time>2018-06-29T08:26:02Z</time>
      </trkpt>
      <trkpt lat="45.93929" lon="4.77974">
        <ele>188</ele>
        <time>2018-06-29T08:26:03Z</time>
      </trkpt>
      <trkpt lat="45.93935" lon="4.77969">
        <ele>189</ele>
        <time>2018-06-29T08:26:06Z</time>
      </trkpt>
      <trkpt lat="45.93937" lon="4.77968">
        <ele>189</ele>
        <time>2018-06-29T08:26:07Z</time>
      </trkpt>
      <trkpt lat="45.93944" lon="4.77963">
        <ele>189</ele>
        <time>2018-06-29T08:26:10Z</time>
      </trkpt>
      <trkpt lat="45.93946" lon="4.77961">
        <ele>189</ele>
        <time>2018-06-29T08:26:11Z</time>
      </trkpt>
      <trkpt lat="45.93953" lon="4.77957">
        <ele>190</ele>
        <time>2018-06-29T08:26:15Z</time>
      </trkpt>
      <trkpt lat="45.93955" lon="4.77955">
        <ele>190</ele>
        <time>2018-06-29T08:26:16Z</time>
      </trkpt>
      <trkpt lat="45.93963" lon="4.7795">
        <ele>190</ele>
        <time>2018-06-29T08:26:20Z</time>
      </trkpt>
      <trkpt lat="45.93965" lon="4.77949">
        <ele>190</ele>
        <time>2018-06-29T08:26:21Z</time>
      </trkpt>
      <trkpt lat="45.93972" lon="4.77944">
        <ele>191</ele>
        <time>2018-06-29T08:26:24Z</time>
      </trkpt>
      <trkpt lat="45.93974" lon="4.77943">
        <ele>191</ele>
        <time>2018-06-29T08:26:25Z</time>
      </trkpt>
      <trkpt lat="45.93982" lon="4.7794">
        <ele>191</ele>
        <time>2018-06-29T08:26:29Z</time>
      </trkpt>
      <trkpt lat="45.93984" lon="4.7794">
        <ele>191</ele>
        <time>2018-06-29T08:26:30Z</time>
      </trkpt>
      <trkpt lat="45.93993" lon="4.77935">
        <ele>192</ele>
        <time>2018-06-29T08:26:34Z</time>
      </trkpt>
      <trkpt lat="45.93994" lon="4.77934">
        <ele>192</ele>
        <time>2018-06-29T08:26:35Z</time>
      </trkpt>
      <trkpt lat="45.94003" lon="4.7793">
        <ele>197</ele>
        <time>2018-06-29T08:26:39Z</time>
      </trkpt>
      <trkpt lat="45.94004" lon="4.7793">
        <ele>197</ele>
        <time>2018-06-29T08:26:40Z</time>
      </trkpt>
      <trkpt lat="45.94012" lon="4.77931">
        <ele>198</ele>
        <time>2018-06-29T08:26:45Z</time>
      </trkpt>
      <trkpt lat="45.94013" lon="4.77933">
        <ele>198</ele>
        <time>2018-06-29T08:26:46Z</time>
      </trkpt>
      <trkpt lat="45.94018" lon="4.7794">
        <ele>199</ele>
        <time>2018-06-29T08:26:50Z</time>
      </trkpt>
      <trkpt lat="45.9402" lon="4.77942">
        <ele>199</ele>
        <time>2018-06-29T08:26:51Z</time>
      </trkpt>
      <trkpt lat="45.94022" lon="4.77954">
        <ele>200</ele>
        <time>2018-06-29T08:26:55Z</time>
      </trkpt>
      <trkpt lat="45.94022" lon="4.77958">
        <ele>200</ele>
        <time>2018-06-29T08:26:56Z</time>
      </trkpt>
      <trkpt lat="45.9402" lon="4.77968">
        <ele>200</ele>
        <time>2018-06-29T08:26:59Z</time>
      </trkpt>
      <trkpt lat="45.94019" lon="4.77972">
        <ele>200</ele>
        <time>2018-06-29T08:27:00Z</time>
      </trkpt>
      <trkpt lat="45.94017" lon="4.77984">
        <ele>199</ele>
        <time>2018-06-29T08:27:03Z</time>
      </trkpt>
      <trkpt lat="45.94016" lon="4.77988">
        <ele>199</ele>
        <time>2018-06-29T08:27:04Z</time>
      </trkpt>
      <trkpt lat="45.94013" lon="4.78">
        <ele>199</ele>
        <time>2018-06-29T08:27:07Z</time>
      </trkpt>
      <trkpt lat="45.94013" lon="4.78004">
        <ele>199</ele>
        <time>2018-06-29T08:27:08Z</time>
      </trkpt>
      <trkpt lat="45.9401" lon="4.78014">
        <ele>199</ele>
        <time>2018-06-29T08:27:11Z</time>
      </trkpt>
      <trkpt lat="45.94008" lon="4.78018">
        <ele>200</ele>
        <time>2018-06-29T08:27:12Z</time>
      </trkpt>
      <trkpt lat="45.94006" lon="4.78028">
        <ele>200</ele>
        <time>2018-06-29T08:27:15Z</time>
      </trkpt>
      <trkpt lat="45.94005" lon="4.78032">
        <ele>201</ele>
        <time>2018-06-29T08:27:16Z</time>
      </trkpt>
      <trkpt lat="45.94002" lon="4.7804">
        <ele>201</ele>
        <time>2018-06-29T08:27:18Z</time>
      </trkpt>
      <trkpt lat="45.94001" lon="4.78044">
        <ele>201</ele>
        <time>2018-06-29T08:27:19Z</time>
      </trkpt>
      <trkpt lat="45.93999" lon="4.78052">
        <ele>195</ele>
        <time>2018-06-29T08:27:21Z</time>
      </trkpt>
      <trkpt lat="45.93998" lon="4.78056">
        <ele>195</ele>
        <time>2018-06-29T08:27:22Z</time>
      </trkpt>
      <trkpt lat="45.93996" lon="4.78065">
        <ele>196</ele>
        <time>2018-06-29T08:27:24Z</time>
      </trkpt>
      <trkpt lat="45.93995" lon="4.78069">
        <ele>196</ele>
        <time>2018-06-29T08:27:25Z</time>
      </trkpt>
      <trkpt lat="45.93994" lon="4.78077">
        <ele>197</ele>
        <time>2018-06-29T08:27:27Z</time>
      </trkpt>
      <trkpt lat="45.93994" lon="4.78082">
        <ele>198</ele>
        <time>2018-06-29T08:27:28Z</time>
      </trkpt>
      <trkpt lat="45.93993" lon="4.78091">
        <ele>198</ele>
        <time>2018-06-29T08:27:30Z</time>
      </trkpt>
      <trkpt lat="45.93992" lon="4.78096">
        <ele>198</ele>
        <time>2018-06-29T08:27:31Z</time>
      </trkpt>
      <trkpt lat="45.93991" lon="4.78106">
        <ele>197</ele>
        <time>2018-06-29T08:27:33Z</time>
      </trkpt>
      <trkpt lat="45.9399" lon="4.78111">
        <ele>197</ele>
        <time>2018-06-29T08:27:34Z</time>
      </trkpt>
      <trkpt lat="45.93988" lon="4.78121">
        <ele>197</ele>
        <time>2018-06-29T08:27:36Z</time>
      </trkpt>
      <trkpt lat="45.93985" lon="4.78135">
        <ele>197</ele>
        <time>2018-06-29T08:27:37Z</time>
      </trkpt>
      <trkpt lat="45.93984" lon="4.78146">
        <ele>198</ele>
        <time>2018-06-29T08:27:39Z</time>
      </trkpt>
      <trkpt lat="45.93984" lon="4.78148">
        <ele>198</ele>
        <time>2018-06-29T08:27:40Z</time>
      </trkpt>
      <trkpt lat="45.93988" lon="4.78157">
        <ele>199</ele>
        <time>2018-06-29T08:27:43Z</time>
      </trkpt>
      <trkpt lat="45.93991" lon="4.78159">
        <ele>199</ele>
        <time>2018-06-29T08:27:44Z</time>
      </trkpt>
      <trkpt lat="45.93998" lon="4.78165">
        <ele>200</ele>
        <time>2018-06-29T08:27:47Z</time>
      </trkpt>
      <trkpt lat="45.94001" lon="4.78166">
        <ele>201</ele>
        <time>2018-06-29T08:27:48Z</time>
      </trkpt>
      <trkpt lat="45.94008" lon="4.78171">
        <ele>202</ele>
        <time>2018-06-29T08:27:51Z</time>
      </trkpt>
      <trkpt lat="45.9401" lon="4.78173">
        <ele>202</ele>
        <time>2018-06-29T08:27:52Z</time>
      </trkpt>
      <trkpt lat="45.94018" lon="4.78177">
        <ele>203</ele>
        <time>2018-06-29T08:27:56Z</time>
      </trkpt>
      <trkpt lat="45.9402" lon="4.78178">
        <ele>203</ele>
        <time>2018-06-29T08:27:57Z</time>
      </trkpt>
      <trkpt lat="45.94027" lon="4.78183">
        <ele>204</ele>
        <time>2018-06-29T08:28:00Z</time>
      </trkpt>
      <trkpt lat="45.9403" lon="4.78184">
        <ele>204</ele>
        <time>2018-06-29T08:28:01Z</time>
      </trkpt>
      <trkpt lat="45.94038" lon="4.78188">
        <ele>205</ele>
        <time>2018-06-29T08:28:05Z</time>
      </trkpt>
      <trkpt lat="45.94039" lon="4.78189">
        <ele>205</ele>
        <time>2018-06-29T08:28:06Z</time>
      </trkpt>
      <trkpt lat="45.94046" lon="4.78193">
        <ele>205</ele>
        <time>2018-06-29T08:28:09Z</time>
      </trkpt>
      <trkpt lat="45.94049" lon="4.78194">
        <ele>205</ele>
        <time>2018-06-29T08:28:10Z</time>
      </trkpt>
      <trkpt lat="45.94057" lon="4.782">
        <ele>206</ele>
        <time>2018-06-29T08:28:13Z</time>
      </trkpt>
      <trkpt lat="45.94059" lon="4.78202">
        <ele>206</ele>
        <time>2018-06-29T08:28:14Z</time>
      </trkpt>
      <trkpt lat="45.94064" lon="4.78209">
        <ele>206</ele>
        <time>2018-06-29T08:28:17Z</time>
      </trkpt>
      <trkpt lat="45.94066" lon="4.78211">
        <ele>206</ele>
        <time>2018-06-29T08:28:18Z</time>
      </trkpt>
      <trkpt lat="45.94071" lon="4.78218">
        <ele>206</ele>
        <time>2018-06-29T08:28:21Z</time>
      </trkpt>
      <trkpt lat="45.94073" lon="4.78219">
        <ele>206</ele>
        <time>2018-06-29T08:28:22Z</time>
      </trkpt>
      <trkpt lat="45.9408" lon="4.78224">
        <ele>206</ele>
        <time>2018-06-29T08:28:25Z</time>
      </trkpt>
      <trkpt lat="45.94082" lon="4.78225">
        <ele>206</ele>
        <time>2018-06-29T08:28:26Z</time>
      </trkpt>
      <trkpt lat="45.94088" lon="4.7823">
        <ele>212</ele>
        <time>2018-06-29T08:28:29Z</time>
      </trkpt>
      <trkpt lat="45.9409" lon="4.78231">
        <ele>212</ele>
        <time>2018-06-29T08:28:30Z</time>
      </trkpt>
      <trkpt lat="45.94096" lon="4.78236">
        <ele>212</ele>
        <time>2018-06-29T08:28:33Z</time>
      </trkpt>
      <trkpt lat="45.94099" lon="4.78238">
        <ele>212</ele>
        <time>2018-06-29T08:28:34Z</time>
      </trkpt>
      <trkpt lat="45.94106" lon="4.78243">
        <ele>213</ele>
        <time>2018-06-29T08:28:37Z</time>
      </trkpt>
      <trkpt lat="45.94109" lon="4.78244">
        <ele>213</ele>
        <time>2018-06-29T08:28:38Z</time>
      </trkpt>
      <trkpt lat="45.94115" lon="4.7825">
        <ele>214</ele>
        <time>2018-06-29T08:28:41Z</time>
      </trkpt>
      <trkpt lat="45.94117" lon="4.78252">
        <ele>213</ele>
        <time>2018-06-29T08:28:42Z</time>
      </trkpt>
      <trkpt lat="45.94124" lon="4.78258">
        <ele>214</ele>
        <time>2018-06-29T08:28:46Z</time>
      </trkpt>
      <trkpt lat="45.94126" lon="4.78259">
        <ele>214</ele>
        <time>2018-06-29T08:28:47Z</time>
      </trkpt>
      <trkpt lat="45.94133" lon="4.78263">
        <ele>214</ele>
        <time>2018-06-29T08:28:50Z</time>
      </trkpt>
      <trkpt lat="45.94135" lon="4.78264">
        <ele>215</ele>
        <time>2018-06-29T08:28:51Z</time>
      </trkpt>
      <trkpt lat="45.94143" lon="4.78268">
        <ele>215</ele>
        <time>2018-06-29T08:28:54Z</time>
      </trkpt>
      <trkpt lat="45.94145" lon="4.78269">
        <ele>215</ele>
        <time>2018-06-29T08:28:55Z</time>
      </trkpt>
      <trkpt lat="45.94152" lon="4.78273">
        <ele>216</ele>
        <time>2018-06-29T08:28:58Z</time>
      </trkpt>
      <trkpt lat="45.94155" lon="4.78274">
        <ele>216</ele>
        <time>2018-06-29T08:28:59Z</time>
      </trkpt>
      <trkpt lat="45.94161" lon="4.78279">
        <ele>216</ele>
        <time>2018-06-29T08:29:02Z</time>
      </trkpt>
      <trkpt lat="45.94163" lon="4.78281">
        <ele>216</ele>
        <time>2018-06-29T08:29:03Z</time>
      </trkpt>
      <trkpt lat="45.94169" lon="4.78286">
        <ele>220</ele>
        <time>2018-06-29T08:29:05Z</time>
      </trkpt>
      <trkpt lat="45.94171" lon="4.78287">
        <ele>220</ele>
        <time>2018-06-29T08:29:06Z</time>
      </trkpt>
      <trkpt lat="45.94179" lon="4.78292">
        <ele>221</ele>
        <time>2018-06-29T08:29:08Z</time>
      </trkpt>
      <trkpt lat="45.94182" lon="4.78293">
        <ele>221</ele>
        <time>2018-06-29T08:29:09Z</time>
      </trkpt>
      <trkpt lat="45.94189" lon="4.78296">
        <ele>221</ele>
        <time>2018-06-29T08:29:12Z</time>
      </trkpt>
      <trkpt lat="45.94192" lon="4.78297">
        <ele>221</ele>
        <time>2018-06-29T08:29:13Z</time>
      </trkpt>
      <trkpt lat="45.942" lon="4.78298">
        <ele>221</ele>
        <time>2018-06-29T08:29:16Z</time>
      </trkpt>
      <trkpt lat="45.94203" lon="4.78298">
        <ele>221</ele>
        <time>2018-06-29T08:29:17Z</time>
      </trkpt>
      <trkpt lat="45.94211" lon="4.78299">
        <ele>221</ele>
        <time>2018-06-29T08:29:20Z</time>
      </trkpt>
      <trkpt lat="45.94213" lon="4.78299">
        <ele>221</ele>
        <time>2018-06-29T08:29:21Z</time>
      </trkpt>
      <trkpt lat="45.94221" lon="4.783">
        <ele>222</ele>
        <time>2018-06-29T08:29:24Z</time>
      </trkpt>
      <trkpt lat="45.94224" lon="4.783">
        <ele>222</ele>
        <time>2018-06-29T08:29:25Z</time>
      </trkpt>
      <trkpt lat="45.94232" lon="4.78302">
        <ele>222</ele>
        <time>2018-06-29T08:29:28Z</time>
      </trkpt>
      <trkpt lat="45.94235" lon="4.78302">
        <ele>222</ele>
        <time>2018-06-29T08:29:29Z</time>
      </trkpt>
      <trkpt lat="45.94243" lon="4.78305">
        <ele>222</ele>
        <time>2018-06-29T08:29:32Z</time>
      </trkpt>
      <trkpt lat="45.94246" lon="4.78306">
        <ele>222</ele>
        <time>2018-06-29T08:29:33Z</time>
      </trkpt>
      <trkpt lat="45.94254" lon="4.7831">
        <ele>226</ele>
        <time>2018-06-29T08:29:36Z</time>
      </trkpt>
      <trkpt lat="45.94256" lon="4.78311">
        <ele>226</ele>
        <time>2018-06-29T08:29:37Z</time>
      </trkpt>
      <trkpt lat="45.94259" lon="4.78312">
        <ele>226</ele>
        <time>2018-06-29T08:29:38Z</time>
      </trkpt>
      <trkpt lat="45.94266" lon="4.78316">
        <ele>226</ele>
        <time>2018-06-29T08:29:39Z</time>
      </trkpt>
      <trkpt lat="45.94274" lon="4.78322">
        <ele>227</ele>
        <time>2018-06-29T08:29:43Z</time>
      </trkpt>
      <trkpt lat="45.94276" lon="4.78324">
        <ele>227</ele>
        <time>2018-06-29T08:29:44Z</time>
      </trkpt>
      <trkpt lat="45.94284" lon="4.7833">
        <ele>228</ele>
        <time>2018-06-29T08:29:47Z</time>
      </trkpt>
      <trkpt lat="45.94286" lon="4.78332">
        <ele>228</ele>
        <time>2018-06-29T08:29:48Z</time>
      </trkpt>
      <trkpt lat="45.94293" lon="4.78339">
        <ele>228</ele>
        <time>2018-06-29T08:29:51Z</time>
      </trkpt>
      <trkpt lat="45.94295" lon="4.78342">
        <ele>228</ele>
        <time>2018-06-29T08:29:52Z</time>
      </trkpt>
      <trkpt lat="45.943" lon="4.78347">
        <ele>229</ele>
        <time>2018-06-29T08:29:54Z</time>
      </trkpt>
      <trkpt lat="45.94302" lon="4.7835">
        <ele>229</ele>
        <time>2018-06-29T08:29:55Z</time>
      </trkpt>
      <trkpt lat="45.94307" lon="4.78359">
        <ele>229</ele>
        <time>2018-06-29T08:29:58Z</time>
      </trkpt>
      <trkpt lat="45.94308" lon="4.78363">
        <ele>229</ele>
        <time>2018-06-29T08:29:59Z</time>
      </trkpt>
      <trkpt lat="45.94312" lon="4.78373">
        <ele>229</ele>
        <time>2018-06-29T08:30:02Z</time>
      </trkpt>
      <trkpt lat="45.94313" lon="4.78376">
        <ele>230</ele>
        <time>2018-06-29T08:30:03Z</time>
      </trkpt>
      <trkpt lat="45.94317" lon="4.78386">
        <ele>230</ele>
        <time>2018-06-29T08:30:06Z</time>
      </trkpt>
      <trkpt lat="45.94319" lon="4.78389">
        <ele>230</ele>
        <time>2018-06-29T08:30:07Z</time>
      </trkpt>
      <trkpt lat="45.94323" lon="4.784">
        <ele>230</ele>
        <time>2018-06-29T08:30:10Z</time>
      </trkpt>
      <trkpt lat="45.94324" lon="4.78404">
        <ele>230</ele>
        <time>2018-06-29T08:30:11Z</time>
      </trkpt>
      <trkpt lat="45.94328" lon="4.78414">
        <ele>229</ele>
        <time>2018-06-29T08:30:14Z</time>
      </trkpt>
      <trkpt lat="45.94329" lon="4.78417">
        <ele>231</ele>
        <time>2018-06-29T08:30:15Z</time>
      </trkpt>
      <trkpt lat="45.94333" lon="4.78426">
        <ele>233</ele>
        <time>2018-06-29T08:30:18Z</time>
      </trkpt>
      <trkpt lat="45.94334" lon="4.78429">
        <ele>232</ele>
        <time>2018-06-29T08:30:19Z</time>
      </trkpt>
      <trkpt lat="45.94338" lon="4.78437">
        <ele>233</ele>
        <time>2018-06-29T08:30:22Z</time>
      </trkpt>
      <trkpt lat="45.94339" lon="4.7844">
        <ele>234</ele>
        <time>2018-06-29T08:30:23Z</time>
      </trkpt>
      <trkpt lat="45.94345" lon="4.78448">
        <ele>235</ele>
        <time>2018-06-29T08:30:26Z</time>
      </trkpt>
      <trkpt lat="45.94346" lon="4.78451">
        <ele>235</ele>
        <time>2018-06-29T08:30:27Z</time>
      </trkpt>
      <trkpt lat="45.94352" lon="4.78459">
        <ele>235</ele>
        <time>2018-06-29T08:30:30Z</time>
      </trkpt>
      <trkpt lat="45.94354" lon="4.78462">
        <ele>236</ele>
        <time>2018-06-29T08:30:31Z</time>
      </trkpt>
      <trkpt lat="45.94358" lon="4.78468">
        <ele>236</ele>
        <time>2018-06-29T08:30:33Z</time>
      </trkpt>
      <trkpt lat="45.94361" lon="4.78471">
        <ele>236</ele>
        <time>2018-06-29T08:30:34Z</time>
      </trkpt>
      <trkpt lat="45.94366" lon="4.78477">
        <ele>236</ele>
        <time>2018-06-29T08:30:36Z</time>
      </trkpt>
      <trkpt lat="45.94368" lon="4.7848">
        <ele>236</ele>
        <time>2018-06-29T08:30:37Z</time>
      </trkpt>
      <trkpt lat="45.94375" lon="4.78486">
        <ele>236</ele>
        <time>2018-06-29T08:30:40Z</time>
      </trkpt>
      <trkpt lat="45.94377" lon="4.78489">
        <ele>236</ele>
        <time>2018-06-29T08:30:41Z</time>
      </trkpt>
      <trkpt lat="45.94382" lon="4.78494">
        <ele>236</ele>
        <time>2018-06-29T08:30:43Z</time>
      </trkpt>
      <trkpt lat="45.94385" lon="4.78496">
        <ele>236</ele>
        <time>2018-06-29T08:30:44Z</time>
      </trkpt>
      <trkpt lat="45.94392" lon="4.78504">
        <ele>237</ele>
        <time>2018-06-29T08:30:47Z</time>
      </trkpt>
      <trkpt lat="45.94394" lon="4.78507">
        <ele>237</ele>
        <time>2018-06-29T08:30:48Z</time>
      </trkpt>
      <trkpt lat="45.944" lon="4.78514">
        <ele>237</ele>
        <time>2018-06-29T08:30:51Z</time>
      </trkpt>
      <trkpt lat="45.94401" lon="4.78516">
        <ele>237</ele>
        <time>2018-06-29T08:30:52Z</time>
      </trkpt>
      <trkpt lat="45.94407" lon="4.78523">
        <ele>237</ele>
        <time>2018-06-29T08:30:55Z</time>
      </trkpt>
      <trkpt lat="45.94409" lon="4.78525">
        <ele>237</ele>
        <time>2018-06-29T08:30:56Z</time>
      </trkpt>
      <trkpt lat="45.94415" lon="4.78531">
        <ele>237</ele>
        <time>2018-06-29T08:30:59Z</time>
      </trkpt>
      <trkpt lat="45.94416" lon="4.78533">
        <ele>237</ele>
        <time>2018-06-29T08:31:00Z</time>
      </trkpt>
      <trkpt lat="45.94422" lon="4.78542">
        <ele>238</ele>
        <time>2018-06-29T08:31:03Z</time>
      </trkpt>
      <trkpt lat="45.94423" lon="4.78544">
        <ele>238</ele>
        <time>2018-06-29T08:31:04Z</time>
      </trkpt>
      <trkpt lat="45.94428" lon="4.78552">
        <ele>238</ele>
        <time>2018-06-29T08:31:07Z</time>
      </trkpt>
      <trkpt lat="45.9443" lon="4.78554">
        <ele>239</ele>
        <time>2018-06-29T08:31:08Z</time>
      </trkpt>
      <trkpt lat="45.94436" lon="4.78563">
        <ele>239</ele>
        <time>2018-06-29T08:31:11Z</time>
      </trkpt>
      <trkpt lat="45.94438" lon="4.78566">
        <ele>239</ele>
        <time>2018-06-29T08:31:12Z</time>
      </trkpt>
      <trkpt lat="45.94443" lon="4.78575">
        <ele>239</ele>
        <time>2018-06-29T08:31:15Z</time>
      </trkpt>
      <trkpt lat="45.94445" lon="4.78578">
        <ele>239</ele>
        <time>2018-06-29T08:31:16Z</time>
      </trkpt>
      <trkpt lat="45.9445" lon="4.78586">
        <ele>240</ele>
        <time>2018-06-29T08:31:19Z</time>
      </trkpt>
      <trkpt lat="45.94451" lon="4.78589">
        <ele>240</ele>
        <time>2018-06-29T08:31:20Z</time>
      </trkpt>
      <trkpt lat="45.94456" lon="4.78599">
        <ele>240</ele>
        <time>2018-06-29T08:31:23Z</time>
      </trkpt>
      <trkpt lat="45.94458" lon="4.78603">
        <ele>240</ele>
        <time>2018-06-29T08:31:24Z</time>
      </trkpt>
      <trkpt lat="45.9446" lon="4.78613">
        <ele>241</ele>
        <time>2018-06-29T08:31:27Z</time>
      </trkpt>
      <trkpt lat="45.94461" lon="4.78617">
        <ele>241</ele>
        <time>2018-06-29T08:31:28Z</time>
      </trkpt>
      <trkpt lat="45.94463" lon="4.78626">
        <ele>241</ele>
        <time>2018-06-29T08:31:31Z</time>
      </trkpt>
      <trkpt lat="45.94464" lon="4.7863">
        <ele>241</ele>
        <time>2018-06-29T08:31:32Z</time>
      </trkpt>
      <trkpt lat="45.94466" lon="4.78639">
        <ele>241</ele>
        <time>2018-06-29T08:31:35Z</time>
      </trkpt>
      <trkpt lat="45.94467" lon="4.78643">
        <ele>241</ele>
        <time>2018-06-29T08:31:36Z</time>
      </trkpt>
      <trkpt lat="45.94469" lon="4.78652">
        <ele>241</ele>
        <time>2018-06-29T08:31:39Z</time>
      </trkpt>
      <trkpt lat="45.9447" lon="4.78655">
        <ele>241</ele>
        <time>2018-06-29T08:31:40Z</time>
      </trkpt>
      <trkpt lat="45.94471" lon="4.78666">
        <ele>241</ele>
        <time>2018-06-29T08:31:43Z</time>
      </trkpt>
      <trkpt lat="45.94471" lon="4.78669">
        <ele>244</ele>
        <time>2018-06-29T08:31:44Z</time>
      </trkpt>
      <trkpt lat="45.94473" lon="4.78678">
        <ele>244</ele>
        <time>2018-06-29T08:31:47Z</time>
      </trkpt>
      <trkpt lat="45.94473" lon="4.78682">
        <ele>244</ele>
        <time>2018-06-29T08:31:48Z</time>
      </trkpt>
      <trkpt lat="45.94475" lon="4.78692">
        <ele>244</ele>
        <time>2018-06-29T08:31:51Z</time>
      </trkpt>
      <trkpt lat="45.94476" lon="4.78695">
        <ele>244</ele>
        <time>2018-06-29T08:31:52Z</time>
      </trkpt>
      <trkpt lat="45.94478" lon="4.78707">
        <ele>245</ele>
        <time>2018-06-29T08:31:56Z</time>
      </trkpt>
      <trkpt lat="45.94479" lon="4.78711">
        <ele>245</ele>
        <time>2018-06-29T08:31:57Z</time>
      </trkpt>
      <trkpt lat="45.94479" lon="4.78721">
        <ele>245</ele>
        <time>2018-06-29T08:32:00Z</time>
      </trkpt>
      <trkpt lat="45.94479" lon="4.78724">
        <ele>246</ele>
        <time>2018-06-29T08:32:01Z</time>
      </trkpt>
      <trkpt lat="45.94481" lon="4.78736">
        <ele>246</ele>
        <time>2018-06-29T08:32:05Z</time>
      </trkpt>
      <trkpt lat="45.94481" lon="4.78738">
        <ele>246</ele>
        <time>2018-06-29T08:32:06Z</time>
      </trkpt>
      <trkpt lat="45.94481" lon="4.78749">
        <ele>246</ele>
        <time>2018-06-29T08:32:10Z</time>
      </trkpt>
      <trkpt lat="45.9448" lon="4.78752">
        <ele>249</ele>
        <time>2018-06-29T08:32:11Z</time>
      </trkpt>
      <trkpt lat="45.94479" lon="4.78763">
        <ele>249</ele>
        <time>2018-06-29T08:32:15Z</time>
      </trkpt>
      <trkpt lat="45.94478" lon="4.78766">
        <ele>249</ele>
        <time>2018-06-29T08:32:16Z</time>
      </trkpt>
      <trkpt lat="45.94475" lon="4.78777">
        <ele>250</ele>
        <time>2018-06-29T08:32:21Z</time>
      </trkpt>
      <trkpt lat="45.94474" lon="4.78779">
        <ele>250</ele>
        <time>2018-06-29T08:32:22Z</time>
      </trkpt>
      <trkpt lat="45.94469" lon="4.78789">
        <ele>250</ele>
        <time>2018-06-29T08:32:26Z</time>
      </trkpt>
      <trkpt lat="45.94468" lon="4.78792">
        <ele>250</ele>
        <time>2018-06-29T08:32:27Z</time>
      </trkpt>
      <trkpt lat="45.94465" lon="4.78803">
        <ele>251</ele>
        <time>2018-06-29T08:32:31Z</time>
      </trkpt>
      <trkpt lat="45.94464" lon="4.78806">
        <ele>251</ele>
        <time>2018-06-29T08:32:32Z</time>
      </trkpt>
      <trkpt lat="45.94461" lon="4.78818">
        <ele>251</ele>
        <time>2018-06-29T08:32:37Z</time>
      </trkpt>
      <trkpt lat="45.94461" lon="4.7882">
        <ele>251</ele>
        <time>2018-06-29T08:32:38Z</time>
      </trkpt>
      <trkpt lat="45.94459" lon="4.7883">
        <ele>251</ele>
        <time>2018-06-29T08:32:41Z</time>
      </trkpt>
      <trkpt lat="45.94458" lon="4.78833">
        <ele>251</ele>
        <time>2018-06-29T08:32:42Z</time>
      </trkpt>
      <trkpt lat="45.94457" lon="4.78844">
        <ele>253</ele>
        <time>2018-06-29T08:32:46Z</time>
      </trkpt>
      <trkpt lat="45.94457" lon="4.78846">
        <ele>253</ele>
        <time>2018-06-29T08:32:47Z</time>
      </trkpt>
      <trkpt lat="45.94456" lon="4.78858">
        <ele>253</ele>
        <time>2018-06-29T08:32:51Z</time>
      </trkpt>
      <trkpt lat="45.94456" lon="4.78861">
        <ele>253</ele>
        <time>2018-06-29T08:32:52Z</time>
      </trkpt>
      <trkpt lat="45.94455" lon="4.78872">
        <ele>253</ele>
        <time>2018-06-29T08:32:55Z</time>
      </trkpt>
      <trkpt lat="45.94455" lon="4.78877">
        <ele>253</ele>
        <time>2018-06-29T08:32:56Z</time>
      </trkpt>
      <trkpt lat="45.94456" lon="4.78888">
        <ele>253</ele>
        <time>2018-06-29T08:32:59Z</time>
      </trkpt>
      <trkpt lat="45.94456" lon="4.78891">
        <ele>253</ele>
        <time>2018-06-29T08:33:00Z</time>
      </trkpt>
      <trkpt lat="45.94456" lon="4.78903">
        <ele>253</ele>
        <time>2018-06-29T08:33:04Z</time>
      </trkpt>
      <trkpt lat="45.94456" lon="4.78905">
        <ele>253</ele>
        <time>2018-06-29T08:33:05Z</time>
      </trkpt>
      <trkpt lat="45.94457" lon="4.78917">
        <ele>253</ele>
        <time>2018-06-29T08:33:09Z</time>
      </trkpt>
      <trkpt lat="45.94457" lon="4.7892">
        <ele>254</ele>
        <time>2018-06-29T08:33:10Z</time>
      </trkpt>
      <trkpt lat="45.94459" lon="4.78929">
        <ele>254</ele>
        <time>2018-06-29T08:33:13Z</time>
      </trkpt>
      <trkpt lat="45.9446" lon="4.78933">
        <ele>254</ele>
        <time>2018-06-29T08:33:14Z</time>
      </trkpt>
      <trkpt lat="45.94463" lon="4.78941">
        <ele>254</ele>
        <time>2018-06-29T08:33:17Z</time>
      </trkpt>
      <trkpt lat="45.94464" lon="4.78944">
        <ele>254</ele>
        <time>2018-06-29T08:33:18Z</time>
      </trkpt>
      <trkpt lat="45.94468" lon="4.78955">
        <ele>254</ele>
        <time>2018-06-29T08:33:22Z</time>
      </trkpt>
      <trkpt lat="45.94469" lon="4.78957">
        <ele>254</ele>
        <time>2018-06-29T08:33:23Z</time>
      </trkpt>
      <trkpt lat="45.94475" lon="4.78966">
        <ele>254</ele>
        <time>2018-06-29T08:33:27Z</time>
      </trkpt>
      <trkpt lat="45.94476" lon="4.78969">
        <ele>254</ele>
        <time>2018-06-29T08:33:28Z</time>
      </trkpt>
      <trkpt lat="45.94481" lon="4.78978">
        <ele>254</ele>
        <time>2018-06-29T08:33:31Z</time>
      </trkpt>
      <trkpt lat="45.94483" lon="4.78981">
        <ele>254</ele>
        <time>2018-06-29T08:33:32Z</time>
      </trkpt>
      <trkpt lat="45.94488" lon="4.7899">
        <ele>254</ele>
        <time>2018-06-29T08:33:35Z</time>
      </trkpt>
      <trkpt lat="45.9449" lon="4.78993">
        <ele>254</ele>
        <time>2018-06-29T08:33:36Z</time>
      </trkpt>
      <trkpt lat="45.94494" lon="4.79003">
        <ele>254</ele>
        <time>2018-06-29T08:33:39Z</time>
      </trkpt>
      <trkpt lat="45.94495" lon="4.79007">
        <ele>254</ele>
        <time>2018-06-29T08:33:40Z</time>
      </trkpt>
      <trkpt lat="45.94499" lon="4.79017">
        <ele>254</ele>
        <time>2018-06-29T08:33:43Z</time>
      </trkpt>
      <trkpt lat="45.945" lon="4.7902">
        <ele>255</ele>
        <time>2018-06-29T08:33:44Z</time>
      </trkpt>
      <trkpt lat="45.94505" lon="4.7903">
        <ele>255</ele>
        <time>2018-06-29T08:33:47Z</time>
      </trkpt>
      <trkpt lat="45.9451" lon="4.79041">
        <ele>255</ele>
        <time>2018-06-29T08:33:48Z</time>
      </trkpt>
      <trkpt lat="45.94514" lon="4.7905">
        <ele>255</ele>
        <time>2018-06-29T08:33:52Z</time>
      </trkpt>
      <trkpt lat="45.94515" lon="4.79053">
        <ele>255</ele>
        <time>2018-06-29T08:33:53Z</time>
      </trkpt>
      <trkpt lat="45.94521" lon="4.79061">
        <ele>255</ele>
        <time>2018-06-29T08:33:56Z</time>
      </trkpt>
      <trkpt lat="45.94523" lon="4.79065">
        <ele>255</ele>
        <time>2018-06-29T08:33:57Z</time>
      </trkpt>
      <trkpt lat="45.94527" lon="4.79071">
        <ele>255</ele>
        <time>2018-06-29T08:33:59Z</time>
      </trkpt>
      <trkpt lat="45.94529" lon="4.79075">
        <ele>255</ele>
        <time>2018-06-29T08:34:00Z</time>
      </trkpt>
      <trkpt lat="45.94536" lon="4.79086">
        <ele>256</ele>
        <time>2018-06-29T08:34:01Z</time>
      </trkpt>
      <trkpt lat="45.94539" lon="4.7909">
        <ele>256</ele>
        <time>2018-06-29T08:34:02Z</time>
      </trkpt>
      <trkpt lat="45.94542" lon="4.79096">
        <ele>256</ele>
        <time>2018-06-29T08:34:03Z</time>
      </trkpt>
      <trkpt lat="45.94547" lon="4.79106">
        <ele>256</ele>
        <time>2018-06-29T08:34:05Z</time>
      </trkpt>
      <trkpt lat="45.94549" lon="4.79111">
        <ele>256</ele>
        <time>2018-06-29T08:34:06Z</time>
      </trkpt>
      <trkpt lat="45.94552" lon="4.79117">
        <ele>256</ele>
        <time>2018-06-29T08:34:07Z</time>
      </trkpt>
      <trkpt lat="45.94554" lon="4.79124">
        <ele>257</ele>
        <time>2018-06-29T08:34:08Z</time>
      </trkpt>
      <trkpt lat="45.94557" lon="4.79129">
        <ele>257</ele>
        <time>2018-06-29T08:34:09Z</time>
      </trkpt>
      <trkpt lat="45.9456" lon="4.79135">
        <ele>257</ele>
        <time>2018-06-29T08:34:10Z</time>
      </trkpt>
      <trkpt lat="45.94566" lon="4.79144">
        <ele>257</ele>
        <time>2018-06-29T08:34:12Z</time>
      </trkpt>
      <trkpt lat="45.94569" lon="4.79149">
        <ele>257</ele>
        <time>2018-06-29T08:34:13Z</time>
      </trkpt>
      <trkpt lat="45.94573" lon="4.7916">
        <ele>258</ele>
        <time>2018-06-29T08:34:15Z</time>
      </trkpt>
      <trkpt lat="45.94575" lon="4.79165">
        <ele>258</ele>
        <time>2018-06-29T08:34:16Z</time>
      </trkpt>
      <trkpt lat="45.94579" lon="4.79169">
        <ele>258</ele>
        <time>2018-06-29T08:34:18Z</time>
      </trkpt>
      <trkpt lat="45.94583" lon="4.79174">
        <ele>258</ele>
        <time>2018-06-29T08:34:19Z</time>
      </trkpt>
      <trkpt lat="45.94586" lon="4.79178">
        <ele>258</ele>
        <time>2018-06-29T08:34:20Z</time>
      </trkpt>
      <trkpt lat="45.94586" lon="4.79187">
        <ele>258</ele>
        <time>2018-06-29T08:34:21Z</time>
      </trkpt>
      <trkpt lat="45.94591" lon="4.79196">
        <ele>257</ele>
        <time>2018-06-29T08:34:23Z</time>
      </trkpt>
      <trkpt lat="45.94593" lon="4.79201">
        <ele>257</ele>
        <time>2018-06-29T08:34:24Z</time>
      </trkpt>
      <trkpt lat="45.94596" lon="4.79206">
        <ele>257</ele>
        <time>2018-06-29T08:34:25Z</time>
      </trkpt>
      <trkpt lat="45.94598" lon="4.79215">
        <ele>257</ele>
        <time>2018-06-29T08:34:26Z</time>
      </trkpt>
      <trkpt lat="45.94601" lon="4.79219">
        <ele>256</ele>
        <time>2018-06-29T08:34:27Z</time>
      </trkpt>
      <trkpt lat="45.94605" lon="4.79224">
        <ele>256</ele>
        <time>2018-06-29T08:34:28Z</time>
      </trkpt>
      <trkpt lat="45.94607" lon="4.79231">
        <ele>256</ele>
        <time>2018-06-29T08:34:29Z</time>
      </trkpt>
      <trkpt lat="45.94609" lon="4.79238">
        <ele>256</ele>
        <time>2018-06-29T08:34:30Z</time>
      </trkpt>
      <trkpt lat="45.94614" lon="4.79247">
        <ele>256</ele>
        <time>2018-06-29T08:34:33Z</time>
      </trkpt>
      <trkpt lat="45.94616" lon="4.79249">
        <ele>256</ele>
        <time>2018-06-29T08:34:34Z</time>
      </trkpt>
      <trkpt lat="45.94622" lon="4.79258">
        <ele>255</ele>
        <time>2018-06-29T08:34:35Z</time>
      </trkpt>
      <trkpt lat="45.94625" lon="4.79262">
        <ele>254</ele>
        <time>2018-06-29T08:34:36Z</time>
      </trkpt>
      <trkpt lat="45.9463" lon="4.79271">
        <ele>254</ele>
        <time>2018-06-29T08:34:38Z</time>
      </trkpt>
      <trkpt lat="45.94632" lon="4.79275">
        <ele>254</ele>
        <time>2018-06-29T08:34:39Z</time>
      </trkpt>
      <trkpt lat="45.94637" lon="4.79284">
        <ele>254</ele>
        <time>2018-06-29T08:34:41Z</time>
      </trkpt>
      <trkpt lat="45.9464" lon="4.7929">
        <ele>254</ele>
        <time>2018-06-29T08:34:42Z</time>
      </trkpt>
      <trkpt lat="45.94642" lon="4.79295">
        <ele>254</ele>
        <time>2018-06-29T08:34:43Z</time>
      </trkpt>
      <trkpt lat="45.94645" lon="4.79301">
        <ele>254</ele>
        <time>2018-06-29T08:34:44Z</time>
      </trkpt>
      <trkpt lat="45.9465" lon="4.79311">
        <ele>254</ele>
        <time>2018-06-29T08:34:46Z</time>
      </trkpt>
      <trkpt lat="45.94651" lon="4.79316">
        <ele>254</ele>
        <time>2018-06-29T08:34:47Z</time>
      </trkpt>
      <trkpt lat="45.94656" lon="4.79324">
        <ele>254</ele>
        <time>2018-06-29T08:34:49Z</time>
      </trkpt>
      <trkpt lat="45.94659" lon="4.79328">
        <ele>254</ele>
        <time>2018-06-29T08:34:50Z</time>
      </trkpt>
      <trkpt lat="45.94664" lon="4.79338">
        <ele>254</ele>
        <time>2018-06-29T08:34:52Z</time>
      </trkpt>
      <trkpt lat="45.94666" lon="4.79343">
        <ele>254</ele>
        <time>2018-06-29T08:34:53Z</time>
      </trkpt>
      <trkpt lat="45.9467" lon="4.79353">
        <ele>253</ele>
        <time>2018-06-29T08:34:55Z</time>
      </trkpt>
      <trkpt lat="45.94672" lon="4.79358">
        <ele>253</ele>
        <time>2018-06-29T08:34:56Z</time>
      </trkpt>
      <trkpt lat="45.94677" lon="4.79368">
        <ele>253</ele>
        <time>2018-06-29T08:34:58Z</time>
      </trkpt>
      <trkpt lat="45.94679" lon="4.79373">
        <ele>253</ele>
        <time>2018-06-29T08:34:59Z</time>
      </trkpt>
      <trkpt lat="45.94684" lon="4.79382">
        <ele>253</ele>
        <time>2018-06-29T08:35:01Z</time>
      </trkpt>
      <trkpt lat="45.94686" lon="4.79387">
        <ele>253</ele>
        <time>2018-06-29T08:35:02Z</time>
      </trkpt>
      <trkpt lat="45.94691" lon="4.79396">
        <ele>253</ele>
        <time>2018-06-29T08:35:04Z</time>
      </trkpt>
      <trkpt lat="45.94693" lon="4.79401">
        <ele>253</ele>
        <time>2018-06-29T08:35:05Z</time>
      </trkpt>
      <trkpt lat="45.94697" lon="4.79406">
        <ele>253</ele>
        <time>2018-06-29T08:35:06Z</time>
      </trkpt>
      <trkpt lat="45.94701" lon="4.79412">
        <ele>253</ele>
        <time>2018-06-29T08:35:07Z</time>
      </trkpt>
      <trkpt lat="45.94704" lon="4.79417">
        <ele>253</ele>
        <time>2018-06-29T08:35:08Z</time>
      </trkpt>
      <trkpt lat="45.94706" lon="4.79422">
        <ele>253</ele>
        <time>2018-06-29T08:35:09Z</time>
      </trkpt>
      <trkpt lat="45.94709" lon="4.79429">
        <ele>253</ele>
        <time>2018-06-29T08:35:10Z</time>
      </trkpt>
      <trkpt lat="45.94712" lon="4.79435">
        <ele>253</ele>
        <time>2018-06-29T08:35:11Z</time>
      </trkpt>
      <trkpt lat="45.94715" lon="4.79439">
        <ele>253</ele>
        <time>2018-06-29T08:35:12Z</time>
      </trkpt>
      <trkpt lat="45.94719" lon="4.79446">
        <ele>253</ele>
        <time>2018-06-29T08:35:13Z</time>
      </trkpt>
      <trkpt lat="45.94721" lon="4.79452">
        <ele>253</ele>
        <time>2018-06-29T08:35:14Z</time>
      </trkpt>
      <trkpt lat="45.94724" lon="4.79459">
        <ele>253</ele>
        <time>2018-06-29T08:35:15Z</time>
      </trkpt>
      <trkpt lat="45.94727" lon="4.79466">
        <ele>253</ele>
        <time>2018-06-29T08:35:16Z</time>
      </trkpt>
      <trkpt lat="45.9473" lon="4.79473">
        <ele>253</ele>
        <time>2018-06-29T08:35:17Z</time>
      </trkpt>
      <trkpt lat="45.94732" lon="4.7948">
        <ele>253</ele>
        <time>2018-06-29T08:35:18Z</time>
      </trkpt>
      <trkpt lat="45.94735" lon="4.79487">
        <ele>253</ele>
        <time>2018-06-29T08:35:19Z</time>
      </trkpt>
      <trkpt lat="45.94738" lon="4.79495">
        <ele>252</ele>
        <time>2018-06-29T08:35:20Z</time>
      </trkpt>
      <trkpt lat="45.94741" lon="4.79502">
        <ele>252</ele>
        <time>2018-06-29T08:35:21Z</time>
      </trkpt>
      <trkpt lat="45.94745" lon="4.79509">
        <ele>252</ele>
        <time>2018-06-29T08:35:22Z</time>
      </trkpt>
      <trkpt lat="45.94748" lon="4.79516">
        <ele>252</ele>
        <time>2018-06-29T08:35:23Z</time>
      </trkpt>
      <trkpt lat="45.94751" lon="4.79524">
        <ele>252</ele>
        <time>2018-06-29T08:35:24Z</time>
      </trkpt>
      <trkpt lat="45.94753" lon="4.79531">
        <ele>252</ele>
        <time>2018-06-29T08:35:25Z</time>
      </trkpt>
      <trkpt lat="45.94756" lon="4.79538">
        <ele>252</ele>
        <time>2018-06-29T08:35:26Z</time>
      </trkpt>
      <trkpt lat="45.94759" lon="4.79544">
        <ele>252</ele>
        <time>2018-06-29T08:35:27Z</time>
      </trkpt>
      <trkpt lat="45.94761" lon="4.79551">
        <ele>252</ele>
        <time>2018-06-29T08:35:28Z</time>
      </trkpt>
      <trkpt lat="45.94763" lon="4.79557">
        <ele>252</ele>
        <time>2018-06-29T08:35:29Z</time>
      </trkpt>
      <trkpt lat="45.94764" lon="4.7957">
        <ele>252</ele>
        <time>2018-06-29T08:35:31Z</time>
      </trkpt>
      <trkpt lat="45.94765" lon="4.79576">
        <ele>252</ele>
        <time>2018-06-29T08:35:32Z</time>
      </trkpt>
      <trkpt lat="45.94763" lon="4.79584">
        <ele>253</ele>
        <time>2018-06-29T08:35:33Z</time>
      </trkpt>
      <trkpt lat="45.94764" lon="4.79593">
        <ele>253</ele>
        <time>2018-06-29T08:35:34Z</time>
      </trkpt>
      <trkpt lat="45.94764" lon="4.79605">
        <ele>253</ele>
        <time>2018-06-29T08:35:36Z</time>
      </trkpt>
      <trkpt lat="45.94766" lon="4.79611">
        <ele>253</ele>
        <time>2018-06-29T08:35:37Z</time>
      </trkpt>
      <trkpt lat="45.94768" lon="4.79617">
        <ele>253</ele>
        <time>2018-06-29T08:35:38Z</time>
      </trkpt>
      <trkpt lat="45.94769" lon="4.79624">
        <ele>253</ele>
        <time>2018-06-29T08:35:39Z</time>
      </trkpt>
      <trkpt lat="45.94771" lon="4.7963">
        <ele>253</ele>
        <time>2018-06-29T08:35:40Z</time>
      </trkpt>
      <trkpt lat="45.94771" lon="4.79637">
        <ele>254</ele>
        <time>2018-06-29T08:35:41Z</time>
      </trkpt>
      <trkpt lat="45.94773" lon="4.79645">
        <ele>254</ele>
        <time>2018-06-29T08:35:42Z</time>
      </trkpt>
      <trkpt lat="45.94774" lon="4.79651">
        <ele>254</ele>
        <time>2018-06-29T08:35:43Z</time>
      </trkpt>
      <trkpt lat="45.94775" lon="4.79658">
        <ele>254</ele>
        <time>2018-06-29T08:35:44Z</time>
      </trkpt>
      <trkpt lat="45.94777" lon="4.79665">
        <ele>254</ele>
        <time>2018-06-29T08:35:45Z</time>
      </trkpt>
      <trkpt lat="45.94778" lon="4.79671">
        <ele>254</ele>
        <time>2018-06-29T08:35:46Z</time>
      </trkpt>
      <trkpt lat="45.94779" lon="4.79679">
        <ele>254</ele>
        <time>2018-06-29T08:35:47Z</time>
      </trkpt>
      <trkpt lat="45.94781" lon="4.79685">
        <ele>254</ele>
        <time>2018-06-29T08:35:48Z</time>
      </trkpt>
      <trkpt lat="45.94782" lon="4.79691">
        <ele>254</ele>
        <time>2018-06-29T08:35:49Z</time>
      </trkpt>
      <trkpt lat="45.94784" lon="4.79697">
        <ele>254</ele>
        <time>2018-06-29T08:35:50Z</time>
      </trkpt>
      <trkpt lat="45.94789" lon="4.79704">
        <ele>254</ele>
        <time>2018-06-29T08:35:51Z</time>
      </trkpt>
      <trkpt lat="45.94792" lon="4.7971">
        <ele>254</ele>
        <time>2018-06-29T08:35:52Z</time>
      </trkpt>
      <trkpt lat="45.94794" lon="4.79716">
        <ele>254</ele>
        <time>2018-06-29T08:35:53Z</time>
      </trkpt>
      <trkpt lat="45.94796" lon="4.79721">
        <ele>254</ele>
        <time>2018-06-29T08:35:54Z</time>
      </trkpt>
      <trkpt lat="45.94797" lon="4.79728">
        <ele>254</ele>
        <time>2018-06-29T08:35:55Z</time>
      </trkpt>
      <trkpt lat="45.94799" lon="4.79734">
        <ele>254</ele>
        <time>2018-06-29T08:35:56Z</time>
      </trkpt>
      <trkpt lat="45.948" lon="4.79741">
        <ele>254</ele>
        <time>2018-06-29T08:35:57Z</time>
      </trkpt>
      <trkpt lat="45.94803" lon="4.79748">
        <ele>254</ele>
        <time>2018-06-29T08:35:58Z</time>
      </trkpt>
      <trkpt lat="45.94805" lon="4.79756">
        <ele>254</ele>
        <time>2018-06-29T08:35:59Z</time>
      </trkpt>
      <trkpt lat="45.94808" lon="4.79763">
        <ele>254</ele>
        <time>2018-06-29T08:36:00Z</time>
      </trkpt>
      <trkpt lat="45.9481" lon="4.79771">
        <ele>254</ele>
        <time>2018-06-29T08:36:01Z</time>
      </trkpt>
      <trkpt lat="45.94811" lon="4.79779">
        <ele>254</ele>
        <time>2018-06-29T08:36:02Z</time>
      </trkpt>
      <trkpt lat="45.94813" lon="4.79787">
        <ele>254</ele>
        <time>2018-06-29T08:36:03Z</time>
      </trkpt>
      <trkpt lat="45.94818" lon="4.79793">
        <ele>254</ele>
        <time>2018-06-29T08:36:04Z</time>
      </trkpt>
      <trkpt lat="45.94819" lon="4.79802">
        <ele>254</ele>
        <time>2018-06-29T08:36:05Z</time>
      </trkpt>
      <trkpt lat="45.94822" lon="4.79808">
        <ele>254</ele>
        <time>2018-06-29T08:36:06Z</time>
      </trkpt>
      <trkpt lat="45.94823" lon="4.79817">
        <ele>254</ele>
        <time>2018-06-29T08:36:07Z</time>
      </trkpt>
      <trkpt lat="45.94825" lon="4.79823">
        <ele>254</ele>
        <time>2018-06-29T08:36:08Z</time>
      </trkpt>
      <trkpt lat="45.94827" lon="4.79833">
        <ele>254</ele>
        <time>2018-06-29T08:36:09Z</time>
      </trkpt>
      <trkpt lat="45.94828" lon="4.79841">
        <ele>254</ele>
        <time>2018-06-29T08:36:10Z</time>
      </trkpt>
      <trkpt lat="45.9483" lon="4.79847">
        <ele>254</ele>
        <time>2018-06-29T08:36:11Z</time>
      </trkpt>
      <trkpt lat="45.94832" lon="4.79853">
        <ele>254</ele>
        <time>2018-06-29T08:36:12Z</time>
      </trkpt>
      <trkpt lat="45.94834" lon="4.7986">
        <ele>255</ele>
        <time>2018-06-29T08:36:13Z</time>
      </trkpt>
      <trkpt lat="45.94836" lon="4.79867">
        <ele>255</ele>
        <time>2018-06-29T08:36:14Z</time>
      </trkpt>
      <trkpt lat="45.94838" lon="4.79875">
        <ele>255</ele>
        <time>2018-06-29T08:36:15Z</time>
      </trkpt>
      <trkpt lat="45.9484" lon="4.79882">
        <ele>255</ele>
        <time>2018-06-29T08:36:16Z</time>
      </trkpt>
      <trkpt lat="45.94842" lon="4.79888">
        <ele>255</ele>
        <time>2018-06-29T08:36:17Z</time>
      </trkpt>
      <trkpt lat="45.94846" lon="4.79899">
        <ele>255</ele>
        <time>2018-06-29T08:36:19Z</time>
      </trkpt>
      <trkpt lat="45.94847" lon="4.79903">
        <ele>255</ele>
        <time>2018-06-29T08:36:20Z</time>
      </trkpt>
      <trkpt lat="45.94849" lon="4.79909">
        <ele>256</ele>
        <time>2018-06-29T08:36:21Z</time>
      </trkpt>
      <trkpt lat="45.94852" lon="4.79914">
        <ele>256</ele>
        <time>2018-06-29T08:36:22Z</time>
      </trkpt>
      <trkpt lat="45.94856" lon="4.79923">
        <ele>256</ele>
        <time>2018-06-29T08:36:24Z</time>
      </trkpt>
      <trkpt lat="45.94858" lon="4.79929">
        <ele>256</ele>
        <time>2018-06-29T08:36:25Z</time>
      </trkpt>
      <trkpt lat="45.94863" lon="4.79938">
        <ele>256</ele>
        <time>2018-06-29T08:36:27Z</time>
      </trkpt>
      <trkpt lat="45.94865" lon="4.79945">
        <ele>256</ele>
        <time>2018-06-29T08:36:28Z</time>
      </trkpt>
      <trkpt lat="45.94868" lon="4.79952">
        <ele>256</ele>
        <time>2018-06-29T08:36:29Z</time>
      </trkpt>
      <trkpt lat="45.94871" lon="4.79958">
        <ele>256</ele>
        <time>2018-06-29T08:36:30Z</time>
      </trkpt>
      <trkpt lat="45.94874" lon="4.79965">
        <ele>256</ele>
        <time>2018-06-29T08:36:31Z</time>
      </trkpt>
      <trkpt lat="45.94877" lon="4.79971">
        <ele>256</ele>
        <time>2018-06-29T08:36:32Z</time>
      </trkpt>
      <trkpt lat="45.9488" lon="4.79977">
        <ele>256</ele>
        <time>2018-06-29T08:36:33Z</time>
      </trkpt>
      <trkpt lat="45.94882" lon="4.79984">
        <ele>256</ele>
        <time>2018-06-29T08:36:34Z</time>
      </trkpt>
      <trkpt lat="45.94886" lon="4.79995">
        <ele>256</ele>
        <time>2018-06-29T08:36:36Z</time>
      </trkpt>
      <trkpt lat="45.94888" lon="4.80001">
        <ele>256</ele>
        <time>2018-06-29T08:36:37Z</time>
      </trkpt>
      <trkpt lat="45.94891" lon="4.80007">
        <ele>256</ele>
        <time>2018-06-29T08:36:38Z</time>
      </trkpt>
      <trkpt lat="45.94893" lon="4.80013">
        <ele>256</ele>
        <time>2018-06-29T08:36:39Z</time>
      </trkpt>
      <trkpt lat="45.94897" lon="4.80024">
        <ele>256</ele>
        <time>2018-06-29T08:36:41Z</time>
      </trkpt>
      <trkpt lat="45.94899" lon="4.80029">
        <ele>256</ele>
        <time>2018-06-29T08:36:42Z</time>
      </trkpt>
      <trkpt lat="45.94901" lon="4.80035">
        <ele>256</ele>
        <time>2018-06-29T08:36:43Z</time>
      </trkpt>
      <trkpt lat="45.94902" lon="4.80042">
        <ele>256</ele>
        <time>2018-06-29T08:36:44Z</time>
      </trkpt>
      <trkpt lat="45.94905" lon="4.80053">
        <ele>256</ele>
        <time>2018-06-29T08:36:46Z</time>
      </trkpt>
      <trkpt lat="45.94906" lon="4.80059">
        <ele>256</ele>
        <time>2018-06-29T08:36:47Z</time>
      </trkpt>
      <trkpt lat="45.94908" lon="4.80065">
        <ele>256</ele>
        <time>2018-06-29T08:36:48Z</time>
      </trkpt>
      <trkpt lat="45.9491" lon="4.80072">
        <ele>257</ele>
        <time>2018-06-29T08:36:49Z</time>
      </trkpt>
      <trkpt lat="45.94912" lon="4.80079">
        <ele>257</ele>
        <time>2018-06-29T08:36:50Z</time>
      </trkpt>
      <trkpt lat="45.94914" lon="4.80087">
        <ele>257</ele>
        <time>2018-06-29T08:36:51Z</time>
      </trkpt>
      <trkpt lat="45.94915" lon="4.80094">
        <ele>257</ele>
        <time>2018-06-29T08:36:52Z</time>
      </trkpt>
      <trkpt lat="45.94916" lon="4.80101">
        <ele>256</ele>
        <time>2018-06-29T08:36:53Z</time>
      </trkpt>
      <trkpt lat="45.94917" lon="4.8011">
        <ele>256</ele>
        <time>2018-06-29T08:36:54Z</time>
      </trkpt>
      <trkpt lat="45.94918" lon="4.80117">
        <ele>256</ele>
        <time>2018-06-29T08:36:55Z</time>
      </trkpt>
      <trkpt lat="45.94923" lon="4.80127">
        <ele>256</ele>
        <time>2018-06-29T08:36:57Z</time>
      </trkpt>
      <trkpt lat="45.94924" lon="4.80134">
        <ele>256</ele>
        <time>2018-06-29T08:36:58Z</time>
      </trkpt>
      <trkpt lat="45.94926" lon="4.80147">
        <ele>256</ele>
        <time>2018-06-29T08:37:00Z</time>
      </trkpt>
      <trkpt lat="45.94927" lon="4.80154">
        <ele>255</ele>
        <time>2018-06-29T08:37:01Z</time>
      </trkpt>
      <trkpt lat="45.94928" lon="4.8016">
        <ele>255</ele>
        <time>2018-06-29T08:37:02Z</time>
      </trkpt>
      <trkpt lat="45.94929" lon="4.80167">
        <ele>255</ele>
        <time>2018-06-29T08:37:03Z</time>
      </trkpt>
      <trkpt lat="45.9493" lon="4.80173">
        <ele>255</ele>
        <time>2018-06-29T08:37:04Z</time>
      </trkpt>
      <trkpt lat="45.94931" lon="4.8018">
        <ele>256</ele>
        <time>2018-06-29T08:37:05Z</time>
      </trkpt>
      <trkpt lat="45.9493" lon="4.8019">
        <ele>256</ele>
        <time>2018-06-29T08:37:07Z</time>
      </trkpt>
      <trkpt lat="45.94932" lon="4.80196">
        <ele>256</ele>
        <time>2018-06-29T08:37:08Z</time>
      </trkpt>
      <trkpt lat="45.94933" lon="4.80203">
        <ele>256</ele>
        <time>2018-06-29T08:37:09Z</time>
      </trkpt>
      <trkpt lat="45.94934" lon="4.80209">
        <ele>256</ele>
        <time>2018-06-29T08:37:10Z</time>
      </trkpt>
      <trkpt lat="45.94936" lon="4.8022">
        <ele>256</ele>
        <time>2018-06-29T08:37:12Z</time>
      </trkpt>
      <trkpt lat="45.94938" lon="4.80227">
        <ele>256</ele>
        <time>2018-06-29T08:37:13Z</time>
      </trkpt>
      <trkpt lat="45.94938" lon="4.80234">
        <ele>256</ele>
        <time>2018-06-29T08:37:14Z</time>
      </trkpt>
      <trkpt lat="45.94939" lon="4.80241">
        <ele>256</ele>
        <time>2018-06-29T08:37:15Z</time>
      </trkpt>
      <trkpt lat="45.9494" lon="4.80248">
        <ele>256</ele>
        <time>2018-06-29T08:37:16Z</time>
      </trkpt>
      <trkpt lat="45.9494" lon="4.80254">
        <ele>257</ele>
        <time>2018-06-29T08:37:17Z</time>
      </trkpt>
      <trkpt lat="45.94941" lon="4.80262">
        <ele>257</ele>
        <time>2018-06-29T08:37:18Z</time>
      </trkpt>
      <trkpt lat="45.94942" lon="4.80268">
        <ele>257</ele>
        <time>2018-06-29T08:37:19Z</time>
      </trkpt>
      <trkpt lat="45.94942" lon="4.80275">
        <ele>257</ele>
        <time>2018-06-29T08:37:20Z</time>
      </trkpt>
      <trkpt lat="45.94942" lon="4.80283">
        <ele>257</ele>
        <time>2018-06-29T08:37:21Z</time>
      </trkpt>
      <trkpt lat="45.94942" lon="4.8029">
        <ele>257</ele>
        <time>2018-06-29T08:37:22Z</time>
      </trkpt>
      <trkpt lat="45.94942" lon="4.80297">
        <ele>257</ele>
        <time>2018-06-29T08:37:23Z</time>
      </trkpt>
      <trkpt lat="45.94943" lon="4.80303">
        <ele>257</ele>
        <time>2018-06-29T08:37:24Z</time>
      </trkpt>
      <trkpt lat="45.94944" lon="4.8031">
        <ele>257</ele>
        <time>2018-06-29T08:37:25Z</time>
      </trkpt>
      <trkpt lat="45.94944" lon="4.80318">
        <ele>257</ele>
        <time>2018-06-29T08:37:26Z</time>
      </trkpt>
      <trkpt lat="45.94945" lon="4.80325">
        <ele>257</ele>
        <time>2018-06-29T08:37:27Z</time>
      </trkpt>
      <trkpt lat="45.94943" lon="4.80331">
        <ele>257</ele>
        <time>2018-06-29T08:37:28Z</time>
      </trkpt>
      <trkpt lat="45.94943" lon="4.80338">
        <ele>258</ele>
        <time>2018-06-29T08:37:29Z</time>
      </trkpt>
      <trkpt lat="45.94944" lon="4.80345">
        <ele>258</ele>
        <time>2018-06-29T08:37:30Z</time>
      </trkpt>
      <trkpt lat="45.94944" lon="4.80352">
        <ele>258</ele>
        <time>2018-06-29T08:37:31Z</time>
      </trkpt>
      <trkpt lat="45.94945" lon="4.80361">
        <ele>258</ele>
        <time>2018-06-29T08:37:32Z</time>
      </trkpt>
      <trkpt lat="45.94946" lon="4.80368">
        <ele>258</ele>
        <time>2018-06-29T08:37:33Z</time>
      </trkpt>
      <trkpt lat="45.94947" lon="4.80374">
        <ele>258</ele>
        <time>2018-06-29T08:37:34Z</time>
      </trkpt>
      <trkpt lat="45.94947" lon="4.80382">
        <ele>258</ele>
        <time>2018-06-29T08:37:35Z</time>
      </trkpt>
      <trkpt lat="45.94947" lon="4.8039">
        <ele>258</ele>
        <time>2018-06-29T08:37:36Z</time>
      </trkpt>
      <trkpt lat="45.94947" lon="4.80398">
        <ele>258</ele>
        <time>2018-06-29T08:37:37Z</time>
      </trkpt>
      <trkpt lat="45.94945" lon="4.80411">
        <ele>258</ele>
        <time>2018-06-29T08:37:39Z</time>
      </trkpt>
      <trkpt lat="45.94946" lon="4.80418">
        <ele>259</ele>
        <time>2018-06-29T08:37:40Z</time>
      </trkpt>
      <trkpt lat="45.94947" lon="4.80425">
        <ele>259</ele>
        <time>2018-06-29T08:37:41Z</time>
      </trkpt>
      <trkpt lat="45.94946" lon="4.80433">
        <ele>259</ele>
        <time>2018-06-29T08:37:42Z</time>
      </trkpt>
      <trkpt lat="45.94945" lon="4.80442">
        <ele>259</ele>
        <time>2018-06-29T08:37:43Z</time>
      </trkpt>
      <trkpt lat="45.94947" lon="4.8045">
        <ele>258</ele>
        <time>2018-06-29T08:37:44Z</time>
      </trkpt>
      <trkpt lat="45.94946" lon="4.80456">
        <ele>258</ele>
        <time>2018-06-29T08:37:45Z</time>
      </trkpt>
      <trkpt lat="45.94946" lon="4.80463">
        <ele>258</ele>
        <time>2018-06-29T08:37:46Z</time>
      </trkpt>
      <trkpt lat="45.94946" lon="4.80471">
        <ele>258</ele>
        <time>2018-06-29T08:37:47Z</time>
      </trkpt>
      <trkpt lat="45.94947" lon="4.80478">
        <ele>258</ele>
        <time>2018-06-29T08:37:48Z</time>
      </trkpt>
      <trkpt lat="45.94948" lon="4.80486">
        <ele>258</ele>
        <time>2018-06-29T08:37:49Z</time>
      </trkpt>
      <trkpt lat="45.94948" lon="4.80494">
        <ele>258</ele>
        <time>2018-06-29T08:37:50Z</time>
      </trkpt>
      <trkpt lat="45.94948" lon="4.80503">
        <ele>258</ele>
        <time>2018-06-29T08:37:51Z</time>
      </trkpt>
      <trkpt lat="45.94948" lon="4.8051">
        <ele>258</ele>
        <time>2018-06-29T08:37:52Z</time>
      </trkpt>
      <trkpt lat="45.94951" lon="4.80517">
        <ele>258</ele>
        <time>2018-06-29T08:37:53Z</time>
      </trkpt>
      <trkpt lat="45.94951" lon="4.80524">
        <ele>258</ele>
        <time>2018-06-29T08:37:54Z</time>
      </trkpt>
      <trkpt lat="45.9495" lon="4.80536">
        <ele>258</ele>
        <time>2018-06-29T08:37:56Z</time>
      </trkpt>
      <trkpt lat="45.9495" lon="4.80543">
        <ele>258</ele>
        <time>2018-06-29T08:37:57Z</time>
      </trkpt>
      <trkpt lat="45.94949" lon="4.8055">
        <ele>258</ele>
        <time>2018-06-29T08:37:58Z</time>
      </trkpt>
      <trkpt lat="45.94949" lon="4.80558">
        <ele>257</ele>
        <time>2018-06-29T08:37:59Z</time>
      </trkpt>
      <trkpt lat="45.94952" lon="4.80566">
        <ele>257</ele>
        <time>2018-06-29T08:38:00Z</time>
      </trkpt>
      <trkpt lat="45.94952" lon="4.80575">
        <ele>257</ele>
        <time>2018-06-29T08:38:01Z</time>
      </trkpt>
      <trkpt lat="45.94952" lon="4.80581">
        <ele>257</ele>
        <time>2018-06-29T08:38:02Z</time>
      </trkpt>
      <trkpt lat="45.94953" lon="4.80589">
        <ele>258</ele>
        <time>2018-06-29T08:38:03Z</time>
      </trkpt>
      <trkpt lat="45.94953" lon="4.80596">
        <ele>258</ele>
        <time>2018-06-29T08:38:04Z</time>
      </trkpt>
      <trkpt lat="45.94953" lon="4.80603">
        <ele>258</ele>
        <time>2018-06-29T08:38:05Z</time>
      </trkpt>
      <trkpt lat="45.94954" lon="4.80611">
        <ele>258</ele>
        <time>2018-06-29T08:38:06Z</time>
      </trkpt>
      <trkpt lat="45.94955" lon="4.8062">
        <ele>258</ele>
        <time>2018-06-29T08:38:07Z</time>
      </trkpt>
      <trkpt lat="45.94955" lon="4.80626">
        <ele>258</ele>
        <time>2018-06-29T08:38:08Z</time>
      </trkpt>
      <trkpt lat="45.94954" lon="4.80633">
        <ele>258</ele>
        <time>2018-06-29T08:38:09Z</time>
      </trkpt>
      <trkpt lat="45.94955" lon="4.80644">
        <ele>258</ele>
        <time>2018-06-29T08:38:11Z</time>
      </trkpt>
      <trkpt lat="45.94955" lon="4.80652">
        <ele>259</ele>
        <time>2018-06-29T08:38:12Z</time>
      </trkpt>
      <trkpt lat="45.94955" lon="4.80659">
        <ele>259</ele>
        <time>2018-06-29T08:38:13Z</time>
      </trkpt>
      <trkpt lat="45.94955" lon="4.80665">
        <ele>259</ele>
        <time>2018-06-29T08:38:14Z</time>
      </trkpt>
      <trkpt lat="45.94957" lon="4.80672">
        <ele>259</ele>
        <time>2018-06-29T08:38:15Z</time>
      </trkpt>
      <trkpt lat="45.94956" lon="4.80678">
        <ele>259</ele>
        <time>2018-06-29T08:38:16Z</time>
      </trkpt>
      <trkpt lat="45.94956" lon="4.8069">
        <ele>259</ele>
        <time>2018-06-29T08:38:18Z</time>
      </trkpt>
      <trkpt lat="45.94956" lon="4.80696">
        <ele>259</ele>
        <time>2018-06-29T08:38:19Z</time>
      </trkpt>
      <trkpt lat="45.94956" lon="4.80708">
        <ele>259</ele>
        <time>2018-06-29T08:38:21Z</time>
      </trkpt>
      <trkpt lat="45.94956" lon="4.80714">
        <ele>259</ele>
        <time>2018-06-29T08:38:22Z</time>
      </trkpt>
      <trkpt lat="45.94956" lon="4.8072">
        <ele>259</ele>
        <time>2018-06-29T08:38:23Z</time>
      </trkpt>
      <trkpt lat="45.94956" lon="4.80728">
        <ele>259</ele>
        <time>2018-06-29T08:38:24Z</time>
      </trkpt>
      <trkpt lat="45.94955" lon="4.80735">
        <ele>259</ele>
        <time>2018-06-29T08:38:25Z</time>
      </trkpt>
      <trkpt lat="45.94956" lon="4.80741">
        <ele>259</ele>
        <time>2018-06-29T08:38:26Z</time>
      </trkpt>
      <trkpt lat="45.94954" lon="4.80752">
        <ele>259</ele>
        <time>2018-06-29T08:38:28Z</time>
      </trkpt>
      <trkpt lat="45.94954" lon="4.80758">
        <ele>259</ele>
        <time>2018-06-29T08:38:29Z</time>
      </trkpt>
      <trkpt lat="45.94951" lon="4.80769">
        <ele>259</ele>
        <time>2018-06-29T08:38:31Z</time>
      </trkpt>
      <trkpt lat="45.94951" lon="4.80778">
        <ele>259</ele>
        <time>2018-06-29T08:38:32Z</time>
      </trkpt>
      <trkpt lat="45.94949" lon="4.80789">
        <ele>259</ele>
        <time>2018-06-29T08:38:36Z</time>
      </trkpt>
      <trkpt lat="45.94949" lon="4.80792">
        <ele>259</ele>
        <time>2018-06-29T08:38:37Z</time>
      </trkpt>
      <trkpt lat="45.94949" lon="4.80796">
        <ele>259</ele>
        <time>2018-06-29T08:38:38Z</time>
      </trkpt>
      <trkpt lat="45.94951" lon="4.80808">
        <ele>258</ele>
        <time>2018-06-29T08:38:39Z</time>
      </trkpt>
      <trkpt lat="45.94956" lon="4.80818">
        <ele>258</ele>
        <time>2018-06-29T08:38:41Z</time>
      </trkpt>
      <trkpt lat="45.94958" lon="4.80824">
        <ele>258</ele>
        <time>2018-06-29T08:38:42Z</time>
      </trkpt>
      <trkpt lat="45.94959" lon="4.8083">
        <ele>259</ele>
        <time>2018-06-29T08:38:43Z</time>
      </trkpt>
      <trkpt lat="45.94962" lon="4.80837">
        <ele>259</ele>
        <time>2018-06-29T08:38:44Z</time>
      </trkpt>
      <trkpt lat="45.94964" lon="4.80845">
        <ele>259</ele>
        <time>2018-06-29T08:38:45Z</time>
      </trkpt>
      <trkpt lat="45.94965" lon="4.80852">
        <ele>259</ele>
        <time>2018-06-29T08:38:46Z</time>
      </trkpt>
      <trkpt lat="45.94966" lon="4.80859">
        <ele>259</ele>
        <time>2018-06-29T08:38:47Z</time>
      </trkpt>
      <trkpt lat="45.94967" lon="4.80867">
        <ele>259</ele>
        <time>2018-06-29T08:38:48Z</time>
      </trkpt>
      <trkpt lat="45.94968" lon="4.80874">
        <ele>259</ele>
        <time>2018-06-29T08:38:49Z</time>
      </trkpt>
      <trkpt lat="45.9497" lon="4.80882">
        <ele>258</ele>
        <time>2018-06-29T08:38:50Z</time>
      </trkpt>
      <trkpt lat="45.9497" lon="4.80888">
        <ele>258</ele>
        <time>2018-06-29T08:38:51Z</time>
      </trkpt>
      <trkpt lat="45.94972" lon="4.80895">
        <ele>258</ele>
        <time>2018-06-29T08:38:52Z</time>
      </trkpt>
      <trkpt lat="45.94973" lon="4.80902">
        <ele>258</ele>
        <time>2018-06-29T08:38:53Z</time>
      </trkpt>
      <trkpt lat="45.94974" lon="4.80911">
        <ele>258</ele>
        <time>2018-06-29T08:38:54Z</time>
      </trkpt>
      <trkpt lat="45.94975" lon="4.8092">
        <ele>258</ele>
        <time>2018-06-29T08:38:55Z</time>
      </trkpt>
      <trkpt lat="45.94976" lon="4.80926">
        <ele>258</ele>
        <time>2018-06-29T08:38:56Z</time>
      </trkpt>
      <trkpt lat="45.94977" lon="4.80933">
        <ele>258</ele>
        <time>2018-06-29T08:38:57Z</time>
      </trkpt>
      <trkpt lat="45.94978" lon="4.80942">
        <ele>258</ele>
        <time>2018-06-29T08:38:58Z</time>
      </trkpt>
      <trkpt lat="45.94981" lon="4.80949">
        <ele>258</ele>
        <time>2018-06-29T08:38:59Z</time>
      </trkpt>
      <trkpt lat="45.94982" lon="4.80955">
        <ele>258</ele>
        <time>2018-06-29T08:39:00Z</time>
      </trkpt>
      <trkpt lat="45.94983" lon="4.80962">
        <ele>258</ele>
        <time>2018-06-29T08:39:01Z</time>
      </trkpt>
      <trkpt lat="45.94985" lon="4.80971">
        <ele>258</ele>
        <time>2018-06-29T08:39:02Z</time>
      </trkpt>
      <trkpt lat="45.94986" lon="4.80979">
        <ele>258</ele>
        <time>2018-06-29T08:39:03Z</time>
      </trkpt>
      <trkpt lat="45.94986" lon="4.80987">
        <ele>258</ele>
        <time>2018-06-29T08:39:04Z</time>
      </trkpt>
      <trkpt lat="45.94987" lon="4.80995">
        <ele>257</ele>
        <time>2018-06-29T08:39:05Z</time>
      </trkpt>
      <trkpt lat="45.94988" lon="4.81002">
        <ele>257</ele>
        <time>2018-06-29T08:39:06Z</time>
      </trkpt>
      <trkpt lat="45.94988" lon="4.81008">
        <ele>257</ele>
        <time>2018-06-29T08:39:07Z</time>
      </trkpt>
      <trkpt lat="45.94988" lon="4.81016">
        <ele>257</ele>
        <time>2018-06-29T08:39:08Z</time>
      </trkpt>
      <trkpt lat="45.94989" lon="4.81022">
        <ele>257</ele>
        <time>2018-06-29T08:39:09Z</time>
      </trkpt>
      <trkpt lat="45.94989" lon="4.81029">
        <ele>257</ele>
        <time>2018-06-29T08:39:10Z</time>
      </trkpt>
      <trkpt lat="45.94989" lon="4.81037">
        <ele>257</ele>
        <time>2018-06-29T08:39:11Z</time>
      </trkpt>
      <trkpt lat="45.94989" lon="4.81044">
        <ele>257</ele>
        <time>2018-06-29T08:39:12Z</time>
      </trkpt>
      <trkpt lat="45.94989" lon="4.81052">
        <ele>257</ele>
        <time>2018-06-29T08:39:13Z</time>
      </trkpt>
      <trkpt lat="45.94989" lon="4.81059">
        <ele>257</ele>
        <time>2018-06-29T08:39:14Z</time>
      </trkpt>
      <trkpt lat="45.9499" lon="4.81068">
        <ele>257</ele>
        <time>2018-06-29T08:39:15Z</time>
      </trkpt>
      <trkpt lat="45.9499" lon="4.81075">
        <ele>257</ele>
        <time>2018-06-29T08:39:16Z</time>
      </trkpt>
      <trkpt lat="45.94991" lon="4.81083">
        <ele>257</ele>
        <time>2018-06-29T08:39:17Z</time>
      </trkpt>
      <trkpt lat="45.94992" lon="4.81092">
        <ele>257</ele>
        <time>2018-06-29T08:39:18Z</time>
      </trkpt>
      <trkpt lat="45.94994" lon="4.81103">
        <ele>257</ele>
        <time>2018-06-29T08:39:19Z</time>
      </trkpt>
      <trkpt lat="45.94994" lon="4.8111">
        <ele>257</ele>
        <time>2018-06-29T08:39:20Z</time>
      </trkpt>
      <trkpt lat="45.94995" lon="4.81119">
        <ele>257</ele>
        <time>2018-06-29T08:39:21Z</time>
      </trkpt>
      <trkpt lat="45.94996" lon="4.81128">
        <ele>256</ele>
        <time>2018-06-29T08:39:22Z</time>
      </trkpt>
      <trkpt lat="45.94998" lon="4.81136">
        <ele>256</ele>
        <time>2018-06-29T08:39:23Z</time>
      </trkpt>
      <trkpt lat="45.94999" lon="4.81145">
        <ele>256</ele>
        <time>2018-06-29T08:39:24Z</time>
      </trkpt>
      <trkpt lat="45.95" lon="4.81153">
        <ele>256</ele>
        <time>2018-06-29T08:39:25Z</time>
      </trkpt>
      <trkpt lat="45.95001" lon="4.81161">
        <ele>256</ele>
        <time>2018-06-29T08:39:26Z</time>
      </trkpt>
      <trkpt lat="45.95003" lon="4.81169">
        <ele>256</ele>
        <time>2018-06-29T08:39:27Z</time>
      </trkpt>
      <trkpt lat="45.95004" lon="4.81178">
        <ele>256</ele>
        <time>2018-06-29T08:39:28Z</time>
      </trkpt>
      <trkpt lat="45.95005" lon="4.81186">
        <ele>256</ele>
        <time>2018-06-29T08:39:29Z</time>
      </trkpt>
      <trkpt lat="45.95006" lon="4.81194">
        <ele>256</ele>
        <time>2018-06-29T08:39:30Z</time>
      </trkpt>
      <trkpt lat="45.95008" lon="4.81202">
        <ele>256</ele>
        <time>2018-06-29T08:39:31Z</time>
      </trkpt>
      <trkpt lat="45.95008" lon="4.8121">
        <ele>256</ele>
        <time>2018-06-29T08:39:32Z</time>
      </trkpt>
      <trkpt lat="45.95009" lon="4.81218">
        <ele>256</ele>
        <time>2018-06-29T08:39:33Z</time>
      </trkpt>
      <trkpt lat="45.9501" lon="4.81225">
        <ele>256</ele>
        <time>2018-06-29T08:39:34Z</time>
      </trkpt>
      <trkpt lat="45.95011" lon="4.81233">
        <ele>256</ele>
        <time>2018-06-29T08:39:35Z</time>
      </trkpt>
      <trkpt lat="45.95012" lon="4.81242">
        <ele>256</ele>
        <time>2018-06-29T08:39:36Z</time>
      </trkpt>
      <trkpt lat="45.95013" lon="4.81251">
        <ele>256</ele>
        <time>2018-06-29T08:39:37Z</time>
      </trkpt>
      <trkpt lat="45.95014" lon="4.8126">
        <ele>256</ele>
        <time>2018-06-29T08:39:38Z</time>
      </trkpt>
      <trkpt lat="45.95015" lon="4.81269">
        <ele>255</ele>
        <time>2018-06-29T08:39:39Z</time>
      </trkpt>
      <trkpt lat="45.95017" lon="4.81279">
        <ele>255</ele>
        <time>2018-06-29T08:39:40Z</time>
      </trkpt>
      <trkpt lat="45.95019" lon="4.81286">
        <ele>255</ele>
        <time>2018-06-29T08:39:41Z</time>
      </trkpt>
      <trkpt lat="45.9502" lon="4.81293">
        <ele>255</ele>
        <time>2018-06-29T08:39:42Z</time>
      </trkpt>
      <trkpt lat="45.95022" lon="4.813">
        <ele>255</ele>
        <time>2018-06-29T08:39:43Z</time>
      </trkpt>
      <trkpt lat="45.95024" lon="4.81309">
        <ele>255</ele>
        <time>2018-06-29T08:39:44Z</time>
      </trkpt>
      <trkpt lat="45.95027" lon="4.81315">
        <ele>255</ele>
        <time>2018-06-29T08:39:45Z</time>
      </trkpt>
      <trkpt lat="45.95028" lon="4.81323">
        <ele>255</ele>
        <time>2018-06-29T08:39:46Z</time>
      </trkpt>
      <trkpt lat="45.95031" lon="4.81329">
        <ele>255</ele>
        <time>2018-06-29T08:39:47Z</time>
      </trkpt>
      <trkpt lat="45.95033" lon="4.81335">
        <ele>254</ele>
        <time>2018-06-29T08:39:48Z</time>
      </trkpt>
      <trkpt lat="45.95035" lon="4.81342">
        <ele>254</ele>
        <time>2018-06-29T08:39:49Z</time>
      </trkpt>
      <trkpt lat="45.95038" lon="4.81349">
        <ele>254</ele>
        <time>2018-06-29T08:39:50Z</time>
      </trkpt>
      <trkpt lat="45.9504" lon="4.81357">
        <ele>254</ele>
        <time>2018-06-29T08:39:51Z</time>
      </trkpt>
      <trkpt lat="45.95042" lon="4.81364">
        <ele>254</ele>
        <time>2018-06-29T08:39:52Z</time>
      </trkpt>
      <trkpt lat="45.95044" lon="4.8137">
        <ele>254</ele>
        <time>2018-06-29T08:39:53Z</time>
      </trkpt>
      <trkpt lat="45.95047" lon="4.81377">
        <ele>254</ele>
        <time>2018-06-29T08:39:54Z</time>
      </trkpt>
      <trkpt lat="45.9505" lon="4.81388">
        <ele>253</ele>
        <time>2018-06-29T08:39:55Z</time>
      </trkpt>
      <trkpt lat="45.95054" lon="4.81396">
        <ele>253</ele>
        <time>2018-06-29T08:39:56Z</time>
      </trkpt>
      <trkpt lat="45.95056" lon="4.81405">
        <ele>253</ele>
        <time>2018-06-29T08:39:57Z</time>
      </trkpt>
      <trkpt lat="45.95059" lon="4.81413">
        <ele>253</ele>
        <time>2018-06-29T08:39:58Z</time>
      </trkpt>
      <trkpt lat="45.95062" lon="4.81422">
        <ele>252</ele>
        <time>2018-06-29T08:39:59Z</time>
      </trkpt>
      <trkpt lat="45.95065" lon="4.81431">
        <ele>252</ele>
        <time>2018-06-29T08:40:00Z</time>
      </trkpt>
      <trkpt lat="45.95069" lon="4.8144">
        <ele>252</ele>
        <time>2018-06-29T08:40:01Z</time>
      </trkpt>
      <trkpt lat="45.95072" lon="4.81449">
        <ele>253</ele>
        <time>2018-06-29T08:40:02Z</time>
      </trkpt>
      <trkpt lat="45.95075" lon="4.81456">
        <ele>253</ele>
        <time>2018-06-29T08:40:03Z</time>
      </trkpt>
      <trkpt lat="45.95078" lon="4.81465">
        <ele>253</ele>
        <time>2018-06-29T08:40:04Z</time>
      </trkpt>
      <trkpt lat="45.95081" lon="4.81473">
        <ele>253</ele>
        <time>2018-06-29T08:40:05Z</time>
      </trkpt>
      <trkpt lat="45.95085" lon="4.81482">
        <ele>251</ele>
        <time>2018-06-29T08:40:06Z</time>
      </trkpt>
      <trkpt lat="45.95088" lon="4.8149">
        <ele>251</ele>
        <time>2018-06-29T08:40:07Z</time>
      </trkpt>
      <trkpt lat="45.95091" lon="4.81499">
        <ele>251</ele>
        <time>2018-06-29T08:40:08Z</time>
      </trkpt>
      <trkpt lat="45.95095" lon="4.8151">
        <ele>252</ele>
        <time>2018-06-29T08:40:09Z</time>
      </trkpt>
      <trkpt lat="45.95099" lon="4.8152">
        <ele>251</ele>
        <time>2018-06-29T08:40:10Z</time>
      </trkpt>
      <trkpt lat="45.95103" lon="4.81528">
        <ele>251</ele>
        <time>2018-06-29T08:40:11Z</time>
      </trkpt>
      <trkpt lat="45.95106" lon="4.81538">
        <ele>251</ele>
        <time>2018-06-29T08:40:12Z</time>
      </trkpt>
      <trkpt lat="45.95107" lon="4.81546">
        <ele>251</ele>
        <time>2018-06-29T08:40:13Z</time>
      </trkpt>
      <trkpt lat="45.95109" lon="4.81555">
        <ele>251</ele>
        <time>2018-06-29T08:40:14Z</time>
      </trkpt>
      <trkpt lat="45.95112" lon="4.81566">
        <ele>251</ele>
        <time>2018-06-29T08:40:15Z</time>
      </trkpt>
      <trkpt lat="45.95115" lon="4.81577">
        <ele>251</ele>
        <time>2018-06-29T08:40:16Z</time>
      </trkpt>
      <trkpt lat="45.95118" lon="4.81584">
        <ele>252</ele>
        <time>2018-06-29T08:40:17Z</time>
      </trkpt>
      <trkpt lat="45.95119" lon="4.81592">
        <ele>252</ele>
        <time>2018-06-29T08:40:18Z</time>
      </trkpt>
      <trkpt lat="45.95121" lon="4.81599">
        <ele>252</ele>
        <time>2018-06-29T08:40:19Z</time>
      </trkpt>
      <trkpt lat="45.95124" lon="4.81606">
        <ele>252</ele>
        <time>2018-06-29T08:40:20Z</time>
      </trkpt>
      <trkpt lat="45.95126" lon="4.81613">
        <ele>252</ele>
        <time>2018-06-29T08:40:21Z</time>
      </trkpt>
      <trkpt lat="45.95128" lon="4.8162">
        <ele>252</ele>
        <time>2018-06-29T08:40:22Z</time>
      </trkpt>
      <trkpt lat="45.9513" lon="4.81626">
        <ele>253</ele>
        <time>2018-06-29T08:40:23Z</time>
      </trkpt>
      <trkpt lat="45.95133" lon="4.81632">
        <ele>253</ele>
        <time>2018-06-29T08:40:24Z</time>
      </trkpt>
      <trkpt lat="45.95136" lon="4.81644">
        <ele>253</ele>
        <time>2018-06-29T08:40:26Z</time>
      </trkpt>
      <trkpt lat="45.95137" lon="4.8165">
        <ele>253</ele>
        <time>2018-06-29T08:40:27Z</time>
      </trkpt>
      <trkpt lat="45.9514" lon="4.81657">
        <ele>253</ele>
        <time>2018-06-29T08:40:28Z</time>
      </trkpt>
      <trkpt lat="45.95142" lon="4.81663">
        <ele>253</ele>
        <time>2018-06-29T08:40:29Z</time>
      </trkpt>
      <trkpt lat="45.95145" lon="4.81673">
        <ele>255</ele>
        <time>2018-06-29T08:40:31Z</time>
      </trkpt>
      <trkpt lat="45.95148" lon="4.81678">
        <ele>255</ele>
        <time>2018-06-29T08:40:32Z</time>
      </trkpt>
      <trkpt lat="45.95151" lon="4.81687">
        <ele>255</ele>
        <time>2018-06-29T08:40:34Z</time>
      </trkpt>
      <trkpt lat="45.95152" lon="4.81689">
        <ele>255</ele>
        <time>2018-06-29T08:40:35Z</time>
      </trkpt>
      <trkpt lat="45.95156" lon="4.81698">
        <ele>255</ele>
        <time>2018-06-29T08:40:38Z</time>
      </trkpt>
      <trkpt lat="45.95157" lon="4.81701">
        <ele>255</ele>
        <time>2018-06-29T08:40:39Z</time>
      </trkpt>
      <trkpt lat="45.95161" lon="4.81712">
        <ele>256</ele>
        <time>2018-06-29T08:40:42Z</time>
      </trkpt>
      <trkpt lat="45.95163" lon="4.81715">
        <ele>256</ele>
        <time>2018-06-29T08:40:43Z</time>
      </trkpt>
      <trkpt lat="45.95166" lon="4.81723">
        <ele>256</ele>
        <time>2018-06-29T08:40:45Z</time>
      </trkpt>
      <trkpt lat="45.95168" lon="4.81726">
        <ele>257</ele>
        <time>2018-06-29T08:40:46Z</time>
      </trkpt>
      <trkpt lat="45.95173" lon="4.81737">
        <ele>257</ele>
        <time>2018-06-29T08:40:49Z</time>
      </trkpt>
      <trkpt lat="45.95175" lon="4.8174">
        <ele>257</ele>
        <time>2018-06-29T08:40:50Z</time>
      </trkpt>
      <trkpt lat="45.95179" lon="4.81747">
        <ele>257</ele>
        <time>2018-06-29T08:40:52Z</time>
      </trkpt>
      <trkpt lat="45.95181" lon="4.8175">
        <ele>257</ele>
        <time>2018-06-29T08:40:53Z</time>
      </trkpt>
      <trkpt lat="45.95185" lon="4.81757">
        <ele>258</ele>
        <time>2018-06-29T08:40:55Z</time>
      </trkpt>
      <trkpt lat="45.95188" lon="4.8176">
        <ele>258</ele>
        <time>2018-06-29T08:40:56Z</time>
      </trkpt>
      <trkpt lat="45.95192" lon="4.81767">
        <ele>258</ele>
        <time>2018-06-29T08:40:58Z</time>
      </trkpt>
      <trkpt lat="45.95194" lon="4.81771">
        <ele>258</ele>
        <time>2018-06-29T08:40:59Z</time>
      </trkpt>
      <trkpt lat="45.95198" lon="4.81777">
        <ele>258</ele>
        <time>2018-06-29T08:41:01Z</time>
      </trkpt>
      <trkpt lat="45.95201" lon="4.8178">
        <ele>258</ele>
        <time>2018-06-29T08:41:02Z</time>
      </trkpt>
      <trkpt lat="45.95207" lon="4.81791">
        <ele>258</ele>
        <time>2018-06-29T08:41:03Z</time>
      </trkpt>
      <trkpt lat="45.95211" lon="4.81797">
        <ele>259</ele>
        <time>2018-06-29T08:41:05Z</time>
      </trkpt>
      <trkpt lat="45.95215" lon="4.81802">
        <ele>259</ele>
        <time>2018-06-29T08:41:06Z</time>
      </trkpt>
      <trkpt lat="45.9522" lon="4.8181">
        <ele>259</ele>
        <time>2018-06-29T08:41:08Z</time>
      </trkpt>
      <trkpt lat="45.95223" lon="4.81814">
        <ele>259</ele>
        <time>2018-06-29T08:41:09Z</time>
      </trkpt>
      <trkpt lat="45.95228" lon="4.81822">
        <ele>259</ele>
        <time>2018-06-29T08:41:11Z</time>
      </trkpt>
      <trkpt lat="45.95231" lon="4.81826">
        <ele>259</ele>
        <time>2018-06-29T08:41:12Z</time>
      </trkpt>
      <trkpt lat="45.95236" lon="4.81835">
        <ele>260</ele>
        <time>2018-06-29T08:41:14Z</time>
      </trkpt>
      <trkpt lat="45.95238" lon="4.8184">
        <ele>260</ele>
        <time>2018-06-29T08:41:15Z</time>
      </trkpt>
      <trkpt lat="45.95244" lon="4.81848">
        <ele>260</ele>
        <time>2018-06-29T08:41:18Z</time>
      </trkpt>
      <trkpt lat="45.95249" lon="4.81855">
        <ele>260</ele>
        <time>2018-06-29T08:41:19Z</time>
      </trkpt>
      <trkpt lat="45.95254" lon="4.81863">
        <ele>260</ele>
        <time>2018-06-29T08:41:21Z</time>
      </trkpt>
      <trkpt lat="45.95257" lon="4.81868">
        <ele>260</ele>
        <time>2018-06-29T08:41:22Z</time>
      </trkpt>
      <trkpt lat="45.95263" lon="4.81877">
        <ele>260</ele>
        <time>2018-06-29T08:41:24Z</time>
      </trkpt>
      <trkpt lat="45.95266" lon="4.81881">
        <ele>260</ele>
        <time>2018-06-29T08:41:25Z</time>
      </trkpt>
      <trkpt lat="45.95272" lon="4.81889">
        <ele>260</ele>
        <time>2018-06-29T08:41:27Z</time>
      </trkpt>
      <trkpt lat="45.95275" lon="4.81893">
        <ele>260</ele>
        <time>2018-06-29T08:41:28Z</time>
      </trkpt>
      <trkpt lat="45.95278" lon="4.81898">
        <ele>260</ele>
        <time>2018-06-29T08:41:29Z</time>
      </trkpt>
      <trkpt lat="45.95281" lon="4.81904">
        <ele>260</ele>
        <time>2018-06-29T08:41:30Z</time>
      </trkpt>
      <trkpt lat="45.95285" lon="4.81908">
        <ele>260</ele>
        <time>2018-06-29T08:41:31Z</time>
      </trkpt>
      <trkpt lat="45.95288" lon="4.81914">
        <ele>260</ele>
        <time>2018-06-29T08:41:32Z</time>
      </trkpt>
      <trkpt lat="45.95291" lon="4.81919">
        <ele>261</ele>
        <time>2018-06-29T08:41:33Z</time>
      </trkpt>
      <trkpt lat="45.95295" lon="4.81925">
        <ele>261</ele>
        <time>2018-06-29T08:41:34Z</time>
      </trkpt>
      <trkpt lat="45.95298" lon="4.8193">
        <ele>261</ele>
        <time>2018-06-29T08:41:35Z</time>
      </trkpt>
      <trkpt lat="45.95302" lon="4.81934">
        <ele>261</ele>
        <time>2018-06-29T08:41:36Z</time>
      </trkpt>
      <trkpt lat="45.95305" lon="4.81938">
        <ele>261</ele>
        <time>2018-06-29T08:41:37Z</time>
      </trkpt>
      <trkpt lat="45.9531" lon="4.81943">
        <ele>261</ele>
        <time>2018-06-29T08:41:38Z</time>
      </trkpt>
      <trkpt lat="45.95313" lon="4.81947">
        <ele>261</ele>
        <time>2018-06-29T08:41:39Z</time>
      </trkpt>
      <trkpt lat="45.95317" lon="4.81951">
        <ele>262</ele>
        <time>2018-06-29T08:41:40Z</time>
      </trkpt>
      <trkpt lat="45.95323" lon="4.81958">
        <ele>262</ele>
        <time>2018-06-29T08:41:42Z</time>
      </trkpt>
      <trkpt lat="45.95326" lon="4.81961">
        <ele>262</ele>
        <time>2018-06-29T08:41:43Z</time>
      </trkpt>
      <trkpt lat="45.95333" lon="4.81968">
        <ele>262</ele>
        <time>2018-06-29T08:41:45Z</time>
      </trkpt>
      <trkpt lat="45.95336" lon="4.8197">
        <ele>261</ele>
        <time>2018-06-29T08:41:46Z</time>
      </trkpt>
      <trkpt lat="45.95344" lon="4.81977">
        <ele>262</ele>
        <time>2018-06-29T08:41:48Z</time>
      </trkpt>
      <trkpt lat="45.95347" lon="4.81981">
        <ele>262</ele>
        <time>2018-06-29T08:41:49Z</time>
      </trkpt>
      <trkpt lat="45.95354" lon="4.81988">
        <ele>262</ele>
        <time>2018-06-29T08:41:51Z</time>
      </trkpt>
      <trkpt lat="45.95357" lon="4.81992">
        <ele>262</ele>
        <time>2018-06-29T08:41:52Z</time>
      </trkpt>
      <trkpt lat="45.95364" lon="4.81999">
        <ele>261</ele>
        <time>2018-06-29T08:41:54Z</time>
      </trkpt>
      <trkpt lat="45.95367" lon="4.82002">
        <ele>262</ele>
        <time>2018-06-29T08:41:55Z</time>
      </trkpt>
      <trkpt lat="45.95375" lon="4.82008">
        <ele>262</ele>
        <time>2018-06-29T08:41:57Z</time>
      </trkpt>
      <trkpt lat="45.95378" lon="4.82011">
        <ele>262</ele>
        <time>2018-06-29T08:41:58Z</time>
      </trkpt>
      <trkpt lat="45.95385" lon="4.82017">
        <ele>261</ele>
        <time>2018-06-29T08:42:00Z</time>
      </trkpt>
      <trkpt lat="45.9539" lon="4.8202">
        <ele>261</ele>
        <time>2018-06-29T08:42:01Z</time>
      </trkpt>
      <trkpt lat="45.95394" lon="4.82025">
        <ele>261</ele>
        <time>2018-06-29T08:42:02Z</time>
      </trkpt>
      <trkpt lat="45.95397" lon="4.8203">
        <ele>261</ele>
        <time>2018-06-29T08:42:03Z</time>
      </trkpt>
      <trkpt lat="45.954" lon="4.82035">
        <ele>261</ele>
        <time>2018-06-29T08:42:04Z</time>
      </trkpt>
      <trkpt lat="45.95404" lon="4.8204">
        <ele>261</ele>
        <time>2018-06-29T08:42:05Z</time>
      </trkpt>
      <trkpt lat="45.95408" lon="4.82045">
        <ele>261</ele>
        <time>2018-06-29T08:42:06Z</time>
      </trkpt>
      <trkpt lat="45.95412" lon="4.82048">
        <ele>261</ele>
        <time>2018-06-29T08:42:07Z</time>
      </trkpt>
      <trkpt lat="45.95416" lon="4.82053">
        <ele>261</ele>
        <time>2018-06-29T08:42:08Z</time>
      </trkpt>
      <trkpt lat="45.95419" lon="4.82057">
        <ele>260</ele>
        <time>2018-06-29T08:42:09Z</time>
      </trkpt>
      <trkpt lat="45.95423" lon="4.82061">
        <ele>260</ele>
        <time>2018-06-29T08:42:10Z</time>
      </trkpt>
      <trkpt lat="45.95427" lon="4.82066">
        <ele>260</ele>
        <time>2018-06-29T08:42:11Z</time>
      </trkpt>
      <trkpt lat="45.95431" lon="4.82071">
        <ele>260</ele>
        <time>2018-06-29T08:42:12Z</time>
      </trkpt>
      <trkpt lat="45.95436" lon="4.82075">
        <ele>260</ele>
        <time>2018-06-29T08:42:13Z</time>
      </trkpt>
      <trkpt lat="45.9544" lon="4.82079">
        <ele>260</ele>
        <time>2018-06-29T08:42:14Z</time>
      </trkpt>
      <trkpt lat="45.95445" lon="4.82083">
        <ele>260</ele>
        <time>2018-06-29T08:42:15Z</time>
      </trkpt>
      <trkpt lat="45.95449" lon="4.82087">
        <ele>260</ele>
        <time>2018-06-29T08:42:16Z</time>
      </trkpt>
      <trkpt lat="45.95454" lon="4.82092">
        <ele>260</ele>
        <time>2018-06-29T08:42:17Z</time>
      </trkpt>
      <trkpt lat="45.95457" lon="4.82097">
        <ele>260</ele>
        <time>2018-06-29T08:42:18Z</time>
      </trkpt>
      <trkpt lat="45.95461" lon="4.821">
        <ele>260</ele>
        <time>2018-06-29T08:42:19Z</time>
      </trkpt>
      <trkpt lat="45.95469" lon="4.82107">
        <ele>260</ele>
        <time>2018-06-29T08:42:21Z</time>
      </trkpt>
      <trkpt lat="45.95473" lon="4.82112">
        <ele>260</ele>
        <time>2018-06-29T08:42:22Z</time>
      </trkpt>
      <trkpt lat="45.95477" lon="4.82116">
        <ele>260</ele>
        <time>2018-06-29T08:42:23Z</time>
      </trkpt>
      <trkpt lat="45.95481" lon="4.8212">
        <ele>260</ele>
        <time>2018-06-29T08:42:24Z</time>
      </trkpt>
      <trkpt lat="45.95485" lon="4.82124">
        <ele>260</ele>
        <time>2018-06-29T08:42:25Z</time>
      </trkpt>
      <trkpt lat="45.95488" lon="4.82128">
        <ele>260</ele>
        <time>2018-06-29T08:42:26Z</time>
      </trkpt>
      <trkpt lat="45.95492" lon="4.82132">
        <ele>260</ele>
        <time>2018-06-29T08:42:27Z</time>
      </trkpt>
      <trkpt lat="45.95497" lon="4.82136">
        <ele>260</ele>
        <time>2018-06-29T08:42:28Z</time>
      </trkpt>
      <trkpt lat="45.95501" lon="4.82141">
        <ele>259</ele>
        <time>2018-06-29T08:42:29Z</time>
      </trkpt>
      <trkpt lat="45.95505" lon="4.82146">
        <ele>259</ele>
        <time>2018-06-29T08:42:30Z</time>
      </trkpt>
      <trkpt lat="45.95508" lon="4.8215">
        <ele>259</ele>
        <time>2018-06-29T08:42:31Z</time>
      </trkpt>
      <trkpt lat="45.95512" lon="4.82155">
        <ele>259</ele>
        <time>2018-06-29T08:42:32Z</time>
      </trkpt>
      <trkpt lat="45.95516" lon="4.82159">
        <ele>259</ele>
        <time>2018-06-29T08:42:33Z</time>
      </trkpt>
      <trkpt lat="45.9552" lon="4.82164">
        <ele>259</ele>
        <time>2018-06-29T08:42:34Z</time>
      </trkpt>
      <trkpt lat="45.95525" lon="4.82168">
        <ele>259</ele>
        <time>2018-06-29T08:42:35Z</time>
      </trkpt>
      <trkpt lat="45.95529" lon="4.82171">
        <ele>259</ele>
        <time>2018-06-29T08:42:36Z</time>
      </trkpt>
      <trkpt lat="45.95533" lon="4.82175">
        <ele>259</ele>
        <time>2018-06-29T08:42:37Z</time>
      </trkpt>
      <trkpt lat="45.95537" lon="4.8218">
        <ele>259</ele>
        <time>2018-06-29T08:42:38Z</time>
      </trkpt>
      <trkpt lat="45.95541" lon="4.82184">
        <ele>259</ele>
        <time>2018-06-29T08:42:39Z</time>
      </trkpt>
      <trkpt lat="45.95547" lon="4.82188">
        <ele>259</ele>
        <time>2018-06-29T08:42:40Z</time>
      </trkpt>
      <trkpt lat="45.95551" lon="4.82191">
        <ele>259</ele>
        <time>2018-06-29T08:42:41Z</time>
      </trkpt>
      <trkpt lat="45.95557" lon="4.82195">
        <ele>259</ele>
        <time>2018-06-29T08:42:42Z</time>
      </trkpt>
      <trkpt lat="45.95562" lon="4.82199">
        <ele>259</ele>
        <time>2018-06-29T08:42:43Z</time>
      </trkpt>
      <trkpt lat="45.95567" lon="4.82203">
        <ele>258</ele>
        <time>2018-06-29T08:42:44Z</time>
      </trkpt>
      <trkpt lat="45.95573" lon="4.82207">
        <ele>258</ele>
        <time>2018-06-29T08:42:45Z</time>
      </trkpt>
      <trkpt lat="45.95578" lon="4.82212">
        <ele>258</ele>
        <time>2018-06-29T08:42:46Z</time>
      </trkpt>
      <trkpt lat="45.95583" lon="4.82216">
        <ele>258</ele>
        <time>2018-06-29T08:42:47Z</time>
      </trkpt>
      <trkpt lat="45.95588" lon="4.8222">
        <ele>257</ele>
        <time>2018-06-29T08:42:48Z</time>
      </trkpt>
      <trkpt lat="45.95593" lon="4.82223">
        <ele>257</ele>
        <time>2018-06-29T08:42:49Z</time>
      </trkpt>
      <trkpt lat="45.95599" lon="4.82226">
        <ele>257</ele>
        <time>2018-06-29T08:42:50Z</time>
      </trkpt>
      <trkpt lat="45.95605" lon="4.82229">
        <ele>257</ele>
        <time>2018-06-29T08:42:51Z</time>
      </trkpt>
      <trkpt lat="45.95611" lon="4.8223">
        <ele>257</ele>
        <time>2018-06-29T08:42:52Z</time>
      </trkpt>
      <trkpt lat="45.95617" lon="4.82229">
        <ele>257</ele>
        <time>2018-06-29T08:42:53Z</time>
      </trkpt>
      <trkpt lat="45.95622" lon="4.82229">
        <ele>257</ele>
        <time>2018-06-29T08:42:54Z</time>
      </trkpt>
      <trkpt lat="45.95627" lon="4.82226">
        <ele>257</ele>
        <time>2018-06-29T08:42:55Z</time>
      </trkpt>
      <trkpt lat="45.95633" lon="4.82227">
        <ele>257</ele>
        <time>2018-06-29T08:42:56Z</time>
      </trkpt>
      <trkpt lat="45.95639" lon="4.82226">
        <ele>257</ele>
        <time>2018-06-29T08:42:57Z</time>
      </trkpt>
      <trkpt lat="45.95645" lon="4.82225">
        <ele>257</ele>
        <time>2018-06-29T08:42:58Z</time>
      </trkpt>
      <trkpt lat="45.95652" lon="4.82227">
        <ele>257</ele>
        <time>2018-06-29T08:42:59Z</time>
      </trkpt>
      <trkpt lat="45.95659" lon="4.82229">
        <ele>257</ele>
        <time>2018-06-29T08:43:00Z</time>
      </trkpt>
      <trkpt lat="45.95663" lon="4.82232">
        <ele>257</ele>
        <time>2018-06-29T08:43:01Z</time>
      </trkpt>
      <trkpt lat="45.95669" lon="4.82235">
        <ele>255</ele>
        <time>2018-06-29T08:43:02Z</time>
      </trkpt>
      <trkpt lat="45.95675" lon="4.82238">
        <ele>255</ele>
        <time>2018-06-29T08:43:03Z</time>
      </trkpt>
      <trkpt lat="45.95681" lon="4.82243">
        <ele>255</ele>
        <time>2018-06-29T08:43:04Z</time>
      </trkpt>
      <trkpt lat="45.95687" lon="4.82247">
        <ele>255</ele>
        <time>2018-06-29T08:43:05Z</time>
      </trkpt>
      <trkpt lat="45.95691" lon="4.82251">
        <ele>255</ele>
        <time>2018-06-29T08:43:06Z</time>
      </trkpt>
      <trkpt lat="45.95696" lon="4.82255">
        <ele>255</ele>
        <time>2018-06-29T08:43:07Z</time>
      </trkpt>
      <trkpt lat="45.95701" lon="4.82259">
        <ele>255</ele>
        <time>2018-06-29T08:43:08Z</time>
      </trkpt>
      <trkpt lat="45.95706" lon="4.82264">
        <ele>255</ele>
        <time>2018-06-29T08:43:09Z</time>
      </trkpt>
      <trkpt lat="45.9571" lon="4.8227">
        <ele>255</ele>
        <time>2018-06-29T08:43:10Z</time>
      </trkpt>
      <trkpt lat="45.95714" lon="4.82275">
        <ele>255</ele>
        <time>2018-06-29T08:43:11Z</time>
      </trkpt>
      <trkpt lat="45.95719" lon="4.82279">
        <ele>255</ele>
        <time>2018-06-29T08:43:12Z</time>
      </trkpt>
      <trkpt lat="45.95724" lon="4.82286">
        <ele>255</ele>
        <time>2018-06-29T08:43:13Z</time>
      </trkpt>
      <trkpt lat="45.95729" lon="4.8229">
        <ele>255</ele>
        <time>2018-06-29T08:43:14Z</time>
      </trkpt>
      <trkpt lat="45.95733" lon="4.82295">
        <ele>255</ele>
        <time>2018-06-29T08:43:15Z</time>
      </trkpt>
      <trkpt lat="45.95738" lon="4.823">
        <ele>255</ele>
        <time>2018-06-29T08:43:16Z</time>
      </trkpt>
      <trkpt lat="45.95742" lon="4.82305">
        <ele>255</ele>
        <time>2018-06-29T08:43:17Z</time>
      </trkpt>
      <trkpt lat="45.95747" lon="4.82311">
        <ele>256</ele>
        <time>2018-06-29T08:43:18Z</time>
      </trkpt>
      <trkpt lat="45.95753" lon="4.82313">
        <ele>253</ele>
        <time>2018-06-29T08:43:19Z</time>
      </trkpt>
      <trkpt lat="45.95758" lon="4.82319">
        <ele>253</ele>
        <time>2018-06-29T08:43:20Z</time>
      </trkpt>
      <trkpt lat="45.95762" lon="4.82326">
        <ele>253</ele>
        <time>2018-06-29T08:43:21Z</time>
      </trkpt>
      <trkpt lat="45.95767" lon="4.82332">
        <ele>253</ele>
        <time>2018-06-29T08:43:22Z</time>
      </trkpt>
      <trkpt lat="45.95772" lon="4.82337">
        <ele>254</ele>
        <time>2018-06-29T08:43:23Z</time>
      </trkpt>
      <trkpt lat="45.95778" lon="4.82341">
        <ele>253</ele>
        <time>2018-06-29T08:43:24Z</time>
      </trkpt>
      <trkpt lat="45.95783" lon="4.82346">
        <ele>253</ele>
        <time>2018-06-29T08:43:25Z</time>
      </trkpt>
      <trkpt lat="45.95787" lon="4.8235">
        <ele>253</ele>
        <time>2018-06-29T08:43:26Z</time>
      </trkpt>
      <trkpt lat="45.95793" lon="4.82354">
        <ele>252</ele>
        <time>2018-06-29T08:43:27Z</time>
      </trkpt>
      <trkpt lat="45.958" lon="4.82357">
        <ele>252</ele>
        <time>2018-06-29T08:43:28Z</time>
      </trkpt>
      <trkpt lat="45.95805" lon="4.8236">
        <ele>252</ele>
        <time>2018-06-29T08:43:29Z</time>
      </trkpt>
      <trkpt lat="45.95812" lon="4.82362">
        <ele>252</ele>
        <time>2018-06-29T08:43:30Z</time>
      </trkpt>
      <trkpt lat="45.95819" lon="4.82364">
        <ele>251</ele>
        <time>2018-06-29T08:43:31Z</time>
      </trkpt>
      <trkpt lat="45.95825" lon="4.82366">
        <ele>251</ele>
        <time>2018-06-29T08:43:32Z</time>
      </trkpt>
      <trkpt lat="45.95832" lon="4.82368">
        <ele>251</ele>
        <time>2018-06-29T08:43:33Z</time>
      </trkpt>
      <trkpt lat="45.95839" lon="4.82369">
        <ele>246</ele>
        <time>2018-06-29T08:43:34Z</time>
      </trkpt>
      <trkpt lat="45.95846" lon="4.82372">
        <ele>246</ele>
        <time>2018-06-29T08:43:35Z</time>
      </trkpt>
      <trkpt lat="45.95853" lon="4.82374">
        <ele>245</ele>
        <time>2018-06-29T08:43:36Z</time>
      </trkpt>
      <trkpt lat="45.95862" lon="4.82373">
        <ele>245</ele>
        <time>2018-06-29T08:43:37Z</time>
      </trkpt>
      <trkpt lat="45.9587" lon="4.82372">
        <ele>245</ele>
        <time>2018-06-29T08:43:38Z</time>
      </trkpt>
      <trkpt lat="45.95878" lon="4.82371">
        <ele>244</ele>
        <time>2018-06-29T08:43:39Z</time>
      </trkpt>
      <trkpt lat="45.95886" lon="4.8237">
        <ele>243</ele>
        <time>2018-06-29T08:43:40Z</time>
      </trkpt>
      <trkpt lat="45.95896" lon="4.8237">
        <ele>243</ele>
        <time>2018-06-29T08:43:41Z</time>
      </trkpt>
      <trkpt lat="45.95904" lon="4.8237">
        <ele>243</ele>
        <time>2018-06-29T08:43:42Z</time>
      </trkpt>
      <trkpt lat="45.95913" lon="4.8237">
        <ele>242</ele>
        <time>2018-06-29T08:43:43Z</time>
      </trkpt>
      <trkpt lat="45.95922" lon="4.82369">
        <ele>238</ele>
        <time>2018-06-29T08:43:44Z</time>
      </trkpt>
      <trkpt lat="45.9593" lon="4.82365">
        <ele>238</ele>
        <time>2018-06-29T08:43:45Z</time>
      </trkpt>
      <trkpt lat="45.9594" lon="4.82364">
        <ele>238</ele>
        <time>2018-06-29T08:43:46Z</time>
      </trkpt>
      <trkpt lat="45.95949" lon="4.82362">
        <ele>237</ele>
        <time>2018-06-29T08:43:47Z</time>
      </trkpt>
      <trkpt lat="45.95958" lon="4.82361">
        <ele>237</ele>
        <time>2018-06-29T08:43:48Z</time>
      </trkpt>
      <trkpt lat="45.95966" lon="4.82359">
        <ele>237</ele>
        <time>2018-06-29T08:43:49Z</time>
      </trkpt>
      <trkpt lat="45.95973" lon="4.82358">
        <ele>237</ele>
        <time>2018-06-29T08:43:50Z</time>
      </trkpt>
      <trkpt lat="45.95981" lon="4.82357">
        <ele>237</ele>
        <time>2018-06-29T08:43:51Z</time>
      </trkpt>
      <trkpt lat="45.95989" lon="4.82355">
        <ele>236</ele>
        <time>2018-06-29T08:43:52Z</time>
      </trkpt>
      <trkpt lat="45.95996" lon="4.82356">
        <ele>236</ele>
        <time>2018-06-29T08:43:53Z</time>
      </trkpt>
      <trkpt lat="45.96002" lon="4.82357">
        <ele>235</ele>
        <time>2018-06-29T08:43:54Z</time>
      </trkpt>
      <trkpt lat="45.96007" lon="4.82357">
        <ele>235</ele>
        <time>2018-06-29T08:43:55Z</time>
      </trkpt>
      <trkpt lat="45.96012" lon="4.82359">
        <ele>235</ele>
        <time>2018-06-29T08:43:56Z</time>
      </trkpt>
      <trkpt lat="45.96017" lon="4.82362">
        <ele>235</ele>
        <time>2018-06-29T08:43:57Z</time>
      </trkpt>
      <trkpt lat="45.96018" lon="4.82368">
        <ele>235</ele>
        <time>2018-06-29T08:43:58Z</time>
      </trkpt>
      <trkpt lat="45.96019" lon="4.82375">
        <ele>235</ele>
        <time>2018-06-29T08:43:59Z</time>
      </trkpt>
      <trkpt lat="45.9602" lon="4.82381">
        <ele>235</ele>
        <time>2018-06-29T08:44:00Z</time>
      </trkpt>
      <trkpt lat="45.9602" lon="4.82388">
        <ele>235</ele>
        <time>2018-06-29T08:44:01Z</time>
      </trkpt>
      <trkpt lat="45.9602" lon="4.82396">
        <ele>235</ele>
        <time>2018-06-29T08:44:02Z</time>
      </trkpt>
      <trkpt lat="45.9602" lon="4.82403">
        <ele>235</ele>
        <time>2018-06-29T08:44:03Z</time>
      </trkpt>
      <trkpt lat="45.96021" lon="4.82411">
        <ele>235</ele>
        <time>2018-06-29T08:44:04Z</time>
      </trkpt>
      <trkpt lat="45.96021" lon="4.82419">
        <ele>235</ele>
        <time>2018-06-29T08:44:05Z</time>
      </trkpt>
      <trkpt lat="45.96021" lon="4.82426">
        <ele>235</ele>
        <time>2018-06-29T08:44:06Z</time>
      </trkpt>
      <trkpt lat="45.9602" lon="4.82433">
        <ele>235</ele>
        <time>2018-06-29T08:44:07Z</time>
      </trkpt>
      <trkpt lat="45.96019" lon="4.82441">
        <ele>235</ele>
        <time>2018-06-29T08:44:08Z</time>
      </trkpt>
      <trkpt lat="45.96018" lon="4.82448">
        <ele>235</ele>
        <time>2018-06-29T08:44:09Z</time>
      </trkpt>
      <trkpt lat="45.96017" lon="4.82455">
        <ele>235</ele>
        <time>2018-06-29T08:44:10Z</time>
      </trkpt>
      <trkpt lat="45.96017" lon="4.82462">
        <ele>235</ele>
        <time>2018-06-29T08:44:11Z</time>
      </trkpt>
      <trkpt lat="45.96016" lon="4.82469">
        <ele>235</ele>
        <time>2018-06-29T08:44:12Z</time>
      </trkpt>
      <trkpt lat="45.96016" lon="4.82476">
        <ele>235</ele>
        <time>2018-06-29T08:44:13Z</time>
      </trkpt>
      <trkpt lat="45.96015" lon="4.82483">
        <ele>235</ele>
        <time>2018-06-29T08:44:14Z</time>
      </trkpt>
      <trkpt lat="45.96014" lon="4.8249">
        <ele>235</ele>
        <time>2018-06-29T08:44:15Z</time>
      </trkpt>
      <trkpt lat="45.96013" lon="4.82496">
        <ele>235</ele>
        <time>2018-06-29T08:44:16Z</time>
      </trkpt>
      <trkpt lat="45.9601" lon="4.82508">
        <ele>235</ele>
        <time>2018-06-29T08:44:18Z</time>
      </trkpt>
      <trkpt lat="45.9601" lon="4.82516">
        <ele>235</ele>
        <time>2018-06-29T08:44:19Z</time>
      </trkpt>
      <trkpt lat="45.9601" lon="4.82524">
        <ele>235</ele>
        <time>2018-06-29T08:44:20Z</time>
      </trkpt>
      <trkpt lat="45.9601" lon="4.8253">
        <ele>235</ele>
        <time>2018-06-29T08:44:21Z</time>
      </trkpt>
      <trkpt lat="45.96011" lon="4.8254">
        <ele>235</ele>
        <time>2018-06-29T08:44:22Z</time>
      </trkpt>
      <trkpt lat="45.96011" lon="4.82547">
        <ele>235</ele>
        <time>2018-06-29T08:44:23Z</time>
      </trkpt>
      <trkpt lat="45.96011" lon="4.82554">
        <ele>235</ele>
        <time>2018-06-29T08:44:24Z</time>
      </trkpt>
      <trkpt lat="45.96012" lon="4.82563">
        <ele>235</ele>
        <time>2018-06-29T08:44:25Z</time>
      </trkpt>
      <trkpt lat="45.96014" lon="4.82571">
        <ele>234</ele>
        <time>2018-06-29T08:44:26Z</time>
      </trkpt>
      <trkpt lat="45.96015" lon="4.82576">
        <ele>234</ele>
        <time>2018-06-29T08:44:27Z</time>
      </trkpt>
      <trkpt lat="45.96017" lon="4.82583">
        <ele>234</ele>
        <time>2018-06-29T08:44:28Z</time>
      </trkpt>
      <trkpt lat="45.96019" lon="4.8259">
        <ele>235</ele>
        <time>2018-06-29T08:44:29Z</time>
      </trkpt>
      <trkpt lat="45.96022" lon="4.82599">
        <ele>235</ele>
        <time>2018-06-29T08:44:30Z</time>
      </trkpt>
      <trkpt lat="45.96023" lon="4.82604">
        <ele>235</ele>
        <time>2018-06-29T08:44:31Z</time>
      </trkpt>
      <trkpt lat="45.96026" lon="4.82608">
        <ele>235</ele>
        <time>2018-06-29T08:44:32Z</time>
      </trkpt>
      <trkpt lat="45.96029" lon="4.82613">
        <ele>235</ele>
        <time>2018-06-29T08:44:33Z</time>
      </trkpt>
      <trkpt lat="45.96031" lon="4.82621">
        <ele>235</ele>
        <time>2018-06-29T08:44:34Z</time>
      </trkpt>
      <trkpt lat="45.96034" lon="4.82628">
        <ele>235</ele>
        <time>2018-06-29T08:44:35Z</time>
      </trkpt>
      <trkpt lat="45.96037" lon="4.82633">
        <ele>235</ele>
        <time>2018-06-29T08:44:36Z</time>
      </trkpt>
      <trkpt lat="45.96038" lon="4.8264">
        <ele>235</ele>
        <time>2018-06-29T08:44:37Z</time>
      </trkpt>
      <trkpt lat="45.96042" lon="4.82648">
        <ele>235</ele>
        <time>2018-06-29T08:44:38Z</time>
      </trkpt>
      <trkpt lat="45.96045" lon="4.82655">
        <ele>235</ele>
        <time>2018-06-29T08:44:39Z</time>
      </trkpt>
      <trkpt lat="45.96048" lon="4.82662">
        <ele>235</ele>
        <time>2018-06-29T08:44:40Z</time>
      </trkpt>
      <trkpt lat="45.96051" lon="4.82669">
        <ele>236</ele>
        <time>2018-06-29T08:44:41Z</time>
      </trkpt>
      <trkpt lat="45.96055" lon="4.82675">
        <ele>236</ele>
        <time>2018-06-29T08:44:42Z</time>
      </trkpt>
      <trkpt lat="45.96057" lon="4.82681">
        <ele>236</ele>
        <time>2018-06-29T08:44:43Z</time>
      </trkpt>
      <trkpt lat="45.96061" lon="4.82691">
        <ele>236</ele>
        <time>2018-06-29T08:44:45Z</time>
      </trkpt>
      <trkpt lat="45.96062" lon="4.82699">
        <ele>237</ele>
        <time>2018-06-29T08:44:46Z</time>
      </trkpt>
      <trkpt lat="45.96065" lon="4.82711">
        <ele>237</ele>
        <time>2018-06-29T08:44:48Z</time>
      </trkpt>
      <trkpt lat="45.96067" lon="4.82718">
        <ele>237</ele>
        <time>2018-06-29T08:44:49Z</time>
      </trkpt>
      <trkpt lat="45.96069" lon="4.82724">
        <ele>237</ele>
        <time>2018-06-29T08:44:50Z</time>
      </trkpt>
      <trkpt lat="45.96071" lon="4.8273">
        <ele>237</ele>
        <time>2018-06-29T08:44:51Z</time>
      </trkpt>
      <trkpt lat="45.96074" lon="4.82741">
        <ele>237</ele>
        <time>2018-06-29T08:44:53Z</time>
      </trkpt>
      <trkpt lat="45.96076" lon="4.82746">
        <ele>237</ele>
        <time>2018-06-29T08:44:54Z</time>
      </trkpt>
      <trkpt lat="45.96077" lon="4.82753">
        <ele>237</ele>
        <time>2018-06-29T08:44:55Z</time>
      </trkpt>
      <trkpt lat="45.96078" lon="4.8276">
        <ele>238</ele>
        <time>2018-06-29T08:44:56Z</time>
      </trkpt>
      <trkpt lat="45.9608" lon="4.82768">
        <ele>238</ele>
        <time>2018-06-29T08:44:57Z</time>
      </trkpt>
      <trkpt lat="45.96083" lon="4.82775">
        <ele>238</ele>
        <time>2018-06-29T08:44:58Z</time>
      </trkpt>
      <trkpt lat="45.96085" lon="4.82781">
        <ele>237</ele>
        <time>2018-06-29T08:44:59Z</time>
      </trkpt>
      <trkpt lat="45.96086" lon="4.82787">
        <ele>237</ele>
        <time>2018-06-29T08:45:00Z</time>
      </trkpt>
      <trkpt lat="45.96088" lon="4.82798">
        <ele>237</ele>
        <time>2018-06-29T08:45:02Z</time>
      </trkpt>
      <trkpt lat="45.96089" lon="4.82804">
        <ele>237</ele>
        <time>2018-06-29T08:45:03Z</time>
      </trkpt>
      <trkpt lat="45.96091" lon="4.82811">
        <ele>237</ele>
        <time>2018-06-29T08:45:04Z</time>
      </trkpt>
      <trkpt lat="45.96093" lon="4.8282">
        <ele>237</ele>
        <time>2018-06-29T08:45:05Z</time>
      </trkpt>
      <trkpt lat="45.96096" lon="4.82826">
        <ele>237</ele>
        <time>2018-06-29T08:45:06Z</time>
      </trkpt>
      <trkpt lat="45.96098" lon="4.82833">
        <ele>237</ele>
        <time>2018-06-29T08:45:07Z</time>
      </trkpt>
      <trkpt lat="45.96099" lon="4.82841">
        <ele>237</ele>
        <time>2018-06-29T08:45:08Z</time>
      </trkpt>
      <trkpt lat="45.96101" lon="4.8285">
        <ele>237</ele>
        <time>2018-06-29T08:45:09Z</time>
      </trkpt>
      <trkpt lat="45.96101" lon="4.82857">
        <ele>237</ele>
        <time>2018-06-29T08:45:10Z</time>
      </trkpt>
      <trkpt lat="45.961" lon="4.82865">
        <ele>237</ele>
        <time>2018-06-29T08:45:11Z</time>
      </trkpt>
      <trkpt lat="45.961" lon="4.82875">
        <ele>237</ele>
        <time>2018-06-29T08:45:13Z</time>
      </trkpt>
      <trkpt lat="45.96099" lon="4.82881">
        <ele>237</ele>
        <time>2018-06-29T08:45:14Z</time>
      </trkpt>
      <trkpt lat="45.96096" lon="4.82888">
        <ele>237</ele>
        <time>2018-06-29T08:45:15Z</time>
      </trkpt>
      <trkpt lat="45.96095" lon="4.82893">
        <ele>237</ele>
        <time>2018-06-29T08:45:16Z</time>
      </trkpt>
      <trkpt lat="45.96093" lon="4.829">
        <ele>238</ele>
        <time>2018-06-29T08:45:17Z</time>
      </trkpt>
      <trkpt lat="45.96091" lon="4.82905">
        <ele>238</ele>
        <time>2018-06-29T08:45:18Z</time>
      </trkpt>
      <trkpt lat="45.96088" lon="4.82917">
        <ele>238</ele>
        <time>2018-06-29T08:45:20Z</time>
      </trkpt>
      <trkpt lat="45.96086" lon="4.82924">
        <ele>238</ele>
        <time>2018-06-29T08:45:21Z</time>
      </trkpt>
      <trkpt lat="45.96085" lon="4.8293">
        <ele>238</ele>
        <time>2018-06-29T08:45:22Z</time>
      </trkpt>
      <trkpt lat="45.96083" lon="4.82937">
        <ele>240</ele>
        <time>2018-06-29T08:45:23Z</time>
      </trkpt>
      <trkpt lat="45.96081" lon="4.82945">
        <ele>241</ele>
        <time>2018-06-29T08:45:24Z</time>
      </trkpt>
      <trkpt lat="45.96079" lon="4.82953">
        <ele>241</ele>
        <time>2018-06-29T08:45:25Z</time>
      </trkpt>
      <trkpt lat="45.96077" lon="4.8296">
        <ele>241</ele>
        <time>2018-06-29T08:45:26Z</time>
      </trkpt>
      <trkpt lat="45.96075" lon="4.82966">
        <ele>241</ele>
        <time>2018-06-29T08:45:27Z</time>
      </trkpt>
      <trkpt lat="45.96072" lon="4.82976">
        <ele>241</ele>
        <time>2018-06-29T08:45:29Z</time>
      </trkpt>
      <trkpt lat="45.96072" lon="4.82982">
        <ele>241</ele>
        <time>2018-06-29T08:45:30Z</time>
      </trkpt>
      <trkpt lat="45.9607" lon="4.8299">
        <ele>241</ele>
        <time>2018-06-29T08:45:32Z</time>
      </trkpt>
      <trkpt lat="45.9607" lon="4.83">
        <ele>241</ele>
        <time>2018-06-29T08:45:33Z</time>
      </trkpt>
      <trkpt lat="45.9607" lon="4.83011">
        <ele>242</ele>
        <time>2018-06-29T08:45:35Z</time>
      </trkpt>
      <trkpt lat="45.96069" lon="4.83016">
        <ele>242</ele>
        <time>2018-06-29T08:45:36Z</time>
      </trkpt>
      <trkpt lat="45.96069" lon="4.83022">
        <ele>242</ele>
        <time>2018-06-29T08:45:37Z</time>
      </trkpt>
      <trkpt lat="45.9607" lon="4.83029">
        <ele>242</ele>
        <time>2018-06-29T08:45:38Z</time>
      </trkpt>
      <trkpt lat="45.9607" lon="4.83037">
        <ele>243</ele>
        <time>2018-06-29T08:45:39Z</time>
      </trkpt>
      <trkpt lat="45.96071" lon="4.83044">
        <ele>243</ele>
        <time>2018-06-29T08:45:40Z</time>
      </trkpt>
      <trkpt lat="45.96073" lon="4.83052">
        <ele>243</ele>
        <time>2018-06-29T08:45:41Z</time>
      </trkpt>
      <trkpt lat="45.96075" lon="4.8306">
        <ele>242</ele>
        <time>2018-06-29T08:45:42Z</time>
      </trkpt>
      <trkpt lat="45.96077" lon="4.83069">
        <ele>242</ele>
        <time>2018-06-29T08:45:43Z</time>
      </trkpt>
      <trkpt lat="45.9608" lon="4.83075">
        <ele>241</ele>
        <time>2018-06-29T08:45:44Z</time>
      </trkpt>
      <trkpt lat="45.96082" lon="4.83081">
        <ele>240</ele>
        <time>2018-06-29T08:45:45Z</time>
      </trkpt>
      <trkpt lat="45.96085" lon="4.83089">
        <ele>240</ele>
        <time>2018-06-29T08:45:46Z</time>
      </trkpt>
      <trkpt lat="45.96086" lon="4.83096">
        <ele>240</ele>
        <time>2018-06-29T08:45:47Z</time>
      </trkpt>
      <trkpt lat="45.96086" lon="4.83102">
        <ele>240</ele>
        <time>2018-06-29T08:45:48Z</time>
      </trkpt>
      <trkpt lat="45.96086" lon="4.83109">
        <ele>240</ele>
        <time>2018-06-29T08:45:49Z</time>
      </trkpt>
      <trkpt lat="45.96086" lon="4.83116">
        <ele>240</ele>
        <time>2018-06-29T08:45:50Z</time>
      </trkpt>
      <trkpt lat="45.96087" lon="4.83122">
        <ele>240</ele>
        <time>2018-06-29T08:45:51Z</time>
      </trkpt>
      <trkpt lat="45.96088" lon="4.83129">
        <ele>240</ele>
        <time>2018-06-29T08:45:52Z</time>
      </trkpt>
      <trkpt lat="45.96087" lon="4.83137">
        <ele>240</ele>
        <time>2018-06-29T08:45:53Z</time>
      </trkpt>
      <trkpt lat="45.96087" lon="4.83144">
        <ele>240</ele>
        <time>2018-06-29T08:45:54Z</time>
      </trkpt>
      <trkpt lat="45.96088" lon="4.83152">
        <ele>240</ele>
        <time>2018-06-29T08:45:55Z</time>
      </trkpt>
      <trkpt lat="45.96088" lon="4.8316">
        <ele>240</ele>
        <time>2018-06-29T08:45:56Z</time>
      </trkpt>
      <trkpt lat="45.96088" lon="4.83167">
        <ele>240</ele>
        <time>2018-06-29T08:45:57Z</time>
      </trkpt>
      <trkpt lat="45.96088" lon="4.83176">
        <ele>240</ele>
        <time>2018-06-29T08:45:58Z</time>
      </trkpt>
      <trkpt lat="45.96087" lon="4.83185">
        <ele>240</ele>
        <time>2018-06-29T08:45:59Z</time>
      </trkpt>
      <trkpt lat="45.96087" lon="4.83192">
        <ele>240</ele>
        <time>2018-06-29T08:46:00Z</time>
      </trkpt>
      <trkpt lat="45.96087" lon="4.832">
        <ele>240</ele>
        <time>2018-06-29T08:46:01Z</time>
      </trkpt>
      <trkpt lat="45.96089" lon="4.83209">
        <ele>240</ele>
        <time>2018-06-29T08:46:02Z</time>
      </trkpt>
      <trkpt lat="45.96089" lon="4.83215">
        <ele>240</ele>
        <time>2018-06-29T08:46:03Z</time>
      </trkpt>
      <trkpt lat="45.9609" lon="4.83226">
        <ele>240</ele>
        <time>2018-06-29T08:46:04Z</time>
      </trkpt>
      <trkpt lat="45.9609" lon="4.83232">
        <ele>240</ele>
        <time>2018-06-29T08:46:05Z</time>
      </trkpt>
      <trkpt lat="45.9609" lon="4.8324">
        <ele>240</ele>
        <time>2018-06-29T08:46:06Z</time>
      </trkpt>
      <trkpt lat="45.9609" lon="4.83249">
        <ele>240</ele>
        <time>2018-06-29T08:46:07Z</time>
      </trkpt>
      <trkpt lat="45.9609" lon="4.83257">
        <ele>240</ele>
        <time>2018-06-29T08:46:08Z</time>
      </trkpt>
      <trkpt lat="45.96091" lon="4.83265">
        <ele>241</ele>
        <time>2018-06-29T08:46:09Z</time>
      </trkpt>
      <trkpt lat="45.96091" lon="4.83273">
        <ele>241</ele>
        <time>2018-06-29T08:46:10Z</time>
      </trkpt>
      <trkpt lat="45.96091" lon="4.8328">
        <ele>241</ele>
        <time>2018-06-29T08:46:11Z</time>
      </trkpt>
      <trkpt lat="45.96093" lon="4.83289">
        <ele>241</ele>
        <time>2018-06-29T08:46:12Z</time>
      </trkpt>
      <trkpt lat="45.96093" lon="4.83296">
        <ele>241</ele>
        <time>2018-06-29T08:46:13Z</time>
      </trkpt>
      <trkpt lat="45.96094" lon="4.83304">
        <ele>241</ele>
        <time>2018-06-29T08:46:14Z</time>
      </trkpt>
      <trkpt lat="45.96095" lon="4.83311">
        <ele>241</ele>
        <time>2018-06-29T08:46:15Z</time>
      </trkpt>
      <trkpt lat="45.96097" lon="4.83318">
        <ele>241</ele>
        <time>2018-06-29T08:46:16Z</time>
      </trkpt>
      <trkpt lat="45.96098" lon="4.8333">
        <ele>241</ele>
        <time>2018-06-29T08:46:18Z</time>
      </trkpt>
      <trkpt lat="45.96099" lon="4.83338">
        <ele>242</ele>
        <time>2018-06-29T08:46:19Z</time>
      </trkpt>
      <trkpt lat="45.96101" lon="4.83345">
        <ele>242</ele>
        <time>2018-06-29T08:46:20Z</time>
      </trkpt>
      <trkpt lat="45.96103" lon="4.83352">
        <ele>242</ele>
        <time>2018-06-29T08:46:21Z</time>
      </trkpt>
      <trkpt lat="45.96106" lon="4.83361">
        <ele>242</ele>
        <time>2018-06-29T08:46:23Z</time>
      </trkpt>
      <trkpt lat="45.96107" lon="4.83369">
        <ele>242</ele>
        <time>2018-06-29T08:46:24Z</time>
      </trkpt>
      <trkpt lat="45.96109" lon="4.83377">
        <ele>242</ele>
        <time>2018-06-29T08:46:25Z</time>
      </trkpt>
      <trkpt lat="45.96111" lon="4.83384">
        <ele>242</ele>
        <time>2018-06-29T08:46:26Z</time>
      </trkpt>
      <trkpt lat="45.96113" lon="4.8339">
        <ele>243</ele>
        <time>2018-06-29T08:46:27Z</time>
      </trkpt>
      <trkpt lat="45.96113" lon="4.83397">
        <ele>243</ele>
        <time>2018-06-29T08:46:28Z</time>
      </trkpt>
      <trkpt lat="45.96114" lon="4.83404">
        <ele>243</ele>
        <time>2018-06-29T08:46:29Z</time>
      </trkpt>
      <trkpt lat="45.96116" lon="4.8341">
        <ele>243</ele>
        <time>2018-06-29T08:46:30Z</time>
      </trkpt>
      <trkpt lat="45.96118" lon="4.83417">
        <ele>243</ele>
        <time>2018-06-29T08:46:31Z</time>
      </trkpt>
      <trkpt lat="45.9612" lon="4.83424">
        <ele>243</ele>
        <time>2018-06-29T08:46:32Z</time>
      </trkpt>
      <trkpt lat="45.96121" lon="4.83431">
        <ele>242</ele>
        <time>2018-06-29T08:46:33Z</time>
      </trkpt>
      <trkpt lat="45.96122" lon="4.83439">
        <ele>242</ele>
        <time>2018-06-29T08:46:34Z</time>
      </trkpt>
      <trkpt lat="45.96124" lon="4.8345">
        <ele>242</ele>
        <time>2018-06-29T08:46:36Z</time>
      </trkpt>
      <trkpt lat="45.96125" lon="4.83457">
        <ele>242</ele>
        <time>2018-06-29T08:46:37Z</time>
      </trkpt>
      <trkpt lat="45.96126" lon="4.83463">
        <ele>242</ele>
        <time>2018-06-29T08:46:38Z</time>
      </trkpt>
      <trkpt lat="45.96127" lon="4.8347">
        <ele>242</ele>
        <time>2018-06-29T08:46:39Z</time>
      </trkpt>
      <trkpt lat="45.96129" lon="4.83476">
        <ele>242</ele>
        <time>2018-06-29T08:46:40Z</time>
      </trkpt>
      <trkpt lat="45.9613" lon="4.83483">
        <ele>242</ele>
        <time>2018-06-29T08:46:41Z</time>
      </trkpt>
      <trkpt lat="45.96132" lon="4.83494">
        <ele>242</ele>
        <time>2018-06-29T08:46:43Z</time>
      </trkpt>
      <trkpt lat="45.96132" lon="4.83497">
        <ele>242</ele>
        <time>2018-06-29T08:46:44Z</time>
      </trkpt>
      <trkpt lat="45.96134" lon="4.83504">
        <ele>242</ele>
        <time>2018-06-29T08:46:45Z</time>
      </trkpt>
      <trkpt lat="45.96135" lon="4.83509">
        <ele>242</ele>
        <time>2018-06-29T08:46:46Z</time>
      </trkpt>
      <trkpt lat="45.96137" lon="4.8352">
        <ele>242</ele>
        <time>2018-06-29T08:46:48Z</time>
      </trkpt>
      <trkpt lat="45.96138" lon="4.83526">
        <ele>242</ele>
        <time>2018-06-29T08:46:49Z</time>
      </trkpt>
      <trkpt lat="45.9614" lon="4.83538">
        <ele>242</ele>
        <time>2018-06-29T08:46:51Z</time>
      </trkpt>
      <trkpt lat="45.96142" lon="4.83544">
        <ele>242</ele>
        <time>2018-06-29T08:46:52Z</time>
      </trkpt>
      <trkpt lat="45.96143" lon="4.83551">
        <ele>242</ele>
        <time>2018-06-29T08:46:53Z</time>
      </trkpt>
      <trkpt lat="45.96144" lon="4.83557">
        <ele>242</ele>
        <time>2018-06-29T08:46:54Z</time>
      </trkpt>
      <trkpt lat="45.96147" lon="4.83569">
        <ele>241</ele>
        <time>2018-06-29T08:46:56Z</time>
      </trkpt>
      <trkpt lat="45.96149" lon="4.83575">
        <ele>241</ele>
        <time>2018-06-29T08:46:57Z</time>
      </trkpt>
      <trkpt lat="45.96152" lon="4.83587">
        <ele>241</ele>
        <time>2018-06-29T08:46:59Z</time>
      </trkpt>
      <trkpt lat="45.96153" lon="4.83592">
        <ele>242</ele>
        <time>2018-06-29T08:47:00Z</time>
      </trkpt>
      <trkpt lat="45.96156" lon="4.836">
        <ele>242</ele>
        <time>2018-06-29T08:47:01Z</time>
      </trkpt>
      <trkpt lat="45.96157" lon="4.83606">
        <ele>242</ele>
        <time>2018-06-29T08:47:02Z</time>
      </trkpt>
      <trkpt lat="45.96157" lon="4.83613">
        <ele>242</ele>
        <time>2018-06-29T08:47:03Z</time>
      </trkpt>
      <trkpt lat="45.96159" lon="4.83619">
        <ele>242</ele>
        <time>2018-06-29T08:47:04Z</time>
      </trkpt>
      <trkpt lat="45.9616" lon="4.83625">
        <ele>242</ele>
        <time>2018-06-29T08:47:05Z</time>
      </trkpt>
      <trkpt lat="45.96163" lon="4.83631">
        <ele>243</ele>
        <time>2018-06-29T08:47:06Z</time>
      </trkpt>
      <trkpt lat="45.96167" lon="4.83637">
        <ele>243</ele>
        <time>2018-06-29T08:47:07Z</time>
      </trkpt>
      <trkpt lat="45.9617" lon="4.83644">
        <ele>242</ele>
        <time>2018-06-29T08:47:08Z</time>
      </trkpt>
      <trkpt lat="45.96172" lon="4.8365">
        <ele>242</ele>
        <time>2018-06-29T08:47:09Z</time>
      </trkpt>
      <trkpt lat="45.96177" lon="4.83656">
        <ele>242</ele>
        <time>2018-06-29T08:47:10Z</time>
      </trkpt>
      <trkpt lat="45.9618" lon="4.83662">
        <ele>242</ele>
        <time>2018-06-29T08:47:11Z</time>
      </trkpt>
      <trkpt lat="45.96183" lon="4.83666">
        <ele>242</ele>
        <time>2018-06-29T08:47:12Z</time>
      </trkpt>
      <trkpt lat="45.96187" lon="4.83671">
        <ele>243</ele>
        <time>2018-06-29T08:47:13Z</time>
      </trkpt>
      <trkpt lat="45.96191" lon="4.83675">
        <ele>243</ele>
        <time>2018-06-29T08:47:14Z</time>
      </trkpt>
      <trkpt lat="45.96194" lon="4.83679">
        <ele>243</ele>
        <time>2018-06-29T08:47:15Z</time>
      </trkpt>
      <trkpt lat="45.96198" lon="4.83684">
        <ele>243</ele>
        <time>2018-06-29T08:47:16Z</time>
      </trkpt>
      <trkpt lat="45.96204" lon="4.83686">
        <ele>243</ele>
        <time>2018-06-29T08:47:17Z</time>
      </trkpt>
      <trkpt lat="45.9621" lon="4.83688">
        <ele>243</ele>
        <time>2018-06-29T08:47:18Z</time>
      </trkpt>
      <trkpt lat="45.96214" lon="4.83693">
        <ele>243</ele>
        <time>2018-06-29T08:47:19Z</time>
      </trkpt>
      <trkpt lat="45.96217" lon="4.83699">
        <ele>244</ele>
        <time>2018-06-29T08:47:20Z</time>
      </trkpt>
      <trkpt lat="45.96222" lon="4.83705">
        <ele>244</ele>
        <time>2018-06-29T08:47:21Z</time>
      </trkpt>
      <trkpt lat="45.96225" lon="4.83709">
        <ele>244</ele>
        <time>2018-06-29T08:47:22Z</time>
      </trkpt>
      <trkpt lat="45.9623" lon="4.83714">
        <ele>244</ele>
        <time>2018-06-29T08:47:23Z</time>
      </trkpt>
      <trkpt lat="45.96235" lon="4.83719">
        <ele>244</ele>
        <time>2018-06-29T08:47:24Z</time>
      </trkpt>
      <trkpt lat="45.96238" lon="4.83724">
        <ele>244</ele>
        <time>2018-06-29T08:47:25Z</time>
      </trkpt>
      <trkpt lat="45.96243" lon="4.83729">
        <ele>244</ele>
        <time>2018-06-29T08:47:26Z</time>
      </trkpt>
      <trkpt lat="45.96246" lon="4.83735">
        <ele>244</ele>
        <time>2018-06-29T08:47:27Z</time>
      </trkpt>
      <trkpt lat="45.96251" lon="4.8374">
        <ele>245</ele>
        <time>2018-06-29T08:47:28Z</time>
      </trkpt>
      <trkpt lat="45.96255" lon="4.83745">
        <ele>245</ele>
        <time>2018-06-29T08:47:29Z</time>
      </trkpt>
      <trkpt lat="45.96258" lon="4.83749">
        <ele>245</ele>
        <time>2018-06-29T08:47:30Z</time>
      </trkpt>
      <trkpt lat="45.96263" lon="4.83754">
        <ele>245</ele>
        <time>2018-06-29T08:47:31Z</time>
      </trkpt>
      <trkpt lat="45.96267" lon="4.83758">
        <ele>245</ele>
        <time>2018-06-29T08:47:32Z</time>
      </trkpt>
      <trkpt lat="45.96274" lon="4.83762">
        <ele>245</ele>
        <time>2018-06-29T08:47:34Z</time>
      </trkpt>
      <trkpt lat="45.96278" lon="4.83766">
        <ele>245</ele>
        <time>2018-06-29T08:47:35Z</time>
      </trkpt>
      <trkpt lat="45.96282" lon="4.8377">
        <ele>245</ele>
        <time>2018-06-29T08:47:36Z</time>
      </trkpt>
      <trkpt lat="45.96287" lon="4.83771">
        <ele>245</ele>
        <time>2018-06-29T08:47:37Z</time>
      </trkpt>
      <trkpt lat="45.96291" lon="4.83774">
        <ele>245</ele>
        <time>2018-06-29T08:47:38Z</time>
      </trkpt>
      <trkpt lat="45.96295" lon="4.83778">
        <ele>245</ele>
        <time>2018-06-29T08:47:39Z</time>
      </trkpt>
      <trkpt lat="45.96299" lon="4.83783">
        <ele>245</ele>
        <time>2018-06-29T08:47:40Z</time>
      </trkpt>
      <trkpt lat="45.96304" lon="4.83785">
        <ele>245</ele>
        <time>2018-06-29T08:47:41Z</time>
      </trkpt>
      <trkpt lat="45.96307" lon="4.83789">
        <ele>245</ele>
        <time>2018-06-29T08:47:42Z</time>
      </trkpt>
      <trkpt lat="45.96312" lon="4.83793">
        <ele>245</ele>
        <time>2018-06-29T08:47:43Z</time>
      </trkpt>
      <trkpt lat="45.96316" lon="4.83797">
        <ele>245</ele>
        <time>2018-06-29T08:47:44Z</time>
      </trkpt>
      <trkpt lat="45.96321" lon="4.838">
        <ele>245</ele>
        <time>2018-06-29T08:47:45Z</time>
      </trkpt>
      <trkpt lat="45.96326" lon="4.83804">
        <ele>245</ele>
        <time>2018-06-29T08:47:46Z</time>
      </trkpt>
      <trkpt lat="45.9633" lon="4.83807">
        <ele>244</ele>
        <time>2018-06-29T08:47:47Z</time>
      </trkpt>
      <trkpt lat="45.96334" lon="4.83811">
        <ele>246</ele>
        <time>2018-06-29T08:47:48Z</time>
      </trkpt>
      <trkpt lat="45.96339" lon="4.83814">
        <ele>246</ele>
        <time>2018-06-29T08:47:49Z</time>
      </trkpt>
      <trkpt lat="45.96342" lon="4.83822">
        <ele>245</ele>
        <time>2018-06-29T08:47:50Z</time>
      </trkpt>
      <trkpt lat="45.96346" lon="4.83827">
        <ele>245</ele>
        <time>2018-06-29T08:47:51Z</time>
      </trkpt>
      <trkpt lat="45.96351" lon="4.83833">
        <ele>245</ele>
        <time>2018-06-29T08:47:52Z</time>
      </trkpt>
      <trkpt lat="45.96354" lon="4.83838">
        <ele>246</ele>
        <time>2018-06-29T08:47:53Z</time>
      </trkpt>
      <trkpt lat="45.96357" lon="4.83844">
        <ele>246</ele>
        <time>2018-06-29T08:47:54Z</time>
      </trkpt>
      <trkpt lat="45.9636" lon="4.83851">
        <ele>246</ele>
        <time>2018-06-29T08:47:55Z</time>
      </trkpt>
      <trkpt lat="45.96363" lon="4.83856">
        <ele>247</ele>
        <time>2018-06-29T08:47:56Z</time>
      </trkpt>
      <trkpt lat="45.96365" lon="4.83862">
        <ele>247</ele>
        <time>2018-06-29T08:47:57Z</time>
      </trkpt>
      <trkpt lat="45.96367" lon="4.83868">
        <ele>247</ele>
        <time>2018-06-29T08:47:58Z</time>
      </trkpt>
      <trkpt lat="45.9637" lon="4.83874">
        <ele>247</ele>
        <time>2018-06-29T08:47:59Z</time>
      </trkpt>
      <trkpt lat="45.96374" lon="4.83885">
        <ele>248</ele>
        <time>2018-06-29T08:48:01Z</time>
      </trkpt>
      <trkpt lat="45.96377" lon="4.83892">
        <ele>248</ele>
        <time>2018-06-29T08:48:02Z</time>
      </trkpt>
      <trkpt lat="45.9638" lon="4.83899">
        <ele>248</ele>
        <time>2018-06-29T08:48:03Z</time>
      </trkpt>
      <trkpt lat="45.96383" lon="4.83904">
        <ele>248</ele>
        <time>2018-06-29T08:48:04Z</time>
      </trkpt>
      <trkpt lat="45.96386" lon="4.83914">
        <ele>248</ele>
        <time>2018-06-29T08:48:06Z</time>
      </trkpt>
      <trkpt lat="45.96388" lon="4.8392">
        <ele>251</ele>
        <time>2018-06-29T08:48:07Z</time>
      </trkpt>
      <trkpt lat="45.96391" lon="4.8393">
        <ele>251</ele>
        <time>2018-06-29T08:48:09Z</time>
      </trkpt>
      <trkpt lat="45.96394" lon="4.83936">
        <ele>251</ele>
        <time>2018-06-29T08:48:10Z</time>
      </trkpt>
      <trkpt lat="45.96398" lon="4.83944">
        <ele>252</ele>
        <time>2018-06-29T08:48:12Z</time>
      </trkpt>
      <trkpt lat="45.964" lon="4.8395">
        <ele>252</ele>
        <time>2018-06-29T08:48:13Z</time>
      </trkpt>
      <trkpt lat="45.96405" lon="4.8396">
        <ele>252</ele>
        <time>2018-06-29T08:48:15Z</time>
      </trkpt>
      <trkpt lat="45.96406" lon="4.83962">
        <ele>252</ele>
        <time>2018-06-29T08:48:16Z</time>
      </trkpt>
      <trkpt lat="45.96409" lon="4.83969">
        <ele>253</ele>
        <time>2018-06-29T08:48:17Z</time>
      </trkpt>
      <trkpt lat="45.96412" lon="4.83973">
        <ele>253</ele>
        <time>2018-06-29T08:48:18Z</time>
      </trkpt>
      <trkpt lat="45.96417" lon="4.83982">
        <ele>253</ele>
        <time>2018-06-29T08:48:21Z</time>
      </trkpt>
      <trkpt lat="45.96418" lon="4.83985">
        <ele>251</ele>
        <time>2018-06-29T08:48:22Z</time>
      </trkpt>
      <trkpt lat="45.96422" lon="4.83993">
        <ele>252</ele>
        <time>2018-06-29T08:48:23Z</time>
      </trkpt>
      <trkpt lat="45.96425" lon="4.83998">
        <ele>252</ele>
        <time>2018-06-29T08:48:24Z</time>
      </trkpt>
      <trkpt lat="45.96428" lon="4.84005">
        <ele>252</ele>
        <time>2018-06-29T08:48:26Z</time>
      </trkpt>
      <trkpt lat="45.9643" lon="4.84011">
        <ele>252</ele>
        <time>2018-06-29T08:48:27Z</time>
      </trkpt>
      <trkpt lat="45.96434" lon="4.8402">
        <ele>251</ele>
        <time>2018-06-29T08:48:29Z</time>
      </trkpt>
      <trkpt lat="45.96437" lon="4.84028">
        <ele>251</ele>
        <time>2018-06-29T08:48:30Z</time>
      </trkpt>
      <trkpt lat="45.96442" lon="4.84039">
        <ele>251</ele>
        <time>2018-06-29T08:48:32Z</time>
      </trkpt>
      <trkpt lat="45.96443" lon="4.84044">
        <ele>251</ele>
        <time>2018-06-29T08:48:33Z</time>
      </trkpt>
      <trkpt lat="45.96447" lon="4.84056">
        <ele>251</ele>
        <time>2018-06-29T08:48:35Z</time>
      </trkpt>
      <trkpt lat="45.96449" lon="4.84062">
        <ele>251</ele>
        <time>2018-06-29T08:48:36Z</time>
      </trkpt>
      <trkpt lat="45.96453" lon="4.84073">
        <ele>251</ele>
        <time>2018-06-29T08:48:38Z</time>
      </trkpt>
      <trkpt lat="45.96455" lon="4.84079">
        <ele>251</ele>
        <time>2018-06-29T08:48:39Z</time>
      </trkpt>
      <trkpt lat="45.96459" lon="4.8409">
        <ele>252</ele>
        <time>2018-06-29T08:48:41Z</time>
      </trkpt>
      <trkpt lat="45.96461" lon="4.84096">
        <ele>252</ele>
        <time>2018-06-29T08:48:42Z</time>
      </trkpt>
      <trkpt lat="45.96463" lon="4.84103">
        <ele>251</ele>
        <time>2018-06-29T08:48:43Z</time>
      </trkpt>
      <trkpt lat="45.96466" lon="4.84108">
        <ele>251</ele>
        <time>2018-06-29T08:48:44Z</time>
      </trkpt>
      <trkpt lat="45.96468" lon="4.84113">
        <ele>251</ele>
        <time>2018-06-29T08:48:45Z</time>
      </trkpt>
      <trkpt lat="45.96471" lon="4.84119">
        <ele>251</ele>
        <time>2018-06-29T08:48:46Z</time>
      </trkpt>
      <trkpt lat="45.96474" lon="4.8413">
        <ele>251</ele>
        <time>2018-06-29T08:48:48Z</time>
      </trkpt>
      <trkpt lat="45.96475" lon="4.84133">
        <ele>251</ele>
        <time>2018-06-29T08:48:49Z</time>
      </trkpt>
      <trkpt lat="45.96478" lon="4.84139">
        <ele>251</ele>
        <time>2018-06-29T08:48:50Z</time>
      </trkpt>
      <trkpt lat="45.9648" lon="4.84145">
        <ele>251</ele>
        <time>2018-06-29T08:48:51Z</time>
      </trkpt>
      <trkpt lat="45.96483" lon="4.84155">
        <ele>251</ele>
        <time>2018-06-29T08:48:53Z</time>
      </trkpt>
      <trkpt lat="45.96484" lon="4.84161">
        <ele>250</ele>
        <time>2018-06-29T08:48:54Z</time>
      </trkpt>
      <trkpt lat="45.96485" lon="4.84167">
        <ele>251</ele>
        <time>2018-06-29T08:48:55Z</time>
      </trkpt>
      <trkpt lat="45.96486" lon="4.84174">
        <ele>251</ele>
        <time>2018-06-29T08:48:56Z</time>
      </trkpt>
      <trkpt lat="45.96488" lon="4.84181">
        <ele>251</ele>
        <time>2018-06-29T08:48:57Z</time>
      </trkpt>
      <trkpt lat="45.96489" lon="4.84187">
        <ele>251</ele>
        <time>2018-06-29T08:48:58Z</time>
      </trkpt>
      <trkpt lat="45.9649" lon="4.84194">
        <ele>251</ele>
        <time>2018-06-29T08:48:59Z</time>
      </trkpt>
      <trkpt lat="45.96491" lon="4.842">
        <ele>251</ele>
        <time>2018-06-29T08:49:00Z</time>
      </trkpt>
      <trkpt lat="45.96493" lon="4.84206">
        <ele>251</ele>
        <time>2018-06-29T08:49:01Z</time>
      </trkpt>
      <trkpt lat="45.96495" lon="4.84212">
        <ele>252</ele>
        <time>2018-06-29T08:49:02Z</time>
      </trkpt>
      <trkpt lat="45.96496" lon="4.84218">
        <ele>252</ele>
        <time>2018-06-29T08:49:03Z</time>
      </trkpt>
      <trkpt lat="45.96497" lon="4.84225">
        <ele>252</ele>
        <time>2018-06-29T08:49:04Z</time>
      </trkpt>
      <trkpt lat="45.96498" lon="4.84232">
        <ele>251</ele>
        <time>2018-06-29T08:49:05Z</time>
      </trkpt>
      <trkpt lat="45.96499" lon="4.84238">
        <ele>251</ele>
        <time>2018-06-29T08:49:06Z</time>
      </trkpt>
      <trkpt lat="45.965" lon="4.84246">
        <ele>251</ele>
        <time>2018-06-29T08:49:07Z</time>
      </trkpt>
      <trkpt lat="45.96502" lon="4.84254">
        <ele>251</ele>
        <time>2018-06-29T08:49:08Z</time>
      </trkpt>
      <trkpt lat="45.96503" lon="4.84262">
        <ele>251</ele>
        <time>2018-06-29T08:49:09Z</time>
      </trkpt>
      <trkpt lat="45.96505" lon="4.8427">
        <ele>250</ele>
        <time>2018-06-29T08:49:10Z</time>
      </trkpt>
      <trkpt lat="45.96506" lon="4.84282">
        <ele>250</ele>
        <time>2018-06-29T08:49:12Z</time>
      </trkpt>
      <trkpt lat="45.9651" lon="4.84294">
        <ele>250</ele>
        <time>2018-06-29T08:49:13Z</time>
      </trkpt>
      <trkpt lat="45.96511" lon="4.84302">
        <ele>250</ele>
        <time>2018-06-29T08:49:14Z</time>
      </trkpt>
      <trkpt lat="45.96512" lon="4.8431">
        <ele>250</ele>
        <time>2018-06-29T08:49:15Z</time>
      </trkpt>
      <trkpt lat="45.96514" lon="4.84317">
        <ele>250</ele>
        <time>2018-06-29T08:49:16Z</time>
      </trkpt>
      <trkpt lat="45.96516" lon="4.84324">
        <ele>251</ele>
        <time>2018-06-29T08:49:17Z</time>
      </trkpt>
      <trkpt lat="45.96518" lon="4.84332">
        <ele>251</ele>
        <time>2018-06-29T08:49:18Z</time>
      </trkpt>
      <trkpt lat="45.9652" lon="4.8434">
        <ele>251</ele>
        <time>2018-06-29T08:49:19Z</time>
      </trkpt>
      <trkpt lat="45.96523" lon="4.84348">
        <ele>251</ele>
        <time>2018-06-29T08:49:20Z</time>
      </trkpt>
      <trkpt lat="45.96524" lon="4.84356">
        <ele>251</ele>
        <time>2018-06-29T08:49:21Z</time>
      </trkpt>
      <trkpt lat="45.96526" lon="4.84363">
        <ele>251</ele>
        <time>2018-06-29T08:49:22Z</time>
      </trkpt>
      <trkpt lat="45.96528" lon="4.84369">
        <ele>251</ele>
        <time>2018-06-29T08:49:23Z</time>
      </trkpt>
      <trkpt lat="45.96528" lon="4.84377">
        <ele>251</ele>
        <time>2018-06-29T08:49:24Z</time>
      </trkpt>
      <trkpt lat="45.96528" lon="4.84385">
        <ele>251</ele>
        <time>2018-06-29T08:49:25Z</time>
      </trkpt>
      <trkpt lat="45.9653" lon="4.84392">
        <ele>252</ele>
        <time>2018-06-29T08:49:26Z</time>
      </trkpt>
      <trkpt lat="45.96529" lon="4.84399">
        <ele>252</ele>
        <time>2018-06-29T08:49:27Z</time>
      </trkpt>
      <trkpt lat="45.96528" lon="4.84408">
        <ele>252</ele>
        <time>2018-06-29T08:49:28Z</time>
      </trkpt>
      <trkpt lat="45.96528" lon="4.84415">
        <ele>252</ele>
        <time>2018-06-29T08:49:29Z</time>
      </trkpt>
      <trkpt lat="45.96528" lon="4.84422">
        <ele>253</ele>
        <time>2018-06-29T08:49:30Z</time>
      </trkpt>
      <trkpt lat="45.96528" lon="4.84431">
        <ele>253</ele>
        <time>2018-06-29T08:49:31Z</time>
      </trkpt>
      <trkpt lat="45.96527" lon="4.8444">
        <ele>253</ele>
        <time>2018-06-29T08:49:32Z</time>
      </trkpt>
      <trkpt lat="45.96527" lon="4.84448">
        <ele>253</ele>
        <time>2018-06-29T08:49:33Z</time>
      </trkpt>
      <trkpt lat="45.96527" lon="4.84457">
        <ele>253</ele>
        <time>2018-06-29T08:49:34Z</time>
      </trkpt>
      <trkpt lat="45.96526" lon="4.84463">
        <ele>253</ele>
        <time>2018-06-29T08:49:35Z</time>
      </trkpt>
      <trkpt lat="45.96525" lon="4.8447">
        <ele>253</ele>
        <time>2018-06-29T08:49:36Z</time>
      </trkpt>
      <trkpt lat="45.96525" lon="4.84478">
        <ele>253</ele>
        <time>2018-06-29T08:49:37Z</time>
      </trkpt>
      <trkpt lat="45.96524" lon="4.84489">
        <ele>253</ele>
        <time>2018-06-29T08:49:39Z</time>
      </trkpt>
      <trkpt lat="45.96525" lon="4.84497">
        <ele>253</ele>
        <time>2018-06-29T08:49:40Z</time>
      </trkpt>
      <trkpt lat="45.96525" lon="4.84509">
        <ele>253</ele>
        <time>2018-06-29T08:49:42Z</time>
      </trkpt>
      <trkpt lat="45.96525" lon="4.84517">
        <ele>253</ele>
        <time>2018-06-29T08:49:43Z</time>
      </trkpt>
      <trkpt lat="45.96525" lon="4.84524">
        <ele>253</ele>
        <time>2018-06-29T08:49:44Z</time>
      </trkpt>
      <trkpt lat="45.96525" lon="4.84531">
        <ele>253</ele>
        <time>2018-06-29T08:49:45Z</time>
      </trkpt>
      <trkpt lat="45.96523" lon="4.84543">
        <ele>253</ele>
        <time>2018-06-29T08:49:47Z</time>
      </trkpt>
      <trkpt lat="45.96522" lon="4.8455">
        <ele>253</ele>
        <time>2018-06-29T08:49:48Z</time>
      </trkpt>
      <trkpt lat="45.9652" lon="4.84562">
        <ele>253</ele>
        <time>2018-06-29T08:49:50Z</time>
      </trkpt>
      <trkpt lat="45.96521" lon="4.84572">
        <ele>253</ele>
        <time>2018-06-29T08:49:51Z</time>
      </trkpt>
      <trkpt lat="45.96521" lon="4.84579">
        <ele>252</ele>
        <time>2018-06-29T08:49:52Z</time>
      </trkpt>
      <trkpt lat="45.96519" lon="4.84585">
        <ele>252</ele>
        <time>2018-06-29T08:49:53Z</time>
      </trkpt>
      <trkpt lat="45.96518" lon="4.84592">
        <ele>252</ele>
        <time>2018-06-29T08:49:54Z</time>
      </trkpt>
      <trkpt lat="45.96518" lon="4.84599">
        <ele>252</ele>
        <time>2018-06-29T08:49:55Z</time>
      </trkpt>
      <trkpt lat="45.96517" lon="4.84607">
        <ele>252</ele>
        <time>2018-06-29T08:49:56Z</time>
      </trkpt>
      <trkpt lat="45.96515" lon="4.84614">
        <ele>252</ele>
        <time>2018-06-29T08:49:57Z</time>
      </trkpt>
      <trkpt lat="45.96515" lon="4.84621">
        <ele>252</ele>
        <time>2018-06-29T08:49:58Z</time>
      </trkpt>
      <trkpt lat="45.96516" lon="4.8463">
        <ele>252</ele>
        <time>2018-06-29T08:49:59Z</time>
      </trkpt>
      <trkpt lat="45.96515" lon="4.84638">
        <ele>252</ele>
        <time>2018-06-29T08:50:00Z</time>
      </trkpt>
      <trkpt lat="45.96517" lon="4.84646">
        <ele>252</ele>
        <time>2018-06-29T08:50:01Z</time>
      </trkpt>
      <trkpt lat="45.96518" lon="4.84651">
        <ele>252</ele>
        <time>2018-06-29T08:50:02Z</time>
      </trkpt>
      <trkpt lat="45.9652" lon="4.84659">
        <ele>252</ele>
        <time>2018-06-29T08:50:03Z</time>
      </trkpt>
      <trkpt lat="45.96522" lon="4.84668">
        <ele>252</ele>
        <time>2018-06-29T08:50:04Z</time>
      </trkpt>
      <trkpt lat="45.96524" lon="4.84673">
        <ele>252</ele>
        <time>2018-06-29T08:50:05Z</time>
      </trkpt>
      <trkpt lat="45.96526" lon="4.8468">
        <ele>252</ele>
        <time>2018-06-29T08:50:06Z</time>
      </trkpt>
      <trkpt lat="45.96528" lon="4.84686">
        <ele>253</ele>
        <time>2018-06-29T08:50:07Z</time>
      </trkpt>
      <trkpt lat="45.96529" lon="4.84692">
        <ele>253</ele>
        <time>2018-06-29T08:50:08Z</time>
      </trkpt>
      <trkpt lat="45.9653" lon="4.847">
        <ele>253</ele>
        <time>2018-06-29T08:50:09Z</time>
      </trkpt>
      <trkpt lat="45.9653" lon="4.84706">
        <ele>253</ele>
        <time>2018-06-29T08:50:10Z</time>
      </trkpt>
      <trkpt lat="45.9653" lon="4.84713">
        <ele>253</ele>
        <time>2018-06-29T08:50:11Z</time>
      </trkpt>
      <trkpt lat="45.96526" lon="4.84724">
        <ele>253</ele>
        <time>2018-06-29T08:50:13Z</time>
      </trkpt>
      <trkpt lat="45.96525" lon="4.84731">
        <ele>253</ele>
        <time>2018-06-29T08:50:14Z</time>
      </trkpt>
      <trkpt lat="45.96524" lon="4.84739">
        <ele>252</ele>
        <time>2018-06-29T08:50:15Z</time>
      </trkpt>
      <trkpt lat="45.96523" lon="4.84745">
        <ele>252</ele>
        <time>2018-06-29T08:50:16Z</time>
      </trkpt>
      <trkpt lat="45.96521" lon="4.84751">
        <ele>253</ele>
        <time>2018-06-29T08:50:17Z</time>
      </trkpt>
      <trkpt lat="45.96519" lon="4.84757">
        <ele>253</ele>
        <time>2018-06-29T08:50:18Z</time>
      </trkpt>
      <trkpt lat="45.96519" lon="4.84766">
        <ele>253</ele>
        <time>2018-06-29T08:50:19Z</time>
      </trkpt>
      <trkpt lat="45.96517" lon="4.84772">
        <ele>253</ele>
        <time>2018-06-29T08:50:20Z</time>
      </trkpt>
      <trkpt lat="45.96512" lon="4.84781">
        <ele>253</ele>
        <time>2018-06-29T08:50:22Z</time>
      </trkpt>
      <trkpt lat="45.96511" lon="4.84786">
        <ele>254</ele>
        <time>2018-06-29T08:50:23Z</time>
      </trkpt>
      <trkpt lat="45.9651" lon="4.84794">
        <ele>254</ele>
        <time>2018-06-29T08:50:24Z</time>
      </trkpt>
      <trkpt lat="45.96509" lon="4.84801">
        <ele>254</ele>
        <time>2018-06-29T08:50:25Z</time>
      </trkpt>
      <trkpt lat="45.96507" lon="4.84813">
        <ele>254</ele>
        <time>2018-06-29T08:50:27Z</time>
      </trkpt>
      <trkpt lat="45.96506" lon="4.8482">
        <ele>254</ele>
        <time>2018-06-29T08:50:28Z</time>
      </trkpt>
      <trkpt lat="45.96502" lon="4.8483">
        <ele>253</ele>
        <time>2018-06-29T08:50:30Z</time>
      </trkpt>
      <trkpt lat="45.96501" lon="4.84836">
        <ele>254</ele>
        <time>2018-06-29T08:50:31Z</time>
      </trkpt>
      <trkpt lat="45.96499" lon="4.84845">
        <ele>254</ele>
        <time>2018-06-29T08:50:33Z</time>
      </trkpt>
      <trkpt lat="45.96498" lon="4.84852">
        <ele>254</ele>
        <time>2018-06-29T08:50:34Z</time>
      </trkpt>
      <trkpt lat="45.96497" lon="4.84859">
        <ele>254</ele>
        <time>2018-06-29T08:50:36Z</time>
      </trkpt>
      <trkpt lat="45.96495" lon="4.84868">
        <ele>255</ele>
        <time>2018-06-29T08:50:37Z</time>
      </trkpt>
      <trkpt lat="45.96493" lon="4.84879">
        <ele>255</ele>
        <time>2018-06-29T08:50:39Z</time>
      </trkpt>
      <trkpt lat="45.96492" lon="4.84881">
        <ele>255</ele>
        <time>2018-06-29T08:50:40Z</time>
      </trkpt>
      <trkpt lat="45.9649" lon="4.84894">
        <ele>256</ele>
        <time>2018-06-29T08:50:42Z</time>
      </trkpt>
      <trkpt lat="45.96488" lon="4.84899">
        <ele>256</ele>
        <time>2018-06-29T08:50:43Z</time>
      </trkpt>
      <trkpt lat="45.96486" lon="4.84908">
        <ele>256</ele>
        <time>2018-06-29T08:50:45Z</time>
      </trkpt>
      <trkpt lat="45.96485" lon="4.84911">
        <ele>256</ele>
        <time>2018-06-29T08:50:46Z</time>
      </trkpt>
      <trkpt lat="45.96482" lon="4.84923">
        <ele>259</ele>
        <time>2018-06-29T08:50:48Z</time>
      </trkpt>
      <trkpt lat="45.96481" lon="4.84925">
        <ele>259</ele>
        <time>2018-06-29T08:50:49Z</time>
      </trkpt>
      <trkpt lat="45.96479" lon="4.84936">
        <ele>260</ele>
        <time>2018-06-29T08:50:51Z</time>
      </trkpt>
      <trkpt lat="45.96478" lon="4.84939">
        <ele>260</ele>
        <time>2018-06-29T08:50:52Z</time>
      </trkpt>
      <trkpt lat="45.96475" lon="4.84951">
        <ele>261</ele>
        <time>2018-06-29T08:50:55Z</time>
      </trkpt>
      <trkpt lat="45.96475" lon="4.84954">
        <ele>261</ele>
        <time>2018-06-29T08:50:56Z</time>
      </trkpt>
      <trkpt lat="45.96472" lon="4.84964">
        <ele>261</ele>
        <time>2018-06-29T08:50:59Z</time>
      </trkpt>
      <trkpt lat="45.96471" lon="4.84967">
        <ele>261</ele>
        <time>2018-06-29T08:51:00Z</time>
      </trkpt>
      <trkpt lat="45.96469" lon="4.84979">
        <ele>262</ele>
        <time>2018-06-29T08:51:03Z</time>
      </trkpt>
      <trkpt lat="45.96468" lon="4.84982">
        <ele>262</ele>
        <time>2018-06-29T08:51:04Z</time>
      </trkpt>
      <trkpt lat="45.96467" lon="4.84994">
        <ele>262</ele>
        <time>2018-06-29T08:51:07Z</time>
      </trkpt>
      <trkpt lat="45.96466" lon="4.84999">
        <ele>263</ele>
        <time>2018-06-29T08:51:08Z</time>
      </trkpt>
      <trkpt lat="45.96465" lon="4.8501">
        <ele>266</ele>
        <time>2018-06-29T08:51:11Z</time>
      </trkpt>
      <trkpt lat="45.96465" lon="4.85013">
        <ele>266</ele>
        <time>2018-06-29T08:51:12Z</time>
      </trkpt>
      <trkpt lat="45.96466" lon="4.85025">
        <ele>266</ele>
        <time>2018-06-29T08:51:15Z</time>
      </trkpt>
      <trkpt lat="45.96467" lon="4.8503">
        <ele>266</ele>
        <time>2018-06-29T08:51:16Z</time>
      </trkpt>
      <trkpt lat="45.96468" lon="4.85042">
        <ele>266</ele>
        <time>2018-06-29T08:51:19Z</time>
      </trkpt>
      <trkpt lat="45.96469" lon="4.85046">
        <ele>266</ele>
        <time>2018-06-29T08:51:20Z</time>
      </trkpt>
      <trkpt lat="45.9647" lon="4.85059">
        <ele>266</ele>
        <time>2018-06-29T08:51:23Z</time>
      </trkpt>
      <trkpt lat="45.9647" lon="4.85063">
        <ele>266</ele>
        <time>2018-06-29T08:51:24Z</time>
      </trkpt>
      <trkpt lat="45.96469" lon="4.85075">
        <ele>267</ele>
        <time>2018-06-29T08:51:27Z</time>
      </trkpt>
      <trkpt lat="45.96469" lon="4.85079">
        <ele>267</ele>
        <time>2018-06-29T08:51:28Z</time>
      </trkpt>
      <trkpt lat="45.96468" lon="4.85091">
        <ele>268</ele>
        <time>2018-06-29T08:51:31Z</time>
      </trkpt>
      <trkpt lat="45.96468" lon="4.85096">
        <ele>268</ele>
        <time>2018-06-29T08:51:32Z</time>
      </trkpt>
      <trkpt lat="45.96465" lon="4.85108">
        <ele>268</ele>
        <time>2018-06-29T08:51:35Z</time>
      </trkpt>
      <trkpt lat="45.96464" lon="4.85112">
        <ele>268</ele>
        <time>2018-06-29T08:51:36Z</time>
      </trkpt>
      <trkpt lat="45.96462" lon="4.85121">
        <ele>268</ele>
        <time>2018-06-29T08:51:38Z</time>
      </trkpt>
      <trkpt lat="45.96461" lon="4.85125">
        <ele>268</ele>
        <time>2018-06-29T08:51:39Z</time>
      </trkpt>
      <trkpt lat="45.9646" lon="4.85133">
        <ele>268</ele>
        <time>2018-06-29T08:51:41Z</time>
      </trkpt>
      <trkpt lat="45.96459" lon="4.85138">
        <ele>268</ele>
        <time>2018-06-29T08:51:42Z</time>
      </trkpt>
      <trkpt lat="45.96457" lon="4.85147">
        <ele>268</ele>
        <time>2018-06-29T08:51:44Z</time>
      </trkpt>
      <trkpt lat="45.96456" lon="4.85151">
        <ele>268</ele>
        <time>2018-06-29T08:51:45Z</time>
      </trkpt>
      <trkpt lat="45.96454" lon="4.85163">
        <ele>268</ele>
        <time>2018-06-29T08:51:48Z</time>
      </trkpt>
      <trkpt lat="45.96453" lon="4.85167">
        <ele>269</ele>
        <time>2018-06-29T08:51:49Z</time>
      </trkpt>
      <trkpt lat="45.96451" lon="4.85176">
        <ele>269</ele>
        <time>2018-06-29T08:51:51Z</time>
      </trkpt>
      <trkpt lat="45.9645" lon="4.8518">
        <ele>269</ele>
        <time>2018-06-29T08:51:52Z</time>
      </trkpt>
      <trkpt lat="45.96449" lon="4.85189">
        <ele>269</ele>
        <time>2018-06-29T08:51:54Z</time>
      </trkpt>
      <trkpt lat="45.96449" lon="4.85194">
        <ele>269</ele>
        <time>2018-06-29T08:51:55Z</time>
      </trkpt>
      <trkpt lat="45.96448" lon="4.85209">
        <ele>269</ele>
        <time>2018-06-29T08:51:56Z</time>
      </trkpt>
      <trkpt lat="45.96448" lon="4.85221">
        <ele>269</ele>
        <time>2018-06-29T08:51:58Z</time>
      </trkpt>
      <trkpt lat="45.96448" lon="4.85224">
        <ele>269</ele>
        <time>2018-06-29T08:51:59Z</time>
      </trkpt>
      <trkpt lat="45.96448" lon="4.85235">
        <ele>269</ele>
        <time>2018-06-29T08:52:02Z</time>
      </trkpt>
      <trkpt lat="45.96448" lon="4.85238">
        <ele>269</ele>
        <time>2018-06-29T08:52:03Z</time>
      </trkpt>
      <trkpt lat="45.96448" lon="4.8525">
        <ele>270</ele>
        <time>2018-06-29T08:52:04Z</time>
      </trkpt>
      <trkpt lat="45.96448" lon="4.85253">
        <ele>270</ele>
        <time>2018-06-29T08:52:05Z</time>
      </trkpt>
      <trkpt lat="45.96448" lon="4.85264">
        <ele>270</ele>
        <time>2018-06-29T08:52:08Z</time>
      </trkpt>
      <trkpt lat="45.96448" lon="4.85275">
        <ele>270</ele>
        <time>2018-06-29T08:52:09Z</time>
      </trkpt>
      <trkpt lat="45.96449" lon="4.85287">
        <ele>270</ele>
        <time>2018-06-29T08:52:12Z</time>
      </trkpt>
      <trkpt lat="45.9645" lon="4.85297">
        <ele>270</ele>
        <time>2018-06-29T08:52:13Z</time>
      </trkpt>
      <trkpt lat="45.9645" lon="4.85309">
        <ele>271</ele>
        <time>2018-06-29T08:52:15Z</time>
      </trkpt>
      <trkpt lat="45.96451" lon="4.85315">
        <ele>271</ele>
        <time>2018-06-29T08:52:16Z</time>
      </trkpt>
      <trkpt lat="45.96451" lon="4.85327">
        <ele>271</ele>
        <time>2018-06-29T08:52:18Z</time>
      </trkpt>
      <trkpt lat="45.96452" lon="4.85332">
        <ele>271</ele>
        <time>2018-06-29T08:52:19Z</time>
      </trkpt>
      <trkpt lat="45.96452" lon="4.85343">
        <ele>272</ele>
        <time>2018-06-29T08:52:21Z</time>
      </trkpt>
      <trkpt lat="45.96453" lon="4.85348">
        <ele>272</ele>
        <time>2018-06-29T08:52:22Z</time>
      </trkpt>
      <trkpt lat="45.96453" lon="4.85358">
        <ele>272</ele>
        <time>2018-06-29T08:52:24Z</time>
      </trkpt>
      <trkpt lat="45.96454" lon="4.85364">
        <ele>272</ele>
        <time>2018-06-29T08:52:25Z</time>
      </trkpt>
      <trkpt lat="45.96455" lon="4.85375">
        <ele>272</ele>
        <time>2018-06-29T08:52:27Z</time>
      </trkpt>
      <trkpt lat="45.96455" lon="4.85381">
        <ele>272</ele>
        <time>2018-06-29T08:52:28Z</time>
      </trkpt>
      <trkpt lat="45.96456" lon="4.85393">
        <ele>272</ele>
        <time>2018-06-29T08:52:30Z</time>
      </trkpt>
      <trkpt lat="45.96457" lon="4.85399">
        <ele>272</ele>
        <time>2018-06-29T08:52:31Z</time>
      </trkpt>
      <trkpt lat="45.96457" lon="4.85411">
        <ele>272</ele>
        <time>2018-06-29T08:52:33Z</time>
      </trkpt>
      <trkpt lat="45.96458" lon="4.85417">
        <ele>272</ele>
        <time>2018-06-29T08:52:34Z</time>
      </trkpt>
      <trkpt lat="45.96459" lon="4.85429">
        <ele>272</ele>
        <time>2018-06-29T08:52:36Z</time>
      </trkpt>
      <trkpt lat="45.96459" lon="4.85435">
        <ele>272</ele>
        <time>2018-06-29T08:52:37Z</time>
      </trkpt>
      <trkpt lat="45.9646" lon="4.85446">
        <ele>272</ele>
        <time>2018-06-29T08:52:39Z</time>
      </trkpt>
      <trkpt lat="45.96461" lon="4.85452">
        <ele>272</ele>
        <time>2018-06-29T08:52:40Z</time>
      </trkpt>
      <trkpt lat="45.96462" lon="4.85463">
        <ele>272</ele>
        <time>2018-06-29T08:52:42Z</time>
      </trkpt>
      <trkpt lat="45.96462" lon="4.85469">
        <ele>272</ele>
        <time>2018-06-29T08:52:43Z</time>
      </trkpt>
      <trkpt lat="45.96463" lon="4.85482">
        <ele>272</ele>
        <time>2018-06-29T08:52:45Z</time>
      </trkpt>
      <trkpt lat="45.96464" lon="4.85488">
        <ele>272</ele>
        <time>2018-06-29T08:52:46Z</time>
      </trkpt>
      <trkpt lat="45.96464" lon="4.855">
        <ele>272</ele>
        <time>2018-06-29T08:52:48Z</time>
      </trkpt>
      <trkpt lat="45.96464" lon="4.85506">
        <ele>272</ele>
        <time>2018-06-29T08:52:49Z</time>
      </trkpt>
      <trkpt lat="45.96463" lon="4.85517">
        <ele>272</ele>
        <time>2018-06-29T08:52:51Z</time>
      </trkpt>
      <trkpt lat="45.96462" lon="4.85523">
        <ele>272</ele>
        <time>2018-06-29T08:52:52Z</time>
      </trkpt>
      <trkpt lat="45.96458" lon="4.85534">
        <ele>272</ele>
        <time>2018-06-29T08:52:54Z</time>
      </trkpt>
      <trkpt lat="45.96462" lon="4.85541">
        <ele>272</ele>
        <time>2018-06-29T08:52:55Z</time>
      </trkpt>
      <trkpt lat="45.96463" lon="4.85551">
        <ele>272</ele>
        <time>2018-06-29T08:52:57Z</time>
      </trkpt>
      <trkpt lat="45.96462" lon="4.85557">
        <ele>271</ele>
        <time>2018-06-29T08:52:58Z</time>
      </trkpt>
      <trkpt lat="45.96464" lon="4.85565">
        <ele>271</ele>
        <time>2018-06-29T08:52:59Z</time>
      </trkpt>
      <trkpt lat="45.96465" lon="4.85571">
        <ele>271</ele>
        <time>2018-06-29T08:53:00Z</time>
      </trkpt>
      <trkpt lat="45.96465" lon="4.85582">
        <ele>271</ele>
        <time>2018-06-29T08:53:02Z</time>
      </trkpt>
      <trkpt lat="45.96465" lon="4.8559">
        <ele>271</ele>
        <time>2018-06-29T08:53:03Z</time>
      </trkpt>
      <trkpt lat="45.96467" lon="4.85602">
        <ele>271</ele>
        <time>2018-06-29T08:53:05Z</time>
      </trkpt>
      <trkpt lat="45.96468" lon="4.85608">
        <ele>271</ele>
        <time>2018-06-29T08:53:06Z</time>
      </trkpt>
      <trkpt lat="45.9647" lon="4.85618">
        <ele>271</ele>
        <time>2018-06-29T08:53:08Z</time>
      </trkpt>
      <trkpt lat="45.96471" lon="4.85624">
        <ele>271</ele>
        <time>2018-06-29T08:53:09Z</time>
      </trkpt>
      <trkpt lat="45.96473" lon="4.85636">
        <ele>271</ele>
        <time>2018-06-29T08:53:11Z</time>
      </trkpt>
      <trkpt lat="45.96473" lon="4.85642">
        <ele>271</ele>
        <time>2018-06-29T08:53:12Z</time>
      </trkpt>
      <trkpt lat="45.96476" lon="4.85653">
        <ele>271</ele>
        <time>2018-06-29T08:53:14Z</time>
      </trkpt>
      <trkpt lat="45.96477" lon="4.8566">
        <ele>271</ele>
        <time>2018-06-29T08:53:15Z</time>
      </trkpt>
      <trkpt lat="45.96477" lon="4.85667">
        <ele>271</ele>
        <time>2018-06-29T08:53:16Z</time>
      </trkpt>
      <trkpt lat="45.96479" lon="4.85674">
        <ele>272</ele>
        <time>2018-06-29T08:53:17Z</time>
      </trkpt>
      <trkpt lat="45.96481" lon="4.85685">
        <ele>272</ele>
        <time>2018-06-29T08:53:19Z</time>
      </trkpt>
      <trkpt lat="45.96481" lon="4.85691">
        <ele>272</ele>
        <time>2018-06-29T08:53:20Z</time>
      </trkpt>
      <trkpt lat="45.96483" lon="4.85703">
        <ele>272</ele>
        <time>2018-06-29T08:53:22Z</time>
      </trkpt>
      <trkpt lat="45.96484" lon="4.85708">
        <ele>272</ele>
        <time>2018-06-29T08:53:23Z</time>
      </trkpt>
      <trkpt lat="45.96486" lon="4.8572">
        <ele>272</ele>
        <time>2018-06-29T08:53:25Z</time>
      </trkpt>
      <trkpt lat="45.96487" lon="4.85726">
        <ele>273</ele>
        <time>2018-06-29T08:53:26Z</time>
      </trkpt>
      <trkpt lat="45.96489" lon="4.85737">
        <ele>273</ele>
        <time>2018-06-29T08:53:28Z</time>
      </trkpt>
      <trkpt lat="45.9649" lon="4.85743">
        <ele>273</ele>
        <time>2018-06-29T08:53:29Z</time>
      </trkpt>
      <trkpt lat="45.96491" lon="4.85749">
        <ele>273</ele>
        <time>2018-06-29T08:53:30Z</time>
      </trkpt>
      <trkpt lat="45.96492" lon="4.85758">
        <ele>274</ele>
        <time>2018-06-29T08:53:31Z</time>
      </trkpt>
      <trkpt lat="45.96493" lon="4.85769">
        <ele>274</ele>
        <time>2018-06-29T08:53:33Z</time>
      </trkpt>
      <trkpt lat="45.96494" lon="4.85776">
        <ele>274</ele>
        <time>2018-06-29T08:53:34Z</time>
      </trkpt>
      <trkpt lat="45.96495" lon="4.85786">
        <ele>274</ele>
        <time>2018-06-29T08:53:36Z</time>
      </trkpt>
      <trkpt lat="45.96496" lon="4.85792">
        <ele>274</ele>
        <time>2018-06-29T08:53:37Z</time>
      </trkpt>
      <trkpt lat="45.96498" lon="4.85803">
        <ele>274</ele>
        <time>2018-06-29T08:53:39Z</time>
      </trkpt>
      <trkpt lat="45.96498" lon="4.85805">
        <ele>274</ele>
        <time>2018-06-29T08:53:40Z</time>
      </trkpt>
      <trkpt lat="45.96499" lon="4.85813">
        <ele>274</ele>
        <time>2018-06-29T08:53:41Z</time>
      </trkpt>
      <trkpt lat="45.96499" lon="4.85818">
        <ele>274</ele>
        <time>2018-06-29T08:53:42Z</time>
      </trkpt>
      <trkpt lat="45.96501" lon="4.8583">
        <ele>275</ele>
        <time>2018-06-29T08:53:44Z</time>
      </trkpt>
      <trkpt lat="45.96503" lon="4.85835">
        <ele>275</ele>
        <time>2018-06-29T08:53:45Z</time>
      </trkpt>
      <trkpt lat="45.96504" lon="4.85841">
        <ele>275</ele>
        <time>2018-06-29T08:53:46Z</time>
      </trkpt>
      <trkpt lat="45.96504" lon="4.85848">
        <ele>275</ele>
        <time>2018-06-29T08:53:47Z</time>
      </trkpt>
      <trkpt lat="45.96505" lon="4.85855">
        <ele>275</ele>
        <time>2018-06-29T08:53:48Z</time>
      </trkpt>
      <trkpt lat="45.96505" lon="4.85862">
        <ele>275</ele>
        <time>2018-06-29T08:53:49Z</time>
      </trkpt>
      <trkpt lat="45.96506" lon="4.85869">
        <ele>275</ele>
        <time>2018-06-29T08:53:50Z</time>
      </trkpt>
      <trkpt lat="45.96506" lon="4.85875">
        <ele>275</ele>
        <time>2018-06-29T08:53:51Z</time>
      </trkpt>
      <trkpt lat="45.96508" lon="4.85887">
        <ele>275</ele>
        <time>2018-06-29T08:53:53Z</time>
      </trkpt>
      <trkpt lat="45.96509" lon="4.85894">
        <ele>275</ele>
        <time>2018-06-29T08:53:54Z</time>
      </trkpt>
      <trkpt lat="45.96511" lon="4.85904">
        <ele>275</ele>
        <time>2018-06-29T08:53:56Z</time>
      </trkpt>
      <trkpt lat="45.96513" lon="4.85909">
        <ele>275</ele>
        <time>2018-06-29T08:53:57Z</time>
      </trkpt>
      <trkpt lat="45.96516" lon="4.8592">
        <ele>275</ele>
        <time>2018-06-29T08:53:59Z</time>
      </trkpt>
      <trkpt lat="45.96517" lon="4.85925">
        <ele>275</ele>
        <time>2018-06-29T08:54:00Z</time>
      </trkpt>
      <trkpt lat="45.9652" lon="4.85937">
        <ele>275</ele>
        <time>2018-06-29T08:54:02Z</time>
      </trkpt>
      <trkpt lat="45.96522" lon="4.85942">
        <ele>275</ele>
        <time>2018-06-29T08:54:03Z</time>
      </trkpt>
      <trkpt lat="45.96525" lon="4.85948">
        <ele>275</ele>
        <time>2018-06-29T08:54:04Z</time>
      </trkpt>
      <trkpt lat="45.96527" lon="4.85955">
        <ele>275</ele>
        <time>2018-06-29T08:54:05Z</time>
      </trkpt>
      <trkpt lat="45.96529" lon="4.8596">
        <ele>275</ele>
        <time>2018-06-29T08:54:06Z</time>
      </trkpt>
      <trkpt lat="45.96532" lon="4.85966">
        <ele>275</ele>
        <time>2018-06-29T08:54:07Z</time>
      </trkpt>
      <trkpt lat="45.96536" lon="4.85975">
        <ele>275</ele>
        <time>2018-06-29T08:54:09Z</time>
      </trkpt>
      <trkpt lat="45.96537" lon="4.85976">
        <ele>275</ele>
        <time>2018-06-29T08:54:10Z</time>
      </trkpt>
      <trkpt lat="45.96543" lon="4.85985">
        <ele>275</ele>
        <time>2018-06-29T08:54:12Z</time>
      </trkpt>
      <trkpt lat="45.96545" lon="4.8599">
        <ele>275</ele>
        <time>2018-06-29T08:54:13Z</time>
      </trkpt>
      <trkpt lat="45.96547" lon="4.85999">
        <ele>275</ele>
        <time>2018-06-29T08:54:15Z</time>
      </trkpt>
      <trkpt lat="45.96549" lon="4.86004">
        <ele>276</ele>
        <time>2018-06-29T08:54:16Z</time>
      </trkpt>
      <trkpt lat="45.96554" lon="4.86013">
        <ele>276</ele>
        <time>2018-06-29T08:54:18Z</time>
      </trkpt>
      <trkpt lat="45.96557" lon="4.86017">
        <ele>276</ele>
        <time>2018-06-29T08:54:19Z</time>
      </trkpt>
      <trkpt lat="45.96561" lon="4.86026">
        <ele>276</ele>
        <time>2018-06-29T08:54:21Z</time>
      </trkpt>
      <trkpt lat="45.96564" lon="4.8603">
        <ele>276</ele>
        <time>2018-06-29T08:54:22Z</time>
      </trkpt>
      <trkpt lat="45.96569" lon="4.86039">
        <ele>276</ele>
        <time>2018-06-29T08:54:24Z</time>
      </trkpt>
      <trkpt lat="45.96571" lon="4.86044">
        <ele>276</ele>
        <time>2018-06-29T08:54:25Z</time>
      </trkpt>
      <trkpt lat="45.96576" lon="4.86053">
        <ele>277</ele>
        <time>2018-06-29T08:54:27Z</time>
      </trkpt>
      <trkpt lat="45.96577" lon="4.86055">
        <ele>277</ele>
        <time>2018-06-29T08:54:28Z</time>
      </trkpt>
      <trkpt lat="45.9658" lon="4.86065">
        <ele>277</ele>
        <time>2018-06-29T08:54:30Z</time>
      </trkpt>
      <trkpt lat="45.96581" lon="4.86067">
        <ele>277</ele>
        <time>2018-06-29T08:54:31Z</time>
      </trkpt>
      <trkpt lat="45.96584" lon="4.86074">
        <ele>279</ele>
        <time>2018-06-29T08:54:33Z</time>
      </trkpt>
      <trkpt lat="45.96588" lon="4.86085">
        <ele>279</ele>
        <time>2018-06-29T08:54:34Z</time>
      </trkpt>
      <trkpt lat="45.9659" lon="4.86095">
        <ele>280</ele>
        <time>2018-06-29T08:54:36Z</time>
      </trkpt>
      <trkpt lat="45.96591" lon="4.861">
        <ele>280</ele>
        <time>2018-06-29T08:54:37Z</time>
      </trkpt>
      <trkpt lat="45.96592" lon="4.86111">
        <ele>281</ele>
        <time>2018-06-29T08:54:40Z</time>
      </trkpt>
      <trkpt lat="45.96592" lon="4.86115">
        <ele>281</ele>
        <time>2018-06-29T08:54:41Z</time>
      </trkpt>
      <trkpt lat="45.96592" lon="4.86118">
        <ele>281</ele>
        <time>2018-06-29T08:54:42Z</time>
      </trkpt>
      <trkpt lat="45.96592" lon="4.8613">
        <ele>281</ele>
        <time>2018-06-29T08:54:43Z</time>
      </trkpt>
      <trkpt lat="45.96591" lon="4.8614">
        <ele>281</ele>
        <time>2018-06-29T08:54:45Z</time>
      </trkpt>
      <trkpt lat="45.9659" lon="4.86146">
        <ele>281</ele>
        <time>2018-06-29T08:54:46Z</time>
      </trkpt>
      <trkpt lat="45.96588" lon="4.86157">
        <ele>281</ele>
        <time>2018-06-29T08:54:48Z</time>
      </trkpt>
      <trkpt lat="45.96587" lon="4.86162">
        <ele>280</ele>
        <time>2018-06-29T08:54:49Z</time>
      </trkpt>
      <trkpt lat="45.96584" lon="4.86174">
        <ele>281</ele>
        <time>2018-06-29T08:54:52Z</time>
      </trkpt>
      <trkpt lat="45.96584" lon="4.86177">
        <ele>281</ele>
        <time>2018-06-29T08:54:53Z</time>
      </trkpt>
      <trkpt lat="45.96582" lon="4.86189">
        <ele>280</ele>
        <time>2018-06-29T08:54:55Z</time>
      </trkpt>
      <trkpt lat="45.96582" lon="4.86193">
        <ele>279</ele>
        <time>2018-06-29T08:54:56Z</time>
      </trkpt>
      <trkpt lat="45.96581" lon="4.86204">
        <ele>280</ele>
        <time>2018-06-29T08:54:59Z</time>
      </trkpt>
      <trkpt lat="45.9658" lon="4.86209">
        <ele>280</ele>
        <time>2018-06-29T08:55:00Z</time>
      </trkpt>
      <trkpt lat="45.9658" lon="4.86217">
        <ele>280</ele>
        <time>2018-06-29T08:55:02Z</time>
      </trkpt>
      <trkpt lat="45.9658" lon="4.86221">
        <ele>280</ele>
        <time>2018-06-29T08:55:03Z</time>
      </trkpt>
      <trkpt lat="45.96579" lon="4.8623">
        <ele>280</ele>
        <time>2018-06-29T08:55:05Z</time>
      </trkpt>
      <trkpt lat="45.96579" lon="4.86234">
        <ele>280</ele>
        <time>2018-06-29T08:55:06Z</time>
      </trkpt>
      <trkpt lat="45.96578" lon="4.86247">
        <ele>281</ele>
        <time>2018-06-29T08:55:09Z</time>
      </trkpt>
      <trkpt lat="45.96578" lon="4.86251">
        <ele>281</ele>
        <time>2018-06-29T08:55:10Z</time>
      </trkpt>
      <trkpt lat="45.96577" lon="4.86262">
        <ele>281</ele>
        <time>2018-06-29T08:55:13Z</time>
      </trkpt>
      <trkpt lat="45.96577" lon="4.86266">
        <ele>281</ele>
        <time>2018-06-29T08:55:14Z</time>
      </trkpt>
      <trkpt lat="45.96577" lon="4.86278">
        <ele>282</ele>
        <time>2018-06-29T08:55:17Z</time>
      </trkpt>
      <trkpt lat="45.96577" lon="4.86283">
        <ele>282</ele>
        <time>2018-06-29T08:55:18Z</time>
      </trkpt>
      <trkpt lat="45.96576" lon="4.86292">
        <ele>282</ele>
        <time>2018-06-29T08:55:20Z</time>
      </trkpt>
      <trkpt lat="45.96576" lon="4.86296">
        <ele>282</ele>
        <time>2018-06-29T08:55:21Z</time>
      </trkpt>
      <trkpt lat="45.96575" lon="4.86305">
        <ele>283</ele>
        <time>2018-06-29T08:55:23Z</time>
      </trkpt>
      <trkpt lat="45.96575" lon="4.86309">
        <ele>283</ele>
        <time>2018-06-29T08:55:24Z</time>
      </trkpt>
      <trkpt lat="45.96575" lon="4.86319">
        <ele>283</ele>
        <time>2018-06-29T08:55:26Z</time>
      </trkpt>
      <trkpt lat="45.96575" lon="4.86324">
        <ele>284</ele>
        <time>2018-06-29T08:55:27Z</time>
      </trkpt>
      <trkpt lat="45.96575" lon="4.86333">
        <ele>284</ele>
        <time>2018-06-29T08:55:29Z</time>
      </trkpt>
      <trkpt lat="45.96575" lon="4.86348">
        <ele>285</ele>
        <time>2018-06-29T08:55:30Z</time>
      </trkpt>
      <trkpt lat="45.96575" lon="4.86359">
        <ele>285</ele>
        <time>2018-06-29T08:55:32Z</time>
      </trkpt>
      <trkpt lat="45.96575" lon="4.86361">
        <ele>286</ele>
        <time>2018-06-29T08:55:33Z</time>
      </trkpt>
      <trkpt lat="45.96574" lon="4.86371">
        <ele>286</ele>
        <time>2018-06-29T08:55:36Z</time>
      </trkpt>
      <trkpt lat="45.96574" lon="4.86374">
        <ele>286</ele>
        <time>2018-06-29T08:55:37Z</time>
      </trkpt>
      <trkpt lat="45.96574" lon="4.86378">
        <ele>286</ele>
        <time>2018-06-29T08:55:38Z</time>
      </trkpt>
      <trkpt lat="45.96574" lon="4.86391">
        <ele>287</ele>
        <time>2018-06-29T08:55:39Z</time>
      </trkpt>
      <trkpt lat="45.96574" lon="4.86401">
        <ele>288</ele>
        <time>2018-06-29T08:55:42Z</time>
      </trkpt>
      <trkpt lat="45.96574" lon="4.86405">
        <ele>288</ele>
        <time>2018-06-29T08:55:43Z</time>
      </trkpt>
      <trkpt lat="45.96574" lon="4.86416">
        <ele>288</ele>
        <time>2018-06-29T08:55:46Z</time>
      </trkpt>
      <trkpt lat="45.96574" lon="4.8642">
        <ele>289</ele>
        <time>2018-06-29T08:55:47Z</time>
      </trkpt>
      <trkpt lat="45.96574" lon="4.86433">
        <ele>289</ele>
        <time>2018-06-29T08:55:50Z</time>
      </trkpt>
      <trkpt lat="45.96574" lon="4.86437">
        <ele>289</ele>
        <time>2018-06-29T08:55:51Z</time>
      </trkpt>
      <trkpt lat="45.96574" lon="4.86446">
        <ele>289</ele>
        <time>2018-06-29T08:55:53Z</time>
      </trkpt>
      <trkpt lat="45.96574" lon="4.8645">
        <ele>289</ele>
        <time>2018-06-29T08:55:54Z</time>
      </trkpt>
      <trkpt lat="45.96575" lon="4.86459">
        <ele>289</ele>
        <time>2018-06-29T08:55:56Z</time>
      </trkpt>
      <trkpt lat="45.96575" lon="4.86464">
        <ele>289</ele>
        <time>2018-06-29T08:55:57Z</time>
      </trkpt>
      <trkpt lat="45.96577" lon="4.86473">
        <ele>289</ele>
        <time>2018-06-29T08:55:59Z</time>
      </trkpt>
      <trkpt lat="45.96578" lon="4.86477">
        <ele>290</ele>
        <time>2018-06-29T08:56:00Z</time>
      </trkpt>
      <trkpt lat="45.96581" lon="4.86486">
        <ele>290</ele>
        <time>2018-06-29T08:56:02Z</time>
      </trkpt>
      <trkpt lat="45.96583" lon="4.86491">
        <ele>291</ele>
        <time>2018-06-29T08:56:03Z</time>
      </trkpt>
      <trkpt lat="45.96588" lon="4.865">
        <ele>292</ele>
        <time>2018-06-29T08:56:05Z</time>
      </trkpt>
      <trkpt lat="45.96595" lon="4.8651">
        <ele>291</ele>
        <time>2018-06-29T08:56:06Z</time>
      </trkpt>
      <trkpt lat="45.96601" lon="4.86517">
        <ele>291</ele>
        <time>2018-06-29T08:56:08Z</time>
      </trkpt>
      <trkpt lat="45.96604" lon="4.8652">
        <ele>291</ele>
        <time>2018-06-29T08:56:09Z</time>
      </trkpt>
      <trkpt lat="45.96611" lon="4.86526">
        <ele>291</ele>
        <time>2018-06-29T08:56:11Z</time>
      </trkpt>
      <trkpt lat="45.96614" lon="4.86529">
        <ele>291</ele>
        <time>2018-06-29T08:56:12Z</time>
      </trkpt>
      <trkpt lat="45.96621" lon="4.86535">
        <ele>291</ele>
        <time>2018-06-29T08:56:14Z</time>
      </trkpt>
      <trkpt lat="45.96625" lon="4.86538">
        <ele>291</ele>
        <time>2018-06-29T08:56:15Z</time>
      </trkpt>
      <trkpt lat="45.96628" lon="4.86542">
        <ele>291</ele>
        <time>2018-06-29T08:56:17Z</time>
      </trkpt>
      <trkpt lat="45.96633" lon="4.86547">
        <ele>291</ele>
        <time>2018-06-29T08:56:18Z</time>
      </trkpt>
      <trkpt lat="45.96639" lon="4.86554">
        <ele>291</ele>
        <time>2018-06-29T08:56:20Z</time>
      </trkpt>
      <trkpt lat="45.96642" lon="4.86557">
        <ele>291</ele>
        <time>2018-06-29T08:56:21Z</time>
      </trkpt>
      <trkpt lat="45.96649" lon="4.86563">
        <ele>290</ele>
        <time>2018-06-29T08:56:23Z</time>
      </trkpt>
      <trkpt lat="45.96652" lon="4.86566">
        <ele>290</ele>
        <time>2018-06-29T08:56:24Z</time>
      </trkpt>
      <trkpt lat="45.96659" lon="4.86573">
        <ele>290</ele>
        <time>2018-06-29T08:56:26Z</time>
      </trkpt>
      <trkpt lat="45.96663" lon="4.86577">
        <ele>290</ele>
        <time>2018-06-29T08:56:27Z</time>
      </trkpt>
      <trkpt lat="45.9667" lon="4.86584">
        <ele>290</ele>
        <time>2018-06-29T08:56:29Z</time>
      </trkpt>
      <trkpt lat="45.96674" lon="4.86587">
        <ele>290</ele>
        <time>2018-06-29T08:56:30Z</time>
      </trkpt>
      <trkpt lat="45.96681" lon="4.86593">
        <ele>290</ele>
        <time>2018-06-29T08:56:32Z</time>
      </trkpt>
      <trkpt lat="45.96685" lon="4.86596">
        <ele>290</ele>
        <time>2018-06-29T08:56:33Z</time>
      </trkpt>
      <trkpt lat="45.96693" lon="4.86603">
        <ele>290</ele>
        <time>2018-06-29T08:56:35Z</time>
      </trkpt>
      <trkpt lat="45.96696" lon="4.86606">
        <ele>290</ele>
        <time>2018-06-29T08:56:36Z</time>
      </trkpt>
      <trkpt lat="45.96704" lon="4.86612">
        <ele>290</ele>
        <time>2018-06-29T08:56:38Z</time>
      </trkpt>
      <trkpt lat="45.96707" lon="4.86615">
        <ele>290</ele>
        <time>2018-06-29T08:56:39Z</time>
      </trkpt>
      <trkpt lat="45.96714" lon="4.86621">
        <ele>290</ele>
        <time>2018-06-29T08:56:41Z</time>
      </trkpt>
      <trkpt lat="45.96718" lon="4.86624">
        <ele>290</ele>
        <time>2018-06-29T08:56:42Z</time>
      </trkpt>
      <trkpt lat="45.96725" lon="4.86628">
        <ele>290</ele>
        <time>2018-06-29T08:56:44Z</time>
      </trkpt>
      <trkpt lat="45.96728" lon="4.8663">
        <ele>290</ele>
        <time>2018-06-29T08:56:45Z</time>
      </trkpt>
      <trkpt lat="45.96735" lon="4.86636">
        <ele>290</ele>
        <time>2018-06-29T08:56:47Z</time>
      </trkpt>
      <trkpt lat="45.96738" lon="4.86641">
        <ele>290</ele>
        <time>2018-06-29T08:56:48Z</time>
      </trkpt>
      <trkpt lat="45.9674" lon="4.86653">
        <ele>290</ele>
        <time>2018-06-29T08:56:50Z</time>
      </trkpt>
      <trkpt lat="45.96738" lon="4.86658">
        <ele>290</ele>
        <time>2018-06-29T08:56:51Z</time>
      </trkpt>
      <trkpt lat="45.96735" lon="4.86664">
        <ele>290</ele>
        <time>2018-06-29T08:56:52Z</time>
      </trkpt>
      <trkpt lat="45.96731" lon="4.8667">
        <ele>290</ele>
        <time>2018-06-29T08:56:53Z</time>
      </trkpt>
      <trkpt lat="45.96727" lon="4.86677">
        <ele>289</ele>
        <time>2018-06-29T08:56:54Z</time>
      </trkpt>
      <trkpt lat="45.96723" lon="4.86683">
        <ele>289</ele>
        <time>2018-06-29T08:56:55Z</time>
      </trkpt>
      <trkpt lat="45.9672" lon="4.86689">
        <ele>289</ele>
        <time>2018-06-29T08:56:56Z</time>
      </trkpt>
      <trkpt lat="45.96716" lon="4.86695">
        <ele>289</ele>
        <time>2018-06-29T08:56:57Z</time>
      </trkpt>
      <trkpt lat="45.96712" lon="4.86702">
        <ele>289</ele>
        <time>2018-06-29T08:56:58Z</time>
      </trkpt>
      <trkpt lat="45.96708" lon="4.86709">
        <ele>289</ele>
        <time>2018-06-29T08:56:59Z</time>
      </trkpt>
      <trkpt lat="45.96704" lon="4.86715">
        <ele>289</ele>
        <time>2018-06-29T08:57:00Z</time>
      </trkpt>
      <trkpt lat="45.96701" lon="4.86722">
        <ele>289</ele>
        <time>2018-06-29T08:57:01Z</time>
      </trkpt>
      <trkpt lat="45.96697" lon="4.86727">
        <ele>289</ele>
        <time>2018-06-29T08:57:02Z</time>
      </trkpt>
      <trkpt lat="45.96695" lon="4.86733">
        <ele>289</ele>
        <time>2018-06-29T08:57:03Z</time>
      </trkpt>
      <trkpt lat="45.96691" lon="4.86739">
        <ele>289</ele>
        <time>2018-06-29T08:57:04Z</time>
      </trkpt>
      <trkpt lat="45.96687" lon="4.86744">
        <ele>289</ele>
        <time>2018-06-29T08:57:05Z</time>
      </trkpt>
      <trkpt lat="45.96683" lon="4.86749">
        <ele>289</ele>
        <time>2018-06-29T08:57:06Z</time>
      </trkpt>
      <trkpt lat="45.9668" lon="4.86754">
        <ele>289</ele>
        <time>2018-06-29T08:57:07Z</time>
      </trkpt>
      <trkpt lat="45.96677" lon="4.86761">
        <ele>289</ele>
        <time>2018-06-29T08:57:08Z</time>
      </trkpt>
      <trkpt lat="45.96673" lon="4.86767">
        <ele>289</ele>
        <time>2018-06-29T08:57:09Z</time>
      </trkpt>
      <trkpt lat="45.9667" lon="4.86773">
        <ele>289</ele>
        <time>2018-06-29T08:57:10Z</time>
      </trkpt>
      <trkpt lat="45.96667" lon="4.86778">
        <ele>289</ele>
        <time>2018-06-29T08:57:11Z</time>
      </trkpt>
      <trkpt lat="45.96663" lon="4.86783">
        <ele>288</ele>
        <time>2018-06-29T08:57:12Z</time>
      </trkpt>
      <trkpt lat="45.96661" lon="4.86788">
        <ele>288</ele>
        <time>2018-06-29T08:57:13Z</time>
      </trkpt>
      <trkpt lat="45.96657" lon="4.86794">
        <ele>288</ele>
        <time>2018-06-29T08:57:14Z</time>
      </trkpt>
      <trkpt lat="45.96655" lon="4.86799">
        <ele>288</ele>
        <time>2018-06-29T08:57:15Z</time>
      </trkpt>
      <trkpt lat="45.96651" lon="4.86804">
        <ele>288</ele>
        <time>2018-06-29T08:57:16Z</time>
      </trkpt>
      <trkpt lat="45.96648" lon="4.8681">
        <ele>288</ele>
        <time>2018-06-29T08:57:17Z</time>
      </trkpt>
      <trkpt lat="45.96645" lon="4.86815">
        <ele>288</ele>
        <time>2018-06-29T08:57:18Z</time>
      </trkpt>
      <trkpt lat="45.96641" lon="4.86821">
        <ele>288</ele>
        <time>2018-06-29T08:57:19Z</time>
      </trkpt>
      <trkpt lat="45.96638" lon="4.86829">
        <ele>288</ele>
        <time>2018-06-29T08:57:20Z</time>
      </trkpt>
      <trkpt lat="45.96634" lon="4.86834">
        <ele>287</ele>
        <time>2018-06-29T08:57:21Z</time>
      </trkpt>
      <trkpt lat="45.96632" lon="4.86841">
        <ele>287</ele>
        <time>2018-06-29T08:57:22Z</time>
      </trkpt>
      <trkpt lat="45.96628" lon="4.86846">
        <ele>287</ele>
        <time>2018-06-29T08:57:23Z</time>
      </trkpt>
      <trkpt lat="45.96624" lon="4.86851">
        <ele>287</ele>
        <time>2018-06-29T08:57:24Z</time>
      </trkpt>
      <trkpt lat="45.96621" lon="4.86856">
        <ele>287</ele>
        <time>2018-06-29T08:57:25Z</time>
      </trkpt>
      <trkpt lat="45.96617" lon="4.86861">
        <ele>287</ele>
        <time>2018-06-29T08:57:26Z</time>
      </trkpt>
      <trkpt lat="45.96612" lon="4.86867">
        <ele>287</ele>
        <time>2018-06-29T08:57:27Z</time>
      </trkpt>
      <trkpt lat="45.96609" lon="4.86872">
        <ele>287</ele>
        <time>2018-06-29T08:57:28Z</time>
      </trkpt>
      <trkpt lat="45.96606" lon="4.86876">
        <ele>287</ele>
        <time>2018-06-29T08:57:29Z</time>
      </trkpt>
      <trkpt lat="45.96602" lon="4.86881">
        <ele>287</ele>
        <time>2018-06-29T08:57:30Z</time>
      </trkpt>
      <trkpt lat="45.96598" lon="4.86886">
        <ele>287</ele>
        <time>2018-06-29T08:57:31Z</time>
      </trkpt>
      <trkpt lat="45.96595" lon="4.86891">
        <ele>286</ele>
        <time>2018-06-29T08:57:32Z</time>
      </trkpt>
      <trkpt lat="45.96591" lon="4.86898">
        <ele>286</ele>
        <time>2018-06-29T08:57:33Z</time>
      </trkpt>
      <trkpt lat="45.96588" lon="4.86904">
        <ele>286</ele>
        <time>2018-06-29T08:57:34Z</time>
      </trkpt>
      <trkpt lat="45.96584" lon="4.8691">
        <ele>286</ele>
        <time>2018-06-29T08:57:35Z</time>
      </trkpt>
      <trkpt lat="45.96581" lon="4.86915">
        <ele>285</ele>
        <time>2018-06-29T08:57:36Z</time>
      </trkpt>
      <trkpt lat="45.96577" lon="4.86922">
        <ele>284</ele>
        <time>2018-06-29T08:57:37Z</time>
      </trkpt>
      <trkpt lat="45.96574" lon="4.86929">
        <ele>284</ele>
        <time>2018-06-29T08:57:38Z</time>
      </trkpt>
      <trkpt lat="45.9657" lon="4.86936">
        <ele>284</ele>
        <time>2018-06-29T08:57:39Z</time>
      </trkpt>
      <trkpt lat="45.96567" lon="4.86945">
        <ele>284</ele>
        <time>2018-06-29T08:57:40Z</time>
      </trkpt>
      <trkpt lat="45.96563" lon="4.86951">
        <ele>283</ele>
        <time>2018-06-29T08:57:41Z</time>
      </trkpt>
      <trkpt lat="45.96558" lon="4.86957">
        <ele>283</ele>
        <time>2018-06-29T08:57:42Z</time>
      </trkpt>
      <trkpt lat="45.96555" lon="4.86962">
        <ele>283</ele>
        <time>2018-06-29T08:57:43Z</time>
      </trkpt>
      <trkpt lat="45.96549" lon="4.86971">
        <ele>283</ele>
        <time>2018-06-29T08:57:45Z</time>
      </trkpt>
      <trkpt lat="45.96548" lon="4.86973">
        <ele>283</ele>
        <time>2018-06-29T08:57:46Z</time>
      </trkpt>
      <trkpt lat="45.96544" lon="4.8698">
        <ele>283</ele>
        <time>2018-06-29T08:57:49Z</time>
      </trkpt>
      <trkpt lat="45.96542" lon="4.86983">
        <ele>283</ele>
        <time>2018-06-29T08:57:50Z</time>
      </trkpt>
      <trkpt lat="45.96541" lon="4.86994">
        <ele>283</ele>
        <time>2018-06-29T08:57:53Z</time>
      </trkpt>
      <trkpt lat="45.96541" lon="4.86998">
        <ele>283</ele>
        <time>2018-06-29T08:57:54Z</time>
      </trkpt>
      <trkpt lat="45.96545" lon="4.87008">
        <ele>283</ele>
        <time>2018-06-29T08:57:57Z</time>
      </trkpt>
      <trkpt lat="45.96546" lon="4.87012">
        <ele>283</ele>
        <time>2018-06-29T08:57:58Z</time>
      </trkpt>
      <trkpt lat="45.96551" lon="4.87022">
        <ele>283</ele>
        <time>2018-06-29T08:58:11Z</time>
      </trkpt>
      <trkpt lat="45.96551" lon="4.87023">
        <ele>283</ele>
        <time>2018-06-29T08:58:12Z</time>
      </trkpt>
      <trkpt lat="45.96542" lon="4.87025">
        <ele>283</ele>
        <time>2018-06-29T09:04:27Z</time>
      </trkpt>
      <trkpt lat="45.96541" lon="4.87025">
        <ele>283</ele>
        <time>2018-06-29T09:04:28Z</time>
      </trkpt>
      <trkpt lat="45.96533" lon="4.87023">
        <ele>283</ele>
        <time>2018-06-29T09:04:37Z</time>
      </trkpt>
      <trkpt lat="45.96532" lon="4.87023">
        <ele>283</ele>
        <time>2018-06-29T09:04:38Z</time>
      </trkpt>
      <trkpt lat="45.9654" lon="4.87026">
        <ele>283</ele>
        <time>2018-06-29T09:04:53Z</time>
      </trkpt>
      <trkpt lat="45.96541" lon="4.87026">
        <ele>283</ele>
        <time>2018-06-29T09:04:54Z</time>
      </trkpt>
      <trkpt lat="45.96549" lon="4.87025">
        <ele>283</ele>
        <time>2018-06-29T09:06:26Z</time>
      </trkpt>
      <trkpt lat="45.9655" lon="4.87024">
        <ele>283</ele>
        <time>2018-06-29T09:06:27Z</time>
      </trkpt>
      <trkpt lat="45.96556" lon="4.87032">
        <ele>283</ele>
        <time>2018-06-29T09:06:35Z</time>
      </trkpt>
      <trkpt lat="45.96557" lon="4.87035">
        <ele>283</ele>
        <time>2018-06-29T09:06:36Z</time>
      </trkpt>
      <trkpt lat="45.96558" lon="4.87047">
        <ele>283</ele>
        <time>2018-06-29T09:06:39Z</time>
      </trkpt>
      <trkpt lat="45.96559" lon="4.87051">
        <ele>283</ele>
        <time>2018-06-29T09:06:40Z</time>
      </trkpt>
      <trkpt lat="45.96559" lon="4.87062">
        <ele>283</ele>
        <time>2018-06-29T09:06:44Z</time>
      </trkpt>
      <trkpt lat="45.96559" lon="4.87065">
        <ele>283</ele>
        <time>2018-06-29T09:06:45Z</time>
      </trkpt>
      <trkpt lat="45.96552" lon="4.87072">
        <ele>283</ele>
        <time>2018-06-29T09:06:50Z</time>
      </trkpt>
      <trkpt lat="45.9655" lon="4.87072">
        <ele>283</ele>
        <time>2018-06-29T09:06:51Z</time>
      </trkpt>
      <trkpt lat="45.96542" lon="4.87071">
        <ele>283</ele>
        <time>2018-06-29T09:06:55Z</time>
      </trkpt>
      <trkpt lat="45.9654" lon="4.87068">
        <ele>283</ele>
        <time>2018-06-29T09:06:56Z</time>
      </trkpt>
      <trkpt lat="45.96538" lon="4.87059">
        <ele>283</ele>
        <time>2018-06-29T09:06:58Z</time>
      </trkpt>
      <trkpt lat="45.96536" lon="4.87043">
        <ele>283</ele>
        <time>2018-06-29T09:06:59Z</time>
      </trkpt>
      <trkpt lat="45.96537" lon="4.87033">
        <ele>283</ele>
        <time>2018-06-29T09:07:02Z</time>
      </trkpt>
      <trkpt lat="45.96538" lon="4.87029">
        <ele>283</ele>
        <time>2018-06-29T09:07:03Z</time>
      </trkpt>
      <trkpt lat="45.96541" lon="4.87019">
        <ele>283</ele>
        <time>2018-06-29T09:07:06Z</time>
      </trkpt>
      <trkpt lat="45.96542" lon="4.87015">
        <ele>283</ele>
        <time>2018-06-29T09:07:07Z</time>
      </trkpt>
      <trkpt lat="45.96543" lon="4.87003">
        <ele>283</ele>
        <time>2018-06-29T09:07:10Z</time>
      </trkpt>
      <trkpt lat="45.96543" lon="4.86999">
        <ele>283</ele>
        <time>2018-06-29T09:07:11Z</time>
      </trkpt>
      <trkpt lat="45.96545" lon="4.86988">
        <ele>283</ele>
        <time>2018-06-29T09:07:15Z</time>
      </trkpt>
      <trkpt lat="45.96553" lon="4.86984">
        <ele>283</ele>
        <time>2018-06-29T09:07:16Z</time>
      </trkpt>
      <trkpt lat="45.96557" lon="4.86985">
        <ele>283</ele>
        <time>2018-06-29T09:07:18Z</time>
      </trkpt>
      <trkpt lat="45.96564" lon="4.86987">
        <ele>284</ele>
        <time>2018-06-29T09:07:19Z</time>
      </trkpt>
      <trkpt lat="45.96571" lon="4.86986">
        <ele>284</ele>
        <time>2018-06-29T09:07:20Z</time>
      </trkpt>
      <trkpt lat="45.96576" lon="4.86984">
        <ele>284</ele>
        <time>2018-06-29T09:07:21Z</time>
      </trkpt>
      <trkpt lat="45.96585" lon="4.86983">
        <ele>286</ele>
        <time>2018-06-29T09:07:23Z</time>
      </trkpt>
      <trkpt lat="45.96586" lon="4.86984">
        <ele>286</ele>
        <time>2018-06-29T09:07:24Z</time>
      </trkpt>
      <trkpt lat="45.96591" lon="4.86983">
        <ele>286</ele>
        <time>2018-06-29T09:07:26Z</time>
      </trkpt>
      <trkpt lat="45.96599" lon="4.86982">
        <ele>286</ele>
        <time>2018-06-29T09:07:27Z</time>
      </trkpt>
      <trkpt lat="45.96606" lon="4.86982">
        <ele>286</ele>
        <time>2018-06-29T09:07:30Z</time>
      </trkpt>
      <trkpt lat="45.96615" lon="4.86981">
        <ele>286</ele>
        <time>2018-06-29T09:07:31Z</time>
      </trkpt>
      <trkpt lat="45.9662" lon="4.86981">
        <ele>286</ele>
        <time>2018-06-29T09:07:34Z</time>
      </trkpt>
      <trkpt lat="45.96627" lon="4.8698">
        <ele>286</ele>
        <time>2018-06-29T09:07:35Z</time>
      </trkpt>
      <trkpt lat="45.96636" lon="4.86979">
        <ele>286</ele>
        <time>2018-06-29T09:07:38Z</time>
      </trkpt>
      <trkpt lat="45.96638" lon="4.86979">
        <ele>286</ele>
        <time>2018-06-29T09:07:39Z</time>
      </trkpt>
      <trkpt lat="45.96646" lon="4.86982">
        <ele>287</ele>
        <time>2018-06-29T09:07:41Z</time>
      </trkpt>
      <trkpt lat="45.96651" lon="4.86986">
        <ele>287</ele>
        <time>2018-06-29T09:07:42Z</time>
      </trkpt>
      <trkpt lat="45.96657" lon="4.86993">
        <ele>287</ele>
        <time>2018-06-29T09:07:44Z</time>
      </trkpt>
      <trkpt lat="45.9666" lon="4.86998">
        <ele>287</ele>
        <time>2018-06-29T09:07:45Z</time>
      </trkpt>
      <trkpt lat="45.96665" lon="4.87008">
        <ele>287</ele>
        <time>2018-06-29T09:07:47Z</time>
      </trkpt>
      <trkpt lat="45.96667" lon="4.87012">
        <ele>287</ele>
        <time>2018-06-29T09:07:48Z</time>
      </trkpt>
      <trkpt lat="45.96674" lon="4.87021">
        <ele>287</ele>
        <time>2018-06-29T09:07:50Z</time>
      </trkpt>
      <trkpt lat="45.96677" lon="4.87025">
        <ele>287</ele>
        <time>2018-06-29T09:07:51Z</time>
      </trkpt>
      <trkpt lat="45.96681" lon="4.87029">
        <ele>287</ele>
        <time>2018-06-29T09:07:52Z</time>
      </trkpt>
      <trkpt lat="45.96685" lon="4.87032">
        <ele>287</ele>
        <time>2018-06-29T09:07:53Z</time>
      </trkpt>
      <trkpt lat="45.96689" lon="4.87035">
        <ele>287</ele>
        <time>2018-06-29T09:07:54Z</time>
      </trkpt>
      <trkpt lat="45.96693" lon="4.87038">
        <ele>287</ele>
        <time>2018-06-29T09:07:55Z</time>
      </trkpt>
      <trkpt lat="45.96698" lon="4.87041">
        <ele>287</ele>
        <time>2018-06-29T09:07:56Z</time>
      </trkpt>
      <trkpt lat="45.96701" lon="4.87044">
        <ele>287</ele>
        <time>2018-06-29T09:07:57Z</time>
      </trkpt>
      <trkpt lat="45.96705" lon="4.87047">
        <ele>287</ele>
        <time>2018-06-29T09:07:58Z</time>
      </trkpt>
      <trkpt lat="45.96709" lon="4.8705">
        <ele>287</ele>
        <time>2018-06-29T09:07:59Z</time>
      </trkpt>
      <trkpt lat="45.96717" lon="4.87053">
        <ele>287</ele>
        <time>2018-06-29T09:08:01Z</time>
      </trkpt>
      <trkpt lat="45.9672" lon="4.87055">
        <ele>287</ele>
        <time>2018-06-29T09:08:02Z</time>
      </trkpt>
      <trkpt lat="45.96726" lon="4.87061">
        <ele>287</ele>
        <time>2018-06-29T09:08:04Z</time>
      </trkpt>
      <trkpt lat="45.9673" lon="4.87064">
        <ele>287</ele>
        <time>2018-06-29T09:08:05Z</time>
      </trkpt>
      <trkpt lat="45.96734" lon="4.87065">
        <ele>287</ele>
        <time>2018-06-29T09:08:06Z</time>
      </trkpt>
      <trkpt lat="45.96739" lon="4.87066">
        <ele>287</ele>
        <time>2018-06-29T09:08:07Z</time>
      </trkpt>
      <trkpt lat="45.96742" lon="4.87071">
        <ele>287</ele>
        <time>2018-06-29T09:08:08Z</time>
      </trkpt>
      <trkpt lat="45.96746" lon="4.87076">
        <ele>287</ele>
        <time>2018-06-29T09:08:09Z</time>
      </trkpt>
      <trkpt lat="45.96749" lon="4.8708">
        <ele>287</ele>
        <time>2018-06-29T09:08:10Z</time>
      </trkpt>
      <trkpt lat="45.96754" lon="4.87083">
        <ele>287</ele>
        <time>2018-06-29T09:08:11Z</time>
      </trkpt>
      <trkpt lat="45.96759" lon="4.87093">
        <ele>287</ele>
        <time>2018-06-29T09:08:13Z</time>
      </trkpt>
      <trkpt lat="45.96763" lon="4.87098">
        <ele>287</ele>
        <time>2018-06-29T09:08:14Z</time>
      </trkpt>
      <trkpt lat="45.96767" lon="4.87102">
        <ele>286</ele>
        <time>2018-06-29T09:08:15Z</time>
      </trkpt>
      <trkpt lat="45.9677" lon="4.87106">
        <ele>286</ele>
        <time>2018-06-29T09:08:16Z</time>
      </trkpt>
      <trkpt lat="45.96774" lon="4.87111">
        <ele>286</ele>
        <time>2018-06-29T09:08:17Z</time>
      </trkpt>
      <trkpt lat="45.96776" lon="4.87117">
        <ele>286</ele>
        <time>2018-06-29T09:08:18Z</time>
      </trkpt>
      <trkpt lat="45.96779" lon="4.87125">
        <ele>286</ele>
        <time>2018-06-29T09:08:19Z</time>
      </trkpt>
      <trkpt lat="45.96782" lon="4.87129">
        <ele>286</ele>
        <time>2018-06-29T09:08:20Z</time>
      </trkpt>
      <trkpt lat="45.96785" lon="4.87135">
        <ele>286</ele>
        <time>2018-06-29T09:08:21Z</time>
      </trkpt>
      <trkpt lat="45.96787" lon="4.8714">
        <ele>286</ele>
        <time>2018-06-29T09:08:22Z</time>
      </trkpt>
      <trkpt lat="45.96794" lon="4.87145">
        <ele>286</ele>
        <time>2018-06-29T09:08:24Z</time>
      </trkpt>
      <trkpt lat="45.96798" lon="4.87144">
        <ele>286</ele>
        <time>2018-06-29T09:08:25Z</time>
      </trkpt>
      <trkpt lat="45.96805" lon="4.87138">
        <ele>286</ele>
        <time>2018-06-29T09:08:27Z</time>
      </trkpt>
      <trkpt lat="45.96807" lon="4.87133">
        <ele>286</ele>
        <time>2018-06-29T09:08:28Z</time>
      </trkpt>
      <trkpt lat="45.96808" lon="4.87122">
        <ele>286</ele>
        <time>2018-06-29T09:08:30Z</time>
      </trkpt>
      <trkpt lat="45.96811" lon="4.87115">
        <ele>286</ele>
        <time>2018-06-29T09:08:31Z</time>
      </trkpt>
      <trkpt lat="45.96813" lon="4.8711">
        <ele>286</ele>
        <time>2018-06-29T09:08:32Z</time>
      </trkpt>
      <trkpt lat="45.96815" lon="4.87103">
        <ele>287</ele>
        <time>2018-06-29T09:08:33Z</time>
      </trkpt>
      <trkpt lat="45.96817" lon="4.87096">
        <ele>287</ele>
        <time>2018-06-29T09:08:34Z</time>
      </trkpt>
      <trkpt lat="45.96819" lon="4.8709">
        <ele>287</ele>
        <time>2018-06-29T09:08:35Z</time>
      </trkpt>
      <trkpt lat="45.96821" lon="4.87083">
        <ele>287</ele>
        <time>2018-06-29T09:08:36Z</time>
      </trkpt>
      <trkpt lat="45.96823" lon="4.87076">
        <ele>287</ele>
        <time>2018-06-29T09:08:37Z</time>
      </trkpt>
      <trkpt lat="45.96826" lon="4.87063">
        <ele>287</ele>
        <time>2018-06-29T09:08:39Z</time>
      </trkpt>
      <trkpt lat="45.96827" lon="4.87057">
        <ele>287</ele>
        <time>2018-06-29T09:08:40Z</time>
      </trkpt>
      <trkpt lat="45.9683" lon="4.87046">
        <ele>287</ele>
        <time>2018-06-29T09:08:42Z</time>
      </trkpt>
      <trkpt lat="45.96832" lon="4.8704">
        <ele>288</ele>
        <time>2018-06-29T09:08:43Z</time>
      </trkpt>
      <trkpt lat="45.96834" lon="4.87027">
        <ele>287</ele>
        <time>2018-06-29T09:08:45Z</time>
      </trkpt>
      <trkpt lat="45.96835" lon="4.8702">
        <ele>287</ele>
        <time>2018-06-29T09:08:46Z</time>
      </trkpt>
      <trkpt lat="45.96837" lon="4.87013">
        <ele>288</ele>
        <time>2018-06-29T09:08:47Z</time>
      </trkpt>
      <trkpt lat="45.9684" lon="4.87008">
        <ele>288</ele>
        <time>2018-06-29T09:08:48Z</time>
      </trkpt>
      <trkpt lat="45.96839" lon="4.87">
        <ele>288</ele>
        <time>2018-06-29T09:08:49Z</time>
      </trkpt>
      <trkpt lat="45.96841" lon="4.86995">
        <ele>288</ele>
        <time>2018-06-29T09:08:50Z</time>
      </trkpt>
      <trkpt lat="45.96845" lon="4.8699">
        <ele>288</ele>
        <time>2018-06-29T09:08:51Z</time>
      </trkpt>
      <trkpt lat="45.96847" lon="4.86984">
        <ele>288</ele>
        <time>2018-06-29T09:08:52Z</time>
      </trkpt>
      <trkpt lat="45.96851" lon="4.86975">
        <ele>288</ele>
        <time>2018-06-29T09:08:54Z</time>
      </trkpt>
      <trkpt lat="45.96853" lon="4.8697">
        <ele>288</ele>
        <time>2018-06-29T09:08:55Z</time>
      </trkpt>
      <trkpt lat="45.96853" lon="4.86963">
        <ele>288</ele>
        <time>2018-06-29T09:08:56Z</time>
      </trkpt>
      <trkpt lat="45.96856" lon="4.86957">
        <ele>288</ele>
        <time>2018-06-29T09:08:57Z</time>
      </trkpt>
      <trkpt lat="45.9686" lon="4.86945">
        <ele>288</ele>
        <time>2018-06-29T09:08:59Z</time>
      </trkpt>
      <trkpt lat="45.96862" lon="4.86939">
        <ele>288</ele>
        <time>2018-06-29T09:09:00Z</time>
      </trkpt>
      <trkpt lat="45.96864" lon="4.86934">
        <ele>288</ele>
        <time>2018-06-29T09:09:01Z</time>
      </trkpt>
      <trkpt lat="45.96867" lon="4.86928">
        <ele>288</ele>
        <time>2018-06-29T09:09:02Z</time>
      </trkpt>
      <trkpt lat="45.96869" lon="4.86923">
        <ele>288</ele>
        <time>2018-06-29T09:09:03Z</time>
      </trkpt>
      <trkpt lat="45.96871" lon="4.86915">
        <ele>289</ele>
        <time>2018-06-29T09:09:04Z</time>
      </trkpt>
      <trkpt lat="45.96873" lon="4.86909">
        <ele>289</ele>
        <time>2018-06-29T09:09:05Z</time>
      </trkpt>
      <trkpt lat="45.96875" lon="4.86902">
        <ele>289</ele>
        <time>2018-06-29T09:09:06Z</time>
      </trkpt>
      <trkpt lat="45.96877" lon="4.86897">
        <ele>289</ele>
        <time>2018-06-29T09:09:07Z</time>
      </trkpt>
      <trkpt lat="45.96878" lon="4.86889">
        <ele>289</ele>
        <time>2018-06-29T09:09:08Z</time>
      </trkpt>
      <trkpt lat="45.96881" lon="4.86883">
        <ele>289</ele>
        <time>2018-06-29T09:09:09Z</time>
      </trkpt>
      <trkpt lat="45.96883" lon="4.86877">
        <ele>289</ele>
        <time>2018-06-29T09:09:10Z</time>
      </trkpt>
      <trkpt lat="45.96885" lon="4.86871">
        <ele>289</ele>
        <time>2018-06-29T09:09:11Z</time>
      </trkpt>
      <trkpt lat="45.96886" lon="4.86865">
        <ele>289</ele>
        <time>2018-06-29T09:09:12Z</time>
      </trkpt>
      <trkpt lat="45.96889" lon="4.8686">
        <ele>289</ele>
        <time>2018-06-29T09:09:13Z</time>
      </trkpt>
      <trkpt lat="45.9689" lon="4.86854">
        <ele>289</ele>
        <time>2018-06-29T09:09:14Z</time>
      </trkpt>
      <trkpt lat="45.96894" lon="4.86843">
        <ele>289</ele>
        <time>2018-06-29T09:09:16Z</time>
      </trkpt>
      <trkpt lat="45.96895" lon="4.86837">
        <ele>289</ele>
        <time>2018-06-29T09:09:17Z</time>
      </trkpt>
      <trkpt lat="45.96895" lon="4.86825">
        <ele>289</ele>
        <time>2018-06-29T09:09:19Z</time>
      </trkpt>
      <trkpt lat="45.96898" lon="4.86821">
        <ele>288</ele>
        <time>2018-06-29T09:09:20Z</time>
      </trkpt>
      <trkpt lat="45.96902" lon="4.8681">
        <ele>288</ele>
        <time>2018-06-29T09:09:24Z</time>
      </trkpt>
      <trkpt lat="45.96909" lon="4.86807">
        <ele>288</ele>
        <time>2018-06-29T09:09:25Z</time>
      </trkpt>
      <trkpt lat="45.96913" lon="4.86809">
        <ele>288</ele>
        <time>2018-06-29T09:09:26Z</time>
      </trkpt>
      <trkpt lat="45.96918" lon="4.86812">
        <ele>287</ele>
        <time>2018-06-29T09:09:27Z</time>
      </trkpt>
      <trkpt lat="45.96922" lon="4.86815">
        <ele>287</ele>
        <time>2018-06-29T09:09:28Z</time>
      </trkpt>
      <trkpt lat="45.96927" lon="4.86819">
        <ele>287</ele>
        <time>2018-06-29T09:09:29Z</time>
      </trkpt>
      <trkpt lat="45.96931" lon="4.86823">
        <ele>287</ele>
        <time>2018-06-29T09:09:30Z</time>
      </trkpt>
      <trkpt lat="45.96937" lon="4.86827">
        <ele>287</ele>
        <time>2018-06-29T09:09:31Z</time>
      </trkpt>
      <trkpt lat="45.96944" lon="4.8683">
        <ele>287</ele>
        <time>2018-06-29T09:09:32Z</time>
      </trkpt>
      <trkpt lat="45.9695" lon="4.86833">
        <ele>287</ele>
        <time>2018-06-29T09:09:33Z</time>
      </trkpt>
      <trkpt lat="45.96956" lon="4.86836">
        <ele>287</ele>
        <time>2018-06-29T09:09:34Z</time>
      </trkpt>
      <trkpt lat="45.96962" lon="4.86839">
        <ele>287</ele>
        <time>2018-06-29T09:09:35Z</time>
      </trkpt>
      <trkpt lat="45.96967" lon="4.86842">
        <ele>286</ele>
        <time>2018-06-29T09:09:36Z</time>
      </trkpt>
      <trkpt lat="45.96973" lon="4.86843">
        <ele>286</ele>
        <time>2018-06-29T09:09:37Z</time>
      </trkpt>
      <trkpt lat="45.96979" lon="4.86845">
        <ele>286</ele>
        <time>2018-06-29T09:09:38Z</time>
      </trkpt>
      <trkpt lat="45.96986" lon="4.86846">
        <ele>286</ele>
        <time>2018-06-29T09:09:39Z</time>
      </trkpt>
      <trkpt lat="45.96993" lon="4.86847">
        <ele>286</ele>
        <time>2018-06-29T09:09:40Z</time>
      </trkpt>
      <trkpt lat="45.97" lon="4.86846">
        <ele>285</ele>
        <time>2018-06-29T09:09:41Z</time>
      </trkpt>
      <trkpt lat="45.97006" lon="4.86847">
        <ele>285</ele>
        <time>2018-06-29T09:09:42Z</time>
      </trkpt>
      <trkpt lat="45.9701" lon="4.86846">
        <ele>285</ele>
        <time>2018-06-29T09:09:43Z</time>
      </trkpt>
      <trkpt lat="45.97017" lon="4.86846">
        <ele>285</ele>
        <time>2018-06-29T09:09:44Z</time>
      </trkpt>
      <trkpt lat="45.97022" lon="4.86846">
        <ele>285</ele>
        <time>2018-06-29T09:09:45Z</time>
      </trkpt>
      <trkpt lat="45.97029" lon="4.86845">
        <ele>285</ele>
        <time>2018-06-29T09:09:46Z</time>
      </trkpt>
      <trkpt lat="45.97033" lon="4.86844">
        <ele>285</ele>
        <time>2018-06-29T09:09:47Z</time>
      </trkpt>
      <trkpt lat="45.9704" lon="4.86843">
        <ele>285</ele>
        <time>2018-06-29T09:09:48Z</time>
      </trkpt>
      <trkpt lat="45.97045" lon="4.86842">
        <ele>285</ele>
        <time>2018-06-29T09:09:49Z</time>
      </trkpt>
      <trkpt lat="45.97052" lon="4.86842">
        <ele>285</ele>
        <time>2018-06-29T09:09:50Z</time>
      </trkpt>
      <trkpt lat="45.97057" lon="4.8684">
        <ele>284</ele>
        <time>2018-06-29T09:09:51Z</time>
      </trkpt>
      <trkpt lat="45.97064" lon="4.86838">
        <ele>284</ele>
        <time>2018-06-29T09:09:52Z</time>
      </trkpt>
      <trkpt lat="45.9707" lon="4.86836">
        <ele>284</ele>
        <time>2018-06-29T09:09:53Z</time>
      </trkpt>
      <trkpt lat="45.97076" lon="4.86837">
        <ele>284</ele>
        <time>2018-06-29T09:09:54Z</time>
      </trkpt>
      <trkpt lat="45.97083" lon="4.86837">
        <ele>284</ele>
        <time>2018-06-29T09:09:55Z</time>
      </trkpt>
      <trkpt lat="45.97088" lon="4.86836">
        <ele>284</ele>
        <time>2018-06-29T09:09:56Z</time>
      </trkpt>
      <trkpt lat="45.97094" lon="4.86836">
        <ele>284</ele>
        <time>2018-06-29T09:09:57Z</time>
      </trkpt>
      <trkpt lat="45.971" lon="4.86834">
        <ele>284</ele>
        <time>2018-06-29T09:09:58Z</time>
      </trkpt>
      <trkpt lat="45.97105" lon="4.86833">
        <ele>284</ele>
        <time>2018-06-29T09:09:59Z</time>
      </trkpt>
      <trkpt lat="45.97111" lon="4.86832">
        <ele>283</ele>
        <time>2018-06-29T09:10:00Z</time>
      </trkpt>
      <trkpt lat="45.97118" lon="4.8683">
        <ele>283</ele>
        <time>2018-06-29T09:10:01Z</time>
      </trkpt>
      <trkpt lat="45.97124" lon="4.86825">
        <ele>283</ele>
        <time>2018-06-29T09:10:02Z</time>
      </trkpt>
      <trkpt lat="45.97131" lon="4.86823">
        <ele>283</ele>
        <time>2018-06-29T09:10:03Z</time>
      </trkpt>
      <trkpt lat="45.97138" lon="4.86821">
        <ele>283</ele>
        <time>2018-06-29T09:10:04Z</time>
      </trkpt>
      <trkpt lat="45.97144" lon="4.86818">
        <ele>283</ele>
        <time>2018-06-29T09:10:05Z</time>
      </trkpt>
      <trkpt lat="45.9715" lon="4.86816">
        <ele>283</ele>
        <time>2018-06-29T09:10:06Z</time>
      </trkpt>
      <trkpt lat="45.97156" lon="4.86813">
        <ele>283</ele>
        <time>2018-06-29T09:10:07Z</time>
      </trkpt>
      <trkpt lat="45.97163" lon="4.8681">
        <ele>283</ele>
        <time>2018-06-29T09:10:08Z</time>
      </trkpt>
      <trkpt lat="45.97169" lon="4.86808">
        <ele>283</ele>
        <time>2018-06-29T09:10:09Z</time>
      </trkpt>
      <trkpt lat="45.97175" lon="4.86805">
        <ele>283</ele>
        <time>2018-06-29T09:10:10Z</time>
      </trkpt>
      <trkpt lat="45.9718" lon="4.86803">
        <ele>284</ele>
        <time>2018-06-29T09:10:11Z</time>
      </trkpt>
      <trkpt lat="45.97185" lon="4.86801">
        <ele>284</ele>
        <time>2018-06-29T09:10:12Z</time>
      </trkpt>
      <trkpt lat="45.97191" lon="4.86798">
        <ele>284</ele>
        <time>2018-06-29T09:10:13Z</time>
      </trkpt>
      <trkpt lat="45.97196" lon="4.86794">
        <ele>284</ele>
        <time>2018-06-29T09:10:14Z</time>
      </trkpt>
      <trkpt lat="45.97202" lon="4.86792">
        <ele>284</ele>
        <time>2018-06-29T09:10:15Z</time>
      </trkpt>
      <trkpt lat="45.97208" lon="4.8679">
        <ele>284</ele>
        <time>2018-06-29T09:10:16Z</time>
      </trkpt>
      <trkpt lat="45.97211" lon="4.86789">
        <ele>284</ele>
        <time>2018-06-29T09:10:17Z</time>
      </trkpt>
      <trkpt lat="45.97218" lon="4.86789">
        <ele>284</ele>
        <time>2018-06-29T09:10:18Z</time>
      </trkpt>
      <trkpt lat="45.97224" lon="4.8679">
        <ele>284</ele>
        <time>2018-06-29T09:10:19Z</time>
      </trkpt>
      <trkpt lat="45.97231" lon="4.8679">
        <ele>284</ele>
        <time>2018-06-29T09:10:20Z</time>
      </trkpt>
      <trkpt lat="45.97237" lon="4.86793">
        <ele>284</ele>
        <time>2018-06-29T09:10:21Z</time>
      </trkpt>
      <trkpt lat="45.97243" lon="4.86797">
        <ele>284</ele>
        <time>2018-06-29T09:10:22Z</time>
      </trkpt>
      <trkpt lat="45.97247" lon="4.86802">
        <ele>284</ele>
        <time>2018-06-29T09:10:23Z</time>
      </trkpt>
      <trkpt lat="45.97251" lon="4.86808">
        <ele>285</ele>
        <time>2018-06-29T09:10:24Z</time>
      </trkpt>
      <trkpt lat="45.97254" lon="4.86815">
        <ele>285</ele>
        <time>2018-06-29T09:10:25Z</time>
      </trkpt>
      <trkpt lat="45.97258" lon="4.86822">
        <ele>285</ele>
        <time>2018-06-29T09:10:26Z</time>
      </trkpt>
      <trkpt lat="45.97261" lon="4.8683">
        <ele>285</ele>
        <time>2018-06-29T09:10:27Z</time>
      </trkpt>
      <trkpt lat="45.97264" lon="4.86837">
        <ele>285</ele>
        <time>2018-06-29T09:10:28Z</time>
      </trkpt>
      <trkpt lat="45.97269" lon="4.86844">
        <ele>285</ele>
        <time>2018-06-29T09:10:29Z</time>
      </trkpt>
      <trkpt lat="45.97272" lon="4.8685">
        <ele>285</ele>
        <time>2018-06-29T09:10:30Z</time>
      </trkpt>
      <trkpt lat="45.97277" lon="4.86856">
        <ele>285</ele>
        <time>2018-06-29T09:10:31Z</time>
      </trkpt>
      <trkpt lat="45.9728" lon="4.86862">
        <ele>285</ele>
        <time>2018-06-29T09:10:32Z</time>
      </trkpt>
      <trkpt lat="45.97284" lon="4.86867">
        <ele>285</ele>
        <time>2018-06-29T09:10:33Z</time>
      </trkpt>
      <trkpt lat="45.97289" lon="4.86871">
        <ele>285</ele>
        <time>2018-06-29T09:10:34Z</time>
      </trkpt>
      <trkpt lat="45.97293" lon="4.86876">
        <ele>284</ele>
        <time>2018-06-29T09:10:35Z</time>
      </trkpt>
      <trkpt lat="45.97295" lon="4.86882">
        <ele>284</ele>
        <time>2018-06-29T09:10:36Z</time>
      </trkpt>
      <trkpt lat="45.97302" lon="4.86888">
        <ele>284</ele>
        <time>2018-06-29T09:10:37Z</time>
      </trkpt>
      <trkpt lat="45.97306" lon="4.86894">
        <ele>284</ele>
        <time>2018-06-29T09:10:38Z</time>
      </trkpt>
      <trkpt lat="45.9731" lon="4.869">
        <ele>284</ele>
        <time>2018-06-29T09:10:39Z</time>
      </trkpt>
      <trkpt lat="45.97316" lon="4.86907">
        <ele>284</ele>
        <time>2018-06-29T09:10:40Z</time>
      </trkpt>
      <trkpt lat="45.9732" lon="4.86913">
        <ele>284</ele>
        <time>2018-06-29T09:10:41Z</time>
      </trkpt>
      <trkpt lat="45.97324" lon="4.86919">
        <ele>284</ele>
        <time>2018-06-29T09:10:42Z</time>
      </trkpt>
      <trkpt lat="45.9733" lon="4.86924">
        <ele>284</ele>
        <time>2018-06-29T09:10:43Z</time>
      </trkpt>
      <trkpt lat="45.97334" lon="4.8693">
        <ele>284</ele>
        <time>2018-06-29T09:10:44Z</time>
      </trkpt>
      <trkpt lat="45.97338" lon="4.86937">
        <ele>284</ele>
        <time>2018-06-29T09:10:45Z</time>
      </trkpt>
      <trkpt lat="45.97342" lon="4.86944">
        <ele>284</ele>
        <time>2018-06-29T09:10:46Z</time>
      </trkpt>
      <trkpt lat="45.97347" lon="4.86951">
        <ele>284</ele>
        <time>2018-06-29T09:10:47Z</time>
      </trkpt>
      <trkpt lat="45.97352" lon="4.86957">
        <ele>284</ele>
        <time>2018-06-29T09:10:48Z</time>
      </trkpt>
      <trkpt lat="45.97356" lon="4.86962">
        <ele>285</ele>
        <time>2018-06-29T09:10:49Z</time>
      </trkpt>
      <trkpt lat="45.9736" lon="4.86967">
        <ele>285</ele>
        <time>2018-06-29T09:10:50Z</time>
      </trkpt>
      <trkpt lat="45.97366" lon="4.86972">
        <ele>285</ele>
        <time>2018-06-29T09:10:51Z</time>
      </trkpt>
      <trkpt lat="45.9737" lon="4.86976">
        <ele>285</ele>
        <time>2018-06-29T09:10:52Z</time>
      </trkpt>
      <trkpt lat="45.97374" lon="4.86981">
        <ele>285</ele>
        <time>2018-06-29T09:10:53Z</time>
      </trkpt>
      <trkpt lat="45.97379" lon="4.86986">
        <ele>285</ele>
        <time>2018-06-29T09:10:54Z</time>
      </trkpt>
      <trkpt lat="45.97384" lon="4.86992">
        <ele>285</ele>
        <time>2018-06-29T09:10:55Z</time>
      </trkpt>
      <trkpt lat="45.97388" lon="4.86997">
        <ele>285</ele>
        <time>2018-06-29T09:10:56Z</time>
      </trkpt>
      <trkpt lat="45.97394" lon="4.87">
        <ele>285</ele>
        <time>2018-06-29T09:10:57Z</time>
      </trkpt>
      <trkpt lat="45.97398" lon="4.87002">
        <ele>285</ele>
        <time>2018-06-29T09:10:58Z</time>
      </trkpt>
      <trkpt lat="45.97403" lon="4.87007">
        <ele>285</ele>
        <time>2018-06-29T09:10:59Z</time>
      </trkpt>
      <trkpt lat="45.97406" lon="4.87011">
        <ele>285</ele>
        <time>2018-06-29T09:11:00Z</time>
      </trkpt>
      <trkpt lat="45.97412" lon="4.87016">
        <ele>285</ele>
        <time>2018-06-29T09:11:01Z</time>
      </trkpt>
      <trkpt lat="45.97416" lon="4.87018">
        <ele>285</ele>
        <time>2018-06-29T09:11:02Z</time>
      </trkpt>
      <trkpt lat="45.9742" lon="4.87023">
        <ele>284</ele>
        <time>2018-06-29T09:11:03Z</time>
      </trkpt>
      <trkpt lat="45.97425" lon="4.87028">
        <ele>284</ele>
        <time>2018-06-29T09:11:04Z</time>
      </trkpt>
      <trkpt lat="45.97429" lon="4.87034">
        <ele>284</ele>
        <time>2018-06-29T09:11:05Z</time>
      </trkpt>
      <trkpt lat="45.97435" lon="4.87038">
        <ele>284</ele>
        <time>2018-06-29T09:11:06Z</time>
      </trkpt>
      <trkpt lat="45.97439" lon="4.87043">
        <ele>284</ele>
        <time>2018-06-29T09:11:07Z</time>
      </trkpt>
      <trkpt lat="45.97445" lon="4.87047">
        <ele>284</ele>
        <time>2018-06-29T09:11:08Z</time>
      </trkpt>
      <trkpt lat="45.97452" lon="4.8705">
        <ele>284</ele>
        <time>2018-06-29T09:11:09Z</time>
      </trkpt>
      <trkpt lat="45.97456" lon="4.87055">
        <ele>284</ele>
        <time>2018-06-29T09:11:10Z</time>
      </trkpt>
      <trkpt lat="45.97461" lon="4.87057">
        <ele>284</ele>
        <time>2018-06-29T09:11:11Z</time>
      </trkpt>
      <trkpt lat="45.97464" lon="4.87061">
        <ele>284</ele>
        <time>2018-06-29T09:11:12Z</time>
      </trkpt>
      <trkpt lat="45.97471" lon="4.87065">
        <ele>284</ele>
        <time>2018-06-29T09:11:13Z</time>
      </trkpt>
      <trkpt lat="45.97475" lon="4.87073">
        <ele>284</ele>
        <time>2018-06-29T09:11:15Z</time>
      </trkpt>
      <trkpt lat="45.9748" lon="4.87079">
        <ele>284</ele>
        <time>2018-06-29T09:11:16Z</time>
      </trkpt>
      <trkpt lat="45.97483" lon="4.87083">
        <ele>283</ele>
        <time>2018-06-29T09:11:17Z</time>
      </trkpt>
      <trkpt lat="45.97486" lon="4.87088">
        <ele>283</ele>
        <time>2018-06-29T09:11:18Z</time>
      </trkpt>
      <trkpt lat="45.97491" lon="4.87093">
        <ele>283</ele>
        <time>2018-06-29T09:11:19Z</time>
      </trkpt>
      <trkpt lat="45.97496" lon="4.87098">
        <ele>283</ele>
        <time>2018-06-29T09:11:20Z</time>
      </trkpt>
      <trkpt lat="45.97501" lon="4.87103">
        <ele>283</ele>
        <time>2018-06-29T09:11:21Z</time>
      </trkpt>
      <trkpt lat="45.97505" lon="4.87108">
        <ele>283</ele>
        <time>2018-06-29T09:11:22Z</time>
      </trkpt>
      <trkpt lat="45.97512" lon="4.87113">
        <ele>283</ele>
        <time>2018-06-29T09:11:23Z</time>
      </trkpt>
      <trkpt lat="45.97516" lon="4.87119">
        <ele>283</ele>
        <time>2018-06-29T09:11:24Z</time>
      </trkpt>
      <trkpt lat="45.97521" lon="4.87124">
        <ele>283</ele>
        <time>2018-06-29T09:11:25Z</time>
      </trkpt>
      <trkpt lat="45.97526" lon="4.87128">
        <ele>283</ele>
        <time>2018-06-29T09:11:26Z</time>
      </trkpt>
      <trkpt lat="45.97529" lon="4.87135">
        <ele>283</ele>
        <time>2018-06-29T09:11:27Z</time>
      </trkpt>
      <trkpt lat="45.97533" lon="4.87139">
        <ele>283</ele>
        <time>2018-06-29T09:11:28Z</time>
      </trkpt>
      <trkpt lat="45.97536" lon="4.87144">
        <ele>283</ele>
        <time>2018-06-29T09:11:29Z</time>
      </trkpt>
      <trkpt lat="45.97541" lon="4.87148">
        <ele>283</ele>
        <time>2018-06-29T09:11:30Z</time>
      </trkpt>
      <trkpt lat="45.97547" lon="4.87157">
        <ele>283</ele>
        <time>2018-06-29T09:11:32Z</time>
      </trkpt>
      <trkpt lat="45.9755" lon="4.87162">
        <ele>283</ele>
        <time>2018-06-29T09:11:33Z</time>
      </trkpt>
      <trkpt lat="45.97557" lon="4.87165">
        <ele>283</ele>
        <time>2018-06-29T09:11:34Z</time>
      </trkpt>
      <trkpt lat="45.97563" lon="4.87172">
        <ele>283</ele>
        <time>2018-06-29T09:11:35Z</time>
      </trkpt>
      <trkpt lat="45.97569" lon="4.8718">
        <ele>283</ele>
        <time>2018-06-29T09:11:36Z</time>
      </trkpt>
      <trkpt lat="45.97574" lon="4.87185">
        <ele>283</ele>
        <time>2018-06-29T09:11:37Z</time>
      </trkpt>
      <trkpt lat="45.97577" lon="4.87191">
        <ele>283</ele>
        <time>2018-06-29T09:11:38Z</time>
      </trkpt>
      <trkpt lat="45.97584" lon="4.87195">
        <ele>283</ele>
        <time>2018-06-29T09:11:39Z</time>
      </trkpt>
      <trkpt lat="45.97589" lon="4.87201">
        <ele>283</ele>
        <time>2018-06-29T09:11:40Z</time>
      </trkpt>
      <trkpt lat="45.97596" lon="4.87206">
        <ele>284</ele>
        <time>2018-06-29T09:11:41Z</time>
      </trkpt>
      <trkpt lat="45.97602" lon="4.87211">
        <ele>284</ele>
        <time>2018-06-29T09:11:42Z</time>
      </trkpt>
      <trkpt lat="45.97606" lon="4.87215">
        <ele>284</ele>
        <time>2018-06-29T09:11:43Z</time>
      </trkpt>
      <trkpt lat="45.97612" lon="4.87219">
        <ele>284</ele>
        <time>2018-06-29T09:11:44Z</time>
      </trkpt>
      <trkpt lat="45.97617" lon="4.87223">
        <ele>284</ele>
        <time>2018-06-29T09:11:45Z</time>
      </trkpt>
      <trkpt lat="45.97622" lon="4.87228">
        <ele>284</ele>
        <time>2018-06-29T09:11:46Z</time>
      </trkpt>
      <trkpt lat="45.97627" lon="4.87233">
        <ele>284</ele>
        <time>2018-06-29T09:11:47Z</time>
      </trkpt>
      <trkpt lat="45.97631" lon="4.87238">
        <ele>284</ele>
        <time>2018-06-29T09:11:48Z</time>
      </trkpt>
      <trkpt lat="45.97636" lon="4.87243">
        <ele>284</ele>
        <time>2018-06-29T09:11:49Z</time>
      </trkpt>
      <trkpt lat="45.97641" lon="4.87248">
        <ele>284</ele>
        <time>2018-06-29T09:11:50Z</time>
      </trkpt>
      <trkpt lat="45.97647" lon="4.87253">
        <ele>285</ele>
        <time>2018-06-29T09:11:51Z</time>
      </trkpt>
      <trkpt lat="45.9765" lon="4.87258">
        <ele>285</ele>
        <time>2018-06-29T09:11:52Z</time>
      </trkpt>
      <trkpt lat="45.97656" lon="4.87262">
        <ele>285</ele>
        <time>2018-06-29T09:11:53Z</time>
      </trkpt>
      <trkpt lat="45.9766" lon="4.87272">
        <ele>285</ele>
        <time>2018-06-29T09:11:55Z</time>
      </trkpt>
      <trkpt lat="45.97665" lon="4.87276">
        <ele>285</ele>
        <time>2018-06-29T09:11:56Z</time>
      </trkpt>
      <trkpt lat="45.97672" lon="4.87282">
        <ele>286</ele>
        <time>2018-06-29T09:11:57Z</time>
      </trkpt>
      <trkpt lat="45.9768" lon="4.87286">
        <ele>286</ele>
        <time>2018-06-29T09:11:58Z</time>
      </trkpt>
      <trkpt lat="45.97684" lon="4.87291">
        <ele>286</ele>
        <time>2018-06-29T09:11:59Z</time>
      </trkpt>
      <trkpt lat="45.97689" lon="4.87297">
        <ele>286</ele>
        <time>2018-06-29T09:12:00Z</time>
      </trkpt>
      <trkpt lat="45.97694" lon="4.87304">
        <ele>286</ele>
        <time>2018-06-29T09:12:01Z</time>
      </trkpt>
      <trkpt lat="45.97699" lon="4.87309">
        <ele>286</ele>
        <time>2018-06-29T09:12:02Z</time>
      </trkpt>
      <trkpt lat="45.97703" lon="4.87314">
        <ele>286</ele>
        <time>2018-06-29T09:12:03Z</time>
      </trkpt>
      <trkpt lat="45.9771" lon="4.8732">
        <ele>286</ele>
        <time>2018-06-29T09:12:04Z</time>
      </trkpt>
      <trkpt lat="45.97715" lon="4.87327">
        <ele>286</ele>
        <time>2018-06-29T09:12:05Z</time>
      </trkpt>
      <trkpt lat="45.97719" lon="4.87333">
        <ele>286</ele>
        <time>2018-06-29T09:12:06Z</time>
      </trkpt>
      <trkpt lat="45.97726" lon="4.8734">
        <ele>286</ele>
        <time>2018-06-29T09:12:07Z</time>
      </trkpt>
      <trkpt lat="45.97731" lon="4.87344">
        <ele>286</ele>
        <time>2018-06-29T09:12:08Z</time>
      </trkpt>
      <trkpt lat="45.97735" lon="4.8735">
        <ele>286</ele>
        <time>2018-06-29T09:12:09Z</time>
      </trkpt>
      <trkpt lat="45.97739" lon="4.87355">
        <ele>286</ele>
        <time>2018-06-29T09:12:10Z</time>
      </trkpt>
      <trkpt lat="45.97743" lon="4.8736">
        <ele>285</ele>
        <time>2018-06-29T09:12:11Z</time>
      </trkpt>
      <trkpt lat="45.97747" lon="4.87367">
        <ele>285</ele>
        <time>2018-06-29T09:12:12Z</time>
      </trkpt>
      <trkpt lat="45.97751" lon="4.87371">
        <ele>285</ele>
        <time>2018-06-29T09:12:13Z</time>
      </trkpt>
      <trkpt lat="45.97756" lon="4.87376">
        <ele>285</ele>
        <time>2018-06-29T09:12:14Z</time>
      </trkpt>
      <trkpt lat="45.97758" lon="4.87382">
        <ele>284</ele>
        <time>2018-06-29T09:12:15Z</time>
      </trkpt>
      <trkpt lat="45.97763" lon="4.87388">
        <ele>284</ele>
        <time>2018-06-29T09:12:16Z</time>
      </trkpt>
      <trkpt lat="45.97768" lon="4.87395">
        <ele>284</ele>
        <time>2018-06-29T09:12:17Z</time>
      </trkpt>
      <trkpt lat="45.97774" lon="4.87401">
        <ele>284</ele>
        <time>2018-06-29T09:12:18Z</time>
      </trkpt>
      <trkpt lat="45.9778" lon="4.87407">
        <ele>284</ele>
        <time>2018-06-29T09:12:19Z</time>
      </trkpt>
      <trkpt lat="45.97785" lon="4.87413">
        <ele>284</ele>
        <time>2018-06-29T09:12:20Z</time>
      </trkpt>
      <trkpt lat="45.9779" lon="4.87418">
        <ele>283</ele>
        <time>2018-06-29T09:12:21Z</time>
      </trkpt>
      <trkpt lat="45.97793" lon="4.87423">
        <ele>283</ele>
        <time>2018-06-29T09:12:22Z</time>
      </trkpt>
      <trkpt lat="45.97798" lon="4.87429">
        <ele>283</ele>
        <time>2018-06-29T09:12:23Z</time>
      </trkpt>
      <trkpt lat="45.97805" lon="4.87437">
        <ele>283</ele>
        <time>2018-06-29T09:12:24Z</time>
      </trkpt>
      <trkpt lat="45.9781" lon="4.87443">
        <ele>282</ele>
        <time>2018-06-29T09:12:25Z</time>
      </trkpt>
      <trkpt lat="45.97816" lon="4.87449">
        <ele>282</ele>
        <time>2018-06-29T09:12:26Z</time>
      </trkpt>
      <trkpt lat="45.97822" lon="4.87454">
        <ele>282</ele>
        <time>2018-06-29T09:12:27Z</time>
      </trkpt>
      <trkpt lat="45.97828" lon="4.8746">
        <ele>282</ele>
        <time>2018-06-29T09:12:28Z</time>
      </trkpt>
      <trkpt lat="45.97835" lon="4.87464">
        <ele>281</ele>
        <time>2018-06-29T09:12:29Z</time>
      </trkpt>
      <trkpt lat="45.9784" lon="4.87469">
        <ele>281</ele>
        <time>2018-06-29T09:12:30Z</time>
      </trkpt>
      <trkpt lat="45.97846" lon="4.87475">
        <ele>281</ele>
        <time>2018-06-29T09:12:31Z</time>
      </trkpt>
      <trkpt lat="45.97852" lon="4.87482">
        <ele>281</ele>
        <time>2018-06-29T09:12:32Z</time>
      </trkpt>
      <trkpt lat="45.97858" lon="4.87488">
        <ele>281</ele>
        <time>2018-06-29T09:12:33Z</time>
      </trkpt>
      <trkpt lat="45.97864" lon="4.87494">
        <ele>280</ele>
        <time>2018-06-29T09:12:34Z</time>
      </trkpt>
      <trkpt lat="45.9787" lon="4.875">
        <ele>280</ele>
        <time>2018-06-29T09:12:35Z</time>
      </trkpt>
      <trkpt lat="45.97876" lon="4.87505">
        <ele>281</ele>
        <time>2018-06-29T09:12:36Z</time>
      </trkpt>
      <trkpt lat="45.97883" lon="4.87508">
        <ele>281</ele>
        <time>2018-06-29T09:12:37Z</time>
      </trkpt>
      <trkpt lat="45.97889" lon="4.87512">
        <ele>280</ele>
        <time>2018-06-29T09:12:38Z</time>
      </trkpt>
      <trkpt lat="45.97894" lon="4.87513">
        <ele>280</ele>
        <time>2018-06-29T09:12:39Z</time>
      </trkpt>
      <trkpt lat="45.97901" lon="4.87516">
        <ele>280</ele>
        <time>2018-06-29T09:12:40Z</time>
      </trkpt>
      <trkpt lat="45.97906" lon="4.87519">
        <ele>280</ele>
        <time>2018-06-29T09:12:41Z</time>
      </trkpt>
      <trkpt lat="45.97912" lon="4.87522">
        <ele>280</ele>
        <time>2018-06-29T09:12:42Z</time>
      </trkpt>
      <trkpt lat="45.9792" lon="4.87524">
        <ele>279</ele>
        <time>2018-06-29T09:12:43Z</time>
      </trkpt>
      <trkpt lat="45.97925" lon="4.87527">
        <ele>279</ele>
        <time>2018-06-29T09:12:44Z</time>
      </trkpt>
      <trkpt lat="45.9793" lon="4.8753">
        <ele>279</ele>
        <time>2018-06-29T09:12:45Z</time>
      </trkpt>
      <trkpt lat="45.97935" lon="4.87533">
        <ele>279</ele>
        <time>2018-06-29T09:12:46Z</time>
      </trkpt>
      <trkpt lat="45.97941" lon="4.87535">
        <ele>279</ele>
        <time>2018-06-29T09:12:47Z</time>
      </trkpt>
      <trkpt lat="45.97947" lon="4.87536">
        <ele>279</ele>
        <time>2018-06-29T09:12:48Z</time>
      </trkpt>
      <trkpt lat="45.97953" lon="4.87538">
        <ele>279</ele>
        <time>2018-06-29T09:12:49Z</time>
      </trkpt>
      <trkpt lat="45.9796" lon="4.87541">
        <ele>279</ele>
        <time>2018-06-29T09:12:50Z</time>
      </trkpt>
      <trkpt lat="45.97966" lon="4.87544">
        <ele>279</ele>
        <time>2018-06-29T09:12:51Z</time>
      </trkpt>
      <trkpt lat="45.97971" lon="4.87549">
        <ele>279</ele>
        <time>2018-06-29T09:12:52Z</time>
      </trkpt>
      <trkpt lat="45.97976" lon="4.87556">
        <ele>279</ele>
        <time>2018-06-29T09:12:53Z</time>
      </trkpt>
      <trkpt lat="45.97981" lon="4.87562">
        <ele>279</ele>
        <time>2018-06-29T09:12:54Z</time>
      </trkpt>
      <trkpt lat="45.97985" lon="4.8757">
        <ele>280</ele>
        <time>2018-06-29T09:12:55Z</time>
      </trkpt>
      <trkpt lat="45.9799" lon="4.87576">
        <ele>280</ele>
        <time>2018-06-29T09:12:56Z</time>
      </trkpt>
      <trkpt lat="45.97994" lon="4.87584">
        <ele>280</ele>
        <time>2018-06-29T09:12:57Z</time>
      </trkpt>
      <trkpt lat="45.97998" lon="4.87593">
        <ele>280</ele>
        <time>2018-06-29T09:12:58Z</time>
      </trkpt>
      <trkpt lat="45.98002" lon="4.87601">
        <ele>280</ele>
        <time>2018-06-29T09:12:59Z</time>
      </trkpt>
      <trkpt lat="45.98006" lon="4.8761">
        <ele>280</ele>
        <time>2018-06-29T09:13:00Z</time>
      </trkpt>
      <trkpt lat="45.98009" lon="4.8762">
        <ele>280</ele>
        <time>2018-06-29T09:13:01Z</time>
      </trkpt>
      <trkpt lat="45.98011" lon="4.87629">
        <ele>280</ele>
        <time>2018-06-29T09:13:02Z</time>
      </trkpt>
      <trkpt lat="45.98013" lon="4.8764">
        <ele>280</ele>
        <time>2018-06-29T09:13:03Z</time>
      </trkpt>
      <trkpt lat="45.98017" lon="4.87649">
        <ele>280</ele>
        <time>2018-06-29T09:13:04Z</time>
      </trkpt>
      <trkpt lat="45.9802" lon="4.87658">
        <ele>280</ele>
        <time>2018-06-29T09:13:05Z</time>
      </trkpt>
      <trkpt lat="45.98022" lon="4.87666">
        <ele>280</ele>
        <time>2018-06-29T09:13:06Z</time>
      </trkpt>
      <trkpt lat="45.98024" lon="4.87674">
        <ele>280</ele>
        <time>2018-06-29T09:13:07Z</time>
      </trkpt>
      <trkpt lat="45.98027" lon="4.87682">
        <ele>280</ele>
        <time>2018-06-29T09:13:08Z</time>
      </trkpt>
      <trkpt lat="45.98029" lon="4.8769">
        <ele>280</ele>
        <time>2018-06-29T09:13:09Z</time>
      </trkpt>
      <trkpt lat="45.98031" lon="4.87698">
        <ele>280</ele>
        <time>2018-06-29T09:13:10Z</time>
      </trkpt>
      <trkpt lat="45.98032" lon="4.87707">
        <ele>280</ele>
        <time>2018-06-29T09:13:11Z</time>
      </trkpt>
      <trkpt lat="45.98035" lon="4.87714">
        <ele>279</ele>
        <time>2018-06-29T09:13:12Z</time>
      </trkpt>
      <trkpt lat="45.98038" lon="4.87721">
        <ele>279</ele>
        <time>2018-06-29T09:13:13Z</time>
      </trkpt>
      <trkpt lat="45.9804" lon="4.87728">
        <ele>279</ele>
        <time>2018-06-29T09:13:14Z</time>
      </trkpt>
      <trkpt lat="45.98043" lon="4.87736">
        <ele>280</ele>
        <time>2018-06-29T09:13:15Z</time>
      </trkpt>
      <trkpt lat="45.98047" lon="4.87747">
        <ele>280</ele>
        <time>2018-06-29T09:13:16Z</time>
      </trkpt>
      <trkpt lat="45.9805" lon="4.87756">
        <ele>280</ele>
        <time>2018-06-29T09:13:17Z</time>
      </trkpt>
      <trkpt lat="45.98052" lon="4.87764">
        <ele>280</ele>
        <time>2018-06-29T09:13:18Z</time>
      </trkpt>
      <trkpt lat="45.98055" lon="4.87773">
        <ele>280</ele>
        <time>2018-06-29T09:13:19Z</time>
      </trkpt>
      <trkpt lat="45.98057" lon="4.87782">
        <ele>280</ele>
        <time>2018-06-29T09:13:20Z</time>
      </trkpt>
      <trkpt lat="45.98058" lon="4.87791">
        <ele>280</ele>
        <time>2018-06-29T09:13:21Z</time>
      </trkpt>
      <trkpt lat="45.98061" lon="4.87801">
        <ele>280</ele>
        <time>2018-06-29T09:13:22Z</time>
      </trkpt>
      <trkpt lat="45.98063" lon="4.8781">
        <ele>280</ele>
        <time>2018-06-29T09:13:23Z</time>
      </trkpt>
      <trkpt lat="45.98066" lon="4.87819">
        <ele>280</ele>
        <time>2018-06-29T09:13:24Z</time>
      </trkpt>
      <trkpt lat="45.98069" lon="4.87827">
        <ele>279</ele>
        <time>2018-06-29T09:13:25Z</time>
      </trkpt>
      <trkpt lat="45.98072" lon="4.87836">
        <ele>279</ele>
        <time>2018-06-29T09:13:26Z</time>
      </trkpt>
      <trkpt lat="45.98075" lon="4.87845">
        <ele>279</ele>
        <time>2018-06-29T09:13:27Z</time>
      </trkpt>
      <trkpt lat="45.98077" lon="4.87855">
        <ele>280</ele>
        <time>2018-06-29T09:13:28Z</time>
      </trkpt>
      <trkpt lat="45.98079" lon="4.87863">
        <ele>280</ele>
        <time>2018-06-29T09:13:29Z</time>
      </trkpt>
      <trkpt lat="45.98082" lon="4.87872">
        <ele>280</ele>
        <time>2018-06-29T09:13:30Z</time>
      </trkpt>
      <trkpt lat="45.98085" lon="4.87881">
        <ele>278</ele>
        <time>2018-06-29T09:13:31Z</time>
      </trkpt>
      <trkpt lat="45.98087" lon="4.8789">
        <ele>278</ele>
        <time>2018-06-29T09:13:32Z</time>
      </trkpt>
      <trkpt lat="45.9809" lon="4.87899">
        <ele>278</ele>
        <time>2018-06-29T09:13:33Z</time>
      </trkpt>
      <trkpt lat="45.98093" lon="4.87908">
        <ele>278</ele>
        <time>2018-06-29T09:13:34Z</time>
      </trkpt>
      <trkpt lat="45.98095" lon="4.87917">
        <ele>278</ele>
        <time>2018-06-29T09:13:35Z</time>
      </trkpt>
      <trkpt lat="45.98099" lon="4.87926">
        <ele>278</ele>
        <time>2018-06-29T09:13:36Z</time>
      </trkpt>
      <trkpt lat="45.98102" lon="4.87935">
        <ele>277</ele>
        <time>2018-06-29T09:13:37Z</time>
      </trkpt>
      <trkpt lat="45.98104" lon="4.87944">
        <ele>277</ele>
        <time>2018-06-29T09:13:38Z</time>
      </trkpt>
      <trkpt lat="45.98108" lon="4.87953">
        <ele>277</ele>
        <time>2018-06-29T09:13:39Z</time>
      </trkpt>
      <trkpt lat="45.98112" lon="4.87963">
        <ele>277</ele>
        <time>2018-06-29T09:13:40Z</time>
      </trkpt>
      <trkpt lat="45.98113" lon="4.87973">
        <ele>277</ele>
        <time>2018-06-29T09:13:41Z</time>
      </trkpt>
      <trkpt lat="45.98116" lon="4.87983">
        <ele>277</ele>
        <time>2018-06-29T09:13:42Z</time>
      </trkpt>
      <trkpt lat="45.98121" lon="4.87994">
        <ele>277</ele>
        <time>2018-06-29T09:13:43Z</time>
      </trkpt>
      <trkpt lat="45.98124" lon="4.88004">
        <ele>276</ele>
        <time>2018-06-29T09:13:44Z</time>
      </trkpt>
      <trkpt lat="45.98128" lon="4.88015">
        <ele>276</ele>
        <time>2018-06-29T09:13:45Z</time>
      </trkpt>
      <trkpt lat="45.98131" lon="4.88025">
        <ele>276</ele>
        <time>2018-06-29T09:13:46Z</time>
      </trkpt>
      <trkpt lat="45.98135" lon="4.88036">
        <ele>276</ele>
        <time>2018-06-29T09:13:47Z</time>
      </trkpt>
      <trkpt lat="45.98137" lon="4.88046">
        <ele>275</ele>
        <time>2018-06-29T09:13:48Z</time>
      </trkpt>
      <trkpt lat="45.98141" lon="4.88057">
        <ele>275</ele>
        <time>2018-06-29T09:13:49Z</time>
      </trkpt>
      <trkpt lat="45.98144" lon="4.88067">
        <ele>275</ele>
        <time>2018-06-29T09:13:50Z</time>
      </trkpt>
      <trkpt lat="45.98147" lon="4.88077">
        <ele>275</ele>
        <time>2018-06-29T09:13:51Z</time>
      </trkpt>
      <trkpt lat="45.9815" lon="4.88088">
        <ele>274</ele>
        <time>2018-06-29T09:13:52Z</time>
      </trkpt>
      <trkpt lat="45.98153" lon="4.88099">
        <ele>274</ele>
        <time>2018-06-29T09:13:53Z</time>
      </trkpt>
      <trkpt lat="45.98156" lon="4.88108">
        <ele>274</ele>
        <time>2018-06-29T09:13:54Z</time>
      </trkpt>
      <trkpt lat="45.9816" lon="4.88119">
        <ele>274</ele>
        <time>2018-06-29T09:13:55Z</time>
      </trkpt>
      <trkpt lat="45.98163" lon="4.88129">
        <ele>274</ele>
        <time>2018-06-29T09:13:56Z</time>
      </trkpt>
      <trkpt lat="45.98166" lon="4.88139">
        <ele>274</ele>
        <time>2018-06-29T09:13:57Z</time>
      </trkpt>
      <trkpt lat="45.98169" lon="4.8815">
        <ele>273</ele>
        <time>2018-06-29T09:13:58Z</time>
      </trkpt>
      <trkpt lat="45.98172" lon="4.88161">
        <ele>273</ele>
        <time>2018-06-29T09:13:59Z</time>
      </trkpt>
      <trkpt lat="45.98175" lon="4.88172">
        <ele>273</ele>
        <time>2018-06-29T09:14:00Z</time>
      </trkpt>
      <trkpt lat="45.98178" lon="4.88181">
        <ele>273</ele>
        <time>2018-06-29T09:14:01Z</time>
      </trkpt>
      <trkpt lat="45.98181" lon="4.88191">
        <ele>273</ele>
        <time>2018-06-29T09:14:02Z</time>
      </trkpt>
      <trkpt lat="45.98184" lon="4.88201">
        <ele>273</ele>
        <time>2018-06-29T09:14:03Z</time>
      </trkpt>
      <trkpt lat="45.98187" lon="4.88211">
        <ele>273</ele>
        <time>2018-06-29T09:14:04Z</time>
      </trkpt>
      <trkpt lat="45.98188" lon="4.88221">
        <ele>273</ele>
        <time>2018-06-29T09:14:05Z</time>
      </trkpt>
      <trkpt lat="45.98191" lon="4.88231">
        <ele>273</ele>
        <time>2018-06-29T09:14:06Z</time>
      </trkpt>
      <trkpt lat="45.98194" lon="4.8824">
        <ele>273</ele>
        <time>2018-06-29T09:14:07Z</time>
      </trkpt>
      <trkpt lat="45.98197" lon="4.88249">
        <ele>273</ele>
        <time>2018-06-29T09:14:08Z</time>
      </trkpt>
      <trkpt lat="45.98198" lon="4.88258">
        <ele>274</ele>
        <time>2018-06-29T09:14:09Z</time>
      </trkpt>
      <trkpt lat="45.982" lon="4.88267">
        <ele>274</ele>
        <time>2018-06-29T09:14:10Z</time>
      </trkpt>
      <trkpt lat="45.982" lon="4.88277">
        <ele>274</ele>
        <time>2018-06-29T09:14:11Z</time>
      </trkpt>
      <trkpt lat="45.98202" lon="4.88283">
        <ele>274</ele>
        <time>2018-06-29T09:14:12Z</time>
      </trkpt>
      <trkpt lat="45.98202" lon="4.8829">
        <ele>274</ele>
        <time>2018-06-29T09:14:13Z</time>
      </trkpt>
      <trkpt lat="45.98203" lon="4.88297">
        <ele>274</ele>
        <time>2018-06-29T09:14:14Z</time>
      </trkpt>
      <trkpt lat="45.98205" lon="4.88303">
        <ele>274</ele>
        <time>2018-06-29T09:14:15Z</time>
      </trkpt>
      <trkpt lat="45.98206" lon="4.88311">
        <ele>274</ele>
        <time>2018-06-29T09:14:16Z</time>
      </trkpt>
      <trkpt lat="45.98207" lon="4.88318">
        <ele>274</ele>
        <time>2018-06-29T09:14:17Z</time>
      </trkpt>
      <trkpt lat="45.98208" lon="4.88327">
        <ele>274</ele>
        <time>2018-06-29T09:14:18Z</time>
      </trkpt>
      <trkpt lat="45.98209" lon="4.88334">
        <ele>275</ele>
        <time>2018-06-29T09:14:19Z</time>
      </trkpt>
      <trkpt lat="45.9821" lon="4.8834">
        <ele>275</ele>
        <time>2018-06-29T09:14:20Z</time>
      </trkpt>
      <trkpt lat="45.98209" lon="4.88347">
        <ele>275</ele>
        <time>2018-06-29T09:14:21Z</time>
      </trkpt>
      <trkpt lat="45.9821" lon="4.88355">
        <ele>275</ele>
        <time>2018-06-29T09:14:22Z</time>
      </trkpt>
      <trkpt lat="45.9821" lon="4.88362">
        <ele>275</ele>
        <time>2018-06-29T09:14:23Z</time>
      </trkpt>
      <trkpt lat="45.98211" lon="4.8837">
        <ele>275</ele>
        <time>2018-06-29T09:14:24Z</time>
      </trkpt>
      <trkpt lat="45.98212" lon="4.88377">
        <ele>275</ele>
        <time>2018-06-29T09:14:25Z</time>
      </trkpt>
      <trkpt lat="45.98214" lon="4.88384">
        <ele>275</ele>
        <time>2018-06-29T09:14:26Z</time>
      </trkpt>
      <trkpt lat="45.98213" lon="4.88392">
        <ele>275</ele>
        <time>2018-06-29T09:14:27Z</time>
      </trkpt>
      <trkpt lat="45.98215" lon="4.88399">
        <ele>275</ele>
        <time>2018-06-29T09:14:28Z</time>
      </trkpt>
      <trkpt lat="45.98216" lon="4.88406">
        <ele>275</ele>
        <time>2018-06-29T09:14:29Z</time>
      </trkpt>
      <trkpt lat="45.98218" lon="4.88411">
        <ele>275</ele>
        <time>2018-06-29T09:14:30Z</time>
      </trkpt>
      <trkpt lat="45.98219" lon="4.88418">
        <ele>276</ele>
        <time>2018-06-29T09:14:31Z</time>
      </trkpt>
      <trkpt lat="45.98222" lon="4.88425">
        <ele>276</ele>
        <time>2018-06-29T09:14:32Z</time>
      </trkpt>
      <trkpt lat="45.98224" lon="4.88432">
        <ele>276</ele>
        <time>2018-06-29T09:14:33Z</time>
      </trkpt>
      <trkpt lat="45.98225" lon="4.88439">
        <ele>276</ele>
        <time>2018-06-29T09:14:34Z</time>
      </trkpt>
      <trkpt lat="45.98226" lon="4.88447">
        <ele>276</ele>
        <time>2018-06-29T09:14:35Z</time>
      </trkpt>
      <trkpt lat="45.98228" lon="4.88453">
        <ele>276</ele>
        <time>2018-06-29T09:14:36Z</time>
      </trkpt>
      <trkpt lat="45.98229" lon="4.88462">
        <ele>276</ele>
        <time>2018-06-29T09:14:37Z</time>
      </trkpt>
      <trkpt lat="45.98231" lon="4.88468">
        <ele>276</ele>
        <time>2018-06-29T09:14:38Z</time>
      </trkpt>
      <trkpt lat="45.98232" lon="4.88475">
        <ele>276</ele>
        <time>2018-06-29T09:14:39Z</time>
      </trkpt>
      <trkpt lat="45.98234" lon="4.88482">
        <ele>276</ele>
        <time>2018-06-29T09:14:40Z</time>
      </trkpt>
      <trkpt lat="45.98237" lon="4.88488">
        <ele>276</ele>
        <time>2018-06-29T09:14:41Z</time>
      </trkpt>
      <trkpt lat="45.9824" lon="4.88495">
        <ele>276</ele>
        <time>2018-06-29T09:14:42Z</time>
      </trkpt>
      <trkpt lat="45.98242" lon="4.88502">
        <ele>277</ele>
        <time>2018-06-29T09:14:43Z</time>
      </trkpt>
      <trkpt lat="45.98243" lon="4.88509">
        <ele>277</ele>
        <time>2018-06-29T09:14:44Z</time>
      </trkpt>
      <trkpt lat="45.98245" lon="4.88516">
        <ele>276</ele>
        <time>2018-06-29T09:14:45Z</time>
      </trkpt>
      <trkpt lat="45.98247" lon="4.88523">
        <ele>276</ele>
        <time>2018-06-29T09:14:46Z</time>
      </trkpt>
      <trkpt lat="45.9825" lon="4.88531">
        <ele>276</ele>
        <time>2018-06-29T09:14:47Z</time>
      </trkpt>
      <trkpt lat="45.98251" lon="4.88538">
        <ele>276</ele>
        <time>2018-06-29T09:14:48Z</time>
      </trkpt>
      <trkpt lat="45.98253" lon="4.88545">
        <ele>276</ele>
        <time>2018-06-29T09:14:49Z</time>
      </trkpt>
      <trkpt lat="45.98255" lon="4.88552">
        <ele>276</ele>
        <time>2018-06-29T09:14:50Z</time>
      </trkpt>
      <trkpt lat="45.98256" lon="4.88559">
        <ele>276</ele>
        <time>2018-06-29T09:14:51Z</time>
      </trkpt>
      <trkpt lat="45.98257" lon="4.88565">
        <ele>276</ele>
        <time>2018-06-29T09:14:52Z</time>
      </trkpt>
      <trkpt lat="45.98259" lon="4.88572">
        <ele>276</ele>
        <time>2018-06-29T09:14:53Z</time>
      </trkpt>
      <trkpt lat="45.98261" lon="4.88579">
        <ele>276</ele>
        <time>2018-06-29T09:14:54Z</time>
      </trkpt>
      <trkpt lat="45.98262" lon="4.88587">
        <ele>275</ele>
        <time>2018-06-29T09:14:55Z</time>
      </trkpt>
      <trkpt lat="45.98266" lon="4.88594">
        <ele>275</ele>
        <time>2018-06-29T09:14:56Z</time>
      </trkpt>
      <trkpt lat="45.98267" lon="4.88601">
        <ele>275</ele>
        <time>2018-06-29T09:14:57Z</time>
      </trkpt>
      <trkpt lat="45.98268" lon="4.88609">
        <ele>276</ele>
        <time>2018-06-29T09:14:58Z</time>
      </trkpt>
      <trkpt lat="45.98272" lon="4.88616">
        <ele>276</ele>
        <time>2018-06-29T09:14:59Z</time>
      </trkpt>
      <trkpt lat="45.98273" lon="4.88623">
        <ele>276</ele>
        <time>2018-06-29T09:15:00Z</time>
      </trkpt>
      <trkpt lat="45.98275" lon="4.8863">
        <ele>276</ele>
        <time>2018-06-29T09:15:01Z</time>
      </trkpt>
      <trkpt lat="45.98278" lon="4.88637">
        <ele>276</ele>
        <time>2018-06-29T09:15:02Z</time>
      </trkpt>
      <trkpt lat="45.9828" lon="4.88644">
        <ele>276</ele>
        <time>2018-06-29T09:15:03Z</time>
      </trkpt>
      <trkpt lat="45.98281" lon="4.88651">
        <ele>276</ele>
        <time>2018-06-29T09:15:04Z</time>
      </trkpt>
      <trkpt lat="45.98283" lon="4.88658">
        <ele>276</ele>
        <time>2018-06-29T09:15:05Z</time>
      </trkpt>
      <trkpt lat="45.98284" lon="4.88665">
        <ele>276</ele>
        <time>2018-06-29T09:15:06Z</time>
      </trkpt>
      <trkpt lat="45.98285" lon="4.88672">
        <ele>276</ele>
        <time>2018-06-29T09:15:07Z</time>
      </trkpt>
      <trkpt lat="45.98287" lon="4.88677">
        <ele>276</ele>
        <time>2018-06-29T09:15:08Z</time>
      </trkpt>
      <trkpt lat="45.9829" lon="4.88684">
        <ele>276</ele>
        <time>2018-06-29T09:15:09Z</time>
      </trkpt>
      <trkpt lat="45.98292" lon="4.88692">
        <ele>276</ele>
        <time>2018-06-29T09:15:10Z</time>
      </trkpt>
      <trkpt lat="45.98294" lon="4.88698">
        <ele>276</ele>
        <time>2018-06-29T09:15:11Z</time>
      </trkpt>
      <trkpt lat="45.98295" lon="4.88705">
        <ele>276</ele>
        <time>2018-06-29T09:15:12Z</time>
      </trkpt>
      <trkpt lat="45.98297" lon="4.88711">
        <ele>276</ele>
        <time>2018-06-29T09:15:13Z</time>
      </trkpt>
      <trkpt lat="45.98299" lon="4.88718">
        <ele>276</ele>
        <time>2018-06-29T09:15:14Z</time>
      </trkpt>
      <trkpt lat="45.983" lon="4.88725">
        <ele>276</ele>
        <time>2018-06-29T09:15:15Z</time>
      </trkpt>
      <trkpt lat="45.98301" lon="4.88732">
        <ele>276</ele>
        <time>2018-06-29T09:15:16Z</time>
      </trkpt>
      <trkpt lat="45.98303" lon="4.88739">
        <ele>276</ele>
        <time>2018-06-29T09:15:17Z</time>
      </trkpt>
      <trkpt lat="45.98304" lon="4.88746">
        <ele>276</ele>
        <time>2018-06-29T09:15:18Z</time>
      </trkpt>
      <trkpt lat="45.98307" lon="4.88753">
        <ele>276</ele>
        <time>2018-06-29T09:15:19Z</time>
      </trkpt>
      <trkpt lat="45.98309" lon="4.8876">
        <ele>276</ele>
        <time>2018-06-29T09:15:20Z</time>
      </trkpt>
      <trkpt lat="45.98311" lon="4.88766">
        <ele>277</ele>
        <time>2018-06-29T09:15:21Z</time>
      </trkpt>
      <trkpt lat="45.98312" lon="4.88773">
        <ele>277</ele>
        <time>2018-06-29T09:15:22Z</time>
      </trkpt>
      <trkpt lat="45.98313" lon="4.8878">
        <ele>277</ele>
        <time>2018-06-29T09:15:23Z</time>
      </trkpt>
      <trkpt lat="45.98316" lon="4.88787">
        <ele>277</ele>
        <time>2018-06-29T09:15:24Z</time>
      </trkpt>
      <trkpt lat="45.98318" lon="4.88794">
        <ele>277</ele>
        <time>2018-06-29T09:15:25Z</time>
      </trkpt>
      <trkpt lat="45.98319" lon="4.88801">
        <ele>277</ele>
        <time>2018-06-29T09:15:26Z</time>
      </trkpt>
      <trkpt lat="45.98321" lon="4.88808">
        <ele>277</ele>
        <time>2018-06-29T09:15:27Z</time>
      </trkpt>
      <trkpt lat="45.98323" lon="4.88815">
        <ele>277</ele>
        <time>2018-06-29T09:15:28Z</time>
      </trkpt>
      <trkpt lat="45.98324" lon="4.88822">
        <ele>277</ele>
        <time>2018-06-29T09:15:29Z</time>
      </trkpt>
      <trkpt lat="45.98326" lon="4.88828">
        <ele>278</ele>
        <time>2018-06-29T09:15:30Z</time>
      </trkpt>
      <trkpt lat="45.98328" lon="4.88835">
        <ele>278</ele>
        <time>2018-06-29T09:15:31Z</time>
      </trkpt>
      <trkpt lat="45.98329" lon="4.88842">
        <ele>278</ele>
        <time>2018-06-29T09:15:32Z</time>
      </trkpt>
      <trkpt lat="45.98331" lon="4.88849">
        <ele>278</ele>
        <time>2018-06-29T09:15:33Z</time>
      </trkpt>
      <trkpt lat="45.98333" lon="4.88856">
        <ele>278</ele>
        <time>2018-06-29T09:15:34Z</time>
      </trkpt>
      <trkpt lat="45.98336" lon="4.88863">
        <ele>280</ele>
        <time>2018-06-29T09:15:35Z</time>
      </trkpt>
      <trkpt lat="45.98338" lon="4.8887">
        <ele>280</ele>
        <time>2018-06-29T09:15:36Z</time>
      </trkpt>
      <trkpt lat="45.9834" lon="4.88877">
        <ele>280</ele>
        <time>2018-06-29T09:15:37Z</time>
      </trkpt>
      <trkpt lat="45.98342" lon="4.88884">
        <ele>280</ele>
        <time>2018-06-29T09:15:38Z</time>
      </trkpt>
      <trkpt lat="45.98344" lon="4.8889">
        <ele>280</ele>
        <time>2018-06-29T09:15:39Z</time>
      </trkpt>
      <trkpt lat="45.98345" lon="4.88897">
        <ele>280</ele>
        <time>2018-06-29T09:15:40Z</time>
      </trkpt>
      <trkpt lat="45.98346" lon="4.88905">
        <ele>280</ele>
        <time>2018-06-29T09:15:41Z</time>
      </trkpt>
      <trkpt lat="45.98347" lon="4.88911">
        <ele>280</ele>
        <time>2018-06-29T09:15:42Z</time>
      </trkpt>
      <trkpt lat="45.98348" lon="4.88918">
        <ele>281</ele>
        <time>2018-06-29T09:15:43Z</time>
      </trkpt>
      <trkpt lat="45.9835" lon="4.88926">
        <ele>281</ele>
        <time>2018-06-29T09:15:44Z</time>
      </trkpt>
      <trkpt lat="45.98352" lon="4.88932">
        <ele>281</ele>
        <time>2018-06-29T09:15:45Z</time>
      </trkpt>
      <trkpt lat="45.98354" lon="4.88939">
        <ele>282</ele>
        <time>2018-06-29T09:15:46Z</time>
      </trkpt>
      <trkpt lat="45.98355" lon="4.88946">
        <ele>282</ele>
        <time>2018-06-29T09:15:47Z</time>
      </trkpt>
      <trkpt lat="45.98355" lon="4.88952">
        <ele>282</ele>
        <time>2018-06-29T09:15:48Z</time>
      </trkpt>
      <trkpt lat="45.98356" lon="4.88959">
        <ele>282</ele>
        <time>2018-06-29T09:15:49Z</time>
      </trkpt>
      <trkpt lat="45.98357" lon="4.88965">
        <ele>282</ele>
        <time>2018-06-29T09:15:50Z</time>
      </trkpt>
      <trkpt lat="45.98358" lon="4.88972">
        <ele>282</ele>
        <time>2018-06-29T09:15:51Z</time>
      </trkpt>
      <trkpt lat="45.9836" lon="4.88979">
        <ele>282</ele>
        <time>2018-06-29T09:15:52Z</time>
      </trkpt>
      <trkpt lat="45.98361" lon="4.88986">
        <ele>282</ele>
        <time>2018-06-29T09:15:53Z</time>
      </trkpt>
      <trkpt lat="45.98364" lon="4.88993">
        <ele>282</ele>
        <time>2018-06-29T09:15:54Z</time>
      </trkpt>
      <trkpt lat="45.98365" lon="4.89001">
        <ele>283</ele>
        <time>2018-06-29T09:15:55Z</time>
      </trkpt>
      <trkpt lat="45.98367" lon="4.89008">
        <ele>283</ele>
        <time>2018-06-29T09:15:56Z</time>
      </trkpt>
      <trkpt lat="45.9837" lon="4.89015">
        <ele>284</ele>
        <time>2018-06-29T09:15:57Z</time>
      </trkpt>
      <trkpt lat="45.98372" lon="4.89022">
        <ele>284</ele>
        <time>2018-06-29T09:15:58Z</time>
      </trkpt>
      <trkpt lat="45.98374" lon="4.89028">
        <ele>284</ele>
        <time>2018-06-29T09:15:59Z</time>
      </trkpt>
      <trkpt lat="45.98375" lon="4.89034">
        <ele>284</ele>
        <time>2018-06-29T09:16:00Z</time>
      </trkpt>
      <trkpt lat="45.98377" lon="4.8904">
        <ele>284</ele>
        <time>2018-06-29T09:16:01Z</time>
      </trkpt>
      <trkpt lat="45.98378" lon="4.89047">
        <ele>284</ele>
        <time>2018-06-29T09:16:02Z</time>
      </trkpt>
      <trkpt lat="45.9838" lon="4.89053">
        <ele>284</ele>
        <time>2018-06-29T09:16:03Z</time>
      </trkpt>
      <trkpt lat="45.98382" lon="4.89059">
        <ele>284</ele>
        <time>2018-06-29T09:16:04Z</time>
      </trkpt>
      <trkpt lat="45.98384" lon="4.89065">
        <ele>285</ele>
        <time>2018-06-29T09:16:05Z</time>
      </trkpt>
      <trkpt lat="45.98385" lon="4.89071">
        <ele>285</ele>
        <time>2018-06-29T09:16:06Z</time>
      </trkpt>
      <trkpt lat="45.9839" lon="4.89081">
        <ele>285</ele>
        <time>2018-06-29T09:16:08Z</time>
      </trkpt>
      <trkpt lat="45.98392" lon="4.89086">
        <ele>285</ele>
        <time>2018-06-29T09:16:09Z</time>
      </trkpt>
      <trkpt lat="45.98396" lon="4.89096">
        <ele>286</ele>
        <time>2018-06-29T09:16:11Z</time>
      </trkpt>
      <trkpt lat="45.98398" lon="4.89101">
        <ele>286</ele>
        <time>2018-06-29T09:16:12Z</time>
      </trkpt>
      <trkpt lat="45.98404" lon="4.8911">
        <ele>286</ele>
        <time>2018-06-29T09:16:14Z</time>
      </trkpt>
      <trkpt lat="45.98407" lon="4.89114">
        <ele>285</ele>
        <time>2018-06-29T09:16:15Z</time>
      </trkpt>
      <trkpt lat="45.98412" lon="4.89121">
        <ele>285</ele>
        <time>2018-06-29T09:16:17Z</time>
      </trkpt>
      <trkpt lat="45.98415" lon="4.89126">
        <ele>285</ele>
        <time>2018-06-29T09:16:18Z</time>
      </trkpt>
      <trkpt lat="45.98418" lon="4.89132">
        <ele>288</ele>
        <time>2018-06-29T09:16:19Z</time>
      </trkpt>
      <trkpt lat="45.98421" lon="4.89137">
        <ele>288</ele>
        <time>2018-06-29T09:16:20Z</time>
      </trkpt>
      <trkpt lat="45.98426" lon="4.89147">
        <ele>288</ele>
        <time>2018-06-29T09:16:22Z</time>
      </trkpt>
      <trkpt lat="45.98429" lon="4.89153">
        <ele>288</ele>
        <time>2018-06-29T09:16:23Z</time>
      </trkpt>
      <trkpt lat="45.98432" lon="4.89159">
        <ele>288</ele>
        <time>2018-06-29T09:16:24Z</time>
      </trkpt>
      <trkpt lat="45.98435" lon="4.89165">
        <ele>288</ele>
        <time>2018-06-29T09:16:25Z</time>
      </trkpt>
      <trkpt lat="45.98438" lon="4.8917">
        <ele>288</ele>
        <time>2018-06-29T09:16:26Z</time>
      </trkpt>
      <trkpt lat="45.98441" lon="4.89175">
        <ele>288</ele>
        <time>2018-06-29T09:16:27Z</time>
      </trkpt>
      <trkpt lat="45.98447" lon="4.89184">
        <ele>288</ele>
        <time>2018-06-29T09:16:29Z</time>
      </trkpt>
      <trkpt lat="45.98449" lon="4.89189">
        <ele>288</ele>
        <time>2018-06-29T09:16:30Z</time>
      </trkpt>
      <trkpt lat="45.98452" lon="4.89199">
        <ele>289</ele>
        <time>2018-06-29T09:16:32Z</time>
      </trkpt>
      <trkpt lat="45.98453" lon="4.89204">
        <ele>289</ele>
        <time>2018-06-29T09:16:33Z</time>
      </trkpt>
      <trkpt lat="45.98457" lon="4.89214">
        <ele>289</ele>
        <time>2018-06-29T09:16:35Z</time>
      </trkpt>
      <trkpt lat="45.98458" lon="4.8922">
        <ele>289</ele>
        <time>2018-06-29T09:16:36Z</time>
      </trkpt>
      <trkpt lat="45.98461" lon="4.89228">
        <ele>289</ele>
        <time>2018-06-29T09:16:38Z</time>
      </trkpt>
      <trkpt lat="45.98464" lon="4.89234">
        <ele>289</ele>
        <time>2018-06-29T09:16:39Z</time>
      </trkpt>
      <trkpt lat="45.9847" lon="4.89238">
        <ele>289</ele>
        <time>2018-06-29T09:16:40Z</time>
      </trkpt>
      <trkpt lat="45.9847" lon="4.89245">
        <ele>289</ele>
        <time>2018-06-29T09:16:41Z</time>
      </trkpt>
      <trkpt lat="45.98472" lon="4.89251">
        <ele>291</ele>
        <time>2018-06-29T09:16:42Z</time>
      </trkpt>
      <trkpt lat="45.98474" lon="4.89257">
        <ele>291</ele>
        <time>2018-06-29T09:16:43Z</time>
      </trkpt>
      <trkpt lat="45.98477" lon="4.89265">
        <ele>292</ele>
        <time>2018-06-29T09:16:45Z</time>
      </trkpt>
      <trkpt lat="45.9848" lon="4.8927">
        <ele>292</ele>
        <time>2018-06-29T09:16:46Z</time>
      </trkpt>
      <trkpt lat="45.98483" lon="4.8928">
        <ele>292</ele>
        <time>2018-06-29T09:16:48Z</time>
      </trkpt>
      <trkpt lat="45.98487" lon="4.89284">
        <ele>292</ele>
        <time>2018-06-29T09:16:49Z</time>
      </trkpt>
      <trkpt lat="45.98492" lon="4.89292">
        <ele>293</ele>
        <time>2018-06-29T09:16:51Z</time>
      </trkpt>
      <trkpt lat="45.98495" lon="4.89296">
        <ele>293</ele>
        <time>2018-06-29T09:16:52Z</time>
      </trkpt>
      <trkpt lat="45.98502" lon="4.89304">
        <ele>293</ele>
        <time>2018-06-29T09:16:54Z</time>
      </trkpt>
      <trkpt lat="45.98505" lon="4.89308">
        <ele>293</ele>
        <time>2018-06-29T09:16:55Z</time>
      </trkpt>
      <trkpt lat="45.98508" lon="4.89312">
        <ele>294</ele>
        <time>2018-06-29T09:16:56Z</time>
      </trkpt>
      <trkpt lat="45.98514" lon="4.89316">
        <ele>294</ele>
        <time>2018-06-29T09:16:57Z</time>
      </trkpt>
      <trkpt lat="45.98518" lon="4.89321">
        <ele>294</ele>
        <time>2018-06-29T09:16:58Z</time>
      </trkpt>
      <trkpt lat="45.98522" lon="4.89325">
        <ele>294</ele>
        <time>2018-06-29T09:16:59Z</time>
      </trkpt>
      <trkpt lat="45.98527" lon="4.89333">
        <ele>293</ele>
        <time>2018-06-29T09:17:01Z</time>
      </trkpt>
      <trkpt lat="45.98529" lon="4.89339">
        <ele>295</ele>
        <time>2018-06-29T09:17:02Z</time>
      </trkpt>
      <trkpt lat="45.98536" lon="4.89345">
        <ele>295</ele>
        <time>2018-06-29T09:17:04Z</time>
      </trkpt>
      <trkpt lat="45.9854" lon="4.8935">
        <ele>295</ele>
        <time>2018-06-29T09:17:05Z</time>
      </trkpt>
      <trkpt lat="45.98544" lon="4.89354">
        <ele>295</ele>
        <time>2018-06-29T09:17:06Z</time>
      </trkpt>
      <trkpt lat="45.98547" lon="4.89359">
        <ele>295</ele>
        <time>2018-06-29T09:17:07Z</time>
      </trkpt>
      <trkpt lat="45.98552" lon="4.89369">
        <ele>295</ele>
        <time>2018-06-29T09:17:09Z</time>
      </trkpt>
      <trkpt lat="45.98557" lon="4.89371">
        <ele>295</ele>
        <time>2018-06-29T09:17:10Z</time>
      </trkpt>
      <trkpt lat="45.98561" lon="4.89375">
        <ele>295</ele>
        <time>2018-06-29T09:17:11Z</time>
      </trkpt>
      <trkpt lat="45.98561" lon="4.89383">
        <ele>295</ele>
        <time>2018-06-29T09:17:12Z</time>
      </trkpt>
      <trkpt lat="45.98565" lon="4.89386">
        <ele>295</ele>
        <time>2018-06-29T09:17:13Z</time>
      </trkpt>
      <trkpt lat="45.98569" lon="4.89391">
        <ele>295</ele>
        <time>2018-06-29T09:17:14Z</time>
      </trkpt>
      <trkpt lat="45.98573" lon="4.89394">
        <ele>295</ele>
        <time>2018-06-29T09:17:15Z</time>
      </trkpt>
      <trkpt lat="45.98577" lon="4.89398">
        <ele>295</ele>
        <time>2018-06-29T09:17:16Z</time>
      </trkpt>
      <trkpt lat="45.98584" lon="4.89405">
        <ele>293</ele>
        <time>2018-06-29T09:17:18Z</time>
      </trkpt>
      <trkpt lat="45.98588" lon="4.89408">
        <ele>293</ele>
        <time>2018-06-29T09:17:19Z</time>
      </trkpt>
      <trkpt lat="45.98593" lon="4.89411">
        <ele>293</ele>
        <time>2018-06-29T09:17:20Z</time>
      </trkpt>
      <trkpt lat="45.98597" lon="4.89415">
        <ele>292</ele>
        <time>2018-06-29T09:17:21Z</time>
      </trkpt>
      <trkpt lat="45.98601" lon="4.89419">
        <ele>293</ele>
        <time>2018-06-29T09:17:22Z</time>
      </trkpt>
      <trkpt lat="45.98604" lon="4.89425">
        <ele>292</ele>
        <time>2018-06-29T09:17:23Z</time>
      </trkpt>
      <trkpt lat="45.98606" lon="4.8943">
        <ele>292</ele>
        <time>2018-06-29T09:17:24Z</time>
      </trkpt>
      <trkpt lat="45.98612" lon="4.89435">
        <ele>292</ele>
        <time>2018-06-29T09:17:25Z</time>
      </trkpt>
      <trkpt lat="45.98616" lon="4.89439">
        <ele>292</ele>
        <time>2018-06-29T09:17:26Z</time>
      </trkpt>
      <trkpt lat="45.98622" lon="4.89443">
        <ele>291</ele>
        <time>2018-06-29T09:17:27Z</time>
      </trkpt>
      <trkpt lat="45.98626" lon="4.89447">
        <ele>291</ele>
        <time>2018-06-29T09:17:28Z</time>
      </trkpt>
      <trkpt lat="45.98631" lon="4.89451">
        <ele>291</ele>
        <time>2018-06-29T09:17:29Z</time>
      </trkpt>
      <trkpt lat="45.98636" lon="4.89455">
        <ele>291</ele>
        <time>2018-06-29T09:17:30Z</time>
      </trkpt>
      <trkpt lat="45.98641" lon="4.89458">
        <ele>291</ele>
        <time>2018-06-29T09:17:31Z</time>
      </trkpt>
      <trkpt lat="45.98644" lon="4.89462">
        <ele>291</ele>
        <time>2018-06-29T09:17:32Z</time>
      </trkpt>
      <trkpt lat="45.98649" lon="4.89466">
        <ele>291</ele>
        <time>2018-06-29T09:17:33Z</time>
      </trkpt>
      <trkpt lat="45.98653" lon="4.89469">
        <ele>290</ele>
        <time>2018-06-29T09:17:34Z</time>
      </trkpt>
      <trkpt lat="45.98657" lon="4.89474">
        <ele>290</ele>
        <time>2018-06-29T09:17:35Z</time>
      </trkpt>
      <trkpt lat="45.9866" lon="4.89479">
        <ele>290</ele>
        <time>2018-06-29T09:17:36Z</time>
      </trkpt>
      <trkpt lat="45.98665" lon="4.89482">
        <ele>290</ele>
        <time>2018-06-29T09:17:37Z</time>
      </trkpt>
      <trkpt lat="45.9867" lon="4.89486">
        <ele>289</ele>
        <time>2018-06-29T09:17:38Z</time>
      </trkpt>
      <trkpt lat="45.98672" lon="4.89491">
        <ele>289</ele>
        <time>2018-06-29T09:17:39Z</time>
      </trkpt>
      <trkpt lat="45.98676" lon="4.89496">
        <ele>289</ele>
        <time>2018-06-29T09:17:40Z</time>
      </trkpt>
      <trkpt lat="45.98679" lon="4.89501">
        <ele>289</ele>
        <time>2018-06-29T09:17:41Z</time>
      </trkpt>
      <trkpt lat="45.98682" lon="4.89505">
        <ele>289</ele>
        <time>2018-06-29T09:17:42Z</time>
      </trkpt>
      <trkpt lat="45.98685" lon="4.8951">
        <ele>289</ele>
        <time>2018-06-29T09:17:43Z</time>
      </trkpt>
      <trkpt lat="45.9869" lon="4.89516">
        <ele>289</ele>
        <time>2018-06-29T09:17:44Z</time>
      </trkpt>
      <trkpt lat="45.98694" lon="4.8952">
        <ele>289</ele>
        <time>2018-06-29T09:17:45Z</time>
      </trkpt>
      <trkpt lat="45.98696" lon="4.89526">
        <ele>289</ele>
        <time>2018-06-29T09:17:46Z</time>
      </trkpt>
      <trkpt lat="45.987" lon="4.89531">
        <ele>289</ele>
        <time>2018-06-29T09:17:47Z</time>
      </trkpt>
      <trkpt lat="45.98704" lon="4.89536">
        <ele>289</ele>
        <time>2018-06-29T09:17:48Z</time>
      </trkpt>
      <trkpt lat="45.98708" lon="4.89539">
        <ele>289</ele>
        <time>2018-06-29T09:17:49Z</time>
      </trkpt>
      <trkpt lat="45.98712" lon="4.89544">
        <ele>290</ele>
        <time>2018-06-29T09:17:50Z</time>
      </trkpt>
      <trkpt lat="45.98716" lon="4.89549">
        <ele>290</ele>
        <time>2018-06-29T09:17:51Z</time>
      </trkpt>
      <trkpt lat="45.98723" lon="4.89558">
        <ele>290</ele>
        <time>2018-06-29T09:17:53Z</time>
      </trkpt>
      <trkpt lat="45.98725" lon="4.89562">
        <ele>290</ele>
        <time>2018-06-29T09:17:54Z</time>
      </trkpt>
      <trkpt lat="45.98728" lon="4.89567">
        <ele>290</ele>
        <time>2018-06-29T09:17:55Z</time>
      </trkpt>
      <trkpt lat="45.98732" lon="4.89572">
        <ele>290</ele>
        <time>2018-06-29T09:17:56Z</time>
      </trkpt>
      <trkpt lat="45.98736" lon="4.89576">
        <ele>290</ele>
        <time>2018-06-29T09:17:57Z</time>
      </trkpt>
      <trkpt lat="45.9874" lon="4.89581">
        <ele>290</ele>
        <time>2018-06-29T09:17:58Z</time>
      </trkpt>
      <trkpt lat="45.98743" lon="4.89585">
        <ele>291</ele>
        <time>2018-06-29T09:17:59Z</time>
      </trkpt>
      <trkpt lat="45.98746" lon="4.8959">
        <ele>291</ele>
        <time>2018-06-29T09:18:00Z</time>
      </trkpt>
      <trkpt lat="45.98752" lon="4.89599">
        <ele>291</ele>
        <time>2018-06-29T09:18:02Z</time>
      </trkpt>
      <trkpt lat="45.98755" lon="4.89604">
        <ele>291</ele>
        <time>2018-06-29T09:18:03Z</time>
      </trkpt>
      <trkpt lat="45.98762" lon="4.89613">
        <ele>291</ele>
        <time>2018-06-29T09:18:05Z</time>
      </trkpt>
      <trkpt lat="45.98765" lon="4.89618">
        <ele>291</ele>
        <time>2018-06-29T09:18:06Z</time>
      </trkpt>
      <trkpt lat="45.98768" lon="4.89623">
        <ele>291</ele>
        <time>2018-06-29T09:18:07Z</time>
      </trkpt>
      <trkpt lat="45.98772" lon="4.89627">
        <ele>291</ele>
        <time>2018-06-29T09:18:08Z</time>
      </trkpt>
      <trkpt lat="45.98776" lon="4.89635">
        <ele>291</ele>
        <time>2018-06-29T09:18:10Z</time>
      </trkpt>
      <trkpt lat="45.98779" lon="4.8964">
        <ele>291</ele>
        <time>2018-06-29T09:18:11Z</time>
      </trkpt>
      <trkpt lat="45.98784" lon="4.89647">
        <ele>291</ele>
        <time>2018-06-29T09:18:13Z</time>
      </trkpt>
      <trkpt lat="45.98786" lon="4.89652">
        <ele>291</ele>
        <time>2018-06-29T09:18:14Z</time>
      </trkpt>
      <trkpt lat="45.98793" lon="4.8966">
        <ele>291</ele>
        <time>2018-06-29T09:18:16Z</time>
      </trkpt>
      <trkpt lat="45.98796" lon="4.89663">
        <ele>291</ele>
        <time>2018-06-29T09:18:17Z</time>
      </trkpt>
      <trkpt lat="45.98802" lon="4.89671">
        <ele>291</ele>
        <time>2018-06-29T09:18:19Z</time>
      </trkpt>
      <trkpt lat="45.98805" lon="4.89674">
        <ele>292</ele>
        <time>2018-06-29T09:18:20Z</time>
      </trkpt>
      <trkpt lat="45.98811" lon="4.89682">
        <ele>292</ele>
        <time>2018-06-29T09:18:22Z</time>
      </trkpt>
      <trkpt lat="45.98815" lon="4.89686">
        <ele>292</ele>
        <time>2018-06-29T09:18:23Z</time>
      </trkpt>
      <trkpt lat="45.98823" lon="4.89692">
        <ele>292</ele>
        <time>2018-06-29T09:18:25Z</time>
      </trkpt>
      <trkpt lat="45.98827" lon="4.89695">
        <ele>292</ele>
        <time>2018-06-29T09:18:26Z</time>
      </trkpt>
      <trkpt lat="45.98831" lon="4.89698">
        <ele>292</ele>
        <time>2018-06-29T09:18:27Z</time>
      </trkpt>
      <trkpt lat="45.98835" lon="4.89702">
        <ele>292</ele>
        <time>2018-06-29T09:18:28Z</time>
      </trkpt>
      <trkpt lat="45.98842" lon="4.89708">
        <ele>292</ele>
        <time>2018-06-29T09:18:30Z</time>
      </trkpt>
      <trkpt lat="45.98846" lon="4.89712">
        <ele>293</ele>
        <time>2018-06-29T09:18:31Z</time>
      </trkpt>
      <trkpt lat="45.98854" lon="4.89717">
        <ele>293</ele>
        <time>2018-06-29T09:18:33Z</time>
      </trkpt>
      <trkpt lat="45.98857" lon="4.89722">
        <ele>293</ele>
        <time>2018-06-29T09:18:34Z</time>
      </trkpt>
      <trkpt lat="45.98863" lon="4.89729">
        <ele>293</ele>
        <time>2018-06-29T09:18:36Z</time>
      </trkpt>
      <trkpt lat="45.98867" lon="4.89732">
        <ele>293</ele>
        <time>2018-06-29T09:18:37Z</time>
      </trkpt>
      <trkpt lat="45.98872" lon="4.89733">
        <ele>293</ele>
        <time>2018-06-29T09:18:38Z</time>
      </trkpt>
      <trkpt lat="45.98876" lon="4.89736">
        <ele>293</ele>
        <time>2018-06-29T09:18:39Z</time>
      </trkpt>
      <trkpt lat="45.98883" lon="4.89743">
        <ele>293</ele>
        <time>2018-06-29T09:18:41Z</time>
      </trkpt>
      <trkpt lat="45.98888" lon="4.89746">
        <ele>293</ele>
        <time>2018-06-29T09:18:42Z</time>
      </trkpt>
      <trkpt lat="45.98893" lon="4.89749">
        <ele>293</ele>
        <time>2018-06-29T09:18:43Z</time>
      </trkpt>
      <trkpt lat="45.98897" lon="4.89752">
        <ele>293</ele>
        <time>2018-06-29T09:18:44Z</time>
      </trkpt>
      <trkpt lat="45.98902" lon="4.89756">
        <ele>293</ele>
        <time>2018-06-29T09:18:45Z</time>
      </trkpt>
      <trkpt lat="45.98907" lon="4.89759">
        <ele>293</ele>
        <time>2018-06-29T09:18:46Z</time>
      </trkpt>
      <trkpt lat="45.98915" lon="4.89765">
        <ele>293</ele>
        <time>2018-06-29T09:18:48Z</time>
      </trkpt>
      <trkpt lat="45.98919" lon="4.89768">
        <ele>293</ele>
        <time>2018-06-29T09:18:49Z</time>
      </trkpt>
      <trkpt lat="45.98923" lon="4.89771">
        <ele>293</ele>
        <time>2018-06-29T09:18:50Z</time>
      </trkpt>
      <trkpt lat="45.98927" lon="4.89775">
        <ele>293</ele>
        <time>2018-06-29T09:18:51Z</time>
      </trkpt>
      <trkpt lat="45.98935" lon="4.89781">
        <ele>293</ele>
        <time>2018-06-29T09:18:53Z</time>
      </trkpt>
      <trkpt lat="45.98939" lon="4.89785">
        <ele>293</ele>
        <time>2018-06-29T09:18:54Z</time>
      </trkpt>
      <trkpt lat="45.98945" lon="4.89794">
        <ele>293</ele>
        <time>2018-06-29T09:18:56Z</time>
      </trkpt>
      <trkpt lat="45.98949" lon="4.89797">
        <ele>293</ele>
        <time>2018-06-29T09:18:57Z</time>
      </trkpt>
      <trkpt lat="45.98954" lon="4.89802">
        <ele>293</ele>
        <time>2018-06-29T09:18:58Z</time>
      </trkpt>
      <trkpt lat="45.98958" lon="4.89806">
        <ele>293</ele>
        <time>2018-06-29T09:18:59Z</time>
      </trkpt>
      <trkpt lat="45.98962" lon="4.89811">
        <ele>293</ele>
        <time>2018-06-29T09:19:00Z</time>
      </trkpt>
      <trkpt lat="45.98966" lon="4.89815">
        <ele>293</ele>
        <time>2018-06-29T09:19:01Z</time>
      </trkpt>
      <trkpt lat="45.98971" lon="4.8982">
        <ele>293</ele>
        <time>2018-06-29T09:19:02Z</time>
      </trkpt>
      <trkpt lat="45.98974" lon="4.89824">
        <ele>293</ele>
        <time>2018-06-29T09:19:03Z</time>
      </trkpt>
      <trkpt lat="45.98978" lon="4.89829">
        <ele>293</ele>
        <time>2018-06-29T09:19:04Z</time>
      </trkpt>
      <trkpt lat="45.98982" lon="4.89834">
        <ele>293</ele>
        <time>2018-06-29T09:19:05Z</time>
      </trkpt>
      <trkpt lat="45.98986" lon="4.89838">
        <ele>293</ele>
        <time>2018-06-29T09:19:06Z</time>
      </trkpt>
      <trkpt lat="45.9899" lon="4.89844">
        <ele>293</ele>
        <time>2018-06-29T09:19:07Z</time>
      </trkpt>
      <trkpt lat="45.98995" lon="4.89848">
        <ele>293</ele>
        <time>2018-06-29T09:19:08Z</time>
      </trkpt>
      <trkpt lat="45.99" lon="4.89852">
        <ele>293</ele>
        <time>2018-06-29T09:19:09Z</time>
      </trkpt>
      <trkpt lat="45.99004" lon="4.89857">
        <ele>293</ele>
        <time>2018-06-29T09:19:10Z</time>
      </trkpt>
      <trkpt lat="45.99008" lon="4.89861">
        <ele>293</ele>
        <time>2018-06-29T09:19:11Z</time>
      </trkpt>
      <trkpt lat="45.99011" lon="4.89865">
        <ele>293</ele>
        <time>2018-06-29T09:19:12Z</time>
      </trkpt>
      <trkpt lat="45.99015" lon="4.8987">
        <ele>293</ele>
        <time>2018-06-29T09:19:13Z</time>
      </trkpt>
      <trkpt lat="45.99019" lon="4.89874">
        <ele>293</ele>
        <time>2018-06-29T09:19:14Z</time>
      </trkpt>
      <trkpt lat="45.99023" lon="4.89878">
        <ele>293</ele>
        <time>2018-06-29T09:19:15Z</time>
      </trkpt>
      <trkpt lat="45.99027" lon="4.89884">
        <ele>293</ele>
        <time>2018-06-29T09:19:16Z</time>
      </trkpt>
      <trkpt lat="45.99031" lon="4.89889">
        <ele>293</ele>
        <time>2018-06-29T09:19:17Z</time>
      </trkpt>
      <trkpt lat="45.99034" lon="4.89894">
        <ele>293</ele>
        <time>2018-06-29T09:19:18Z</time>
      </trkpt>
      <trkpt lat="45.99039" lon="4.89899">
        <ele>293</ele>
        <time>2018-06-29T09:19:19Z</time>
      </trkpt>
      <trkpt lat="45.99043" lon="4.89904">
        <ele>293</ele>
        <time>2018-06-29T09:19:20Z</time>
      </trkpt>
      <trkpt lat="45.99046" lon="4.89908">
        <ele>293</ele>
        <time>2018-06-29T09:19:21Z</time>
      </trkpt>
      <trkpt lat="45.9905" lon="4.89912">
        <ele>293</ele>
        <time>2018-06-29T09:19:22Z</time>
      </trkpt>
      <trkpt lat="45.99054" lon="4.89916">
        <ele>293</ele>
        <time>2018-06-29T09:19:23Z</time>
      </trkpt>
      <trkpt lat="45.99061" lon="4.89923">
        <ele>294</ele>
        <time>2018-06-29T09:19:25Z</time>
      </trkpt>
      <trkpt lat="45.99064" lon="4.89928">
        <ele>294</ele>
        <time>2018-06-29T09:19:26Z</time>
      </trkpt>
      <trkpt lat="45.9907" lon="4.89936">
        <ele>294</ele>
        <time>2018-06-29T09:19:28Z</time>
      </trkpt>
      <trkpt lat="45.99074" lon="4.89942">
        <ele>294</ele>
        <time>2018-06-29T09:19:29Z</time>
      </trkpt>
      <trkpt lat="45.99079" lon="4.89951">
        <ele>294</ele>
        <time>2018-06-29T09:19:31Z</time>
      </trkpt>
      <trkpt lat="45.99083" lon="4.89956">
        <ele>294</ele>
        <time>2018-06-29T09:19:32Z</time>
      </trkpt>
      <trkpt lat="45.99085" lon="4.89963">
        <ele>295</ele>
        <time>2018-06-29T09:19:33Z</time>
      </trkpt>
      <trkpt lat="45.99089" lon="4.89967">
        <ele>295</ele>
        <time>2018-06-29T09:19:34Z</time>
      </trkpt>
      <trkpt lat="45.99092" lon="4.89974">
        <ele>295</ele>
        <time>2018-06-29T09:19:35Z</time>
      </trkpt>
      <trkpt lat="45.99096" lon="4.89979">
        <ele>295</ele>
        <time>2018-06-29T09:19:36Z</time>
      </trkpt>
      <trkpt lat="45.99103" lon="4.89987">
        <ele>295</ele>
        <time>2018-06-29T09:19:38Z</time>
      </trkpt>
      <trkpt lat="45.99106" lon="4.89991">
        <ele>295</ele>
        <time>2018-06-29T09:19:39Z</time>
      </trkpt>
      <trkpt lat="45.99111" lon="4.89997">
        <ele>295</ele>
        <time>2018-06-29T09:19:40Z</time>
      </trkpt>
      <trkpt lat="45.99115" lon="4.90001">
        <ele>296</ele>
        <time>2018-06-29T09:19:41Z</time>
      </trkpt>
      <trkpt lat="45.99118" lon="4.90008">
        <ele>296</ele>
        <time>2018-06-29T09:19:42Z</time>
      </trkpt>
      <trkpt lat="45.99122" lon="4.90013">
        <ele>296</ele>
        <time>2018-06-29T09:19:43Z</time>
      </trkpt>
      <trkpt lat="45.99127" lon="4.90016">
        <ele>296</ele>
        <time>2018-06-29T09:19:44Z</time>
      </trkpt>
      <trkpt lat="45.9913" lon="4.9002">
        <ele>296</ele>
        <time>2018-06-29T09:19:45Z</time>
      </trkpt>
      <trkpt lat="45.99135" lon="4.90024">
        <ele>297</ele>
        <time>2018-06-29T09:19:46Z</time>
      </trkpt>
      <trkpt lat="45.9914" lon="4.90026">
        <ele>297</ele>
        <time>2018-06-29T09:19:47Z</time>
      </trkpt>
      <trkpt lat="45.99147" lon="4.90033">
        <ele>297</ele>
        <time>2018-06-29T09:19:49Z</time>
      </trkpt>
      <trkpt lat="45.99151" lon="4.90038">
        <ele>297</ele>
        <time>2018-06-29T09:19:50Z</time>
      </trkpt>
      <trkpt lat="45.99153" lon="4.90044">
        <ele>297</ele>
        <time>2018-06-29T09:19:51Z</time>
      </trkpt>
      <trkpt lat="45.99157" lon="4.90049">
        <ele>297</ele>
        <time>2018-06-29T09:19:52Z</time>
      </trkpt>
      <trkpt lat="45.9916" lon="4.90056">
        <ele>297</ele>
        <time>2018-06-29T09:19:53Z</time>
      </trkpt>
      <trkpt lat="45.99163" lon="4.9006">
        <ele>297</ele>
        <time>2018-06-29T09:19:54Z</time>
      </trkpt>
      <trkpt lat="45.99167" lon="4.90065">
        <ele>297</ele>
        <time>2018-06-29T09:19:55Z</time>
      </trkpt>
      <trkpt lat="45.9917" lon="4.9007">
        <ele>297</ele>
        <time>2018-06-29T09:19:56Z</time>
      </trkpt>
      <trkpt lat="45.99173" lon="4.90075">
        <ele>297</ele>
        <time>2018-06-29T09:19:57Z</time>
      </trkpt>
      <trkpt lat="45.99178" lon="4.90079">
        <ele>297</ele>
        <time>2018-06-29T09:19:58Z</time>
      </trkpt>
      <trkpt lat="45.99182" lon="4.90089">
        <ele>297</ele>
        <time>2018-06-29T09:20:00Z</time>
      </trkpt>
      <trkpt lat="45.99187" lon="4.90093">
        <ele>297</ele>
        <time>2018-06-29T09:20:01Z</time>
      </trkpt>
      <trkpt lat="45.99193" lon="4.90102">
        <ele>297</ele>
        <time>2018-06-29T09:20:03Z</time>
      </trkpt>
      <trkpt lat="45.99196" lon="4.90107">
        <ele>297</ele>
        <time>2018-06-29T09:20:04Z</time>
      </trkpt>
      <trkpt lat="45.992" lon="4.90112">
        <ele>297</ele>
        <time>2018-06-29T09:20:05Z</time>
      </trkpt>
      <trkpt lat="45.99204" lon="4.90117">
        <ele>297</ele>
        <time>2018-06-29T09:20:06Z</time>
      </trkpt>
      <trkpt lat="45.99208" lon="4.90123">
        <ele>297</ele>
        <time>2018-06-29T09:20:07Z</time>
      </trkpt>
      <trkpt lat="45.99211" lon="4.90128">
        <ele>297</ele>
        <time>2018-06-29T09:20:08Z</time>
      </trkpt>
      <trkpt lat="45.99212" lon="4.90132">
        <ele>297</ele>
        <time>2018-06-29T09:20:09Z</time>
      </trkpt>
      <trkpt lat="45.99217" lon="4.90138">
        <ele>297</ele>
        <time>2018-06-29T09:20:10Z</time>
      </trkpt>
      <trkpt lat="45.9922" lon="4.90143">
        <ele>297</ele>
        <time>2018-06-29T09:20:11Z</time>
      </trkpt>
      <trkpt lat="45.99224" lon="4.90149">
        <ele>297</ele>
        <time>2018-06-29T09:20:12Z</time>
      </trkpt>
      <trkpt lat="45.99226" lon="4.90154">
        <ele>297</ele>
        <time>2018-06-29T09:20:13Z</time>
      </trkpt>
      <trkpt lat="45.99231" lon="4.90157">
        <ele>297</ele>
        <time>2018-06-29T09:20:14Z</time>
      </trkpt>
      <trkpt lat="45.99234" lon="4.90162">
        <ele>297</ele>
        <time>2018-06-29T09:20:15Z</time>
      </trkpt>
      <trkpt lat="45.9924" lon="4.90168">
        <ele>297</ele>
        <time>2018-06-29T09:20:16Z</time>
      </trkpt>
      <trkpt lat="45.99244" lon="4.90174">
        <ele>297</ele>
        <time>2018-06-29T09:20:17Z</time>
      </trkpt>
      <trkpt lat="45.99247" lon="4.90179">
        <ele>297</ele>
        <time>2018-06-29T09:20:18Z</time>
      </trkpt>
      <trkpt lat="45.99249" lon="4.90185">
        <ele>297</ele>
        <time>2018-06-29T09:20:19Z</time>
      </trkpt>
      <trkpt lat="45.99253" lon="4.9019">
        <ele>298</ele>
        <time>2018-06-29T09:20:20Z</time>
      </trkpt>
      <trkpt lat="45.99259" lon="4.902">
        <ele>298</ele>
        <time>2018-06-29T09:20:22Z</time>
      </trkpt>
      <trkpt lat="45.99262" lon="4.90205">
        <ele>298</ele>
        <time>2018-06-29T09:20:23Z</time>
      </trkpt>
      <trkpt lat="45.99267" lon="4.90209">
        <ele>298</ele>
        <time>2018-06-29T09:20:24Z</time>
      </trkpt>
      <trkpt lat="45.9927" lon="4.90214">
        <ele>298</ele>
        <time>2018-06-29T09:20:25Z</time>
      </trkpt>
      <trkpt lat="45.99273" lon="4.90218">
        <ele>298</ele>
        <time>2018-06-29T09:20:26Z</time>
      </trkpt>
      <trkpt lat="45.99277" lon="4.90223">
        <ele>298</ele>
        <time>2018-06-29T09:20:27Z</time>
      </trkpt>
      <trkpt lat="45.99281" lon="4.90228">
        <ele>298</ele>
        <time>2018-06-29T09:20:28Z</time>
      </trkpt>
      <trkpt lat="45.99284" lon="4.90234">
        <ele>298</ele>
        <time>2018-06-29T09:20:29Z</time>
      </trkpt>
      <trkpt lat="45.99287" lon="4.90239">
        <ele>298</ele>
        <time>2018-06-29T09:20:30Z</time>
      </trkpt>
      <trkpt lat="45.99291" lon="4.90244">
        <ele>298</ele>
        <time>2018-06-29T09:20:31Z</time>
      </trkpt>
      <trkpt lat="45.99295" lon="4.90249">
        <ele>298</ele>
        <time>2018-06-29T09:20:32Z</time>
      </trkpt>
      <trkpt lat="45.99299" lon="4.90255">
        <ele>299</ele>
        <time>2018-06-29T09:20:33Z</time>
      </trkpt>
      <trkpt lat="45.99303" lon="4.9026">
        <ele>299</ele>
        <time>2018-06-29T09:20:34Z</time>
      </trkpt>
      <trkpt lat="45.99307" lon="4.90264">
        <ele>299</ele>
        <time>2018-06-29T09:20:35Z</time>
      </trkpt>
      <trkpt lat="45.99312" lon="4.90274">
        <ele>299</ele>
        <time>2018-06-29T09:20:38Z</time>
      </trkpt>
      <trkpt lat="45.99313" lon="4.90276">
        <ele>299</ele>
        <time>2018-06-29T09:20:39Z</time>
      </trkpt>
      <trkpt lat="45.99316" lon="4.90288">
        <ele>299</ele>
        <time>2018-06-29T09:20:43Z</time>
      </trkpt>
      <trkpt lat="45.99323" lon="4.90292">
        <ele>299</ele>
        <time>2018-06-29T09:20:44Z</time>
      </trkpt>
      <trkpt lat="45.9933" lon="4.90296">
        <ele>299</ele>
        <time>2018-06-29T09:20:46Z</time>
      </trkpt>
      <trkpt lat="45.99334" lon="4.90297">
        <ele>300</ele>
        <time>2018-06-29T09:20:47Z</time>
      </trkpt>
      <trkpt lat="45.99338" lon="4.90298">
        <ele>300</ele>
        <time>2018-06-29T09:20:48Z</time>
      </trkpt>
      <trkpt lat="45.99343" lon="4.90299">
        <ele>300</ele>
        <time>2018-06-29T09:20:49Z</time>
      </trkpt>
      <trkpt lat="45.99348" lon="4.90299">
        <ele>300</ele>
        <time>2018-06-29T09:20:50Z</time>
      </trkpt>
      <trkpt lat="45.99353" lon="4.90299">
        <ele>300</ele>
        <time>2018-06-29T09:20:51Z</time>
      </trkpt>
      <trkpt lat="45.99362" lon="4.90298">
        <ele>300</ele>
        <time>2018-06-29T09:20:53Z</time>
      </trkpt>
      <trkpt lat="45.99367" lon="4.90298">
        <ele>300</ele>
        <time>2018-06-29T09:20:54Z</time>
      </trkpt>
      <trkpt lat="45.99372" lon="4.90299">
        <ele>300</ele>
        <time>2018-06-29T09:20:55Z</time>
      </trkpt>
      <trkpt lat="45.99378" lon="4.90299">
        <ele>300</ele>
        <time>2018-06-29T09:20:56Z</time>
      </trkpt>
      <trkpt lat="45.99386" lon="4.90302">
        <ele>300</ele>
        <time>2018-06-29T09:20:58Z</time>
      </trkpt>
      <trkpt lat="45.99391" lon="4.90304">
        <ele>300</ele>
        <time>2018-06-29T09:20:59Z</time>
      </trkpt>
      <trkpt lat="45.994" lon="4.90304">
        <ele>300</ele>
        <time>2018-06-29T09:21:01Z</time>
      </trkpt>
      <trkpt lat="45.99404" lon="4.90305">
        <ele>300</ele>
        <time>2018-06-29T09:21:02Z</time>
      </trkpt>
      <trkpt lat="45.9941" lon="4.90305">
        <ele>300</ele>
        <time>2018-06-29T09:21:03Z</time>
      </trkpt>
      <trkpt lat="45.99414" lon="4.90306">
        <ele>300</ele>
        <time>2018-06-29T09:21:04Z</time>
      </trkpt>
      <trkpt lat="45.9942" lon="4.90307">
        <ele>300</ele>
        <time>2018-06-29T09:21:05Z</time>
      </trkpt>
      <trkpt lat="45.99426" lon="4.90308">
        <ele>300</ele>
        <time>2018-06-29T09:21:06Z</time>
      </trkpt>
      <trkpt lat="45.99431" lon="4.90309">
        <ele>300</ele>
        <time>2018-06-29T09:21:07Z</time>
      </trkpt>
      <trkpt lat="45.99437" lon="4.9031">
        <ele>300</ele>
        <time>2018-06-29T09:21:08Z</time>
      </trkpt>
      <trkpt lat="45.99443" lon="4.90311">
        <ele>300</ele>
        <time>2018-06-29T09:21:09Z</time>
      </trkpt>
      <trkpt lat="45.99447" lon="4.90312">
        <ele>300</ele>
        <time>2018-06-29T09:21:10Z</time>
      </trkpt>
      <trkpt lat="45.99455" lon="4.90314">
        <ele>300</ele>
        <time>2018-06-29T09:21:12Z</time>
      </trkpt>
      <trkpt lat="45.9946" lon="4.90315">
        <ele>300</ele>
        <time>2018-06-29T09:21:13Z</time>
      </trkpt>
      <trkpt lat="45.99465" lon="4.90315">
        <ele>300</ele>
        <time>2018-06-29T09:21:14Z</time>
      </trkpt>
      <trkpt lat="45.9947" lon="4.90315">
        <ele>300</ele>
        <time>2018-06-29T09:21:15Z</time>
      </trkpt>
      <trkpt lat="45.99475" lon="4.90316">
        <ele>300</ele>
        <time>2018-06-29T09:21:16Z</time>
      </trkpt>
      <trkpt lat="45.99481" lon="4.90318">
        <ele>300</ele>
        <time>2018-06-29T09:21:17Z</time>
      </trkpt>
      <trkpt lat="45.99486" lon="4.90319">
        <ele>300</ele>
        <time>2018-06-29T09:21:18Z</time>
      </trkpt>
      <trkpt lat="45.99492" lon="4.9032">
        <ele>300</ele>
        <time>2018-06-29T09:21:19Z</time>
      </trkpt>
      <trkpt lat="45.99498" lon="4.90321">
        <ele>300</ele>
        <time>2018-06-29T09:21:20Z</time>
      </trkpt>
      <trkpt lat="45.99504" lon="4.90322">
        <ele>301</ele>
        <time>2018-06-29T09:21:21Z</time>
      </trkpt>
      <trkpt lat="45.99512" lon="4.90322">
        <ele>301</ele>
        <time>2018-06-29T09:21:23Z</time>
      </trkpt>
      <trkpt lat="45.99517" lon="4.90323">
        <ele>301</ele>
        <time>2018-06-29T09:21:24Z</time>
      </trkpt>
      <trkpt lat="45.99523" lon="4.90323">
        <ele>301</ele>
        <time>2018-06-29T09:21:25Z</time>
      </trkpt>
      <trkpt lat="45.99528" lon="4.90324">
        <ele>301</ele>
        <time>2018-06-29T09:21:26Z</time>
      </trkpt>
      <trkpt lat="45.99534" lon="4.90323">
        <ele>300</ele>
        <time>2018-06-29T09:21:28Z</time>
      </trkpt>
      <trkpt lat="45.99542" lon="4.90324">
        <ele>300</ele>
        <time>2018-06-29T09:21:29Z</time>
      </trkpt>
      <trkpt lat="45.9955" lon="4.90324">
        <ele>301</ele>
        <time>2018-06-29T09:21:31Z</time>
      </trkpt>
      <trkpt lat="45.99557" lon="4.90323">
        <ele>301</ele>
        <time>2018-06-29T09:21:32Z</time>
      </trkpt>
      <trkpt lat="45.99564" lon="4.90326">
        <ele>301</ele>
        <time>2018-06-29T09:21:36Z</time>
      </trkpt>
      <trkpt lat="45.99567" lon="4.90327">
        <ele>301</ele>
        <time>2018-06-29T09:21:37Z</time>
      </trkpt>
      <trkpt lat="45.99574" lon="4.90328">
        <ele>301</ele>
        <time>2018-06-29T09:21:40Z</time>
      </trkpt>
      <trkpt lat="45.99577" lon="4.90328">
        <ele>301</ele>
        <time>2018-06-29T09:21:41Z</time>
      </trkpt>
      <trkpt lat="45.99587" lon="4.90328">
        <ele>301</ele>
        <time>2018-06-29T09:21:42Z</time>
      </trkpt>
      <trkpt lat="45.99594" lon="4.90327">
        <ele>301</ele>
        <time>2018-06-29T09:21:44Z</time>
      </trkpt>
      <trkpt lat="45.99598" lon="4.90327">
        <ele>301</ele>
        <time>2018-06-29T09:21:45Z</time>
      </trkpt>
      <trkpt lat="45.99603" lon="4.90326">
        <ele>301</ele>
        <time>2018-06-29T09:21:46Z</time>
      </trkpt>
      <trkpt lat="45.99608" lon="4.90326">
        <ele>301</ele>
        <time>2018-06-29T09:21:47Z</time>
      </trkpt>
      <trkpt lat="45.99612" lon="4.90326">
        <ele>302</ele>
        <time>2018-06-29T09:21:48Z</time>
      </trkpt>
      <trkpt lat="45.99617" lon="4.90327">
        <ele>302</ele>
        <time>2018-06-29T09:21:49Z</time>
      </trkpt>
      <trkpt lat="45.99622" lon="4.90327">
        <ele>302</ele>
        <time>2018-06-29T09:21:50Z</time>
      </trkpt>
      <trkpt lat="45.99626" lon="4.90328">
        <ele>302</ele>
        <time>2018-06-29T09:21:51Z</time>
      </trkpt>
      <trkpt lat="45.99635" lon="4.90329">
        <ele>302</ele>
        <time>2018-06-29T09:21:53Z</time>
      </trkpt>
      <trkpt lat="45.99639" lon="4.9033">
        <ele>302</ele>
        <time>2018-06-29T09:21:54Z</time>
      </trkpt>
      <trkpt lat="45.99648" lon="4.90331">
        <ele>302</ele>
        <time>2018-06-29T09:21:56Z</time>
      </trkpt>
      <trkpt lat="45.99651" lon="4.90331">
        <ele>302</ele>
        <time>2018-06-29T09:21:57Z</time>
      </trkpt>
      <trkpt lat="45.9966" lon="4.90331">
        <ele>302</ele>
        <time>2018-06-29T09:22:01Z</time>
      </trkpt>
      <trkpt lat="45.99662" lon="4.9033">
        <ele>302</ele>
        <time>2018-06-29T09:22:02Z</time>
      </trkpt>
      <trkpt lat="45.99666" lon="4.90319">
        <ele>302</ele>
        <time>2018-06-29T09:22:06Z</time>
      </trkpt>
      <trkpt lat="45.99667" lon="4.90316">
        <ele>303</ele>
        <time>2018-06-29T09:22:07Z</time>
      </trkpt>
      <trkpt lat="45.99667" lon="4.90312">
        <ele>304</ele>
        <time>2018-06-29T09:22:08Z</time>
      </trkpt>
      <trkpt lat="45.99669" lon="4.90298">
        <ele>304</ele>
        <time>2018-06-29T09:22:09Z</time>
      </trkpt>
      <trkpt lat="45.99671" lon="4.90292">
        <ele>304</ele>
        <time>2018-06-29T09:22:10Z</time>
      </trkpt>
      <trkpt lat="45.99672" lon="4.90282">
        <ele>304</ele>
        <time>2018-06-29T09:22:11Z</time>
      </trkpt>
      <trkpt lat="45.99672" lon="4.90274">
        <ele>304</ele>
        <time>2018-06-29T09:22:12Z</time>
      </trkpt>
      <trkpt lat="45.99672" lon="4.90269">
        <ele>304</ele>
        <time>2018-06-29T09:22:13Z</time>
      </trkpt>
      <trkpt lat="45.99674" lon="4.90261">
        <ele>304</ele>
        <time>2018-06-29T09:22:14Z</time>
      </trkpt>
      <trkpt lat="45.99675" lon="4.90254">
        <ele>304</ele>
        <time>2018-06-29T09:22:15Z</time>
      </trkpt>
      <trkpt lat="45.99676" lon="4.90248">
        <ele>304</ele>
        <time>2018-06-29T09:22:16Z</time>
      </trkpt>
      <trkpt lat="45.99674" lon="4.90241">
        <ele>304</ele>
        <time>2018-06-29T09:22:17Z</time>
      </trkpt>
      <trkpt lat="45.99676" lon="4.90228">
        <ele>304</ele>
        <time>2018-06-29T09:22:19Z</time>
      </trkpt>
      <trkpt lat="45.99674" lon="4.90222">
        <ele>303</ele>
        <time>2018-06-29T09:22:20Z</time>
      </trkpt>
      <trkpt lat="45.99672" lon="4.9021">
        <ele>303</ele>
        <time>2018-06-29T09:22:22Z</time>
      </trkpt>
      <trkpt lat="45.99669" lon="4.90202">
        <ele>303</ele>
        <time>2018-06-29T09:22:23Z</time>
      </trkpt>
      <trkpt lat="45.99666" lon="4.90193">
        <ele>301</ele>
        <time>2018-06-29T09:22:24Z</time>
      </trkpt>
      <trkpt lat="45.99664" lon="4.90183">
        <ele>301</ele>
        <time>2018-06-29T09:22:25Z</time>
      </trkpt>
      <trkpt lat="45.99661" lon="4.90174">
        <ele>301</ele>
        <time>2018-06-29T09:22:26Z</time>
      </trkpt>
      <trkpt lat="45.99659" lon="4.90166">
        <ele>300</ele>
        <time>2018-06-29T09:22:27Z</time>
      </trkpt>
      <trkpt lat="45.99657" lon="4.90156">
        <ele>300</ele>
        <time>2018-06-29T09:22:28Z</time>
      </trkpt>
      <trkpt lat="45.99657" lon="4.90147">
        <ele>300</ele>
        <time>2018-06-29T09:22:29Z</time>
      </trkpt>
      <trkpt lat="45.99655" lon="4.90136">
        <ele>299</ele>
        <time>2018-06-29T09:22:30Z</time>
      </trkpt>
      <trkpt lat="45.99653" lon="4.90125">
        <ele>299</ele>
        <time>2018-06-29T09:22:31Z</time>
      </trkpt>
      <trkpt lat="45.99651" lon="4.90114">
        <ele>299</ele>
        <time>2018-06-29T09:22:32Z</time>
      </trkpt>
      <trkpt lat="45.99646" lon="4.90101">
        <ele>299</ele>
        <time>2018-06-29T09:22:33Z</time>
      </trkpt>
      <trkpt lat="45.99642" lon="4.9009">
        <ele>299</ele>
        <time>2018-06-29T09:22:34Z</time>
      </trkpt>
      <trkpt lat="45.99638" lon="4.90078">
        <ele>297</ele>
        <time>2018-06-29T09:22:35Z</time>
      </trkpt>
      <trkpt lat="45.99634" lon="4.90067">
        <ele>297</ele>
        <time>2018-06-29T09:22:36Z</time>
      </trkpt>
      <trkpt lat="45.99627" lon="4.90055">
        <ele>297</ele>
        <time>2018-06-29T09:22:37Z</time>
      </trkpt>
      <trkpt lat="45.99623" lon="4.90044">
        <ele>297</ele>
        <time>2018-06-29T09:22:38Z</time>
      </trkpt>
      <trkpt lat="45.99619" lon="4.90034">
        <ele>296</ele>
        <time>2018-06-29T09:22:39Z</time>
      </trkpt>
      <trkpt lat="45.99616" lon="4.90023">
        <ele>296</ele>
        <time>2018-06-29T09:22:40Z</time>
      </trkpt>
      <trkpt lat="45.99615" lon="4.90011">
        <ele>296</ele>
        <time>2018-06-29T09:22:41Z</time>
      </trkpt>
      <trkpt lat="45.99612" lon="4.9">
        <ele>296</ele>
        <time>2018-06-29T09:22:42Z</time>
      </trkpt>
      <trkpt lat="45.9961" lon="4.89989">
        <ele>294</ele>
        <time>2018-06-29T09:22:43Z</time>
      </trkpt>
      <trkpt lat="45.99611" lon="4.89979">
        <ele>294</ele>
        <time>2018-06-29T09:22:44Z</time>
      </trkpt>
      <trkpt lat="45.9961" lon="4.89967">
        <ele>294</ele>
        <time>2018-06-29T09:22:45Z</time>
      </trkpt>
      <trkpt lat="45.99608" lon="4.89957">
        <ele>294</ele>
        <time>2018-06-29T09:22:46Z</time>
      </trkpt>
      <trkpt lat="45.99608" lon="4.89947">
        <ele>294</ele>
        <time>2018-06-29T09:22:47Z</time>
      </trkpt>
      <trkpt lat="45.99609" lon="4.89937">
        <ele>293</ele>
        <time>2018-06-29T09:22:48Z</time>
      </trkpt>
      <trkpt lat="45.99609" lon="4.89927">
        <ele>293</ele>
        <time>2018-06-29T09:22:49Z</time>
      </trkpt>
      <trkpt lat="45.99606" lon="4.89914">
        <ele>292</ele>
        <time>2018-06-29T09:22:50Z</time>
      </trkpt>
      <trkpt lat="45.99606" lon="4.89904">
        <ele>292</ele>
        <time>2018-06-29T09:22:51Z</time>
      </trkpt>
      <trkpt lat="45.99606" lon="4.89894">
        <ele>292</ele>
        <time>2018-06-29T09:22:52Z</time>
      </trkpt>
      <trkpt lat="45.99606" lon="4.89883">
        <ele>292</ele>
        <time>2018-06-29T09:22:53Z</time>
      </trkpt>
      <trkpt lat="45.99605" lon="4.89874">
        <ele>293</ele>
        <time>2018-06-29T09:22:54Z</time>
      </trkpt>
      <trkpt lat="45.99605" lon="4.89864">
        <ele>293</ele>
        <time>2018-06-29T09:22:55Z</time>
      </trkpt>
      <trkpt lat="45.99609" lon="4.89853">
        <ele>293</ele>
        <time>2018-06-29T09:22:56Z</time>
      </trkpt>
      <trkpt lat="45.99609" lon="4.89843">
        <ele>293</ele>
        <time>2018-06-29T09:22:57Z</time>
      </trkpt>
      <trkpt lat="45.99608" lon="4.89833">
        <ele>292</ele>
        <time>2018-06-29T09:22:58Z</time>
      </trkpt>
      <trkpt lat="45.99608" lon="4.89823">
        <ele>292</ele>
        <time>2018-06-29T09:22:59Z</time>
      </trkpt>
      <trkpt lat="45.99608" lon="4.89813">
        <ele>292</ele>
        <time>2018-06-29T09:23:00Z</time>
      </trkpt>
      <trkpt lat="45.99607" lon="4.89803">
        <ele>292</ele>
        <time>2018-06-29T09:23:01Z</time>
      </trkpt>
      <trkpt lat="45.99608" lon="4.89794">
        <ele>292</ele>
        <time>2018-06-29T09:23:02Z</time>
      </trkpt>
      <trkpt lat="45.99604" lon="4.89782">
        <ele>292</ele>
        <time>2018-06-29T09:23:03Z</time>
      </trkpt>
      <trkpt lat="45.99603" lon="4.89772">
        <ele>292</ele>
        <time>2018-06-29T09:23:04Z</time>
      </trkpt>
      <trkpt lat="45.99601" lon="4.89761">
        <ele>292</ele>
        <time>2018-06-29T09:23:05Z</time>
      </trkpt>
      <trkpt lat="45.99601" lon="4.89751">
        <ele>292</ele>
        <time>2018-06-29T09:23:06Z</time>
      </trkpt>
      <trkpt lat="45.996" lon="4.89743">
        <ele>292</ele>
        <time>2018-06-29T09:23:07Z</time>
      </trkpt>
      <trkpt lat="45.996" lon="4.89734">
        <ele>292</ele>
        <time>2018-06-29T09:23:08Z</time>
      </trkpt>
      <trkpt lat="45.996" lon="4.89727">
        <ele>292</ele>
        <time>2018-06-29T09:23:09Z</time>
      </trkpt>
      <trkpt lat="45.996" lon="4.89717">
        <ele>292</ele>
        <time>2018-06-29T09:23:10Z</time>
      </trkpt>
      <trkpt lat="45.99601" lon="4.8971">
        <ele>292</ele>
        <time>2018-06-29T09:23:11Z</time>
      </trkpt>
      <trkpt lat="45.99602" lon="4.897">
        <ele>292</ele>
        <time>2018-06-29T09:23:12Z</time>
      </trkpt>
      <trkpt lat="45.99602" lon="4.89691">
        <ele>292</ele>
        <time>2018-06-29T09:23:13Z</time>
      </trkpt>
      <trkpt lat="45.99602" lon="4.89682">
        <ele>292</ele>
        <time>2018-06-29T09:23:14Z</time>
      </trkpt>
      <trkpt lat="45.99602" lon="4.89673">
        <ele>292</ele>
        <time>2018-06-29T09:23:15Z</time>
      </trkpt>
      <trkpt lat="45.99604" lon="4.89665">
        <ele>292</ele>
        <time>2018-06-29T09:23:16Z</time>
      </trkpt>
      <trkpt lat="45.99605" lon="4.89655">
        <ele>291</ele>
        <time>2018-06-29T09:23:17Z</time>
      </trkpt>
      <trkpt lat="45.99609" lon="4.89647">
        <ele>291</ele>
        <time>2018-06-29T09:23:18Z</time>
      </trkpt>
      <trkpt lat="45.99609" lon="4.89638">
        <ele>291</ele>
        <time>2018-06-29T09:23:19Z</time>
      </trkpt>
      <trkpt lat="45.99608" lon="4.89627">
        <ele>291</ele>
        <time>2018-06-29T09:23:20Z</time>
      </trkpt>
      <trkpt lat="45.99607" lon="4.89617">
        <ele>291</ele>
        <time>2018-06-29T09:23:21Z</time>
      </trkpt>
      <trkpt lat="45.99607" lon="4.89607">
        <ele>291</ele>
        <time>2018-06-29T09:23:22Z</time>
      </trkpt>
      <trkpt lat="45.99606" lon="4.89597">
        <ele>292</ele>
        <time>2018-06-29T09:23:23Z</time>
      </trkpt>
      <trkpt lat="45.99606" lon="4.89589">
        <ele>292</ele>
        <time>2018-06-29T09:23:24Z</time>
      </trkpt>
      <trkpt lat="45.99609" lon="4.89581">
        <ele>291</ele>
        <time>2018-06-29T09:23:25Z</time>
      </trkpt>
      <trkpt lat="45.99607" lon="4.89572">
        <ele>291</ele>
        <time>2018-06-29T09:23:26Z</time>
      </trkpt>
      <trkpt lat="45.99608" lon="4.89565">
        <ele>291</ele>
        <time>2018-06-29T09:23:27Z</time>
      </trkpt>
      <trkpt lat="45.99607" lon="4.89555">
        <ele>291</ele>
        <time>2018-06-29T09:23:28Z</time>
      </trkpt>
      <trkpt lat="45.99605" lon="4.89546">
        <ele>291</ele>
        <time>2018-06-29T09:23:29Z</time>
      </trkpt>
      <trkpt lat="45.99604" lon="4.89538">
        <ele>291</ele>
        <time>2018-06-29T09:23:30Z</time>
      </trkpt>
      <trkpt lat="45.99604" lon="4.89529">
        <ele>291</ele>
        <time>2018-06-29T09:23:31Z</time>
      </trkpt>
      <trkpt lat="45.99603" lon="4.89522">
        <ele>291</ele>
        <time>2018-06-29T09:23:32Z</time>
      </trkpt>
      <trkpt lat="45.99603" lon="4.89515">
        <ele>290</ele>
        <time>2018-06-29T09:23:33Z</time>
      </trkpt>
      <trkpt lat="45.99602" lon="4.89507">
        <ele>290</ele>
        <time>2018-06-29T09:23:34Z</time>
      </trkpt>
      <trkpt lat="45.99602" lon="4.89499">
        <ele>290</ele>
        <time>2018-06-29T09:23:35Z</time>
      </trkpt>
      <trkpt lat="45.99604" lon="4.89491">
        <ele>290</ele>
        <time>2018-06-29T09:23:36Z</time>
      </trkpt>
      <trkpt lat="45.99609" lon="4.89483">
        <ele>290</ele>
        <time>2018-06-29T09:23:37Z</time>
      </trkpt>
      <trkpt lat="45.99612" lon="4.89475">
        <ele>290</ele>
        <time>2018-06-29T09:23:38Z</time>
      </trkpt>
      <trkpt lat="45.99611" lon="4.89466">
        <ele>290</ele>
        <time>2018-06-29T09:23:39Z</time>
      </trkpt>
      <trkpt lat="45.9961" lon="4.89457">
        <ele>290</ele>
        <time>2018-06-29T09:23:40Z</time>
      </trkpt>
      <trkpt lat="45.99606" lon="4.89448">
        <ele>290</ele>
        <time>2018-06-29T09:23:41Z</time>
      </trkpt>
      <trkpt lat="45.99605" lon="4.89439">
        <ele>290</ele>
        <time>2018-06-29T09:23:42Z</time>
      </trkpt>
      <trkpt lat="45.99605" lon="4.89429">
        <ele>290</ele>
        <time>2018-06-29T09:23:43Z</time>
      </trkpt>
      <trkpt lat="45.99604" lon="4.8942">
        <ele>290</ele>
        <time>2018-06-29T09:23:44Z</time>
      </trkpt>
      <trkpt lat="45.99603" lon="4.89411">
        <ele>290</ele>
        <time>2018-06-29T09:23:45Z</time>
      </trkpt>
      <trkpt lat="45.99602" lon="4.89403">
        <ele>290</ele>
        <time>2018-06-29T09:23:46Z</time>
      </trkpt>
      <trkpt lat="45.99601" lon="4.89393">
        <ele>290</ele>
        <time>2018-06-29T09:23:47Z</time>
      </trkpt>
      <trkpt lat="45.996" lon="4.89385">
        <ele>290</ele>
        <time>2018-06-29T09:23:48Z</time>
      </trkpt>
      <trkpt lat="45.996" lon="4.89376">
        <ele>290</ele>
        <time>2018-06-29T09:23:49Z</time>
      </trkpt>
      <trkpt lat="45.99599" lon="4.89368">
        <ele>289</ele>
        <time>2018-06-29T09:23:50Z</time>
      </trkpt>
      <trkpt lat="45.99593" lon="4.89358">
        <ele>289</ele>
        <time>2018-06-29T09:23:51Z</time>
      </trkpt>
      <trkpt lat="45.99591" lon="4.89349">
        <ele>289</ele>
        <time>2018-06-29T09:23:52Z</time>
      </trkpt>
      <trkpt lat="45.9959" lon="4.89342">
        <ele>289</ele>
        <time>2018-06-29T09:23:53Z</time>
      </trkpt>
      <trkpt lat="45.9959" lon="4.89334">
        <ele>289</ele>
        <time>2018-06-29T09:23:54Z</time>
      </trkpt>
      <trkpt lat="45.99589" lon="4.89326">
        <ele>289</ele>
        <time>2018-06-29T09:23:55Z</time>
      </trkpt>
      <trkpt lat="45.99588" lon="4.89318">
        <ele>289</ele>
        <time>2018-06-29T09:23:56Z</time>
      </trkpt>
      <trkpt lat="45.99588" lon="4.89308">
        <ele>289</ele>
        <time>2018-06-29T09:23:57Z</time>
      </trkpt>
      <trkpt lat="45.99593" lon="4.89301">
        <ele>289</ele>
        <time>2018-06-29T09:23:58Z</time>
      </trkpt>
      <trkpt lat="45.99592" lon="4.89292">
        <ele>289</ele>
        <time>2018-06-29T09:23:59Z</time>
      </trkpt>
      <trkpt lat="45.99592" lon="4.89282">
        <ele>289</ele>
        <time>2018-06-29T09:24:00Z</time>
      </trkpt>
      <trkpt lat="45.99591" lon="4.89272">
        <ele>288</ele>
        <time>2018-06-29T09:24:01Z</time>
      </trkpt>
      <trkpt lat="45.99587" lon="4.89261">
        <ele>288</ele>
        <time>2018-06-29T09:24:02Z</time>
      </trkpt>
      <trkpt lat="45.99584" lon="4.89248">
        <ele>288</ele>
        <time>2018-06-29T09:24:03Z</time>
      </trkpt>
      <trkpt lat="45.99583" lon="4.89238">
        <ele>288</ele>
        <time>2018-06-29T09:24:04Z</time>
      </trkpt>
      <trkpt lat="45.99583" lon="4.89228">
        <ele>288</ele>
        <time>2018-06-29T09:24:05Z</time>
      </trkpt>
      <trkpt lat="45.99582" lon="4.89219">
        <ele>288</ele>
        <time>2018-06-29T09:24:06Z</time>
      </trkpt>
      <trkpt lat="45.99581" lon="4.89209">
        <ele>288</ele>
        <time>2018-06-29T09:24:07Z</time>
      </trkpt>
      <trkpt lat="45.9958" lon="4.892">
        <ele>288</ele>
        <time>2018-06-29T09:24:08Z</time>
      </trkpt>
      <trkpt lat="45.99579" lon="4.89191">
        <ele>288</ele>
        <time>2018-06-29T09:24:09Z</time>
      </trkpt>
      <trkpt lat="45.99578" lon="4.89181">
        <ele>288</ele>
        <time>2018-06-29T09:24:10Z</time>
      </trkpt>
      <trkpt lat="45.99577" lon="4.89171">
        <ele>288</ele>
        <time>2018-06-29T09:24:11Z</time>
      </trkpt>
      <trkpt lat="45.99577" lon="4.89163">
        <ele>288</ele>
        <time>2018-06-29T09:24:12Z</time>
      </trkpt>
      <trkpt lat="45.99577" lon="4.89155">
        <ele>288</ele>
        <time>2018-06-29T09:24:13Z</time>
      </trkpt>
      <trkpt lat="45.99578" lon="4.89146">
        <ele>289</ele>
        <time>2018-06-29T09:24:14Z</time>
      </trkpt>
      <trkpt lat="45.99577" lon="4.89136">
        <ele>289</ele>
        <time>2018-06-29T09:24:15Z</time>
      </trkpt>
      <trkpt lat="45.99573" lon="4.89125">
        <ele>289</ele>
        <time>2018-06-29T09:24:16Z</time>
      </trkpt>
      <trkpt lat="45.99572" lon="4.89114">
        <ele>289</ele>
        <time>2018-06-29T09:24:17Z</time>
      </trkpt>
      <trkpt lat="45.99572" lon="4.89103">
        <ele>289</ele>
        <time>2018-06-29T09:24:18Z</time>
      </trkpt>
      <trkpt lat="45.99573" lon="4.89092">
        <ele>289</ele>
        <time>2018-06-29T09:24:19Z</time>
      </trkpt>
      <trkpt lat="45.99575" lon="4.89083">
        <ele>289</ele>
        <time>2018-06-29T09:24:20Z</time>
      </trkpt>
      <trkpt lat="45.99576" lon="4.89073">
        <ele>289</ele>
        <time>2018-06-29T09:24:21Z</time>
      </trkpt>
      <trkpt lat="45.99579" lon="4.89065">
        <ele>289</ele>
        <time>2018-06-29T09:24:22Z</time>
      </trkpt>
      <trkpt lat="45.99578" lon="4.89056">
        <ele>288</ele>
        <time>2018-06-29T09:24:23Z</time>
      </trkpt>
      <trkpt lat="45.99579" lon="4.89046">
        <ele>288</ele>
        <time>2018-06-29T09:24:24Z</time>
      </trkpt>
      <trkpt lat="45.99581" lon="4.89037">
        <ele>288</ele>
        <time>2018-06-29T09:24:25Z</time>
      </trkpt>
      <trkpt lat="45.99582" lon="4.89028">
        <ele>288</ele>
        <time>2018-06-29T09:24:26Z</time>
      </trkpt>
      <trkpt lat="45.99582" lon="4.89019">
        <ele>288</ele>
        <time>2018-06-29T09:24:27Z</time>
      </trkpt>
      <trkpt lat="45.99582" lon="4.89011">
        <ele>288</ele>
        <time>2018-06-29T09:24:28Z</time>
      </trkpt>
      <trkpt lat="45.99584" lon="4.89001">
        <ele>288</ele>
        <time>2018-06-29T09:24:29Z</time>
      </trkpt>
      <trkpt lat="45.99586" lon="4.88994">
        <ele>288</ele>
        <time>2018-06-29T09:24:30Z</time>
      </trkpt>
      <trkpt lat="45.99586" lon="4.88985">
        <ele>288</ele>
        <time>2018-06-29T09:24:31Z</time>
      </trkpt>
      <trkpt lat="45.99584" lon="4.88977">
        <ele>288</ele>
        <time>2018-06-29T09:24:32Z</time>
      </trkpt>
      <trkpt lat="45.99583" lon="4.88968">
        <ele>288</ele>
        <time>2018-06-29T09:24:33Z</time>
      </trkpt>
      <trkpt lat="45.99583" lon="4.88958">
        <ele>287</ele>
        <time>2018-06-29T09:24:34Z</time>
      </trkpt>
      <trkpt lat="45.99581" lon="4.88948">
        <ele>287</ele>
        <time>2018-06-29T09:24:35Z</time>
      </trkpt>
      <trkpt lat="45.9958" lon="4.88939">
        <ele>287</ele>
        <time>2018-06-29T09:24:36Z</time>
      </trkpt>
      <trkpt lat="45.99578" lon="4.88928">
        <ele>287</ele>
        <time>2018-06-29T09:24:37Z</time>
      </trkpt>
      <trkpt lat="45.9958" lon="4.88918">
        <ele>287</ele>
        <time>2018-06-29T09:24:38Z</time>
      </trkpt>
      <trkpt lat="45.99579" lon="4.88908">
        <ele>287</ele>
        <time>2018-06-29T09:24:39Z</time>
      </trkpt>
      <trkpt lat="45.9958" lon="4.88898">
        <ele>287</ele>
        <time>2018-06-29T09:24:40Z</time>
      </trkpt>
      <trkpt lat="45.99579" lon="4.88889">
        <ele>287</ele>
        <time>2018-06-29T09:24:41Z</time>
      </trkpt>
      <trkpt lat="45.99578" lon="4.88879">
        <ele>287</ele>
        <time>2018-06-29T09:24:42Z</time>
      </trkpt>
      <trkpt lat="45.99577" lon="4.88869">
        <ele>287</ele>
        <time>2018-06-29T09:24:43Z</time>
      </trkpt>
      <trkpt lat="45.99576" lon="4.88859">
        <ele>287</ele>
        <time>2018-06-29T09:24:44Z</time>
      </trkpt>
      <trkpt lat="45.99572" lon="4.88849">
        <ele>287</ele>
        <time>2018-06-29T09:24:45Z</time>
      </trkpt>
      <trkpt lat="45.99571" lon="4.88839">
        <ele>287</ele>
        <time>2018-06-29T09:24:46Z</time>
      </trkpt>
      <trkpt lat="45.99572" lon="4.88831">
        <ele>287</ele>
        <time>2018-06-29T09:24:47Z</time>
      </trkpt>
      <trkpt lat="45.99572" lon="4.88821">
        <ele>287</ele>
        <time>2018-06-29T09:24:48Z</time>
      </trkpt>
      <trkpt lat="45.99571" lon="4.88812">
        <ele>287</ele>
        <time>2018-06-29T09:24:49Z</time>
      </trkpt>
      <trkpt lat="45.99569" lon="4.88802">
        <ele>287</ele>
        <time>2018-06-29T09:24:50Z</time>
      </trkpt>
      <trkpt lat="45.99568" lon="4.88792">
        <ele>287</ele>
        <time>2018-06-29T09:24:51Z</time>
      </trkpt>
      <trkpt lat="45.99567" lon="4.88782">
        <ele>287</ele>
        <time>2018-06-29T09:24:52Z</time>
      </trkpt>
      <trkpt lat="45.99567" lon="4.88771">
        <ele>287</ele>
        <time>2018-06-29T09:24:53Z</time>
      </trkpt>
      <trkpt lat="45.99566" lon="4.88761">
        <ele>287</ele>
        <time>2018-06-29T09:24:54Z</time>
      </trkpt>
      <trkpt lat="45.99563" lon="4.88749">
        <ele>287</ele>
        <time>2018-06-29T09:24:55Z</time>
      </trkpt>
      <trkpt lat="45.99563" lon="4.88739">
        <ele>287</ele>
        <time>2018-06-29T09:24:56Z</time>
      </trkpt>
      <trkpt lat="45.99562" lon="4.88731">
        <ele>287</ele>
        <time>2018-06-29T09:24:57Z</time>
      </trkpt>
      <trkpt lat="45.99561" lon="4.88721">
        <ele>286</ele>
        <time>2018-06-29T09:24:58Z</time>
      </trkpt>
      <trkpt lat="45.9956" lon="4.88713">
        <ele>286</ele>
        <time>2018-06-29T09:24:59Z</time>
      </trkpt>
      <trkpt lat="45.99559" lon="4.88704">
        <ele>286</ele>
        <time>2018-06-29T09:25:00Z</time>
      </trkpt>
      <trkpt lat="45.99559" lon="4.88695">
        <ele>286</ele>
        <time>2018-06-29T09:25:01Z</time>
      </trkpt>
      <trkpt lat="45.99559" lon="4.88686">
        <ele>286</ele>
        <time>2018-06-29T09:25:02Z</time>
      </trkpt>
      <trkpt lat="45.99558" lon="4.88677">
        <ele>286</ele>
        <time>2018-06-29T09:25:03Z</time>
      </trkpt>
      <trkpt lat="45.99559" lon="4.88669">
        <ele>286</ele>
        <time>2018-06-29T09:25:04Z</time>
      </trkpt>
      <trkpt lat="45.99558" lon="4.8866">
        <ele>286</ele>
        <time>2018-06-29T09:25:05Z</time>
      </trkpt>
      <trkpt lat="45.99557" lon="4.88651">
        <ele>286</ele>
        <time>2018-06-29T09:25:06Z</time>
      </trkpt>
      <trkpt lat="45.99557" lon="4.88641">
        <ele>286</ele>
        <time>2018-06-29T09:25:07Z</time>
      </trkpt>
      <trkpt lat="45.99561" lon="4.88632">
        <ele>286</ele>
        <time>2018-06-29T09:25:08Z</time>
      </trkpt>
      <trkpt lat="45.99559" lon="4.88623">
        <ele>286</ele>
        <time>2018-06-29T09:25:09Z</time>
      </trkpt>
      <trkpt lat="45.99557" lon="4.88614">
        <ele>286</ele>
        <time>2018-06-29T09:25:10Z</time>
      </trkpt>
      <trkpt lat="45.99556" lon="4.88605">
        <ele>286</ele>
        <time>2018-06-29T09:25:11Z</time>
      </trkpt>
      <trkpt lat="45.99555" lon="4.88597">
        <ele>286</ele>
        <time>2018-06-29T09:25:12Z</time>
      </trkpt>
      <trkpt lat="45.99553" lon="4.88588">
        <ele>286</ele>
        <time>2018-06-29T09:25:13Z</time>
      </trkpt>
      <trkpt lat="45.9955" lon="4.8858">
        <ele>286</ele>
        <time>2018-06-29T09:25:14Z</time>
      </trkpt>
      <trkpt lat="45.99548" lon="4.88572">
        <ele>286</ele>
        <time>2018-06-29T09:25:15Z</time>
      </trkpt>
      <trkpt lat="45.99544" lon="4.88563">
        <ele>285</ele>
        <time>2018-06-29T09:25:16Z</time>
      </trkpt>
      <trkpt lat="45.99541" lon="4.88556">
        <ele>285</ele>
        <time>2018-06-29T09:25:17Z</time>
      </trkpt>
      <trkpt lat="45.99538" lon="4.88548">
        <ele>285</ele>
        <time>2018-06-29T09:25:18Z</time>
      </trkpt>
      <trkpt lat="45.99536" lon="4.88539">
        <ele>285</ele>
        <time>2018-06-29T09:25:19Z</time>
      </trkpt>
      <trkpt lat="45.99532" lon="4.88532">
        <ele>285</ele>
        <time>2018-06-29T09:25:20Z</time>
      </trkpt>
      <trkpt lat="45.99526" lon="4.88523">
        <ele>285</ele>
        <time>2018-06-29T09:25:21Z</time>
      </trkpt>
      <trkpt lat="45.99523" lon="4.88515">
        <ele>285</ele>
        <time>2018-06-29T09:25:22Z</time>
      </trkpt>
      <trkpt lat="45.99519" lon="4.88507">
        <ele>285</ele>
        <time>2018-06-29T09:25:23Z</time>
      </trkpt>
      <trkpt lat="45.99514" lon="4.88499">
        <ele>284</ele>
        <time>2018-06-29T09:25:24Z</time>
      </trkpt>
      <trkpt lat="45.9951" lon="4.88492">
        <ele>284</ele>
        <time>2018-06-29T09:25:25Z</time>
      </trkpt>
      <trkpt lat="45.99507" lon="4.88485">
        <ele>284</ele>
        <time>2018-06-29T09:25:26Z</time>
      </trkpt>
      <trkpt lat="45.99503" lon="4.88479">
        <ele>284</ele>
        <time>2018-06-29T09:25:27Z</time>
      </trkpt>
      <trkpt lat="45.99501" lon="4.88472">
        <ele>284</ele>
        <time>2018-06-29T09:25:28Z</time>
      </trkpt>
      <trkpt lat="45.99498" lon="4.88466">
        <ele>284</ele>
        <time>2018-06-29T09:25:29Z</time>
      </trkpt>
      <trkpt lat="45.99495" lon="4.88459">
        <ele>284</ele>
        <time>2018-06-29T09:25:30Z</time>
      </trkpt>
      <trkpt lat="45.99491" lon="4.88452">
        <ele>284</ele>
        <time>2018-06-29T09:25:31Z</time>
      </trkpt>
      <trkpt lat="45.99487" lon="4.88446">
        <ele>284</ele>
        <time>2018-06-29T09:25:32Z</time>
      </trkpt>
      <trkpt lat="45.99482" lon="4.8844">
        <ele>284</ele>
        <time>2018-06-29T09:25:33Z</time>
      </trkpt>
      <trkpt lat="45.99477" lon="4.88434">
        <ele>284</ele>
        <time>2018-06-29T09:25:34Z</time>
      </trkpt>
      <trkpt lat="45.99471" lon="4.88428">
        <ele>284</ele>
        <time>2018-06-29T09:25:35Z</time>
      </trkpt>
      <trkpt lat="45.99465" lon="4.88422">
        <ele>284</ele>
        <time>2018-06-29T09:25:36Z</time>
      </trkpt>
      <trkpt lat="45.99458" lon="4.88417">
        <ele>284</ele>
        <time>2018-06-29T09:25:37Z</time>
      </trkpt>
      <trkpt lat="45.99453" lon="4.88411">
        <ele>283</ele>
        <time>2018-06-29T09:25:38Z</time>
      </trkpt>
      <trkpt lat="45.99447" lon="4.88406">
        <ele>283</ele>
        <time>2018-06-29T09:25:39Z</time>
      </trkpt>
      <trkpt lat="45.99442" lon="4.884">
        <ele>283</ele>
        <time>2018-06-29T09:25:40Z</time>
      </trkpt>
      <trkpt lat="45.99438" lon="4.88393">
        <ele>283</ele>
        <time>2018-06-29T09:25:41Z</time>
      </trkpt>
      <trkpt lat="45.99435" lon="4.88385">
        <ele>283</ele>
        <time>2018-06-29T09:25:42Z</time>
      </trkpt>
      <trkpt lat="45.99433" lon="4.88378">
        <ele>283</ele>
        <time>2018-06-29T09:25:43Z</time>
      </trkpt>
      <trkpt lat="45.9943" lon="4.88371">
        <ele>283</ele>
        <time>2018-06-29T09:25:44Z</time>
      </trkpt>
      <trkpt lat="45.99427" lon="4.88362">
        <ele>283</ele>
        <time>2018-06-29T09:25:45Z</time>
      </trkpt>
      <trkpt lat="45.99424" lon="4.88354">
        <ele>283</ele>
        <time>2018-06-29T09:25:46Z</time>
      </trkpt>
      <trkpt lat="45.99421" lon="4.88345">
        <ele>282</ele>
        <time>2018-06-29T09:25:47Z</time>
      </trkpt>
      <trkpt lat="45.99417" lon="4.88337">
        <ele>282</ele>
        <time>2018-06-29T09:25:48Z</time>
      </trkpt>
      <trkpt lat="45.99413" lon="4.88329">
        <ele>282</ele>
        <time>2018-06-29T09:25:49Z</time>
      </trkpt>
      <trkpt lat="45.9941" lon="4.8832">
        <ele>283</ele>
        <time>2018-06-29T09:25:50Z</time>
      </trkpt>
      <trkpt lat="45.99407" lon="4.88311">
        <ele>283</ele>
        <time>2018-06-29T09:25:51Z</time>
      </trkpt>
      <trkpt lat="45.99404" lon="4.88303">
        <ele>284</ele>
        <time>2018-06-29T09:25:52Z</time>
      </trkpt>
      <trkpt lat="45.994" lon="4.88294">
        <ele>284</ele>
        <time>2018-06-29T09:25:53Z</time>
      </trkpt>
      <trkpt lat="45.99396" lon="4.88285">
        <ele>284</ele>
        <time>2018-06-29T09:25:54Z</time>
      </trkpt>
      <trkpt lat="45.99392" lon="4.88277">
        <ele>284</ele>
        <time>2018-06-29T09:25:55Z</time>
      </trkpt>
      <trkpt lat="45.99389" lon="4.88269">
        <ele>285</ele>
        <time>2018-06-29T09:25:56Z</time>
      </trkpt>
      <trkpt lat="45.99385" lon="4.8826">
        <ele>285</ele>
        <time>2018-06-29T09:25:57Z</time>
      </trkpt>
      <trkpt lat="45.99382" lon="4.88253">
        <ele>285</ele>
        <time>2018-06-29T09:25:58Z</time>
      </trkpt>
      <trkpt lat="45.99378" lon="4.88246">
        <ele>287</ele>
        <time>2018-06-29T09:25:59Z</time>
      </trkpt>
      <trkpt lat="45.99372" lon="4.88239">
        <ele>287</ele>
        <time>2018-06-29T09:26:00Z</time>
      </trkpt>
      <trkpt lat="45.99367" lon="4.88234">
        <ele>287</ele>
        <time>2018-06-29T09:26:01Z</time>
      </trkpt>
      <trkpt lat="45.99361" lon="4.8823">
        <ele>287</ele>
        <time>2018-06-29T09:26:02Z</time>
      </trkpt>
      <trkpt lat="45.99355" lon="4.88224">
        <ele>287</ele>
        <time>2018-06-29T09:26:03Z</time>
      </trkpt>
      <trkpt lat="45.99349" lon="4.88218">
        <ele>287</ele>
        <time>2018-06-29T09:26:04Z</time>
      </trkpt>
      <trkpt lat="45.99342" lon="4.88212">
        <ele>287</ele>
        <time>2018-06-29T09:26:05Z</time>
      </trkpt>
      <trkpt lat="45.99336" lon="4.88208">
        <ele>287</ele>
        <time>2018-06-29T09:26:06Z</time>
      </trkpt>
      <trkpt lat="45.99331" lon="4.88202">
        <ele>285</ele>
        <time>2018-06-29T09:26:07Z</time>
      </trkpt>
      <trkpt lat="45.99325" lon="4.88196">
        <ele>285</ele>
        <time>2018-06-29T09:26:08Z</time>
      </trkpt>
      <trkpt lat="45.99319" lon="4.88191">
        <ele>285</ele>
        <time>2018-06-29T09:26:09Z</time>
      </trkpt>
      <trkpt lat="45.99312" lon="4.88184">
        <ele>285</ele>
        <time>2018-06-29T09:26:10Z</time>
      </trkpt>
      <trkpt lat="45.99307" lon="4.88177">
        <ele>285</ele>
        <time>2018-06-29T09:26:11Z</time>
      </trkpt>
      <trkpt lat="45.99299" lon="4.88171">
        <ele>285</ele>
        <time>2018-06-29T09:26:12Z</time>
      </trkpt>
      <trkpt lat="45.99293" lon="4.88166">
        <ele>284</ele>
        <time>2018-06-29T09:26:13Z</time>
      </trkpt>
      <trkpt lat="45.99287" lon="4.8816">
        <ele>284</ele>
        <time>2018-06-29T09:26:14Z</time>
      </trkpt>
      <trkpt lat="45.9928" lon="4.88154">
        <ele>284</ele>
        <time>2018-06-29T09:26:15Z</time>
      </trkpt>
      <trkpt lat="45.99274" lon="4.88148">
        <ele>283</ele>
        <time>2018-06-29T09:26:16Z</time>
      </trkpt>
      <trkpt lat="45.99269" lon="4.88142">
        <ele>283</ele>
        <time>2018-06-29T09:26:17Z</time>
      </trkpt>
      <trkpt lat="45.9926" lon="4.88137">
        <ele>283</ele>
        <time>2018-06-29T09:26:18Z</time>
      </trkpt>
      <trkpt lat="45.99252" lon="4.88131">
        <ele>283</ele>
        <time>2018-06-29T09:26:19Z</time>
      </trkpt>
      <trkpt lat="45.99247" lon="4.88125">
        <ele>280</ele>
        <time>2018-06-29T09:26:20Z</time>
      </trkpt>
      <trkpt lat="45.99241" lon="4.88121">
        <ele>280</ele>
        <time>2018-06-29T09:26:21Z</time>
      </trkpt>
      <trkpt lat="45.99234" lon="4.88115">
        <ele>280</ele>
        <time>2018-06-29T09:26:22Z</time>
      </trkpt>
      <trkpt lat="45.99229" lon="4.88108">
        <ele>280</ele>
        <time>2018-06-29T09:26:23Z</time>
      </trkpt>
      <trkpt lat="45.99222" lon="4.88102">
        <ele>280</ele>
        <time>2018-06-29T09:26:24Z</time>
      </trkpt>
      <trkpt lat="45.99215" lon="4.88097">
        <ele>280</ele>
        <time>2018-06-29T09:26:25Z</time>
      </trkpt>
      <trkpt lat="45.99209" lon="4.88091">
        <ele>280</ele>
        <time>2018-06-29T09:26:26Z</time>
      </trkpt>
      <trkpt lat="45.99202" lon="4.88086">
        <ele>280</ele>
        <time>2018-06-29T09:26:27Z</time>
      </trkpt>
      <trkpt lat="45.99195" lon="4.8808">
        <ele>280</ele>
        <time>2018-06-29T09:26:28Z</time>
      </trkpt>
      <trkpt lat="45.99188" lon="4.88075">
        <ele>280</ele>
        <time>2018-06-29T09:26:29Z</time>
      </trkpt>
      <trkpt lat="45.99181" lon="4.88069">
        <ele>279</ele>
        <time>2018-06-29T09:26:30Z</time>
      </trkpt>
      <trkpt lat="45.99174" lon="4.88064">
        <ele>279</ele>
        <time>2018-06-29T09:26:31Z</time>
      </trkpt>
      <trkpt lat="45.99168" lon="4.88059">
        <ele>279</ele>
        <time>2018-06-29T09:26:32Z</time>
      </trkpt>
      <trkpt lat="45.99162" lon="4.88054">
        <ele>279</ele>
        <time>2018-06-29T09:26:33Z</time>
      </trkpt>
      <trkpt lat="45.99155" lon="4.88048">
        <ele>279</ele>
        <time>2018-06-29T09:26:34Z</time>
      </trkpt>
      <trkpt lat="45.99149" lon="4.88044">
        <ele>279</ele>
        <time>2018-06-29T09:26:35Z</time>
      </trkpt>
      <trkpt lat="45.99141" lon="4.88041">
        <ele>279</ele>
        <time>2018-06-29T09:26:36Z</time>
      </trkpt>
      <trkpt lat="45.99134" lon="4.88035">
        <ele>279</ele>
        <time>2018-06-29T09:26:37Z</time>
      </trkpt>
      <trkpt lat="45.99128" lon="4.8803">
        <ele>279</ele>
        <time>2018-06-29T09:26:38Z</time>
      </trkpt>
      <trkpt lat="45.99121" lon="4.88026">
        <ele>278</ele>
        <time>2018-06-29T09:26:39Z</time>
      </trkpt>
      <trkpt lat="45.99115" lon="4.88022">
        <ele>278</ele>
        <time>2018-06-29T09:26:40Z</time>
      </trkpt>
      <trkpt lat="45.99108" lon="4.88018">
        <ele>278</ele>
        <time>2018-06-29T09:26:41Z</time>
      </trkpt>
      <trkpt lat="45.99101" lon="4.88013">
        <ele>278</ele>
        <time>2018-06-29T09:26:42Z</time>
      </trkpt>
      <trkpt lat="45.99094" lon="4.8801">
        <ele>278</ele>
        <time>2018-06-29T09:26:43Z</time>
      </trkpt>
      <trkpt lat="45.99087" lon="4.88006">
        <ele>278</ele>
        <time>2018-06-29T09:26:44Z</time>
      </trkpt>
      <trkpt lat="45.99081" lon="4.88003">
        <ele>278</ele>
        <time>2018-06-29T09:26:45Z</time>
      </trkpt>
      <trkpt lat="45.99073" lon="4.87998">
        <ele>277</ele>
        <time>2018-06-29T09:26:46Z</time>
      </trkpt>
      <trkpt lat="45.99065" lon="4.87995">
        <ele>277</ele>
        <time>2018-06-29T09:26:47Z</time>
      </trkpt>
      <trkpt lat="45.99057" lon="4.87991">
        <ele>277</ele>
        <time>2018-06-29T09:26:48Z</time>
      </trkpt>
      <trkpt lat="45.99049" lon="4.87987">
        <ele>277</ele>
        <time>2018-06-29T09:26:49Z</time>
      </trkpt>
      <trkpt lat="45.99043" lon="4.87983">
        <ele>277</ele>
        <time>2018-06-29T09:26:50Z</time>
      </trkpt>
      <trkpt lat="45.99037" lon="4.87979">
        <ele>276</ele>
        <time>2018-06-29T09:26:51Z</time>
      </trkpt>
      <trkpt lat="45.9903" lon="4.87975">
        <ele>276</ele>
        <time>2018-06-29T09:26:52Z</time>
      </trkpt>
      <trkpt lat="45.99024" lon="4.87971">
        <ele>276</ele>
        <time>2018-06-29T09:26:53Z</time>
      </trkpt>
      <trkpt lat="45.99017" lon="4.87967">
        <ele>276</ele>
        <time>2018-06-29T09:26:54Z</time>
      </trkpt>
      <trkpt lat="45.9901" lon="4.87963">
        <ele>276</ele>
        <time>2018-06-29T09:26:55Z</time>
      </trkpt>
      <trkpt lat="45.99003" lon="4.8796">
        <ele>276</ele>
        <time>2018-06-29T09:26:56Z</time>
      </trkpt>
      <trkpt lat="45.98995" lon="4.87957">
        <ele>274</ele>
        <time>2018-06-29T09:26:57Z</time>
      </trkpt>
      <trkpt lat="45.98987" lon="4.87951">
        <ele>274</ele>
        <time>2018-06-29T09:26:58Z</time>
      </trkpt>
      <trkpt lat="45.98978" lon="4.87947">
        <ele>274</ele>
        <time>2018-06-29T09:26:59Z</time>
      </trkpt>
      <trkpt lat="45.9897" lon="4.87943">
        <ele>274</ele>
        <time>2018-06-29T09:27:00Z</time>
      </trkpt>
      <trkpt lat="45.98963" lon="4.87939">
        <ele>273</ele>
        <time>2018-06-29T09:27:01Z</time>
      </trkpt>
      <trkpt lat="45.98955" lon="4.87935">
        <ele>273</ele>
        <time>2018-06-29T09:27:02Z</time>
      </trkpt>
      <trkpt lat="45.98948" lon="4.87932">
        <ele>273</ele>
        <time>2018-06-29T09:27:03Z</time>
      </trkpt>
      <trkpt lat="45.9894" lon="4.87928">
        <ele>273</ele>
        <time>2018-06-29T09:27:04Z</time>
      </trkpt>
      <trkpt lat="45.98932" lon="4.87922">
        <ele>272</ele>
        <time>2018-06-29T09:27:05Z</time>
      </trkpt>
      <trkpt lat="45.98926" lon="4.87915">
        <ele>272</ele>
        <time>2018-06-29T09:27:06Z</time>
      </trkpt>
      <trkpt lat="45.98919" lon="4.87908">
        <ele>272</ele>
        <time>2018-06-29T09:27:07Z</time>
      </trkpt>
      <trkpt lat="45.98911" lon="4.87901">
        <ele>272</ele>
        <time>2018-06-29T09:27:08Z</time>
      </trkpt>
      <trkpt lat="45.98904" lon="4.87893">
        <ele>272</ele>
        <time>2018-06-29T09:27:09Z</time>
      </trkpt>
      <trkpt lat="45.98897" lon="4.87885">
        <ele>272</ele>
        <time>2018-06-29T09:27:10Z</time>
      </trkpt>
      <trkpt lat="45.98891" lon="4.87877">
        <ele>272</ele>
        <time>2018-06-29T09:27:11Z</time>
      </trkpt>
      <trkpt lat="45.98885" lon="4.87868">
        <ele>272</ele>
        <time>2018-06-29T09:27:12Z</time>
      </trkpt>
      <trkpt lat="45.9888" lon="4.87857">
        <ele>272</ele>
        <time>2018-06-29T09:27:13Z</time>
      </trkpt>
      <trkpt lat="45.98874" lon="4.87846">
        <ele>273</ele>
        <time>2018-06-29T09:27:14Z</time>
      </trkpt>
      <trkpt lat="45.98869" lon="4.87836">
        <ele>273</ele>
        <time>2018-06-29T09:27:15Z</time>
      </trkpt>
      <trkpt lat="45.98865" lon="4.87826">
        <ele>273</ele>
        <time>2018-06-29T09:27:16Z</time>
      </trkpt>
      <trkpt lat="45.98861" lon="4.87817">
        <ele>273</ele>
        <time>2018-06-29T09:27:17Z</time>
      </trkpt>
      <trkpt lat="45.98857" lon="4.87807">
        <ele>273</ele>
        <time>2018-06-29T09:27:18Z</time>
      </trkpt>
      <trkpt lat="45.98852" lon="4.87797">
        <ele>273</ele>
        <time>2018-06-29T09:27:19Z</time>
      </trkpt>
      <trkpt lat="45.98849" lon="4.87787">
        <ele>273</ele>
        <time>2018-06-29T09:27:20Z</time>
      </trkpt>
      <trkpt lat="45.98846" lon="4.87778">
        <ele>273</ele>
        <time>2018-06-29T09:27:21Z</time>
      </trkpt>
      <trkpt lat="45.98844" lon="4.87768">
        <ele>273</ele>
        <time>2018-06-29T09:27:22Z</time>
      </trkpt>
      <trkpt lat="45.98842" lon="4.87759">
        <ele>273</ele>
        <time>2018-06-29T09:27:23Z</time>
      </trkpt>
      <trkpt lat="45.9884" lon="4.87751">
        <ele>273</ele>
        <time>2018-06-29T09:27:24Z</time>
      </trkpt>
      <trkpt lat="45.98838" lon="4.87741">
        <ele>273</ele>
        <time>2018-06-29T09:27:25Z</time>
      </trkpt>
      <trkpt lat="45.98836" lon="4.87731">
        <ele>273</ele>
        <time>2018-06-29T09:27:26Z</time>
      </trkpt>
      <trkpt lat="45.98835" lon="4.87722">
        <ele>273</ele>
        <time>2018-06-29T09:27:27Z</time>
      </trkpt>
      <trkpt lat="45.98833" lon="4.87712">
        <ele>273</ele>
        <time>2018-06-29T09:27:28Z</time>
      </trkpt>
      <trkpt lat="45.98832" lon="4.87704">
        <ele>273</ele>
        <time>2018-06-29T09:27:29Z</time>
      </trkpt>
      <trkpt lat="45.9883" lon="4.87695">
        <ele>273</ele>
        <time>2018-06-29T09:27:30Z</time>
      </trkpt>
      <trkpt lat="45.98828" lon="4.87686">
        <ele>273</ele>
        <time>2018-06-29T09:27:31Z</time>
      </trkpt>
      <trkpt lat="45.98827" lon="4.87677">
        <ele>273</ele>
        <time>2018-06-29T09:27:32Z</time>
      </trkpt>
      <trkpt lat="45.98825" lon="4.87669">
        <ele>273</ele>
        <time>2018-06-29T09:27:33Z</time>
      </trkpt>
      <trkpt lat="45.98824" lon="4.87661">
        <ele>272</ele>
        <time>2018-06-29T09:27:34Z</time>
      </trkpt>
      <trkpt lat="45.98822" lon="4.87653">
        <ele>272</ele>
        <time>2018-06-29T09:27:35Z</time>
      </trkpt>
      <trkpt lat="45.98821" lon="4.87646">
        <ele>272</ele>
        <time>2018-06-29T09:27:36Z</time>
      </trkpt>
      <trkpt lat="45.9882" lon="4.87638">
        <ele>272</ele>
        <time>2018-06-29T09:27:37Z</time>
      </trkpt>
      <trkpt lat="45.98817" lon="4.87631">
        <ele>272</ele>
        <time>2018-06-29T09:27:38Z</time>
      </trkpt>
      <trkpt lat="45.98814" lon="4.87626">
        <ele>271</ele>
        <time>2018-06-29T09:27:39Z</time>
      </trkpt>
      <trkpt lat="45.98811" lon="4.87619">
        <ele>271</ele>
        <time>2018-06-29T09:27:40Z</time>
      </trkpt>
      <trkpt lat="45.98808" lon="4.87612">
        <ele>271</ele>
        <time>2018-06-29T09:27:41Z</time>
      </trkpt>
      <trkpt lat="45.98805" lon="4.87604">
        <ele>271</ele>
        <time>2018-06-29T09:27:42Z</time>
      </trkpt>
      <trkpt lat="45.988" lon="4.87598">
        <ele>271</ele>
        <time>2018-06-29T09:27:43Z</time>
      </trkpt>
      <trkpt lat="45.98795" lon="4.87592">
        <ele>271</ele>
        <time>2018-06-29T09:27:44Z</time>
      </trkpt>
      <trkpt lat="45.98791" lon="4.87586">
        <ele>271</ele>
        <time>2018-06-29T09:27:45Z</time>
      </trkpt>
      <trkpt lat="45.98786" lon="4.8758">
        <ele>269</ele>
        <time>2018-06-29T09:27:46Z</time>
      </trkpt>
      <trkpt lat="45.98781" lon="4.87574">
        <ele>269</ele>
        <time>2018-06-29T09:27:47Z</time>
      </trkpt>
      <trkpt lat="45.98777" lon="4.87571">
        <ele>269</ele>
        <time>2018-06-29T09:27:48Z</time>
      </trkpt>
      <trkpt lat="45.9877" lon="4.87567">
        <ele>269</ele>
        <time>2018-06-29T09:27:49Z</time>
      </trkpt>
      <trkpt lat="45.98765" lon="4.87562">
        <ele>269</ele>
        <time>2018-06-29T09:27:50Z</time>
      </trkpt>
      <trkpt lat="45.98759" lon="4.87557">
        <ele>269</ele>
        <time>2018-06-29T09:27:51Z</time>
      </trkpt>
      <trkpt lat="45.98753" lon="4.87554">
        <ele>269</ele>
        <time>2018-06-29T09:27:52Z</time>
      </trkpt>
      <trkpt lat="45.98748" lon="4.87553">
        <ele>267</ele>
        <time>2018-06-29T09:27:53Z</time>
      </trkpt>
      <trkpt lat="45.98742" lon="4.87551">
        <ele>267</ele>
        <time>2018-06-29T09:27:54Z</time>
      </trkpt>
      <trkpt lat="45.98736" lon="4.87548">
        <ele>267</ele>
        <time>2018-06-29T09:27:55Z</time>
      </trkpt>
      <trkpt lat="45.98729" lon="4.87548">
        <ele>267</ele>
        <time>2018-06-29T09:27:56Z</time>
      </trkpt>
      <trkpt lat="45.9872" lon="4.87549">
        <ele>267</ele>
        <time>2018-06-29T09:27:57Z</time>
      </trkpt>
      <trkpt lat="45.98715" lon="4.87548">
        <ele>267</ele>
        <time>2018-06-29T09:27:58Z</time>
      </trkpt>
      <trkpt lat="45.98709" lon="4.87549">
        <ele>267</ele>
        <time>2018-06-29T09:27:59Z</time>
      </trkpt>
      <trkpt lat="45.98704" lon="4.87551">
        <ele>267</ele>
        <time>2018-06-29T09:28:00Z</time>
      </trkpt>
      <trkpt lat="45.98699" lon="4.87554">
        <ele>267</ele>
        <time>2018-06-29T09:28:01Z</time>
      </trkpt>
      <trkpt lat="45.98694" lon="4.87559">
        <ele>267</ele>
        <time>2018-06-29T09:28:02Z</time>
      </trkpt>
      <trkpt lat="45.98686" lon="4.8756">
        <ele>267</ele>
        <time>2018-06-29T09:28:04Z</time>
      </trkpt>
      <trkpt lat="45.98681" lon="4.87562">
        <ele>267</ele>
        <time>2018-06-29T09:28:05Z</time>
      </trkpt>
      <trkpt lat="45.98677" lon="4.87562">
        <ele>267</ele>
        <time>2018-06-29T09:28:06Z</time>
      </trkpt>
      <trkpt lat="45.98672" lon="4.87563">
        <ele>267</ele>
        <time>2018-06-29T09:28:07Z</time>
      </trkpt>
      <trkpt lat="45.98668" lon="4.87563">
        <ele>267</ele>
        <time>2018-06-29T09:28:08Z</time>
      </trkpt>
      <trkpt lat="45.98659" lon="4.87564">
        <ele>267</ele>
        <time>2018-06-29T09:28:09Z</time>
      </trkpt>
      <trkpt lat="45.98654" lon="4.87565">
        <ele>267</ele>
        <time>2018-06-29T09:28:10Z</time>
      </trkpt>
      <trkpt lat="45.9865" lon="4.87561">
        <ele>267</ele>
        <time>2018-06-29T09:28:11Z</time>
      </trkpt>
      <trkpt lat="45.98647" lon="4.87553">
        <ele>267</ele>
        <time>2018-06-29T09:28:12Z</time>
      </trkpt>
      <trkpt lat="45.98643" lon="4.87547">
        <ele>267</ele>
        <time>2018-06-29T09:28:13Z</time>
      </trkpt>
      <trkpt lat="45.98642" lon="4.87535">
        <ele>267</ele>
        <time>2018-06-29T09:28:15Z</time>
      </trkpt>
      <trkpt lat="45.98645" lon="4.87529">
        <ele>267</ele>
        <time>2018-06-29T09:28:16Z</time>
      </trkpt>
      <trkpt lat="45.98645" lon="4.87524">
        <ele>267</ele>
        <time>2018-06-29T09:28:17Z</time>
      </trkpt>
      <trkpt lat="45.98636" lon="4.87516">
        <ele>267</ele>
        <time>2018-06-29T09:28:18Z</time>
      </trkpt>
      <trkpt lat="45.98634" lon="4.87509">
        <ele>267</ele>
        <time>2018-06-29T09:28:19Z</time>
      </trkpt>
      <trkpt lat="45.98634" lon="4.87504">
        <ele>267</ele>
        <time>2018-06-29T09:28:20Z</time>
      </trkpt>
      <trkpt lat="45.98633" lon="4.87498">
        <ele>267</ele>
        <time>2018-06-29T09:28:21Z</time>
      </trkpt>
      <trkpt lat="45.98631" lon="4.87491">
        <ele>268</ele>
        <time>2018-06-29T09:28:22Z</time>
      </trkpt>
      <trkpt lat="45.98629" lon="4.87483">
        <ele>268</ele>
        <time>2018-06-29T09:28:23Z</time>
      </trkpt>
      <trkpt lat="45.98628" lon="4.87477">
        <ele>268</ele>
        <time>2018-06-29T09:28:24Z</time>
      </trkpt>
      <trkpt lat="45.98623" lon="4.87468">
        <ele>268</ele>
        <time>2018-06-29T09:28:25Z</time>
      </trkpt>
      <trkpt lat="45.98623" lon="4.87462">
        <ele>268</ele>
        <time>2018-06-29T09:28:26Z</time>
      </trkpt>
      <trkpt lat="45.98623" lon="4.87454">
        <ele>268</ele>
        <time>2018-06-29T09:28:27Z</time>
      </trkpt>
      <trkpt lat="45.98621" lon="4.87448">
        <ele>269</ele>
        <time>2018-06-29T09:28:28Z</time>
      </trkpt>
      <trkpt lat="45.9862" lon="4.87441">
        <ele>269</ele>
        <time>2018-06-29T09:28:29Z</time>
      </trkpt>
      <trkpt lat="45.98622" lon="4.87433">
        <ele>269</ele>
        <time>2018-06-29T09:28:30Z</time>
      </trkpt>
      <trkpt lat="45.98621" lon="4.87426">
        <ele>269</ele>
        <time>2018-06-29T09:28:31Z</time>
      </trkpt>
      <trkpt lat="45.9862" lon="4.8742">
        <ele>269</ele>
        <time>2018-06-29T09:28:32Z</time>
      </trkpt>
      <trkpt lat="45.98618" lon="4.87413">
        <ele>271</ele>
        <time>2018-06-29T09:28:33Z</time>
      </trkpt>
      <trkpt lat="45.98616" lon="4.87407">
        <ele>271</ele>
        <time>2018-06-29T09:28:34Z</time>
      </trkpt>
      <trkpt lat="45.98615" lon="4.874">
        <ele>271</ele>
        <time>2018-06-29T09:28:35Z</time>
      </trkpt>
      <trkpt lat="45.98615" lon="4.87394">
        <ele>271</ele>
        <time>2018-06-29T09:28:36Z</time>
      </trkpt>
      <trkpt lat="45.98613" lon="4.87381">
        <ele>271</ele>
        <time>2018-06-29T09:28:38Z</time>
      </trkpt>
      <trkpt lat="45.98613" lon="4.87375">
        <ele>271</ele>
        <time>2018-06-29T09:28:39Z</time>
      </trkpt>
      <trkpt lat="45.9861" lon="4.87364">
        <ele>272</ele>
        <time>2018-06-29T09:28:41Z</time>
      </trkpt>
      <trkpt lat="45.98608" lon="4.87358">
        <ele>272</ele>
        <time>2018-06-29T09:28:42Z</time>
      </trkpt>
      <trkpt lat="45.98607" lon="4.87347">
        <ele>272</ele>
        <time>2018-06-29T09:28:44Z</time>
      </trkpt>
      <trkpt lat="45.98606" lon="4.87342">
        <ele>272</ele>
        <time>2018-06-29T09:28:45Z</time>
      </trkpt>
      <trkpt lat="45.98605" lon="4.87329">
        <ele>274</ele>
        <time>2018-06-29T09:28:47Z</time>
      </trkpt>
      <trkpt lat="45.98604" lon="4.87323">
        <ele>274</ele>
        <time>2018-06-29T09:28:48Z</time>
      </trkpt>
      <trkpt lat="45.98603" lon="4.87312">
        <ele>274</ele>
        <time>2018-06-29T09:28:50Z</time>
      </trkpt>
      <trkpt lat="45.98602" lon="4.87306">
        <ele>274</ele>
        <time>2018-06-29T09:28:51Z</time>
      </trkpt>
      <trkpt lat="45.98602" lon="4.87298">
        <ele>275</ele>
        <time>2018-06-29T09:28:53Z</time>
      </trkpt>
      <trkpt lat="45.98601" lon="4.87289">
        <ele>275</ele>
        <time>2018-06-29T09:28:54Z</time>
      </trkpt>
      <trkpt lat="45.98599" lon="4.87279">
        <ele>275</ele>
        <time>2018-06-29T09:28:56Z</time>
      </trkpt>
      <trkpt lat="45.98599" lon="4.87272">
        <ele>275</ele>
        <time>2018-06-29T09:28:57Z</time>
      </trkpt>
      <trkpt lat="45.98602" lon="4.87267">
        <ele>275</ele>
        <time>2018-06-29T09:28:58Z</time>
      </trkpt>
      <trkpt lat="45.98604" lon="4.87261">
        <ele>275</ele>
        <time>2018-06-29T09:28:59Z</time>
      </trkpt>
      <trkpt lat="45.9861" lon="4.87252">
        <ele>275</ele>
        <time>2018-06-29T09:29:02Z</time>
      </trkpt>
      <trkpt lat="45.98611" lon="4.87244">
        <ele>277</ele>
        <time>2018-06-29T09:29:03Z</time>
      </trkpt>
      <trkpt lat="45.98613" lon="4.87234">
        <ele>277</ele>
        <time>2018-06-29T09:29:05Z</time>
      </trkpt>
      <trkpt lat="45.98614" lon="4.87231">
        <ele>277</ele>
        <time>2018-06-29T09:29:06Z</time>
      </trkpt>
      <trkpt lat="45.98614" lon="4.87221">
        <ele>277</ele>
        <time>2018-06-29T09:29:08Z</time>
      </trkpt>
      <trkpt lat="45.98612" lon="4.87211">
        <ele>277</ele>
        <time>2018-06-29T09:29:09Z</time>
      </trkpt>
      <trkpt lat="45.9861" lon="4.87199">
        <ele>277</ele>
        <time>2018-06-29T09:29:12Z</time>
      </trkpt>
      <trkpt lat="45.9861" lon="4.87189">
        <ele>277</ele>
        <time>2018-06-29T09:29:13Z</time>
      </trkpt>
      <trkpt lat="45.98611" lon="4.87182">
        <ele>278</ele>
        <time>2018-06-29T09:29:14Z</time>
      </trkpt>
      <trkpt lat="45.98618" lon="4.87172">
        <ele>278</ele>
        <time>2018-06-29T09:29:15Z</time>
      </trkpt>
      <trkpt lat="45.98617" lon="4.87166">
        <ele>278</ele>
        <time>2018-06-29T09:29:16Z</time>
      </trkpt>
      <trkpt lat="45.9862" lon="4.87156">
        <ele>279</ele>
        <time>2018-06-29T09:29:17Z</time>
      </trkpt>
      <trkpt lat="45.98621" lon="4.87149">
        <ele>279</ele>
        <time>2018-06-29T09:29:18Z</time>
      </trkpt>
      <trkpt lat="45.9862" lon="4.8714">
        <ele>279</ele>
        <time>2018-06-29T09:29:19Z</time>
      </trkpt>
      <trkpt lat="45.98619" lon="4.87133">
        <ele>279</ele>
        <time>2018-06-29T09:29:20Z</time>
      </trkpt>
      <trkpt lat="45.98619" lon="4.87125">
        <ele>279</ele>
        <time>2018-06-29T09:29:21Z</time>
      </trkpt>
      <trkpt lat="45.98621" lon="4.87117">
        <ele>279</ele>
        <time>2018-06-29T09:29:22Z</time>
      </trkpt>
      <trkpt lat="45.98618" lon="4.87108">
        <ele>279</ele>
        <time>2018-06-29T09:29:23Z</time>
      </trkpt>
      <trkpt lat="45.98616" lon="4.87102">
        <ele>279</ele>
        <time>2018-06-29T09:29:24Z</time>
      </trkpt>
      <trkpt lat="45.98613" lon="4.87093">
        <ele>279</ele>
        <time>2018-06-29T09:29:25Z</time>
      </trkpt>
      <trkpt lat="45.98611" lon="4.87086">
        <ele>279</ele>
        <time>2018-06-29T09:29:26Z</time>
      </trkpt>
      <trkpt lat="45.98611" lon="4.87079">
        <ele>279</ele>
        <time>2018-06-29T09:29:27Z</time>
      </trkpt>
      <trkpt lat="45.98609" lon="4.87072">
        <ele>279</ele>
        <time>2018-06-29T09:29:28Z</time>
      </trkpt>
      <trkpt lat="45.98606" lon="4.87065">
        <ele>279</ele>
        <time>2018-06-29T09:29:29Z</time>
      </trkpt>
      <trkpt lat="45.98604" lon="4.87057">
        <ele>279</ele>
        <time>2018-06-29T09:29:30Z</time>
      </trkpt>
      <trkpt lat="45.98604" lon="4.8705">
        <ele>279</ele>
        <time>2018-06-29T09:29:31Z</time>
      </trkpt>
      <trkpt lat="45.98602" lon="4.87043">
        <ele>279</ele>
        <time>2018-06-29T09:29:32Z</time>
      </trkpt>
      <trkpt lat="45.98599" lon="4.87036">
        <ele>279</ele>
        <time>2018-06-29T09:29:33Z</time>
      </trkpt>
      <trkpt lat="45.98599" lon="4.87028">
        <ele>279</ele>
        <time>2018-06-29T09:29:34Z</time>
      </trkpt>
      <trkpt lat="45.98597" lon="4.87022">
        <ele>279</ele>
        <time>2018-06-29T09:29:35Z</time>
      </trkpt>
      <trkpt lat="45.98596" lon="4.87016">
        <ele>279</ele>
        <time>2018-06-29T09:29:36Z</time>
      </trkpt>
      <trkpt lat="45.98594" lon="4.87009">
        <ele>279</ele>
        <time>2018-06-29T09:29:37Z</time>
      </trkpt>
      <trkpt lat="45.98593" lon="4.87003">
        <ele>279</ele>
        <time>2018-06-29T09:29:38Z</time>
      </trkpt>
      <trkpt lat="45.9859" lon="4.86994">
        <ele>279</ele>
        <time>2018-06-29T09:29:39Z</time>
      </trkpt>
      <trkpt lat="45.98588" lon="4.86987">
        <ele>279</ele>
        <time>2018-06-29T09:29:40Z</time>
      </trkpt>
      <trkpt lat="45.98586" lon="4.86982">
        <ele>279</ele>
        <time>2018-06-29T09:29:41Z</time>
      </trkpt>
      <trkpt lat="45.98585" lon="4.86975">
        <ele>279</ele>
        <time>2018-06-29T09:29:42Z</time>
      </trkpt>
      <trkpt lat="45.98585" lon="4.86967">
        <ele>279</ele>
        <time>2018-06-29T09:29:43Z</time>
      </trkpt>
      <trkpt lat="45.98587" lon="4.8696">
        <ele>279</ele>
        <time>2018-06-29T09:29:44Z</time>
      </trkpt>
      <trkpt lat="45.98588" lon="4.86953">
        <ele>279</ele>
        <time>2018-06-29T09:29:45Z</time>
      </trkpt>
      <trkpt lat="45.98588" lon="4.86945">
        <ele>279</ele>
        <time>2018-06-29T09:29:46Z</time>
      </trkpt>
      <trkpt lat="45.98589" lon="4.86937">
        <ele>279</ele>
        <time>2018-06-29T09:29:47Z</time>
      </trkpt>
      <trkpt lat="45.98589" lon="4.8693">
        <ele>279</ele>
        <time>2018-06-29T09:29:48Z</time>
      </trkpt>
      <trkpt lat="45.98588" lon="4.86922">
        <ele>279</ele>
        <time>2018-06-29T09:29:49Z</time>
      </trkpt>
      <trkpt lat="45.98586" lon="4.86913">
        <ele>279</ele>
        <time>2018-06-29T09:29:50Z</time>
      </trkpt>
      <trkpt lat="45.98586" lon="4.86906">
        <ele>278</ele>
        <time>2018-06-29T09:29:51Z</time>
      </trkpt>
      <trkpt lat="45.98586" lon="4.86899">
        <ele>278</ele>
        <time>2018-06-29T09:29:52Z</time>
      </trkpt>
      <trkpt lat="45.98585" lon="4.86891">
        <ele>278</ele>
        <time>2018-06-29T09:29:53Z</time>
      </trkpt>
      <trkpt lat="45.98585" lon="4.86882">
        <ele>278</ele>
        <time>2018-06-29T09:29:54Z</time>
      </trkpt>
      <trkpt lat="45.98585" lon="4.86875">
        <ele>277</ele>
        <time>2018-06-29T09:29:55Z</time>
      </trkpt>
      <trkpt lat="45.98585" lon="4.86869">
        <ele>277</ele>
        <time>2018-06-29T09:29:56Z</time>
      </trkpt>
      <trkpt lat="45.98586" lon="4.86862">
        <ele>277</ele>
        <time>2018-06-29T09:29:57Z</time>
      </trkpt>
      <trkpt lat="45.98585" lon="4.86849">
        <ele>277</ele>
        <time>2018-06-29T09:29:59Z</time>
      </trkpt>
      <trkpt lat="45.98585" lon="4.86842">
        <ele>277</ele>
        <time>2018-06-29T09:30:00Z</time>
      </trkpt>
      <trkpt lat="45.98585" lon="4.8683">
        <ele>277</ele>
        <time>2018-06-29T09:30:02Z</time>
      </trkpt>
      <trkpt lat="45.98584" lon="4.86822">
        <ele>277</ele>
        <time>2018-06-29T09:30:03Z</time>
      </trkpt>
      <trkpt lat="45.98584" lon="4.86811">
        <ele>276</ele>
        <time>2018-06-29T09:30:05Z</time>
      </trkpt>
      <trkpt lat="45.98583" lon="4.86804">
        <ele>277</ele>
        <time>2018-06-29T09:30:06Z</time>
      </trkpt>
      <trkpt lat="45.9858" lon="4.86797">
        <ele>277</ele>
        <time>2018-06-29T09:30:07Z</time>
      </trkpt>
      <trkpt lat="45.98578" lon="4.86789">
        <ele>277</ele>
        <time>2018-06-29T09:30:08Z</time>
      </trkpt>
      <trkpt lat="45.98576" lon="4.86778">
        <ele>277</ele>
        <time>2018-06-29T09:30:10Z</time>
      </trkpt>
      <trkpt lat="45.98575" lon="4.8677">
        <ele>277</ele>
        <time>2018-06-29T09:30:11Z</time>
      </trkpt>
      <trkpt lat="45.98574" lon="4.86763">
        <ele>277</ele>
        <time>2018-06-29T09:30:12Z</time>
      </trkpt>
      <trkpt lat="45.98573" lon="4.86757">
        <ele>277</ele>
        <time>2018-06-29T09:30:13Z</time>
      </trkpt>
      <trkpt lat="45.98572" lon="4.86749">
        <ele>277</ele>
        <time>2018-06-29T09:30:14Z</time>
      </trkpt>
      <trkpt lat="45.98571" lon="4.86742">
        <ele>277</ele>
        <time>2018-06-29T09:30:15Z</time>
      </trkpt>
      <trkpt lat="45.98571" lon="4.86734">
        <ele>277</ele>
        <time>2018-06-29T09:30:16Z</time>
      </trkpt>
      <trkpt lat="45.9857" lon="4.86727">
        <ele>277</ele>
        <time>2018-06-29T09:30:17Z</time>
      </trkpt>
      <trkpt lat="45.98569" lon="4.8672">
        <ele>277</ele>
        <time>2018-06-29T09:30:18Z</time>
      </trkpt>
      <trkpt lat="45.98568" lon="4.86712">
        <ele>277</ele>
        <time>2018-06-29T09:30:19Z</time>
      </trkpt>
      <trkpt lat="45.98569" lon="4.86705">
        <ele>277</ele>
        <time>2018-06-29T09:30:20Z</time>
      </trkpt>
      <trkpt lat="45.9857" lon="4.86698">
        <ele>277</ele>
        <time>2018-06-29T09:30:21Z</time>
      </trkpt>
      <trkpt lat="45.98571" lon="4.86691">
        <ele>277</ele>
        <time>2018-06-29T09:30:22Z</time>
      </trkpt>
      <trkpt lat="45.9857" lon="4.86684">
        <ele>276</ele>
        <time>2018-06-29T09:30:23Z</time>
      </trkpt>
      <trkpt lat="45.9857" lon="4.86677">
        <ele>276</ele>
        <time>2018-06-29T09:30:24Z</time>
      </trkpt>
      <trkpt lat="45.9857" lon="4.8667">
        <ele>276</ele>
        <time>2018-06-29T09:30:25Z</time>
      </trkpt>
      <trkpt lat="45.9857" lon="4.86662">
        <ele>276</ele>
        <time>2018-06-29T09:30:26Z</time>
      </trkpt>
      <trkpt lat="45.98573" lon="4.86654">
        <ele>276</ele>
        <time>2018-06-29T09:30:27Z</time>
      </trkpt>
      <trkpt lat="45.98572" lon="4.86647">
        <ele>277</ele>
        <time>2018-06-29T09:30:28Z</time>
      </trkpt>
      <trkpt lat="45.9857" lon="4.86638">
        <ele>277</ele>
        <time>2018-06-29T09:30:29Z</time>
      </trkpt>
      <trkpt lat="45.98569" lon="4.8663">
        <ele>277</ele>
        <time>2018-06-29T09:30:30Z</time>
      </trkpt>
      <trkpt lat="45.98566" lon="4.86622">
        <ele>278</ele>
        <time>2018-06-29T09:30:31Z</time>
      </trkpt>
      <trkpt lat="45.98565" lon="4.86615">
        <ele>278</ele>
        <time>2018-06-29T09:30:32Z</time>
      </trkpt>
      <trkpt lat="45.98565" lon="4.86608">
        <ele>278</ele>
        <time>2018-06-29T09:30:33Z</time>
      </trkpt>
      <trkpt lat="45.98562" lon="4.866">
        <ele>278</ele>
        <time>2018-06-29T09:30:34Z</time>
      </trkpt>
      <trkpt lat="45.9856" lon="4.86593">
        <ele>278</ele>
        <time>2018-06-29T09:30:35Z</time>
      </trkpt>
      <trkpt lat="45.98558" lon="4.86581">
        <ele>278</ele>
        <time>2018-06-29T09:30:37Z</time>
      </trkpt>
      <trkpt lat="45.98554" lon="4.86574">
        <ele>278</ele>
        <time>2018-06-29T09:30:38Z</time>
      </trkpt>
      <trkpt lat="45.98552" lon="4.86567">
        <ele>278</ele>
        <time>2018-06-29T09:30:39Z</time>
      </trkpt>
      <trkpt lat="45.98549" lon="4.8656">
        <ele>278</ele>
        <time>2018-06-29T09:30:40Z</time>
      </trkpt>
      <trkpt lat="45.98546" lon="4.86554">
        <ele>278</ele>
        <time>2018-06-29T09:30:41Z</time>
      </trkpt>
      <trkpt lat="45.98543" lon="4.86549">
        <ele>278</ele>
        <time>2018-06-29T09:30:42Z</time>
      </trkpt>
      <trkpt lat="45.9854" lon="4.86544">
        <ele>278</ele>
        <time>2018-06-29T09:30:43Z</time>
      </trkpt>
      <trkpt lat="45.98537" lon="4.86538">
        <ele>278</ele>
        <time>2018-06-29T09:30:44Z</time>
      </trkpt>
      <trkpt lat="45.98532" lon="4.86531">
        <ele>278</ele>
        <time>2018-06-29T09:30:45Z</time>
      </trkpt>
      <trkpt lat="45.9853" lon="4.86525">
        <ele>279</ele>
        <time>2018-06-29T09:30:46Z</time>
      </trkpt>
      <trkpt lat="45.98527" lon="4.86519">
        <ele>279</ele>
        <time>2018-06-29T09:30:47Z</time>
      </trkpt>
      <trkpt lat="45.98525" lon="4.86513">
        <ele>279</ele>
        <time>2018-06-29T09:30:48Z</time>
      </trkpt>
      <trkpt lat="45.98521" lon="4.86506">
        <ele>279</ele>
        <time>2018-06-29T09:30:49Z</time>
      </trkpt>
      <trkpt lat="45.98518" lon="4.86501">
        <ele>279</ele>
        <time>2018-06-29T09:30:50Z</time>
      </trkpt>
      <trkpt lat="45.98515" lon="4.86495">
        <ele>279</ele>
        <time>2018-06-29T09:30:51Z</time>
      </trkpt>
      <trkpt lat="45.98512" lon="4.86487">
        <ele>278</ele>
        <time>2018-06-29T09:30:52Z</time>
      </trkpt>
      <trkpt lat="45.98509" lon="4.86481">
        <ele>278</ele>
        <time>2018-06-29T09:30:53Z</time>
      </trkpt>
      <trkpt lat="45.98506" lon="4.86474">
        <ele>278</ele>
        <time>2018-06-29T09:30:54Z</time>
      </trkpt>
      <trkpt lat="45.98502" lon="4.86466">
        <ele>278</ele>
        <time>2018-06-29T09:30:55Z</time>
      </trkpt>
      <trkpt lat="45.985" lon="4.8646">
        <ele>278</ele>
        <time>2018-06-29T09:30:56Z</time>
      </trkpt>
      <trkpt lat="45.98497" lon="4.86453">
        <ele>278</ele>
        <time>2018-06-29T09:30:57Z</time>
      </trkpt>
      <trkpt lat="45.98495" lon="4.86447">
        <ele>278</ele>
        <time>2018-06-29T09:30:58Z</time>
      </trkpt>
      <trkpt lat="45.9849" lon="4.86438">
        <ele>278</ele>
        <time>2018-06-29T09:31:00Z</time>
      </trkpt>
      <trkpt lat="45.98487" lon="4.86434">
        <ele>278</ele>
        <time>2018-06-29T09:31:01Z</time>
      </trkpt>
      <trkpt lat="45.98484" lon="4.86429">
        <ele>278</ele>
        <time>2018-06-29T09:31:02Z</time>
      </trkpt>
      <trkpt lat="45.98481" lon="4.86423">
        <ele>278</ele>
        <time>2018-06-29T09:31:03Z</time>
      </trkpt>
      <trkpt lat="45.98478" lon="4.86417">
        <ele>277</ele>
        <time>2018-06-29T09:31:04Z</time>
      </trkpt>
      <trkpt lat="45.98475" lon="4.86411">
        <ele>277</ele>
        <time>2018-06-29T09:31:05Z</time>
      </trkpt>
      <trkpt lat="45.98473" lon="4.86404">
        <ele>277</ele>
        <time>2018-06-29T09:31:06Z</time>
      </trkpt>
      <trkpt lat="45.9847" lon="4.86398">
        <ele>277</ele>
        <time>2018-06-29T09:31:07Z</time>
      </trkpt>
      <trkpt lat="45.98468" lon="4.8639">
        <ele>277</ele>
        <time>2018-06-29T09:31:08Z</time>
      </trkpt>
      <trkpt lat="45.98466" lon="4.86383">
        <ele>277</ele>
        <time>2018-06-29T09:31:09Z</time>
      </trkpt>
      <trkpt lat="45.98463" lon="4.86376">
        <ele>277</ele>
        <time>2018-06-29T09:31:10Z</time>
      </trkpt>
      <trkpt lat="45.9846" lon="4.86369">
        <ele>277</ele>
        <time>2018-06-29T09:31:11Z</time>
      </trkpt>
      <trkpt lat="45.98457" lon="4.86362">
        <ele>277</ele>
        <time>2018-06-29T09:31:12Z</time>
      </trkpt>
      <trkpt lat="45.98455" lon="4.86355">
        <ele>277</ele>
        <time>2018-06-29T09:31:13Z</time>
      </trkpt>
      <trkpt lat="45.98453" lon="4.86349">
        <ele>277</ele>
        <time>2018-06-29T09:31:14Z</time>
      </trkpt>
      <trkpt lat="45.98451" lon="4.86342">
        <ele>277</ele>
        <time>2018-06-29T09:31:15Z</time>
      </trkpt>
      <trkpt lat="45.98449" lon="4.86334">
        <ele>277</ele>
        <time>2018-06-29T09:31:16Z</time>
      </trkpt>
      <trkpt lat="45.98446" lon="4.86323">
        <ele>276</ele>
        <time>2018-06-29T09:31:17Z</time>
      </trkpt>
      <trkpt lat="45.98447" lon="4.86315">
        <ele>276</ele>
        <time>2018-06-29T09:31:18Z</time>
      </trkpt>
      <trkpt lat="45.98445" lon="4.86308">
        <ele>276</ele>
        <time>2018-06-29T09:31:19Z</time>
      </trkpt>
      <trkpt lat="45.98444" lon="4.86301">
        <ele>276</ele>
        <time>2018-06-29T09:31:20Z</time>
      </trkpt>
      <trkpt lat="45.98442" lon="4.86293">
        <ele>276</ele>
        <time>2018-06-29T09:31:21Z</time>
      </trkpt>
      <trkpt lat="45.9844" lon="4.86286">
        <ele>276</ele>
        <time>2018-06-29T09:31:22Z</time>
      </trkpt>
      <trkpt lat="45.9844" lon="4.86279">
        <ele>276</ele>
        <time>2018-06-29T09:31:23Z</time>
      </trkpt>
      <trkpt lat="45.98437" lon="4.86272">
        <ele>276</ele>
        <time>2018-06-29T09:31:24Z</time>
      </trkpt>
      <trkpt lat="45.98436" lon="4.86265">
        <ele>275</ele>
        <time>2018-06-29T09:31:25Z</time>
      </trkpt>
      <trkpt lat="45.98433" lon="4.86254">
        <ele>275</ele>
        <time>2018-06-29T09:31:27Z</time>
      </trkpt>
      <trkpt lat="45.98432" lon="4.86248">
        <ele>275</ele>
        <time>2018-06-29T09:31:28Z</time>
      </trkpt>
      <trkpt lat="45.98431" lon="4.86237">
        <ele>275</ele>
        <time>2018-06-29T09:31:30Z</time>
      </trkpt>
      <trkpt lat="45.9843" lon="4.86232">
        <ele>275</ele>
        <time>2018-06-29T09:31:31Z</time>
      </trkpt>
      <trkpt lat="45.98428" lon="4.86226">
        <ele>275</ele>
        <time>2018-06-29T09:31:33Z</time>
      </trkpt>
      <trkpt lat="45.98427" lon="4.86218">
        <ele>275</ele>
        <time>2018-06-29T09:31:34Z</time>
      </trkpt>
      <trkpt lat="45.98425" lon="4.86207">
        <ele>275</ele>
        <time>2018-06-29T09:31:36Z</time>
      </trkpt>
      <trkpt lat="45.98424" lon="4.86204">
        <ele>275</ele>
        <time>2018-06-29T09:31:37Z</time>
      </trkpt>
      <trkpt lat="45.98422" lon="4.86196">
        <ele>275</ele>
        <time>2018-06-29T09:31:38Z</time>
      </trkpt>
      <trkpt lat="45.9842" lon="4.86191">
        <ele>275</ele>
        <time>2018-06-29T09:31:39Z</time>
      </trkpt>
      <trkpt lat="45.98417" lon="4.86179">
        <ele>275</ele>
        <time>2018-06-29T09:31:41Z</time>
      </trkpt>
      <trkpt lat="45.98416" lon="4.86173">
        <ele>276</ele>
        <time>2018-06-29T09:31:42Z</time>
      </trkpt>
      <trkpt lat="45.98413" lon="4.86161">
        <ele>276</ele>
        <time>2018-06-29T09:31:44Z</time>
      </trkpt>
      <trkpt lat="45.9841" lon="4.86153">
        <ele>276</ele>
        <time>2018-06-29T09:31:45Z</time>
      </trkpt>
      <trkpt lat="45.98409" lon="4.86142">
        <ele>276</ele>
        <time>2018-06-29T09:31:47Z</time>
      </trkpt>
      <trkpt lat="45.98409" lon="4.86136">
        <ele>276</ele>
        <time>2018-06-29T09:31:48Z</time>
      </trkpt>
      <trkpt lat="45.98408" lon="4.86124">
        <ele>277</ele>
        <time>2018-06-29T09:31:50Z</time>
      </trkpt>
      <trkpt lat="45.98408" lon="4.86117">
        <ele>277</ele>
        <time>2018-06-29T09:31:51Z</time>
      </trkpt>
      <trkpt lat="45.98406" lon="4.86109">
        <ele>277</ele>
        <time>2018-06-29T09:31:52Z</time>
      </trkpt>
      <trkpt lat="45.98406" lon="4.86102">
        <ele>277</ele>
        <time>2018-06-29T09:31:53Z</time>
      </trkpt>
      <trkpt lat="45.98404" lon="4.86092">
        <ele>277</ele>
        <time>2018-06-29T09:31:54Z</time>
      </trkpt>
      <trkpt lat="45.98403" lon="4.86083">
        <ele>277</ele>
        <time>2018-06-29T09:31:55Z</time>
      </trkpt>
      <trkpt lat="45.98401" lon="4.86074">
        <ele>277</ele>
        <time>2018-06-29T09:31:56Z</time>
      </trkpt>
      <trkpt lat="45.98398" lon="4.86064">
        <ele>277</ele>
        <time>2018-06-29T09:31:57Z</time>
      </trkpt>
      <trkpt lat="45.98394" lon="4.86053">
        <ele>277</ele>
        <time>2018-06-29T09:31:58Z</time>
      </trkpt>
      <trkpt lat="45.98391" lon="4.86043">
        <ele>277</ele>
        <time>2018-06-29T09:31:59Z</time>
      </trkpt>
      <trkpt lat="45.98388" lon="4.86034">
        <ele>277</ele>
        <time>2018-06-29T09:32:00Z</time>
      </trkpt>
      <trkpt lat="45.98385" lon="4.86025">
        <ele>277</ele>
        <time>2018-06-29T09:32:01Z</time>
      </trkpt>
      <trkpt lat="45.98382" lon="4.86016">
        <ele>277</ele>
        <time>2018-06-29T09:32:02Z</time>
      </trkpt>
      <trkpt lat="45.98381" lon="4.86008">
        <ele>277</ele>
        <time>2018-06-29T09:32:03Z</time>
      </trkpt>
      <trkpt lat="45.98377" lon="4.85998">
        <ele>277</ele>
        <time>2018-06-29T09:32:04Z</time>
      </trkpt>
      <trkpt lat="45.98374" lon="4.8599">
        <ele>276</ele>
        <time>2018-06-29T09:32:05Z</time>
      </trkpt>
      <trkpt lat="45.98371" lon="4.85983">
        <ele>276</ele>
        <time>2018-06-29T09:32:06Z</time>
      </trkpt>
      <trkpt lat="45.98368" lon="4.85976">
        <ele>276</ele>
        <time>2018-06-29T09:32:07Z</time>
      </trkpt>
      <trkpt lat="45.98365" lon="4.85968">
        <ele>276</ele>
        <time>2018-06-29T09:32:08Z</time>
      </trkpt>
      <trkpt lat="45.98362" lon="4.8596">
        <ele>276</ele>
        <time>2018-06-29T09:32:09Z</time>
      </trkpt>
      <trkpt lat="45.98359" lon="4.85953">
        <ele>276</ele>
        <time>2018-06-29T09:32:10Z</time>
      </trkpt>
      <trkpt lat="45.98356" lon="4.85946">
        <ele>276</ele>
        <time>2018-06-29T09:32:11Z</time>
      </trkpt>
      <trkpt lat="45.98353" lon="4.85939">
        <ele>276</ele>
        <time>2018-06-29T09:32:12Z</time>
      </trkpt>
      <trkpt lat="45.9835" lon="4.8593">
        <ele>276</ele>
        <time>2018-06-29T09:32:13Z</time>
      </trkpt>
      <trkpt lat="45.98346" lon="4.85923">
        <ele>276</ele>
        <time>2018-06-29T09:32:14Z</time>
      </trkpt>
      <trkpt lat="45.98343" lon="4.85914">
        <ele>276</ele>
        <time>2018-06-29T09:32:15Z</time>
      </trkpt>
      <trkpt lat="45.98342" lon="4.85906">
        <ele>276</ele>
        <time>2018-06-29T09:32:16Z</time>
      </trkpt>
      <trkpt lat="45.98338" lon="4.85899">
        <ele>276</ele>
        <time>2018-06-29T09:32:17Z</time>
      </trkpt>
      <trkpt lat="45.98336" lon="4.85891">
        <ele>276</ele>
        <time>2018-06-29T09:32:18Z</time>
      </trkpt>
      <trkpt lat="45.98334" lon="4.85884">
        <ele>276</ele>
        <time>2018-06-29T09:32:19Z</time>
      </trkpt>
      <trkpt lat="45.98331" lon="4.85878">
        <ele>276</ele>
        <time>2018-06-29T09:32:20Z</time>
      </trkpt>
      <trkpt lat="45.98329" lon="4.8587">
        <ele>276</ele>
        <time>2018-06-29T09:32:21Z</time>
      </trkpt>
      <trkpt lat="45.98325" lon="4.85863">
        <ele>276</ele>
        <time>2018-06-29T09:32:22Z</time>
      </trkpt>
      <trkpt lat="45.98323" lon="4.85856">
        <ele>276</ele>
        <time>2018-06-29T09:32:23Z</time>
      </trkpt>
      <trkpt lat="45.98319" lon="4.8585">
        <ele>276</ele>
        <time>2018-06-29T09:32:24Z</time>
      </trkpt>
      <trkpt lat="45.98316" lon="4.85843">
        <ele>276</ele>
        <time>2018-06-29T09:32:25Z</time>
      </trkpt>
      <trkpt lat="45.98314" lon="4.85836">
        <ele>276</ele>
        <time>2018-06-29T09:32:26Z</time>
      </trkpt>
      <trkpt lat="45.98311" lon="4.85829">
        <ele>275</ele>
        <time>2018-06-29T09:32:27Z</time>
      </trkpt>
      <trkpt lat="45.98308" lon="4.85822">
        <ele>275</ele>
        <time>2018-06-29T09:32:28Z</time>
      </trkpt>
      <trkpt lat="45.98305" lon="4.85814">
        <ele>275</ele>
        <time>2018-06-29T09:32:29Z</time>
      </trkpt>
      <trkpt lat="45.98301" lon="4.85807">
        <ele>275</ele>
        <time>2018-06-29T09:32:30Z</time>
      </trkpt>
      <trkpt lat="45.98298" lon="4.858">
        <ele>275</ele>
        <time>2018-06-29T09:32:31Z</time>
      </trkpt>
      <trkpt lat="45.98295" lon="4.85791">
        <ele>275</ele>
        <time>2018-06-29T09:32:32Z</time>
      </trkpt>
      <trkpt lat="45.98294" lon="4.85783">
        <ele>275</ele>
        <time>2018-06-29T09:32:33Z</time>
      </trkpt>
      <trkpt lat="45.98292" lon="4.85774">
        <ele>275</ele>
        <time>2018-06-29T09:32:34Z</time>
      </trkpt>
      <trkpt lat="45.98288" lon="4.85766">
        <ele>275</ele>
        <time>2018-06-29T09:32:35Z</time>
      </trkpt>
      <trkpt lat="45.98285" lon="4.85759">
        <ele>275</ele>
        <time>2018-06-29T09:32:36Z</time>
      </trkpt>
      <trkpt lat="45.98282" lon="4.85751">
        <ele>275</ele>
        <time>2018-06-29T09:32:37Z</time>
      </trkpt>
      <trkpt lat="45.98279" lon="4.85743">
        <ele>274</ele>
        <time>2018-06-29T09:32:38Z</time>
      </trkpt>
      <trkpt lat="45.98276" lon="4.85734">
        <ele>274</ele>
        <time>2018-06-29T09:32:39Z</time>
      </trkpt>
      <trkpt lat="45.98272" lon="4.85725">
        <ele>274</ele>
        <time>2018-06-29T09:32:40Z</time>
      </trkpt>
      <trkpt lat="45.98268" lon="4.85718">
        <ele>275</ele>
        <time>2018-06-29T09:32:41Z</time>
      </trkpt>
      <trkpt lat="45.98266" lon="4.8571">
        <ele>275</ele>
        <time>2018-06-29T09:32:42Z</time>
      </trkpt>
      <trkpt lat="45.98263" lon="4.85702">
        <ele>275</ele>
        <time>2018-06-29T09:32:43Z</time>
      </trkpt>
      <trkpt lat="45.98259" lon="4.85695">
        <ele>275</ele>
        <time>2018-06-29T09:32:44Z</time>
      </trkpt>
      <trkpt lat="45.98256" lon="4.85688">
        <ele>275</ele>
        <time>2018-06-29T09:32:45Z</time>
      </trkpt>
      <trkpt lat="45.98254" lon="4.85681">
        <ele>275</ele>
        <time>2018-06-29T09:32:46Z</time>
      </trkpt>
      <trkpt lat="45.98251" lon="4.85674">
        <ele>276</ele>
        <time>2018-06-29T09:32:47Z</time>
      </trkpt>
      <trkpt lat="45.98248" lon="4.85667">
        <ele>276</ele>
        <time>2018-06-29T09:32:48Z</time>
      </trkpt>
      <trkpt lat="45.98244" lon="4.85659">
        <ele>276</ele>
        <time>2018-06-29T09:32:49Z</time>
      </trkpt>
      <trkpt lat="45.98241" lon="4.85653">
        <ele>276</ele>
        <time>2018-06-29T09:32:50Z</time>
      </trkpt>
      <trkpt lat="45.98239" lon="4.85645">
        <ele>277</ele>
        <time>2018-06-29T09:32:51Z</time>
      </trkpt>
      <trkpt lat="45.98236" lon="4.85638">
        <ele>277</ele>
        <time>2018-06-29T09:32:52Z</time>
      </trkpt>
      <trkpt lat="45.98232" lon="4.8563">
        <ele>277</ele>
        <time>2018-06-29T09:32:53Z</time>
      </trkpt>
      <trkpt lat="45.98229" lon="4.85622">
        <ele>277</ele>
        <time>2018-06-29T09:32:54Z</time>
      </trkpt>
      <trkpt lat="45.98226" lon="4.85614">
        <ele>277</ele>
        <time>2018-06-29T09:32:55Z</time>
      </trkpt>
      <trkpt lat="45.98223" lon="4.85606">
        <ele>277</ele>
        <time>2018-06-29T09:32:56Z</time>
      </trkpt>
      <trkpt lat="45.98219" lon="4.85599">
        <ele>277</ele>
        <time>2018-06-29T09:32:57Z</time>
      </trkpt>
      <trkpt lat="45.98218" lon="4.85591">
        <ele>277</ele>
        <time>2018-06-29T09:32:58Z</time>
      </trkpt>
      <trkpt lat="45.98215" lon="4.85584">
        <ele>277</ele>
        <time>2018-06-29T09:32:59Z</time>
      </trkpt>
      <trkpt lat="45.98211" lon="4.85577">
        <ele>276</ele>
        <time>2018-06-29T09:33:00Z</time>
      </trkpt>
      <trkpt lat="45.98208" lon="4.8557">
        <ele>276</ele>
        <time>2018-06-29T09:33:01Z</time>
      </trkpt>
      <trkpt lat="45.98205" lon="4.85564">
        <ele>276</ele>
        <time>2018-06-29T09:33:02Z</time>
      </trkpt>
      <trkpt lat="45.98202" lon="4.85557">
        <ele>276</ele>
        <time>2018-06-29T09:33:03Z</time>
      </trkpt>
      <trkpt lat="45.982" lon="4.8555">
        <ele>276</ele>
        <time>2018-06-29T09:33:04Z</time>
      </trkpt>
      <trkpt lat="45.98197" lon="4.85544">
        <ele>276</ele>
        <time>2018-06-29T09:33:05Z</time>
      </trkpt>
      <trkpt lat="45.98195" lon="4.85537">
        <ele>276</ele>
        <time>2018-06-29T09:33:06Z</time>
      </trkpt>
      <trkpt lat="45.98192" lon="4.8553">
        <ele>276</ele>
        <time>2018-06-29T09:33:07Z</time>
      </trkpt>
      <trkpt lat="45.98189" lon="4.85523">
        <ele>276</ele>
        <time>2018-06-29T09:33:08Z</time>
      </trkpt>
      <trkpt lat="45.98186" lon="4.85516">
        <ele>275</ele>
        <time>2018-06-29T09:33:09Z</time>
      </trkpt>
      <trkpt lat="45.98182" lon="4.8551">
        <ele>275</ele>
        <time>2018-06-29T09:33:10Z</time>
      </trkpt>
      <trkpt lat="45.9818" lon="4.85502">
        <ele>275</ele>
        <time>2018-06-29T09:33:11Z</time>
      </trkpt>
      <trkpt lat="45.98176" lon="4.85494">
        <ele>275</ele>
        <time>2018-06-29T09:33:12Z</time>
      </trkpt>
      <trkpt lat="45.98173" lon="4.85486">
        <ele>275</ele>
        <time>2018-06-29T09:33:13Z</time>
      </trkpt>
      <trkpt lat="45.9817" lon="4.85479">
        <ele>275</ele>
        <time>2018-06-29T09:33:14Z</time>
      </trkpt>
      <trkpt lat="45.98167" lon="4.85472">
        <ele>275</ele>
        <time>2018-06-29T09:33:15Z</time>
      </trkpt>
      <trkpt lat="45.98164" lon="4.85465">
        <ele>275</ele>
        <time>2018-06-29T09:33:16Z</time>
      </trkpt>
      <trkpt lat="45.98161" lon="4.85457">
        <ele>276</ele>
        <time>2018-06-29T09:33:17Z</time>
      </trkpt>
      <trkpt lat="45.98159" lon="4.8545">
        <ele>276</ele>
        <time>2018-06-29T09:33:18Z</time>
      </trkpt>
      <trkpt lat="45.98156" lon="4.85444">
        <ele>276</ele>
        <time>2018-06-29T09:33:19Z</time>
      </trkpt>
      <trkpt lat="45.98153" lon="4.85437">
        <ele>276</ele>
        <time>2018-06-29T09:33:20Z</time>
      </trkpt>
      <trkpt lat="45.98151" lon="4.8543">
        <ele>276</ele>
        <time>2018-06-29T09:33:21Z</time>
      </trkpt>
      <trkpt lat="45.98148" lon="4.85424">
        <ele>276</ele>
        <time>2018-06-29T09:33:22Z</time>
      </trkpt>
      <trkpt lat="45.98145" lon="4.85418">
        <ele>276</ele>
        <time>2018-06-29T09:33:23Z</time>
      </trkpt>
      <trkpt lat="45.98144" lon="4.85412">
        <ele>276</ele>
        <time>2018-06-29T09:33:24Z</time>
      </trkpt>
      <trkpt lat="45.98142" lon="4.85406">
        <ele>276</ele>
        <time>2018-06-29T09:33:25Z</time>
      </trkpt>
      <trkpt lat="45.9814" lon="4.854">
        <ele>276</ele>
        <time>2018-06-29T09:33:26Z</time>
      </trkpt>
      <trkpt lat="45.98137" lon="4.85393">
        <ele>276</ele>
        <time>2018-06-29T09:33:27Z</time>
      </trkpt>
      <trkpt lat="45.98135" lon="4.85386">
        <ele>276</ele>
        <time>2018-06-29T09:33:28Z</time>
      </trkpt>
      <trkpt lat="45.98132" lon="4.85378">
        <ele>276</ele>
        <time>2018-06-29T09:33:29Z</time>
      </trkpt>
      <trkpt lat="45.98128" lon="4.85371">
        <ele>276</ele>
        <time>2018-06-29T09:33:30Z</time>
      </trkpt>
      <trkpt lat="45.98125" lon="4.85365">
        <ele>276</ele>
        <time>2018-06-29T09:33:31Z</time>
      </trkpt>
      <trkpt lat="45.98123" lon="4.85359">
        <ele>276</ele>
        <time>2018-06-29T09:33:32Z</time>
      </trkpt>
      <trkpt lat="45.98121" lon="4.85353">
        <ele>276</ele>
        <time>2018-06-29T09:33:33Z</time>
      </trkpt>
      <trkpt lat="45.98116" lon="4.85342">
        <ele>276</ele>
        <time>2018-06-29T09:33:35Z</time>
      </trkpt>
      <trkpt lat="45.98115" lon="4.85336">
        <ele>276</ele>
        <time>2018-06-29T09:33:36Z</time>
      </trkpt>
      <trkpt lat="45.98112" lon="4.8533">
        <ele>276</ele>
        <time>2018-06-29T09:33:37Z</time>
      </trkpt>
      <trkpt lat="45.98108" lon="4.85323">
        <ele>276</ele>
        <time>2018-06-29T09:33:38Z</time>
      </trkpt>
      <trkpt lat="45.98106" lon="4.85317">
        <ele>276</ele>
        <time>2018-06-29T09:33:39Z</time>
      </trkpt>
      <trkpt lat="45.98104" lon="4.85311">
        <ele>276</ele>
        <time>2018-06-29T09:33:40Z</time>
      </trkpt>
      <trkpt lat="45.98102" lon="4.85305">
        <ele>276</ele>
        <time>2018-06-29T09:33:41Z</time>
      </trkpt>
      <trkpt lat="45.98099" lon="4.85299">
        <ele>276</ele>
        <time>2018-06-29T09:33:42Z</time>
      </trkpt>
      <trkpt lat="45.98096" lon="4.85292">
        <ele>276</ele>
        <time>2018-06-29T09:33:43Z</time>
      </trkpt>
      <trkpt lat="45.98093" lon="4.85286">
        <ele>276</ele>
        <time>2018-06-29T09:33:44Z</time>
      </trkpt>
      <trkpt lat="45.98091" lon="4.8528">
        <ele>276</ele>
        <time>2018-06-29T09:33:45Z</time>
      </trkpt>
      <trkpt lat="45.98088" lon="4.85275">
        <ele>276</ele>
        <time>2018-06-29T09:33:46Z</time>
      </trkpt>
      <trkpt lat="45.98083" lon="4.85264">
        <ele>276</ele>
        <time>2018-06-29T09:33:48Z</time>
      </trkpt>
      <trkpt lat="45.98079" lon="4.85258">
        <ele>276</ele>
        <time>2018-06-29T09:33:49Z</time>
      </trkpt>
      <trkpt lat="45.98074" lon="4.85248">
        <ele>276</ele>
        <time>2018-06-29T09:33:51Z</time>
      </trkpt>
      <trkpt lat="45.98071" lon="4.85243">
        <ele>276</ele>
        <time>2018-06-29T09:33:52Z</time>
      </trkpt>
      <trkpt lat="45.98067" lon="4.85234">
        <ele>276</ele>
        <time>2018-06-29T09:33:54Z</time>
      </trkpt>
      <trkpt lat="45.98066" lon="4.85231">
        <ele>276</ele>
        <time>2018-06-29T09:33:55Z</time>
      </trkpt>
      <trkpt lat="45.98062" lon="4.85222">
        <ele>276</ele>
        <time>2018-06-29T09:33:58Z</time>
      </trkpt>
      <trkpt lat="45.98057" lon="4.85212">
        <ele>276</ele>
        <time>2018-06-29T09:33:59Z</time>
      </trkpt>
      <trkpt lat="45.98053" lon="4.85202">
        <ele>276</ele>
        <time>2018-06-29T09:34:01Z</time>
      </trkpt>
      <trkpt lat="45.98052" lon="4.85195">
        <ele>276</ele>
        <time>2018-06-29T09:34:02Z</time>
      </trkpt>
      <trkpt lat="45.98049" lon="4.85189">
        <ele>276</ele>
        <time>2018-06-29T09:34:03Z</time>
      </trkpt>
      <trkpt lat="45.98047" lon="4.85182">
        <ele>276</ele>
        <time>2018-06-29T09:34:04Z</time>
      </trkpt>
      <trkpt lat="45.98044" lon="4.85174">
        <ele>275</ele>
        <time>2018-06-29T09:34:05Z</time>
      </trkpt>
      <trkpt lat="45.98042" lon="4.85167">
        <ele>275</ele>
        <time>2018-06-29T09:34:06Z</time>
      </trkpt>
      <trkpt lat="45.98039" lon="4.85159">
        <ele>275</ele>
        <time>2018-06-29T09:34:07Z</time>
      </trkpt>
      <trkpt lat="45.98036" lon="4.85151">
        <ele>275</ele>
        <time>2018-06-29T09:34:08Z</time>
      </trkpt>
      <trkpt lat="45.98034" lon="4.85142">
        <ele>275</ele>
        <time>2018-06-29T09:34:09Z</time>
      </trkpt>
      <trkpt lat="45.98032" lon="4.85134">
        <ele>275</ele>
        <time>2018-06-29T09:34:10Z</time>
      </trkpt>
      <trkpt lat="45.98029" lon="4.85126">
        <ele>274</ele>
        <time>2018-06-29T09:34:11Z</time>
      </trkpt>
      <trkpt lat="45.98026" lon="4.85117">
        <ele>274</ele>
        <time>2018-06-29T09:34:12Z</time>
      </trkpt>
      <trkpt lat="45.98025" lon="4.85108">
        <ele>274</ele>
        <time>2018-06-29T09:34:13Z</time>
      </trkpt>
      <trkpt lat="45.98023" lon="4.85099">
        <ele>274</ele>
        <time>2018-06-29T09:34:14Z</time>
      </trkpt>
      <trkpt lat="45.98021" lon="4.8509">
        <ele>274</ele>
        <time>2018-06-29T09:34:15Z</time>
      </trkpt>
      <trkpt lat="45.9802" lon="4.85081">
        <ele>273</ele>
        <time>2018-06-29T09:34:16Z</time>
      </trkpt>
      <trkpt lat="45.98019" lon="4.85072">
        <ele>273</ele>
        <time>2018-06-29T09:34:17Z</time>
      </trkpt>
      <trkpt lat="45.98019" lon="4.85062">
        <ele>273</ele>
        <time>2018-06-29T09:34:18Z</time>
      </trkpt>
      <trkpt lat="45.98019" lon="4.85054">
        <ele>273</ele>
        <time>2018-06-29T09:34:19Z</time>
      </trkpt>
      <trkpt lat="45.98019" lon="4.85045">
        <ele>273</ele>
        <time>2018-06-29T09:34:20Z</time>
      </trkpt>
      <trkpt lat="45.98018" lon="4.85037">
        <ele>273</ele>
        <time>2018-06-29T09:34:21Z</time>
      </trkpt>
      <trkpt lat="45.98018" lon="4.85028">
        <ele>273</ele>
        <time>2018-06-29T09:34:22Z</time>
      </trkpt>
      <trkpt lat="45.98013" lon="4.85017">
        <ele>273</ele>
        <time>2018-06-29T09:34:23Z</time>
      </trkpt>
      <trkpt lat="45.98012" lon="4.85008">
        <ele>272</ele>
        <time>2018-06-29T09:34:24Z</time>
      </trkpt>
      <trkpt lat="45.98019" lon="4.84998">
        <ele>272</ele>
        <time>2018-06-29T09:34:25Z</time>
      </trkpt>
      <trkpt lat="45.98017" lon="4.84989">
        <ele>272</ele>
        <time>2018-06-29T09:34:26Z</time>
      </trkpt>
      <trkpt lat="45.98016" lon="4.8498">
        <ele>272</ele>
        <time>2018-06-29T09:34:27Z</time>
      </trkpt>
      <trkpt lat="45.98015" lon="4.84972">
        <ele>272</ele>
        <time>2018-06-29T09:34:28Z</time>
      </trkpt>
      <trkpt lat="45.9802" lon="4.84964">
        <ele>272</ele>
        <time>2018-06-29T09:34:29Z</time>
      </trkpt>
      <trkpt lat="45.98019" lon="4.84954">
        <ele>272</ele>
        <time>2018-06-29T09:34:30Z</time>
      </trkpt>
      <trkpt lat="45.98018" lon="4.84945">
        <ele>272</ele>
        <time>2018-06-29T09:34:31Z</time>
      </trkpt>
      <trkpt lat="45.98018" lon="4.84936">
        <ele>272</ele>
        <time>2018-06-29T09:34:32Z</time>
      </trkpt>
      <trkpt lat="45.98015" lon="4.84927">
        <ele>272</ele>
        <time>2018-06-29T09:34:33Z</time>
      </trkpt>
      <trkpt lat="45.98014" lon="4.84919">
        <ele>272</ele>
        <time>2018-06-29T09:34:34Z</time>
      </trkpt>
      <trkpt lat="45.98014" lon="4.8491">
        <ele>272</ele>
        <time>2018-06-29T09:34:35Z</time>
      </trkpt>
      <trkpt lat="45.98014" lon="4.84903">
        <ele>272</ele>
        <time>2018-06-29T09:34:36Z</time>
      </trkpt>
      <trkpt lat="45.98014" lon="4.84895">
        <ele>272</ele>
        <time>2018-06-29T09:34:37Z</time>
      </trkpt>
      <trkpt lat="45.98013" lon="4.84887">
        <ele>272</ele>
        <time>2018-06-29T09:34:38Z</time>
      </trkpt>
      <trkpt lat="45.98012" lon="4.84879">
        <ele>272</ele>
        <time>2018-06-29T09:34:39Z</time>
      </trkpt>
      <trkpt lat="45.9801" lon="4.84872">
        <ele>272</ele>
        <time>2018-06-29T09:34:40Z</time>
      </trkpt>
      <trkpt lat="45.98009" lon="4.84864">
        <ele>272</ele>
        <time>2018-06-29T09:34:41Z</time>
      </trkpt>
      <trkpt lat="45.98008" lon="4.84858">
        <ele>272</ele>
        <time>2018-06-29T09:34:42Z</time>
      </trkpt>
      <trkpt lat="45.98006" lon="4.8485">
        <ele>272</ele>
        <time>2018-06-29T09:34:43Z</time>
      </trkpt>
      <trkpt lat="45.98005" lon="4.84842">
        <ele>272</ele>
        <time>2018-06-29T09:34:44Z</time>
      </trkpt>
      <trkpt lat="45.98004" lon="4.84834">
        <ele>272</ele>
        <time>2018-06-29T09:34:45Z</time>
      </trkpt>
      <trkpt lat="45.98004" lon="4.84826">
        <ele>272</ele>
        <time>2018-06-29T09:34:46Z</time>
      </trkpt>
      <trkpt lat="45.98003" lon="4.84818">
        <ele>272</ele>
        <time>2018-06-29T09:34:47Z</time>
      </trkpt>
      <trkpt lat="45.98002" lon="4.8481">
        <ele>273</ele>
        <time>2018-06-29T09:34:48Z</time>
      </trkpt>
      <trkpt lat="45.98002" lon="4.84802">
        <ele>273</ele>
        <time>2018-06-29T09:34:49Z</time>
      </trkpt>
      <trkpt lat="45.98001" lon="4.84794">
        <ele>273</ele>
        <time>2018-06-29T09:34:50Z</time>
      </trkpt>
      <trkpt lat="45.98" lon="4.84786">
        <ele>274</ele>
        <time>2018-06-29T09:34:51Z</time>
      </trkpt>
      <trkpt lat="45.97999" lon="4.84778">
        <ele>274</ele>
        <time>2018-06-29T09:34:52Z</time>
      </trkpt>
      <trkpt lat="45.97998" lon="4.8477">
        <ele>274</ele>
        <time>2018-06-29T09:34:53Z</time>
      </trkpt>
      <trkpt lat="45.97997" lon="4.84764">
        <ele>275</ele>
        <time>2018-06-29T09:34:54Z</time>
      </trkpt>
      <trkpt lat="45.97995" lon="4.84756">
        <ele>275</ele>
        <time>2018-06-29T09:34:55Z</time>
      </trkpt>
      <trkpt lat="45.97994" lon="4.84748">
        <ele>275</ele>
        <time>2018-06-29T09:34:56Z</time>
      </trkpt>
      <trkpt lat="45.9799" lon="4.8474">
        <ele>275</ele>
        <time>2018-06-29T09:34:57Z</time>
      </trkpt>
      <trkpt lat="45.97989" lon="4.84733">
        <ele>275</ele>
        <time>2018-06-29T09:34:58Z</time>
      </trkpt>
      <trkpt lat="45.97995" lon="4.84726">
        <ele>275</ele>
        <time>2018-06-29T09:34:59Z</time>
      </trkpt>
      <trkpt lat="45.97995" lon="4.84718">
        <ele>275</ele>
        <time>2018-06-29T09:35:00Z</time>
      </trkpt>
      <trkpt lat="45.97991" lon="4.8471">
        <ele>275</ele>
        <time>2018-06-29T09:35:01Z</time>
      </trkpt>
      <trkpt lat="45.97989" lon="4.84702">
        <ele>275</ele>
        <time>2018-06-29T09:35:02Z</time>
      </trkpt>
      <trkpt lat="45.97988" lon="4.84694">
        <ele>275</ele>
        <time>2018-06-29T09:35:03Z</time>
      </trkpt>
      <trkpt lat="45.97987" lon="4.84684">
        <ele>275</ele>
        <time>2018-06-29T09:35:04Z</time>
      </trkpt>
      <trkpt lat="45.97989" lon="4.84676">
        <ele>275</ele>
        <time>2018-06-29T09:35:05Z</time>
      </trkpt>
      <trkpt lat="45.97988" lon="4.84667">
        <ele>275</ele>
        <time>2018-06-29T09:35:06Z</time>
      </trkpt>
      <trkpt lat="45.97989" lon="4.8466">
        <ele>274</ele>
        <time>2018-06-29T09:35:07Z</time>
      </trkpt>
      <trkpt lat="45.97988" lon="4.84653">
        <ele>274</ele>
        <time>2018-06-29T09:35:08Z</time>
      </trkpt>
      <trkpt lat="45.97987" lon="4.84646">
        <ele>274</ele>
        <time>2018-06-29T09:35:09Z</time>
      </trkpt>
      <trkpt lat="45.97985" lon="4.84638">
        <ele>275</ele>
        <time>2018-06-29T09:35:10Z</time>
      </trkpt>
      <trkpt lat="45.97985" lon="4.8463">
        <ele>275</ele>
        <time>2018-06-29T09:35:11Z</time>
      </trkpt>
      <trkpt lat="45.97984" lon="4.84622">
        <ele>275</ele>
        <time>2018-06-29T09:35:12Z</time>
      </trkpt>
      <trkpt lat="45.97981" lon="4.84613">
        <ele>275</ele>
        <time>2018-06-29T09:35:13Z</time>
      </trkpt>
      <trkpt lat="45.9798" lon="4.84605">
        <ele>274</ele>
        <time>2018-06-29T09:35:14Z</time>
      </trkpt>
      <trkpt lat="45.97979" lon="4.84596">
        <ele>274</ele>
        <time>2018-06-29T09:35:15Z</time>
      </trkpt>
      <trkpt lat="45.97978" lon="4.84585">
        <ele>274</ele>
        <time>2018-06-29T09:35:16Z</time>
      </trkpt>
      <trkpt lat="45.97976" lon="4.84576">
        <ele>275</ele>
        <time>2018-06-29T09:35:17Z</time>
      </trkpt>
      <trkpt lat="45.97975" lon="4.84568">
        <ele>275</ele>
        <time>2018-06-29T09:35:18Z</time>
      </trkpt>
      <trkpt lat="45.97973" lon="4.8456">
        <ele>275</ele>
        <time>2018-06-29T09:35:19Z</time>
      </trkpt>
      <trkpt lat="45.97971" lon="4.84551">
        <ele>275</ele>
        <time>2018-06-29T09:35:20Z</time>
      </trkpt>
      <trkpt lat="45.97974" lon="4.84543">
        <ele>275</ele>
        <time>2018-06-29T09:35:21Z</time>
      </trkpt>
      <trkpt lat="45.97972" lon="4.84535">
        <ele>275</ele>
        <time>2018-06-29T09:35:22Z</time>
      </trkpt>
      <trkpt lat="45.9797" lon="4.84529">
        <ele>275</ele>
        <time>2018-06-29T09:35:23Z</time>
      </trkpt>
      <trkpt lat="45.97969" lon="4.84522">
        <ele>275</ele>
        <time>2018-06-29T09:35:24Z</time>
      </trkpt>
      <trkpt lat="45.97968" lon="4.84514">
        <ele>275</ele>
        <time>2018-06-29T09:35:25Z</time>
      </trkpt>
      <trkpt lat="45.97964" lon="4.84506">
        <ele>275</ele>
        <time>2018-06-29T09:35:26Z</time>
      </trkpt>
      <trkpt lat="45.97962" lon="4.84498">
        <ele>275</ele>
        <time>2018-06-29T09:35:27Z</time>
      </trkpt>
      <trkpt lat="45.97961" lon="4.8449">
        <ele>275</ele>
        <time>2018-06-29T09:35:28Z</time>
      </trkpt>
      <trkpt lat="45.9796" lon="4.84482">
        <ele>275</ele>
        <time>2018-06-29T09:35:29Z</time>
      </trkpt>
      <trkpt lat="45.97958" lon="4.84473">
        <ele>275</ele>
        <time>2018-06-29T09:35:30Z</time>
      </trkpt>
      <trkpt lat="45.97956" lon="4.84465">
        <ele>275</ele>
        <time>2018-06-29T09:35:31Z</time>
      </trkpt>
      <trkpt lat="45.97955" lon="4.84457">
        <ele>275</ele>
        <time>2018-06-29T09:35:32Z</time>
      </trkpt>
      <trkpt lat="45.97952" lon="4.84449">
        <ele>275</ele>
        <time>2018-06-29T09:35:33Z</time>
      </trkpt>
      <trkpt lat="45.97953" lon="4.84441">
        <ele>275</ele>
        <time>2018-06-29T09:35:34Z</time>
      </trkpt>
      <trkpt lat="45.97952" lon="4.84435">
        <ele>275</ele>
        <time>2018-06-29T09:35:35Z</time>
      </trkpt>
      <trkpt lat="45.97951" lon="4.84428">
        <ele>275</ele>
        <time>2018-06-29T09:35:36Z</time>
      </trkpt>
      <trkpt lat="45.9795" lon="4.84422">
        <ele>275</ele>
        <time>2018-06-29T09:35:37Z</time>
      </trkpt>
      <trkpt lat="45.9795" lon="4.84414">
        <ele>275</ele>
        <time>2018-06-29T09:35:38Z</time>
      </trkpt>
      <trkpt lat="45.97949" lon="4.84407">
        <ele>275</ele>
        <time>2018-06-29T09:35:39Z</time>
      </trkpt>
      <trkpt lat="45.97947" lon="4.84399">
        <ele>275</ele>
        <time>2018-06-29T09:35:40Z</time>
      </trkpt>
      <trkpt lat="45.97945" lon="4.8439">
        <ele>275</ele>
        <time>2018-06-29T09:35:41Z</time>
      </trkpt>
      <trkpt lat="45.97944" lon="4.84382">
        <ele>275</ele>
        <time>2018-06-29T09:35:42Z</time>
      </trkpt>
      <trkpt lat="45.97942" lon="4.84374">
        <ele>275</ele>
        <time>2018-06-29T09:35:43Z</time>
      </trkpt>
      <trkpt lat="45.9794" lon="4.84366">
        <ele>275</ele>
        <time>2018-06-29T09:35:44Z</time>
      </trkpt>
      <trkpt lat="45.97938" lon="4.84358">
        <ele>275</ele>
        <time>2018-06-29T09:35:45Z</time>
      </trkpt>
      <trkpt lat="45.97936" lon="4.8435">
        <ele>275</ele>
        <time>2018-06-29T09:35:46Z</time>
      </trkpt>
      <trkpt lat="45.97936" lon="4.84343">
        <ele>275</ele>
        <time>2018-06-29T09:35:47Z</time>
      </trkpt>
      <trkpt lat="45.97935" lon="4.84335">
        <ele>275</ele>
        <time>2018-06-29T09:35:48Z</time>
      </trkpt>
      <trkpt lat="45.97933" lon="4.84327">
        <ele>275</ele>
        <time>2018-06-29T09:35:49Z</time>
      </trkpt>
      <trkpt lat="45.97932" lon="4.84321">
        <ele>275</ele>
        <time>2018-06-29T09:35:50Z</time>
      </trkpt>
      <trkpt lat="45.9793" lon="4.84313">
        <ele>275</ele>
        <time>2018-06-29T09:35:51Z</time>
      </trkpt>
      <trkpt lat="45.97929" lon="4.84306">
        <ele>275</ele>
        <time>2018-06-29T09:35:52Z</time>
      </trkpt>
      <trkpt lat="45.97927" lon="4.84298">
        <ele>275</ele>
        <time>2018-06-29T09:35:53Z</time>
      </trkpt>
      <trkpt lat="45.97925" lon="4.84289">
        <ele>275</ele>
        <time>2018-06-29T09:35:54Z</time>
      </trkpt>
      <trkpt lat="45.97925" lon="4.84281">
        <ele>275</ele>
        <time>2018-06-29T09:35:55Z</time>
      </trkpt>
      <trkpt lat="45.97925" lon="4.84275">
        <ele>275</ele>
        <time>2018-06-29T09:35:56Z</time>
      </trkpt>
      <trkpt lat="45.97927" lon="4.84268">
        <ele>275</ele>
        <time>2018-06-29T09:35:57Z</time>
      </trkpt>
      <trkpt lat="45.97929" lon="4.84262">
        <ele>275</ele>
        <time>2018-06-29T09:35:58Z</time>
      </trkpt>
      <trkpt lat="45.97934" lon="4.84258">
        <ele>275</ele>
        <time>2018-06-29T09:35:59Z</time>
      </trkpt>
      <trkpt lat="45.97938" lon="4.84254">
        <ele>275</ele>
        <time>2018-06-29T09:36:00Z</time>
      </trkpt>
      <trkpt lat="45.97943" lon="4.8425">
        <ele>275</ele>
        <time>2018-06-29T09:36:01Z</time>
      </trkpt>
      <trkpt lat="45.97948" lon="4.84245">
        <ele>275</ele>
        <time>2018-06-29T09:36:02Z</time>
      </trkpt>
      <trkpt lat="45.97954" lon="4.84239">
        <ele>275</ele>
        <time>2018-06-29T09:36:03Z</time>
      </trkpt>
      <trkpt lat="45.97959" lon="4.84235">
        <ele>274</ele>
        <time>2018-06-29T09:36:04Z</time>
      </trkpt>
      <trkpt lat="45.97964" lon="4.84229">
        <ele>274</ele>
        <time>2018-06-29T09:36:05Z</time>
      </trkpt>
      <trkpt lat="45.97967" lon="4.84222">
        <ele>274</ele>
        <time>2018-06-29T09:36:06Z</time>
      </trkpt>
      <trkpt lat="45.97973" lon="4.84216">
        <ele>274</ele>
        <time>2018-06-29T09:36:07Z</time>
      </trkpt>
      <trkpt lat="45.97977" lon="4.84211">
        <ele>274</ele>
        <time>2018-06-29T09:36:08Z</time>
      </trkpt>
      <trkpt lat="45.97983" lon="4.84205">
        <ele>274</ele>
        <time>2018-06-29T09:36:09Z</time>
      </trkpt>
      <trkpt lat="45.97988" lon="4.842">
        <ele>274</ele>
        <time>2018-06-29T09:36:10Z</time>
      </trkpt>
      <trkpt lat="45.97992" lon="4.84195">
        <ele>274</ele>
        <time>2018-06-29T09:36:11Z</time>
      </trkpt>
      <trkpt lat="45.97996" lon="4.8419">
        <ele>274</ele>
        <time>2018-06-29T09:36:12Z</time>
      </trkpt>
      <trkpt lat="45.98002" lon="4.84185">
        <ele>274</ele>
        <time>2018-06-29T09:36:13Z</time>
      </trkpt>
      <trkpt lat="45.98004" lon="4.84172">
        <ele>274</ele>
        <time>2018-06-29T09:36:14Z</time>
      </trkpt>
      <trkpt lat="45.98009" lon="4.84167">
        <ele>274</ele>
        <time>2018-06-29T09:36:15Z</time>
      </trkpt>
      <trkpt lat="45.98013" lon="4.84169">
        <ele>274</ele>
        <time>2018-06-29T09:36:16Z</time>
      </trkpt>
      <trkpt lat="45.98019" lon="4.84164">
        <ele>273</ele>
        <time>2018-06-29T09:36:17Z</time>
      </trkpt>
      <trkpt lat="45.98024" lon="4.84158">
        <ele>273</ele>
        <time>2018-06-29T09:36:18Z</time>
      </trkpt>
      <trkpt lat="45.9803" lon="4.84154">
        <ele>273</ele>
        <time>2018-06-29T09:36:19Z</time>
      </trkpt>
      <trkpt lat="45.98034" lon="4.8415">
        <ele>273</ele>
        <time>2018-06-29T09:36:20Z</time>
      </trkpt>
      <trkpt lat="45.98038" lon="4.84147">
        <ele>273</ele>
        <time>2018-06-29T09:36:21Z</time>
      </trkpt>
      <trkpt lat="45.98044" lon="4.84145">
        <ele>273</ele>
        <time>2018-06-29T09:36:22Z</time>
      </trkpt>
      <trkpt lat="45.98049" lon="4.84141">
        <ele>273</ele>
        <time>2018-06-29T09:36:23Z</time>
      </trkpt>
      <trkpt lat="45.98054" lon="4.84136">
        <ele>273</ele>
        <time>2018-06-29T09:36:24Z</time>
      </trkpt>
      <trkpt lat="45.98059" lon="4.84131">
        <ele>273</ele>
        <time>2018-06-29T09:36:25Z</time>
      </trkpt>
      <trkpt lat="45.98062" lon="4.84121">
        <ele>273</ele>
        <time>2018-06-29T09:36:26Z</time>
      </trkpt>
      <trkpt lat="45.98068" lon="4.84117">
        <ele>273</ele>
        <time>2018-06-29T09:36:27Z</time>
      </trkpt>
      <trkpt lat="45.98074" lon="4.84107">
        <ele>273</ele>
        <time>2018-06-29T09:36:28Z</time>
      </trkpt>
      <trkpt lat="45.98079" lon="4.84102">
        <ele>273</ele>
        <time>2018-06-29T09:36:29Z</time>
      </trkpt>
      <trkpt lat="45.98085" lon="4.84097">
        <ele>273</ele>
        <time>2018-06-29T09:36:30Z</time>
      </trkpt>
      <trkpt lat="45.98089" lon="4.84093">
        <ele>273</ele>
        <time>2018-06-29T09:36:31Z</time>
      </trkpt>
      <trkpt lat="45.98094" lon="4.84088">
        <ele>273</ele>
        <time>2018-06-29T09:36:32Z</time>
      </trkpt>
      <trkpt lat="45.981" lon="4.84083">
        <ele>273</ele>
        <time>2018-06-29T09:36:33Z</time>
      </trkpt>
      <trkpt lat="45.98104" lon="4.84079">
        <ele>273</ele>
        <time>2018-06-29T09:36:34Z</time>
      </trkpt>
      <trkpt lat="45.98109" lon="4.84075">
        <ele>273</ele>
        <time>2018-06-29T09:36:35Z</time>
      </trkpt>
      <trkpt lat="45.98114" lon="4.84071">
        <ele>273</ele>
        <time>2018-06-29T09:36:36Z</time>
      </trkpt>
      <trkpt lat="45.98119" lon="4.84065">
        <ele>273</ele>
        <time>2018-06-29T09:36:37Z</time>
      </trkpt>
      <trkpt lat="45.98123" lon="4.8406">
        <ele>273</ele>
        <time>2018-06-29T09:36:38Z</time>
      </trkpt>
      <trkpt lat="45.98127" lon="4.84056">
        <ele>273</ele>
        <time>2018-06-29T09:36:39Z</time>
      </trkpt>
      <trkpt lat="45.98131" lon="4.84051">
        <ele>273</ele>
        <time>2018-06-29T09:36:40Z</time>
      </trkpt>
      <trkpt lat="45.98135" lon="4.84047">
        <ele>273</ele>
        <time>2018-06-29T09:36:41Z</time>
      </trkpt>
      <trkpt lat="45.9814" lon="4.84043">
        <ele>273</ele>
        <time>2018-06-29T09:36:42Z</time>
      </trkpt>
      <trkpt lat="45.98144" lon="4.84037">
        <ele>273</ele>
        <time>2018-06-29T09:36:43Z</time>
      </trkpt>
      <trkpt lat="45.98146" lon="4.84033">
        <ele>273</ele>
        <time>2018-06-29T09:36:44Z</time>
      </trkpt>
      <trkpt lat="45.9815" lon="4.84027">
        <ele>273</ele>
        <time>2018-06-29T09:36:45Z</time>
      </trkpt>
      <trkpt lat="45.98156" lon="4.84017">
        <ele>273</ele>
        <time>2018-06-29T09:36:46Z</time>
      </trkpt>
      <trkpt lat="45.98161" lon="4.84011">
        <ele>273</ele>
        <time>2018-06-29T09:36:47Z</time>
      </trkpt>
      <trkpt lat="45.98164" lon="4.84003">
        <ele>273</ele>
        <time>2018-06-29T09:36:48Z</time>
      </trkpt>
      <trkpt lat="45.98168" lon="4.83994">
        <ele>273</ele>
        <time>2018-06-29T09:36:49Z</time>
      </trkpt>
      <trkpt lat="45.9817" lon="4.8399">
        <ele>273</ele>
        <time>2018-06-29T09:36:50Z</time>
      </trkpt>
      <trkpt lat="45.98173" lon="4.83983">
        <ele>273</ele>
        <time>2018-06-29T09:36:51Z</time>
      </trkpt>
      <trkpt lat="45.98177" lon="4.83973">
        <ele>273</ele>
        <time>2018-06-29T09:36:52Z</time>
      </trkpt>
      <trkpt lat="45.98186" lon="4.8396">
        <ele>273</ele>
        <time>2018-06-29T09:36:53Z</time>
      </trkpt>
      <trkpt lat="45.98188" lon="4.83951">
        <ele>273</ele>
        <time>2018-06-29T09:36:54Z</time>
      </trkpt>
      <trkpt lat="45.98191" lon="4.83944">
        <ele>273</ele>
        <time>2018-06-29T09:36:55Z</time>
      </trkpt>
      <trkpt lat="45.98194" lon="4.83936">
        <ele>273</ele>
        <time>2018-06-29T09:36:56Z</time>
      </trkpt>
      <trkpt lat="45.98197" lon="4.83928">
        <ele>273</ele>
        <time>2018-06-29T09:36:57Z</time>
      </trkpt>
      <trkpt lat="45.98201" lon="4.83922">
        <ele>273</ele>
        <time>2018-06-29T09:36:58Z</time>
      </trkpt>
      <trkpt lat="45.98203" lon="4.83914">
        <ele>273</ele>
        <time>2018-06-29T09:36:59Z</time>
      </trkpt>
      <trkpt lat="45.98205" lon="4.83906">
        <ele>273</ele>
        <time>2018-06-29T09:37:00Z</time>
      </trkpt>
      <trkpt lat="45.98207" lon="4.83899">
        <ele>273</ele>
        <time>2018-06-29T09:37:01Z</time>
      </trkpt>
      <trkpt lat="45.98209" lon="4.83893">
        <ele>273</ele>
        <time>2018-06-29T09:37:02Z</time>
      </trkpt>
      <trkpt lat="45.98212" lon="4.83885">
        <ele>273</ele>
        <time>2018-06-29T09:37:03Z</time>
      </trkpt>
      <trkpt lat="45.98216" lon="4.83876">
        <ele>272</ele>
        <time>2018-06-29T09:37:04Z</time>
      </trkpt>
      <trkpt lat="45.98219" lon="4.83869">
        <ele>272</ele>
        <time>2018-06-29T09:37:05Z</time>
      </trkpt>
      <trkpt lat="45.98221" lon="4.83861">
        <ele>272</ele>
        <time>2018-06-29T09:37:05.977Z</time>
      </trkpt>
      <trkpt lat="45.98221" lon="4.83852">
        <ele>272</ele>
        <time>2018-06-29T09:37:07Z</time>
      </trkpt>
      <trkpt lat="45.98223" lon="4.83845">
        <ele>272</ele>
        <time>2018-06-29T09:37:08Z</time>
      </trkpt>
      <trkpt lat="45.98226" lon="4.83836">
        <ele>272</ele>
        <time>2018-06-29T09:37:09Z</time>
      </trkpt>
      <trkpt lat="45.98228" lon="4.83827">
        <ele>272</ele>
        <time>2018-06-29T09:37:10Z</time>
      </trkpt>
      <trkpt lat="45.98234" lon="4.83818">
        <ele>272</ele>
        <time>2018-06-29T09:37:11Z</time>
      </trkpt>
      <trkpt lat="45.98237" lon="4.83809">
        <ele>272</ele>
        <time>2018-06-29T09:37:12Z</time>
      </trkpt>
      <trkpt lat="45.9824" lon="4.838">
        <ele>272</ele>
        <time>2018-06-29T09:37:13Z</time>
      </trkpt>
      <trkpt lat="45.98243" lon="4.83791">
        <ele>272</ele>
        <time>2018-06-29T09:37:14Z</time>
      </trkpt>
      <trkpt lat="45.98245" lon="4.83782">
        <ele>272</ele>
        <time>2018-06-29T09:37:15Z</time>
      </trkpt>
      <trkpt lat="45.98248" lon="4.83774">
        <ele>272</ele>
        <time>2018-06-29T09:37:16Z</time>
      </trkpt>
      <trkpt lat="45.9825" lon="4.83766">
        <ele>272</ele>
        <time>2018-06-29T09:37:17Z</time>
      </trkpt>
      <trkpt lat="45.98253" lon="4.8376">
        <ele>272</ele>
        <time>2018-06-29T09:37:18Z</time>
      </trkpt>
      <trkpt lat="45.98257" lon="4.83752">
        <ele>272</ele>
        <time>2018-06-29T09:37:19Z</time>
      </trkpt>
      <trkpt lat="45.9826" lon="4.83746">
        <ele>272</ele>
        <time>2018-06-29T09:37:20Z</time>
      </trkpt>
      <trkpt lat="45.98264" lon="4.83737">
        <ele>272</ele>
        <time>2018-06-29T09:37:21Z</time>
      </trkpt>
      <trkpt lat="45.98268" lon="4.83731">
        <ele>272</ele>
        <time>2018-06-29T09:37:21.956Z</time>
      </trkpt>
      <trkpt lat="45.9827" lon="4.83724">
        <ele>272</ele>
        <time>2018-06-29T09:37:23Z</time>
      </trkpt>
      <trkpt lat="45.98273" lon="4.83717">
        <ele>272</ele>
        <time>2018-06-29T09:37:24Z</time>
      </trkpt>
      <trkpt lat="45.98276" lon="4.8371">
        <ele>272</ele>
        <time>2018-06-29T09:37:25Z</time>
      </trkpt>
      <trkpt lat="45.98279" lon="4.83701">
        <ele>272</ele>
        <time>2018-06-29T09:37:26Z</time>
      </trkpt>
      <trkpt lat="45.98278" lon="4.83693">
        <ele>272</ele>
        <time>2018-06-29T09:37:27Z</time>
      </trkpt>
      <trkpt lat="45.98281" lon="4.83685">
        <ele>272</ele>
        <time>2018-06-29T09:37:28Z</time>
      </trkpt>
      <trkpt lat="45.98283" lon="4.83678">
        <ele>272</ele>
        <time>2018-06-29T09:37:29Z</time>
      </trkpt>
      <trkpt lat="45.98287" lon="4.83671">
        <ele>272</ele>
        <time>2018-06-29T09:37:30Z</time>
      </trkpt>
      <trkpt lat="45.9829" lon="4.83663">
        <ele>272</ele>
        <time>2018-06-29T09:37:31Z</time>
      </trkpt>
      <trkpt lat="45.98295" lon="4.83654">
        <ele>271</ele>
        <time>2018-06-29T09:37:32Z</time>
      </trkpt>
      <trkpt lat="45.98299" lon="4.83647">
        <ele>271</ele>
        <time>2018-06-29T09:37:33Z</time>
      </trkpt>
      <trkpt lat="45.98302" lon="4.83639">
        <ele>271</ele>
        <time>2018-06-29T09:37:34Z</time>
      </trkpt>
      <trkpt lat="45.98305" lon="4.83632">
        <ele>271</ele>
        <time>2018-06-29T09:37:35Z</time>
      </trkpt>
      <trkpt lat="45.98308" lon="4.83624">
        <ele>271</ele>
        <time>2018-06-29T09:37:36Z</time>
      </trkpt>
      <trkpt lat="45.98311" lon="4.83616">
        <ele>271</ele>
        <time>2018-06-29T09:37:37Z</time>
      </trkpt>
      <trkpt lat="45.98316" lon="4.83609">
        <ele>271</ele>
        <time>2018-06-29T09:37:38Z</time>
      </trkpt>
      <trkpt lat="45.9832" lon="4.83602">
        <ele>271</ele>
        <time>2018-06-29T09:37:39Z</time>
      </trkpt>
      <trkpt lat="45.98325" lon="4.83595">
        <ele>271</ele>
        <time>2018-06-29T09:37:40Z</time>
      </trkpt>
      <trkpt lat="45.9833" lon="4.83589">
        <ele>270</ele>
        <time>2018-06-29T09:37:41Z</time>
      </trkpt>
      <trkpt lat="45.98335" lon="4.83582">
        <ele>270</ele>
        <time>2018-06-29T09:37:42Z</time>
      </trkpt>
      <trkpt lat="45.9834" lon="4.83576">
        <ele>270</ele>
        <time>2018-06-29T09:37:43Z</time>
      </trkpt>
      <trkpt lat="45.98345" lon="4.83569">
        <ele>269</ele>
        <time>2018-06-29T09:37:44Z</time>
      </trkpt>
      <trkpt lat="45.98349" lon="4.83565">
        <ele>269</ele>
        <time>2018-06-29T09:37:45Z</time>
      </trkpt>
      <trkpt lat="45.98354" lon="4.83559">
        <ele>269</ele>
        <time>2018-06-29T09:37:46Z</time>
      </trkpt>
      <trkpt lat="45.98358" lon="4.83553">
        <ele>269</ele>
        <time>2018-06-29T09:37:47Z</time>
      </trkpt>
      <trkpt lat="45.98363" lon="4.83545">
        <ele>269</ele>
        <time>2018-06-29T09:37:48Z</time>
      </trkpt>
      <trkpt lat="45.98367" lon="4.83539">
        <ele>269</ele>
        <time>2018-06-29T09:37:49Z</time>
      </trkpt>
      <trkpt lat="45.98373" lon="4.8353">
        <ele>269</ele>
        <time>2018-06-29T09:37:50Z</time>
      </trkpt>
      <trkpt lat="45.98377" lon="4.83524">
        <ele>269</ele>
        <time>2018-06-29T09:37:51Z</time>
      </trkpt>
      <trkpt lat="45.98381" lon="4.83519">
        <ele>269</ele>
        <time>2018-06-29T09:37:52Z</time>
      </trkpt>
      <trkpt lat="45.98386" lon="4.83513">
        <ele>269</ele>
        <time>2018-06-29T09:37:53Z</time>
      </trkpt>
      <trkpt lat="45.98391" lon="4.83507">
        <ele>269</ele>
        <time>2018-06-29T09:37:53.953Z</time>
      </trkpt>
      <trkpt lat="45.98397" lon="4.83501">
        <ele>269</ele>
        <time>2018-06-29T09:37:55Z</time>
      </trkpt>
      <trkpt lat="45.984" lon="4.83491">
        <ele>269</ele>
        <time>2018-06-29T09:37:56Z</time>
      </trkpt>
      <trkpt lat="45.98405" lon="4.83483">
        <ele>269</ele>
        <time>2018-06-29T09:37:57Z</time>
      </trkpt>
      <trkpt lat="45.98411" lon="4.83475">
        <ele>269</ele>
        <time>2018-06-29T09:37:58Z</time>
      </trkpt>
      <trkpt lat="45.98417" lon="4.83467">
        <ele>268</ele>
        <time>2018-06-29T09:37:59Z</time>
      </trkpt>
      <trkpt lat="45.98423" lon="4.83457">
        <ele>268</ele>
        <time>2018-06-29T09:38:00Z</time>
      </trkpt>
      <trkpt lat="45.98428" lon="4.8345">
        <ele>268</ele>
        <time>2018-06-29T09:38:01Z</time>
      </trkpt>
      <trkpt lat="45.98432" lon="4.83445">
        <ele>268</ele>
        <time>2018-06-29T09:38:02Z</time>
      </trkpt>
      <trkpt lat="45.98438" lon="4.83439">
        <ele>268</ele>
        <time>2018-06-29T09:38:03Z</time>
      </trkpt>
      <trkpt lat="45.98442" lon="4.83434">
        <ele>269</ele>
        <time>2018-06-29T09:38:04Z</time>
      </trkpt>
      <trkpt lat="45.98446" lon="4.83429">
        <ele>269</ele>
        <time>2018-06-29T09:38:05Z</time>
      </trkpt>
      <trkpt lat="45.9845" lon="4.83424">
        <ele>269</ele>
        <time>2018-06-29T09:38:06Z</time>
      </trkpt>
      <trkpt lat="45.98454" lon="4.83418">
        <ele>269</ele>
        <time>2018-06-29T09:38:07Z</time>
      </trkpt>
      <trkpt lat="45.98458" lon="4.83413">
        <ele>269</ele>
        <time>2018-06-29T09:38:08Z</time>
      </trkpt>
      <trkpt lat="45.98464" lon="4.83403">
        <ele>269</ele>
        <time>2018-06-29T09:38:09Z</time>
      </trkpt>
      <trkpt lat="45.98468" lon="4.83398">
        <ele>269</ele>
        <time>2018-06-29T09:38:10Z</time>
      </trkpt>
      <trkpt lat="45.98472" lon="4.83392">
        <ele>269</ele>
        <time>2018-06-29T09:38:11Z</time>
      </trkpt>
      <trkpt lat="45.98475" lon="4.83388">
        <ele>269</ele>
        <time>2018-06-29T09:38:12Z</time>
      </trkpt>
      <trkpt lat="45.98479" lon="4.83383">
        <ele>269</ele>
        <time>2018-06-29T09:38:13Z</time>
      </trkpt>
      <trkpt lat="45.98483" lon="4.83376">
        <ele>269</ele>
        <time>2018-06-29T09:38:14Z</time>
      </trkpt>
      <trkpt lat="45.98487" lon="4.83371">
        <ele>270</ele>
        <time>2018-06-29T09:38:15Z</time>
      </trkpt>
      <trkpt lat="45.9849" lon="4.83365">
        <ele>270</ele>
        <time>2018-06-29T09:38:16Z</time>
      </trkpt>
      <trkpt lat="45.98496" lon="4.83357">
        <ele>270</ele>
        <time>2018-06-29T09:38:18Z</time>
      </trkpt>
      <trkpt lat="45.98499" lon="4.83352">
        <ele>270</ele>
        <time>2018-06-29T09:38:19Z</time>
      </trkpt>
      <trkpt lat="45.98502" lon="4.83348">
        <ele>270</ele>
        <time>2018-06-29T09:38:19.993Z</time>
      </trkpt>
      <trkpt lat="45.98507" lon="4.83343">
        <ele>270</ele>
        <time>2018-06-29T09:38:21Z</time>
      </trkpt>
      <trkpt lat="45.98508" lon="4.83337">
        <ele>270</ele>
        <time>2018-06-29T09:38:22Z</time>
      </trkpt>
      <trkpt lat="45.98513" lon="4.83332">
        <ele>270</ele>
        <time>2018-06-29T09:38:23Z</time>
      </trkpt>
      <trkpt lat="45.98517" lon="4.83327">
        <ele>270</ele>
        <time>2018-06-29T09:38:24Z</time>
      </trkpt>
      <trkpt lat="45.98522" lon="4.83321">
        <ele>270</ele>
        <time>2018-06-29T09:38:25Z</time>
      </trkpt>
      <trkpt lat="45.98525" lon="4.83316">
        <ele>269</ele>
        <time>2018-06-29T09:38:26Z</time>
      </trkpt>
      <trkpt lat="45.98529" lon="4.8331">
        <ele>269</ele>
        <time>2018-06-29T09:38:27Z</time>
      </trkpt>
      <trkpt lat="45.98533" lon="4.83305">
        <ele>269</ele>
        <time>2018-06-29T09:38:28Z</time>
      </trkpt>
      <trkpt lat="45.98537" lon="4.83299">
        <ele>269</ele>
        <time>2018-06-29T09:38:29Z</time>
      </trkpt>
      <trkpt lat="45.98542" lon="4.83294">
        <ele>269</ele>
        <time>2018-06-29T09:38:30Z</time>
      </trkpt>
      <trkpt lat="45.98545" lon="4.83288">
        <ele>269</ele>
        <time>2018-06-29T09:38:31Z</time>
      </trkpt>
      <trkpt lat="45.98549" lon="4.83282">
        <ele>269</ele>
        <time>2018-06-29T09:38:32Z</time>
      </trkpt>
      <trkpt lat="45.98554" lon="4.83277">
        <ele>269</ele>
        <time>2018-06-29T09:38:33Z</time>
      </trkpt>
      <trkpt lat="45.98557" lon="4.83272">
        <ele>269</ele>
        <time>2018-06-29T09:38:34Z</time>
      </trkpt>
      <trkpt lat="45.98562" lon="4.83266">
        <ele>269</ele>
        <time>2018-06-29T09:38:35Z</time>
      </trkpt>
      <trkpt lat="45.98566" lon="4.83261">
        <ele>269</ele>
        <time>2018-06-29T09:38:36Z</time>
      </trkpt>
      <trkpt lat="45.9857" lon="4.83256">
        <ele>269</ele>
        <time>2018-06-29T09:38:37Z</time>
      </trkpt>
      <trkpt lat="45.98573" lon="4.83251">
        <ele>268</ele>
        <time>2018-06-29T09:38:38Z</time>
      </trkpt>
      <trkpt lat="45.98577" lon="4.83246">
        <ele>268</ele>
        <time>2018-06-29T09:38:39Z</time>
      </trkpt>
      <trkpt lat="45.98584" lon="4.83238">
        <ele>268</ele>
        <time>2018-06-29T09:38:41Z</time>
      </trkpt>
      <trkpt lat="45.98587" lon="4.83233">
        <ele>268</ele>
        <time>2018-06-29T09:38:42Z</time>
      </trkpt>
      <trkpt lat="45.98593" lon="4.83225">
        <ele>268</ele>
        <time>2018-06-29T09:38:44Z</time>
      </trkpt>
      <trkpt lat="45.98597" lon="4.8322">
        <ele>268</ele>
        <time>2018-06-29T09:38:45Z</time>
      </trkpt>
      <trkpt lat="45.98601" lon="4.83215">
        <ele>267</ele>
        <time>2018-06-29T09:38:46Z</time>
      </trkpt>
      <trkpt lat="45.98604" lon="4.83209">
        <ele>267</ele>
        <time>2018-06-29T09:38:47Z</time>
      </trkpt>
      <trkpt lat="45.98609" lon="4.83203">
        <ele>267</ele>
        <time>2018-06-29T09:38:48Z</time>
      </trkpt>
      <trkpt lat="45.98613" lon="4.83198">
        <ele>267</ele>
        <time>2018-06-29T09:38:49Z</time>
      </trkpt>
      <trkpt lat="45.98619" lon="4.83191">
        <ele>267</ele>
        <time>2018-06-29T09:38:50Z</time>
      </trkpt>
      <trkpt lat="45.98624" lon="4.83185">
        <ele>267</ele>
        <time>2018-06-29T09:38:51Z</time>
      </trkpt>
      <trkpt lat="45.9863" lon="4.83181">
        <ele>267</ele>
        <time>2018-06-29T09:38:52Z</time>
      </trkpt>
      <trkpt lat="45.98636" lon="4.83176">
        <ele>267</ele>
        <time>2018-06-29T09:38:53Z</time>
      </trkpt>
      <trkpt lat="45.98641" lon="4.83171">
        <ele>267</ele>
        <time>2018-06-29T09:38:54Z</time>
      </trkpt>
      <trkpt lat="45.98646" lon="4.83165">
        <ele>267</ele>
        <time>2018-06-29T09:38:55Z</time>
      </trkpt>
      <trkpt lat="45.98651" lon="4.83161">
        <ele>267</ele>
        <time>2018-06-29T09:38:56Z</time>
      </trkpt>
      <trkpt lat="45.98656" lon="4.83157">
        <ele>267</ele>
        <time>2018-06-29T09:38:57Z</time>
      </trkpt>
      <trkpt lat="45.98661" lon="4.83152">
        <ele>267</ele>
        <time>2018-06-29T09:38:58Z</time>
      </trkpt>
      <trkpt lat="45.98666" lon="4.83148">
        <ele>267</ele>
        <time>2018-06-29T09:38:59Z</time>
      </trkpt>
      <trkpt lat="45.98674" lon="4.83141">
        <ele>266</ele>
        <time>2018-06-29T09:39:00Z</time>
      </trkpt>
      <trkpt lat="45.98679" lon="4.83138">
        <ele>266</ele>
        <time>2018-06-29T09:39:01Z</time>
      </trkpt>
      <trkpt lat="45.98685" lon="4.83134">
        <ele>266</ele>
        <time>2018-06-29T09:39:02Z</time>
      </trkpt>
      <trkpt lat="45.9869" lon="4.8313">
        <ele>267</ele>
        <time>2018-06-29T09:39:03Z</time>
      </trkpt>
      <trkpt lat="45.98695" lon="4.83127">
        <ele>267</ele>
        <time>2018-06-29T09:39:04Z</time>
      </trkpt>
      <trkpt lat="45.98702" lon="4.8312">
        <ele>267</ele>
        <time>2018-06-29T09:39:05Z</time>
      </trkpt>
      <trkpt lat="45.98707" lon="4.83117">
        <ele>267</ele>
        <time>2018-06-29T09:39:06Z</time>
      </trkpt>
      <trkpt lat="45.98712" lon="4.83113">
        <ele>267</ele>
        <time>2018-06-29T09:39:07Z</time>
      </trkpt>
      <trkpt lat="45.98717" lon="4.83111">
        <ele>267</ele>
        <time>2018-06-29T09:39:08Z</time>
      </trkpt>
      <trkpt lat="45.98721" lon="4.83108">
        <ele>267</ele>
        <time>2018-06-29T09:39:09Z</time>
      </trkpt>
      <trkpt lat="45.98726" lon="4.83104">
        <ele>267</ele>
        <time>2018-06-29T09:39:10Z</time>
      </trkpt>
      <trkpt lat="45.98732" lon="4.831">
        <ele>267</ele>
        <time>2018-06-29T09:39:11Z</time>
      </trkpt>
      <trkpt lat="45.98738" lon="4.83096">
        <ele>267</ele>
        <time>2018-06-29T09:39:12Z</time>
      </trkpt>
      <trkpt lat="45.98743" lon="4.83093">
        <ele>267</ele>
        <time>2018-06-29T09:39:13Z</time>
      </trkpt>
      <trkpt lat="45.98747" lon="4.83089">
        <ele>267</ele>
        <time>2018-06-29T09:39:14Z</time>
      </trkpt>
      <trkpt lat="45.98752" lon="4.83084">
        <ele>267</ele>
        <time>2018-06-29T09:39:15Z</time>
      </trkpt>
      <trkpt lat="45.98757" lon="4.8308">
        <ele>266</ele>
        <time>2018-06-29T09:39:16Z</time>
      </trkpt>
      <trkpt lat="45.98762" lon="4.83076">
        <ele>266</ele>
        <time>2018-06-29T09:39:17Z</time>
      </trkpt>
      <trkpt lat="45.98767" lon="4.83072">
        <ele>266</ele>
        <time>2018-06-29T09:39:18Z</time>
      </trkpt>
      <trkpt lat="45.98773" lon="4.83068">
        <ele>265</ele>
        <time>2018-06-29T09:39:19Z</time>
      </trkpt>
      <trkpt lat="45.98777" lon="4.83065">
        <ele>265</ele>
        <time>2018-06-29T09:39:20Z</time>
      </trkpt>
      <trkpt lat="45.98783" lon="4.83061">
        <ele>265</ele>
        <time>2018-06-29T09:39:21Z</time>
      </trkpt>
      <trkpt lat="45.98788" lon="4.83057">
        <ele>265</ele>
        <time>2018-06-29T09:39:22Z</time>
      </trkpt>
      <trkpt lat="45.98793" lon="4.83052">
        <ele>265</ele>
        <time>2018-06-29T09:39:23Z</time>
      </trkpt>
      <trkpt lat="45.98799" lon="4.83048">
        <ele>264</ele>
        <time>2018-06-29T09:39:24Z</time>
      </trkpt>
      <trkpt lat="45.98805" lon="4.83044">
        <ele>264</ele>
        <time>2018-06-29T09:39:25Z</time>
      </trkpt>
      <trkpt lat="45.98811" lon="4.8304">
        <ele>264</ele>
        <time>2018-06-29T09:39:26Z</time>
      </trkpt>
      <trkpt lat="45.98817" lon="4.83034">
        <ele>264</ele>
        <time>2018-06-29T09:39:27Z</time>
      </trkpt>
      <trkpt lat="45.98822" lon="4.83024">
        <ele>264</ele>
        <time>2018-06-29T09:39:28Z</time>
      </trkpt>
      <trkpt lat="45.98828" lon="4.83018">
        <ele>264</ele>
        <time>2018-06-29T09:39:29Z</time>
      </trkpt>
      <trkpt lat="45.98835" lon="4.83013">
        <ele>262</ele>
        <time>2018-06-29T09:39:30Z</time>
      </trkpt>
      <trkpt lat="45.98842" lon="4.83009">
        <ele>262</ele>
        <time>2018-06-29T09:39:31Z</time>
      </trkpt>
      <trkpt lat="45.98849" lon="4.83006">
        <ele>261</ele>
        <time>2018-06-29T09:39:32Z</time>
      </trkpt>
      <trkpt lat="45.98856" lon="4.83001">
        <ele>261</ele>
        <time>2018-06-29T09:39:33Z</time>
      </trkpt>
      <trkpt lat="45.98864" lon="4.82997">
        <ele>260</ele>
        <time>2018-06-29T09:39:34Z</time>
      </trkpt>
      <trkpt lat="45.98872" lon="4.82993">
        <ele>260</ele>
        <time>2018-06-29T09:39:35Z</time>
      </trkpt>
      <trkpt lat="45.98882" lon="4.82987">
        <ele>259</ele>
        <time>2018-06-29T09:39:36Z</time>
      </trkpt>
      <trkpt lat="45.98889" lon="4.82983">
        <ele>259</ele>
        <time>2018-06-29T09:39:37Z</time>
      </trkpt>
      <trkpt lat="45.98898" lon="4.82975">
        <ele>259</ele>
        <time>2018-06-29T09:39:38Z</time>
      </trkpt>
      <trkpt lat="45.98906" lon="4.82967">
        <ele>259</ele>
        <time>2018-06-29T09:39:39Z</time>
      </trkpt>
      <trkpt lat="45.98913" lon="4.82957">
        <ele>258</ele>
        <time>2018-06-29T09:39:40Z</time>
      </trkpt>
      <trkpt lat="45.98917" lon="4.82947">
        <ele>255</ele>
        <time>2018-06-29T09:39:41Z</time>
      </trkpt>
      <trkpt lat="45.98924" lon="4.82935">
        <ele>255</ele>
        <time>2018-06-29T09:39:42Z</time>
      </trkpt>
      <trkpt lat="45.9893" lon="4.82919">
        <ele>255</ele>
        <time>2018-06-29T09:39:43Z</time>
      </trkpt>
      <trkpt lat="45.98936" lon="4.82904">
        <ele>254</ele>
        <time>2018-06-29T09:39:44Z</time>
      </trkpt>
      <trkpt lat="45.98943" lon="4.82888">
        <ele>253</ele>
        <time>2018-06-29T09:39:45Z</time>
      </trkpt>
      <trkpt lat="45.98949" lon="4.82872">
        <ele>253</ele>
        <time>2018-06-29T09:39:46Z</time>
      </trkpt>
      <trkpt lat="45.98956" lon="4.82856">
        <ele>252</ele>
        <time>2018-06-29T09:39:47Z</time>
      </trkpt>
      <trkpt lat="45.98963" lon="4.82839">
        <ele>252</ele>
        <time>2018-06-29T09:39:48Z</time>
      </trkpt>
      <trkpt lat="45.98971" lon="4.82822">
        <ele>249</ele>
        <time>2018-06-29T09:39:49Z</time>
      </trkpt>
      <trkpt lat="45.98978" lon="4.82806">
        <ele>248</ele>
        <time>2018-06-29T09:39:50Z</time>
      </trkpt>
      <trkpt lat="45.98983" lon="4.82787">
        <ele>247</ele>
        <time>2018-06-29T09:39:51Z</time>
      </trkpt>
      <trkpt lat="45.98988" lon="4.8277">
        <ele>246</ele>
        <time>2018-06-29T09:39:52Z</time>
      </trkpt>
      <trkpt lat="45.98995" lon="4.82753">
        <ele>243</ele>
        <time>2018-06-29T09:39:53Z</time>
      </trkpt>
      <trkpt lat="45.99002" lon="4.82736">
        <ele>240</ele>
        <time>2018-06-29T09:39:54Z</time>
      </trkpt>
      <trkpt lat="45.9901" lon="4.82719">
        <ele>239</ele>
        <time>2018-06-29T09:39:55Z</time>
      </trkpt>
      <trkpt lat="45.99019" lon="4.82704">
        <ele>238</ele>
        <time>2018-06-29T09:39:56Z</time>
      </trkpt>
      <trkpt lat="45.99024" lon="4.8269">
        <ele>238</ele>
        <time>2018-06-29T09:39:57Z</time>
      </trkpt>
      <trkpt lat="45.99031" lon="4.82675">
        <ele>238</ele>
        <time>2018-06-29T09:39:58Z</time>
      </trkpt>
      <trkpt lat="45.99036" lon="4.82663">
        <ele>237</ele>
        <time>2018-06-29T09:39:59Z</time>
      </trkpt>
      <trkpt lat="45.99042" lon="4.8265">
        <ele>236</ele>
        <time>2018-06-29T09:40:00Z</time>
      </trkpt>
      <trkpt lat="45.99048" lon="4.82639">
        <ele>236</ele>
        <time>2018-06-29T09:40:01Z</time>
      </trkpt>
      <trkpt lat="45.99053" lon="4.82629">
        <ele>236</ele>
        <time>2018-06-29T09:40:02Z</time>
      </trkpt>
      <trkpt lat="45.99057" lon="4.8262">
        <ele>236</ele>
        <time>2018-06-29T09:40:03Z</time>
      </trkpt>
      <trkpt lat="45.99061" lon="4.82612">
        <ele>236</ele>
        <time>2018-06-29T09:40:04Z</time>
      </trkpt>
      <trkpt lat="45.99064" lon="4.82605">
        <ele>236</ele>
        <time>2018-06-29T09:40:05Z</time>
      </trkpt>
      <trkpt lat="45.99065" lon="4.82598">
        <ele>236</ele>
        <time>2018-06-29T09:40:06Z</time>
      </trkpt>
      <trkpt lat="45.99068" lon="4.82592">
        <ele>235</ele>
        <time>2018-06-29T09:40:07Z</time>
      </trkpt>
      <trkpt lat="45.99072" lon="4.82581">
        <ele>235</ele>
        <time>2018-06-29T09:40:09Z</time>
      </trkpt>
      <trkpt lat="45.99069" lon="4.82575">
        <ele>235</ele>
        <time>2018-06-29T09:40:10Z</time>
      </trkpt>
      <trkpt lat="45.99063" lon="4.82567">
        <ele>235</ele>
        <time>2018-06-29T09:40:12Z</time>
      </trkpt>
      <trkpt lat="45.99059" lon="4.82565">
        <ele>235</ele>
        <time>2018-06-29T09:40:13Z</time>
      </trkpt>
      <trkpt lat="45.99054" lon="4.82562">
        <ele>235</ele>
        <time>2018-06-29T09:40:14Z</time>
      </trkpt>
      <trkpt lat="45.99049" lon="4.8256">
        <ele>235</ele>
        <time>2018-06-29T09:40:15Z</time>
      </trkpt>
      <trkpt lat="45.99044" lon="4.82557">
        <ele>235</ele>
        <time>2018-06-29T09:40:16Z</time>
      </trkpt>
      <trkpt lat="45.99038" lon="4.82555">
        <ele>235</ele>
        <time>2018-06-29T09:40:17Z</time>
      </trkpt>
      <trkpt lat="45.99033" lon="4.82552">
        <ele>235</ele>
        <time>2018-06-29T09:40:18Z</time>
      </trkpt>
      <trkpt lat="45.99025" lon="4.8255">
        <ele>235</ele>
        <time>2018-06-29T09:40:19Z</time>
      </trkpt>
      <trkpt lat="45.99021" lon="4.82546">
        <ele>235</ele>
        <time>2018-06-29T09:40:20Z</time>
      </trkpt>
      <trkpt lat="45.99017" lon="4.82541">
        <ele>235</ele>
        <time>2018-06-29T09:40:21Z</time>
      </trkpt>
      <trkpt lat="45.99013" lon="4.82533">
        <ele>235</ele>
        <time>2018-06-29T09:40:22Z</time>
      </trkpt>
      <trkpt lat="45.99008" lon="4.82528">
        <ele>235</ele>
        <time>2018-06-29T09:40:23Z</time>
      </trkpt>
      <trkpt lat="45.99002" lon="4.82519">
        <ele>235</ele>
        <time>2018-06-29T09:40:25Z</time>
      </trkpt>
      <trkpt lat="45.99" lon="4.82513">
        <ele>236</ele>
        <time>2018-06-29T09:40:26Z</time>
      </trkpt>
      <trkpt lat="45.98994" lon="4.82503">
        <ele>236</ele>
        <time>2018-06-29T09:40:28Z</time>
      </trkpt>
      <trkpt lat="45.98992" lon="4.82497">
        <ele>236</ele>
        <time>2018-06-29T09:40:29Z</time>
      </trkpt>
      <trkpt lat="45.9899" lon="4.82491">
        <ele>236</ele>
        <time>2018-06-29T09:40:30Z</time>
      </trkpt>
      <trkpt lat="45.98988" lon="4.82484">
        <ele>236</ele>
        <time>2018-06-29T09:40:31Z</time>
      </trkpt>
      <trkpt lat="45.98983" lon="4.82475">
        <ele>236</ele>
        <time>2018-06-29T09:40:32Z</time>
      </trkpt>
      <trkpt lat="45.9898" lon="4.82467">
        <ele>236</ele>
        <time>2018-06-29T09:40:33Z</time>
      </trkpt>
      <trkpt lat="45.98979" lon="4.8246">
        <ele>236</ele>
        <time>2018-06-29T09:40:34Z</time>
      </trkpt>
      <trkpt lat="45.98977" lon="4.82453">
        <ele>236</ele>
        <time>2018-06-29T09:40:35Z</time>
      </trkpt>
      <trkpt lat="45.98976" lon="4.82446">
        <ele>236</ele>
        <time>2018-06-29T09:40:36Z</time>
      </trkpt>
      <trkpt lat="45.98974" lon="4.82439">
        <ele>236</ele>
        <time>2018-06-29T09:40:37Z</time>
      </trkpt>
      <trkpt lat="45.98974" lon="4.82432">
        <ele>236</ele>
        <time>2018-06-29T09:40:38Z</time>
      </trkpt>
      <trkpt lat="45.98973" lon="4.82425">
        <ele>236</ele>
        <time>2018-06-29T09:40:39Z</time>
      </trkpt>
      <trkpt lat="45.98971" lon="4.82418">
        <ele>236</ele>
        <time>2018-06-29T09:40:40Z</time>
      </trkpt>
      <trkpt lat="45.9897" lon="4.8241">
        <ele>235</ele>
        <time>2018-06-29T09:40:41Z</time>
      </trkpt>
      <trkpt lat="45.98967" lon="4.82404">
        <ele>235</ele>
        <time>2018-06-29T09:40:42Z</time>
      </trkpt>
      <trkpt lat="45.98966" lon="4.82397">
        <ele>235</ele>
        <time>2018-06-29T09:40:43Z</time>
      </trkpt>
      <trkpt lat="45.98965" lon="4.8239">
        <ele>235</ele>
        <time>2018-06-29T09:40:44Z</time>
      </trkpt>
      <trkpt lat="45.98963" lon="4.82383">
        <ele>235</ele>
        <time>2018-06-29T09:40:45Z</time>
      </trkpt>
      <trkpt lat="45.98961" lon="4.82376">
        <ele>235</ele>
        <time>2018-06-29T09:40:46Z</time>
      </trkpt>
      <trkpt lat="45.98959" lon="4.82369">
        <ele>235</ele>
        <time>2018-06-29T09:40:47Z</time>
      </trkpt>
      <trkpt lat="45.98956" lon="4.82362">
        <ele>235</ele>
        <time>2018-06-29T09:40:48Z</time>
      </trkpt>
      <trkpt lat="45.98953" lon="4.82355">
        <ele>235</ele>
        <time>2018-06-29T09:40:49Z</time>
      </trkpt>
      <trkpt lat="45.9895" lon="4.82345">
        <ele>235</ele>
        <time>2018-06-29T09:40:51Z</time>
      </trkpt>
      <trkpt lat="45.98946" lon="4.82338">
        <ele>235</ele>
        <time>2018-06-29T09:40:52Z</time>
      </trkpt>
      <trkpt lat="45.98941" lon="4.82332">
        <ele>234</ele>
        <time>2018-06-29T09:40:53Z</time>
      </trkpt>
      <trkpt lat="45.98938" lon="4.82326">
        <ele>235</ele>
        <time>2018-06-29T09:40:54Z</time>
      </trkpt>
      <trkpt lat="45.98934" lon="4.8232">
        <ele>235</ele>
        <time>2018-06-29T09:40:55Z</time>
      </trkpt>
      <trkpt lat="45.9893" lon="4.82316">
        <ele>235</ele>
        <time>2018-06-29T09:40:56Z</time>
      </trkpt>
      <trkpt lat="45.98925" lon="4.82307">
        <ele>234</ele>
        <time>2018-06-29T09:40:58Z</time>
      </trkpt>
      <trkpt lat="45.98921" lon="4.82303">
        <ele>234</ele>
        <time>2018-06-29T09:40:59Z</time>
      </trkpt>
      <trkpt lat="45.98916" lon="4.82299">
        <ele>237</ele>
        <time>2018-06-29T09:41:00Z</time>
      </trkpt>
      <trkpt lat="45.9891" lon="4.82295">
        <ele>237</ele>
        <time>2018-06-29T09:41:01Z</time>
      </trkpt>
      <trkpt lat="45.98907" lon="4.8229">
        <ele>236</ele>
        <time>2018-06-29T09:41:02Z</time>
      </trkpt>
      <trkpt lat="45.98903" lon="4.82285">
        <ele>236</ele>
        <time>2018-06-29T09:41:03Z</time>
      </trkpt>
      <trkpt lat="45.98899" lon="4.82279">
        <ele>236</ele>
        <time>2018-06-29T09:41:04Z</time>
      </trkpt>
      <trkpt lat="45.98895" lon="4.82273">
        <ele>236</ele>
        <time>2018-06-29T09:41:05Z</time>
      </trkpt>
      <trkpt lat="45.98892" lon="4.82267">
        <ele>236</ele>
        <time>2018-06-29T09:41:06Z</time>
      </trkpt>
      <trkpt lat="45.98888" lon="4.82261">
        <ele>236</ele>
        <time>2018-06-29T09:41:07Z</time>
      </trkpt>
      <trkpt lat="45.98885" lon="4.82255">
        <ele>236</ele>
        <time>2018-06-29T09:41:08Z</time>
      </trkpt>
      <trkpt lat="45.98882" lon="4.82249">
        <ele>236</ele>
        <time>2018-06-29T09:41:09Z</time>
      </trkpt>
      <trkpt lat="45.9888" lon="4.82243">
        <ele>236</ele>
        <time>2018-06-29T09:41:10Z</time>
      </trkpt>
      <trkpt lat="45.98878" lon="4.82237">
        <ele>236</ele>
        <time>2018-06-29T09:41:11Z</time>
      </trkpt>
      <trkpt lat="45.98874" lon="4.8223">
        <ele>236</ele>
        <time>2018-06-29T09:41:12Z</time>
      </trkpt>
      <trkpt lat="45.98871" lon="4.82224">
        <ele>236</ele>
        <time>2018-06-29T09:41:13Z</time>
      </trkpt>
      <trkpt lat="45.98869" lon="4.82217">
        <ele>236</ele>
        <time>2018-06-29T09:41:14Z</time>
      </trkpt>
      <trkpt lat="45.98866" lon="4.8221">
        <ele>236</ele>
        <time>2018-06-29T09:41:15Z</time>
      </trkpt>
      <trkpt lat="45.98866" lon="4.82202">
        <ele>236</ele>
        <time>2018-06-29T09:41:16Z</time>
      </trkpt>
      <trkpt lat="45.98863" lon="4.82193">
        <ele>236</ele>
        <time>2018-06-29T09:41:17Z</time>
      </trkpt>
      <trkpt lat="45.9886" lon="4.82186">
        <ele>236</ele>
        <time>2018-06-29T09:41:18Z</time>
      </trkpt>
      <trkpt lat="45.98857" lon="4.82178">
        <ele>236</ele>
        <time>2018-06-29T09:41:19Z</time>
      </trkpt>
      <trkpt lat="45.98855" lon="4.82171">
        <ele>236</ele>
        <time>2018-06-29T09:41:20Z</time>
      </trkpt>
      <trkpt lat="45.98852" lon="4.82164">
        <ele>236</ele>
        <time>2018-06-29T09:41:21Z</time>
      </trkpt>
      <trkpt lat="45.98851" lon="4.82157">
        <ele>236</ele>
        <time>2018-06-29T09:41:22Z</time>
      </trkpt>
      <trkpt lat="45.98849" lon="4.8215">
        <ele>236</ele>
        <time>2018-06-29T09:41:23Z</time>
      </trkpt>
      <trkpt lat="45.98848" lon="4.82141">
        <ele>236</ele>
        <time>2018-06-29T09:41:24Z</time>
      </trkpt>
      <trkpt lat="45.98846" lon="4.82134">
        <ele>236</ele>
        <time>2018-06-29T09:41:25Z</time>
      </trkpt>
      <trkpt lat="45.98843" lon="4.82126">
        <ele>235</ele>
        <time>2018-06-29T09:41:26Z</time>
      </trkpt>
      <trkpt lat="45.98842" lon="4.82119">
        <ele>235</ele>
        <time>2018-06-29T09:41:27Z</time>
      </trkpt>
      <trkpt lat="45.98841" lon="4.82111">
        <ele>235</ele>
        <time>2018-06-29T09:41:28Z</time>
      </trkpt>
      <trkpt lat="45.98839" lon="4.82104">
        <ele>236</ele>
        <time>2018-06-29T09:41:29Z</time>
      </trkpt>
      <trkpt lat="45.98837" lon="4.82097">
        <ele>236</ele>
        <time>2018-06-29T09:41:30Z</time>
      </trkpt>
      <trkpt lat="45.98835" lon="4.8209">
        <ele>236</ele>
        <time>2018-06-29T09:41:31Z</time>
      </trkpt>
      <trkpt lat="45.98834" lon="4.82082">
        <ele>236</ele>
        <time>2018-06-29T09:41:32Z</time>
      </trkpt>
      <trkpt lat="45.98832" lon="4.82075">
        <ele>237</ele>
        <time>2018-06-29T09:41:33Z</time>
      </trkpt>
      <trkpt lat="45.9883" lon="4.82067">
        <ele>237</ele>
        <time>2018-06-29T09:41:34Z</time>
      </trkpt>
      <trkpt lat="45.9883" lon="4.82061">
        <ele>237</ele>
        <time>2018-06-29T09:41:35Z</time>
      </trkpt>
      <trkpt lat="45.98827" lon="4.82054">
        <ele>237</ele>
        <time>2018-06-29T09:41:36Z</time>
      </trkpt>
      <trkpt lat="45.98827" lon="4.82047">
        <ele>238</ele>
        <time>2018-06-29T09:41:37Z</time>
      </trkpt>
      <trkpt lat="45.98825" lon="4.82039">
        <ele>238</ele>
        <time>2018-06-29T09:41:38Z</time>
      </trkpt>
      <trkpt lat="45.98826" lon="4.82031">
        <ele>238</ele>
        <time>2018-06-29T09:41:39Z</time>
      </trkpt>
      <trkpt lat="45.98824" lon="4.82024">
        <ele>238</ele>
        <time>2018-06-29T09:41:40Z</time>
      </trkpt>
      <trkpt lat="45.98824" lon="4.82017">
        <ele>238</ele>
        <time>2018-06-29T09:41:41Z</time>
      </trkpt>
      <trkpt lat="45.98822" lon="4.8201">
        <ele>238</ele>
        <time>2018-06-29T09:41:42Z</time>
      </trkpt>
      <trkpt lat="45.9882" lon="4.82003">
        <ele>238</ele>
        <time>2018-06-29T09:41:43Z</time>
      </trkpt>
      <trkpt lat="45.98819" lon="4.81996">
        <ele>238</ele>
        <time>2018-06-29T09:41:44Z</time>
      </trkpt>
      <trkpt lat="45.98818" lon="4.81989">
        <ele>238</ele>
        <time>2018-06-29T09:41:45Z</time>
      </trkpt>
      <trkpt lat="45.98816" lon="4.8198">
        <ele>239</ele>
        <time>2018-06-29T09:41:46Z</time>
      </trkpt>
      <trkpt lat="45.98814" lon="4.81972">
        <ele>239</ele>
        <time>2018-06-29T09:41:47Z</time>
      </trkpt>
      <trkpt lat="45.98815" lon="4.81964">
        <ele>239</ele>
        <time>2018-06-29T09:41:48Z</time>
      </trkpt>
      <trkpt lat="45.98814" lon="4.81956">
        <ele>239</ele>
        <time>2018-06-29T09:41:49Z</time>
      </trkpt>
      <trkpt lat="45.98813" lon="4.8195">
        <ele>239</ele>
        <time>2018-06-29T09:41:50Z</time>
      </trkpt>
      <trkpt lat="45.98812" lon="4.81942">
        <ele>239</ele>
        <time>2018-06-29T09:41:51Z</time>
      </trkpt>
      <trkpt lat="45.98812" lon="4.8193">
        <ele>239</ele>
        <time>2018-06-29T09:41:53Z</time>
      </trkpt>
      <trkpt lat="45.9881" lon="4.81923">
        <ele>239</ele>
        <time>2018-06-29T09:41:54Z</time>
      </trkpt>
      <trkpt lat="45.98807" lon="4.81911">
        <ele>239</ele>
        <time>2018-06-29T09:41:56Z</time>
      </trkpt>
      <trkpt lat="45.98805" lon="4.81904">
        <ele>239</ele>
        <time>2018-06-29T09:41:57Z</time>
      </trkpt>
      <trkpt lat="45.98804" lon="4.81892">
        <ele>239</ele>
        <time>2018-06-29T09:41:59Z</time>
      </trkpt>
      <trkpt lat="45.98801" lon="4.81886">
        <ele>239</ele>
        <time>2018-06-29T09:42:00Z</time>
      </trkpt>
      <trkpt lat="45.988" lon="4.81879">
        <ele>239</ele>
        <time>2018-06-29T09:42:02Z</time>
      </trkpt>
      <trkpt lat="45.98794" lon="4.81869">
        <ele>239</ele>
        <time>2018-06-29T09:42:03Z</time>
      </trkpt>
      <trkpt lat="45.98792" lon="4.8186">
        <ele>239</ele>
        <time>2018-06-29T09:42:05Z</time>
      </trkpt>
      <trkpt lat="45.98789" lon="4.81855">
        <ele>239</ele>
        <time>2018-06-29T09:42:06Z</time>
      </trkpt>
      <trkpt lat="45.98785" lon="4.81844">
        <ele>239</ele>
        <time>2018-06-29T09:42:08Z</time>
      </trkpt>
      <trkpt lat="45.98783" lon="4.81839">
        <ele>239</ele>
        <time>2018-06-29T09:42:09Z</time>
      </trkpt>
      <trkpt lat="45.98777" lon="4.8183">
        <ele>240</ele>
        <time>2018-06-29T09:42:11Z</time>
      </trkpt>
      <trkpt lat="45.98775" lon="4.81826">
        <ele>240</ele>
        <time>2018-06-29T09:42:12Z</time>
      </trkpt>
      <trkpt lat="45.98771" lon="4.81814">
        <ele>240</ele>
        <time>2018-06-29T09:42:15Z</time>
      </trkpt>
      <trkpt lat="45.98767" lon="4.81805">
        <ele>240</ele>
        <time>2018-06-29T09:42:16Z</time>
      </trkpt>
      <trkpt lat="45.98764" lon="4.818">
        <ele>240</ele>
        <time>2018-06-29T09:42:17Z</time>
      </trkpt>
      <trkpt lat="45.98762" lon="4.81795">
        <ele>240</ele>
        <time>2018-06-29T09:42:18Z</time>
      </trkpt>
      <trkpt lat="45.98758" lon="4.81785">
        <ele>241</ele>
        <time>2018-06-29T09:42:20Z</time>
      </trkpt>
      <trkpt lat="45.98756" lon="4.81779">
        <ele>241</ele>
        <time>2018-06-29T09:42:21Z</time>
      </trkpt>
      <trkpt lat="45.98753" lon="4.81771">
        <ele>241</ele>
        <time>2018-06-29T09:42:24Z</time>
      </trkpt>
      <trkpt lat="45.98749" lon="4.81761">
        <ele>240</ele>
        <time>2018-06-29T09:42:25Z</time>
      </trkpt>
      <trkpt lat="45.98748" lon="4.81755">
        <ele>241</ele>
        <time>2018-06-29T09:42:26Z</time>
      </trkpt>
      <trkpt lat="45.98743" lon="4.81749">
        <ele>240</ele>
        <time>2018-06-29T09:42:27Z</time>
      </trkpt>
      <trkpt lat="45.98738" lon="4.81738">
        <ele>240</ele>
        <time>2018-06-29T09:42:29Z</time>
      </trkpt>
      <trkpt lat="45.98735" lon="4.81733">
        <ele>240</ele>
        <time>2018-06-29T09:42:30Z</time>
      </trkpt>
      <trkpt lat="45.98729" lon="4.81729">
        <ele>239</ele>
        <time>2018-06-29T09:42:31Z</time>
      </trkpt>
      <trkpt lat="45.98724" lon="4.81727">
        <ele>239</ele>
        <time>2018-06-29T09:42:32Z</time>
      </trkpt>
      <trkpt lat="45.98719" lon="4.81726">
        <ele>239</ele>
        <time>2018-06-29T09:42:33Z</time>
      </trkpt>
      <trkpt lat="45.98715" lon="4.81726">
        <ele>239</ele>
        <time>2018-06-29T09:42:34Z</time>
      </trkpt>
      <trkpt lat="45.9871" lon="4.81726">
        <ele>239</ele>
        <time>2018-06-29T09:42:35Z</time>
      </trkpt>
      <trkpt lat="45.98706" lon="4.81725">
        <ele>239</ele>
        <time>2018-06-29T09:42:36Z</time>
      </trkpt>
      <trkpt lat="45.98701" lon="4.81726">
        <ele>239</ele>
        <time>2018-06-29T09:42:37Z</time>
      </trkpt>
      <trkpt lat="45.98696" lon="4.81729">
        <ele>238</ele>
        <time>2018-06-29T09:42:38Z</time>
      </trkpt>
      <trkpt lat="45.98689" lon="4.81731">
        <ele>238</ele>
        <time>2018-06-29T09:42:39Z</time>
      </trkpt>
      <trkpt lat="45.98685" lon="4.81734">
        <ele>238</ele>
        <time>2018-06-29T09:42:40Z</time>
      </trkpt>
      <trkpt lat="45.98679" lon="4.81736">
        <ele>238</ele>
        <time>2018-06-29T09:42:41Z</time>
      </trkpt>
      <trkpt lat="45.98673" lon="4.81738">
        <ele>238</ele>
        <time>2018-06-29T09:42:42Z</time>
      </trkpt>
      <trkpt lat="45.98669" lon="4.81739">
        <ele>238</ele>
        <time>2018-06-29T09:42:43Z</time>
      </trkpt>
      <trkpt lat="45.98664" lon="4.81741">
        <ele>238</ele>
        <time>2018-06-29T09:42:44Z</time>
      </trkpt>
      <trkpt lat="45.98659" lon="4.81743">
        <ele>237</ele>
        <time>2018-06-29T09:42:45Z</time>
      </trkpt>
      <trkpt lat="45.98653" lon="4.81746">
        <ele>237</ele>
        <time>2018-06-29T09:42:46Z</time>
      </trkpt>
      <trkpt lat="45.98645" lon="4.81748">
        <ele>237</ele>
        <time>2018-06-29T09:42:48Z</time>
      </trkpt>
      <trkpt lat="45.98639" lon="4.8175">
        <ele>237</ele>
        <time>2018-06-29T09:42:49Z</time>
      </trkpt>
      <trkpt lat="45.98634" lon="4.81751">
        <ele>238</ele>
        <time>2018-06-29T09:42:50Z</time>
      </trkpt>
      <trkpt lat="45.98628" lon="4.81752">
        <ele>238</ele>
        <time>2018-06-29T09:42:51Z</time>
      </trkpt>
      <trkpt lat="45.98623" lon="4.81754">
        <ele>238</ele>
        <time>2018-06-29T09:42:52Z</time>
      </trkpt>
      <trkpt lat="45.98618" lon="4.81756">
        <ele>238</ele>
        <time>2018-06-29T09:42:53Z</time>
      </trkpt>
      <trkpt lat="45.98612" lon="4.81758">
        <ele>238</ele>
        <time>2018-06-29T09:42:54Z</time>
      </trkpt>
      <trkpt lat="45.98607" lon="4.81759">
        <ele>238</ele>
        <time>2018-06-29T09:42:55Z</time>
      </trkpt>
      <trkpt lat="45.98603" lon="4.81762">
        <ele>238</ele>
        <time>2018-06-29T09:42:56Z</time>
      </trkpt>
      <trkpt lat="45.98598" lon="4.81765">
        <ele>238</ele>
        <time>2018-06-29T09:42:57Z</time>
      </trkpt>
      <trkpt lat="45.98593" lon="4.81767">
        <ele>238</ele>
        <time>2018-06-29T09:42:58Z</time>
      </trkpt>
      <trkpt lat="45.98588" lon="4.8177">
        <ele>238</ele>
        <time>2018-06-29T09:42:59Z</time>
      </trkpt>
      <trkpt lat="45.98584" lon="4.81775">
        <ele>238</ele>
        <time>2018-06-29T09:43:00Z</time>
      </trkpt>
      <trkpt lat="45.98579" lon="4.8178">
        <ele>238</ele>
        <time>2018-06-29T09:43:01Z</time>
      </trkpt>
      <trkpt lat="45.98575" lon="4.81784">
        <ele>238</ele>
        <time>2018-06-29T09:43:02Z</time>
      </trkpt>
      <trkpt lat="45.98571" lon="4.81789">
        <ele>238</ele>
        <time>2018-06-29T09:43:03Z</time>
      </trkpt>
      <trkpt lat="45.98568" lon="4.81793">
        <ele>238</ele>
        <time>2018-06-29T09:43:04Z</time>
      </trkpt>
      <trkpt lat="45.98564" lon="4.81798">
        <ele>238</ele>
        <time>2018-06-29T09:43:05Z</time>
      </trkpt>
      <trkpt lat="45.98561" lon="4.81802">
        <ele>238</ele>
        <time>2018-06-29T09:43:06Z</time>
      </trkpt>
      <trkpt lat="45.98556" lon="4.81806">
        <ele>238</ele>
        <time>2018-06-29T09:43:07Z</time>
      </trkpt>
      <trkpt lat="45.9855" lon="4.81811">
        <ele>238</ele>
        <time>2018-06-29T09:43:08Z</time>
      </trkpt>
      <trkpt lat="45.98545" lon="4.81812">
        <ele>238</ele>
        <time>2018-06-29T09:43:09Z</time>
      </trkpt>
      <trkpt lat="45.98541" lon="4.81809">
        <ele>238</ele>
        <time>2018-06-29T09:43:10Z</time>
      </trkpt>
      <trkpt lat="45.98537" lon="4.81806">
        <ele>238</ele>
        <time>2018-06-29T09:43:11Z</time>
      </trkpt>
      <trkpt lat="45.98533" lon="4.81802">
        <ele>238</ele>
        <time>2018-06-29T09:43:12Z</time>
      </trkpt>
      <trkpt lat="45.98527" lon="4.81797">
        <ele>238</ele>
        <time>2018-06-29T09:43:13Z</time>
      </trkpt>
      <trkpt lat="45.98523" lon="4.81791">
        <ele>238</ele>
        <time>2018-06-29T09:43:14Z</time>
      </trkpt>
      <trkpt lat="45.98519" lon="4.81786">
        <ele>238</ele>
        <time>2018-06-29T09:43:15Z</time>
      </trkpt>
      <trkpt lat="45.98516" lon="4.8178">
        <ele>238</ele>
        <time>2018-06-29T09:43:16Z</time>
      </trkpt>
      <trkpt lat="45.98513" lon="4.81774">
        <ele>238</ele>
        <time>2018-06-29T09:43:17Z</time>
      </trkpt>
      <trkpt lat="45.9851" lon="4.81769">
        <ele>237</ele>
        <time>2018-06-29T09:43:18Z</time>
      </trkpt>
      <trkpt lat="45.98507" lon="4.81765">
        <ele>237</ele>
        <time>2018-06-29T09:43:19Z</time>
      </trkpt>
      <trkpt lat="45.98503" lon="4.8176">
        <ele>237</ele>
        <time>2018-06-29T09:43:20Z</time>
      </trkpt>
      <trkpt lat="45.98499" lon="4.81755">
        <ele>238</ele>
        <time>2018-06-29T09:43:21Z</time>
      </trkpt>
      <trkpt lat="45.98494" lon="4.81752">
        <ele>238</ele>
        <time>2018-06-29T09:43:22Z</time>
      </trkpt>
      <trkpt lat="45.9849" lon="4.81749">
        <ele>238</ele>
        <time>2018-06-29T09:43:23Z</time>
      </trkpt>
      <trkpt lat="45.98482" lon="4.81743">
        <ele>238</ele>
        <time>2018-06-29T09:43:25Z</time>
      </trkpt>
      <trkpt lat="45.98479" lon="4.81739">
        <ele>238</ele>
        <time>2018-06-29T09:43:26Z</time>
      </trkpt>
      <trkpt lat="45.98474" lon="4.81733">
        <ele>239</ele>
        <time>2018-06-29T09:43:28Z</time>
      </trkpt>
      <trkpt lat="45.98471" lon="4.81729">
        <ele>239</ele>
        <time>2018-06-29T09:43:29Z</time>
      </trkpt>
      <trkpt lat="45.98469" lon="4.81727">
        <ele>239</ele>
        <time>2018-06-29T09:43:30Z</time>
      </trkpt>
      <trkpt lat="45.98463" lon="4.81721">
        <ele>239</ele>
        <time>2018-06-29T09:43:31Z</time>
      </trkpt>
      <trkpt lat="45.98458" lon="4.81713">
        <ele>239</ele>
        <time>2018-06-29T09:43:35Z</time>
      </trkpt>
      <trkpt lat="45.98455" lon="4.81709">
        <ele>239</ele>
        <time>2018-06-29T09:43:36Z</time>
      </trkpt>
      <trkpt lat="45.9845" lon="4.817">
        <ele>239</ele>
        <time>2018-06-29T09:43:37Z</time>
      </trkpt>
      <trkpt lat="45.98449" lon="4.81697">
        <ele>239</ele>
        <time>2018-06-29T09:43:38Z</time>
      </trkpt>
      <trkpt lat="45.98444" lon="4.81687">
        <ele>239</ele>
        <time>2018-06-29T09:43:40Z</time>
      </trkpt>
      <trkpt lat="45.98442" lon="4.81682">
        <ele>239</ele>
        <time>2018-06-29T09:43:41Z</time>
      </trkpt>
      <trkpt lat="45.98437" lon="4.81674">
        <ele>240</ele>
        <time>2018-06-29T09:43:43Z</time>
      </trkpt>
      <trkpt lat="45.98434" lon="4.8167">
        <ele>240</ele>
        <time>2018-06-29T09:43:44Z</time>
      </trkpt>
      <trkpt lat="45.98427" lon="4.81664">
        <ele>240</ele>
        <time>2018-06-29T09:43:46Z</time>
      </trkpt>
      <trkpt lat="45.98423" lon="4.81663">
        <ele>240</ele>
        <time>2018-06-29T09:43:47Z</time>
      </trkpt>
      <trkpt lat="45.98414" lon="4.81661">
        <ele>241</ele>
        <time>2018-06-29T09:43:49Z</time>
      </trkpt>
      <trkpt lat="45.9841" lon="4.81663">
        <ele>241</ele>
        <time>2018-06-29T09:43:50Z</time>
      </trkpt>
      <trkpt lat="45.98404" lon="4.81664">
        <ele>241</ele>
        <time>2018-06-29T09:43:51Z</time>
      </trkpt>
      <trkpt lat="45.98399" lon="4.81665">
        <ele>242</ele>
        <time>2018-06-29T09:43:52Z</time>
      </trkpt>
      <trkpt lat="45.98395" lon="4.81666">
        <ele>242</ele>
        <time>2018-06-29T09:43:53Z</time>
      </trkpt>
      <trkpt lat="45.98391" lon="4.81668">
        <ele>243</ele>
        <time>2018-06-29T09:43:54Z</time>
      </trkpt>
      <trkpt lat="45.98383" lon="4.8167">
        <ele>243</ele>
        <time>2018-06-29T09:43:56Z</time>
      </trkpt>
      <trkpt lat="45.98379" lon="4.81671">
        <ele>244</ele>
        <time>2018-06-29T09:43:57Z</time>
      </trkpt>
      <trkpt lat="45.98371" lon="4.81674">
        <ele>244</ele>
        <time>2018-06-29T09:43:59Z</time>
      </trkpt>
      <trkpt lat="45.98367" lon="4.81674">
        <ele>244</ele>
        <time>2018-06-29T09:44:00Z</time>
      </trkpt>
      <trkpt lat="45.98361" lon="4.81676">
        <ele>244</ele>
        <time>2018-06-29T09:44:01Z</time>
      </trkpt>
      <trkpt lat="45.98357" lon="4.81676">
        <ele>245</ele>
        <time>2018-06-29T09:44:02Z</time>
      </trkpt>
      <trkpt lat="45.98352" lon="4.81676">
        <ele>245</ele>
        <time>2018-06-29T09:44:03Z</time>
      </trkpt>
      <trkpt lat="45.98347" lon="4.81676">
        <ele>245</ele>
        <time>2018-06-29T09:44:04Z</time>
      </trkpt>
      <trkpt lat="45.98338" lon="4.81674">
        <ele>245</ele>
        <time>2018-06-29T09:44:06Z</time>
      </trkpt>
      <trkpt lat="45.98334" lon="4.81672">
        <ele>246</ele>
        <time>2018-06-29T09:44:07Z</time>
      </trkpt>
      <trkpt lat="45.98327" lon="4.81668">
        <ele>246</ele>
        <time>2018-06-29T09:44:09Z</time>
      </trkpt>
      <trkpt lat="45.98323" lon="4.81666">
        <ele>246</ele>
        <time>2018-06-29T09:44:10Z</time>
      </trkpt>
      <trkpt lat="45.98316" lon="4.8166">
        <ele>246</ele>
        <time>2018-06-29T09:44:12Z</time>
      </trkpt>
      <trkpt lat="45.98313" lon="4.81657">
        <ele>246</ele>
        <time>2018-06-29T09:44:13Z</time>
      </trkpt>
      <trkpt lat="45.98306" lon="4.8165">
        <ele>246</ele>
        <time>2018-06-29T09:44:15Z</time>
      </trkpt>
      <trkpt lat="45.98302" lon="4.81646">
        <ele>246</ele>
        <time>2018-06-29T09:44:16Z</time>
      </trkpt>
      <trkpt lat="45.98295" lon="4.81639">
        <ele>247</ele>
        <time>2018-06-29T09:44:18Z</time>
      </trkpt>
      <trkpt lat="45.98292" lon="4.81635">
        <ele>247</ele>
        <time>2018-06-29T09:44:19Z</time>
      </trkpt>
      <trkpt lat="45.98286" lon="4.81627">
        <ele>247</ele>
        <time>2018-06-29T09:44:21Z</time>
      </trkpt>
      <trkpt lat="45.98283" lon="4.81623">
        <ele>247</ele>
        <time>2018-06-29T09:44:22Z</time>
      </trkpt>
      <trkpt lat="45.98279" lon="4.81615">
        <ele>247</ele>
        <time>2018-06-29T09:44:24Z</time>
      </trkpt>
      <trkpt lat="45.98277" lon="4.8161">
        <ele>247</ele>
        <time>2018-06-29T09:44:25Z</time>
      </trkpt>
      <trkpt lat="45.98274" lon="4.816">
        <ele>247</ele>
        <time>2018-06-29T09:44:27Z</time>
      </trkpt>
      <trkpt lat="45.98272" lon="4.81594">
        <ele>247</ele>
        <time>2018-06-29T09:44:28Z</time>
      </trkpt>
      <trkpt lat="45.98269" lon="4.81583">
        <ele>247</ele>
        <time>2018-06-29T09:44:30Z</time>
      </trkpt>
      <trkpt lat="45.98267" lon="4.81578">
        <ele>247</ele>
        <time>2018-06-29T09:44:31Z</time>
      </trkpt>
      <trkpt lat="45.98266" lon="4.81571">
        <ele>247</ele>
        <time>2018-06-29T09:44:32Z</time>
      </trkpt>
      <trkpt lat="45.98264" lon="4.81564">
        <ele>247</ele>
        <time>2018-06-29T09:44:33Z</time>
      </trkpt>
      <trkpt lat="45.98262" lon="4.81558">
        <ele>247</ele>
        <time>2018-06-29T09:44:34Z</time>
      </trkpt>
      <trkpt lat="45.9826" lon="4.81551">
        <ele>247</ele>
        <time>2018-06-29T09:44:35Z</time>
      </trkpt>
      <trkpt lat="45.98258" lon="4.81544">
        <ele>247</ele>
        <time>2018-06-29T09:44:36Z</time>
      </trkpt>
      <trkpt lat="45.98255" lon="4.81536">
        <ele>247</ele>
        <time>2018-06-29T09:44:37Z</time>
      </trkpt>
      <trkpt lat="45.98253" lon="4.81529">
        <ele>247</ele>
        <time>2018-06-29T09:44:38Z</time>
      </trkpt>
      <trkpt lat="45.98251" lon="4.81523">
        <ele>247</ele>
        <time>2018-06-29T09:44:39Z</time>
      </trkpt>
      <trkpt lat="45.98249" lon="4.81517">
        <ele>249</ele>
        <time>2018-06-29T09:44:40Z</time>
      </trkpt>
      <trkpt lat="45.98247" lon="4.8151">
        <ele>249</ele>
        <time>2018-06-29T09:44:41Z</time>
      </trkpt>
      <trkpt lat="45.98244" lon="4.81504">
        <ele>249</ele>
        <time>2018-06-29T09:44:42Z</time>
      </trkpt>
      <trkpt lat="45.98241" lon="4.81498">
        <ele>249</ele>
        <time>2018-06-29T09:44:43Z</time>
      </trkpt>
      <trkpt lat="45.98239" lon="4.81493">
        <ele>249</ele>
        <time>2018-06-29T09:44:44Z</time>
      </trkpt>
      <trkpt lat="45.98236" lon="4.81487">
        <ele>249</ele>
        <time>2018-06-29T09:44:45Z</time>
      </trkpt>
      <trkpt lat="45.98233" lon="4.81475">
        <ele>249</ele>
        <time>2018-06-29T09:44:47Z</time>
      </trkpt>
      <trkpt lat="45.98232" lon="4.8147">
        <ele>249</ele>
        <time>2018-06-29T09:44:48Z</time>
      </trkpt>
      <trkpt lat="45.9823" lon="4.81464">
        <ele>249</ele>
        <time>2018-06-29T09:44:49Z</time>
      </trkpt>
      <trkpt lat="45.98229" lon="4.81457">
        <ele>249</ele>
        <time>2018-06-29T09:44:50Z</time>
      </trkpt>
      <trkpt lat="45.98225" lon="4.81446">
        <ele>249</ele>
        <time>2018-06-29T09:44:52Z</time>
      </trkpt>
      <trkpt lat="45.98223" lon="4.81439">
        <ele>249</ele>
        <time>2018-06-29T09:44:53Z</time>
      </trkpt>
      <trkpt lat="45.98221" lon="4.81432">
        <ele>249</ele>
        <time>2018-06-29T09:44:54Z</time>
      </trkpt>
      <trkpt lat="45.98218" lon="4.81426">
        <ele>249</ele>
        <time>2018-06-29T09:44:55Z</time>
      </trkpt>
      <trkpt lat="45.98216" lon="4.81419">
        <ele>249</ele>
        <time>2018-06-29T09:44:56Z</time>
      </trkpt>
      <trkpt lat="45.98214" lon="4.81413">
        <ele>248</ele>
        <time>2018-06-29T09:44:57Z</time>
      </trkpt>
      <trkpt lat="45.9821" lon="4.81402">
        <ele>248</ele>
        <time>2018-06-29T09:44:59Z</time>
      </trkpt>
      <trkpt lat="45.98208" lon="4.81396">
        <ele>248</ele>
        <time>2018-06-29T09:45:00Z</time>
      </trkpt>
      <trkpt lat="45.98206" lon="4.81389">
        <ele>248</ele>
        <time>2018-06-29T09:45:01Z</time>
      </trkpt>
      <trkpt lat="45.98204" lon="4.81382">
        <ele>248</ele>
        <time>2018-06-29T09:45:02Z</time>
      </trkpt>
      <trkpt lat="45.98203" lon="4.81375">
        <ele>248</ele>
        <time>2018-06-29T09:45:03Z</time>
      </trkpt>
      <trkpt lat="45.98202" lon="4.81369">
        <ele>248</ele>
        <time>2018-06-29T09:45:04Z</time>
      </trkpt>
      <trkpt lat="45.982" lon="4.81362">
        <ele>248</ele>
        <time>2018-06-29T09:45:05Z</time>
      </trkpt>
      <trkpt lat="45.98199" lon="4.81356">
        <ele>248</ele>
        <time>2018-06-29T09:45:06Z</time>
      </trkpt>
      <trkpt lat="45.98197" lon="4.81348">
        <ele>248</ele>
        <time>2018-06-29T09:45:07Z</time>
      </trkpt>
      <trkpt lat="45.98198" lon="4.81341">
        <ele>248</ele>
        <time>2018-06-29T09:45:08Z</time>
      </trkpt>
      <trkpt lat="45.98195" lon="4.81333">
        <ele>247</ele>
        <time>2018-06-29T09:45:09Z</time>
      </trkpt>
      <trkpt lat="45.98192" lon="4.81325">
        <ele>247</ele>
        <time>2018-06-29T09:45:10Z</time>
      </trkpt>
      <trkpt lat="45.98193" lon="4.81318">
        <ele>247</ele>
        <time>2018-06-29T09:45:11Z</time>
      </trkpt>
      <trkpt lat="45.98195" lon="4.81312">
        <ele>247</ele>
        <time>2018-06-29T09:45:12Z</time>
      </trkpt>
      <trkpt lat="45.98188" lon="4.81302">
        <ele>247</ele>
        <time>2018-06-29T09:45:13Z</time>
      </trkpt>
      <trkpt lat="45.98186" lon="4.81295">
        <ele>247</ele>
        <time>2018-06-29T09:45:14Z</time>
      </trkpt>
      <trkpt lat="45.98185" lon="4.81287">
        <ele>247</ele>
        <time>2018-06-29T09:45:15Z</time>
      </trkpt>
      <trkpt lat="45.98182" lon="4.81278">
        <ele>247</ele>
        <time>2018-06-29T09:45:16Z</time>
      </trkpt>
      <trkpt lat="45.9818" lon="4.81271">
        <ele>247</ele>
        <time>2018-06-29T09:45:17Z</time>
      </trkpt>
      <trkpt lat="45.98179" lon="4.81264">
        <ele>247</ele>
        <time>2018-06-29T09:45:18Z</time>
      </trkpt>
      <trkpt lat="45.98178" lon="4.81256">
        <ele>247</ele>
        <time>2018-06-29T09:45:19Z</time>
      </trkpt>
      <trkpt lat="45.98178" lon="4.81249">
        <ele>247</ele>
        <time>2018-06-29T09:45:20Z</time>
      </trkpt>
      <trkpt lat="45.98177" lon="4.8124">
        <ele>247</ele>
        <time>2018-06-29T09:45:21Z</time>
      </trkpt>
      <trkpt lat="45.98176" lon="4.81232">
        <ele>246</ele>
        <time>2018-06-29T09:45:22Z</time>
      </trkpt>
      <trkpt lat="45.98174" lon="4.81223">
        <ele>246</ele>
        <time>2018-06-29T09:45:23Z</time>
      </trkpt>
      <trkpt lat="45.98174" lon="4.81215">
        <ele>246</ele>
        <time>2018-06-29T09:45:24Z</time>
      </trkpt>
      <trkpt lat="45.98173" lon="4.81206">
        <ele>245</ele>
        <time>2018-06-29T09:45:25Z</time>
      </trkpt>
      <trkpt lat="45.98171" lon="4.81198">
        <ele>245</ele>
        <time>2018-06-29T09:45:26Z</time>
      </trkpt>
      <trkpt lat="45.9817" lon="4.8119">
        <ele>245</ele>
        <time>2018-06-29T09:45:27Z</time>
      </trkpt>
      <trkpt lat="45.98166" lon="4.81181">
        <ele>246</ele>
        <time>2018-06-29T09:45:28Z</time>
      </trkpt>
      <trkpt lat="45.98164" lon="4.81174">
        <ele>245</ele>
        <time>2018-06-29T09:45:29Z</time>
      </trkpt>
      <trkpt lat="45.98162" lon="4.81166">
        <ele>245</ele>
        <time>2018-06-29T09:45:30Z</time>
      </trkpt>
      <trkpt lat="45.98162" lon="4.81158">
        <ele>245</ele>
        <time>2018-06-29T09:45:31Z</time>
      </trkpt>
      <trkpt lat="45.98159" lon="4.8115">
        <ele>245</ele>
        <time>2018-06-29T09:45:32Z</time>
      </trkpt>
      <trkpt lat="45.98156" lon="4.81142">
        <ele>245</ele>
        <time>2018-06-29T09:45:33Z</time>
      </trkpt>
      <trkpt lat="45.98152" lon="4.81134">
        <ele>245</ele>
        <time>2018-06-29T09:45:34Z</time>
      </trkpt>
      <trkpt lat="45.9815" lon="4.81126">
        <ele>245</ele>
        <time>2018-06-29T09:45:35Z</time>
      </trkpt>
      <trkpt lat="45.98146" lon="4.81118">
        <ele>245</ele>
        <time>2018-06-29T09:45:36Z</time>
      </trkpt>
      <trkpt lat="45.98143" lon="4.81111">
        <ele>245</ele>
        <time>2018-06-29T09:45:37Z</time>
      </trkpt>
      <trkpt lat="45.9814" lon="4.81103">
        <ele>245</ele>
        <time>2018-06-29T09:45:38Z</time>
      </trkpt>
      <trkpt lat="45.98136" lon="4.81096">
        <ele>245</ele>
        <time>2018-06-29T09:45:39Z</time>
      </trkpt>
      <trkpt lat="45.98133" lon="4.81088">
        <ele>245</ele>
        <time>2018-06-29T09:45:40Z</time>
      </trkpt>
      <trkpt lat="45.9813" lon="4.81081">
        <ele>243</ele>
        <time>2018-06-29T09:45:41Z</time>
      </trkpt>
      <trkpt lat="45.98127" lon="4.81073">
        <ele>243</ele>
        <time>2018-06-29T09:45:42Z</time>
      </trkpt>
      <trkpt lat="45.98124" lon="4.81066">
        <ele>243</ele>
        <time>2018-06-29T09:45:43Z</time>
      </trkpt>
      <trkpt lat="45.98122" lon="4.81056">
        <ele>243</ele>
        <time>2018-06-29T09:45:44Z</time>
      </trkpt>
      <trkpt lat="45.98119" lon="4.81048">
        <ele>243</ele>
        <time>2018-06-29T09:45:45Z</time>
      </trkpt>
      <trkpt lat="45.98117" lon="4.81041">
        <ele>242</ele>
        <time>2018-06-29T09:45:46Z</time>
      </trkpt>
      <trkpt lat="45.98114" lon="4.81034">
        <ele>242</ele>
        <time>2018-06-29T09:45:47Z</time>
      </trkpt>
      <trkpt lat="45.98113" lon="4.81027">
        <ele>242</ele>
        <time>2018-06-29T09:45:48Z</time>
      </trkpt>
      <trkpt lat="45.98111" lon="4.8102">
        <ele>242</ele>
        <time>2018-06-29T09:45:49Z</time>
      </trkpt>
      <trkpt lat="45.98108" lon="4.81013">
        <ele>242</ele>
        <time>2018-06-29T09:45:50Z</time>
      </trkpt>
      <trkpt lat="45.98104" lon="4.81006">
        <ele>242</ele>
        <time>2018-06-29T09:45:51Z</time>
      </trkpt>
      <trkpt lat="45.98102" lon="4.81">
        <ele>240</ele>
        <time>2018-06-29T09:45:52Z</time>
      </trkpt>
      <trkpt lat="45.98098" lon="4.80993">
        <ele>240</ele>
        <time>2018-06-29T09:45:53Z</time>
      </trkpt>
      <trkpt lat="45.98095" lon="4.80987">
        <ele>240</ele>
        <time>2018-06-29T09:45:54Z</time>
      </trkpt>
      <trkpt lat="45.98094" lon="4.80981">
        <ele>240</ele>
        <time>2018-06-29T09:45:55Z</time>
      </trkpt>
      <trkpt lat="45.98092" lon="4.80974">
        <ele>239</ele>
        <time>2018-06-29T09:45:56Z</time>
      </trkpt>
      <trkpt lat="45.98091" lon="4.80966">
        <ele>239</ele>
        <time>2018-06-29T09:45:57Z</time>
      </trkpt>
      <trkpt lat="45.98089" lon="4.80958">
        <ele>239</ele>
        <time>2018-06-29T09:45:58Z</time>
      </trkpt>
      <trkpt lat="45.98087" lon="4.80948">
        <ele>238</ele>
        <time>2018-06-29T09:45:59Z</time>
      </trkpt>
      <trkpt lat="45.98085" lon="4.80938">
        <ele>238</ele>
        <time>2018-06-29T09:46:00Z</time>
      </trkpt>
      <trkpt lat="45.98083" lon="4.80928">
        <ele>240</ele>
        <time>2018-06-29T09:46:01Z</time>
      </trkpt>
      <trkpt lat="45.9808" lon="4.80918">
        <ele>239</ele>
        <time>2018-06-29T09:46:02Z</time>
      </trkpt>
      <trkpt lat="45.98078" lon="4.80909">
        <ele>238</ele>
        <time>2018-06-29T09:46:03Z</time>
      </trkpt>
      <trkpt lat="45.98075" lon="4.80899">
        <ele>238</ele>
        <time>2018-06-29T09:46:04Z</time>
      </trkpt>
      <trkpt lat="45.98069" lon="4.80888">
        <ele>238</ele>
        <time>2018-06-29T09:46:05Z</time>
      </trkpt>
      <trkpt lat="45.98066" lon="4.80878">
        <ele>237</ele>
        <time>2018-06-29T09:46:06Z</time>
      </trkpt>
      <trkpt lat="45.98062" lon="4.80868">
        <ele>237</ele>
        <time>2018-06-29T09:46:07Z</time>
      </trkpt>
      <trkpt lat="45.9806" lon="4.80859">
        <ele>237</ele>
        <time>2018-06-29T09:46:08Z</time>
      </trkpt>
      <trkpt lat="45.98057" lon="4.80848">
        <ele>236</ele>
        <time>2018-06-29T09:46:09Z</time>
      </trkpt>
      <trkpt lat="45.98054" lon="4.8084">
        <ele>236</ele>
        <time>2018-06-29T09:46:10Z</time>
      </trkpt>
      <trkpt lat="45.98051" lon="4.8083">
        <ele>234</ele>
        <time>2018-06-29T09:46:11Z</time>
      </trkpt>
      <trkpt lat="45.98051" lon="4.8082">
        <ele>234</ele>
        <time>2018-06-29T09:46:12Z</time>
      </trkpt>
      <trkpt lat="45.98048" lon="4.8081">
        <ele>234</ele>
        <time>2018-06-29T09:46:13Z</time>
      </trkpt>
      <trkpt lat="45.98046" lon="4.80802">
        <ele>234</ele>
        <time>2018-06-29T09:46:14Z</time>
      </trkpt>
      <trkpt lat="45.98043" lon="4.80793">
        <ele>234</ele>
        <time>2018-06-29T09:46:15Z</time>
      </trkpt>
      <trkpt lat="45.98043" lon="4.80784">
        <ele>233</ele>
        <time>2018-06-29T09:46:16Z</time>
      </trkpt>
      <trkpt lat="45.98042" lon="4.80777">
        <ele>233</ele>
        <time>2018-06-29T09:46:17Z</time>
      </trkpt>
      <trkpt lat="45.98041" lon="4.8077">
        <ele>233</ele>
        <time>2018-06-29T09:46:18Z</time>
      </trkpt>
      <trkpt lat="45.98039" lon="4.80763">
        <ele>233</ele>
        <time>2018-06-29T09:46:19Z</time>
      </trkpt>
      <trkpt lat="45.98038" lon="4.80757">
        <ele>233</ele>
        <time>2018-06-29T09:46:20Z</time>
      </trkpt>
      <trkpt lat="45.98036" lon="4.8075">
        <ele>233</ele>
        <time>2018-06-29T09:46:21Z</time>
      </trkpt>
      <trkpt lat="45.98034" lon="4.80744">
        <ele>231</ele>
        <time>2018-06-29T09:46:22Z</time>
      </trkpt>
      <trkpt lat="45.98031" lon="4.80739">
        <ele>231</ele>
        <time>2018-06-29T09:46:23Z</time>
      </trkpt>
      <trkpt lat="45.9803" lon="4.80727">
        <ele>231</ele>
        <time>2018-06-29T09:46:26Z</time>
      </trkpt>
      <trkpt lat="45.98028" lon="4.80718">
        <ele>231</ele>
        <time>2018-06-29T09:46:27Z</time>
      </trkpt>
      <trkpt lat="45.98029" lon="4.80708">
        <ele>231</ele>
        <time>2018-06-29T09:46:29Z</time>
      </trkpt>
      <trkpt lat="45.98031" lon="4.80703">
        <ele>231</ele>
        <time>2018-06-29T09:46:30Z</time>
      </trkpt>
      <trkpt lat="45.98036" lon="4.80697">
        <ele>230</ele>
        <time>2018-06-29T09:46:32Z</time>
      </trkpt>
      <trkpt lat="45.98041" lon="4.80697">
        <ele>230</ele>
        <time>2018-06-29T09:46:33Z</time>
      </trkpt>
      <trkpt lat="45.98046" lon="4.80698">
        <ele>230</ele>
        <time>2018-06-29T09:46:34Z</time>
      </trkpt>
      <trkpt lat="45.98051" lon="4.80696">
        <ele>230</ele>
        <time>2018-06-29T09:46:35Z</time>
      </trkpt>
      <trkpt lat="45.98057" lon="4.80696">
        <ele>230</ele>
        <time>2018-06-29T09:46:36Z</time>
      </trkpt>
      <trkpt lat="45.98063" lon="4.80696">
        <ele>230</ele>
        <time>2018-06-29T09:46:37Z</time>
      </trkpt>
      <trkpt lat="45.98071" lon="4.80698">
        <ele>230</ele>
        <time>2018-06-29T09:46:38Z</time>
      </trkpt>
      <trkpt lat="45.98077" lon="4.80698">
        <ele>230</ele>
        <time>2018-06-29T09:46:39Z</time>
      </trkpt>
      <trkpt lat="45.98085" lon="4.80695">
        <ele>228</ele>
        <time>2018-06-29T09:46:40Z</time>
      </trkpt>
      <trkpt lat="45.98093" lon="4.80694">
        <ele>228</ele>
        <time>2018-06-29T09:46:41Z</time>
      </trkpt>
      <trkpt lat="45.98101" lon="4.80693">
        <ele>228</ele>
        <time>2018-06-29T09:46:42Z</time>
      </trkpt>
      <trkpt lat="45.98108" lon="4.80693">
        <ele>228</ele>
        <time>2018-06-29T09:46:43Z</time>
      </trkpt>
      <trkpt lat="45.98115" lon="4.80693">
        <ele>228</ele>
        <time>2018-06-29T09:46:44Z</time>
      </trkpt>
      <trkpt lat="45.98123" lon="4.80693">
        <ele>228</ele>
        <time>2018-06-29T09:46:45Z</time>
      </trkpt>
      <trkpt lat="45.98133" lon="4.8069">
        <ele>228</ele>
        <time>2018-06-29T09:46:46Z</time>
      </trkpt>
      <trkpt lat="45.98141" lon="4.8069">
        <ele>228</ele>
        <time>2018-06-29T09:46:47Z</time>
      </trkpt>
      <trkpt lat="45.98151" lon="4.80688">
        <ele>227</ele>
        <time>2018-06-29T09:46:48Z</time>
      </trkpt>
      <trkpt lat="45.98159" lon="4.80688">
        <ele>227</ele>
        <time>2018-06-29T09:46:49Z</time>
      </trkpt>
      <trkpt lat="45.98166" lon="4.80687">
        <ele>227</ele>
        <time>2018-06-29T09:46:50Z</time>
      </trkpt>
      <trkpt lat="45.98173" lon="4.80687">
        <ele>225</ele>
        <time>2018-06-29T09:46:51Z</time>
      </trkpt>
      <trkpt lat="45.9818" lon="4.80685">
        <ele>225</ele>
        <time>2018-06-29T09:46:52Z</time>
      </trkpt>
      <trkpt lat="45.98188" lon="4.80683">
        <ele>225</ele>
        <time>2018-06-29T09:46:53Z</time>
      </trkpt>
      <trkpt lat="45.98194" lon="4.8068">
        <ele>225</ele>
        <time>2018-06-29T09:46:54Z</time>
      </trkpt>
      <trkpt lat="45.98202" lon="4.80676">
        <ele>225</ele>
        <time>2018-06-29T09:46:55Z</time>
      </trkpt>
      <trkpt lat="45.98209" lon="4.80671">
        <ele>224</ele>
        <time>2018-06-29T09:46:56Z</time>
      </trkpt>
      <trkpt lat="45.98216" lon="4.80665">
        <ele>224</ele>
        <time>2018-06-29T09:46:57Z</time>
      </trkpt>
      <trkpt lat="45.98221" lon="4.80659">
        <ele>224</ele>
        <time>2018-06-29T09:46:58Z</time>
      </trkpt>
      <trkpt lat="45.98225" lon="4.80649">
        <ele>224</ele>
        <time>2018-06-29T09:46:59Z</time>
      </trkpt>
      <trkpt lat="45.9823" lon="4.80641">
        <ele>224</ele>
        <time>2018-06-29T09:47:00Z</time>
      </trkpt>
      <trkpt lat="45.98234" lon="4.8063">
        <ele>224</ele>
        <time>2018-06-29T09:47:01Z</time>
      </trkpt>
      <trkpt lat="45.98237" lon="4.80619">
        <ele>224</ele>
        <time>2018-06-29T09:47:02Z</time>
      </trkpt>
      <trkpt lat="45.98241" lon="4.80609">
        <ele>224</ele>
        <time>2018-06-29T09:47:03Z</time>
      </trkpt>
      <trkpt lat="45.98244" lon="4.80599">
        <ele>224</ele>
        <time>2018-06-29T09:47:04Z</time>
      </trkpt>
      <trkpt lat="45.98247" lon="4.8059">
        <ele>224</ele>
        <time>2018-06-29T09:47:05Z</time>
      </trkpt>
      <trkpt lat="45.98248" lon="4.80579">
        <ele>224</ele>
        <time>2018-06-29T09:47:06Z</time>
      </trkpt>
      <trkpt lat="45.98252" lon="4.80569">
        <ele>224</ele>
        <time>2018-06-29T09:47:07Z</time>
      </trkpt>
      <trkpt lat="45.98254" lon="4.8056">
        <ele>224</ele>
        <time>2018-06-29T09:47:08Z</time>
      </trkpt>
      <trkpt lat="45.98256" lon="4.80552">
        <ele>224</ele>
        <time>2018-06-29T09:47:09Z</time>
      </trkpt>
      <trkpt lat="45.98259" lon="4.80543">
        <ele>224</ele>
        <time>2018-06-29T09:47:10Z</time>
      </trkpt>
      <trkpt lat="45.98261" lon="4.80536">
        <ele>224</ele>
        <time>2018-06-29T09:47:11Z</time>
      </trkpt>
      <trkpt lat="45.98265" lon="4.80531">
        <ele>224</ele>
        <time>2018-06-29T09:47:12Z</time>
      </trkpt>
      <trkpt lat="45.98266" lon="4.80523">
        <ele>224</ele>
        <time>2018-06-29T09:47:13Z</time>
      </trkpt>
      <trkpt lat="45.98268" lon="4.80516">
        <ele>223</ele>
        <time>2018-06-29T09:47:14Z</time>
      </trkpt>
      <trkpt lat="45.98271" lon="4.80508">
        <ele>223</ele>
        <time>2018-06-29T09:47:15Z</time>
      </trkpt>
      <trkpt lat="45.98271" lon="4.80501">
        <ele>223</ele>
        <time>2018-06-29T09:47:16Z</time>
      </trkpt>
      <trkpt lat="45.98272" lon="4.80494">
        <ele>223</ele>
        <time>2018-06-29T09:47:17Z</time>
      </trkpt>
      <trkpt lat="45.98274" lon="4.80486">
        <ele>223</ele>
        <time>2018-06-29T09:47:18Z</time>
      </trkpt>
      <trkpt lat="45.98277" lon="4.80477">
        <ele>223</ele>
        <time>2018-06-29T09:47:19Z</time>
      </trkpt>
      <trkpt lat="45.98278" lon="4.80469">
        <ele>223</ele>
        <time>2018-06-29T09:47:20Z</time>
      </trkpt>
      <trkpt lat="45.98278" lon="4.80461">
        <ele>223</ele>
        <time>2018-06-29T09:47:21Z</time>
      </trkpt>
      <trkpt lat="45.9828" lon="4.80453">
        <ele>223</ele>
        <time>2018-06-29T09:47:22Z</time>
      </trkpt>
      <trkpt lat="45.98282" lon="4.80447">
        <ele>223</ele>
        <time>2018-06-29T09:47:23Z</time>
      </trkpt>
      <trkpt lat="45.98284" lon="4.80439">
        <ele>223</ele>
        <time>2018-06-29T09:47:24Z</time>
      </trkpt>
      <trkpt lat="45.98286" lon="4.8043">
        <ele>223</ele>
        <time>2018-06-29T09:47:25Z</time>
      </trkpt>
      <trkpt lat="45.98289" lon="4.80422">
        <ele>224</ele>
        <time>2018-06-29T09:47:26Z</time>
      </trkpt>
      <trkpt lat="45.98291" lon="4.80415">
        <ele>224</ele>
        <time>2018-06-29T09:47:27Z</time>
      </trkpt>
      <trkpt lat="45.98294" lon="4.80407">
        <ele>224</ele>
        <time>2018-06-29T09:47:28Z</time>
      </trkpt>
      <trkpt lat="45.98296" lon="4.80401">
        <ele>224</ele>
        <time>2018-06-29T09:47:29Z</time>
      </trkpt>
      <trkpt lat="45.98298" lon="4.80394">
        <ele>225</ele>
        <time>2018-06-29T09:47:30Z</time>
      </trkpt>
      <trkpt lat="45.98302" lon="4.80387">
        <ele>225</ele>
        <time>2018-06-29T09:47:31Z</time>
      </trkpt>
      <trkpt lat="45.98303" lon="4.80379">
        <ele>225</ele>
        <time>2018-06-29T09:47:32Z</time>
      </trkpt>
      <trkpt lat="45.98305" lon="4.80373">
        <ele>225</ele>
        <time>2018-06-29T09:47:33Z</time>
      </trkpt>
      <trkpt lat="45.98307" lon="4.80365">
        <ele>225</ele>
        <time>2018-06-29T09:47:34Z</time>
      </trkpt>
      <trkpt lat="45.98307" lon="4.80358">
        <ele>225</ele>
        <time>2018-06-29T09:47:35Z</time>
      </trkpt>
      <trkpt lat="45.98308" lon="4.80351">
        <ele>226</ele>
        <time>2018-06-29T09:47:36Z</time>
      </trkpt>
      <trkpt lat="45.98309" lon="4.80343">
        <ele>226</ele>
        <time>2018-06-29T09:47:37Z</time>
      </trkpt>
      <trkpt lat="45.98311" lon="4.80337">
        <ele>226</ele>
        <time>2018-06-29T09:47:38Z</time>
      </trkpt>
      <trkpt lat="45.98314" lon="4.80328">
        <ele>227</ele>
        <time>2018-06-29T09:47:39Z</time>
      </trkpt>
      <trkpt lat="45.98314" lon="4.80321">
        <ele>227</ele>
        <time>2018-06-29T09:47:40Z</time>
      </trkpt>
      <trkpt lat="45.98316" lon="4.8031">
        <ele>227</ele>
        <time>2018-06-29T09:47:42Z</time>
      </trkpt>
      <trkpt lat="45.98314" lon="4.80307">
        <ele>226</ele>
        <time>2018-06-29T09:47:43Z</time>
      </trkpt>
      <trkpt lat="45.98311" lon="4.80303">
        <ele>226</ele>
        <time>2018-06-29T09:47:45Z</time>
      </trkpt>
      <trkpt lat="45.98315" lon="4.8029">
        <ele>226</ele>
        <time>2018-06-29T09:47:46Z</time>
      </trkpt>
      <trkpt lat="45.98319" lon="4.80279">
        <ele>227</ele>
        <time>2018-06-29T09:47:48Z</time>
      </trkpt>
      <trkpt lat="45.98318" lon="4.80272">
        <ele>227</ele>
        <time>2018-06-29T09:47:49Z</time>
      </trkpt>
      <trkpt lat="45.98323" lon="4.80264">
        <ele>228</ele>
        <time>2018-06-29T09:47:51Z</time>
      </trkpt>
      <trkpt lat="45.98321" lon="4.80257">
        <ele>228</ele>
        <time>2018-06-29T09:47:52Z</time>
      </trkpt>
      <trkpt lat="45.98323" lon="4.80252">
        <ele>228</ele>
        <time>2018-06-29T09:47:54Z</time>
      </trkpt>
      <trkpt lat="45.98326" lon="4.8024">
        <ele>228</ele>
        <time>2018-06-29T09:47:55Z</time>
      </trkpt>
      <trkpt lat="45.98328" lon="4.80231">
        <ele>228</ele>
        <time>2018-06-29T09:47:57Z</time>
      </trkpt>
      <trkpt lat="45.98329" lon="4.80223">
        <ele>227</ele>
        <time>2018-06-29T09:47:58Z</time>
      </trkpt>
      <trkpt lat="45.98327" lon="4.80211">
        <ele>227</ele>
        <time>2018-06-29T09:48:00Z</time>
      </trkpt>
      <trkpt lat="45.98325" lon="4.80205">
        <ele>227</ele>
        <time>2018-06-29T09:48:01Z</time>
      </trkpt>
      <trkpt lat="45.98321" lon="4.80194">
        <ele>227</ele>
        <time>2018-06-29T09:48:03Z</time>
      </trkpt>
      <trkpt lat="45.98319" lon="4.80189">
        <ele>227</ele>
        <time>2018-06-29T09:48:04Z</time>
      </trkpt>
      <trkpt lat="45.98317" lon="4.80181">
        <ele>227</ele>
        <time>2018-06-29T09:48:05Z</time>
      </trkpt>
      <trkpt lat="45.98314" lon="4.80175">
        <ele>227</ele>
        <time>2018-06-29T09:48:06Z</time>
      </trkpt>
      <trkpt lat="45.98312" lon="4.80168">
        <ele>227</ele>
        <time>2018-06-29T09:48:07Z</time>
      </trkpt>
      <trkpt lat="45.98309" lon="4.80161">
        <ele>228</ele>
        <time>2018-06-29T09:48:08Z</time>
      </trkpt>
      <trkpt lat="45.98308" lon="4.80154">
        <ele>228</ele>
        <time>2018-06-29T09:48:09Z</time>
      </trkpt>
      <trkpt lat="45.98305" lon="4.80147">
        <ele>228</ele>
        <time>2018-06-29T09:48:10Z</time>
      </trkpt>
      <trkpt lat="45.98303" lon="4.8014">
        <ele>228</ele>
        <time>2018-06-29T09:48:11Z</time>
      </trkpt>
      <trkpt lat="45.983" lon="4.80132">
        <ele>228</ele>
        <time>2018-06-29T09:48:12Z</time>
      </trkpt>
      <trkpt lat="45.98298" lon="4.80125">
        <ele>228</ele>
        <time>2018-06-29T09:48:13Z</time>
      </trkpt>
      <trkpt lat="45.98296" lon="4.80118">
        <ele>228</ele>
        <time>2018-06-29T09:48:14Z</time>
      </trkpt>
      <trkpt lat="45.98293" lon="4.80112">
        <ele>228</ele>
        <time>2018-06-29T09:48:15Z</time>
      </trkpt>
      <trkpt lat="45.98291" lon="4.80105">
        <ele>228</ele>
        <time>2018-06-29T09:48:16Z</time>
      </trkpt>
      <trkpt lat="45.98288" lon="4.80097">
        <ele>228</ele>
        <time>2018-06-29T09:48:17Z</time>
      </trkpt>
      <trkpt lat="45.98286" lon="4.80091">
        <ele>228</ele>
        <time>2018-06-29T09:48:18Z</time>
      </trkpt>
      <trkpt lat="45.98284" lon="4.80084">
        <ele>228</ele>
        <time>2018-06-29T09:48:19Z</time>
      </trkpt>
      <trkpt lat="45.98282" lon="4.80078">
        <ele>229</ele>
        <time>2018-06-29T09:48:20Z</time>
      </trkpt>
      <trkpt lat="45.98279" lon="4.80071">
        <ele>229</ele>
        <time>2018-06-29T09:48:21Z</time>
      </trkpt>
      <trkpt lat="45.98278" lon="4.80065">
        <ele>229</ele>
        <time>2018-06-29T09:48:22Z</time>
      </trkpt>
      <trkpt lat="45.98275" lon="4.80058">
        <ele>229</ele>
        <time>2018-06-29T09:48:23Z</time>
      </trkpt>
      <trkpt lat="45.98274" lon="4.80052">
        <ele>229</ele>
        <time>2018-06-29T09:48:24Z</time>
      </trkpt>
      <trkpt lat="45.98272" lon="4.80045">
        <ele>229</ele>
        <time>2018-06-29T09:48:25Z</time>
      </trkpt>
      <trkpt lat="45.98269" lon="4.80037">
        <ele>229</ele>
        <time>2018-06-29T09:48:26Z</time>
      </trkpt>
      <trkpt lat="45.98265" lon="4.80029">
        <ele>228</ele>
        <time>2018-06-29T09:48:27Z</time>
      </trkpt>
      <trkpt lat="45.98262" lon="4.80022">
        <ele>228</ele>
        <time>2018-06-29T09:48:28Z</time>
      </trkpt>
      <trkpt lat="45.9826" lon="4.80014">
        <ele>228</ele>
        <time>2018-06-29T09:48:29Z</time>
      </trkpt>
      <trkpt lat="45.98258" lon="4.80007">
        <ele>227</ele>
        <time>2018-06-29T09:48:30Z</time>
      </trkpt>
      <trkpt lat="45.98255" lon="4.79999">
        <ele>227</ele>
        <time>2018-06-29T09:48:31Z</time>
      </trkpt>
      <trkpt lat="45.98253" lon="4.79993">
        <ele>227</ele>
        <time>2018-06-29T09:48:32Z</time>
      </trkpt>
      <trkpt lat="45.9825" lon="4.79981">
        <ele>225</ele>
        <time>2018-06-29T09:48:34Z</time>
      </trkpt>
      <trkpt lat="45.98245" lon="4.79975">
        <ele>225</ele>
        <time>2018-06-29T09:48:35Z</time>
      </trkpt>
      <trkpt lat="45.98242" lon="4.79968">
        <ele>225</ele>
        <time>2018-06-29T09:48:36Z</time>
      </trkpt>
      <trkpt lat="45.98239" lon="4.79961">
        <ele>225</ele>
        <time>2018-06-29T09:48:37Z</time>
      </trkpt>
      <trkpt lat="45.98238" lon="4.79956">
        <ele>225</ele>
        <time>2018-06-29T09:48:38Z</time>
      </trkpt>
      <trkpt lat="45.98236" lon="4.79949">
        <ele>225</ele>
        <time>2018-06-29T09:48:39Z</time>
      </trkpt>
      <trkpt lat="45.98235" lon="4.79943">
        <ele>225</ele>
        <time>2018-06-29T09:48:40Z</time>
      </trkpt>
      <trkpt lat="45.98232" lon="4.79936">
        <ele>225</ele>
        <time>2018-06-29T09:48:41Z</time>
      </trkpt>
      <trkpt lat="45.9823" lon="4.79929">
        <ele>225</ele>
        <time>2018-06-29T09:48:42Z</time>
      </trkpt>
      <trkpt lat="45.98228" lon="4.79922">
        <ele>225</ele>
        <time>2018-06-29T09:48:43Z</time>
      </trkpt>
      <trkpt lat="45.98226" lon="4.79916">
        <ele>225</ele>
        <time>2018-06-29T09:48:44Z</time>
      </trkpt>
      <trkpt lat="45.98224" lon="4.7991">
        <ele>225</ele>
        <time>2018-06-29T09:48:45Z</time>
      </trkpt>
      <trkpt lat="45.98223" lon="4.79899">
        <ele>225</ele>
        <time>2018-06-29T09:48:47Z</time>
      </trkpt>
      <trkpt lat="45.98221" lon="4.79894">
        <ele>225</ele>
        <time>2018-06-29T09:48:48Z</time>
      </trkpt>
      <trkpt lat="45.98221" lon="4.79886">
        <ele>225</ele>
        <time>2018-06-29T09:48:49Z</time>
      </trkpt>
      <trkpt lat="45.98219" lon="4.79879">
        <ele>225</ele>
        <time>2018-06-29T09:48:50Z</time>
      </trkpt>
      <trkpt lat="45.98217" lon="4.79867">
        <ele>225</ele>
        <time>2018-06-29T09:48:52Z</time>
      </trkpt>
      <trkpt lat="45.98214" lon="4.79858">
        <ele>225</ele>
        <time>2018-06-29T09:48:53Z</time>
      </trkpt>
      <trkpt lat="45.9821" lon="4.79852">
        <ele>225</ele>
        <time>2018-06-29T09:48:54Z</time>
      </trkpt>
      <trkpt lat="45.9821" lon="4.79847">
        <ele>225</ele>
        <time>2018-06-29T09:48:55Z</time>
      </trkpt>
      <trkpt lat="45.98206" lon="4.7984">
        <ele>225</ele>
        <time>2018-06-29T09:48:56Z</time>
      </trkpt>
      <trkpt lat="45.98204" lon="4.79836">
        <ele>225</ele>
        <time>2018-06-29T09:48:57Z</time>
      </trkpt>
      <trkpt lat="45.98202" lon="4.79829">
        <ele>226</ele>
        <time>2018-06-29T09:48:58Z</time>
      </trkpt>
      <trkpt lat="45.98199" lon="4.79824">
        <ele>225</ele>
        <time>2018-06-29T09:48:59Z</time>
      </trkpt>
      <trkpt lat="45.98195" lon="4.79814">
        <ele>226</ele>
        <time>2018-06-29T09:49:01Z</time>
      </trkpt>
      <trkpt lat="45.98194" lon="4.79809">
        <ele>226</ele>
        <time>2018-06-29T09:49:02Z</time>
      </trkpt>
      <trkpt lat="45.98191" lon="4.79798">
        <ele>226</ele>
        <time>2018-06-29T09:49:04Z</time>
      </trkpt>
      <trkpt lat="45.9819" lon="4.79793">
        <ele>226</ele>
        <time>2018-06-29T09:49:05Z</time>
      </trkpt>
      <trkpt lat="45.98192" lon="4.79782">
        <ele>226</ele>
        <time>2018-06-29T09:49:07Z</time>
      </trkpt>
      <trkpt lat="45.98193" lon="4.79776">
        <ele>226</ele>
        <time>2018-06-29T09:49:08Z</time>
      </trkpt>
      <trkpt lat="45.98193" lon="4.79764">
        <ele>226</ele>
        <time>2018-06-29T09:49:12Z</time>
      </trkpt>
      <trkpt lat="45.98194" lon="4.79761">
        <ele>226</ele>
        <time>2018-06-29T09:49:13Z</time>
      </trkpt>
      <trkpt lat="45.98202" lon="4.79755">
        <ele>226</ele>
        <time>2018-06-29T09:49:16Z</time>
      </trkpt>
      <trkpt lat="45.98208" lon="4.79753">
        <ele>226</ele>
        <time>2018-06-29T09:49:17Z</time>
      </trkpt>
      <trkpt lat="45.98216" lon="4.79751">
        <ele>227</ele>
        <time>2018-06-29T09:49:19Z</time>
      </trkpt>
      <trkpt lat="45.9822" lon="4.7975">
        <ele>227</ele>
        <time>2018-06-29T09:49:20Z</time>
      </trkpt>
      <trkpt lat="45.98228" lon="4.79749">
        <ele>228</ele>
        <time>2018-06-29T09:49:22Z</time>
      </trkpt>
      <trkpt lat="45.98231" lon="4.79749">
        <ele>228</ele>
        <time>2018-06-29T09:49:23Z</time>
      </trkpt>
      <trkpt lat="45.98239" lon="4.79748">
        <ele>228</ele>
        <time>2018-06-29T09:49:25Z</time>
      </trkpt>
      <trkpt lat="45.98243" lon="4.79746">
        <ele>228</ele>
        <time>2018-06-29T09:49:26Z</time>
      </trkpt>
      <trkpt lat="45.98251" lon="4.79743">
        <ele>230</ele>
        <time>2018-06-29T09:49:28Z</time>
      </trkpt>
      <trkpt lat="45.98255" lon="4.79742">
        <ele>230</ele>
        <time>2018-06-29T09:49:29Z</time>
      </trkpt>
      <trkpt lat="45.98262" lon="4.7974">
        <ele>231</ele>
        <time>2018-06-29T09:49:31Z</time>
      </trkpt>
      <trkpt lat="45.98265" lon="4.79739">
        <ele>232</ele>
        <time>2018-06-29T09:49:32Z</time>
      </trkpt>
      <trkpt lat="45.98272" lon="4.79736">
        <ele>233</ele>
        <time>2018-06-29T09:49:34Z</time>
      </trkpt>
      <trkpt lat="45.98276" lon="4.79735">
        <ele>233</ele>
        <time>2018-06-29T09:49:35Z</time>
      </trkpt>
      <trkpt lat="45.98284" lon="4.79734">
        <ele>234</ele>
        <time>2018-06-29T09:49:37Z</time>
      </trkpt>
      <trkpt lat="45.98286" lon="4.79734">
        <ele>234</ele>
        <time>2018-06-29T09:49:38Z</time>
      </trkpt>
      <trkpt lat="45.9829" lon="4.79733">
        <ele>234</ele>
        <time>2018-06-29T09:49:40Z</time>
      </trkpt>
      <trkpt lat="45.98298" lon="4.79733">
        <ele>235</ele>
        <time>2018-06-29T09:49:41Z</time>
      </trkpt>
      <trkpt lat="45.98305" lon="4.79732">
        <ele>235</ele>
        <time>2018-06-29T09:49:44Z</time>
      </trkpt>
      <trkpt lat="45.98308" lon="4.79732">
        <ele>236</ele>
        <time>2018-06-29T09:49:45Z</time>
      </trkpt>
      <trkpt lat="45.98316" lon="4.79731">
        <ele>236</ele>
        <time>2018-06-29T09:49:46Z</time>
      </trkpt>
      <trkpt lat="45.9832" lon="4.7973">
        <ele>236</ele>
        <time>2018-06-29T09:49:47Z</time>
      </trkpt>
      <trkpt lat="45.98325" lon="4.79729">
        <ele>236</ele>
        <time>2018-06-29T09:49:49Z</time>
      </trkpt>
      <trkpt lat="45.98333" lon="4.79728">
        <ele>236</ele>
        <time>2018-06-29T09:49:50Z</time>
      </trkpt>
      <trkpt lat="45.98341" lon="4.79726">
        <ele>240</ele>
        <time>2018-06-29T09:49:52Z</time>
      </trkpt>
      <trkpt lat="45.98345" lon="4.79726">
        <ele>240</ele>
        <time>2018-06-29T09:49:53Z</time>
      </trkpt>
      <trkpt lat="45.98353" lon="4.79726">
        <ele>240</ele>
        <time>2018-06-29T09:49:55Z</time>
      </trkpt>
      <trkpt lat="45.98356" lon="4.79726">
        <ele>240</ele>
        <time>2018-06-29T09:49:56Z</time>
      </trkpt>
      <trkpt lat="45.98364" lon="4.79725">
        <ele>240</ele>
        <time>2018-06-29T09:49:58Z</time>
      </trkpt>
      <trkpt lat="45.98368" lon="4.79725">
        <ele>240</ele>
        <time>2018-06-29T09:49:59Z</time>
      </trkpt>
      <trkpt lat="45.98375" lon="4.79725">
        <ele>241</ele>
        <time>2018-06-29T09:50:01Z</time>
      </trkpt>
      <trkpt lat="45.98379" lon="4.79725">
        <ele>241</ele>
        <time>2018-06-29T09:50:02Z</time>
      </trkpt>
      <trkpt lat="45.98386" lon="4.79723">
        <ele>241</ele>
        <time>2018-06-29T09:50:04Z</time>
      </trkpt>
      <trkpt lat="45.9839" lon="4.79722">
        <ele>241</ele>
        <time>2018-06-29T09:50:05Z</time>
      </trkpt>
      <trkpt lat="45.98397" lon="4.7972">
        <ele>241</ele>
        <time>2018-06-29T09:50:07Z</time>
      </trkpt>
      <trkpt lat="45.98401" lon="4.79719">
        <ele>241</ele>
        <time>2018-06-29T09:50:08Z</time>
      </trkpt>
      <trkpt lat="45.98409" lon="4.79718">
        <ele>241</ele>
        <time>2018-06-29T09:50:10Z</time>
      </trkpt>
      <trkpt lat="45.98412" lon="4.79718">
        <ele>241</ele>
        <time>2018-06-29T09:50:11Z</time>
      </trkpt>
      <trkpt lat="45.9842" lon="4.79716">
        <ele>242</ele>
        <time>2018-06-29T09:50:13Z</time>
      </trkpt>
      <trkpt lat="45.98424" lon="4.79715">
        <ele>242</ele>
        <time>2018-06-29T09:50:14Z</time>
      </trkpt>
      <trkpt lat="45.98431" lon="4.79714">
        <ele>242</ele>
        <time>2018-06-29T09:50:16Z</time>
      </trkpt>
      <trkpt lat="45.98434" lon="4.79714">
        <ele>242</ele>
        <time>2018-06-29T09:50:17Z</time>
      </trkpt>
      <trkpt lat="45.98441" lon="4.79714">
        <ele>243</ele>
        <time>2018-06-29T09:50:19Z</time>
      </trkpt>
      <trkpt lat="45.98445" lon="4.79714">
        <ele>243</ele>
        <time>2018-06-29T09:50:20Z</time>
      </trkpt>
      <trkpt lat="45.98453" lon="4.79713">
        <ele>243</ele>
        <time>2018-06-29T09:50:22Z</time>
      </trkpt>
      <trkpt lat="45.98458" lon="4.79712">
        <ele>243</ele>
        <time>2018-06-29T09:50:23Z</time>
      </trkpt>
      <trkpt lat="45.98463" lon="4.79711">
        <ele>243</ele>
        <time>2018-06-29T09:50:24Z</time>
      </trkpt>
      <trkpt lat="45.98468" lon="4.79711">
        <ele>243</ele>
        <time>2018-06-29T09:50:25Z</time>
      </trkpt>
      <trkpt lat="45.98473" lon="4.79711">
        <ele>243</ele>
        <time>2018-06-29T09:50:26Z</time>
      </trkpt>
      <trkpt lat="45.98478" lon="4.79711">
        <ele>243</ele>
        <time>2018-06-29T09:50:27Z</time>
      </trkpt>
      <trkpt lat="45.98485" lon="4.79713">
        <ele>243</ele>
        <time>2018-06-29T09:50:29Z</time>
      </trkpt>
      <trkpt lat="45.9849" lon="4.79714">
        <ele>243</ele>
        <time>2018-06-29T09:50:30Z</time>
      </trkpt>
      <trkpt lat="45.98494" lon="4.79716">
        <ele>243</ele>
        <time>2018-06-29T09:50:31Z</time>
      </trkpt>
      <trkpt lat="45.98499" lon="4.79716">
        <ele>243</ele>
        <time>2018-06-29T09:50:32Z</time>
      </trkpt>
      <trkpt lat="45.98507" lon="4.79716">
        <ele>244</ele>
        <time>2018-06-29T09:50:35Z</time>
      </trkpt>
      <trkpt lat="45.98511" lon="4.79716">
        <ele>244</ele>
        <time>2018-06-29T09:50:36Z</time>
      </trkpt>
      <trkpt lat="45.98518" lon="4.79714">
        <ele>244</ele>
        <time>2018-06-29T09:50:38Z</time>
      </trkpt>
      <trkpt lat="45.98522" lon="4.79713">
        <ele>244</ele>
        <time>2018-06-29T09:50:39Z</time>
      </trkpt>
      <trkpt lat="45.9853" lon="4.7971">
        <ele>244</ele>
        <time>2018-06-29T09:50:41Z</time>
      </trkpt>
      <trkpt lat="45.98534" lon="4.79709">
        <ele>244</ele>
        <time>2018-06-29T09:50:42Z</time>
      </trkpt>
      <trkpt lat="45.98542" lon="4.79706">
        <ele>244</ele>
        <time>2018-06-29T09:50:44Z</time>
      </trkpt>
      <trkpt lat="45.98546" lon="4.79705">
        <ele>244</ele>
        <time>2018-06-29T09:50:45Z</time>
      </trkpt>
      <trkpt lat="45.98553" lon="4.79699">
        <ele>244</ele>
        <time>2018-06-29T09:50:48Z</time>
      </trkpt>
      <trkpt lat="45.98555" lon="4.79698">
        <ele>244</ele>
        <time>2018-06-29T09:50:49Z</time>
      </trkpt>
      <trkpt lat="45.98557" lon="4.79696">
        <ele>244</ele>
        <time>2018-06-29T09:50:50Z</time>
      </trkpt>
      <trkpt lat="45.98564" lon="4.79689">
        <ele>244</ele>
        <time>2018-06-29T09:50:51Z</time>
      </trkpt>
      <trkpt lat="45.98569" lon="4.79684">
        <ele>244</ele>
        <time>2018-06-29T09:50:53Z</time>
      </trkpt>
      <trkpt lat="45.98573" lon="4.79679">
        <ele>245</ele>
        <time>2018-06-29T09:50:54Z</time>
      </trkpt>
      <trkpt lat="45.98577" lon="4.79671">
        <ele>245</ele>
        <time>2018-06-29T09:50:56Z</time>
      </trkpt>
      <trkpt lat="45.98579" lon="4.79667">
        <ele>245</ele>
        <time>2018-06-29T09:50:57Z</time>
      </trkpt>
      <trkpt lat="45.98582" lon="4.79661">
        <ele>245</ele>
        <time>2018-06-29T09:50:59Z</time>
      </trkpt>
      <trkpt lat="45.98584" lon="4.79655">
        <ele>245</ele>
        <time>2018-06-29T09:51:00Z</time>
      </trkpt>
      <trkpt lat="45.98589" lon="4.79646">
        <ele>245</ele>
        <time>2018-06-29T09:51:02Z</time>
      </trkpt>
      <trkpt lat="45.98592" lon="4.79642">
        <ele>245</ele>
        <time>2018-06-29T09:51:03Z</time>
      </trkpt>
      <trkpt lat="45.98599" lon="4.79634">
        <ele>245</ele>
        <time>2018-06-29T09:51:05Z</time>
      </trkpt>
      <trkpt lat="45.98602" lon="4.7963">
        <ele>245</ele>
        <time>2018-06-29T09:51:06Z</time>
      </trkpt>
      <trkpt lat="45.9861" lon="4.79625">
        <ele>245</ele>
        <time>2018-06-29T09:51:08Z</time>
      </trkpt>
      <trkpt lat="45.98614" lon="4.79622">
        <ele>245</ele>
        <time>2018-06-29T09:51:09Z</time>
      </trkpt>
      <trkpt lat="45.98621" lon="4.79615">
        <ele>245</ele>
        <time>2018-06-29T09:51:11Z</time>
      </trkpt>
      <trkpt lat="45.98624" lon="4.7961">
        <ele>245</ele>
        <time>2018-06-29T09:51:12Z</time>
      </trkpt>
      <trkpt lat="45.98625" lon="4.79598">
        <ele>245</ele>
        <time>2018-06-29T09:51:14Z</time>
      </trkpt>
      <trkpt lat="45.98622" lon="4.79592">
        <ele>245</ele>
        <time>2018-06-29T09:51:15Z</time>
      </trkpt>
      <trkpt lat="45.98619" lon="4.79586">
        <ele>245</ele>
        <time>2018-06-29T09:51:16Z</time>
      </trkpt>
      <trkpt lat="45.98613" lon="4.79583">
        <ele>245</ele>
        <time>2018-06-29T09:51:17Z</time>
      </trkpt>
      <trkpt lat="45.98605" lon="4.7958">
        <ele>245</ele>
        <time>2018-06-29T09:51:19Z</time>
      </trkpt>
      <trkpt lat="45.986" lon="4.7958">
        <ele>245</ele>
        <time>2018-06-29T09:51:20Z</time>
      </trkpt>
      <trkpt lat="45.98595" lon="4.7958">
        <ele>245</ele>
        <time>2018-06-29T09:51:21Z</time>
      </trkpt>
      <trkpt lat="45.9859" lon="4.79581">
        <ele>245</ele>
        <time>2018-06-29T09:51:22Z</time>
      </trkpt>
      <trkpt lat="45.98586" lon="4.7958">
        <ele>245</ele>
        <time>2018-06-29T09:51:23Z</time>
      </trkpt>
      <trkpt lat="45.98581" lon="4.79579">
        <ele>245</ele>
        <time>2018-06-29T09:51:24Z</time>
      </trkpt>
      <trkpt lat="45.98577" lon="4.79577">
        <ele>245</ele>
        <time>2018-06-29T09:51:25Z</time>
      </trkpt>
      <trkpt lat="45.98572" lon="4.79575">
        <ele>245</ele>
        <time>2018-06-29T09:51:26Z</time>
      </trkpt>
      <trkpt lat="45.98567" lon="4.79572">
        <ele>244</ele>
        <time>2018-06-29T09:51:27Z</time>
      </trkpt>
      <trkpt lat="45.98563" lon="4.79567">
        <ele>244</ele>
        <time>2018-06-29T09:51:28Z</time>
      </trkpt>
      <trkpt lat="45.98558" lon="4.79562">
        <ele>244</ele>
        <time>2018-06-29T09:51:29Z</time>
      </trkpt>
      <trkpt lat="45.98554" lon="4.79555">
        <ele>244</ele>
        <time>2018-06-29T09:51:30Z</time>
      </trkpt>
      <trkpt lat="45.98553" lon="4.79548">
        <ele>244</ele>
        <time>2018-06-29T09:51:31Z</time>
      </trkpt>
      <trkpt lat="45.98547" lon="4.79543">
        <ele>244</ele>
        <time>2018-06-29T09:51:32Z</time>
      </trkpt>
      <trkpt lat="45.98543" lon="4.79536">
        <ele>244</ele>
        <time>2018-06-29T09:51:33Z</time>
      </trkpt>
      <trkpt lat="45.98539" lon="4.79531">
        <ele>244</ele>
        <time>2018-06-29T09:51:34Z</time>
      </trkpt>
      <trkpt lat="45.98537" lon="4.79523">
        <ele>244</ele>
        <time>2018-06-29T09:51:35Z</time>
      </trkpt>
      <trkpt lat="45.98534" lon="4.79517">
        <ele>244</ele>
        <time>2018-06-29T09:51:36Z</time>
      </trkpt>
      <trkpt lat="45.98532" lon="4.79509">
        <ele>244</ele>
        <time>2018-06-29T09:51:37Z</time>
      </trkpt>
      <trkpt lat="45.98532" lon="4.79502">
        <ele>244</ele>
        <time>2018-06-29T09:51:38Z</time>
      </trkpt>
      <trkpt lat="45.98531" lon="4.79495">
        <ele>244</ele>
        <time>2018-06-29T09:51:39Z</time>
      </trkpt>
      <trkpt lat="45.98525" lon="4.79488">
        <ele>244</ele>
        <time>2018-06-29T09:51:40Z</time>
      </trkpt>
      <trkpt lat="45.98525" lon="4.79482">
        <ele>244</ele>
        <time>2018-06-29T09:51:41Z</time>
      </trkpt>
      <trkpt lat="45.98523" lon="4.79474">
        <ele>244</ele>
        <time>2018-06-29T09:51:42Z</time>
      </trkpt>
      <trkpt lat="45.98522" lon="4.79465">
        <ele>244</ele>
        <time>2018-06-29T09:51:43Z</time>
      </trkpt>
      <trkpt lat="45.98522" lon="4.79458">
        <ele>244</ele>
        <time>2018-06-29T09:51:44Z</time>
      </trkpt>
      <trkpt lat="45.98523" lon="4.7945">
        <ele>244</ele>
        <time>2018-06-29T09:51:45Z</time>
      </trkpt>
      <trkpt lat="45.98524" lon="4.79441">
        <ele>244</ele>
        <time>2018-06-29T09:51:46Z</time>
      </trkpt>
      <trkpt lat="45.98523" lon="4.79432">
        <ele>244</ele>
        <time>2018-06-29T09:51:47Z</time>
      </trkpt>
      <trkpt lat="45.98522" lon="4.79423">
        <ele>244</ele>
        <time>2018-06-29T09:51:48Z</time>
      </trkpt>
      <trkpt lat="45.98521" lon="4.79415">
        <ele>244</ele>
        <time>2018-06-29T09:51:49Z</time>
      </trkpt>
      <trkpt lat="45.9852" lon="4.79407">
        <ele>244</ele>
        <time>2018-06-29T09:51:50Z</time>
      </trkpt>
      <trkpt lat="45.98519" lon="4.79399">
        <ele>244</ele>
        <time>2018-06-29T09:51:51Z</time>
      </trkpt>
      <trkpt lat="45.98517" lon="4.7939">
        <ele>244</ele>
        <time>2018-06-29T09:51:52Z</time>
      </trkpt>
      <trkpt lat="45.98516" lon="4.79382">
        <ele>244</ele>
        <time>2018-06-29T09:51:53Z</time>
      </trkpt>
      <trkpt lat="45.98515" lon="4.79373">
        <ele>243</ele>
        <time>2018-06-29T09:51:54Z</time>
      </trkpt>
      <trkpt lat="45.98513" lon="4.79366">
        <ele>243</ele>
        <time>2018-06-29T09:51:55Z</time>
      </trkpt>
      <trkpt lat="45.98512" lon="4.79359">
        <ele>243</ele>
        <time>2018-06-29T09:51:56Z</time>
      </trkpt>
      <trkpt lat="45.9851" lon="4.7935">
        <ele>243</ele>
        <time>2018-06-29T09:51:57Z</time>
      </trkpt>
      <trkpt lat="45.98511" lon="4.79342">
        <ele>243</ele>
        <time>2018-06-29T09:51:58Z</time>
      </trkpt>
      <trkpt lat="45.98509" lon="4.79334">
        <ele>243</ele>
        <time>2018-06-29T09:51:59Z</time>
      </trkpt>
      <trkpt lat="45.98506" lon="4.79326">
        <ele>243</ele>
        <time>2018-06-29T09:52:00Z</time>
      </trkpt>
      <trkpt lat="45.98503" lon="4.79318">
        <ele>243</ele>
        <time>2018-06-29T09:52:01Z</time>
      </trkpt>
      <trkpt lat="45.985" lon="4.79309">
        <ele>243</ele>
        <time>2018-06-29T09:52:02Z</time>
      </trkpt>
      <trkpt lat="45.98497" lon="4.79301">
        <ele>243</ele>
        <time>2018-06-29T09:52:03Z</time>
      </trkpt>
      <trkpt lat="45.98493" lon="4.79294">
        <ele>243</ele>
        <time>2018-06-29T09:52:04Z</time>
      </trkpt>
      <trkpt lat="45.98489" lon="4.79286">
        <ele>243</ele>
        <time>2018-06-29T09:52:05Z</time>
      </trkpt>
      <trkpt lat="45.98486" lon="4.79278">
        <ele>243</ele>
        <time>2018-06-29T09:52:06Z</time>
      </trkpt>
      <trkpt lat="45.98481" lon="4.79271">
        <ele>243</ele>
        <time>2018-06-29T09:52:07Z</time>
      </trkpt>
      <trkpt lat="45.98477" lon="4.79264">
        <ele>243</ele>
        <time>2018-06-29T09:52:08Z</time>
      </trkpt>
      <trkpt lat="45.98474" lon="4.79257">
        <ele>243</ele>
        <time>2018-06-29T09:52:09Z</time>
      </trkpt>
      <trkpt lat="45.98471" lon="4.7925">
        <ele>243</ele>
        <time>2018-06-29T09:52:10Z</time>
      </trkpt>
      <trkpt lat="45.98469" lon="4.79245">
        <ele>243</ele>
        <time>2018-06-29T09:52:11Z</time>
      </trkpt>
      <trkpt lat="45.98465" lon="4.79238">
        <ele>243</ele>
        <time>2018-06-29T09:52:12Z</time>
      </trkpt>
      <trkpt lat="45.98461" lon="4.79231">
        <ele>243</ele>
        <time>2018-06-29T09:52:13Z</time>
      </trkpt>
      <trkpt lat="45.98458" lon="4.79225">
        <ele>243</ele>
        <time>2018-06-29T09:52:14Z</time>
      </trkpt>
      <trkpt lat="45.98454" lon="4.79216">
        <ele>243</ele>
        <time>2018-06-29T09:52:15Z</time>
      </trkpt>
      <trkpt lat="45.98451" lon="4.79208">
        <ele>242</ele>
        <time>2018-06-29T09:52:16Z</time>
      </trkpt>
      <trkpt lat="45.98447" lon="4.79203">
        <ele>242</ele>
        <time>2018-06-29T09:52:17Z</time>
      </trkpt>
      <trkpt lat="45.98443" lon="4.79196">
        <ele>242</ele>
        <time>2018-06-29T09:52:18Z</time>
      </trkpt>
      <trkpt lat="45.98438" lon="4.79189">
        <ele>242</ele>
        <time>2018-06-29T09:52:19Z</time>
      </trkpt>
      <trkpt lat="45.98434" lon="4.79182">
        <ele>242</ele>
        <time>2018-06-29T09:52:20Z</time>
      </trkpt>
      <trkpt lat="45.98432" lon="4.79175">
        <ele>242</ele>
        <time>2018-06-29T09:52:21Z</time>
      </trkpt>
      <trkpt lat="45.98428" lon="4.79168">
        <ele>242</ele>
        <time>2018-06-29T09:52:22Z</time>
      </trkpt>
      <trkpt lat="45.98424" lon="4.7916">
        <ele>242</ele>
        <time>2018-06-29T09:52:23Z</time>
      </trkpt>
      <trkpt lat="45.9842" lon="4.79153">
        <ele>242</ele>
        <time>2018-06-29T09:52:24Z</time>
      </trkpt>
      <trkpt lat="45.98415" lon="4.79147">
        <ele>242</ele>
        <time>2018-06-29T09:52:25Z</time>
      </trkpt>
      <trkpt lat="45.98412" lon="4.79141">
        <ele>242</ele>
        <time>2018-06-29T09:52:26Z</time>
      </trkpt>
      <trkpt lat="45.9841" lon="4.79134">
        <ele>242</ele>
        <time>2018-06-29T09:52:27Z</time>
      </trkpt>
      <trkpt lat="45.98406" lon="4.79128">
        <ele>242</ele>
        <time>2018-06-29T09:52:28Z</time>
      </trkpt>
      <trkpt lat="45.98401" lon="4.79121">
        <ele>242</ele>
        <time>2018-06-29T09:52:29Z</time>
      </trkpt>
      <trkpt lat="45.98397" lon="4.79115">
        <ele>242</ele>
        <time>2018-06-29T09:52:30Z</time>
      </trkpt>
      <trkpt lat="45.98391" lon="4.79109">
        <ele>242</ele>
        <time>2018-06-29T09:52:31Z</time>
      </trkpt>
      <trkpt lat="45.98388" lon="4.79101">
        <ele>242</ele>
        <time>2018-06-29T09:52:32Z</time>
      </trkpt>
      <trkpt lat="45.98383" lon="4.79094">
        <ele>242</ele>
        <time>2018-06-29T09:52:33Z</time>
      </trkpt>
      <trkpt lat="45.98379" lon="4.79088">
        <ele>242</ele>
        <time>2018-06-29T09:52:34Z</time>
      </trkpt>
      <trkpt lat="45.98375" lon="4.79082">
        <ele>242</ele>
        <time>2018-06-29T09:52:35Z</time>
      </trkpt>
      <trkpt lat="45.98372" lon="4.79073">
        <ele>242</ele>
        <time>2018-06-29T09:52:36Z</time>
      </trkpt>
      <trkpt lat="45.98368" lon="4.79066">
        <ele>242</ele>
        <time>2018-06-29T09:52:37Z</time>
      </trkpt>
      <trkpt lat="45.98364" lon="4.7906">
        <ele>242</ele>
        <time>2018-06-29T09:52:38Z</time>
      </trkpt>
      <trkpt lat="45.9836" lon="4.79052">
        <ele>242</ele>
        <time>2018-06-29T09:52:39Z</time>
      </trkpt>
      <trkpt lat="45.98358" lon="4.79044">
        <ele>242</ele>
        <time>2018-06-29T09:52:40Z</time>
      </trkpt>
      <trkpt lat="45.98353" lon="4.79037">
        <ele>242</ele>
        <time>2018-06-29T09:52:41Z</time>
      </trkpt>
      <trkpt lat="45.98348" lon="4.79031">
        <ele>242</ele>
        <time>2018-06-29T09:52:42Z</time>
      </trkpt>
      <trkpt lat="45.98342" lon="4.79026">
        <ele>242</ele>
        <time>2018-06-29T09:52:43Z</time>
      </trkpt>
      <trkpt lat="45.98337" lon="4.79021">
        <ele>242</ele>
        <time>2018-06-29T09:52:44Z</time>
      </trkpt>
      <trkpt lat="45.98331" lon="4.79016">
        <ele>242</ele>
        <time>2018-06-29T09:52:45Z</time>
      </trkpt>
      <trkpt lat="45.98325" lon="4.79012">
        <ele>242</ele>
        <time>2018-06-29T09:52:46Z</time>
      </trkpt>
      <trkpt lat="45.9832" lon="4.79008">
        <ele>242</ele>
        <time>2018-06-29T09:52:47Z</time>
      </trkpt>
      <trkpt lat="45.98314" lon="4.79004">
        <ele>242</ele>
        <time>2018-06-29T09:52:48Z</time>
      </trkpt>
      <trkpt lat="45.98309" lon="4.79">
        <ele>242</ele>
        <time>2018-06-29T09:52:49Z</time>
      </trkpt>
      <trkpt lat="45.98303" lon="4.78997">
        <ele>241</ele>
        <time>2018-06-29T09:52:50Z</time>
      </trkpt>
      <trkpt lat="45.98297" lon="4.78994">
        <ele>241</ele>
        <time>2018-06-29T09:52:51Z</time>
      </trkpt>
      <trkpt lat="45.98292" lon="4.78991">
        <ele>241</ele>
        <time>2018-06-29T09:52:52Z</time>
      </trkpt>
      <trkpt lat="45.98286" lon="4.78986">
        <ele>241</ele>
        <time>2018-06-29T09:52:53Z</time>
      </trkpt>
      <trkpt lat="45.9828" lon="4.78983">
        <ele>241</ele>
        <time>2018-06-29T09:52:54Z</time>
      </trkpt>
      <trkpt lat="45.98275" lon="4.78979">
        <ele>241</ele>
        <time>2018-06-29T09:52:55Z</time>
      </trkpt>
      <trkpt lat="45.98269" lon="4.78975">
        <ele>241</ele>
        <time>2018-06-29T09:52:56Z</time>
      </trkpt>
      <trkpt lat="45.98262" lon="4.78971">
        <ele>241</ele>
        <time>2018-06-29T09:52:57Z</time>
      </trkpt>
      <trkpt lat="45.98257" lon="4.78968">
        <ele>241</ele>
        <time>2018-06-29T09:52:58Z</time>
      </trkpt>
      <trkpt lat="45.98251" lon="4.78964">
        <ele>241</ele>
        <time>2018-06-29T09:52:59Z</time>
      </trkpt>
      <trkpt lat="45.98244" lon="4.78961">
        <ele>241</ele>
        <time>2018-06-29T09:53:00Z</time>
      </trkpt>
      <trkpt lat="45.98239" lon="4.78958">
        <ele>241</ele>
        <time>2018-06-29T09:53:01Z</time>
      </trkpt>
      <trkpt lat="45.98232" lon="4.78955">
        <ele>241</ele>
        <time>2018-06-29T09:53:02Z</time>
      </trkpt>
      <trkpt lat="45.98226" lon="4.78952">
        <ele>241</ele>
        <time>2018-06-29T09:53:03Z</time>
      </trkpt>
      <trkpt lat="45.98221" lon="4.78948">
        <ele>241</ele>
        <time>2018-06-29T09:53:04Z</time>
      </trkpt>
      <trkpt lat="45.98217" lon="4.78944">
        <ele>241</ele>
        <time>2018-06-29T09:53:05Z</time>
      </trkpt>
      <trkpt lat="45.98211" lon="4.78941">
        <ele>241</ele>
        <time>2018-06-29T09:53:06Z</time>
      </trkpt>
      <trkpt lat="45.98206" lon="4.78938">
        <ele>241</ele>
        <time>2018-06-29T09:53:07Z</time>
      </trkpt>
      <trkpt lat="45.98199" lon="4.78935">
        <ele>241</ele>
        <time>2018-06-29T09:53:08Z</time>
      </trkpt>
      <trkpt lat="45.98193" lon="4.78933">
        <ele>241</ele>
        <time>2018-06-29T09:53:09Z</time>
      </trkpt>
      <trkpt lat="45.98187" lon="4.78927">
        <ele>241</ele>
        <time>2018-06-29T09:53:10Z</time>
      </trkpt>
      <trkpt lat="45.98182" lon="4.78924">
        <ele>240</ele>
        <time>2018-06-29T09:53:11Z</time>
      </trkpt>
      <trkpt lat="45.98178" lon="4.7892">
        <ele>240</ele>
        <time>2018-06-29T09:53:12Z</time>
      </trkpt>
      <trkpt lat="45.9817" lon="4.78917">
        <ele>240</ele>
        <time>2018-06-29T09:53:13Z</time>
      </trkpt>
      <trkpt lat="45.98165" lon="4.78914">
        <ele>240</ele>
        <time>2018-06-29T09:53:14Z</time>
      </trkpt>
      <trkpt lat="45.98156" lon="4.7891">
        <ele>240</ele>
        <time>2018-06-29T09:53:16Z</time>
      </trkpt>
      <trkpt lat="45.98151" lon="4.78907">
        <ele>240</ele>
        <time>2018-06-29T09:53:17Z</time>
      </trkpt>
      <trkpt lat="45.98145" lon="4.78905">
        <ele>240</ele>
        <time>2018-06-29T09:53:18Z</time>
      </trkpt>
      <trkpt lat="45.98139" lon="4.78901">
        <ele>240</ele>
        <time>2018-06-29T09:53:19Z</time>
      </trkpt>
      <trkpt lat="45.98133" lon="4.78898">
        <ele>240</ele>
        <time>2018-06-29T09:53:20Z</time>
      </trkpt>
      <trkpt lat="45.98125" lon="4.78894">
        <ele>240</ele>
        <time>2018-06-29T09:53:21Z</time>
      </trkpt>
      <trkpt lat="45.9812" lon="4.78891">
        <ele>240</ele>
        <time>2018-06-29T09:53:22Z</time>
      </trkpt>
      <trkpt lat="45.98114" lon="4.78886">
        <ele>240</ele>
        <time>2018-06-29T09:53:23Z</time>
      </trkpt>
      <trkpt lat="45.98108" lon="4.78882">
        <ele>240</ele>
        <time>2018-06-29T09:53:24Z</time>
      </trkpt>
      <trkpt lat="45.98102" lon="4.78879">
        <ele>240</ele>
        <time>2018-06-29T09:53:25Z</time>
      </trkpt>
      <trkpt lat="45.98096" lon="4.78874">
        <ele>239</ele>
        <time>2018-06-29T09:53:26Z</time>
      </trkpt>
      <trkpt lat="45.98091" lon="4.7887">
        <ele>239</ele>
        <time>2018-06-29T09:53:27Z</time>
      </trkpt>
      <trkpt lat="45.98085" lon="4.78866">
        <ele>239</ele>
        <time>2018-06-29T09:53:28Z</time>
      </trkpt>
      <trkpt lat="45.98081" lon="4.78863">
        <ele>239</ele>
        <time>2018-06-29T09:53:29Z</time>
      </trkpt>
      <trkpt lat="45.98075" lon="4.7886">
        <ele>239</ele>
        <time>2018-06-29T09:53:30Z</time>
      </trkpt>
      <trkpt lat="45.98069" lon="4.78856">
        <ele>239</ele>
        <time>2018-06-29T09:53:31Z</time>
      </trkpt>
      <trkpt lat="45.98063" lon="4.78852">
        <ele>239</ele>
        <time>2018-06-29T09:53:32Z</time>
      </trkpt>
      <trkpt lat="45.98057" lon="4.78847">
        <ele>239</ele>
        <time>2018-06-29T09:53:33Z</time>
      </trkpt>
      <trkpt lat="45.98049" lon="4.78842">
        <ele>239</ele>
        <time>2018-06-29T09:53:34Z</time>
      </trkpt>
      <trkpt lat="45.98043" lon="4.78838">
        <ele>238</ele>
        <time>2018-06-29T09:53:35Z</time>
      </trkpt>
      <trkpt lat="45.98036" lon="4.78833">
        <ele>238</ele>
        <time>2018-06-29T09:53:36Z</time>
      </trkpt>
      <trkpt lat="45.98031" lon="4.78829">
        <ele>238</ele>
        <time>2018-06-29T09:53:37Z</time>
      </trkpt>
      <trkpt lat="45.98025" lon="4.78824">
        <ele>238</ele>
        <time>2018-06-29T09:53:38Z</time>
      </trkpt>
      <trkpt lat="45.9802" lon="4.78821">
        <ele>238</ele>
        <time>2018-06-29T09:53:39Z</time>
      </trkpt>
      <trkpt lat="45.98014" lon="4.78817">
        <ele>238</ele>
        <time>2018-06-29T09:53:40Z</time>
      </trkpt>
      <trkpt lat="45.98009" lon="4.78812">
        <ele>238</ele>
        <time>2018-06-29T09:53:41Z</time>
      </trkpt>
      <trkpt lat="45.98003" lon="4.78808">
        <ele>238</ele>
        <time>2018-06-29T09:53:42Z</time>
      </trkpt>
      <trkpt lat="45.97998" lon="4.78805">
        <ele>238</ele>
        <time>2018-06-29T09:53:43Z</time>
      </trkpt>
      <trkpt lat="45.97993" lon="4.78801">
        <ele>238</ele>
        <time>2018-06-29T09:53:44Z</time>
      </trkpt>
      <trkpt lat="45.97988" lon="4.78798">
        <ele>238</ele>
        <time>2018-06-29T09:53:45Z</time>
      </trkpt>
      <trkpt lat="45.97983" lon="4.78795">
        <ele>238</ele>
        <time>2018-06-29T09:53:46Z</time>
      </trkpt>
      <trkpt lat="45.97977" lon="4.78791">
        <ele>238</ele>
        <time>2018-06-29T09:53:47Z</time>
      </trkpt>
      <trkpt lat="45.97971" lon="4.78788">
        <ele>238</ele>
        <time>2018-06-29T09:53:48Z</time>
      </trkpt>
      <trkpt lat="45.97966" lon="4.78784">
        <ele>238</ele>
        <time>2018-06-29T09:53:49Z</time>
      </trkpt>
      <trkpt lat="45.97961" lon="4.7878">
        <ele>238</ele>
        <time>2018-06-29T09:53:50Z</time>
      </trkpt>
      <trkpt lat="45.97955" lon="4.78776">
        <ele>238</ele>
        <time>2018-06-29T09:53:51Z</time>
      </trkpt>
      <trkpt lat="45.97949" lon="4.78772">
        <ele>238</ele>
        <time>2018-06-29T09:53:52Z</time>
      </trkpt>
      <trkpt lat="45.97943" lon="4.78767">
        <ele>238</ele>
        <time>2018-06-29T09:53:53Z</time>
      </trkpt>
      <trkpt lat="45.97938" lon="4.78763">
        <ele>238</ele>
        <time>2018-06-29T09:53:54Z</time>
      </trkpt>
      <trkpt lat="45.97932" lon="4.78759">
        <ele>238</ele>
        <time>2018-06-29T09:53:55Z</time>
      </trkpt>
      <trkpt lat="45.97926" lon="4.78754">
        <ele>237</ele>
        <time>2018-06-29T09:53:56Z</time>
      </trkpt>
      <trkpt lat="45.9792" lon="4.78749">
        <ele>237</ele>
        <time>2018-06-29T09:53:57Z</time>
      </trkpt>
      <trkpt lat="45.97915" lon="4.78745">
        <ele>237</ele>
        <time>2018-06-29T09:53:58Z</time>
      </trkpt>
      <trkpt lat="45.97908" lon="4.7874">
        <ele>237</ele>
        <time>2018-06-29T09:53:59Z</time>
      </trkpt>
      <trkpt lat="45.97902" lon="4.78736">
        <ele>237</ele>
        <time>2018-06-29T09:54:00Z</time>
      </trkpt>
      <trkpt lat="45.97897" lon="4.78732">
        <ele>237</ele>
        <time>2018-06-29T09:54:01Z</time>
      </trkpt>
      <trkpt lat="45.9789" lon="4.78727">
        <ele>236</ele>
        <time>2018-06-29T09:54:02Z</time>
      </trkpt>
      <trkpt lat="45.97885" lon="4.78723">
        <ele>236</ele>
        <time>2018-06-29T09:54:03Z</time>
      </trkpt>
      <trkpt lat="45.9788" lon="4.78719">
        <ele>236</ele>
        <time>2018-06-29T09:54:04Z</time>
      </trkpt>
      <trkpt lat="45.97874" lon="4.78715">
        <ele>236</ele>
        <time>2018-06-29T09:54:05Z</time>
      </trkpt>
      <trkpt lat="45.97868" lon="4.78712">
        <ele>236</ele>
        <time>2018-06-29T09:54:06Z</time>
      </trkpt>
      <trkpt lat="45.97863" lon="4.78708">
        <ele>236</ele>
        <time>2018-06-29T09:54:07Z</time>
      </trkpt>
      <trkpt lat="45.97858" lon="4.78705">
        <ele>236</ele>
        <time>2018-06-29T09:54:08Z</time>
      </trkpt>
      <trkpt lat="45.97852" lon="4.78701">
        <ele>236</ele>
        <time>2018-06-29T09:54:09Z</time>
      </trkpt>
      <trkpt lat="45.97848" lon="4.78697">
        <ele>236</ele>
        <time>2018-06-29T09:54:10Z</time>
      </trkpt>
      <trkpt lat="45.97842" lon="4.78694">
        <ele>236</ele>
        <time>2018-06-29T09:54:11Z</time>
      </trkpt>
      <trkpt lat="45.97836" lon="4.7869">
        <ele>236</ele>
        <time>2018-06-29T09:54:12Z</time>
      </trkpt>
      <trkpt lat="45.9783" lon="4.78686">
        <ele>235</ele>
        <time>2018-06-29T09:54:13Z</time>
      </trkpt>
      <trkpt lat="45.97824" lon="4.78685">
        <ele>235</ele>
        <time>2018-06-29T09:54:14Z</time>
      </trkpt>
      <trkpt lat="45.97819" lon="4.78682">
        <ele>235</ele>
        <time>2018-06-29T09:54:15Z</time>
      </trkpt>
      <trkpt lat="45.97813" lon="4.78679">
        <ele>235</ele>
        <time>2018-06-29T09:54:16Z</time>
      </trkpt>
      <trkpt lat="45.97807" lon="4.78676">
        <ele>235</ele>
        <time>2018-06-29T09:54:17Z</time>
      </trkpt>
      <trkpt lat="45.97801" lon="4.78673">
        <ele>235</ele>
        <time>2018-06-29T09:54:18Z</time>
      </trkpt>
      <trkpt lat="45.97794" lon="4.7867">
        <ele>235</ele>
        <time>2018-06-29T09:54:19Z</time>
      </trkpt>
      <trkpt lat="45.97788" lon="4.78667">
        <ele>235</ele>
        <time>2018-06-29T09:54:20Z</time>
      </trkpt>
      <trkpt lat="45.97782" lon="4.78665">
        <ele>235</ele>
        <time>2018-06-29T09:54:21Z</time>
      </trkpt>
      <trkpt lat="45.97776" lon="4.78663">
        <ele>235</ele>
        <time>2018-06-29T09:54:22Z</time>
      </trkpt>
      <trkpt lat="45.9777" lon="4.78659">
        <ele>235</ele>
        <time>2018-06-29T09:54:23Z</time>
      </trkpt>
      <trkpt lat="45.97763" lon="4.78656">
        <ele>235</ele>
        <time>2018-06-29T09:54:24Z</time>
      </trkpt>
      <trkpt lat="45.97756" lon="4.78653">
        <ele>235</ele>
        <time>2018-06-29T09:54:25Z</time>
      </trkpt>
      <trkpt lat="45.9775" lon="4.7865">
        <ele>234</ele>
        <time>2018-06-29T09:54:26Z</time>
      </trkpt>
      <trkpt lat="45.97744" lon="4.78648">
        <ele>234</ele>
        <time>2018-06-29T09:54:27Z</time>
      </trkpt>
      <trkpt lat="45.97738" lon="4.78646">
        <ele>234</ele>
        <time>2018-06-29T09:54:28Z</time>
      </trkpt>
      <trkpt lat="45.97732" lon="4.78644">
        <ele>234</ele>
        <time>2018-06-29T09:54:29Z</time>
      </trkpt>
      <trkpt lat="45.97727" lon="4.78642">
        <ele>234</ele>
        <time>2018-06-29T09:54:30Z</time>
      </trkpt>
      <trkpt lat="45.97722" lon="4.78641">
        <ele>234</ele>
        <time>2018-06-29T09:54:31Z</time>
      </trkpt>
      <trkpt lat="45.97716" lon="4.78638">
        <ele>234</ele>
        <time>2018-06-29T09:54:32Z</time>
      </trkpt>
      <trkpt lat="45.9771" lon="4.78635">
        <ele>234</ele>
        <time>2018-06-29T09:54:33Z</time>
      </trkpt>
      <trkpt lat="45.97704" lon="4.78632">
        <ele>234</ele>
        <time>2018-06-29T09:54:34Z</time>
      </trkpt>
      <trkpt lat="45.97699" lon="4.7863">
        <ele>234</ele>
        <time>2018-06-29T09:54:35Z</time>
      </trkpt>
      <trkpt lat="45.97693" lon="4.78627">
        <ele>234</ele>
        <time>2018-06-29T09:54:36Z</time>
      </trkpt>
      <trkpt lat="45.97688" lon="4.78627">
        <ele>234</ele>
        <time>2018-06-29T09:54:37Z</time>
      </trkpt>
      <trkpt lat="45.97681" lon="4.78625">
        <ele>234</ele>
        <time>2018-06-29T09:54:38Z</time>
      </trkpt>
      <trkpt lat="45.97676" lon="4.78622">
        <ele>234</ele>
        <time>2018-06-29T09:54:39Z</time>
      </trkpt>
      <trkpt lat="45.97667" lon="4.78619">
        <ele>234</ele>
        <time>2018-06-29T09:54:40Z</time>
      </trkpt>
      <trkpt lat="45.97661" lon="4.78617">
        <ele>233</ele>
        <time>2018-06-29T09:54:41Z</time>
      </trkpt>
      <trkpt lat="45.97655" lon="4.78614">
        <ele>233</ele>
        <time>2018-06-29T09:54:42Z</time>
      </trkpt>
      <trkpt lat="45.9765" lon="4.78612">
        <ele>233</ele>
        <time>2018-06-29T09:54:43Z</time>
      </trkpt>
      <trkpt lat="45.97644" lon="4.78609">
        <ele>233</ele>
        <time>2018-06-29T09:54:44Z</time>
      </trkpt>
      <trkpt lat="45.97639" lon="4.78607">
        <ele>233</ele>
        <time>2018-06-29T09:54:45Z</time>
      </trkpt>
      <trkpt lat="45.97633" lon="4.78604">
        <ele>233</ele>
        <time>2018-06-29T09:54:46Z</time>
      </trkpt>
      <trkpt lat="45.97627" lon="4.78603">
        <ele>233</ele>
        <time>2018-06-29T09:54:47Z</time>
      </trkpt>
      <trkpt lat="45.97622" lon="4.78601">
        <ele>233</ele>
        <time>2018-06-29T09:54:48Z</time>
      </trkpt>
      <trkpt lat="45.97618" lon="4.78601">
        <ele>233</ele>
        <time>2018-06-29T09:54:49Z</time>
      </trkpt>
      <trkpt lat="45.97612" lon="4.78599">
        <ele>233</ele>
        <time>2018-06-29T09:54:50Z</time>
      </trkpt>
      <trkpt lat="45.97606" lon="4.78596">
        <ele>233</ele>
        <time>2018-06-29T09:54:51Z</time>
      </trkpt>
      <trkpt lat="45.976" lon="4.78594">
        <ele>233</ele>
        <time>2018-06-29T09:54:52Z</time>
      </trkpt>
      <trkpt lat="45.97594" lon="4.78592">
        <ele>233</ele>
        <time>2018-06-29T09:54:53Z</time>
      </trkpt>
      <trkpt lat="45.97588" lon="4.7859">
        <ele>233</ele>
        <time>2018-06-29T09:54:54Z</time>
      </trkpt>
      <trkpt lat="45.97583" lon="4.78587">
        <ele>233</ele>
        <time>2018-06-29T09:54:55Z</time>
      </trkpt>
      <trkpt lat="45.97577" lon="4.78585">
        <ele>233</ele>
        <time>2018-06-29T09:54:56Z</time>
      </trkpt>
      <trkpt lat="45.97571" lon="4.78583">
        <ele>233</ele>
        <time>2018-06-29T09:54:57Z</time>
      </trkpt>
      <trkpt lat="45.97565" lon="4.7858">
        <ele>233</ele>
        <time>2018-06-29T09:54:58Z</time>
      </trkpt>
      <trkpt lat="45.97559" lon="4.78577">
        <ele>233</ele>
        <time>2018-06-29T09:54:59Z</time>
      </trkpt>
      <trkpt lat="45.97552" lon="4.78575">
        <ele>233</ele>
        <time>2018-06-29T09:55:00Z</time>
      </trkpt>
      <trkpt lat="45.97546" lon="4.78572">
        <ele>234</ele>
        <time>2018-06-29T09:55:01Z</time>
      </trkpt>
      <trkpt lat="45.97541" lon="4.78569">
        <ele>234</ele>
        <time>2018-06-29T09:55:02Z</time>
      </trkpt>
      <trkpt lat="45.97534" lon="4.78566">
        <ele>234</ele>
        <time>2018-06-29T09:55:03Z</time>
      </trkpt>
      <trkpt lat="45.97528" lon="4.78562">
        <ele>234</ele>
        <time>2018-06-29T09:55:04Z</time>
      </trkpt>
      <trkpt lat="45.97522" lon="4.78559">
        <ele>234</ele>
        <time>2018-06-29T09:55:05Z</time>
      </trkpt>
      <trkpt lat="45.97516" lon="4.78556">
        <ele>234</ele>
        <time>2018-06-29T09:55:06Z</time>
      </trkpt>
      <trkpt lat="45.9751" lon="4.78552">
        <ele>234</ele>
        <time>2018-06-29T09:55:07Z</time>
      </trkpt>
      <trkpt lat="45.97505" lon="4.78549">
        <ele>234</ele>
        <time>2018-06-29T09:55:08Z</time>
      </trkpt>
      <trkpt lat="45.97499" lon="4.78545">
        <ele>233</ele>
        <time>2018-06-29T09:55:09Z</time>
      </trkpt>
      <trkpt lat="45.97494" lon="4.78542">
        <ele>233</ele>
        <time>2018-06-29T09:55:10Z</time>
      </trkpt>
      <trkpt lat="45.97489" lon="4.78537">
        <ele>233</ele>
        <time>2018-06-29T09:55:11Z</time>
      </trkpt>
      <trkpt lat="45.97484" lon="4.78533">
        <ele>233</ele>
        <time>2018-06-29T09:55:12Z</time>
      </trkpt>
      <trkpt lat="45.97478" lon="4.78529">
        <ele>233</ele>
        <time>2018-06-29T09:55:13Z</time>
      </trkpt>
      <trkpt lat="45.97473" lon="4.78525">
        <ele>233</ele>
        <time>2018-06-29T09:55:14Z</time>
      </trkpt>
      <trkpt lat="45.97467" lon="4.78521">
        <ele>233</ele>
        <time>2018-06-29T09:55:15Z</time>
      </trkpt>
      <trkpt lat="45.97462" lon="4.78516">
        <ele>233</ele>
        <time>2018-06-29T09:55:16Z</time>
      </trkpt>
      <trkpt lat="45.97456" lon="4.78511">
        <ele>233</ele>
        <time>2018-06-29T09:55:17Z</time>
      </trkpt>
      <trkpt lat="45.9745" lon="4.78507">
        <ele>234</ele>
        <time>2018-06-29T09:55:18Z</time>
      </trkpt>
      <trkpt lat="45.97445" lon="4.78502">
        <ele>234</ele>
        <time>2018-06-29T09:55:19Z</time>
      </trkpt>
      <trkpt lat="45.9744" lon="4.78498">
        <ele>234</ele>
        <time>2018-06-29T09:55:20Z</time>
      </trkpt>
      <trkpt lat="45.97433" lon="4.78493">
        <ele>234</ele>
        <time>2018-06-29T09:55:21Z</time>
      </trkpt>
      <trkpt lat="45.97428" lon="4.78488">
        <ele>234</ele>
        <time>2018-06-29T09:55:22Z</time>
      </trkpt>
      <trkpt lat="45.97423" lon="4.78484">
        <ele>234</ele>
        <time>2018-06-29T09:55:23Z</time>
      </trkpt>
      <trkpt lat="45.97418" lon="4.7848">
        <ele>234</ele>
        <time>2018-06-29T09:55:24Z</time>
      </trkpt>
      <trkpt lat="45.97414" lon="4.78475">
        <ele>233</ele>
        <time>2018-06-29T09:55:25Z</time>
      </trkpt>
      <trkpt lat="45.97409" lon="4.78469">
        <ele>233</ele>
        <time>2018-06-29T09:55:26Z</time>
      </trkpt>
      <trkpt lat="45.97403" lon="4.78464">
        <ele>233</ele>
        <time>2018-06-29T09:55:27Z</time>
      </trkpt>
      <trkpt lat="45.97398" lon="4.78458">
        <ele>233</ele>
        <time>2018-06-29T09:55:28Z</time>
      </trkpt>
      <trkpt lat="45.97394" lon="4.78454">
        <ele>233</ele>
        <time>2018-06-29T09:55:29Z</time>
      </trkpt>
      <trkpt lat="45.97388" lon="4.78448">
        <ele>233</ele>
        <time>2018-06-29T09:55:30Z</time>
      </trkpt>
      <trkpt lat="45.97383" lon="4.78443">
        <ele>233</ele>
        <time>2018-06-29T09:55:31Z</time>
      </trkpt>
      <trkpt lat="45.97378" lon="4.78437">
        <ele>233</ele>
        <time>2018-06-29T09:55:32Z</time>
      </trkpt>
      <trkpt lat="45.97373" lon="4.78432">
        <ele>233</ele>
        <time>2018-06-29T09:55:33Z</time>
      </trkpt>
      <trkpt lat="45.97367" lon="4.78427">
        <ele>233</ele>
        <time>2018-06-29T09:55:34Z</time>
      </trkpt>
      <trkpt lat="45.97362" lon="4.78421">
        <ele>233</ele>
        <time>2018-06-29T09:55:35Z</time>
      </trkpt>
      <trkpt lat="45.97356" lon="4.78415">
        <ele>232</ele>
        <time>2018-06-29T09:55:36Z</time>
      </trkpt>
      <trkpt lat="45.97351" lon="4.7841">
        <ele>232</ele>
        <time>2018-06-29T09:55:37Z</time>
      </trkpt>
      <trkpt lat="45.97344" lon="4.78406">
        <ele>232</ele>
        <time>2018-06-29T09:55:38Z</time>
      </trkpt>
      <trkpt lat="45.97338" lon="4.78401">
        <ele>232</ele>
        <time>2018-06-29T09:55:39Z</time>
      </trkpt>
      <trkpt lat="45.97333" lon="4.78395">
        <ele>232</ele>
        <time>2018-06-29T09:55:40Z</time>
      </trkpt>
      <trkpt lat="45.97329" lon="4.7839">
        <ele>232</ele>
        <time>2018-06-29T09:55:41Z</time>
      </trkpt>
      <trkpt lat="45.97324" lon="4.78384">
        <ele>232</ele>
        <time>2018-06-29T09:55:42Z</time>
      </trkpt>
      <trkpt lat="45.9732" lon="4.78378">
        <ele>232</ele>
        <time>2018-06-29T09:55:43Z</time>
      </trkpt>
      <trkpt lat="45.97315" lon="4.78372">
        <ele>232</ele>
        <time>2018-06-29T09:55:44Z</time>
      </trkpt>
      <trkpt lat="45.97311" lon="4.78365">
        <ele>232</ele>
        <time>2018-06-29T09:55:45Z</time>
      </trkpt>
      <trkpt lat="45.97306" lon="4.78358">
        <ele>232</ele>
        <time>2018-06-29T09:55:46Z</time>
      </trkpt>
      <trkpt lat="45.97302" lon="4.78352">
        <ele>232</ele>
        <time>2018-06-29T09:55:47Z</time>
      </trkpt>
      <trkpt lat="45.97298" lon="4.78346">
        <ele>232</ele>
        <time>2018-06-29T09:55:48Z</time>
      </trkpt>
      <trkpt lat="45.97294" lon="4.78341">
        <ele>232</ele>
        <time>2018-06-29T09:55:49Z</time>
      </trkpt>
      <trkpt lat="45.9729" lon="4.78336">
        <ele>232</ele>
        <time>2018-06-29T09:55:50Z</time>
      </trkpt>
      <trkpt lat="45.97286" lon="4.7833">
        <ele>232</ele>
        <time>2018-06-29T09:55:51Z</time>
      </trkpt>
      <trkpt lat="45.97283" lon="4.78324">
        <ele>232</ele>
        <time>2018-06-29T09:55:52Z</time>
      </trkpt>
      <trkpt lat="45.97279" lon="4.78319">
        <ele>232</ele>
        <time>2018-06-29T09:55:53Z</time>
      </trkpt>
      <trkpt lat="45.97275" lon="4.78314">
        <ele>232</ele>
        <time>2018-06-29T09:55:54Z</time>
      </trkpt>
      <trkpt lat="45.97272" lon="4.78308">
        <ele>232</ele>
        <time>2018-06-29T09:55:55Z</time>
      </trkpt>
      <trkpt lat="45.97268" lon="4.78302">
        <ele>232</ele>
        <time>2018-06-29T09:55:56Z</time>
      </trkpt>
      <trkpt lat="45.97264" lon="4.78298">
        <ele>232</ele>
        <time>2018-06-29T09:55:57Z</time>
      </trkpt>
      <trkpt lat="45.97261" lon="4.78291">
        <ele>232</ele>
        <time>2018-06-29T09:55:58Z</time>
      </trkpt>
      <trkpt lat="45.97257" lon="4.78285">
        <ele>232</ele>
        <time>2018-06-29T09:55:59Z</time>
      </trkpt>
      <trkpt lat="45.97253" lon="4.78279">
        <ele>232</ele>
        <time>2018-06-29T09:56:00Z</time>
      </trkpt>
      <trkpt lat="45.97248" lon="4.78274">
        <ele>231</ele>
        <time>2018-06-29T09:56:01Z</time>
      </trkpt>
      <trkpt lat="45.97244" lon="4.78268">
        <ele>231</ele>
        <time>2018-06-29T09:56:02Z</time>
      </trkpt>
      <trkpt lat="45.97242" lon="4.78261">
        <ele>231</ele>
        <time>2018-06-29T09:56:03Z</time>
      </trkpt>
      <trkpt lat="45.97238" lon="4.78254">
        <ele>231</ele>
        <time>2018-06-29T09:56:04Z</time>
      </trkpt>
      <trkpt lat="45.97234" lon="4.78248">
        <ele>231</ele>
        <time>2018-06-29T09:56:05Z</time>
      </trkpt>
      <trkpt lat="45.97229" lon="4.78241">
        <ele>231</ele>
        <time>2018-06-29T09:56:06Z</time>
      </trkpt>
      <trkpt lat="45.97226" lon="4.78235">
        <ele>231</ele>
        <time>2018-06-29T09:56:07Z</time>
      </trkpt>
      <trkpt lat="45.97222" lon="4.7823">
        <ele>231</ele>
        <time>2018-06-29T09:56:08Z</time>
      </trkpt>
      <trkpt lat="45.97218" lon="4.78223">
        <ele>231</ele>
        <time>2018-06-29T09:56:09Z</time>
      </trkpt>
      <trkpt lat="45.97216" lon="4.78217">
        <ele>231</ele>
        <time>2018-06-29T09:56:10Z</time>
      </trkpt>
      <trkpt lat="45.97213" lon="4.78212">
        <ele>231</ele>
        <time>2018-06-29T09:56:11Z</time>
      </trkpt>
      <trkpt lat="45.9721" lon="4.78207">
        <ele>231</ele>
        <time>2018-06-29T09:56:12Z</time>
      </trkpt>
      <trkpt lat="45.97207" lon="4.78199">
        <ele>231</ele>
        <time>2018-06-29T09:56:13Z</time>
      </trkpt>
      <trkpt lat="45.97204" lon="4.78193">
        <ele>231</ele>
        <time>2018-06-29T09:56:14Z</time>
      </trkpt>
      <trkpt lat="45.97201" lon="4.78186">
        <ele>231</ele>
        <time>2018-06-29T09:56:15Z</time>
      </trkpt>
      <trkpt lat="45.97197" lon="4.78179">
        <ele>231</ele>
        <time>2018-06-29T09:56:16Z</time>
      </trkpt>
      <trkpt lat="45.97194" lon="4.78172">
        <ele>231</ele>
        <time>2018-06-29T09:56:17Z</time>
      </trkpt>
      <trkpt lat="45.97191" lon="4.78166">
        <ele>231</ele>
        <time>2018-06-29T09:56:18Z</time>
      </trkpt>
      <trkpt lat="45.97187" lon="4.78159">
        <ele>231</ele>
        <time>2018-06-29T09:56:19Z</time>
      </trkpt>
      <trkpt lat="45.97184" lon="4.78152">
        <ele>231</ele>
        <time>2018-06-29T09:56:20Z</time>
      </trkpt>
      <trkpt lat="45.97181" lon="4.78145">
        <ele>231</ele>
        <time>2018-06-29T09:56:21Z</time>
      </trkpt>
      <trkpt lat="45.97177" lon="4.78138">
        <ele>231</ele>
        <time>2018-06-29T09:56:22Z</time>
      </trkpt>
      <trkpt lat="45.97173" lon="4.7813">
        <ele>231</ele>
        <time>2018-06-29T09:56:23Z</time>
      </trkpt>
      <trkpt lat="45.97169" lon="4.78123">
        <ele>231</ele>
        <time>2018-06-29T09:56:24Z</time>
      </trkpt>
      <trkpt lat="45.97164" lon="4.78116">
        <ele>230</ele>
        <time>2018-06-29T09:56:25Z</time>
      </trkpt>
      <trkpt lat="45.9716" lon="4.78109">
        <ele>230</ele>
        <time>2018-06-29T09:56:26Z</time>
      </trkpt>
      <trkpt lat="45.97154" lon="4.78101">
        <ele>230</ele>
        <time>2018-06-29T09:56:27Z</time>
      </trkpt>
      <trkpt lat="45.97151" lon="4.78095">
        <ele>230</ele>
        <time>2018-06-29T09:56:28Z</time>
      </trkpt>
      <trkpt lat="45.97147" lon="4.78089">
        <ele>230</ele>
        <time>2018-06-29T09:56:29Z</time>
      </trkpt>
      <trkpt lat="45.97143" lon="4.78084">
        <ele>230</ele>
        <time>2018-06-29T09:56:30Z</time>
      </trkpt>
      <trkpt lat="45.9714" lon="4.78078">
        <ele>230</ele>
        <time>2018-06-29T09:56:31Z</time>
      </trkpt>
      <trkpt lat="45.97136" lon="4.78073">
        <ele>230</ele>
        <time>2018-06-29T09:56:32Z</time>
      </trkpt>
      <trkpt lat="45.97132" lon="4.78068">
        <ele>230</ele>
        <time>2018-06-29T09:56:33Z</time>
      </trkpt>
      <trkpt lat="45.97128" lon="4.78063">
        <ele>230</ele>
        <time>2018-06-29T09:56:34Z</time>
      </trkpt>
      <trkpt lat="45.97124" lon="4.78058">
        <ele>229</ele>
        <time>2018-06-29T09:56:35Z</time>
      </trkpt>
      <trkpt lat="45.97119" lon="4.78053">
        <ele>229</ele>
        <time>2018-06-29T09:56:36Z</time>
      </trkpt>
      <trkpt lat="45.97114" lon="4.78048">
        <ele>229</ele>
        <time>2018-06-29T09:56:37Z</time>
      </trkpt>
      <trkpt lat="45.97109" lon="4.78044">
        <ele>229</ele>
        <time>2018-06-29T09:56:38Z</time>
      </trkpt>
      <trkpt lat="45.97104" lon="4.78039">
        <ele>229</ele>
        <time>2018-06-29T09:56:39Z</time>
      </trkpt>
      <trkpt lat="45.97098" lon="4.78034">
        <ele>229</ele>
        <time>2018-06-29T09:56:40Z</time>
      </trkpt>
      <trkpt lat="45.9709" lon="4.7803">
        <ele>229</ele>
        <time>2018-06-29T09:56:41Z</time>
      </trkpt>
      <trkpt lat="45.97085" lon="4.78024">
        <ele>229</ele>
        <time>2018-06-29T09:56:42Z</time>
      </trkpt>
      <trkpt lat="45.9708" lon="4.78019">
        <ele>229</ele>
        <time>2018-06-29T09:56:43Z</time>
      </trkpt>
      <trkpt lat="45.97074" lon="4.78014">
        <ele>229</ele>
        <time>2018-06-29T09:56:44Z</time>
      </trkpt>
      <trkpt lat="45.97069" lon="4.78009">
        <ele>229</ele>
        <time>2018-06-29T09:56:45Z</time>
      </trkpt>
      <trkpt lat="45.97064" lon="4.78004">
        <ele>229</ele>
        <time>2018-06-29T09:56:46Z</time>
      </trkpt>
      <trkpt lat="45.97058" lon="4.77998">
        <ele>229</ele>
        <time>2018-06-29T09:56:47Z</time>
      </trkpt>
      <trkpt lat="45.97053" lon="4.77992">
        <ele>229</ele>
        <time>2018-06-29T09:56:48Z</time>
      </trkpt>
      <trkpt lat="45.97048" lon="4.77987">
        <ele>229</ele>
        <time>2018-06-29T09:56:49Z</time>
      </trkpt>
      <trkpt lat="45.97042" lon="4.77981">
        <ele>229</ele>
        <time>2018-06-29T09:56:50Z</time>
      </trkpt>
      <trkpt lat="45.97038" lon="4.77976">
        <ele>229</ele>
        <time>2018-06-29T09:56:51Z</time>
      </trkpt>
      <trkpt lat="45.97033" lon="4.77971">
        <ele>229</ele>
        <time>2018-06-29T09:56:52Z</time>
      </trkpt>
      <trkpt lat="45.97029" lon="4.77964">
        <ele>228</ele>
        <time>2018-06-29T09:56:53Z</time>
      </trkpt>
      <trkpt lat="45.97024" lon="4.77959">
        <ele>228</ele>
        <time>2018-06-29T09:56:54Z</time>
      </trkpt>
      <trkpt lat="45.9702" lon="4.77953">
        <ele>228</ele>
        <time>2018-06-29T09:56:55Z</time>
      </trkpt>
      <trkpt lat="45.97016" lon="4.77947">
        <ele>228</ele>
        <time>2018-06-29T09:56:56Z</time>
      </trkpt>
      <trkpt lat="45.97012" lon="4.77942">
        <ele>228</ele>
        <time>2018-06-29T09:56:57Z</time>
      </trkpt>
      <trkpt lat="45.97008" lon="4.77937">
        <ele>228</ele>
        <time>2018-06-29T09:56:58Z</time>
      </trkpt>
      <trkpt lat="45.97003" lon="4.77932">
        <ele>228</ele>
        <time>2018-06-29T09:56:59Z</time>
      </trkpt>
      <trkpt lat="45.96999" lon="4.77927">
        <ele>227</ele>
        <time>2018-06-29T09:57:00Z</time>
      </trkpt>
      <trkpt lat="45.96994" lon="4.7792">
        <ele>227</ele>
        <time>2018-06-29T09:57:01Z</time>
      </trkpt>
      <trkpt lat="45.96988" lon="4.77914">
        <ele>227</ele>
        <time>2018-06-29T09:57:02Z</time>
      </trkpt>
      <trkpt lat="45.96983" lon="4.77908">
        <ele>227</ele>
        <time>2018-06-29T09:57:03Z</time>
      </trkpt>
      <trkpt lat="45.96977" lon="4.77901">
        <ele>228</ele>
        <time>2018-06-29T09:57:04Z</time>
      </trkpt>
      <trkpt lat="45.96973" lon="4.77895">
        <ele>228</ele>
        <time>2018-06-29T09:57:05Z</time>
      </trkpt>
      <trkpt lat="45.96968" lon="4.77888">
        <ele>228</ele>
        <time>2018-06-29T09:57:06Z</time>
      </trkpt>
      <trkpt lat="45.96963" lon="4.77881">
        <ele>228</ele>
        <time>2018-06-29T09:57:07Z</time>
      </trkpt>
      <trkpt lat="45.96958" lon="4.77875">
        <ele>228</ele>
        <time>2018-06-29T09:57:08Z</time>
      </trkpt>
      <trkpt lat="45.96953" lon="4.77869">
        <ele>228</ele>
        <time>2018-06-29T09:57:09Z</time>
      </trkpt>
      <trkpt lat="45.96948" lon="4.77863">
        <ele>228</ele>
        <time>2018-06-29T09:57:10Z</time>
      </trkpt>
      <trkpt lat="45.96943" lon="4.77857">
        <ele>228</ele>
        <time>2018-06-29T09:57:11Z</time>
      </trkpt>
      <trkpt lat="45.96938" lon="4.77851">
        <ele>228</ele>
        <time>2018-06-29T09:57:12Z</time>
      </trkpt>
      <trkpt lat="45.96933" lon="4.77846">
        <ele>228</ele>
        <time>2018-06-29T09:57:13Z</time>
      </trkpt>
      <trkpt lat="45.96928" lon="4.7784">
        <ele>228</ele>
        <time>2018-06-29T09:57:14Z</time>
      </trkpt>
      <trkpt lat="45.96923" lon="4.77834">
        <ele>228</ele>
        <time>2018-06-29T09:57:15Z</time>
      </trkpt>
      <trkpt lat="45.96919" lon="4.77829">
        <ele>228</ele>
        <time>2018-06-29T09:57:16Z</time>
      </trkpt>
      <trkpt lat="45.96913" lon="4.77823">
        <ele>228</ele>
        <time>2018-06-29T09:57:17Z</time>
      </trkpt>
      <trkpt lat="45.96908" lon="4.77817">
        <ele>228</ele>
        <time>2018-06-29T09:57:18Z</time>
      </trkpt>
      <trkpt lat="45.96901" lon="4.7781">
        <ele>228</ele>
        <time>2018-06-29T09:57:19Z</time>
      </trkpt>
      <trkpt lat="45.96895" lon="4.77804">
        <ele>228</ele>
        <time>2018-06-29T09:57:20Z</time>
      </trkpt>
      <trkpt lat="45.9689" lon="4.77798">
        <ele>228</ele>
        <time>2018-06-29T09:57:21Z</time>
      </trkpt>
      <trkpt lat="45.96883" lon="4.77792">
        <ele>228</ele>
        <time>2018-06-29T09:57:22Z</time>
      </trkpt>
      <trkpt lat="45.96878" lon="4.77786">
        <ele>228</ele>
        <time>2018-06-29T09:57:23Z</time>
      </trkpt>
      <trkpt lat="45.96872" lon="4.77781">
        <ele>228</ele>
        <time>2018-06-29T09:57:24Z</time>
      </trkpt>
      <trkpt lat="45.96867" lon="4.77775">
        <ele>228</ele>
        <time>2018-06-29T09:57:25Z</time>
      </trkpt>
      <trkpt lat="45.96861" lon="4.77769">
        <ele>228</ele>
        <time>2018-06-29T09:57:26Z</time>
      </trkpt>
      <trkpt lat="45.96855" lon="4.77763">
        <ele>228</ele>
        <time>2018-06-29T09:57:27Z</time>
      </trkpt>
      <trkpt lat="45.9685" lon="4.77757">
        <ele>228</ele>
        <time>2018-06-29T09:57:28Z</time>
      </trkpt>
      <trkpt lat="45.96844" lon="4.77751">
        <ele>228</ele>
        <time>2018-06-29T09:57:29Z</time>
      </trkpt>
      <trkpt lat="45.96838" lon="4.77744">
        <ele>228</ele>
        <time>2018-06-29T09:57:30Z</time>
      </trkpt>
      <trkpt lat="45.96831" lon="4.77738">
        <ele>228</ele>
        <time>2018-06-29T09:57:31Z</time>
      </trkpt>
      <trkpt lat="45.96825" lon="4.77732">
        <ele>228</ele>
        <time>2018-06-29T09:57:32Z</time>
      </trkpt>
      <trkpt lat="45.9682" lon="4.77726">
        <ele>228</ele>
        <time>2018-06-29T09:57:33Z</time>
      </trkpt>
      <trkpt lat="45.96813" lon="4.7772">
        <ele>228</ele>
        <time>2018-06-29T09:57:34Z</time>
      </trkpt>
      <trkpt lat="45.96807" lon="4.77714">
        <ele>228</ele>
        <time>2018-06-29T09:57:35Z</time>
      </trkpt>
      <trkpt lat="45.96802" lon="4.77707">
        <ele>228</ele>
        <time>2018-06-29T09:57:36Z</time>
      </trkpt>
      <trkpt lat="45.96796" lon="4.77701">
        <ele>228</ele>
        <time>2018-06-29T09:57:37Z</time>
      </trkpt>
      <trkpt lat="45.9679" lon="4.77695">
        <ele>227</ele>
        <time>2018-06-29T09:57:38Z</time>
      </trkpt>
      <trkpt lat="45.96785" lon="4.77689">
        <ele>227</ele>
        <time>2018-06-29T09:57:39Z</time>
      </trkpt>
      <trkpt lat="45.9678" lon="4.77684">
        <ele>227</ele>
        <time>2018-06-29T09:57:40Z</time>
      </trkpt>
      <trkpt lat="45.96774" lon="4.77679">
        <ele>227</ele>
        <time>2018-06-29T09:57:41Z</time>
      </trkpt>
      <trkpt lat="45.96769" lon="4.77672">
        <ele>227</ele>
        <time>2018-06-29T09:57:42Z</time>
      </trkpt>
      <trkpt lat="45.96764" lon="4.77667">
        <ele>227</ele>
        <time>2018-06-29T09:57:43Z</time>
      </trkpt>
      <trkpt lat="45.96761" lon="4.77661">
        <ele>227</ele>
        <time>2018-06-29T09:57:44Z</time>
      </trkpt>
      <trkpt lat="45.96756" lon="4.77654">
        <ele>227</ele>
        <time>2018-06-29T09:57:45Z</time>
      </trkpt>
      <trkpt lat="45.9675" lon="4.77646">
        <ele>227</ele>
        <time>2018-06-29T09:57:46Z</time>
      </trkpt>
      <trkpt lat="45.96745" lon="4.77641">
        <ele>227</ele>
        <time>2018-06-29T09:57:47Z</time>
      </trkpt>
      <trkpt lat="45.9674" lon="4.77634">
        <ele>227</ele>
        <time>2018-06-29T09:57:48Z</time>
      </trkpt>
      <trkpt lat="45.96735" lon="4.77629">
        <ele>226</ele>
        <time>2018-06-29T09:57:49Z</time>
      </trkpt>
      <trkpt lat="45.96728" lon="4.77622">
        <ele>226</ele>
        <time>2018-06-29T09:57:50Z</time>
      </trkpt>
      <trkpt lat="45.96723" lon="4.77616">
        <ele>226</ele>
        <time>2018-06-29T09:57:51Z</time>
      </trkpt>
      <trkpt lat="45.96717" lon="4.77609">
        <ele>226</ele>
        <time>2018-06-29T09:57:52Z</time>
      </trkpt>
      <trkpt lat="45.96712" lon="4.77603">
        <ele>226</ele>
        <time>2018-06-29T09:57:53Z</time>
      </trkpt>
      <trkpt lat="45.96708" lon="4.77598">
        <ele>226</ele>
        <time>2018-06-29T09:57:54Z</time>
      </trkpt>
      <trkpt lat="45.96703" lon="4.77591">
        <ele>226</ele>
        <time>2018-06-29T09:57:55Z</time>
      </trkpt>
      <trkpt lat="45.96698" lon="4.77585">
        <ele>226</ele>
        <time>2018-06-29T09:57:56Z</time>
      </trkpt>
      <trkpt lat="45.96693" lon="4.7758">
        <ele>225</ele>
        <time>2018-06-29T09:57:57Z</time>
      </trkpt>
      <trkpt lat="45.96687" lon="4.77576">
        <ele>225</ele>
        <time>2018-06-29T09:57:58Z</time>
      </trkpt>
      <trkpt lat="45.96682" lon="4.7757">
        <ele>225</ele>
        <time>2018-06-29T09:57:59Z</time>
      </trkpt>
      <trkpt lat="45.96676" lon="4.77565">
        <ele>225</ele>
        <time>2018-06-29T09:58:00Z</time>
      </trkpt>
      <trkpt lat="45.9667" lon="4.77561">
        <ele>225</ele>
        <time>2018-06-29T09:58:01Z</time>
      </trkpt>
      <trkpt lat="45.96665" lon="4.77557">
        <ele>224</ele>
        <time>2018-06-29T09:58:02Z</time>
      </trkpt>
      <trkpt lat="45.96659" lon="4.77553">
        <ele>224</ele>
        <time>2018-06-29T09:58:03Z</time>
      </trkpt>
      <trkpt lat="45.96653" lon="4.77549">
        <ele>224</ele>
        <time>2018-06-29T09:58:04Z</time>
      </trkpt>
      <trkpt lat="45.96647" lon="4.77544">
        <ele>224</ele>
        <time>2018-06-29T09:58:05Z</time>
      </trkpt>
      <trkpt lat="45.9664" lon="4.77542">
        <ele>224</ele>
        <time>2018-06-29T09:58:06Z</time>
      </trkpt>
      <trkpt lat="45.96634" lon="4.77538">
        <ele>224</ele>
        <time>2018-06-29T09:58:07Z</time>
      </trkpt>
      <trkpt lat="45.96627" lon="4.77532">
        <ele>224</ele>
        <time>2018-06-29T09:58:08Z</time>
      </trkpt>
      <trkpt lat="45.96621" lon="4.77528">
        <ele>224</ele>
        <time>2018-06-29T09:58:09Z</time>
      </trkpt>
      <trkpt lat="45.96614" lon="4.77524">
        <ele>224</ele>
        <time>2018-06-29T09:58:10Z</time>
      </trkpt>
      <trkpt lat="45.96608" lon="4.7752">
        <ele>224</ele>
        <time>2018-06-29T09:58:11Z</time>
      </trkpt>
      <trkpt lat="45.96599" lon="4.77516">
        <ele>224</ele>
        <time>2018-06-29T09:58:12Z</time>
      </trkpt>
      <trkpt lat="45.96592" lon="4.77512">
        <ele>224</ele>
        <time>2018-06-29T09:58:13Z</time>
      </trkpt>
      <trkpt lat="45.96586" lon="4.77507">
        <ele>224</ele>
        <time>2018-06-29T09:58:14Z</time>
      </trkpt>
      <trkpt lat="45.96579" lon="4.77502">
        <ele>224</ele>
        <time>2018-06-29T09:58:15Z</time>
      </trkpt>
      <trkpt lat="45.96572" lon="4.77498">
        <ele>224</ele>
        <time>2018-06-29T09:58:16Z</time>
      </trkpt>
      <trkpt lat="45.96566" lon="4.77493">
        <ele>224</ele>
        <time>2018-06-29T09:58:17Z</time>
      </trkpt>
      <trkpt lat="45.96559" lon="4.77491">
        <ele>224</ele>
        <time>2018-06-29T09:58:18Z</time>
      </trkpt>
      <trkpt lat="45.96552" lon="4.77487">
        <ele>223</ele>
        <time>2018-06-29T09:58:19Z</time>
      </trkpt>
      <trkpt lat="45.96546" lon="4.77484">
        <ele>223</ele>
        <time>2018-06-29T09:58:20Z</time>
      </trkpt>
      <trkpt lat="45.96542" lon="4.7748">
        <ele>223</ele>
        <time>2018-06-29T09:58:21Z</time>
      </trkpt>
      <trkpt lat="45.96535" lon="4.77475">
        <ele>223</ele>
        <time>2018-06-29T09:58:22Z</time>
      </trkpt>
      <trkpt lat="45.96528" lon="4.7747">
        <ele>223</ele>
        <time>2018-06-29T09:58:23Z</time>
      </trkpt>
      <trkpt lat="45.9652" lon="4.77466">
        <ele>223</ele>
        <time>2018-06-29T09:58:24Z</time>
      </trkpt>
      <trkpt lat="45.96513" lon="4.7746">
        <ele>223</ele>
        <time>2018-06-29T09:58:25Z</time>
      </trkpt>
      <trkpt lat="45.96506" lon="4.77456">
        <ele>223</ele>
        <time>2018-06-29T09:58:26Z</time>
      </trkpt>
      <trkpt lat="45.965" lon="4.77452">
        <ele>221</ele>
        <time>2018-06-29T09:58:27Z</time>
      </trkpt>
      <trkpt lat="45.96491" lon="4.77448">
        <ele>221</ele>
        <time>2018-06-29T09:58:28Z</time>
      </trkpt>
      <trkpt lat="45.96484" lon="4.77444">
        <ele>221</ele>
        <time>2018-06-29T09:58:29Z</time>
      </trkpt>
      <trkpt lat="45.96477" lon="4.7744">
        <ele>221</ele>
        <time>2018-06-29T09:58:30Z</time>
      </trkpt>
      <trkpt lat="45.96467" lon="4.77435">
        <ele>221</ele>
        <time>2018-06-29T09:58:31Z</time>
      </trkpt>
      <trkpt lat="45.9646" lon="4.7743">
        <ele>221</ele>
        <time>2018-06-29T09:58:32Z</time>
      </trkpt>
      <trkpt lat="45.96454" lon="4.77426">
        <ele>221</ele>
        <time>2018-06-29T09:58:33Z</time>
      </trkpt>
      <trkpt lat="45.96447" lon="4.77423">
        <ele>221</ele>
        <time>2018-06-29T09:58:34Z</time>
      </trkpt>
      <trkpt lat="45.96441" lon="4.77418">
        <ele>221</ele>
        <time>2018-06-29T09:58:35Z</time>
      </trkpt>
      <trkpt lat="45.96436" lon="4.77415">
        <ele>222</ele>
        <time>2018-06-29T09:58:36Z</time>
      </trkpt>
      <trkpt lat="45.96429" lon="4.77411">
        <ele>222</ele>
        <time>2018-06-29T09:58:37Z</time>
      </trkpt>
      <trkpt lat="45.96423" lon="4.77407">
        <ele>222</ele>
        <time>2018-06-29T09:58:38Z</time>
      </trkpt>
      <trkpt lat="45.96416" lon="4.77404">
        <ele>220</ele>
        <time>2018-06-29T09:58:39Z</time>
      </trkpt>
      <trkpt lat="45.96409" lon="4.77398">
        <ele>220</ele>
        <time>2018-06-29T09:58:40Z</time>
      </trkpt>
      <trkpt lat="45.96401" lon="4.77395">
        <ele>220</ele>
        <time>2018-06-29T09:58:41Z</time>
      </trkpt>
      <trkpt lat="45.96394" lon="4.77391">
        <ele>220</ele>
        <time>2018-06-29T09:58:42Z</time>
      </trkpt>
      <trkpt lat="45.96388" lon="4.77387">
        <ele>220</ele>
        <time>2018-06-29T09:58:43Z</time>
      </trkpt>
      <trkpt lat="45.96381" lon="4.77382">
        <ele>220</ele>
        <time>2018-06-29T09:58:44Z</time>
      </trkpt>
      <trkpt lat="45.96374" lon="4.77378">
        <ele>219</ele>
        <time>2018-06-29T09:58:45Z</time>
      </trkpt>
      <trkpt lat="45.96367" lon="4.77374">
        <ele>219</ele>
        <time>2018-06-29T09:58:46Z</time>
      </trkpt>
      <trkpt lat="45.9636" lon="4.77371">
        <ele>219</ele>
        <time>2018-06-29T09:58:47Z</time>
      </trkpt>
      <trkpt lat="45.96352" lon="4.77367">
        <ele>219</ele>
        <time>2018-06-29T09:58:48Z</time>
      </trkpt>
      <trkpt lat="45.96345" lon="4.77361">
        <ele>219</ele>
        <time>2018-06-29T09:58:49Z</time>
      </trkpt>
      <trkpt lat="45.96339" lon="4.77356">
        <ele>219</ele>
        <time>2018-06-29T09:58:50Z</time>
      </trkpt>
      <trkpt lat="45.96334" lon="4.77352">
        <ele>220</ele>
        <time>2018-06-29T09:58:51Z</time>
      </trkpt>
      <trkpt lat="45.96328" lon="4.77347">
        <ele>218</ele>
        <time>2018-06-29T09:58:52Z</time>
      </trkpt>
      <trkpt lat="45.96321" lon="4.77344">
        <ele>218</ele>
        <time>2018-06-29T09:58:53Z</time>
      </trkpt>
      <trkpt lat="45.96314" lon="4.77339">
        <ele>218</ele>
        <time>2018-06-29T09:58:54Z</time>
      </trkpt>
      <trkpt lat="45.96308" lon="4.77335">
        <ele>217</ele>
        <time>2018-06-29T09:58:55Z</time>
      </trkpt>
      <trkpt lat="45.96301" lon="4.77332">
        <ele>219</ele>
        <time>2018-06-29T09:58:56Z</time>
      </trkpt>
      <trkpt lat="45.96295" lon="4.77328">
        <ele>219</ele>
        <time>2018-06-29T09:58:57Z</time>
      </trkpt>
      <trkpt lat="45.96287" lon="4.77324">
        <ele>219</ele>
        <time>2018-06-29T09:58:58Z</time>
      </trkpt>
      <trkpt lat="45.96281" lon="4.77321">
        <ele>219</ele>
        <time>2018-06-29T09:58:59Z</time>
      </trkpt>
      <trkpt lat="45.96276" lon="4.77316">
        <ele>219</ele>
        <time>2018-06-29T09:59:00Z</time>
      </trkpt>
      <trkpt lat="45.9627" lon="4.77313">
        <ele>219</ele>
        <time>2018-06-29T09:59:01Z</time>
      </trkpt>
      <trkpt lat="45.96263" lon="4.7731">
        <ele>218</ele>
        <time>2018-06-29T09:59:02Z</time>
      </trkpt>
      <trkpt lat="45.96256" lon="4.77306">
        <ele>218</ele>
        <time>2018-06-29T09:59:03Z</time>
      </trkpt>
      <trkpt lat="45.9625" lon="4.77303">
        <ele>219</ele>
        <time>2018-06-29T09:59:04Z</time>
      </trkpt>
      <trkpt lat="45.96245" lon="4.773">
        <ele>217</ele>
        <time>2018-06-29T09:59:05Z</time>
      </trkpt>
      <trkpt lat="45.96238" lon="4.77296">
        <ele>217</ele>
        <time>2018-06-29T09:59:06Z</time>
      </trkpt>
      <trkpt lat="45.96231" lon="4.77293">
        <ele>217</ele>
        <time>2018-06-29T09:59:07Z</time>
      </trkpt>
      <trkpt lat="45.96225" lon="4.7729">
        <ele>217</ele>
        <time>2018-06-29T09:59:08Z</time>
      </trkpt>
      <trkpt lat="45.96219" lon="4.77284">
        <ele>217</ele>
        <time>2018-06-29T09:59:09Z</time>
      </trkpt>
      <trkpt lat="45.96213" lon="4.77281">
        <ele>217</ele>
        <time>2018-06-29T09:59:10Z</time>
      </trkpt>
      <trkpt lat="45.96205" lon="4.77277">
        <ele>217</ele>
        <time>2018-06-29T09:59:11Z</time>
      </trkpt>
      <trkpt lat="45.96198" lon="4.77273">
        <ele>216</ele>
        <time>2018-06-29T09:59:12Z</time>
      </trkpt>
      <trkpt lat="45.96192" lon="4.77269">
        <ele>216</ele>
        <time>2018-06-29T09:59:13Z</time>
      </trkpt>
      <trkpt lat="45.96186" lon="4.77266">
        <ele>216</ele>
        <time>2018-06-29T09:59:14Z</time>
      </trkpt>
      <trkpt lat="45.9618" lon="4.77262">
        <ele>216</ele>
        <time>2018-06-29T09:59:15Z</time>
      </trkpt>
      <trkpt lat="45.96174" lon="4.77259">
        <ele>216</ele>
        <time>2018-06-29T09:59:16Z</time>
      </trkpt>
      <trkpt lat="45.96168" lon="4.77256">
        <ele>216</ele>
        <time>2018-06-29T09:59:17Z</time>
      </trkpt>
      <trkpt lat="45.96163" lon="4.77252">
        <ele>215</ele>
        <time>2018-06-29T09:59:18Z</time>
      </trkpt>
      <trkpt lat="45.96158" lon="4.77248">
        <ele>216</ele>
        <time>2018-06-29T09:59:19Z</time>
      </trkpt>
      <trkpt lat="45.96152" lon="4.77245">
        <ele>215</ele>
        <time>2018-06-29T09:59:20Z</time>
      </trkpt>
      <trkpt lat="45.96145" lon="4.77243">
        <ele>215</ele>
        <time>2018-06-29T09:59:21Z</time>
      </trkpt>
      <trkpt lat="45.9614" lon="4.7724">
        <ele>215</ele>
        <time>2018-06-29T09:59:22Z</time>
      </trkpt>
      <trkpt lat="45.96134" lon="4.77238">
        <ele>215</ele>
        <time>2018-06-29T09:59:23Z</time>
      </trkpt>
      <trkpt lat="45.96128" lon="4.77237">
        <ele>215</ele>
        <time>2018-06-29T09:59:24Z</time>
      </trkpt>
      <trkpt lat="45.96121" lon="4.77236">
        <ele>214</ele>
        <time>2018-06-29T09:59:25Z</time>
      </trkpt>
      <trkpt lat="45.96115" lon="4.77236">
        <ele>214</ele>
        <time>2018-06-29T09:59:26Z</time>
      </trkpt>
      <trkpt lat="45.96108" lon="4.77237">
        <ele>213</ele>
        <time>2018-06-29T09:59:27Z</time>
      </trkpt>
      <trkpt lat="45.961" lon="4.77237">
        <ele>213</ele>
        <time>2018-06-29T09:59:28Z</time>
      </trkpt>
      <trkpt lat="45.96093" lon="4.77238">
        <ele>212</ele>
        <time>2018-06-29T09:59:29Z</time>
      </trkpt>
      <trkpt lat="45.96087" lon="4.77239">
        <ele>212</ele>
        <time>2018-06-29T09:59:30Z</time>
      </trkpt>
      <trkpt lat="45.96079" lon="4.7724">
        <ele>210</ele>
        <time>2018-06-29T09:59:31Z</time>
      </trkpt>
      <trkpt lat="45.96073" lon="4.77241">
        <ele>210</ele>
        <time>2018-06-29T09:59:32Z</time>
      </trkpt>
      <trkpt lat="45.96066" lon="4.77241">
        <ele>209</ele>
        <time>2018-06-29T09:59:33Z</time>
      </trkpt>
      <trkpt lat="45.96058" lon="4.77241">
        <ele>209</ele>
        <time>2018-06-29T09:59:34Z</time>
      </trkpt>
      <trkpt lat="45.96051" lon="4.77242">
        <ele>209</ele>
        <time>2018-06-29T09:59:35Z</time>
      </trkpt>
      <trkpt lat="45.96042" lon="4.77242">
        <ele>208</ele>
        <time>2018-06-29T09:59:36Z</time>
      </trkpt>
      <trkpt lat="45.96035" lon="4.77243">
        <ele>208</ele>
        <time>2018-06-29T09:59:37Z</time>
      </trkpt>
      <trkpt lat="45.96025" lon="4.77244">
        <ele>207</ele>
        <time>2018-06-29T09:59:38Z</time>
      </trkpt>
      <trkpt lat="45.96019" lon="4.77245">
        <ele>206</ele>
        <time>2018-06-29T09:59:39Z</time>
      </trkpt>
      <trkpt lat="45.96011" lon="4.77245">
        <ele>205</ele>
        <time>2018-06-29T09:59:40Z</time>
      </trkpt>
      <trkpt lat="45.96003" lon="4.77244">
        <ele>205</ele>
        <time>2018-06-29T09:59:41Z</time>
      </trkpt>
      <trkpt lat="45.95995" lon="4.77242">
        <ele>203</ele>
        <time>2018-06-29T09:59:42Z</time>
      </trkpt>
      <trkpt lat="45.95987" lon="4.77238">
        <ele>202</ele>
        <time>2018-06-29T09:59:43Z</time>
      </trkpt>
      <trkpt lat="45.95979" lon="4.77234">
        <ele>202</ele>
        <time>2018-06-29T09:59:44Z</time>
      </trkpt>
      <trkpt lat="45.9597" lon="4.77228">
        <ele>202</ele>
        <time>2018-06-29T09:59:45Z</time>
      </trkpt>
      <trkpt lat="45.95964" lon="4.77221">
        <ele>201</ele>
        <time>2018-06-29T09:59:46Z</time>
      </trkpt>
      <trkpt lat="45.95958" lon="4.77212">
        <ele>201</ele>
        <time>2018-06-29T09:59:47Z</time>
      </trkpt>
      <trkpt lat="45.95953" lon="4.77203">
        <ele>201</ele>
        <time>2018-06-29T09:59:48Z</time>
      </trkpt>
      <trkpt lat="45.95949" lon="4.77192">
        <ele>201</ele>
        <time>2018-06-29T09:59:49Z</time>
      </trkpt>
      <trkpt lat="45.95945" lon="4.7718">
        <ele>200</ele>
        <time>2018-06-29T09:59:50Z</time>
      </trkpt>
      <trkpt lat="45.95942" lon="4.77168">
        <ele>200</ele>
        <time>2018-06-29T09:59:51Z</time>
      </trkpt>
      <trkpt lat="45.95941" lon="4.77157">
        <ele>200</ele>
        <time>2018-06-29T09:59:52Z</time>
      </trkpt>
      <trkpt lat="45.95939" lon="4.77144">
        <ele>201</ele>
        <time>2018-06-29T09:59:53Z</time>
      </trkpt>
      <trkpt lat="45.95938" lon="4.77131">
        <ele>201</ele>
        <time>2018-06-29T09:59:54Z</time>
      </trkpt>
      <trkpt lat="45.95938" lon="4.77119">
        <ele>201</ele>
        <time>2018-06-29T09:59:55Z</time>
      </trkpt>
      <trkpt lat="45.9594" lon="4.77107">
        <ele>201</ele>
        <time>2018-06-29T09:59:56Z</time>
      </trkpt>
      <trkpt lat="45.95942" lon="4.77095">
        <ele>201</ele>
        <time>2018-06-29T09:59:57Z</time>
      </trkpt>
      <trkpt lat="45.95947" lon="4.77083">
        <ele>201</ele>
        <time>2018-06-29T09:59:58Z</time>
      </trkpt>
      <trkpt lat="45.9595" lon="4.77071">
        <ele>200</ele>
        <time>2018-06-29T09:59:59Z</time>
      </trkpt>
      <trkpt lat="45.95953" lon="4.77061">
        <ele>200</ele>
        <time>2018-06-29T10:00:00Z</time>
      </trkpt>
      <trkpt lat="45.95957" lon="4.77049">
        <ele>200</ele>
        <time>2018-06-29T10:00:01Z</time>
      </trkpt>
      <trkpt lat="45.95961" lon="4.7704">
        <ele>200</ele>
        <time>2018-06-29T10:00:02Z</time>
      </trkpt>
      <trkpt lat="45.95965" lon="4.77029">
        <ele>200</ele>
        <time>2018-06-29T10:00:03Z</time>
      </trkpt>
      <trkpt lat="45.95969" lon="4.77018">
        <ele>200</ele>
        <time>2018-06-29T10:00:04Z</time>
      </trkpt>
      <trkpt lat="45.95973" lon="4.77008">
        <ele>200</ele>
        <time>2018-06-29T10:00:05Z</time>
      </trkpt>
      <trkpt lat="45.95978" lon="4.76997">
        <ele>198</ele>
        <time>2018-06-29T10:00:06Z</time>
      </trkpt>
      <trkpt lat="45.9598" lon="4.76986">
        <ele>197</ele>
        <time>2018-06-29T10:00:07Z</time>
      </trkpt>
      <trkpt lat="45.95982" lon="4.76974">
        <ele>197</ele>
        <time>2018-06-29T10:00:08Z</time>
      </trkpt>
      <trkpt lat="45.95979" lon="4.76962">
        <ele>196</ele>
        <time>2018-06-29T10:00:09Z</time>
      </trkpt>
      <trkpt lat="45.95975" lon="4.76949">
        <ele>196</ele>
        <time>2018-06-29T10:00:10Z</time>
      </trkpt>
      <trkpt lat="45.95969" lon="4.76938">
        <ele>195</ele>
        <time>2018-06-29T10:00:11Z</time>
      </trkpt>
      <trkpt lat="45.95963" lon="4.76929">
        <ele>195</ele>
        <time>2018-06-29T10:00:12Z</time>
      </trkpt>
      <trkpt lat="45.95956" lon="4.76921">
        <ele>195</ele>
        <time>2018-06-29T10:00:13Z</time>
      </trkpt>
      <trkpt lat="45.9595" lon="4.76913">
        <ele>193</ele>
        <time>2018-06-29T10:00:14Z</time>
      </trkpt>
      <trkpt lat="45.95943" lon="4.76905">
        <ele>192</ele>
        <time>2018-06-29T10:00:15Z</time>
      </trkpt>
      <trkpt lat="45.95935" lon="4.76896">
        <ele>192</ele>
        <time>2018-06-29T10:00:16Z</time>
      </trkpt>
      <trkpt lat="45.95929" lon="4.76888">
        <ele>192</ele>
        <time>2018-06-29T10:00:17Z</time>
      </trkpt>
      <trkpt lat="45.95922" lon="4.76879">
        <ele>192</ele>
        <time>2018-06-29T10:00:18Z</time>
      </trkpt>
      <trkpt lat="45.95914" lon="4.76872">
        <ele>191</ele>
        <time>2018-06-29T10:00:19Z</time>
      </trkpt>
      <trkpt lat="45.95907" lon="4.76864">
        <ele>191</ele>
        <time>2018-06-29T10:00:20Z</time>
      </trkpt>
      <trkpt lat="45.959" lon="4.76857">
        <ele>191</ele>
        <time>2018-06-29T10:00:21Z</time>
      </trkpt>
      <trkpt lat="45.95894" lon="4.7685">
        <ele>191</ele>
        <time>2018-06-29T10:00:22Z</time>
      </trkpt>
      <trkpt lat="45.95888" lon="4.76843">
        <ele>191</ele>
        <time>2018-06-29T10:00:23Z</time>
      </trkpt>
      <trkpt lat="45.95881" lon="4.76836">
        <ele>191</ele>
        <time>2018-06-29T10:00:24Z</time>
      </trkpt>
      <trkpt lat="45.95874" lon="4.76828">
        <ele>191</ele>
        <time>2018-06-29T10:00:25Z</time>
      </trkpt>
      <trkpt lat="45.95867" lon="4.7682">
        <ele>191</ele>
        <time>2018-06-29T10:00:26Z</time>
      </trkpt>
      <trkpt lat="45.95861" lon="4.76814">
        <ele>191</ele>
        <time>2018-06-29T10:00:27Z</time>
      </trkpt>
      <trkpt lat="45.95855" lon="4.76808">
        <ele>191</ele>
        <time>2018-06-29T10:00:28Z</time>
      </trkpt>
      <trkpt lat="45.95849" lon="4.76801">
        <ele>191</ele>
        <time>2018-06-29T10:00:29Z</time>
      </trkpt>
      <trkpt lat="45.95845" lon="4.76795">
        <ele>191</ele>
        <time>2018-06-29T10:00:30Z</time>
      </trkpt>
      <trkpt lat="45.95839" lon="4.76788">
        <ele>191</ele>
        <time>2018-06-29T10:00:31Z</time>
      </trkpt>
      <trkpt lat="45.95836" lon="4.76779">
        <ele>191</ele>
        <time>2018-06-29T10:00:32Z</time>
      </trkpt>
      <trkpt lat="45.95832" lon="4.7677">
        <ele>190</ele>
        <time>2018-06-29T10:00:33Z</time>
      </trkpt>
      <trkpt lat="45.9583" lon="4.76761">
        <ele>191</ele>
        <time>2018-06-29T10:00:34Z</time>
      </trkpt>
      <trkpt lat="45.95831" lon="4.76751">
        <ele>191</ele>
        <time>2018-06-29T10:00:35Z</time>
      </trkpt>
      <trkpt lat="45.95829" lon="4.76742">
        <ele>190</ele>
        <time>2018-06-29T10:00:36Z</time>
      </trkpt>
      <trkpt lat="45.95827" lon="4.76732">
        <ele>190</ele>
        <time>2018-06-29T10:00:37Z</time>
      </trkpt>
      <trkpt lat="45.95826" lon="4.76723">
        <ele>190</ele>
        <time>2018-06-29T10:00:38Z</time>
      </trkpt>
      <trkpt lat="45.95824" lon="4.76714">
        <ele>189</ele>
        <time>2018-06-29T10:00:39Z</time>
      </trkpt>
      <trkpt lat="45.95816" lon="4.76705">
        <ele>189</ele>
        <time>2018-06-29T10:00:40Z</time>
      </trkpt>
      <trkpt lat="45.95815" lon="4.76696">
        <ele>189</ele>
        <time>2018-06-29T10:00:41Z</time>
      </trkpt>
      <trkpt lat="45.95813" lon="4.76686">
        <ele>189</ele>
        <time>2018-06-29T10:00:42Z</time>
      </trkpt>
      <trkpt lat="45.95813" lon="4.76677">
        <ele>189</ele>
        <time>2018-06-29T10:00:43Z</time>
      </trkpt>
      <trkpt lat="45.95811" lon="4.76667">
        <ele>189</ele>
        <time>2018-06-29T10:00:44Z</time>
      </trkpt>
      <trkpt lat="45.95811" lon="4.76658">
        <ele>188</ele>
        <time>2018-06-29T10:00:45Z</time>
      </trkpt>
      <trkpt lat="45.9581" lon="4.76649">
        <ele>188</ele>
        <time>2018-06-29T10:00:46Z</time>
      </trkpt>
      <trkpt lat="45.9581" lon="4.7664">
        <ele>188</ele>
        <time>2018-06-29T10:00:47Z</time>
      </trkpt>
      <trkpt lat="45.95811" lon="4.76632">
        <ele>188</ele>
        <time>2018-06-29T10:00:48Z</time>
      </trkpt>
      <trkpt lat="45.95809" lon="4.76623">
        <ele>188</ele>
        <time>2018-06-29T10:00:49Z</time>
      </trkpt>
      <trkpt lat="45.95809" lon="4.76615">
        <ele>188</ele>
        <time>2018-06-29T10:00:50Z</time>
      </trkpt>
      <trkpt lat="45.95807" lon="4.76605">
        <ele>188</ele>
        <time>2018-06-29T10:00:51Z</time>
      </trkpt>
      <trkpt lat="45.95805" lon="4.76596">
        <ele>188</ele>
        <time>2018-06-29T10:00:52Z</time>
      </trkpt>
      <trkpt lat="45.95805" lon="4.76587">
        <ele>188</ele>
        <time>2018-06-29T10:00:53Z</time>
      </trkpt>
      <trkpt lat="45.95804" lon="4.76578">
        <ele>187</ele>
        <time>2018-06-29T10:00:54Z</time>
      </trkpt>
      <trkpt lat="45.95802" lon="4.76569">
        <ele>187</ele>
        <time>2018-06-29T10:00:55Z</time>
      </trkpt>
      <trkpt lat="45.95801" lon="4.7656">
        <ele>187</ele>
        <time>2018-06-29T10:00:56Z</time>
      </trkpt>
      <trkpt lat="45.95799" lon="4.76551">
        <ele>187</ele>
        <time>2018-06-29T10:00:57Z</time>
      </trkpt>
      <trkpt lat="45.95797" lon="4.76542">
        <ele>187</ele>
        <time>2018-06-29T10:00:58Z</time>
      </trkpt>
      <trkpt lat="45.95794" lon="4.76533">
        <ele>187</ele>
        <time>2018-06-29T10:00:59Z</time>
      </trkpt>
      <trkpt lat="45.95792" lon="4.76525">
        <ele>187</ele>
        <time>2018-06-29T10:01:00Z</time>
      </trkpt>
      <trkpt lat="45.95792" lon="4.76517">
        <ele>187</ele>
        <time>2018-06-29T10:01:01Z</time>
      </trkpt>
      <trkpt lat="45.9579" lon="4.76508">
        <ele>187</ele>
        <time>2018-06-29T10:01:02Z</time>
      </trkpt>
      <trkpt lat="45.95792" lon="4.76501">
        <ele>187</ele>
        <time>2018-06-29T10:01:03Z</time>
      </trkpt>
      <trkpt lat="45.95792" lon="4.76493">
        <ele>187</ele>
        <time>2018-06-29T10:01:04Z</time>
      </trkpt>
      <trkpt lat="45.95793" lon="4.76485">
        <ele>187</ele>
        <time>2018-06-29T10:01:05Z</time>
      </trkpt>
      <trkpt lat="45.95792" lon="4.76476">
        <ele>187</ele>
        <time>2018-06-29T10:01:06Z</time>
      </trkpt>
      <trkpt lat="45.95791" lon="4.76467">
        <ele>186</ele>
        <time>2018-06-29T10:01:07Z</time>
      </trkpt>
      <trkpt lat="45.95788" lon="4.76459">
        <ele>186</ele>
        <time>2018-06-29T10:01:08Z</time>
      </trkpt>
      <trkpt lat="45.95785" lon="4.76449">
        <ele>186</ele>
        <time>2018-06-29T10:01:09Z</time>
      </trkpt>
      <trkpt lat="45.95786" lon="4.76441">
        <ele>186</ele>
        <time>2018-06-29T10:01:10Z</time>
      </trkpt>
      <trkpt lat="45.95788" lon="4.76433">
        <ele>186</ele>
        <time>2018-06-29T10:01:11Z</time>
      </trkpt>
      <trkpt lat="45.95788" lon="4.76424">
        <ele>186</ele>
        <time>2018-06-29T10:01:12Z</time>
      </trkpt>
      <trkpt lat="45.95787" lon="4.76415">
        <ele>186</ele>
        <time>2018-06-29T10:01:13Z</time>
      </trkpt>
      <trkpt lat="45.95785" lon="4.76407">
        <ele>186</ele>
        <time>2018-06-29T10:01:14Z</time>
      </trkpt>
      <trkpt lat="45.95784" lon="4.76399">
        <ele>186</ele>
        <time>2018-06-29T10:01:15Z</time>
      </trkpt>
      <trkpt lat="45.95784" lon="4.76392">
        <ele>186</ele>
        <time>2018-06-29T10:01:16Z</time>
      </trkpt>
      <trkpt lat="45.95782" lon="4.76383">
        <ele>186</ele>
        <time>2018-06-29T10:01:17Z</time>
      </trkpt>
      <trkpt lat="45.95781" lon="4.76375">
        <ele>186</ele>
        <time>2018-06-29T10:01:18Z</time>
      </trkpt>
      <trkpt lat="45.9578" lon="4.76368">
        <ele>186</ele>
        <time>2018-06-29T10:01:19Z</time>
      </trkpt>
      <trkpt lat="45.95781" lon="4.76359">
        <ele>186</ele>
        <time>2018-06-29T10:01:20Z</time>
      </trkpt>
      <trkpt lat="45.95784" lon="4.7635">
        <ele>186</ele>
        <time>2018-06-29T10:01:21Z</time>
      </trkpt>
      <trkpt lat="45.95782" lon="4.76341">
        <ele>186</ele>
        <time>2018-06-29T10:01:22Z</time>
      </trkpt>
      <trkpt lat="45.95778" lon="4.76331">
        <ele>186</ele>
        <time>2018-06-29T10:01:23Z</time>
      </trkpt>
      <trkpt lat="45.95776" lon="4.76321">
        <ele>186</ele>
        <time>2018-06-29T10:01:24Z</time>
      </trkpt>
      <trkpt lat="45.95775" lon="4.76312">
        <ele>186</ele>
        <time>2018-06-29T10:01:25Z</time>
      </trkpt>
      <trkpt lat="45.95774" lon="4.76303">
        <ele>186</ele>
        <time>2018-06-29T10:01:26Z</time>
      </trkpt>
      <trkpt lat="45.95771" lon="4.76293">
        <ele>186</ele>
        <time>2018-06-29T10:01:27Z</time>
      </trkpt>
      <trkpt lat="45.95769" lon="4.76283">
        <ele>186</ele>
        <time>2018-06-29T10:01:28Z</time>
      </trkpt>
      <trkpt lat="45.95771" lon="4.76274">
        <ele>186</ele>
        <time>2018-06-29T10:01:29Z</time>
      </trkpt>
      <trkpt lat="45.95774" lon="4.76265">
        <ele>186</ele>
        <time>2018-06-29T10:01:30Z</time>
      </trkpt>
      <trkpt lat="45.95776" lon="4.76256">
        <ele>186</ele>
        <time>2018-06-29T10:01:31Z</time>
      </trkpt>
      <trkpt lat="45.95776" lon="4.76248">
        <ele>186</ele>
        <time>2018-06-29T10:01:32Z</time>
      </trkpt>
      <trkpt lat="45.95776" lon="4.76238">
        <ele>186</ele>
        <time>2018-06-29T10:01:33Z</time>
      </trkpt>
      <trkpt lat="45.95776" lon="4.76229">
        <ele>186</ele>
        <time>2018-06-29T10:01:34Z</time>
      </trkpt>
      <trkpt lat="45.95774" lon="4.76219">
        <ele>186</ele>
        <time>2018-06-29T10:01:35Z</time>
      </trkpt>
      <trkpt lat="45.95775" lon="4.76212">
        <ele>186</ele>
        <time>2018-06-29T10:01:36Z</time>
      </trkpt>
      <trkpt lat="45.95774" lon="4.76204">
        <ele>186</ele>
        <time>2018-06-29T10:01:37Z</time>
      </trkpt>
      <trkpt lat="45.95773" lon="4.76196">
        <ele>186</ele>
        <time>2018-06-29T10:01:38Z</time>
      </trkpt>
      <trkpt lat="45.95773" lon="4.76189">
        <ele>186</ele>
        <time>2018-06-29T10:01:39Z</time>
      </trkpt>
      <trkpt lat="45.95773" lon="4.76181">
        <ele>186</ele>
        <time>2018-06-29T10:01:40Z</time>
      </trkpt>
      <trkpt lat="45.95772" lon="4.76173">
        <ele>186</ele>
        <time>2018-06-29T10:01:41Z</time>
      </trkpt>
      <trkpt lat="45.95771" lon="4.76165">
        <ele>186</ele>
        <time>2018-06-29T10:01:42Z</time>
      </trkpt>
      <trkpt lat="45.9577" lon="4.76156">
        <ele>186</ele>
        <time>2018-06-29T10:01:43Z</time>
      </trkpt>
      <trkpt lat="45.95769" lon="4.76147">
        <ele>186</ele>
        <time>2018-06-29T10:01:44Z</time>
      </trkpt>
      <trkpt lat="45.95767" lon="4.76138">
        <ele>186</ele>
        <time>2018-06-29T10:01:45Z</time>
      </trkpt>
      <trkpt lat="45.95764" lon="4.76128">
        <ele>186</ele>
        <time>2018-06-29T10:01:46Z</time>
      </trkpt>
      <trkpt lat="45.95763" lon="4.76119">
        <ele>186</ele>
        <time>2018-06-29T10:01:47Z</time>
      </trkpt>
      <trkpt lat="45.95761" lon="4.7611">
        <ele>186</ele>
        <time>2018-06-29T10:01:48Z</time>
      </trkpt>
      <trkpt lat="45.9576" lon="4.76103">
        <ele>186</ele>
        <time>2018-06-29T10:01:49Z</time>
      </trkpt>
      <trkpt lat="45.95758" lon="4.76095">
        <ele>186</ele>
        <time>2018-06-29T10:01:50Z</time>
      </trkpt>
      <trkpt lat="45.95755" lon="4.76087">
        <ele>185</ele>
        <time>2018-06-29T10:01:51Z</time>
      </trkpt>
      <trkpt lat="45.95751" lon="4.76079">
        <ele>185</ele>
        <time>2018-06-29T10:01:52Z</time>
      </trkpt>
      <trkpt lat="45.95749" lon="4.76071">
        <ele>185</ele>
        <time>2018-06-29T10:01:53Z</time>
      </trkpt>
      <trkpt lat="45.95745" lon="4.76063">
        <ele>185</ele>
        <time>2018-06-29T10:01:54Z</time>
      </trkpt>
      <trkpt lat="45.95742" lon="4.76055">
        <ele>184</ele>
        <time>2018-06-29T10:01:55Z</time>
      </trkpt>
      <trkpt lat="45.95739" lon="4.76046">
        <ele>184</ele>
        <time>2018-06-29T10:01:56Z</time>
      </trkpt>
      <trkpt lat="45.95734" lon="4.76038">
        <ele>184</ele>
        <time>2018-06-29T10:01:57Z</time>
      </trkpt>
      <trkpt lat="45.95731" lon="4.76031">
        <ele>184</ele>
        <time>2018-06-29T10:01:58Z</time>
      </trkpt>
      <trkpt lat="45.95728" lon="4.76023">
        <ele>185</ele>
        <time>2018-06-29T10:01:59Z</time>
      </trkpt>
      <trkpt lat="45.95725" lon="4.76016">
        <ele>185</ele>
        <time>2018-06-29T10:02:00Z</time>
      </trkpt>
      <trkpt lat="45.95722" lon="4.7601">
        <ele>185</ele>
        <time>2018-06-29T10:02:01Z</time>
      </trkpt>
      <trkpt lat="45.95719" lon="4.76002">
        <ele>185</ele>
        <time>2018-06-29T10:02:02Z</time>
      </trkpt>
      <trkpt lat="45.95716" lon="4.75995">
        <ele>185</ele>
        <time>2018-06-29T10:02:03Z</time>
      </trkpt>
      <trkpt lat="45.95713" lon="4.75989">
        <ele>185</ele>
        <time>2018-06-29T10:02:04Z</time>
      </trkpt>
      <trkpt lat="45.95712" lon="4.75982">
        <ele>185</ele>
        <time>2018-06-29T10:02:05Z</time>
      </trkpt>
      <trkpt lat="45.95709" lon="4.75975">
        <ele>185</ele>
        <time>2018-06-29T10:02:06Z</time>
      </trkpt>
      <trkpt lat="45.95706" lon="4.75968">
        <ele>185</ele>
        <time>2018-06-29T10:02:07Z</time>
      </trkpt>
      <trkpt lat="45.95703" lon="4.7596">
        <ele>185</ele>
        <time>2018-06-29T10:02:08Z</time>
      </trkpt>
      <trkpt lat="45.957" lon="4.75953">
        <ele>185</ele>
        <time>2018-06-29T10:02:09Z</time>
      </trkpt>
      <trkpt lat="45.95697" lon="4.75946">
        <ele>185</ele>
        <time>2018-06-29T10:02:10Z</time>
      </trkpt>
      <trkpt lat="45.95694" lon="4.75939">
        <ele>185</ele>
        <time>2018-06-29T10:02:11Z</time>
      </trkpt>
      <trkpt lat="45.9569" lon="4.75931">
        <ele>185</ele>
        <time>2018-06-29T10:02:12Z</time>
      </trkpt>
      <trkpt lat="45.95686" lon="4.75923">
        <ele>185</ele>
        <time>2018-06-29T10:02:13Z</time>
      </trkpt>
      <trkpt lat="45.95683" lon="4.75915">
        <ele>185</ele>
        <time>2018-06-29T10:02:14Z</time>
      </trkpt>
      <trkpt lat="45.9568" lon="4.75907">
        <ele>185</ele>
        <time>2018-06-29T10:02:15Z</time>
      </trkpt>
      <trkpt lat="45.95679" lon="4.75901">
        <ele>186</ele>
        <time>2018-06-29T10:02:16Z</time>
      </trkpt>
      <trkpt lat="45.95676" lon="4.75894">
        <ele>186</ele>
        <time>2018-06-29T10:02:17Z</time>
      </trkpt>
      <trkpt lat="45.95674" lon="4.75885">
        <ele>186</ele>
        <time>2018-06-29T10:02:18Z</time>
      </trkpt>
      <trkpt lat="45.95669" lon="4.75877">
        <ele>186</ele>
        <time>2018-06-29T10:02:19Z</time>
      </trkpt>
      <trkpt lat="45.95667" lon="4.7587">
        <ele>184</ele>
        <time>2018-06-29T10:02:20Z</time>
      </trkpt>
      <trkpt lat="45.95664" lon="4.75863">
        <ele>184</ele>
        <time>2018-06-29T10:02:21Z</time>
      </trkpt>
      <trkpt lat="45.95663" lon="4.75856">
        <ele>185</ele>
        <time>2018-06-29T10:02:22Z</time>
      </trkpt>
      <trkpt lat="45.95661" lon="4.75848">
        <ele>185</ele>
        <time>2018-06-29T10:02:23Z</time>
      </trkpt>
      <trkpt lat="45.95659" lon="4.75841">
        <ele>185</ele>
        <time>2018-06-29T10:02:24Z</time>
      </trkpt>
      <trkpt lat="45.95657" lon="4.75833">
        <ele>186</ele>
        <time>2018-06-29T10:02:25Z</time>
      </trkpt>
      <trkpt lat="45.95654" lon="4.75824">
        <ele>186</ele>
        <time>2018-06-29T10:02:26Z</time>
      </trkpt>
      <trkpt lat="45.95653" lon="4.75816">
        <ele>185</ele>
        <time>2018-06-29T10:02:27Z</time>
      </trkpt>
      <trkpt lat="45.95651" lon="4.75809">
        <ele>185</ele>
        <time>2018-06-29T10:02:28Z</time>
      </trkpt>
      <trkpt lat="45.9565" lon="4.75801">
        <ele>185</ele>
        <time>2018-06-29T10:02:29Z</time>
      </trkpt>
      <trkpt lat="45.95649" lon="4.75793">
        <ele>186</ele>
        <time>2018-06-29T10:02:30Z</time>
      </trkpt>
      <trkpt lat="45.95647" lon="4.75785">
        <ele>186</ele>
        <time>2018-06-29T10:02:31Z</time>
      </trkpt>
      <trkpt lat="45.95646" lon="4.75777">
        <ele>186</ele>
        <time>2018-06-29T10:02:32Z</time>
      </trkpt>
      <trkpt lat="45.95639" lon="4.75769">
        <ele>186</ele>
        <time>2018-06-29T10:02:33Z</time>
      </trkpt>
      <trkpt lat="45.9564" lon="4.75761">
        <ele>186</ele>
        <time>2018-06-29T10:02:34Z</time>
      </trkpt>
      <trkpt lat="45.95634" lon="4.75753">
        <ele>186</ele>
        <time>2018-06-29T10:02:35Z</time>
      </trkpt>
      <trkpt lat="45.95632" lon="4.75745">
        <ele>187</ele>
        <time>2018-06-29T10:02:36Z</time>
      </trkpt>
      <trkpt lat="45.95631" lon="4.75738">
        <ele>187</ele>
        <time>2018-06-29T10:02:37Z</time>
      </trkpt>
      <trkpt lat="45.95631" lon="4.75731">
        <ele>187</ele>
        <time>2018-06-29T10:02:38Z</time>
      </trkpt>
      <trkpt lat="45.95632" lon="4.75724">
        <ele>187</ele>
        <time>2018-06-29T10:02:39Z</time>
      </trkpt>
      <trkpt lat="45.95632" lon="4.75716">
        <ele>187</ele>
        <time>2018-06-29T10:02:40Z</time>
      </trkpt>
      <trkpt lat="45.9563" lon="4.75708">
        <ele>187</ele>
        <time>2018-06-29T10:02:41Z</time>
      </trkpt>
      <trkpt lat="45.95631" lon="4.757">
        <ele>187</ele>
        <time>2018-06-29T10:02:42Z</time>
      </trkpt>
      <trkpt lat="45.95631" lon="4.75692">
        <ele>187</ele>
        <time>2018-06-29T10:02:43Z</time>
      </trkpt>
      <trkpt lat="45.9563" lon="4.75684">
        <ele>187</ele>
        <time>2018-06-29T10:02:44Z</time>
      </trkpt>
      <trkpt lat="45.95626" lon="4.75675">
        <ele>187</ele>
        <time>2018-06-29T10:02:45Z</time>
      </trkpt>
      <trkpt lat="45.95627" lon="4.75667">
        <ele>187</ele>
        <time>2018-06-29T10:02:46Z</time>
      </trkpt>
      <trkpt lat="45.95626" lon="4.75662">
        <ele>188</ele>
        <time>2018-06-29T10:02:47Z</time>
      </trkpt>
      <trkpt lat="45.95623" lon="4.75655">
        <ele>188</ele>
        <time>2018-06-29T10:02:48Z</time>
      </trkpt>
      <trkpt lat="45.9562" lon="4.75647">
        <ele>188</ele>
        <time>2018-06-29T10:02:49Z</time>
      </trkpt>
      <trkpt lat="45.95618" lon="4.75641">
        <ele>188</ele>
        <time>2018-06-29T10:02:50Z</time>
      </trkpt>
      <trkpt lat="45.95617" lon="4.75634">
        <ele>188</ele>
        <time>2018-06-29T10:02:51Z</time>
      </trkpt>
      <trkpt lat="45.95615" lon="4.75627">
        <ele>188</ele>
        <time>2018-06-29T10:02:52Z</time>
      </trkpt>
      <trkpt lat="45.95616" lon="4.75615">
        <ele>188</ele>
        <time>2018-06-29T10:02:54Z</time>
      </trkpt>
      <trkpt lat="45.95612" lon="4.75608">
        <ele>188</ele>
        <time>2018-06-29T10:02:55Z</time>
      </trkpt>
      <trkpt lat="45.95609" lon="4.756">
        <ele>187</ele>
        <time>2018-06-29T10:02:56Z</time>
      </trkpt>
      <trkpt lat="45.95606" lon="4.75593">
        <ele>187</ele>
        <time>2018-06-29T10:02:57Z</time>
      </trkpt>
      <trkpt lat="45.95604" lon="4.75588">
        <ele>187</ele>
        <time>2018-06-29T10:02:58Z</time>
      </trkpt>
      <trkpt lat="45.95599" lon="4.75582">
        <ele>188</ele>
        <time>2018-06-29T10:02:59Z</time>
      </trkpt>
      <trkpt lat="45.95595" lon="4.75571">
        <ele>188</ele>
        <time>2018-06-29T10:03:01Z</time>
      </trkpt>
      <trkpt lat="45.95594" lon="4.75566">
        <ele>188</ele>
        <time>2018-06-29T10:03:02Z</time>
      </trkpt>
      <trkpt lat="45.95587" lon="4.7556">
        <ele>188</ele>
        <time>2018-06-29T10:03:03Z</time>
      </trkpt>
      <trkpt lat="45.95583" lon="4.75554">
        <ele>186</ele>
        <time>2018-06-29T10:03:04Z</time>
      </trkpt>
      <trkpt lat="45.95579" lon="4.75549">
        <ele>186</ele>
        <time>2018-06-29T10:03:05Z</time>
      </trkpt>
      <trkpt lat="45.95575" lon="4.75544">
        <ele>186</ele>
        <time>2018-06-29T10:03:06Z</time>
      </trkpt>
      <trkpt lat="45.9557" lon="4.75539">
        <ele>186</ele>
        <time>2018-06-29T10:03:07Z</time>
      </trkpt>
      <trkpt lat="45.95566" lon="4.75534">
        <ele>186</ele>
        <time>2018-06-29T10:03:08Z</time>
      </trkpt>
      <trkpt lat="45.95563" lon="4.75528">
        <ele>186</ele>
        <time>2018-06-29T10:03:09Z</time>
      </trkpt>
      <trkpt lat="45.95558" lon="4.75525">
        <ele>186</ele>
        <time>2018-06-29T10:03:10Z</time>
      </trkpt>
      <trkpt lat="45.95554" lon="4.75521">
        <ele>186</ele>
        <time>2018-06-29T10:03:11Z</time>
      </trkpt>
      <trkpt lat="45.95551" lon="4.75516">
        <ele>186</ele>
        <time>2018-06-29T10:03:12Z</time>
      </trkpt>
      <trkpt lat="45.95547" lon="4.7551">
        <ele>186</ele>
        <time>2018-06-29T10:03:13Z</time>
      </trkpt>
      <trkpt lat="45.95544" lon="4.75503">
        <ele>186</ele>
        <time>2018-06-29T10:03:14Z</time>
      </trkpt>
      <trkpt lat="45.95541" lon="4.75495">
        <ele>187</ele>
        <time>2018-06-29T10:03:15Z</time>
      </trkpt>
      <trkpt lat="45.9554" lon="4.75488">
        <ele>187</ele>
        <time>2018-06-29T10:03:16Z</time>
      </trkpt>
      <trkpt lat="45.95539" lon="4.75481">
        <ele>187</ele>
        <time>2018-06-29T10:03:17Z</time>
      </trkpt>
      <trkpt lat="45.95537" lon="4.75474">
        <ele>187</ele>
        <time>2018-06-29T10:03:18Z</time>
      </trkpt>
      <trkpt lat="45.95535" lon="4.75462">
        <ele>187</ele>
        <time>2018-06-29T10:03:20Z</time>
      </trkpt>
      <trkpt lat="45.95531" lon="4.75455">
        <ele>187</ele>
        <time>2018-06-29T10:03:21Z</time>
      </trkpt>
      <trkpt lat="45.95528" lon="4.75452">
        <ele>187</ele>
        <time>2018-06-29T10:03:22Z</time>
      </trkpt>
      <trkpt lat="45.95523" lon="4.75446">
        <ele>187</ele>
        <time>2018-06-29T10:03:23Z</time>
      </trkpt>
      <trkpt lat="45.95519" lon="4.75438">
        <ele>187</ele>
        <time>2018-06-29T10:03:24Z</time>
      </trkpt>
      <trkpt lat="45.95516" lon="4.75431">
        <ele>187</ele>
        <time>2018-06-29T10:03:25Z</time>
      </trkpt>
      <trkpt lat="45.95515" lon="4.75425">
        <ele>186</ele>
        <time>2018-06-29T10:03:26Z</time>
      </trkpt>
      <trkpt lat="45.95513" lon="4.75418">
        <ele>186</ele>
        <time>2018-06-29T10:03:27Z</time>
      </trkpt>
      <trkpt lat="45.9551" lon="4.75411">
        <ele>187</ele>
        <time>2018-06-29T10:03:28Z</time>
      </trkpt>
      <trkpt lat="45.95507" lon="4.75403">
        <ele>187</ele>
        <time>2018-06-29T10:03:29Z</time>
      </trkpt>
      <trkpt lat="45.95504" lon="4.75395">
        <ele>188</ele>
        <time>2018-06-29T10:03:30Z</time>
      </trkpt>
      <trkpt lat="45.95498" lon="4.75388">
        <ele>185</ele>
        <time>2018-06-29T10:03:31Z</time>
      </trkpt>
      <trkpt lat="45.95496" lon="4.75381">
        <ele>185</ele>
        <time>2018-06-29T10:03:32Z</time>
      </trkpt>
      <trkpt lat="45.95491" lon="4.75373">
        <ele>185</ele>
        <time>2018-06-29T10:03:33Z</time>
      </trkpt>
      <trkpt lat="45.95487" lon="4.75365">
        <ele>186</ele>
        <time>2018-06-29T10:03:34Z</time>
      </trkpt>
      <trkpt lat="45.95483" lon="4.75359">
        <ele>186</ele>
        <time>2018-06-29T10:03:35Z</time>
      </trkpt>
      <trkpt lat="45.95481" lon="4.75353">
        <ele>186</ele>
        <time>2018-06-29T10:03:36Z</time>
      </trkpt>
      <trkpt lat="45.95478" lon="4.75346">
        <ele>186</ele>
        <time>2018-06-29T10:03:37Z</time>
      </trkpt>
      <trkpt lat="45.95473" lon="4.75338">
        <ele>186</ele>
        <time>2018-06-29T10:03:38Z</time>
      </trkpt>
      <trkpt lat="45.95469" lon="4.75331">
        <ele>188</ele>
        <time>2018-06-29T10:03:39Z</time>
      </trkpt>
      <trkpt lat="45.95466" lon="4.75323">
        <ele>188</ele>
        <time>2018-06-29T10:03:40Z</time>
      </trkpt>
      <trkpt lat="45.95463" lon="4.75317">
        <ele>188</ele>
        <time>2018-06-29T10:03:41Z</time>
      </trkpt>
      <trkpt lat="45.95459" lon="4.75309">
        <ele>188</ele>
        <time>2018-06-29T10:03:42Z</time>
      </trkpt>
      <trkpt lat="45.95455" lon="4.75302">
        <ele>188</ele>
        <time>2018-06-29T10:03:43Z</time>
      </trkpt>
      <trkpt lat="45.95451" lon="4.75294">
        <ele>188</ele>
        <time>2018-06-29T10:03:44Z</time>
      </trkpt>
      <trkpt lat="45.95447" lon="4.75286">
        <ele>188</ele>
        <time>2018-06-29T10:03:45Z</time>
      </trkpt>
      <trkpt lat="45.95445" lon="4.75281">
        <ele>188</ele>
        <time>2018-06-29T10:03:46Z</time>
      </trkpt>
      <trkpt lat="45.95442" lon="4.75274">
        <ele>189</ele>
        <time>2018-06-29T10:03:47Z</time>
      </trkpt>
      <trkpt lat="45.95437" lon="4.75267">
        <ele>189</ele>
        <time>2018-06-29T10:03:48Z</time>
      </trkpt>
      <trkpt lat="45.95433" lon="4.7526">
        <ele>189</ele>
        <time>2018-06-29T10:03:49Z</time>
      </trkpt>
      <trkpt lat="45.95429" lon="4.75252">
        <ele>189</ele>
        <time>2018-06-29T10:03:50Z</time>
      </trkpt>
      <trkpt lat="45.95425" lon="4.75245">
        <ele>190</ele>
        <time>2018-06-29T10:03:51Z</time>
      </trkpt>
      <trkpt lat="45.95421" lon="4.75239">
        <ele>190</ele>
        <time>2018-06-29T10:03:52Z</time>
      </trkpt>
      <trkpt lat="45.95419" lon="4.75234">
        <ele>190</ele>
        <time>2018-06-29T10:03:53Z</time>
      </trkpt>
      <trkpt lat="45.95415" lon="4.75227">
        <ele>189</ele>
        <time>2018-06-29T10:03:54Z</time>
      </trkpt>
      <trkpt lat="45.95413" lon="4.75222">
        <ele>189</ele>
        <time>2018-06-29T10:03:55Z</time>
      </trkpt>
      <trkpt lat="45.9541" lon="4.75216">
        <ele>189</ele>
        <time>2018-06-29T10:03:56Z</time>
      </trkpt>
      <trkpt lat="45.95407" lon="4.7521">
        <ele>189</ele>
        <time>2018-06-29T10:03:57Z</time>
      </trkpt>
      <trkpt lat="45.95404" lon="4.75204">
        <ele>189</ele>
        <time>2018-06-29T10:03:58Z</time>
      </trkpt>
      <trkpt lat="45.954" lon="4.75197">
        <ele>189</ele>
        <time>2018-06-29T10:03:59Z</time>
      </trkpt>
      <trkpt lat="45.95396" lon="4.75191">
        <ele>189</ele>
        <time>2018-06-29T10:04:00Z</time>
      </trkpt>
      <trkpt lat="45.95393" lon="4.75186">
        <ele>189</ele>
        <time>2018-06-29T10:04:01Z</time>
      </trkpt>
      <trkpt lat="45.95389" lon="4.75179">
        <ele>189</ele>
        <time>2018-06-29T10:04:02Z</time>
      </trkpt>
      <trkpt lat="45.95386" lon="4.75173">
        <ele>189</ele>
        <time>2018-06-29T10:04:03Z</time>
      </trkpt>
      <trkpt lat="45.95383" lon="4.75167">
        <ele>189</ele>
        <time>2018-06-29T10:04:04Z</time>
      </trkpt>
      <trkpt lat="45.9538" lon="4.75161">
        <ele>191</ele>
        <time>2018-06-29T10:04:05Z</time>
      </trkpt>
      <trkpt lat="45.95377" lon="4.75155">
        <ele>191</ele>
        <time>2018-06-29T10:04:06Z</time>
      </trkpt>
      <trkpt lat="45.95373" lon="4.75149">
        <ele>191</ele>
        <time>2018-06-29T10:04:07Z</time>
      </trkpt>
      <trkpt lat="45.9537" lon="4.75143">
        <ele>191</ele>
        <time>2018-06-29T10:04:08Z</time>
      </trkpt>
      <trkpt lat="45.95366" lon="4.75138">
        <ele>191</ele>
        <time>2018-06-29T10:04:09Z</time>
      </trkpt>
      <trkpt lat="45.95363" lon="4.75132">
        <ele>191</ele>
        <time>2018-06-29T10:04:10Z</time>
      </trkpt>
      <trkpt lat="45.9536" lon="4.75125">
        <ele>191</ele>
        <time>2018-06-29T10:04:11Z</time>
      </trkpt>
      <trkpt lat="45.95355" lon="4.75118">
        <ele>191</ele>
        <time>2018-06-29T10:04:12Z</time>
      </trkpt>
      <trkpt lat="45.95354" lon="4.75113">
        <ele>192</ele>
        <time>2018-06-29T10:04:13Z</time>
      </trkpt>
      <trkpt lat="45.95352" lon="4.75109">
        <ele>192</ele>
        <time>2018-06-29T10:04:14Z</time>
      </trkpt>
      <trkpt lat="45.95346" lon="4.75102">
        <ele>192</ele>
        <time>2018-06-29T10:04:15Z</time>
      </trkpt>
      <trkpt lat="45.95342" lon="4.75095">
        <ele>192</ele>
        <time>2018-06-29T10:04:16Z</time>
      </trkpt>
      <trkpt lat="45.95338" lon="4.7509">
        <ele>193</ele>
        <time>2018-06-29T10:04:17Z</time>
      </trkpt>
      <trkpt lat="45.95334" lon="4.75084">
        <ele>193</ele>
        <time>2018-06-29T10:04:18Z</time>
      </trkpt>
      <trkpt lat="45.9533" lon="4.75078">
        <ele>193</ele>
        <time>2018-06-29T10:04:19Z</time>
      </trkpt>
      <trkpt lat="45.95323" lon="4.75072">
        <ele>192</ele>
        <time>2018-06-29T10:04:20Z</time>
      </trkpt>
      <trkpt lat="45.95321" lon="4.75066">
        <ele>192</ele>
        <time>2018-06-29T10:04:21Z</time>
      </trkpt>
      <trkpt lat="45.95318" lon="4.7506">
        <ele>192</ele>
        <time>2018-06-29T10:04:22Z</time>
      </trkpt>
      <trkpt lat="45.95312" lon="4.75055">
        <ele>192</ele>
        <time>2018-06-29T10:04:23Z</time>
      </trkpt>
      <trkpt lat="45.95308" lon="4.75048">
        <ele>192</ele>
        <time>2018-06-29T10:04:24Z</time>
      </trkpt>
      <trkpt lat="45.95305" lon="4.75042">
        <ele>192</ele>
        <time>2018-06-29T10:04:25Z</time>
      </trkpt>
      <trkpt lat="45.95301" lon="4.75036">
        <ele>191</ele>
        <time>2018-06-29T10:04:26Z</time>
      </trkpt>
      <trkpt lat="45.95298" lon="4.75031">
        <ele>191</ele>
        <time>2018-06-29T10:04:27Z</time>
      </trkpt>
      <trkpt lat="45.95294" lon="4.75024">
        <ele>191</ele>
        <time>2018-06-29T10:04:28Z</time>
      </trkpt>
      <trkpt lat="45.95292" lon="4.7502">
        <ele>191</ele>
        <time>2018-06-29T10:04:29Z</time>
      </trkpt>
      <trkpt lat="45.95288" lon="4.75015">
        <ele>191</ele>
        <time>2018-06-29T10:04:30Z</time>
      </trkpt>
      <trkpt lat="45.95284" lon="4.75009">
        <ele>191</ele>
        <time>2018-06-29T10:04:31Z</time>
      </trkpt>
      <trkpt lat="45.95278" lon="4.75">
        <ele>191</ele>
        <time>2018-06-29T10:04:33Z</time>
      </trkpt>
      <trkpt lat="45.95275" lon="4.74995">
        <ele>192</ele>
        <time>2018-06-29T10:04:34Z</time>
      </trkpt>
      <trkpt lat="45.95271" lon="4.74989">
        <ele>192</ele>
        <time>2018-06-29T10:04:35Z</time>
      </trkpt>
      <trkpt lat="45.95267" lon="4.74984">
        <ele>192</ele>
        <time>2018-06-29T10:04:36Z</time>
      </trkpt>
      <trkpt lat="45.95263" lon="4.74978">
        <ele>192</ele>
        <time>2018-06-29T10:04:37Z</time>
      </trkpt>
      <trkpt lat="45.9526" lon="4.74974">
        <ele>192</ele>
        <time>2018-06-29T10:04:38Z</time>
      </trkpt>
      <trkpt lat="45.95257" lon="4.74969">
        <ele>192</ele>
        <time>2018-06-29T10:04:39Z</time>
      </trkpt>
      <trkpt lat="45.95249" lon="4.7496">
        <ele>192</ele>
        <time>2018-06-29T10:04:40Z</time>
      </trkpt>
      <trkpt lat="45.95245" lon="4.74954">
        <ele>192</ele>
        <time>2018-06-29T10:04:41Z</time>
      </trkpt>
      <trkpt lat="45.95244" lon="4.74947">
        <ele>192</ele>
        <time>2018-06-29T10:04:42Z</time>
      </trkpt>
      <trkpt lat="45.9524" lon="4.74941">
        <ele>192</ele>
        <time>2018-06-29T10:04:43Z</time>
      </trkpt>
      <trkpt lat="45.95236" lon="4.74934">
        <ele>192</ele>
        <time>2018-06-29T10:04:44Z</time>
      </trkpt>
      <trkpt lat="45.95232" lon="4.74928">
        <ele>192</ele>
        <time>2018-06-29T10:04:45Z</time>
      </trkpt>
      <trkpt lat="45.9523" lon="4.74923">
        <ele>192</ele>
        <time>2018-06-29T10:04:46Z</time>
      </trkpt>
      <trkpt lat="45.95223" lon="4.74916">
        <ele>193</ele>
        <time>2018-06-29T10:04:47Z</time>
      </trkpt>
      <trkpt lat="45.9522" lon="4.74911">
        <ele>193</ele>
        <time>2018-06-29T10:04:48Z</time>
      </trkpt>
      <trkpt lat="45.95215" lon="4.74901">
        <ele>193</ele>
        <time>2018-06-29T10:04:50Z</time>
      </trkpt>
      <trkpt lat="45.95207" lon="4.74895">
        <ele>194</ele>
        <time>2018-06-29T10:04:51Z</time>
      </trkpt>
      <trkpt lat="45.95204" lon="4.74889">
        <ele>194</ele>
        <time>2018-06-29T10:04:52Z</time>
      </trkpt>
      <trkpt lat="45.95202" lon="4.74883">
        <ele>194</ele>
        <time>2018-06-29T10:04:53Z</time>
      </trkpt>
      <trkpt lat="45.95199" lon="4.74877">
        <ele>194</ele>
        <time>2018-06-29T10:04:54Z</time>
      </trkpt>
      <trkpt lat="45.95195" lon="4.74871">
        <ele>194</ele>
        <time>2018-06-29T10:04:55Z</time>
      </trkpt>
      <trkpt lat="45.95192" lon="4.74865">
        <ele>194</ele>
        <time>2018-06-29T10:04:56Z</time>
      </trkpt>
      <trkpt lat="45.95187" lon="4.74859">
        <ele>194</ele>
        <time>2018-06-29T10:04:57Z</time>
      </trkpt>
      <trkpt lat="45.95183" lon="4.74852">
        <ele>194</ele>
        <time>2018-06-29T10:04:58Z</time>
      </trkpt>
      <trkpt lat="45.95179" lon="4.74846">
        <ele>194</ele>
        <time>2018-06-29T10:04:59Z</time>
      </trkpt>
      <trkpt lat="45.95175" lon="4.7484">
        <ele>194</ele>
        <time>2018-06-29T10:05:00Z</time>
      </trkpt>
      <trkpt lat="45.95171" lon="4.74833">
        <ele>194</ele>
        <time>2018-06-29T10:05:01Z</time>
      </trkpt>
      <trkpt lat="45.95167" lon="4.74827">
        <ele>194</ele>
        <time>2018-06-29T10:05:02Z</time>
      </trkpt>
      <trkpt lat="45.95161" lon="4.74821">
        <ele>194</ele>
        <time>2018-06-29T10:05:03Z</time>
      </trkpt>
      <trkpt lat="45.95157" lon="4.74815">
        <ele>194</ele>
        <time>2018-06-29T10:05:04Z</time>
      </trkpt>
      <trkpt lat="45.95151" lon="4.7481">
        <ele>194</ele>
        <time>2018-06-29T10:05:05Z</time>
      </trkpt>
      <trkpt lat="45.95147" lon="4.74804">
        <ele>194</ele>
        <time>2018-06-29T10:05:06Z</time>
      </trkpt>
      <trkpt lat="45.95144" lon="4.74797">
        <ele>194</ele>
        <time>2018-06-29T10:05:07Z</time>
      </trkpt>
      <trkpt lat="45.95138" lon="4.7479">
        <ele>194</ele>
        <time>2018-06-29T10:05:08Z</time>
      </trkpt>
      <trkpt lat="45.95135" lon="4.74783">
        <ele>194</ele>
        <time>2018-06-29T10:05:09Z</time>
      </trkpt>
      <trkpt lat="45.95132" lon="4.74777">
        <ele>194</ele>
        <time>2018-06-29T10:05:10Z</time>
      </trkpt>
      <trkpt lat="45.95128" lon="4.74772">
        <ele>194</ele>
        <time>2018-06-29T10:05:11Z</time>
      </trkpt>
      <trkpt lat="45.95125" lon="4.74766">
        <ele>194</ele>
        <time>2018-06-29T10:05:12Z</time>
      </trkpt>
      <trkpt lat="45.95122" lon="4.7476">
        <ele>194</ele>
        <time>2018-06-29T10:05:13Z</time>
      </trkpt>
      <trkpt lat="45.95118" lon="4.74754">
        <ele>194</ele>
        <time>2018-06-29T10:05:14Z</time>
      </trkpt>
      <trkpt lat="45.95114" lon="4.74748">
        <ele>194</ele>
        <time>2018-06-29T10:05:15Z</time>
      </trkpt>
      <trkpt lat="45.95111" lon="4.74741">
        <ele>194</ele>
        <time>2018-06-29T10:05:16Z</time>
      </trkpt>
      <trkpt lat="45.95109" lon="4.74735">
        <ele>194</ele>
        <time>2018-06-29T10:05:17Z</time>
      </trkpt>
      <trkpt lat="45.95106" lon="4.74729">
        <ele>194</ele>
        <time>2018-06-29T10:05:18Z</time>
      </trkpt>
      <trkpt lat="45.95103" lon="4.74723">
        <ele>194</ele>
        <time>2018-06-29T10:05:19Z</time>
      </trkpt>
      <trkpt lat="45.951" lon="4.74717">
        <ele>194</ele>
        <time>2018-06-29T10:05:20Z</time>
      </trkpt>
      <trkpt lat="45.95096" lon="4.74711">
        <ele>194</ele>
        <time>2018-06-29T10:05:21Z</time>
      </trkpt>
      <trkpt lat="45.95093" lon="4.74705">
        <ele>194</ele>
        <time>2018-06-29T10:05:22Z</time>
      </trkpt>
      <trkpt lat="45.95092" lon="4.74699">
        <ele>194</ele>
        <time>2018-06-29T10:05:23Z</time>
      </trkpt>
      <trkpt lat="45.95088" lon="4.74693">
        <ele>194</ele>
        <time>2018-06-29T10:05:24Z</time>
      </trkpt>
      <trkpt lat="45.95084" lon="4.74687">
        <ele>195</ele>
        <time>2018-06-29T10:05:25Z</time>
      </trkpt>
      <trkpt lat="45.9508" lon="4.7468">
        <ele>194</ele>
        <time>2018-06-29T10:05:26Z</time>
      </trkpt>
      <trkpt lat="45.95076" lon="4.74674">
        <ele>194</ele>
        <time>2018-06-29T10:05:27Z</time>
      </trkpt>
      <trkpt lat="45.95073" lon="4.74666">
        <ele>195</ele>
        <time>2018-06-29T10:05:28Z</time>
      </trkpt>
      <trkpt lat="45.9507" lon="4.7466">
        <ele>195</ele>
        <time>2018-06-29T10:05:29Z</time>
      </trkpt>
      <trkpt lat="45.95067" lon="4.74654">
        <ele>195</ele>
        <time>2018-06-29T10:05:30Z</time>
      </trkpt>
      <trkpt lat="45.95063" lon="4.74647">
        <ele>195</ele>
        <time>2018-06-29T10:05:31Z</time>
      </trkpt>
      <trkpt lat="45.9506" lon="4.74641">
        <ele>194</ele>
        <time>2018-06-29T10:05:32Z</time>
      </trkpt>
      <trkpt lat="45.95054" lon="4.74634">
        <ele>194</ele>
        <time>2018-06-29T10:05:33Z</time>
      </trkpt>
      <trkpt lat="45.95051" lon="4.74628">
        <ele>194</ele>
        <time>2018-06-29T10:05:34Z</time>
      </trkpt>
      <trkpt lat="45.95048" lon="4.74621">
        <ele>194</ele>
        <time>2018-06-29T10:05:35Z</time>
      </trkpt>
      <trkpt lat="45.95044" lon="4.74614">
        <ele>194</ele>
        <time>2018-06-29T10:05:36Z</time>
      </trkpt>
      <trkpt lat="45.9504" lon="4.74607">
        <ele>194</ele>
        <time>2018-06-29T10:05:37Z</time>
      </trkpt>
      <trkpt lat="45.95038" lon="4.746">
        <ele>194</ele>
        <time>2018-06-29T10:05:38Z</time>
      </trkpt>
      <trkpt lat="45.95034" lon="4.74594">
        <ele>194</ele>
        <time>2018-06-29T10:05:39Z</time>
      </trkpt>
      <trkpt lat="45.9503" lon="4.74587">
        <ele>194</ele>
        <time>2018-06-29T10:05:40Z</time>
      </trkpt>
      <trkpt lat="45.95028" lon="4.74581">
        <ele>194</ele>
        <time>2018-06-29T10:05:41Z</time>
      </trkpt>
      <trkpt lat="45.95024" lon="4.74575">
        <ele>194</ele>
        <time>2018-06-29T10:05:42Z</time>
      </trkpt>
      <trkpt lat="45.95022" lon="4.74568">
        <ele>194</ele>
        <time>2018-06-29T10:05:43Z</time>
      </trkpt>
      <trkpt lat="45.95018" lon="4.74562">
        <ele>194</ele>
        <time>2018-06-29T10:05:44Z</time>
      </trkpt>
      <trkpt lat="45.95015" lon="4.74554">
        <ele>194</ele>
        <time>2018-06-29T10:05:45Z</time>
      </trkpt>
      <trkpt lat="45.95012" lon="4.74548">
        <ele>194</ele>
        <time>2018-06-29T10:05:46Z</time>
      </trkpt>
      <trkpt lat="45.95009" lon="4.74541">
        <ele>194</ele>
        <time>2018-06-29T10:05:47Z</time>
      </trkpt>
      <trkpt lat="45.95004" lon="4.74534">
        <ele>194</ele>
        <time>2018-06-29T10:05:48Z</time>
      </trkpt>
      <trkpt lat="45.95" lon="4.74528">
        <ele>193</ele>
        <time>2018-06-29T10:05:49Z</time>
      </trkpt>
      <trkpt lat="45.94996" lon="4.7452">
        <ele>193</ele>
        <time>2018-06-29T10:05:50Z</time>
      </trkpt>
      <trkpt lat="45.94992" lon="4.74511">
        <ele>193</ele>
        <time>2018-06-29T10:05:51Z</time>
      </trkpt>
      <trkpt lat="45.94988" lon="4.74503">
        <ele>193</ele>
        <time>2018-06-29T10:05:52Z</time>
      </trkpt>
      <trkpt lat="45.94984" lon="4.74495">
        <ele>193</ele>
        <time>2018-06-29T10:05:53Z</time>
      </trkpt>
      <trkpt lat="45.9498" lon="4.74486">
        <ele>193</ele>
        <time>2018-06-29T10:05:54Z</time>
      </trkpt>
      <trkpt lat="45.94976" lon="4.74478">
        <ele>193</ele>
        <time>2018-06-29T10:05:55Z</time>
      </trkpt>
      <trkpt lat="45.94972" lon="4.74471">
        <ele>193</ele>
        <time>2018-06-29T10:05:56Z</time>
      </trkpt>
      <trkpt lat="45.94968" lon="4.74463">
        <ele>193</ele>
        <time>2018-06-29T10:05:57Z</time>
      </trkpt>
      <trkpt lat="45.94961" lon="4.74455">
        <ele>192</ele>
        <time>2018-06-29T10:05:58Z</time>
      </trkpt>
      <trkpt lat="45.94955" lon="4.74447">
        <ele>192</ele>
        <time>2018-06-29T10:05:59Z</time>
      </trkpt>
      <trkpt lat="45.9495" lon="4.7444">
        <ele>192</ele>
        <time>2018-06-29T10:06:00Z</time>
      </trkpt>
      <trkpt lat="45.94946" lon="4.74432">
        <ele>192</ele>
        <time>2018-06-29T10:06:01Z</time>
      </trkpt>
      <trkpt lat="45.94944" lon="4.74425">
        <ele>192</ele>
        <time>2018-06-29T10:06:02Z</time>
      </trkpt>
      <trkpt lat="45.9494" lon="4.74416">
        <ele>192</ele>
        <time>2018-06-29T10:06:03Z</time>
      </trkpt>
      <trkpt lat="45.94934" lon="4.74408">
        <ele>192</ele>
        <time>2018-06-29T10:06:04Z</time>
      </trkpt>
      <trkpt lat="45.94929" lon="4.74399">
        <ele>192</ele>
        <time>2018-06-29T10:06:05Z</time>
      </trkpt>
      <trkpt lat="45.94923" lon="4.74389">
        <ele>192</ele>
        <time>2018-06-29T10:06:06Z</time>
      </trkpt>
      <trkpt lat="45.94917" lon="4.74381">
        <ele>192</ele>
        <time>2018-06-29T10:06:07Z</time>
      </trkpt>
      <trkpt lat="45.94912" lon="4.74373">
        <ele>191</ele>
        <time>2018-06-29T10:06:08Z</time>
      </trkpt>
      <trkpt lat="45.94908" lon="4.74364">
        <ele>191</ele>
        <time>2018-06-29T10:06:09Z</time>
      </trkpt>
      <trkpt lat="45.94905" lon="4.74356">
        <ele>191</ele>
        <time>2018-06-29T10:06:10Z</time>
      </trkpt>
      <trkpt lat="45.94901" lon="4.74349">
        <ele>191</ele>
        <time>2018-06-29T10:06:11Z</time>
      </trkpt>
      <trkpt lat="45.94899" lon="4.74341">
        <ele>191</ele>
        <time>2018-06-29T10:06:12Z</time>
      </trkpt>
      <trkpt lat="45.94896" lon="4.74334">
        <ele>191</ele>
        <time>2018-06-29T10:06:13Z</time>
      </trkpt>
      <trkpt lat="45.94891" lon="4.74326">
        <ele>191</ele>
        <time>2018-06-29T10:06:14Z</time>
      </trkpt>
      <trkpt lat="45.94887" lon="4.74319">
        <ele>191</ele>
        <time>2018-06-29T10:06:15Z</time>
      </trkpt>
      <trkpt lat="45.94883" lon="4.74311">
        <ele>191</ele>
        <time>2018-06-29T10:06:16Z</time>
      </trkpt>
      <trkpt lat="45.94879" lon="4.74304">
        <ele>191</ele>
        <time>2018-06-29T10:06:17Z</time>
      </trkpt>
      <trkpt lat="45.94875" lon="4.74296">
        <ele>191</ele>
        <time>2018-06-29T10:06:18Z</time>
      </trkpt>
      <trkpt lat="45.94871" lon="4.74289">
        <ele>191</ele>
        <time>2018-06-29T10:06:19Z</time>
      </trkpt>
      <trkpt lat="45.94867" lon="4.7428">
        <ele>191</ele>
        <time>2018-06-29T10:06:20Z</time>
      </trkpt>
      <trkpt lat="45.94863" lon="4.74271">
        <ele>190</ele>
        <time>2018-06-29T10:06:21Z</time>
      </trkpt>
      <trkpt lat="45.94859" lon="4.74265">
        <ele>190</ele>
        <time>2018-06-29T10:06:22Z</time>
      </trkpt>
      <trkpt lat="45.94854" lon="4.74257">
        <ele>190</ele>
        <time>2018-06-29T10:06:23Z</time>
      </trkpt>
      <trkpt lat="45.94851" lon="4.74248">
        <ele>190</ele>
        <time>2018-06-29T10:06:24Z</time>
      </trkpt>
      <trkpt lat="45.94847" lon="4.74241">
        <ele>190</ele>
        <time>2018-06-29T10:06:25Z</time>
      </trkpt>
      <trkpt lat="45.94844" lon="4.74234">
        <ele>190</ele>
        <time>2018-06-29T10:06:26Z</time>
      </trkpt>
      <trkpt lat="45.9484" lon="4.74226">
        <ele>190</ele>
        <time>2018-06-29T10:06:27Z</time>
      </trkpt>
      <trkpt lat="45.94837" lon="4.74219">
        <ele>190</ele>
        <time>2018-06-29T10:06:28Z</time>
      </trkpt>
      <trkpt lat="45.94834" lon="4.74213">
        <ele>190</ele>
        <time>2018-06-29T10:06:29Z</time>
      </trkpt>
      <trkpt lat="45.94831" lon="4.74206">
        <ele>189</ele>
        <time>2018-06-29T10:06:30Z</time>
      </trkpt>
      <trkpt lat="45.94826" lon="4.742">
        <ele>189</ele>
        <time>2018-06-29T10:06:31Z</time>
      </trkpt>
      <trkpt lat="45.94822" lon="4.74193">
        <ele>189</ele>
        <time>2018-06-29T10:06:32Z</time>
      </trkpt>
      <trkpt lat="45.94818" lon="4.74186">
        <ele>189</ele>
        <time>2018-06-29T10:06:33Z</time>
      </trkpt>
      <trkpt lat="45.94812" lon="4.74178">
        <ele>189</ele>
        <time>2018-06-29T10:06:34Z</time>
      </trkpt>
      <trkpt lat="45.94807" lon="4.74172">
        <ele>189</ele>
        <time>2018-06-29T10:06:35Z</time>
      </trkpt>
      <trkpt lat="45.94803" lon="4.74165">
        <ele>189</ele>
        <time>2018-06-29T10:06:36Z</time>
      </trkpt>
      <trkpt lat="45.94799" lon="4.74158">
        <ele>189</ele>
        <time>2018-06-29T10:06:37Z</time>
      </trkpt>
      <trkpt lat="45.94795" lon="4.74149">
        <ele>189</ele>
        <time>2018-06-29T10:06:38Z</time>
      </trkpt>
      <trkpt lat="45.94792" lon="4.74141">
        <ele>189</ele>
        <time>2018-06-29T10:06:39Z</time>
      </trkpt>
      <trkpt lat="45.94787" lon="4.74133">
        <ele>189</ele>
        <time>2018-06-29T10:06:40Z</time>
      </trkpt>
      <trkpt lat="45.94783" lon="4.74127">
        <ele>189</ele>
        <time>2018-06-29T10:06:41Z</time>
      </trkpt>
      <trkpt lat="45.94778" lon="4.7412">
        <ele>189</ele>
        <time>2018-06-29T10:06:42Z</time>
      </trkpt>
      <trkpt lat="45.94773" lon="4.74113">
        <ele>189</ele>
        <time>2018-06-29T10:06:43Z</time>
      </trkpt>
      <trkpt lat="45.94769" lon="4.74107">
        <ele>189</ele>
        <time>2018-06-29T10:06:44Z</time>
      </trkpt>
      <trkpt lat="45.94764" lon="4.74101">
        <ele>189</ele>
        <time>2018-06-29T10:06:45Z</time>
      </trkpt>
      <trkpt lat="45.94758" lon="4.74094">
        <ele>189</ele>
        <time>2018-06-29T10:06:46Z</time>
      </trkpt>
      <trkpt lat="45.94753" lon="4.74085">
        <ele>189</ele>
        <time>2018-06-29T10:06:47Z</time>
      </trkpt>
      <trkpt lat="45.94748" lon="4.74079">
        <ele>189</ele>
        <time>2018-06-29T10:06:48Z</time>
      </trkpt>
      <trkpt lat="45.94744" lon="4.74074">
        <ele>188</ele>
        <time>2018-06-29T10:06:49Z</time>
      </trkpt>
      <trkpt lat="45.9474" lon="4.74067">
        <ele>188</ele>
        <time>2018-06-29T10:06:50Z</time>
      </trkpt>
      <trkpt lat="45.94736" lon="4.74061">
        <ele>188</ele>
        <time>2018-06-29T10:06:51Z</time>
      </trkpt>
      <trkpt lat="45.94732" lon="4.74056">
        <ele>188</ele>
        <time>2018-06-29T10:06:52Z</time>
      </trkpt>
      <trkpt lat="45.94726" lon="4.74048">
        <ele>188</ele>
        <time>2018-06-29T10:06:53Z</time>
      </trkpt>
      <trkpt lat="45.94723" lon="4.74042">
        <ele>187</ele>
        <time>2018-06-29T10:06:54Z</time>
      </trkpt>
      <trkpt lat="45.9472" lon="4.74037">
        <ele>187</ele>
        <time>2018-06-29T10:06:55Z</time>
      </trkpt>
      <trkpt lat="45.94716" lon="4.74031">
        <ele>187</ele>
        <time>2018-06-29T10:06:56Z</time>
      </trkpt>
      <trkpt lat="45.94712" lon="4.74026">
        <ele>187</ele>
        <time>2018-06-29T10:06:57Z</time>
      </trkpt>
      <trkpt lat="45.94705" lon="4.7402">
        <ele>187</ele>
        <time>2018-06-29T10:06:58Z</time>
      </trkpt>
      <trkpt lat="45.94701" lon="4.74013">
        <ele>187</ele>
        <time>2018-06-29T10:06:59Z</time>
      </trkpt>
      <trkpt lat="45.94697" lon="4.74007">
        <ele>187</ele>
        <time>2018-06-29T10:07:00Z</time>
      </trkpt>
      <trkpt lat="45.94694" lon="4.74002">
        <ele>187</ele>
        <time>2018-06-29T10:07:01Z</time>
      </trkpt>
      <trkpt lat="45.9469" lon="4.73996">
        <ele>187</ele>
        <time>2018-06-29T10:07:02Z</time>
      </trkpt>
      <trkpt lat="45.94686" lon="4.7399">
        <ele>187</ele>
        <time>2018-06-29T10:07:03Z</time>
      </trkpt>
      <trkpt lat="45.94682" lon="4.73984">
        <ele>187</ele>
        <time>2018-06-29T10:07:04Z</time>
      </trkpt>
      <trkpt lat="45.94677" lon="4.73977">
        <ele>187</ele>
        <time>2018-06-29T10:07:05Z</time>
      </trkpt>
      <trkpt lat="45.94672" lon="4.7397">
        <ele>187</ele>
        <time>2018-06-29T10:07:06Z</time>
      </trkpt>
      <trkpt lat="45.94667" lon="4.73963">
        <ele>187</ele>
        <time>2018-06-29T10:07:07Z</time>
      </trkpt>
      <trkpt lat="45.94663" lon="4.73957">
        <ele>187</ele>
        <time>2018-06-29T10:07:08Z</time>
      </trkpt>
      <trkpt lat="45.94658" lon="4.7395">
        <ele>187</ele>
        <time>2018-06-29T10:07:09Z</time>
      </trkpt>
      <trkpt lat="45.94653" lon="4.73943">
        <ele>187</ele>
        <time>2018-06-29T10:07:10Z</time>
      </trkpt>
      <trkpt lat="45.94649" lon="4.73937">
        <ele>187</ele>
        <time>2018-06-29T10:07:11Z</time>
      </trkpt>
      <trkpt lat="45.94643" lon="4.73931">
        <ele>187</ele>
        <time>2018-06-29T10:07:12Z</time>
      </trkpt>
      <trkpt lat="45.94638" lon="4.73924">
        <ele>187</ele>
        <time>2018-06-29T10:07:13Z</time>
      </trkpt>
      <trkpt lat="45.94633" lon="4.73918">
        <ele>187</ele>
        <time>2018-06-29T10:07:14Z</time>
      </trkpt>
      <trkpt lat="45.94629" lon="4.73913">
        <ele>187</ele>
        <time>2018-06-29T10:07:15Z</time>
      </trkpt>
      <trkpt lat="45.94624" lon="4.73908">
        <ele>187</ele>
        <time>2018-06-29T10:07:16Z</time>
      </trkpt>
      <trkpt lat="45.9462" lon="4.73902">
        <ele>187</ele>
        <time>2018-06-29T10:07:17Z</time>
      </trkpt>
      <trkpt lat="45.94616" lon="4.73897">
        <ele>187</ele>
        <time>2018-06-29T10:07:18Z</time>
      </trkpt>
      <trkpt lat="45.94611" lon="4.7389">
        <ele>187</ele>
        <time>2018-06-29T10:07:19Z</time>
      </trkpt>
      <trkpt lat="45.94607" lon="4.73885">
        <ele>187</ele>
        <time>2018-06-29T10:07:20Z</time>
      </trkpt>
      <trkpt lat="45.94598" lon="4.73881">
        <ele>187</ele>
        <time>2018-06-29T10:07:21Z</time>
      </trkpt>
      <trkpt lat="45.94595" lon="4.73877">
        <ele>187</ele>
        <time>2018-06-29T10:07:22Z</time>
      </trkpt>
      <trkpt lat="45.9459" lon="4.73871">
        <ele>187</ele>
        <time>2018-06-29T10:07:23Z</time>
      </trkpt>
      <trkpt lat="45.94585" lon="4.73865">
        <ele>187</ele>
        <time>2018-06-29T10:07:24Z</time>
      </trkpt>
      <trkpt lat="45.9458" lon="4.73858">
        <ele>186</ele>
        <time>2018-06-29T10:07:25Z</time>
      </trkpt>
      <trkpt lat="45.94575" lon="4.73854">
        <ele>186</ele>
        <time>2018-06-29T10:07:26Z</time>
      </trkpt>
      <trkpt lat="45.9457" lon="4.73848">
        <ele>186</ele>
        <time>2018-06-29T10:07:27Z</time>
      </trkpt>
      <trkpt lat="45.94565" lon="4.73842">
        <ele>186</ele>
        <time>2018-06-29T10:07:28Z</time>
      </trkpt>
      <trkpt lat="45.94559" lon="4.73837">
        <ele>186</ele>
        <time>2018-06-29T10:07:29Z</time>
      </trkpt>
      <trkpt lat="45.94554" lon="4.73832">
        <ele>186</ele>
        <time>2018-06-29T10:07:30Z</time>
      </trkpt>
      <trkpt lat="45.94549" lon="4.73826">
        <ele>186</ele>
        <time>2018-06-29T10:07:31Z</time>
      </trkpt>
      <trkpt lat="45.94543" lon="4.7382">
        <ele>186</ele>
        <time>2018-06-29T10:07:32Z</time>
      </trkpt>
      <trkpt lat="45.94537" lon="4.73815">
        <ele>186</ele>
        <time>2018-06-29T10:07:33Z</time>
      </trkpt>
      <trkpt lat="45.94533" lon="4.73809">
        <ele>186</ele>
        <time>2018-06-29T10:07:34Z</time>
      </trkpt>
      <trkpt lat="45.94528" lon="4.73803">
        <ele>186</ele>
        <time>2018-06-29T10:07:35Z</time>
      </trkpt>
      <trkpt lat="45.94523" lon="4.73798">
        <ele>186</ele>
        <time>2018-06-29T10:07:36Z</time>
      </trkpt>
      <trkpt lat="45.94519" lon="4.73794">
        <ele>186</ele>
        <time>2018-06-29T10:07:37Z</time>
      </trkpt>
      <trkpt lat="45.94514" lon="4.73788">
        <ele>186</ele>
        <time>2018-06-29T10:07:38Z</time>
      </trkpt>
      <trkpt lat="45.9451" lon="4.73783">
        <ele>186</ele>
        <time>2018-06-29T10:07:39Z</time>
      </trkpt>
      <trkpt lat="45.94506" lon="4.73778">
        <ele>186</ele>
        <time>2018-06-29T10:07:40Z</time>
      </trkpt>
      <trkpt lat="45.945" lon="4.73773">
        <ele>186</ele>
        <time>2018-06-29T10:07:44Z</time>
      </trkpt>
      <trkpt lat="45.94498" lon="4.73772">
        <ele>186</ele>
        <time>2018-06-29T10:07:45Z</time>
      </trkpt>
      <trkpt lat="45.94494" lon="4.73764">
        <ele>186</ele>
        <time>2018-06-29T10:07:48Z</time>
      </trkpt>
      <trkpt lat="45.94491" lon="4.73754">
        <ele>186</ele>
        <time>2018-06-29T10:07:49Z</time>
      </trkpt>
      <trkpt lat="45.9449" lon="4.73744">
        <ele>186</ele>
        <time>2018-06-29T10:07:51Z</time>
      </trkpt>
      <trkpt lat="45.94491" lon="4.73737">
        <ele>186</ele>
        <time>2018-06-29T10:07:52Z</time>
      </trkpt>
      <trkpt lat="45.94493" lon="4.73729">
        <ele>186</ele>
        <time>2018-06-29T10:07:53Z</time>
      </trkpt>
      <trkpt lat="45.94493" lon="4.73721">
        <ele>186</ele>
        <time>2018-06-29T10:07:54Z</time>
      </trkpt>
      <trkpt lat="45.94493" lon="4.73713">
        <ele>186</ele>
        <time>2018-06-29T10:07:55Z</time>
      </trkpt>
      <trkpt lat="45.94496" lon="4.73705">
        <ele>186</ele>
        <time>2018-06-29T10:07:56Z</time>
      </trkpt>
      <trkpt lat="45.94495" lon="4.73696">
        <ele>186</ele>
        <time>2018-06-29T10:07:57Z</time>
      </trkpt>
      <trkpt lat="45.94498" lon="4.73687">
        <ele>186</ele>
        <time>2018-06-29T10:07:58Z</time>
      </trkpt>
      <trkpt lat="45.945" lon="4.73678">
        <ele>185</ele>
        <time>2018-06-29T10:07:59Z</time>
      </trkpt>
      <trkpt lat="45.94501" lon="4.73669">
        <ele>185</ele>
        <time>2018-06-29T10:08:00Z</time>
      </trkpt>
      <trkpt lat="45.94503" lon="4.7366">
        <ele>185</ele>
        <time>2018-06-29T10:08:01Z</time>
      </trkpt>
      <trkpt lat="45.945" lon="4.73648">
        <ele>185</ele>
        <time>2018-06-29T10:08:02Z</time>
      </trkpt>
      <trkpt lat="45.94501" lon="4.73639">
        <ele>184</ele>
        <time>2018-06-29T10:08:03Z</time>
      </trkpt>
      <trkpt lat="45.94501" lon="4.7363">
        <ele>184</ele>
        <time>2018-06-29T10:08:04Z</time>
      </trkpt>
      <trkpt lat="45.94501" lon="4.7362">
        <ele>184</ele>
        <time>2018-06-29T10:08:05Z</time>
      </trkpt>
      <trkpt lat="45.94503" lon="4.73611">
        <ele>184</ele>
        <time>2018-06-29T10:08:06Z</time>
      </trkpt>
      <trkpt lat="45.94504" lon="4.73601">
        <ele>184</ele>
        <time>2018-06-29T10:08:07Z</time>
      </trkpt>
      <trkpt lat="45.94503" lon="4.73591">
        <ele>185</ele>
        <time>2018-06-29T10:08:08Z</time>
      </trkpt>
      <trkpt lat="45.94502" lon="4.73581">
        <ele>185</ele>
        <time>2018-06-29T10:08:09Z</time>
      </trkpt>
      <trkpt lat="45.94501" lon="4.7357">
        <ele>184</ele>
        <time>2018-06-29T10:08:10Z</time>
      </trkpt>
      <trkpt lat="45.94503" lon="4.73559">
        <ele>184</ele>
        <time>2018-06-29T10:08:11Z</time>
      </trkpt>
      <trkpt lat="45.94504" lon="4.73549">
        <ele>183</ele>
        <time>2018-06-29T10:08:12Z</time>
      </trkpt>
      <trkpt lat="45.94506" lon="4.7354">
        <ele>183</ele>
        <time>2018-06-29T10:08:13Z</time>
      </trkpt>
      <trkpt lat="45.94504" lon="4.73528">
        <ele>183</ele>
        <time>2018-06-29T10:08:14Z</time>
      </trkpt>
      <trkpt lat="45.94503" lon="4.73517">
        <ele>183</ele>
        <time>2018-06-29T10:08:15Z</time>
      </trkpt>
      <trkpt lat="45.94504" lon="4.73506">
        <ele>183</ele>
        <time>2018-06-29T10:08:16Z</time>
      </trkpt>
      <trkpt lat="45.94506" lon="4.73495">
        <ele>182</ele>
        <time>2018-06-29T10:08:17Z</time>
      </trkpt>
      <trkpt lat="45.94506" lon="4.73484">
        <ele>182</ele>
        <time>2018-06-29T10:08:18Z</time>
      </trkpt>
      <trkpt lat="45.94507" lon="4.73472">
        <ele>182</ele>
        <time>2018-06-29T10:08:19Z</time>
      </trkpt>
      <trkpt lat="45.94508" lon="4.73461">
        <ele>181</ele>
        <time>2018-06-29T10:08:20Z</time>
      </trkpt>
      <trkpt lat="45.94508" lon="4.7345">
        <ele>181</ele>
        <time>2018-06-29T10:08:21Z</time>
      </trkpt>
      <trkpt lat="45.94506" lon="4.73437">
        <ele>181</ele>
        <time>2018-06-29T10:08:22Z</time>
      </trkpt>
      <trkpt lat="45.94506" lon="4.73425">
        <ele>180</ele>
        <time>2018-06-29T10:08:23Z</time>
      </trkpt>
      <trkpt lat="45.94502" lon="4.73412">
        <ele>180</ele>
        <time>2018-06-29T10:08:24Z</time>
      </trkpt>
      <trkpt lat="45.94501" lon="4.73399">
        <ele>179</ele>
        <time>2018-06-29T10:08:25Z</time>
      </trkpt>
      <trkpt lat="45.945" lon="4.73387">
        <ele>179</ele>
        <time>2018-06-29T10:08:26Z</time>
      </trkpt>
      <trkpt lat="45.945" lon="4.73375">
        <ele>178</ele>
        <time>2018-06-29T10:08:27Z</time>
      </trkpt>
      <trkpt lat="45.94499" lon="4.73363">
        <ele>179</ele>
        <time>2018-06-29T10:08:28Z</time>
      </trkpt>
      <trkpt lat="45.94498" lon="4.73351">
        <ele>178</ele>
        <time>2018-06-29T10:08:29Z</time>
      </trkpt>
      <trkpt lat="45.94496" lon="4.73339">
        <ele>178</ele>
        <time>2018-06-29T10:08:30Z</time>
      </trkpt>
      <trkpt lat="45.94494" lon="4.73327">
        <ele>177</ele>
        <time>2018-06-29T10:08:31Z</time>
      </trkpt>
      <trkpt lat="45.94492" lon="4.73315">
        <ele>177</ele>
        <time>2018-06-29T10:08:32Z</time>
      </trkpt>
      <trkpt lat="45.94491" lon="4.73303">
        <ele>177</ele>
        <time>2018-06-29T10:08:33Z</time>
      </trkpt>
      <trkpt lat="45.94488" lon="4.7329">
        <ele>177</ele>
        <time>2018-06-29T10:08:34Z</time>
      </trkpt>
      <trkpt lat="45.94486" lon="4.73278">
        <ele>177</ele>
        <time>2018-06-29T10:08:35Z</time>
      </trkpt>
      <trkpt lat="45.94485" lon="4.73266">
        <ele>177</ele>
        <time>2018-06-29T10:08:36Z</time>
      </trkpt>
      <trkpt lat="45.94481" lon="4.73254">
        <ele>176</ele>
        <time>2018-06-29T10:08:37Z</time>
      </trkpt>
      <trkpt lat="45.94477" lon="4.73241">
        <ele>175</ele>
        <time>2018-06-29T10:08:38Z</time>
      </trkpt>
      <trkpt lat="45.94477" lon="4.7323">
        <ele>175</ele>
        <time>2018-06-29T10:08:39Z</time>
      </trkpt>
      <trkpt lat="45.94477" lon="4.73217">
        <ele>175</ele>
        <time>2018-06-29T10:08:40Z</time>
      </trkpt>
      <trkpt lat="45.94476" lon="4.73206">
        <ele>175</ele>
        <time>2018-06-29T10:08:41Z</time>
      </trkpt>
      <trkpt lat="45.94474" lon="4.73194">
        <ele>174</ele>
        <time>2018-06-29T10:08:42Z</time>
      </trkpt>
      <trkpt lat="45.94473" lon="4.73181">
        <ele>174</ele>
        <time>2018-06-29T10:08:43Z</time>
      </trkpt>
      <trkpt lat="45.94466" lon="4.73168">
        <ele>174</ele>
        <time>2018-06-29T10:08:44Z</time>
      </trkpt>
      <trkpt lat="45.94465" lon="4.73157">
        <ele>172</ele>
        <time>2018-06-29T10:08:45Z</time>
      </trkpt>
      <trkpt lat="45.94463" lon="4.73146">
        <ele>172</ele>
        <time>2018-06-29T10:08:46Z</time>
      </trkpt>
      <trkpt lat="45.94463" lon="4.73134">
        <ele>172</ele>
        <time>2018-06-29T10:08:47Z</time>
      </trkpt>
      <trkpt lat="45.94462" lon="4.73123">
        <ele>172</ele>
        <time>2018-06-29T10:08:48Z</time>
      </trkpt>
      <trkpt lat="45.9446" lon="4.73112">
        <ele>172</ele>
        <time>2018-06-29T10:08:49Z</time>
      </trkpt>
      <trkpt lat="45.94459" lon="4.73102">
        <ele>171</ele>
        <time>2018-06-29T10:08:50Z</time>
      </trkpt>
      <trkpt lat="45.94458" lon="4.73092">
        <ele>171</ele>
        <time>2018-06-29T10:08:51Z</time>
      </trkpt>
      <trkpt lat="45.94454" lon="4.73081">
        <ele>170</ele>
        <time>2018-06-29T10:08:52Z</time>
      </trkpt>
      <trkpt lat="45.94454" lon="4.73072">
        <ele>170</ele>
        <time>2018-06-29T10:08:53Z</time>
      </trkpt>
      <trkpt lat="45.94451" lon="4.73063">
        <ele>170</ele>
        <time>2018-06-29T10:08:54Z</time>
      </trkpt>
      <trkpt lat="45.94451" lon="4.73054">
        <ele>169</ele>
        <time>2018-06-29T10:08:55Z</time>
      </trkpt>
      <trkpt lat="45.94451" lon="4.73046">
        <ele>169</ele>
        <time>2018-06-29T10:08:56Z</time>
      </trkpt>
      <trkpt lat="45.94449" lon="4.73038">
        <ele>169</ele>
        <time>2018-06-29T10:08:57Z</time>
      </trkpt>
      <trkpt lat="45.94451" lon="4.73031">
        <ele>169</ele>
        <time>2018-06-29T10:08:58Z</time>
      </trkpt>
      <trkpt lat="45.9445" lon="4.73023">
        <ele>169</ele>
        <time>2018-06-29T10:08:59Z</time>
      </trkpt>
      <trkpt lat="45.94449" lon="4.73015">
        <ele>169</ele>
        <time>2018-06-29T10:09:00Z</time>
      </trkpt>
      <trkpt lat="45.94448" lon="4.73007">
        <ele>169</ele>
        <time>2018-06-29T10:09:01Z</time>
      </trkpt>
      <trkpt lat="45.94447" lon="4.73">
        <ele>167</ele>
        <time>2018-06-29T10:09:02Z</time>
      </trkpt>
      <trkpt lat="45.94448" lon="4.72993">
        <ele>167</ele>
        <time>2018-06-29T10:09:03Z</time>
      </trkpt>
      <trkpt lat="45.94448" lon="4.72986">
        <ele>167</ele>
        <time>2018-06-29T10:09:04Z</time>
      </trkpt>
      <trkpt lat="45.94447" lon="4.7298">
        <ele>167</ele>
        <time>2018-06-29T10:09:05Z</time>
      </trkpt>
      <trkpt lat="45.94446" lon="4.72973">
        <ele>167</ele>
        <time>2018-06-29T10:09:06Z</time>
      </trkpt>
      <trkpt lat="45.94445" lon="4.72967">
        <ele>167</ele>
        <time>2018-06-29T10:09:07Z</time>
      </trkpt>
      <trkpt lat="45.94444" lon="4.7296">
        <ele>167</ele>
        <time>2018-06-29T10:09:08Z</time>
      </trkpt>
      <trkpt lat="45.94443" lon="4.72947">
        <ele>167</ele>
        <time>2018-06-29T10:09:10Z</time>
      </trkpt>
      <trkpt lat="45.94441" lon="4.72941">
        <ele>167</ele>
        <time>2018-06-29T10:09:11Z</time>
      </trkpt>
      <trkpt lat="45.94441" lon="4.72929">
        <ele>167</ele>
        <time>2018-06-29T10:09:13Z</time>
      </trkpt>
      <trkpt lat="45.94442" lon="4.72924">
        <ele>167</ele>
        <time>2018-06-29T10:09:14Z</time>
      </trkpt>
      <trkpt lat="45.94441" lon="4.72913">
        <ele>166</ele>
        <time>2018-06-29T10:09:16Z</time>
      </trkpt>
      <trkpt lat="45.9444" lon="4.72907">
        <ele>166</ele>
        <time>2018-06-29T10:09:17Z</time>
      </trkpt>
      <trkpt lat="45.94439" lon="4.72894">
        <ele>166</ele>
        <time>2018-06-29T10:09:19Z</time>
      </trkpt>
      <trkpt lat="45.94439" lon="4.72888">
        <ele>166</ele>
        <time>2018-06-29T10:09:20Z</time>
      </trkpt>
      <trkpt lat="45.94438" lon="4.72881">
        <ele>166</ele>
        <time>2018-06-29T10:09:21Z</time>
      </trkpt>
      <trkpt lat="45.94437" lon="4.72875">
        <ele>166</ele>
        <time>2018-06-29T10:09:22Z</time>
      </trkpt>
      <trkpt lat="45.94436" lon="4.72868">
        <ele>166</ele>
        <time>2018-06-29T10:09:23Z</time>
      </trkpt>
      <trkpt lat="45.94435" lon="4.72861">
        <ele>166</ele>
        <time>2018-06-29T10:09:24Z</time>
      </trkpt>
      <trkpt lat="45.94433" lon="4.72854">
        <ele>166</ele>
        <time>2018-06-29T10:09:25Z</time>
      </trkpt>
      <trkpt lat="45.94433" lon="4.72847">
        <ele>166</ele>
        <time>2018-06-29T10:09:26Z</time>
      </trkpt>
      <trkpt lat="45.94432" lon="4.7284">
        <ele>166</ele>
        <time>2018-06-29T10:09:27Z</time>
      </trkpt>
      <trkpt lat="45.94432" lon="4.72831">
        <ele>167</ele>
        <time>2018-06-29T10:09:28Z</time>
      </trkpt>
      <trkpt lat="45.94431" lon="4.72823">
        <ele>167</ele>
        <time>2018-06-29T10:09:29Z</time>
      </trkpt>
      <trkpt lat="45.94431" lon="4.72815">
        <ele>167</ele>
        <time>2018-06-29T10:09:30Z</time>
      </trkpt>
      <trkpt lat="45.9443" lon="4.72806">
        <ele>167</ele>
        <time>2018-06-29T10:09:31Z</time>
      </trkpt>
      <trkpt lat="45.94429" lon="4.72798">
        <ele>167</ele>
        <time>2018-06-29T10:09:32Z</time>
      </trkpt>
      <trkpt lat="45.94429" lon="4.72788">
        <ele>168</ele>
        <time>2018-06-29T10:09:33Z</time>
      </trkpt>
      <trkpt lat="45.94429" lon="4.72779">
        <ele>168</ele>
        <time>2018-06-29T10:09:34Z</time>
      </trkpt>
      <trkpt lat="45.94423" lon="4.72768">
        <ele>169</ele>
        <time>2018-06-29T10:09:35Z</time>
      </trkpt>
      <trkpt lat="45.94421" lon="4.72759">
        <ele>170</ele>
        <time>2018-06-29T10:09:36Z</time>
      </trkpt>
      <trkpt lat="45.94421" lon="4.7275">
        <ele>170</ele>
        <time>2018-06-29T10:09:37Z</time>
      </trkpt>
      <trkpt lat="45.9442" lon="4.7274">
        <ele>171</ele>
        <time>2018-06-29T10:09:38Z</time>
      </trkpt>
      <trkpt lat="45.94418" lon="4.72731">
        <ele>171</ele>
        <time>2018-06-29T10:09:39Z</time>
      </trkpt>
      <trkpt lat="45.94416" lon="4.72721">
        <ele>172</ele>
        <time>2018-06-29T10:09:40Z</time>
      </trkpt>
      <trkpt lat="45.94414" lon="4.72712">
        <ele>172</ele>
        <time>2018-06-29T10:09:41Z</time>
      </trkpt>
      <trkpt lat="45.94413" lon="4.72702">
        <ele>172</ele>
        <time>2018-06-29T10:09:42Z</time>
      </trkpt>
      <trkpt lat="45.94414" lon="4.72692">
        <ele>173</ele>
        <time>2018-06-29T10:09:43Z</time>
      </trkpt>
      <trkpt lat="45.94414" lon="4.72683">
        <ele>173</ele>
        <time>2018-06-29T10:09:44Z</time>
      </trkpt>
      <trkpt lat="45.94413" lon="4.72673">
        <ele>173</ele>
        <time>2018-06-29T10:09:45Z</time>
      </trkpt>
      <trkpt lat="45.94411" lon="4.72663">
        <ele>174</ele>
        <time>2018-06-29T10:09:46Z</time>
      </trkpt>
      <trkpt lat="45.94408" lon="4.72653">
        <ele>174</ele>
        <time>2018-06-29T10:09:47Z</time>
      </trkpt>
      <trkpt lat="45.94407" lon="4.72643">
        <ele>174</ele>
        <time>2018-06-29T10:09:48Z</time>
      </trkpt>
      <trkpt lat="45.94408" lon="4.72634">
        <ele>174</ele>
        <time>2018-06-29T10:09:49Z</time>
      </trkpt>
      <trkpt lat="45.94407" lon="4.72625">
        <ele>173</ele>
        <time>2018-06-29T10:09:50Z</time>
      </trkpt>
      <trkpt lat="45.94405" lon="4.72615">
        <ele>173</ele>
        <time>2018-06-29T10:09:51Z</time>
      </trkpt>
      <trkpt lat="45.94405" lon="4.72607">
        <ele>173</ele>
        <time>2018-06-29T10:09:52Z</time>
      </trkpt>
      <trkpt lat="45.94402" lon="4.72598">
        <ele>173</ele>
        <time>2018-06-29T10:09:53Z</time>
      </trkpt>
      <trkpt lat="45.94399" lon="4.72589">
        <ele>173</ele>
        <time>2018-06-29T10:09:54Z</time>
      </trkpt>
      <trkpt lat="45.94397" lon="4.7258">
        <ele>173</ele>
        <time>2018-06-29T10:09:55Z</time>
      </trkpt>
      <trkpt lat="45.94392" lon="4.7257">
        <ele>173</ele>
        <time>2018-06-29T10:09:56Z</time>
      </trkpt>
      <trkpt lat="45.94393" lon="4.72561">
        <ele>173</ele>
        <time>2018-06-29T10:09:57Z</time>
      </trkpt>
      <trkpt lat="45.94391" lon="4.72553">
        <ele>173</ele>
        <time>2018-06-29T10:09:58Z</time>
      </trkpt>
      <trkpt lat="45.94391" lon="4.72545">
        <ele>173</ele>
        <time>2018-06-29T10:09:59Z</time>
      </trkpt>
      <trkpt lat="45.94391" lon="4.72536">
        <ele>174</ele>
        <time>2018-06-29T10:10:00Z</time>
      </trkpt>
      <trkpt lat="45.94391" lon="4.72528">
        <ele>174</ele>
        <time>2018-06-29T10:10:01Z</time>
      </trkpt>
      <trkpt lat="45.94389" lon="4.7252">
        <ele>174</ele>
        <time>2018-06-29T10:10:02Z</time>
      </trkpt>
      <trkpt lat="45.94387" lon="4.72511">
        <ele>174</ele>
        <time>2018-06-29T10:10:03Z</time>
      </trkpt>
      <trkpt lat="45.94385" lon="4.72503">
        <ele>174</ele>
        <time>2018-06-29T10:10:04Z</time>
      </trkpt>
      <trkpt lat="45.94383" lon="4.72495">
        <ele>173</ele>
        <time>2018-06-29T10:10:05Z</time>
      </trkpt>
      <trkpt lat="45.9438" lon="4.72488">
        <ele>173</ele>
        <time>2018-06-29T10:10:06Z</time>
      </trkpt>
      <trkpt lat="45.94377" lon="4.72481">
        <ele>173</ele>
        <time>2018-06-29T10:10:07Z</time>
      </trkpt>
      <trkpt lat="45.94373" lon="4.72474">
        <ele>173</ele>
        <time>2018-06-29T10:10:08Z</time>
      </trkpt>
      <trkpt lat="45.9437" lon="4.72468">
        <ele>173</ele>
        <time>2018-06-29T10:10:09Z</time>
      </trkpt>
      <trkpt lat="45.94365" lon="4.7246">
        <ele>173</ele>
        <time>2018-06-29T10:10:10Z</time>
      </trkpt>
      <trkpt lat="45.9436" lon="4.72454">
        <ele>173</ele>
        <time>2018-06-29T10:10:11Z</time>
      </trkpt>
      <trkpt lat="45.94357" lon="4.72447">
        <ele>173</ele>
        <time>2018-06-29T10:10:12Z</time>
      </trkpt>
      <trkpt lat="45.94354" lon="4.72441">
        <ele>173</ele>
        <time>2018-06-29T10:10:13Z</time>
      </trkpt>
      <trkpt lat="45.94349" lon="4.72434">
        <ele>173</ele>
        <time>2018-06-29T10:10:14Z</time>
      </trkpt>
      <trkpt lat="45.94347" lon="4.72426">
        <ele>173</ele>
        <time>2018-06-29T10:10:15Z</time>
      </trkpt>
      <trkpt lat="45.94344" lon="4.7242">
        <ele>173</ele>
        <time>2018-06-29T10:10:16Z</time>
      </trkpt>
      <trkpt lat="45.94342" lon="4.72413">
        <ele>173</ele>
        <time>2018-06-29T10:10:17Z</time>
      </trkpt>
      <trkpt lat="45.9434" lon="4.72405">
        <ele>173</ele>
        <time>2018-06-29T10:10:18Z</time>
      </trkpt>
      <trkpt lat="45.94333" lon="4.72397">
        <ele>172</ele>
        <time>2018-06-29T10:10:19Z</time>
      </trkpt>
      <trkpt lat="45.94332" lon="4.7239">
        <ele>172</ele>
        <time>2018-06-29T10:10:20Z</time>
      </trkpt>
      <trkpt lat="45.94329" lon="4.72381">
        <ele>172</ele>
        <time>2018-06-29T10:10:21Z</time>
      </trkpt>
      <trkpt lat="45.94321" lon="4.72373">
        <ele>172</ele>
        <time>2018-06-29T10:10:22Z</time>
      </trkpt>
      <trkpt lat="45.94322" lon="4.72367">
        <ele>172</ele>
        <time>2018-06-29T10:10:23Z</time>
      </trkpt>
      <trkpt lat="45.94317" lon="4.7236">
        <ele>172</ele>
        <time>2018-06-29T10:10:24Z</time>
      </trkpt>
      <trkpt lat="45.94314" lon="4.72352">
        <ele>172</ele>
        <time>2018-06-29T10:10:25Z</time>
      </trkpt>
      <trkpt lat="45.94308" lon="4.72345">
        <ele>172</ele>
        <time>2018-06-29T10:10:26Z</time>
      </trkpt>
      <trkpt lat="45.94305" lon="4.72337">
        <ele>172</ele>
        <time>2018-06-29T10:10:27Z</time>
      </trkpt>
      <trkpt lat="45.94304" lon="4.72329">
        <ele>171</ele>
        <time>2018-06-29T10:10:28Z</time>
      </trkpt>
      <trkpt lat="45.94301" lon="4.72322">
        <ele>171</ele>
        <time>2018-06-29T10:10:29Z</time>
      </trkpt>
      <trkpt lat="45.94299" lon="4.72315">
        <ele>171</ele>
        <time>2018-06-29T10:10:30Z</time>
      </trkpt>
      <trkpt lat="45.94295" lon="4.72307">
        <ele>171</ele>
        <time>2018-06-29T10:10:31Z</time>
      </trkpt>
      <trkpt lat="45.94292" lon="4.72299">
        <ele>171</ele>
        <time>2018-06-29T10:10:32Z</time>
      </trkpt>
      <trkpt lat="45.94289" lon="4.72292">
        <ele>171</ele>
        <time>2018-06-29T10:10:33Z</time>
      </trkpt>
      <trkpt lat="45.94286" lon="4.72286">
        <ele>171</ele>
        <time>2018-06-29T10:10:34Z</time>
      </trkpt>
      <trkpt lat="45.94284" lon="4.72278">
        <ele>171</ele>
        <time>2018-06-29T10:10:35Z</time>
      </trkpt>
      <trkpt lat="45.9428" lon="4.72274">
        <ele>171</ele>
        <time>2018-06-29T10:10:36Z</time>
      </trkpt>
      <trkpt lat="45.94273" lon="4.72271">
        <ele>171</ele>
        <time>2018-06-29T10:10:37Z</time>
      </trkpt>
      <trkpt lat="45.94266" lon="4.72272">
        <ele>171</ele>
        <time>2018-06-29T10:10:38Z</time>
      </trkpt>
      <trkpt lat="45.94262" lon="4.72273">
        <ele>171</ele>
        <time>2018-06-29T10:10:39Z</time>
      </trkpt>
      <trkpt lat="45.94256" lon="4.72279">
        <ele>171</ele>
        <time>2018-06-29T10:10:40Z</time>
      </trkpt>
      <trkpt lat="45.9425" lon="4.72282">
        <ele>171</ele>
        <time>2018-06-29T10:10:41Z</time>
      </trkpt>
      <trkpt lat="45.94244" lon="4.72283">
        <ele>171</ele>
        <time>2018-06-29T10:10:42Z</time>
      </trkpt>
      <trkpt lat="45.94238" lon="4.72286">
        <ele>171</ele>
        <time>2018-06-29T10:10:43Z</time>
      </trkpt>
      <trkpt lat="45.94233" lon="4.72287">
        <ele>171</ele>
        <time>2018-06-29T10:10:44Z</time>
      </trkpt>
      <trkpt lat="45.94227" lon="4.72289">
        <ele>171</ele>
        <time>2018-06-29T10:10:45Z</time>
      </trkpt>
      <trkpt lat="45.94222" lon="4.7229">
        <ele>171</ele>
        <time>2018-06-29T10:10:46Z</time>
      </trkpt>
      <trkpt lat="45.94216" lon="4.7229">
        <ele>171</ele>
        <time>2018-06-29T10:10:47Z</time>
      </trkpt>
      <trkpt lat="45.94211" lon="4.72292">
        <ele>171</ele>
        <time>2018-06-29T10:10:48Z</time>
      </trkpt>
      <trkpt lat="45.94203" lon="4.7229">
        <ele>171</ele>
        <time>2018-06-29T10:10:49Z</time>
      </trkpt>
      <trkpt lat="45.94197" lon="4.7229">
        <ele>171</ele>
        <time>2018-06-29T10:10:50Z</time>
      </trkpt>
      <trkpt lat="45.9419" lon="4.7229">
        <ele>171</ele>
        <time>2018-06-29T10:10:51Z</time>
      </trkpt>
      <trkpt lat="45.94183" lon="4.7229">
        <ele>171</ele>
        <time>2018-06-29T10:10:52Z</time>
      </trkpt>
      <trkpt lat="45.94177" lon="4.7229">
        <ele>171</ele>
        <time>2018-06-29T10:10:53Z</time>
      </trkpt>
      <trkpt lat="45.9417" lon="4.72289">
        <ele>171</ele>
        <time>2018-06-29T10:10:54Z</time>
      </trkpt>
      <trkpt lat="45.94166" lon="4.7229">
        <ele>171</ele>
        <time>2018-06-29T10:10:55Z</time>
      </trkpt>
      <trkpt lat="45.9416" lon="4.72289">
        <ele>171</ele>
        <time>2018-06-29T10:10:56Z</time>
      </trkpt>
      <trkpt lat="45.94154" lon="4.72288">
        <ele>171</ele>
        <time>2018-06-29T10:10:57Z</time>
      </trkpt>
      <trkpt lat="45.94149" lon="4.72286">
        <ele>171</ele>
        <time>2018-06-29T10:10:58Z</time>
      </trkpt>
      <trkpt lat="45.94144" lon="4.72283">
        <ele>171</ele>
        <time>2018-06-29T10:10:59Z</time>
      </trkpt>
      <trkpt lat="45.94138" lon="4.7228">
        <ele>171</ele>
        <time>2018-06-29T10:11:00Z</time>
      </trkpt>
      <trkpt lat="45.94134" lon="4.72277">
        <ele>171</ele>
        <time>2018-06-29T10:11:01Z</time>
      </trkpt>
      <trkpt lat="45.94128" lon="4.72275">
        <ele>171</ele>
        <time>2018-06-29T10:11:02Z</time>
      </trkpt>
      <trkpt lat="45.94123" lon="4.72272">
        <ele>171</ele>
        <time>2018-06-29T10:11:03Z</time>
      </trkpt>
      <trkpt lat="45.94119" lon="4.72271">
        <ele>171</ele>
        <time>2018-06-29T10:11:04Z</time>
      </trkpt>
      <trkpt lat="45.94113" lon="4.72269">
        <ele>171</ele>
        <time>2018-06-29T10:11:05Z</time>
      </trkpt>
      <trkpt lat="45.94108" lon="4.72267">
        <ele>171</ele>
        <time>2018-06-29T10:11:06Z</time>
      </trkpt>
      <trkpt lat="45.94102" lon="4.72267">
        <ele>171</ele>
        <time>2018-06-29T10:11:07Z</time>
      </trkpt>
      <trkpt lat="45.94095" lon="4.72267">
        <ele>171</ele>
        <time>2018-06-29T10:11:08Z</time>
      </trkpt>
      <trkpt lat="45.94089" lon="4.72268">
        <ele>171</ele>
        <time>2018-06-29T10:11:09Z</time>
      </trkpt>
      <trkpt lat="45.94082" lon="4.7227">
        <ele>171</ele>
        <time>2018-06-29T10:11:10Z</time>
      </trkpt>
      <trkpt lat="45.94076" lon="4.72274">
        <ele>171</ele>
        <time>2018-06-29T10:11:11Z</time>
      </trkpt>
      <trkpt lat="45.9407" lon="4.72278">
        <ele>171</ele>
        <time>2018-06-29T10:11:12Z</time>
      </trkpt>
      <trkpt lat="45.94065" lon="4.72284">
        <ele>171</ele>
        <time>2018-06-29T10:11:13Z</time>
      </trkpt>
      <trkpt lat="45.9406" lon="4.72291">
        <ele>171</ele>
        <time>2018-06-29T10:11:14Z</time>
      </trkpt>
      <trkpt lat="45.94055" lon="4.72297">
        <ele>171</ele>
        <time>2018-06-29T10:11:15Z</time>
      </trkpt>
      <trkpt lat="45.9405" lon="4.72303">
        <ele>171</ele>
        <time>2018-06-29T10:11:16Z</time>
      </trkpt>
      <trkpt lat="45.94046" lon="4.72308">
        <ele>171</ele>
        <time>2018-06-29T10:11:17Z</time>
      </trkpt>
      <trkpt lat="45.94041" lon="4.72314">
        <ele>171</ele>
        <time>2018-06-29T10:11:18Z</time>
      </trkpt>
      <trkpt lat="45.94037" lon="4.72321">
        <ele>171</ele>
        <time>2018-06-29T10:11:19Z</time>
      </trkpt>
      <trkpt lat="45.94032" lon="4.72327">
        <ele>171</ele>
        <time>2018-06-29T10:11:20Z</time>
      </trkpt>
      <trkpt lat="45.94029" lon="4.72332">
        <ele>171</ele>
        <time>2018-06-29T10:11:21Z</time>
      </trkpt>
      <trkpt lat="45.94024" lon="4.72338">
        <ele>171</ele>
        <time>2018-06-29T10:11:22Z</time>
      </trkpt>
      <trkpt lat="45.9402" lon="4.72345">
        <ele>171</ele>
        <time>2018-06-29T10:11:23Z</time>
      </trkpt>
      <trkpt lat="45.94015" lon="4.7235">
        <ele>171</ele>
        <time>2018-06-29T10:11:24Z</time>
      </trkpt>
      <trkpt lat="45.94011" lon="4.72356">
        <ele>171</ele>
        <time>2018-06-29T10:11:25Z</time>
      </trkpt>
      <trkpt lat="45.94005" lon="4.72364">
        <ele>171</ele>
        <time>2018-06-29T10:11:26Z</time>
      </trkpt>
      <trkpt lat="45.94001" lon="4.7237">
        <ele>171</ele>
        <time>2018-06-29T10:11:27Z</time>
      </trkpt>
      <trkpt lat="45.93997" lon="4.72375">
        <ele>171</ele>
        <time>2018-06-29T10:11:28Z</time>
      </trkpt>
      <trkpt lat="45.93992" lon="4.72381">
        <ele>171</ele>
        <time>2018-06-29T10:11:29Z</time>
      </trkpt>
      <trkpt lat="45.93985" lon="4.72387">
        <ele>171</ele>
        <time>2018-06-29T10:11:30Z</time>
      </trkpt>
      <trkpt lat="45.9398" lon="4.72392">
        <ele>171</ele>
        <time>2018-06-29T10:11:31Z</time>
      </trkpt>
      <trkpt lat="45.93975" lon="4.724">
        <ele>171</ele>
        <time>2018-06-29T10:11:32Z</time>
      </trkpt>
      <trkpt lat="45.9397" lon="4.72406">
        <ele>171</ele>
        <time>2018-06-29T10:11:33Z</time>
      </trkpt>
      <trkpt lat="45.93965" lon="4.72412">
        <ele>171</ele>
        <time>2018-06-29T10:11:34Z</time>
      </trkpt>
      <trkpt lat="45.9396" lon="4.72418">
        <ele>171</ele>
        <time>2018-06-29T10:11:35Z</time>
      </trkpt>
      <trkpt lat="45.93955" lon="4.72425">
        <ele>171</ele>
        <time>2018-06-29T10:11:36Z</time>
      </trkpt>
      <trkpt lat="45.9395" lon="4.72429">
        <ele>171</ele>
        <time>2018-06-29T10:11:37Z</time>
      </trkpt>
      <trkpt lat="45.93944" lon="4.72434">
        <ele>171</ele>
        <time>2018-06-29T10:11:38Z</time>
      </trkpt>
      <trkpt lat="45.93938" lon="4.72439">
        <ele>171</ele>
        <time>2018-06-29T10:11:39Z</time>
      </trkpt>
      <trkpt lat="45.93935" lon="4.72448">
        <ele>171</ele>
        <time>2018-06-29T10:11:40Z</time>
      </trkpt>
      <trkpt lat="45.9393" lon="4.72454">
        <ele>171</ele>
        <time>2018-06-29T10:11:41Z</time>
      </trkpt>
      <trkpt lat="45.93924" lon="4.72459">
        <ele>171</ele>
        <time>2018-06-29T10:11:42Z</time>
      </trkpt>
      <trkpt lat="45.93919" lon="4.72465">
        <ele>171</ele>
        <time>2018-06-29T10:11:43Z</time>
      </trkpt>
      <trkpt lat="45.93915" lon="4.7247">
        <ele>172</ele>
        <time>2018-06-29T10:11:44Z</time>
      </trkpt>
      <trkpt lat="45.93911" lon="4.72475">
        <ele>172</ele>
        <time>2018-06-29T10:11:45Z</time>
      </trkpt>
      <trkpt lat="45.93907" lon="4.72481">
        <ele>172</ele>
        <time>2018-06-29T10:11:46Z</time>
      </trkpt>
      <trkpt lat="45.93903" lon="4.72485">
        <ele>172</ele>
        <time>2018-06-29T10:11:47Z</time>
      </trkpt>
      <trkpt lat="45.93899" lon="4.72488">
        <ele>172</ele>
        <time>2018-06-29T10:11:48Z</time>
      </trkpt>
      <trkpt lat="45.93894" lon="4.72491">
        <ele>172</ele>
        <time>2018-06-29T10:11:49Z</time>
      </trkpt>
      <trkpt lat="45.93891" lon="4.72495">
        <ele>172</ele>
        <time>2018-06-29T10:11:50Z</time>
      </trkpt>
      <trkpt lat="45.93887" lon="4.725">
        <ele>172</ele>
        <time>2018-06-29T10:11:51Z</time>
      </trkpt>
      <trkpt lat="45.93883" lon="4.72505">
        <ele>173</ele>
        <time>2018-06-29T10:11:52Z</time>
      </trkpt>
      <trkpt lat="45.93879" lon="4.72509">
        <ele>173</ele>
        <time>2018-06-29T10:11:53Z</time>
      </trkpt>
      <trkpt lat="45.93875" lon="4.72514">
        <ele>173</ele>
        <time>2018-06-29T10:11:54Z</time>
      </trkpt>
      <trkpt lat="45.9387" lon="4.72515">
        <ele>173</ele>
        <time>2018-06-29T10:11:55Z</time>
      </trkpt>
      <trkpt lat="45.93864" lon="4.72515">
        <ele>173</ele>
        <time>2018-06-29T10:11:56Z</time>
      </trkpt>
      <trkpt lat="45.93861" lon="4.72513">
        <ele>173</ele>
        <time>2018-06-29T10:11:57Z</time>
      </trkpt>
      <trkpt lat="45.93858" lon="4.7251">
        <ele>173</ele>
        <time>2018-06-29T10:11:58Z</time>
      </trkpt>
      <trkpt lat="45.93853" lon="4.72507">
        <ele>173</ele>
        <time>2018-06-29T10:11:59Z</time>
      </trkpt>
      <trkpt lat="45.93808" lon="4.72464">
        <ele>172</ele>
        <time>2018-06-29T10:12:08Z</time>
      </trkpt>
      <trkpt lat="45.93802" lon="4.72457">
        <ele>172</ele>
        <time>2018-06-29T10:12:10Z</time>
      </trkpt>
      <trkpt lat="45.93799" lon="4.72452">
        <ele>172</ele>
        <time>2018-06-29T10:12:11Z</time>
      </trkpt>
      <trkpt lat="45.93794" lon="4.72445">
        <ele>172</ele>
        <time>2018-06-29T10:12:14Z</time>
      </trkpt>
      <trkpt lat="45.9379" lon="4.72439">
        <ele>172</ele>
        <time>2018-06-29T10:12:15Z</time>
      </trkpt>
      <trkpt lat="45.93786" lon="4.72436">
        <ele>172</ele>
        <time>2018-06-29T10:12:16Z</time>
      </trkpt>
      <trkpt lat="45.93779" lon="4.72431">
        <ele>172</ele>
        <time>2018-06-29T10:12:17Z</time>
      </trkpt>
      <trkpt lat="45.93776" lon="4.72426">
        <ele>171</ele>
        <time>2018-06-29T10:12:18Z</time>
      </trkpt>
      <trkpt lat="45.93769" lon="4.72422">
        <ele>171</ele>
        <time>2018-06-29T10:12:19Z</time>
      </trkpt>
      <trkpt lat="45.93766" lon="4.72417">
        <ele>171</ele>
        <time>2018-06-29T10:12:20Z</time>
      </trkpt>
      <trkpt lat="45.93761" lon="4.72413">
        <ele>171</ele>
        <time>2018-06-29T10:12:21Z</time>
      </trkpt>
      <trkpt lat="45.93757" lon="4.72408">
        <ele>171</ele>
        <time>2018-06-29T10:12:22Z</time>
      </trkpt>
      <trkpt lat="45.93753" lon="4.72404">
        <ele>171</ele>
        <time>2018-06-29T10:12:23Z</time>
      </trkpt>
      <trkpt lat="45.93746" lon="4.72396">
        <ele>171</ele>
        <time>2018-06-29T10:12:25Z</time>
      </trkpt>
      <trkpt lat="45.93741" lon="4.72393">
        <ele>171</ele>
        <time>2018-06-29T10:12:26Z</time>
      </trkpt>
      <trkpt lat="45.93735" lon="4.72389">
        <ele>171</ele>
        <time>2018-06-29T10:12:27Z</time>
      </trkpt>
      <trkpt lat="45.93729" lon="4.72385">
        <ele>171</ele>
        <time>2018-06-29T10:12:28Z</time>
      </trkpt>
      <trkpt lat="45.93724" lon="4.72381">
        <ele>171</ele>
        <time>2018-06-29T10:12:29Z</time>
      </trkpt>
      <trkpt lat="45.93719" lon="4.72376">
        <ele>171</ele>
        <time>2018-06-29T10:12:30Z</time>
      </trkpt>
      <trkpt lat="45.93715" lon="4.72372">
        <ele>172</ele>
        <time>2018-06-29T10:12:31Z</time>
      </trkpt>
      <trkpt lat="45.93709" lon="4.72368">
        <ele>172</ele>
        <time>2018-06-29T10:12:32Z</time>
      </trkpt>
      <trkpt lat="45.93704" lon="4.72363">
        <ele>171</ele>
        <time>2018-06-29T10:12:33Z</time>
      </trkpt>
      <trkpt lat="45.937" lon="4.72358">
        <ele>171</ele>
        <time>2018-06-29T10:12:34Z</time>
      </trkpt>
      <trkpt lat="45.93685" lon="4.72343">
        <ele>171</ele>
        <time>2018-06-29T10:12:37Z</time>
      </trkpt>
      <trkpt lat="45.9368" lon="4.72341">
        <ele>171</ele>
        <time>2018-06-29T10:12:38Z</time>
      </trkpt>
      <trkpt lat="45.93674" lon="4.72337">
        <ele>171</ele>
        <time>2018-06-29T10:12:39Z</time>
      </trkpt>
      <trkpt lat="45.93669" lon="4.72327">
        <ele>171</ele>
        <time>2018-06-29T10:12:41Z</time>
      </trkpt>
      <trkpt lat="45.93664" lon="4.72322">
        <ele>171</ele>
        <time>2018-06-29T10:12:42Z</time>
      </trkpt>
      <trkpt lat="45.93659" lon="4.72317">
        <ele>172</ele>
        <time>2018-06-29T10:12:43Z</time>
      </trkpt>
      <trkpt lat="45.93655" lon="4.72312">
        <ele>172</ele>
        <time>2018-06-29T10:12:44Z</time>
      </trkpt>
      <trkpt lat="45.93651" lon="4.72308">
        <ele>172</ele>
        <time>2018-06-29T10:12:45Z</time>
      </trkpt>
      <trkpt lat="45.93647" lon="4.72304">
        <ele>172</ele>
        <time>2018-06-29T10:12:46Z</time>
      </trkpt>
      <trkpt lat="45.93642" lon="4.723">
        <ele>172</ele>
        <time>2018-06-29T10:12:47Z</time>
      </trkpt>
      <trkpt lat="45.93639" lon="4.72295">
        <ele>172</ele>
        <time>2018-06-29T10:12:48Z</time>
      </trkpt>
      <trkpt lat="45.93632" lon="4.72288">
        <ele>172</ele>
        <time>2018-06-29T10:12:50Z</time>
      </trkpt>
      <trkpt lat="45.93628" lon="4.72284">
        <ele>172</ele>
        <time>2018-06-29T10:12:51Z</time>
      </trkpt>
      <trkpt lat="45.93622" lon="4.72277">
        <ele>172</ele>
        <time>2018-06-29T10:12:53Z</time>
      </trkpt>
      <trkpt lat="45.93615" lon="4.72272">
        <ele>172</ele>
        <time>2018-06-29T10:12:54Z</time>
      </trkpt>
      <trkpt lat="45.93609" lon="4.72266">
        <ele>172</ele>
        <time>2018-06-29T10:12:56Z</time>
      </trkpt>
      <trkpt lat="45.93606" lon="4.72262">
        <ele>173</ele>
        <time>2018-06-29T10:12:57Z</time>
      </trkpt>
      <trkpt lat="45.93601" lon="4.72258">
        <ele>173</ele>
        <time>2018-06-29T10:12:58Z</time>
      </trkpt>
      <trkpt lat="45.93598" lon="4.72255">
        <ele>173</ele>
        <time>2018-06-29T10:12:59Z</time>
      </trkpt>
      <trkpt lat="45.93592" lon="4.72248">
        <ele>173</ele>
        <time>2018-06-29T10:13:01Z</time>
      </trkpt>
      <trkpt lat="45.93586" lon="4.72246">
        <ele>173</ele>
        <time>2018-06-29T10:13:02Z</time>
      </trkpt>
      <trkpt lat="45.93581" lon="4.72239">
        <ele>173</ele>
        <time>2018-06-29T10:13:04Z</time>
      </trkpt>
      <trkpt lat="45.93577" lon="4.72235">
        <ele>173</ele>
        <time>2018-06-29T10:13:05Z</time>
      </trkpt>
      <trkpt lat="45.9357" lon="4.72227">
        <ele>173</ele>
        <time>2018-06-29T10:13:08Z</time>
      </trkpt>
      <trkpt lat="45.93568" lon="4.72226">
        <ele>173</ele>
        <time>2018-06-29T10:13:09Z</time>
      </trkpt>
      <trkpt lat="45.93559" lon="4.72222">
        <ele>173</ele>
        <time>2018-06-29T10:13:14Z</time>
      </trkpt>
      <trkpt lat="45.93559" lon="4.72221">
        <ele>173</ele>
        <time>2018-06-29T10:13:15Z</time>
      </trkpt>
      <trkpt lat="45.93552" lon="4.72221">
        <ele>173</ele>
        <time>2018-06-29T10:13:35Z</time>
      </trkpt>
      <trkpt lat="45.9355" lon="4.72225">
        <ele>172</ele>
        <time>2018-06-29T10:13:36Z</time>
      </trkpt>
      <trkpt lat="45.93546" lon="4.72231">
        <ele>172</ele>
        <time>2018-06-29T10:13:38Z</time>
      </trkpt>
      <trkpt lat="45.93544" lon="4.72234">
        <ele>172</ele>
        <time>2018-06-29T10:13:39Z</time>
      </trkpt>
      <trkpt lat="45.93539" lon="4.72242">
        <ele>172</ele>
        <time>2018-06-29T10:13:41Z</time>
      </trkpt>
      <trkpt lat="45.93537" lon="4.72245">
        <ele>172</ele>
        <time>2018-06-29T10:13:42Z</time>
      </trkpt>
      <trkpt lat="45.93535" lon="4.72249">
        <ele>172</ele>
        <time>2018-06-29T10:13:43Z</time>
      </trkpt>
      <trkpt lat="45.93528" lon="4.72261">
        <ele>172</ele>
        <time>2018-06-29T10:13:44Z</time>
      </trkpt>
      <trkpt lat="45.93523" lon="4.7227">
        <ele>172</ele>
        <time>2018-06-29T10:13:46Z</time>
      </trkpt>
      <trkpt lat="45.9352" lon="4.72275">
        <ele>172</ele>
        <time>2018-06-29T10:13:47Z</time>
      </trkpt>
      <trkpt lat="45.93514" lon="4.72284">
        <ele>172</ele>
        <time>2018-06-29T10:13:49Z</time>
      </trkpt>
      <trkpt lat="45.93511" lon="4.72289">
        <ele>172</ele>
        <time>2018-06-29T10:13:50Z</time>
      </trkpt>
      <trkpt lat="45.93508" lon="4.72295">
        <ele>172</ele>
        <time>2018-06-29T10:13:51Z</time>
      </trkpt>
      <trkpt lat="45.93505" lon="4.72301">
        <ele>172</ele>
        <time>2018-06-29T10:13:52Z</time>
      </trkpt>
      <trkpt lat="45.93502" lon="4.72306">
        <ele>173</ele>
        <time>2018-06-29T10:13:53Z</time>
      </trkpt>
      <trkpt lat="45.93498" lon="4.72312">
        <ele>173</ele>
        <time>2018-06-29T10:13:54Z</time>
      </trkpt>
      <trkpt lat="45.93494" lon="4.72318">
        <ele>173</ele>
        <time>2018-06-29T10:13:55Z</time>
      </trkpt>
      <trkpt lat="45.9349" lon="4.72323">
        <ele>173</ele>
        <time>2018-06-29T10:13:56Z</time>
      </trkpt>
      <trkpt lat="45.93487" lon="4.7233">
        <ele>173</ele>
        <time>2018-06-29T10:13:57Z</time>
      </trkpt>
      <trkpt lat="45.93483" lon="4.72336">
        <ele>173</ele>
        <time>2018-06-29T10:13:58Z</time>
      </trkpt>
      <trkpt lat="45.93477" lon="4.72343">
        <ele>173</ele>
        <time>2018-06-29T10:13:59Z</time>
      </trkpt>
      <trkpt lat="45.93472" lon="4.72349">
        <ele>173</ele>
        <time>2018-06-29T10:14:00Z</time>
      </trkpt>
      <trkpt lat="45.93468" lon="4.72355">
        <ele>173</ele>
        <time>2018-06-29T10:14:01Z</time>
      </trkpt>
      <trkpt lat="45.93463" lon="4.72362">
        <ele>173</ele>
        <time>2018-06-29T10:14:02Z</time>
      </trkpt>
      <trkpt lat="45.93458" lon="4.72368">
        <ele>173</ele>
        <time>2018-06-29T10:14:03Z</time>
      </trkpt>
      <trkpt lat="45.93453" lon="4.72373">
        <ele>173</ele>
        <time>2018-06-29T10:14:04Z</time>
      </trkpt>
      <trkpt lat="45.93449" lon="4.72377">
        <ele>173</ele>
        <time>2018-06-29T10:14:05Z</time>
      </trkpt>
      <trkpt lat="45.93444" lon="4.72382">
        <ele>173</ele>
        <time>2018-06-29T10:14:06Z</time>
      </trkpt>
      <trkpt lat="45.93441" lon="4.72386">
        <ele>173</ele>
        <time>2018-06-29T10:14:07Z</time>
      </trkpt>
      <trkpt lat="45.93435" lon="4.72389">
        <ele>173</ele>
        <time>2018-06-29T10:14:08Z</time>
      </trkpt>
      <trkpt lat="45.93428" lon="4.72397">
        <ele>174</ele>
        <time>2018-06-29T10:14:10Z</time>
      </trkpt>
      <trkpt lat="45.93422" lon="4.72399">
        <ele>174</ele>
        <time>2018-06-29T10:14:11Z</time>
      </trkpt>
      <trkpt lat="45.93416" lon="4.72401">
        <ele>174</ele>
        <time>2018-06-29T10:14:12Z</time>
      </trkpt>
      <trkpt lat="45.93412" lon="4.72402">
        <ele>174</ele>
        <time>2018-06-29T10:14:13Z</time>
      </trkpt>
      <trkpt lat="45.93406" lon="4.72404">
        <ele>174</ele>
        <time>2018-06-29T10:14:14Z</time>
      </trkpt>
      <trkpt lat="45.93401" lon="4.72403">
        <ele>174</ele>
        <time>2018-06-29T10:14:15Z</time>
      </trkpt>
      <trkpt lat="45.93393" lon="4.72403">
        <ele>174</ele>
        <time>2018-06-29T10:14:17Z</time>
      </trkpt>
      <trkpt lat="45.93388" lon="4.72405">
        <ele>174</ele>
        <time>2018-06-29T10:14:18Z</time>
      </trkpt>
      <trkpt lat="45.93382" lon="4.72414">
        <ele>174</ele>
        <time>2018-06-29T10:14:20Z</time>
      </trkpt>
      <trkpt lat="45.93379" lon="4.72419">
        <ele>173</ele>
        <time>2018-06-29T10:14:21Z</time>
      </trkpt>
      <trkpt lat="45.93382" lon="4.72427">
        <ele>173</ele>
        <time>2018-06-29T10:14:22Z</time>
      </trkpt>
      <trkpt lat="45.93383" lon="4.72434">
        <ele>173</ele>
        <time>2018-06-29T10:14:23Z</time>
      </trkpt>
      <trkpt lat="45.93385" lon="4.72442">
        <ele>173</ele>
        <time>2018-06-29T10:14:24Z</time>
      </trkpt>
      <trkpt lat="45.93386" lon="4.72451">
        <ele>173</ele>
        <time>2018-06-29T10:14:25Z</time>
      </trkpt>
      <trkpt lat="45.93386" lon="4.72458">
        <ele>173</ele>
        <time>2018-06-29T10:14:26Z</time>
      </trkpt>
      <trkpt lat="45.93384" lon="4.72466">
        <ele>173</ele>
        <time>2018-06-29T10:14:27Z</time>
      </trkpt>
      <trkpt lat="45.93382" lon="4.72473">
        <ele>173</ele>
        <time>2018-06-29T10:14:28Z</time>
      </trkpt>
      <trkpt lat="45.93378" lon="4.72478">
        <ele>173</ele>
        <time>2018-06-29T10:14:29Z</time>
      </trkpt>
      <trkpt lat="45.93374" lon="4.72483">
        <ele>173</ele>
        <time>2018-06-29T10:14:30Z</time>
      </trkpt>
      <trkpt lat="45.9337" lon="4.72489">
        <ele>173</ele>
        <time>2018-06-29T10:14:31Z</time>
      </trkpt>
      <trkpt lat="45.93365" lon="4.72493">
        <ele>173</ele>
        <time>2018-06-29T10:14:32Z</time>
      </trkpt>
      <trkpt lat="45.9336" lon="4.72497">
        <ele>173</ele>
        <time>2018-06-29T10:14:33Z</time>
      </trkpt>
      <trkpt lat="45.93355" lon="4.72506">
        <ele>172</ele>
        <time>2018-06-29T10:14:35Z</time>
      </trkpt>
      <trkpt lat="45.9335" lon="4.7251">
        <ele>172</ele>
        <time>2018-06-29T10:14:36Z</time>
      </trkpt>
      <trkpt lat="45.93346" lon="4.72514">
        <ele>172</ele>
        <time>2018-06-29T10:14:37Z</time>
      </trkpt>
      <trkpt lat="45.93342" lon="4.72519">
        <ele>172</ele>
        <time>2018-06-29T10:14:38Z</time>
      </trkpt>
      <trkpt lat="45.93338" lon="4.72524">
        <ele>172</ele>
        <time>2018-06-29T10:14:39Z</time>
      </trkpt>
      <trkpt lat="45.93334" lon="4.72529">
        <ele>172</ele>
        <time>2018-06-29T10:14:40Z</time>
      </trkpt>
      <trkpt lat="45.93329" lon="4.72537">
        <ele>172</ele>
        <time>2018-06-29T10:14:41Z</time>
      </trkpt>
      <trkpt lat="45.93326" lon="4.72542">
        <ele>172</ele>
        <time>2018-06-29T10:14:42Z</time>
      </trkpt>
      <trkpt lat="45.93321" lon="4.72547">
        <ele>172</ele>
        <time>2018-06-29T10:14:43Z</time>
      </trkpt>
      <trkpt lat="45.93316" lon="4.72553">
        <ele>172</ele>
        <time>2018-06-29T10:14:44Z</time>
      </trkpt>
      <trkpt lat="45.93312" lon="4.72558">
        <ele>172</ele>
        <time>2018-06-29T10:14:45Z</time>
      </trkpt>
      <trkpt lat="45.93307" lon="4.72563">
        <ele>171</ele>
        <time>2018-06-29T10:14:46Z</time>
      </trkpt>
      <trkpt lat="45.93304" lon="4.72566">
        <ele>171</ele>
        <time>2018-06-29T10:14:47Z</time>
      </trkpt>
      <trkpt lat="45.93299" lon="4.72572">
        <ele>171</ele>
        <time>2018-06-29T10:14:48Z</time>
      </trkpt>
      <trkpt lat="45.93295" lon="4.72577">
        <ele>171</ele>
        <time>2018-06-29T10:14:49Z</time>
      </trkpt>
      <trkpt lat="45.9329" lon="4.72583">
        <ele>171</ele>
        <time>2018-06-29T10:14:50Z</time>
      </trkpt>
      <trkpt lat="45.93284" lon="4.7259">
        <ele>170</ele>
        <time>2018-06-29T10:14:51Z</time>
      </trkpt>
      <trkpt lat="45.93278" lon="4.72596">
        <ele>170</ele>
        <time>2018-06-29T10:14:52Z</time>
      </trkpt>
      <trkpt lat="45.93273" lon="4.72602">
        <ele>170</ele>
        <time>2018-06-29T10:14:53Z</time>
      </trkpt>
      <trkpt lat="45.93268" lon="4.72605">
        <ele>170</ele>
        <time>2018-06-29T10:14:54Z</time>
      </trkpt>
      <trkpt lat="45.93262" lon="4.72611">
        <ele>170</ele>
        <time>2018-06-29T10:14:55Z</time>
      </trkpt>
      <trkpt lat="45.93257" lon="4.72616">
        <ele>170</ele>
        <time>2018-06-29T10:14:56Z</time>
      </trkpt>
      <trkpt lat="45.93252" lon="4.72621">
        <ele>170</ele>
        <time>2018-06-29T10:14:57Z</time>
      </trkpt>
      <trkpt lat="45.93248" lon="4.72625">
        <ele>170</ele>
        <time>2018-06-29T10:14:58Z</time>
      </trkpt>
      <trkpt lat="45.93243" lon="4.7263">
        <ele>170</ele>
        <time>2018-06-29T10:14:59Z</time>
      </trkpt>
      <trkpt lat="45.93238" lon="4.72635">
        <ele>170</ele>
        <time>2018-06-29T10:15:00Z</time>
      </trkpt>
      <trkpt lat="45.93232" lon="4.72641">
        <ele>170</ele>
        <time>2018-06-29T10:15:01Z</time>
      </trkpt>
      <trkpt lat="45.93227" lon="4.72647">
        <ele>170</ele>
        <time>2018-06-29T10:15:02Z</time>
      </trkpt>
      <trkpt lat="45.93223" lon="4.72652">
        <ele>170</ele>
        <time>2018-06-29T10:15:03Z</time>
      </trkpt>
      <trkpt lat="45.93217" lon="4.72656">
        <ele>170</ele>
        <time>2018-06-29T10:15:04Z</time>
      </trkpt>
      <trkpt lat="45.93212" lon="4.72662">
        <ele>170</ele>
        <time>2018-06-29T10:15:05Z</time>
      </trkpt>
      <trkpt lat="45.93208" lon="4.72667">
        <ele>169</ele>
        <time>2018-06-29T10:15:06Z</time>
      </trkpt>
      <trkpt lat="45.93203" lon="4.72676">
        <ele>169</ele>
        <time>2018-06-29T10:15:08Z</time>
      </trkpt>
      <trkpt lat="45.93199" lon="4.72681">
        <ele>169</ele>
        <time>2018-06-29T10:15:09Z</time>
      </trkpt>
      <trkpt lat="45.93192" lon="4.72689">
        <ele>169</ele>
        <time>2018-06-29T10:15:10Z</time>
      </trkpt>
      <trkpt lat="45.93189" lon="4.72693">
        <ele>169</ele>
        <time>2018-06-29T10:15:11Z</time>
      </trkpt>
      <trkpt lat="45.93185" lon="4.72698">
        <ele>169</ele>
        <time>2018-06-29T10:15:12Z</time>
      </trkpt>
      <trkpt lat="45.93181" lon="4.72704">
        <ele>169</ele>
        <time>2018-06-29T10:15:13Z</time>
      </trkpt>
      <trkpt lat="45.93177" lon="4.72709">
        <ele>169</ele>
        <time>2018-06-29T10:15:14Z</time>
      </trkpt>
      <trkpt lat="45.93173" lon="4.72714">
        <ele>170</ele>
        <time>2018-06-29T10:15:15Z</time>
      </trkpt>
      <trkpt lat="45.93169" lon="4.72719">
        <ele>170</ele>
        <time>2018-06-29T10:15:16Z</time>
      </trkpt>
      <trkpt lat="45.93165" lon="4.72726">
        <ele>170</ele>
        <time>2018-06-29T10:15:17Z</time>
      </trkpt>
      <trkpt lat="45.93162" lon="4.72733">
        <ele>170</ele>
        <time>2018-06-29T10:15:18Z</time>
      </trkpt>
      <trkpt lat="45.93159" lon="4.72739">
        <ele>170</ele>
        <time>2018-06-29T10:15:19Z</time>
      </trkpt>
      <trkpt lat="45.93155" lon="4.72743">
        <ele>170</ele>
        <time>2018-06-29T10:15:20Z</time>
      </trkpt>
      <trkpt lat="45.93151" lon="4.7275">
        <ele>170</ele>
        <time>2018-06-29T10:15:21Z</time>
      </trkpt>
      <trkpt lat="45.93145" lon="4.72755">
        <ele>171</ele>
        <time>2018-06-29T10:15:22Z</time>
      </trkpt>
      <trkpt lat="45.9314" lon="4.72759">
        <ele>171</ele>
        <time>2018-06-29T10:15:23Z</time>
      </trkpt>
      <trkpt lat="45.93135" lon="4.72765">
        <ele>171</ele>
        <time>2018-06-29T10:15:24Z</time>
      </trkpt>
      <trkpt lat="45.9313" lon="4.72771">
        <ele>171</ele>
        <time>2018-06-29T10:15:25Z</time>
      </trkpt>
      <trkpt lat="45.93124" lon="4.72777">
        <ele>171</ele>
        <time>2018-06-29T10:15:26Z</time>
      </trkpt>
      <trkpt lat="45.93121" lon="4.72784">
        <ele>171</ele>
        <time>2018-06-29T10:15:27Z</time>
      </trkpt>
      <trkpt lat="45.93117" lon="4.7279">
        <ele>171</ele>
        <time>2018-06-29T10:15:28Z</time>
      </trkpt>
      <trkpt lat="45.93111" lon="4.72796">
        <ele>171</ele>
        <time>2018-06-29T10:15:29Z</time>
      </trkpt>
      <trkpt lat="45.93107" lon="4.72802">
        <ele>171</ele>
        <time>2018-06-29T10:15:30Z</time>
      </trkpt>
      <trkpt lat="45.93101" lon="4.72807">
        <ele>171</ele>
        <time>2018-06-29T10:15:31Z</time>
      </trkpt>
      <trkpt lat="45.93096" lon="4.72812">
        <ele>172</ele>
        <time>2018-06-29T10:15:32Z</time>
      </trkpt>
      <trkpt lat="45.93092" lon="4.72817">
        <ele>172</ele>
        <time>2018-06-29T10:15:33Z</time>
      </trkpt>
      <trkpt lat="45.93086" lon="4.72822">
        <ele>172</ele>
        <time>2018-06-29T10:15:34Z</time>
      </trkpt>
      <trkpt lat="45.93082" lon="4.72827">
        <ele>173</ele>
        <time>2018-06-29T10:15:35Z</time>
      </trkpt>
      <trkpt lat="45.93078" lon="4.72832">
        <ele>173</ele>
        <time>2018-06-29T10:15:36Z</time>
      </trkpt>
      <trkpt lat="45.93074" lon="4.72836">
        <ele>173</ele>
        <time>2018-06-29T10:15:37Z</time>
      </trkpt>
      <trkpt lat="45.93074" lon="4.72843">
        <ele>173</ele>
        <time>2018-06-29T10:15:38Z</time>
      </trkpt>
      <trkpt lat="45.93073" lon="4.72853">
        <ele>172</ele>
        <time>2018-06-29T10:15:39Z</time>
      </trkpt>
      <trkpt lat="45.93074" lon="4.72867">
        <ele>172</ele>
        <time>2018-06-29T10:15:40Z</time>
      </trkpt>
      <trkpt lat="45.93071" lon="4.72875">
        <ele>172</ele>
        <time>2018-06-29T10:15:41Z</time>
      </trkpt>
      <trkpt lat="45.93049" lon="4.72867">
        <ele>172</ele>
        <time>2018-06-29T10:15:42Z</time>
      </trkpt>
      <trkpt lat="45.93044" lon="4.72867">
        <ele>172</ele>
        <time>2018-06-29T10:15:43Z</time>
      </trkpt>
      <trkpt lat="45.93038" lon="4.72873">
        <ele>172</ele>
        <time>2018-06-29T10:15:44Z</time>
      </trkpt>
      <trkpt lat="45.93033" lon="4.72878">
        <ele>172</ele>
        <time>2018-06-29T10:15:45Z</time>
      </trkpt>
      <trkpt lat="45.93029" lon="4.72882">
        <ele>172</ele>
        <time>2018-06-29T10:15:46Z</time>
      </trkpt>
      <trkpt lat="45.93024" lon="4.72887">
        <ele>172</ele>
        <time>2018-06-29T10:15:47Z</time>
      </trkpt>
      <trkpt lat="45.9302" lon="4.72892">
        <ele>172</ele>
        <time>2018-06-29T10:15:48Z</time>
      </trkpt>
      <trkpt lat="45.93017" lon="4.729">
        <ele>172</ele>
        <time>2018-06-29T10:15:49Z</time>
      </trkpt>
      <trkpt lat="45.93013" lon="4.72906">
        <ele>171</ele>
        <time>2018-06-29T10:15:50Z</time>
      </trkpt>
      <trkpt lat="45.9301" lon="4.72911">
        <ele>171</ele>
        <time>2018-06-29T10:15:51Z</time>
      </trkpt>
      <trkpt lat="45.93006" lon="4.72916">
        <ele>171</ele>
        <time>2018-06-29T10:15:52Z</time>
      </trkpt>
      <trkpt lat="45.93" lon="4.72921">
        <ele>171</ele>
        <time>2018-06-29T10:15:53Z</time>
      </trkpt>
      <trkpt lat="45.92996" lon="4.72927">
        <ele>171</ele>
        <time>2018-06-29T10:15:54Z</time>
      </trkpt>
      <trkpt lat="45.92991" lon="4.72932">
        <ele>171</ele>
        <time>2018-06-29T10:15:55Z</time>
      </trkpt>
      <trkpt lat="45.92988" lon="4.72937">
        <ele>171</ele>
        <time>2018-06-29T10:15:56Z</time>
      </trkpt>
      <trkpt lat="45.92981" lon="4.72945">
        <ele>171</ele>
        <time>2018-06-29T10:15:58Z</time>
      </trkpt>
      <trkpt lat="45.92977" lon="4.72949">
        <ele>171</ele>
        <time>2018-06-29T10:15:59Z</time>
      </trkpt>
      <trkpt lat="45.92973" lon="4.72954">
        <ele>171</ele>
        <time>2018-06-29T10:16:00Z</time>
      </trkpt>
      <trkpt lat="45.92968" lon="4.72957">
        <ele>171</ele>
        <time>2018-06-29T10:16:01Z</time>
      </trkpt>
      <trkpt lat="45.92964" lon="4.72962">
        <ele>171</ele>
        <time>2018-06-29T10:16:02Z</time>
      </trkpt>
      <trkpt lat="45.9296" lon="4.72967">
        <ele>171</ele>
        <time>2018-06-29T10:16:03Z</time>
      </trkpt>
      <trkpt lat="45.92955" lon="4.72972">
        <ele>171</ele>
        <time>2018-06-29T10:16:04Z</time>
      </trkpt>
      <trkpt lat="45.92951" lon="4.72976">
        <ele>171</ele>
        <time>2018-06-29T10:16:05Z</time>
      </trkpt>
      <trkpt lat="45.92946" lon="4.72981">
        <ele>171</ele>
        <time>2018-06-29T10:16:06Z</time>
      </trkpt>
      <trkpt lat="45.92942" lon="4.72987">
        <ele>171</ele>
        <time>2018-06-29T10:16:07Z</time>
      </trkpt>
      <trkpt lat="45.92938" lon="4.72992">
        <ele>171</ele>
        <time>2018-06-29T10:16:08Z</time>
      </trkpt>
      <trkpt lat="45.92933" lon="4.72996">
        <ele>172</ele>
        <time>2018-06-29T10:16:09Z</time>
      </trkpt>
      <trkpt lat="45.92929" lon="4.73001">
        <ele>172</ele>
        <time>2018-06-29T10:16:10Z</time>
      </trkpt>
      <trkpt lat="45.92925" lon="4.73006">
        <ele>172</ele>
        <time>2018-06-29T10:16:11Z</time>
      </trkpt>
      <trkpt lat="45.9292" lon="4.73011">
        <ele>172</ele>
        <time>2018-06-29T10:16:12Z</time>
      </trkpt>
      <trkpt lat="45.92915" lon="4.73016">
        <ele>172</ele>
        <time>2018-06-29T10:16:13Z</time>
      </trkpt>
      <trkpt lat="45.92911" lon="4.73021">
        <ele>172</ele>
        <time>2018-06-29T10:16:14Z</time>
      </trkpt>
      <trkpt lat="45.92906" lon="4.73026">
        <ele>172</ele>
        <time>2018-06-29T10:16:15Z</time>
      </trkpt>
      <trkpt lat="45.92902" lon="4.73032">
        <ele>172</ele>
        <time>2018-06-29T10:16:16Z</time>
      </trkpt>
      <trkpt lat="45.92899" lon="4.73037">
        <ele>172</ele>
        <time>2018-06-29T10:16:17Z</time>
      </trkpt>
      <trkpt lat="45.92898" lon="4.73046">
        <ele>172</ele>
        <time>2018-06-29T10:16:18Z</time>
      </trkpt>
      <trkpt lat="45.92894" lon="4.73051">
        <ele>172</ele>
        <time>2018-06-29T10:16:19Z</time>
      </trkpt>
      <trkpt lat="45.92891" lon="4.73056">
        <ele>172</ele>
        <time>2018-06-29T10:16:20Z</time>
      </trkpt>
      <trkpt lat="45.92886" lon="4.73061">
        <ele>172</ele>
        <time>2018-06-29T10:16:21Z</time>
      </trkpt>
      <trkpt lat="45.92882" lon="4.73066">
        <ele>172</ele>
        <time>2018-06-29T10:16:22Z</time>
      </trkpt>
      <trkpt lat="45.92877" lon="4.7307">
        <ele>172</ele>
        <time>2018-06-29T10:16:23Z</time>
      </trkpt>
      <trkpt lat="45.92875" lon="4.73075">
        <ele>172</ele>
        <time>2018-06-29T10:16:24Z</time>
      </trkpt>
      <trkpt lat="45.92871" lon="4.7308">
        <ele>172</ele>
        <time>2018-06-29T10:16:25Z</time>
      </trkpt>
      <trkpt lat="45.92868" lon="4.73085">
        <ele>172</ele>
        <time>2018-06-29T10:16:26Z</time>
      </trkpt>
      <trkpt lat="45.92864" lon="4.73089">
        <ele>171</ele>
        <time>2018-06-29T10:16:27Z</time>
      </trkpt>
      <trkpt lat="45.92859" lon="4.73094">
        <ele>171</ele>
        <time>2018-06-29T10:16:28Z</time>
      </trkpt>
      <trkpt lat="45.92856" lon="4.73099">
        <ele>171</ele>
        <time>2018-06-29T10:16:29Z</time>
      </trkpt>
      <trkpt lat="45.92849" lon="4.73102">
        <ele>171</ele>
        <time>2018-06-29T10:16:32Z</time>
      </trkpt>
      <trkpt lat="45.92844" lon="4.73099">
        <ele>171</ele>
        <time>2018-06-29T10:16:33Z</time>
      </trkpt>
      <trkpt lat="45.92845" lon="4.73089">
        <ele>171</ele>
        <time>2018-06-29T10:16:35Z</time>
      </trkpt>
      <trkpt lat="45.92843" lon="4.73081">
        <ele>171</ele>
        <time>2018-06-29T10:16:36Z</time>
      </trkpt>
      <trkpt lat="45.92842" lon="4.73074">
        <ele>171</ele>
        <time>2018-06-29T10:16:37Z</time>
      </trkpt>
      <trkpt lat="45.92841" lon="4.73067">
        <ele>171</ele>
        <time>2018-06-29T10:16:38Z</time>
      </trkpt>
      <trkpt lat="45.9284" lon="4.73059">
        <ele>171</ele>
        <time>2018-06-29T10:16:39Z</time>
      </trkpt>
      <trkpt lat="45.9284" lon="4.73052">
        <ele>171</ele>
        <time>2018-06-29T10:16:40Z</time>
      </trkpt>
      <trkpt lat="45.92838" lon="4.73045">
        <ele>171</ele>
        <time>2018-06-29T10:16:41Z</time>
      </trkpt>
      <trkpt lat="45.92837" lon="4.73037">
        <ele>171</ele>
        <time>2018-06-29T10:16:42Z</time>
      </trkpt>
      <trkpt lat="45.92836" lon="4.7303">
        <ele>171</ele>
        <time>2018-06-29T10:16:43Z</time>
      </trkpt>
      <trkpt lat="45.92836" lon="4.73023">
        <ele>171</ele>
        <time>2018-06-29T10:16:44Z</time>
      </trkpt>
      <trkpt lat="45.92834" lon="4.73017">
        <ele>171</ele>
        <time>2018-06-29T10:16:45Z</time>
      </trkpt>
      <trkpt lat="45.92833" lon="4.7301">
        <ele>170</ele>
        <time>2018-06-29T10:16:46Z</time>
      </trkpt>
      <trkpt lat="45.9283" lon="4.73001">
        <ele>170</ele>
        <time>2018-06-29T10:16:47Z</time>
      </trkpt>
      <trkpt lat="45.9283" lon="4.72994">
        <ele>170</ele>
        <time>2018-06-29T10:16:48Z</time>
      </trkpt>
      <trkpt lat="45.92829" lon="4.72987">
        <ele>170</ele>
        <time>2018-06-29T10:16:49Z</time>
      </trkpt>
      <trkpt lat="45.92828" lon="4.72979">
        <ele>170</ele>
        <time>2018-06-29T10:16:50Z</time>
      </trkpt>
      <trkpt lat="45.92827" lon="4.72972">
        <ele>170</ele>
        <time>2018-06-29T10:16:51Z</time>
      </trkpt>
      <trkpt lat="45.92828" lon="4.72964">
        <ele>170</ele>
        <time>2018-06-29T10:16:52Z</time>
      </trkpt>
      <trkpt lat="45.92828" lon="4.72957">
        <ele>170</ele>
        <time>2018-06-29T10:16:53Z</time>
      </trkpt>
      <trkpt lat="45.92827" lon="4.7295">
        <ele>170</ele>
        <time>2018-06-29T10:16:54Z</time>
      </trkpt>
      <trkpt lat="45.92826" lon="4.72943">
        <ele>170</ele>
        <time>2018-06-29T10:16:55Z</time>
      </trkpt>
      <trkpt lat="45.92824" lon="4.72937">
        <ele>170</ele>
        <time>2018-06-29T10:16:56Z</time>
      </trkpt>
      <trkpt lat="45.92823" lon="4.7293">
        <ele>170</ele>
        <time>2018-06-29T10:16:57Z</time>
      </trkpt>
      <trkpt lat="45.92822" lon="4.72922">
        <ele>170</ele>
        <time>2018-06-29T10:16:58Z</time>
      </trkpt>
      <trkpt lat="45.9282" lon="4.72914">
        <ele>170</ele>
        <time>2018-06-29T10:16:59Z</time>
      </trkpt>
      <trkpt lat="45.9282" lon="4.72907">
        <ele>170</ele>
        <time>2018-06-29T10:17:00Z</time>
      </trkpt>
      <trkpt lat="45.92819" lon="4.729">
        <ele>170</ele>
        <time>2018-06-29T10:17:01Z</time>
      </trkpt>
      <trkpt lat="45.92818" lon="4.72892">
        <ele>170</ele>
        <time>2018-06-29T10:17:02Z</time>
      </trkpt>
      <trkpt lat="45.92817" lon="4.72885">
        <ele>170</ele>
        <time>2018-06-29T10:17:03Z</time>
      </trkpt>
      <trkpt lat="45.92815" lon="4.72877">
        <ele>170</ele>
        <time>2018-06-29T10:17:04Z</time>
      </trkpt>
      <trkpt lat="45.92814" lon="4.7287">
        <ele>170</ele>
        <time>2018-06-29T10:17:05Z</time>
      </trkpt>
      <trkpt lat="45.92812" lon="4.72863">
        <ele>170</ele>
        <time>2018-06-29T10:17:06Z</time>
      </trkpt>
      <trkpt lat="45.92811" lon="4.72855">
        <ele>170</ele>
        <time>2018-06-29T10:17:07Z</time>
      </trkpt>
      <trkpt lat="45.92809" lon="4.72849">
        <ele>170</ele>
        <time>2018-06-29T10:17:08Z</time>
      </trkpt>
      <trkpt lat="45.92809" lon="4.72838">
        <ele>170</ele>
        <time>2018-06-29T10:17:10Z</time>
      </trkpt>
      <trkpt lat="45.9281" lon="4.72832">
        <ele>171</ele>
        <time>2018-06-29T10:17:11Z</time>
      </trkpt>
      <trkpt lat="45.92808" lon="4.72819">
        <ele>171</ele>
        <time>2018-06-29T10:17:13Z</time>
      </trkpt>
      <trkpt lat="45.92807" lon="4.72814">
        <ele>171</ele>
        <time>2018-06-29T10:17:14Z</time>
      </trkpt>
      <trkpt lat="45.92805" lon="4.72801">
        <ele>171</ele>
        <time>2018-06-29T10:17:16Z</time>
      </trkpt>
      <trkpt lat="45.92804" lon="4.72796">
        <ele>171</ele>
        <time>2018-06-29T10:17:17Z</time>
      </trkpt>
      <trkpt lat="45.92798" lon="4.7279">
        <ele>171</ele>
        <time>2018-06-29T10:17:19Z</time>
      </trkpt>
      <trkpt lat="45.92794" lon="4.72791">
        <ele>171</ele>
        <time>2018-06-29T10:17:20Z</time>
      </trkpt>
      <trkpt lat="45.9279" lon="4.72792">
        <ele>170</ele>
        <time>2018-06-29T10:17:21Z</time>
      </trkpt>
      <trkpt lat="45.92785" lon="4.72794">
        <ele>170</ele>
        <time>2018-06-29T10:17:22Z</time>
      </trkpt>
      <trkpt lat="45.92781" lon="4.72797">
        <ele>170</ele>
        <time>2018-06-29T10:17:23Z</time>
      </trkpt>
      <trkpt lat="45.92776" lon="4.72801">
        <ele>170</ele>
        <time>2018-06-29T10:17:24Z</time>
      </trkpt>
      <trkpt lat="45.92771" lon="4.72805">
        <ele>170</ele>
        <time>2018-06-29T10:17:25Z</time>
      </trkpt>
      <trkpt lat="45.92767" lon="4.72809">
        <ele>170</ele>
        <time>2018-06-29T10:17:26Z</time>
      </trkpt>
      <trkpt lat="45.92763" lon="4.72812">
        <ele>170</ele>
        <time>2018-06-29T10:17:27Z</time>
      </trkpt>
      <trkpt lat="45.92758" lon="4.72814">
        <ele>170</ele>
        <time>2018-06-29T10:17:28Z</time>
      </trkpt>
      <trkpt lat="45.9275" lon="4.7282">
        <ele>170</ele>
        <time>2018-06-29T10:17:30Z</time>
      </trkpt>
      <trkpt lat="45.92745" lon="4.72823">
        <ele>169</ele>
        <time>2018-06-29T10:17:31Z</time>
      </trkpt>
      <trkpt lat="45.9274" lon="4.72827">
        <ele>169</ele>
        <time>2018-06-29T10:17:32Z</time>
      </trkpt>
      <trkpt lat="45.92738" lon="4.72832">
        <ele>169</ele>
        <time>2018-06-29T10:17:33Z</time>
      </trkpt>
      <trkpt lat="45.92732" lon="4.72837">
        <ele>169</ele>
        <time>2018-06-29T10:17:34Z</time>
      </trkpt>
      <trkpt lat="45.92728" lon="4.72841">
        <ele>169</ele>
        <time>2018-06-29T10:17:35Z</time>
      </trkpt>
      <trkpt lat="45.92721" lon="4.72846">
        <ele>169</ele>
        <time>2018-06-29T10:17:37Z</time>
      </trkpt>
      <trkpt lat="45.9272" lon="4.72847">
        <ele>169</ele>
        <time>2018-06-29T10:17:38Z</time>
      </trkpt>
      <trkpt lat="45.92712" lon="4.7285">
        <ele>169</ele>
        <time>2018-06-29T10:18:30Z</time>
      </trkpt>
      <trkpt lat="45.9271" lon="4.72852">
        <ele>169</ele>
        <time>2018-06-29T10:18:31Z</time>
      </trkpt>
      <trkpt lat="45.92705" lon="4.72857">
        <ele>169</ele>
        <time>2018-06-29T10:18:34Z</time>
      </trkpt>
      <trkpt lat="45.92698" lon="4.72863">
        <ele>169</ele>
        <time>2018-06-29T10:18:35Z</time>
      </trkpt>
      <trkpt lat="45.92691" lon="4.72869">
        <ele>169</ele>
        <time>2018-06-29T10:18:37Z</time>
      </trkpt>
      <trkpt lat="45.92688" lon="4.72873">
        <ele>169</ele>
        <time>2018-06-29T10:18:38Z</time>
      </trkpt>
      <trkpt lat="45.92683" lon="4.72875">
        <ele>170</ele>
        <time>2018-06-29T10:18:39Z</time>
      </trkpt>
      <trkpt lat="45.92678" lon="4.72879">
        <ele>170</ele>
        <time>2018-06-29T10:18:40Z</time>
      </trkpt>
      <trkpt lat="45.92673" lon="4.72884">
        <ele>170</ele>
        <time>2018-06-29T10:18:41Z</time>
      </trkpt>
      <trkpt lat="45.92668" lon="4.72889">
        <ele>170</ele>
        <time>2018-06-29T10:18:42Z</time>
      </trkpt>
      <trkpt lat="45.92664" lon="4.72893">
        <ele>170</ele>
        <time>2018-06-29T10:18:43Z</time>
      </trkpt>
      <trkpt lat="45.9266" lon="4.72897">
        <ele>170</ele>
        <time>2018-06-29T10:18:44Z</time>
      </trkpt>
      <trkpt lat="45.92655" lon="4.72902">
        <ele>170</ele>
        <time>2018-06-29T10:18:45Z</time>
      </trkpt>
      <trkpt lat="45.9265" lon="4.72905">
        <ele>170</ele>
        <time>2018-06-29T10:18:46Z</time>
      </trkpt>
      <trkpt lat="45.92646" lon="4.72908">
        <ele>170</ele>
        <time>2018-06-29T10:18:47Z</time>
      </trkpt>
      <trkpt lat="45.92642" lon="4.72911">
        <ele>169</ele>
        <time>2018-06-29T10:18:48Z</time>
      </trkpt>
      <trkpt lat="45.92638" lon="4.72916">
        <ele>169</ele>
        <time>2018-06-29T10:18:49Z</time>
      </trkpt>
      <trkpt lat="45.92634" lon="4.72919">
        <ele>170</ele>
        <time>2018-06-29T10:18:50Z</time>
      </trkpt>
      <trkpt lat="45.9263" lon="4.72924">
        <ele>170</ele>
        <time>2018-06-29T10:18:51Z</time>
      </trkpt>
      <trkpt lat="45.92625" lon="4.72927">
        <ele>170</ele>
        <time>2018-06-29T10:18:52Z</time>
      </trkpt>
      <trkpt lat="45.9262" lon="4.72932">
        <ele>169</ele>
        <time>2018-06-29T10:18:53Z</time>
      </trkpt>
      <trkpt lat="45.92615" lon="4.72937">
        <ele>169</ele>
        <time>2018-06-29T10:18:54Z</time>
      </trkpt>
      <trkpt lat="45.9261" lon="4.72941">
        <ele>169</ele>
        <time>2018-06-29T10:18:55Z</time>
      </trkpt>
      <trkpt lat="45.92606" lon="4.72947">
        <ele>169</ele>
        <time>2018-06-29T10:18:56Z</time>
      </trkpt>
      <trkpt lat="45.926" lon="4.72952">
        <ele>169</ele>
        <time>2018-06-29T10:18:57Z</time>
      </trkpt>
      <trkpt lat="45.92595" lon="4.72957">
        <ele>169</ele>
        <time>2018-06-29T10:18:58Z</time>
      </trkpt>
      <trkpt lat="45.92591" lon="4.72963">
        <ele>169</ele>
        <time>2018-06-29T10:18:59Z</time>
      </trkpt>
      <trkpt lat="45.92586" lon="4.72968">
        <ele>169</ele>
        <time>2018-06-29T10:19:00Z</time>
      </trkpt>
      <trkpt lat="45.92582" lon="4.72974">
        <ele>169</ele>
        <time>2018-06-29T10:19:01Z</time>
      </trkpt>
      <trkpt lat="45.92578" lon="4.72979">
        <ele>169</ele>
        <time>2018-06-29T10:19:02Z</time>
      </trkpt>
      <trkpt lat="45.92573" lon="4.72983">
        <ele>169</ele>
        <time>2018-06-29T10:19:03Z</time>
      </trkpt>
      <trkpt lat="45.92568" lon="4.72988">
        <ele>169</ele>
        <time>2018-06-29T10:19:04Z</time>
      </trkpt>
      <trkpt lat="45.92562" lon="4.72992">
        <ele>169</ele>
        <time>2018-06-29T10:19:05Z</time>
      </trkpt>
      <trkpt lat="45.92559" lon="4.72999">
        <ele>169</ele>
        <time>2018-06-29T10:19:06Z</time>
      </trkpt>
      <trkpt lat="45.92553" lon="4.73005">
        <ele>169</ele>
        <time>2018-06-29T10:19:07Z</time>
      </trkpt>
      <trkpt lat="45.92547" lon="4.73009">
        <ele>169</ele>
        <time>2018-06-29T10:19:08Z</time>
      </trkpt>
      <trkpt lat="45.92542" lon="4.73014">
        <ele>169</ele>
        <time>2018-06-29T10:19:09Z</time>
      </trkpt>
      <trkpt lat="45.92537" lon="4.73018">
        <ele>169</ele>
        <time>2018-06-29T10:19:10Z</time>
      </trkpt>
      <trkpt lat="45.92532" lon="4.73023">
        <ele>169</ele>
        <time>2018-06-29T10:19:11Z</time>
      </trkpt>
      <trkpt lat="45.92528" lon="4.73026">
        <ele>169</ele>
        <time>2018-06-29T10:19:12Z</time>
      </trkpt>
      <trkpt lat="45.92523" lon="4.7303">
        <ele>169</ele>
        <time>2018-06-29T10:19:13Z</time>
      </trkpt>
      <trkpt lat="45.92518" lon="4.73034">
        <ele>169</ele>
        <time>2018-06-29T10:19:14Z</time>
      </trkpt>
      <trkpt lat="45.92513" lon="4.73036">
        <ele>169</ele>
        <time>2018-06-29T10:19:15Z</time>
      </trkpt>
      <trkpt lat="45.92508" lon="4.73039">
        <ele>169</ele>
        <time>2018-06-29T10:19:16Z</time>
      </trkpt>
      <trkpt lat="45.92503" lon="4.73042">
        <ele>170</ele>
        <time>2018-06-29T10:19:17Z</time>
      </trkpt>
      <trkpt lat="45.925" lon="4.73047">
        <ele>170</ele>
        <time>2018-06-29T10:19:18Z</time>
      </trkpt>
      <trkpt lat="45.92496" lon="4.7305">
        <ele>170</ele>
        <time>2018-06-29T10:19:19Z</time>
      </trkpt>
      <trkpt lat="45.92492" lon="4.73055">
        <ele>170</ele>
        <time>2018-06-29T10:19:20Z</time>
      </trkpt>
      <trkpt lat="45.92487" lon="4.73059">
        <ele>170</ele>
        <time>2018-06-29T10:19:21Z</time>
      </trkpt>
      <trkpt lat="45.92482" lon="4.73063">
        <ele>170</ele>
        <time>2018-06-29T10:19:22Z</time>
      </trkpt>
      <trkpt lat="45.92477" lon="4.73066">
        <ele>170</ele>
        <time>2018-06-29T10:19:23Z</time>
      </trkpt>
      <trkpt lat="45.92473" lon="4.7307">
        <ele>170</ele>
        <time>2018-06-29T10:19:24Z</time>
      </trkpt>
      <trkpt lat="45.92468" lon="4.73075">
        <ele>170</ele>
        <time>2018-06-29T10:19:25Z</time>
      </trkpt>
      <trkpt lat="45.92463" lon="4.73078">
        <ele>170</ele>
        <time>2018-06-29T10:19:26Z</time>
      </trkpt>
      <trkpt lat="45.92456" lon="4.73087">
        <ele>170</ele>
        <time>2018-06-29T10:19:28Z</time>
      </trkpt>
      <trkpt lat="45.92452" lon="4.73091">
        <ele>170</ele>
        <time>2018-06-29T10:19:29Z</time>
      </trkpt>
      <trkpt lat="45.92447" lon="4.73095">
        <ele>170</ele>
        <time>2018-06-29T10:19:30Z</time>
      </trkpt>
      <trkpt lat="45.92443" lon="4.73098">
        <ele>170</ele>
        <time>2018-06-29T10:19:31Z</time>
      </trkpt>
      <trkpt lat="45.92436" lon="4.73105">
        <ele>170</ele>
        <time>2018-06-29T10:19:33Z</time>
      </trkpt>
      <trkpt lat="45.92432" lon="4.73108">
        <ele>170</ele>
        <time>2018-06-29T10:19:34Z</time>
      </trkpt>
      <trkpt lat="45.92427" lon="4.73111">
        <ele>170</ele>
        <time>2018-06-29T10:19:35Z</time>
      </trkpt>
      <trkpt lat="45.92423" lon="4.73115">
        <ele>170</ele>
        <time>2018-06-29T10:19:36Z</time>
      </trkpt>
      <trkpt lat="45.92419" lon="4.73117">
        <ele>170</ele>
        <time>2018-06-29T10:19:37Z</time>
      </trkpt>
      <trkpt lat="45.92415" lon="4.7312">
        <ele>171</ele>
        <time>2018-06-29T10:19:38Z</time>
      </trkpt>
      <trkpt lat="45.92413" lon="4.73126">
        <ele>171</ele>
        <time>2018-06-29T10:19:39Z</time>
      </trkpt>
      <trkpt lat="45.9241" lon="4.73132">
        <ele>171</ele>
        <time>2018-06-29T10:19:40Z</time>
      </trkpt>
      <trkpt lat="45.92409" lon="4.73138">
        <ele>171</ele>
        <time>2018-06-29T10:19:41Z</time>
      </trkpt>
      <trkpt lat="45.92408" lon="4.73144">
        <ele>171</ele>
        <time>2018-06-29T10:19:42Z</time>
      </trkpt>
      <trkpt lat="45.92407" lon="4.7315">
        <ele>171</ele>
        <time>2018-06-29T10:19:43Z</time>
      </trkpt>
      <trkpt lat="45.92407" lon="4.73158">
        <ele>170</ele>
        <time>2018-06-29T10:19:44Z</time>
      </trkpt>
      <trkpt lat="45.92407" lon="4.7317">
        <ele>170</ele>
        <time>2018-06-29T10:19:46Z</time>
      </trkpt>
      <trkpt lat="45.92407" lon="4.73176">
        <ele>171</ele>
        <time>2018-06-29T10:19:47Z</time>
      </trkpt>
      <trkpt lat="45.92407" lon="4.73184">
        <ele>171</ele>
        <time>2018-06-29T10:19:48Z</time>
      </trkpt>
      <trkpt lat="45.92407" lon="4.73192">
        <ele>171</ele>
        <time>2018-06-29T10:19:49Z</time>
      </trkpt>
      <trkpt lat="45.92408" lon="4.732">
        <ele>171</ele>
        <time>2018-06-29T10:19:50Z</time>
      </trkpt>
      <trkpt lat="45.92408" lon="4.73207">
        <ele>171</ele>
        <time>2018-06-29T10:19:51Z</time>
      </trkpt>
      <trkpt lat="45.92408" lon="4.73215">
        <ele>171</ele>
        <time>2018-06-29T10:19:52Z</time>
      </trkpt>
      <trkpt lat="45.92407" lon="4.73222">
        <ele>171</ele>
        <time>2018-06-29T10:19:53Z</time>
      </trkpt>
      <trkpt lat="45.92408" lon="4.73229">
        <ele>171</ele>
        <time>2018-06-29T10:19:54Z</time>
      </trkpt>
      <trkpt lat="45.92409" lon="4.73237">
        <ele>171</ele>
        <time>2018-06-29T10:19:55Z</time>
      </trkpt>
      <trkpt lat="45.92409" lon="4.73249">
        <ele>171</ele>
        <time>2018-06-29T10:19:57Z</time>
      </trkpt>
      <trkpt lat="45.92408" lon="4.7326">
        <ele>171</ele>
        <time>2018-06-29T10:19:58Z</time>
      </trkpt>
      <trkpt lat="45.92409" lon="4.73268">
        <ele>171</ele>
        <time>2018-06-29T10:19:59Z</time>
      </trkpt>
      <trkpt lat="45.92409" lon="4.73275">
        <ele>171</ele>
        <time>2018-06-29T10:20:00Z</time>
      </trkpt>
      <trkpt lat="45.9241" lon="4.73283">
        <ele>171</ele>
        <time>2018-06-29T10:20:01Z</time>
      </trkpt>
      <trkpt lat="45.9241" lon="4.73291">
        <ele>171</ele>
        <time>2018-06-29T10:20:02Z</time>
      </trkpt>
      <trkpt lat="45.92411" lon="4.73298">
        <ele>171</ele>
        <time>2018-06-29T10:20:03Z</time>
      </trkpt>
      <trkpt lat="45.92411" lon="4.73304">
        <ele>171</ele>
        <time>2018-06-29T10:20:04Z</time>
      </trkpt>
      <trkpt lat="45.92411" lon="4.73311">
        <ele>171</ele>
        <time>2018-06-29T10:20:05Z</time>
      </trkpt>
      <trkpt lat="45.92412" lon="4.73318">
        <ele>171</ele>
        <time>2018-06-29T10:20:06Z</time>
      </trkpt>
      <trkpt lat="45.92413" lon="4.73324">
        <ele>171</ele>
        <time>2018-06-29T10:20:07Z</time>
      </trkpt>
      <trkpt lat="45.92414" lon="4.73331">
        <ele>171</ele>
        <time>2018-06-29T10:20:08Z</time>
      </trkpt>
      <trkpt lat="45.92415" lon="4.73338">
        <ele>171</ele>
        <time>2018-06-29T10:20:09Z</time>
      </trkpt>
      <trkpt lat="45.92415" lon="4.73346">
        <ele>171</ele>
        <time>2018-06-29T10:20:10Z</time>
      </trkpt>
      <trkpt lat="45.92415" lon="4.73352">
        <ele>171</ele>
        <time>2018-06-29T10:20:11Z</time>
      </trkpt>
      <trkpt lat="45.92416" lon="4.7336">
        <ele>171</ele>
        <time>2018-06-29T10:20:12Z</time>
      </trkpt>
      <trkpt lat="45.92417" lon="4.73366">
        <ele>172</ele>
        <time>2018-06-29T10:20:13Z</time>
      </trkpt>
      <trkpt lat="45.92418" lon="4.73375">
        <ele>172</ele>
        <time>2018-06-29T10:20:14Z</time>
      </trkpt>
      <trkpt lat="45.92418" lon="4.73383">
        <ele>172</ele>
        <time>2018-06-29T10:20:15Z</time>
      </trkpt>
      <trkpt lat="45.9242" lon="4.7339">
        <ele>172</ele>
        <time>2018-06-29T10:20:16Z</time>
      </trkpt>
      <trkpt lat="45.92422" lon="4.73397">
        <ele>172</ele>
        <time>2018-06-29T10:20:17Z</time>
      </trkpt>
      <trkpt lat="45.92425" lon="4.73404">
        <ele>172</ele>
        <time>2018-06-29T10:20:18Z</time>
      </trkpt>
      <trkpt lat="45.92429" lon="4.73409">
        <ele>172</ele>
        <time>2018-06-29T10:20:19Z</time>
      </trkpt>
      <trkpt lat="45.92432" lon="4.73415">
        <ele>172</ele>
        <time>2018-06-29T10:20:20Z</time>
      </trkpt>
      <trkpt lat="45.92436" lon="4.73419">
        <ele>173</ele>
        <time>2018-06-29T10:20:21Z</time>
      </trkpt>
      <trkpt lat="45.9244" lon="4.73422">
        <ele>173</ele>
        <time>2018-06-29T10:20:22Z</time>
      </trkpt>
      <trkpt lat="45.92444" lon="4.73425">
        <ele>173</ele>
        <time>2018-06-29T10:20:23Z</time>
      </trkpt>
      <trkpt lat="45.92451" lon="4.7343">
        <ele>173</ele>
        <time>2018-06-29T10:20:24Z</time>
      </trkpt>
      <trkpt lat="45.92454" lon="4.73436">
        <ele>173</ele>
        <time>2018-06-29T10:20:25Z</time>
      </trkpt>
      <trkpt lat="45.92458" lon="4.7344">
        <ele>173</ele>
        <time>2018-06-29T10:20:26Z</time>
      </trkpt>
      <trkpt lat="45.9246" lon="4.73446">
        <ele>173</ele>
        <time>2018-06-29T10:20:27Z</time>
      </trkpt>
      <trkpt lat="45.92461" lon="4.73453">
        <ele>173</ele>
        <time>2018-06-29T10:20:28Z</time>
      </trkpt>
      <trkpt lat="45.92463" lon="4.73465">
        <ele>173</ele>
        <time>2018-06-29T10:20:30Z</time>
      </trkpt>
      <trkpt lat="45.92463" lon="4.73473">
        <ele>173</ele>
        <time>2018-06-29T10:20:31Z</time>
      </trkpt>
      <trkpt lat="45.92467" lon="4.73481">
        <ele>173</ele>
        <time>2018-06-29T10:20:32Z</time>
      </trkpt>
      <trkpt lat="45.92466" lon="4.73488">
        <ele>173</ele>
        <time>2018-06-29T10:20:33Z</time>
      </trkpt>
      <trkpt lat="45.92466" lon="4.73494">
        <ele>173</ele>
        <time>2018-06-29T10:20:34Z</time>
      </trkpt>
      <trkpt lat="45.92466" lon="4.73501">
        <ele>174</ele>
        <time>2018-06-29T10:20:35Z</time>
      </trkpt>
      <trkpt lat="45.92466" lon="4.73507">
        <ele>174</ele>
        <time>2018-06-29T10:20:36Z</time>
      </trkpt>
      <trkpt lat="45.92465" lon="4.73514">
        <ele>174</ele>
        <time>2018-06-29T10:20:37Z</time>
      </trkpt>
      <trkpt lat="45.92465" lon="4.73521">
        <ele>174</ele>
        <time>2018-06-29T10:20:38Z</time>
      </trkpt>
      <trkpt lat="45.92466" lon="4.73528">
        <ele>174</ele>
        <time>2018-06-29T10:20:39Z</time>
      </trkpt>
      <trkpt lat="45.92465" lon="4.73541">
        <ele>174</ele>
        <time>2018-06-29T10:20:41Z</time>
      </trkpt>
      <trkpt lat="45.92466" lon="4.73547">
        <ele>173</ele>
        <time>2018-06-29T10:20:42Z</time>
      </trkpt>
      <trkpt lat="45.92465" lon="4.7356">
        <ele>173</ele>
        <time>2018-06-29T10:20:44Z</time>
      </trkpt>
      <trkpt lat="45.92466" lon="4.73567">
        <ele>173</ele>
        <time>2018-06-29T10:20:45Z</time>
      </trkpt>
      <trkpt lat="45.92467" lon="4.73576">
        <ele>173</ele>
        <time>2018-06-29T10:20:46Z</time>
      </trkpt>
      <trkpt lat="45.92468" lon="4.73584">
        <ele>174</ele>
        <time>2018-06-29T10:20:47Z</time>
      </trkpt>
      <trkpt lat="45.92468" lon="4.73592">
        <ele>174</ele>
        <time>2018-06-29T10:20:48Z</time>
      </trkpt>
      <trkpt lat="45.92467" lon="4.73599">
        <ele>174</ele>
        <time>2018-06-29T10:20:49Z</time>
      </trkpt>
      <trkpt lat="45.92467" lon="4.73608">
        <ele>174</ele>
        <time>2018-06-29T10:20:50Z</time>
      </trkpt>
      <trkpt lat="45.92468" lon="4.73616">
        <ele>174</ele>
        <time>2018-06-29T10:20:51Z</time>
      </trkpt>
      <trkpt lat="45.92469" lon="4.73623">
        <ele>174</ele>
        <time>2018-06-29T10:20:52Z</time>
      </trkpt>
      <trkpt lat="45.9247" lon="4.73631">
        <ele>174</ele>
        <time>2018-06-29T10:20:53Z</time>
      </trkpt>
      <trkpt lat="45.92471" lon="4.73638">
        <ele>174</ele>
        <time>2018-06-29T10:20:54Z</time>
      </trkpt>
      <trkpt lat="45.9247" lon="4.73645">
        <ele>174</ele>
        <time>2018-06-29T10:20:55Z</time>
      </trkpt>
      <trkpt lat="45.92469" lon="4.73651">
        <ele>174</ele>
        <time>2018-06-29T10:20:56Z</time>
      </trkpt>
      <trkpt lat="45.92468" lon="4.73658">
        <ele>174</ele>
        <time>2018-06-29T10:20:57Z</time>
      </trkpt>
      <trkpt lat="45.92468" lon="4.73665">
        <ele>174</ele>
        <time>2018-06-29T10:20:58Z</time>
      </trkpt>
      <trkpt lat="45.92467" lon="4.7367">
        <ele>174</ele>
        <time>2018-06-29T10:20:59Z</time>
      </trkpt>
      <trkpt lat="45.92467" lon="4.73677">
        <ele>174</ele>
        <time>2018-06-29T10:21:00Z</time>
      </trkpt>
      <trkpt lat="45.92466" lon="4.73684">
        <ele>174</ele>
        <time>2018-06-29T10:21:01Z</time>
      </trkpt>
      <trkpt lat="45.92464" lon="4.73695">
        <ele>174</ele>
        <time>2018-06-29T10:21:04Z</time>
      </trkpt>
      <trkpt lat="45.92464" lon="4.73697">
        <ele>174</ele>
        <time>2018-06-29T10:21:05Z</time>
      </trkpt>
      <trkpt lat="45.92459" lon="4.73708">
        <ele>174</ele>
        <time>2018-06-29T10:21:24Z</time>
      </trkpt>
      <trkpt lat="45.92459" lon="4.73708">
        <ele>174</ele>
        <time>2018-06-29T10:21:25Z</time>
      </trkpt>
      <trkpt lat="45.92458" lon="4.73708">
        <ele>174</ele>
        <time>2018-06-29T10:21:48.577Z</time>
      </trkpt>
    </trkseg>
  </trk>
</gpx>